<?xml version="1.0" encoding="UTF-8" standalone="no" ?>
<gpx xmlns="http://www.topografix.com/GPX/1/1" xmlns:xsi="http://www.w3.org/2001/XMLSchema-instance" xsi:schemaLocation="http://www.topografix.com/GPX/1/1 http://www.topografix.com/GPX/1/1/gpx.xsd" version="1.1" creator="VisuGPX - https://www.visugpx.com">
  <metadata>
    <name>Route des Crêtes Col de l'Espigoulier</name>
    <desc><![CDATA[Il y a 1600 m de dénivelé plus précisément.]]></desc>
  </metadata>
  <trk>
    <name><![CDATA[OR-6304660--Ciotat (La):Route des Crêtes / Espigoulier par auriol]]></name>
    <trkseg>
      <trkpt lat="43.19159" lon="5.63279">
        <ele>31</ele>
        <time>2016-07-06T18:25:38Z</time>
      </trkpt>
      <trkpt lat="43.19155" lon="5.63275">
        <ele>31</ele>
        <time>2016-07-06T18:27:38Z</time>
      </trkpt>
      <trkpt lat="43.19149" lon="5.63272">
        <ele>31</ele>
        <time>2016-07-06T18:29:38Z</time>
      </trkpt>
      <trkpt lat="43.19124" lon="5.63261">
        <ele>31</ele>
        <time>2016-07-06T18:31:38Z</time>
      </trkpt>
      <trkpt lat="43.19055" lon="5.63234">
        <ele>27</ele>
        <time>2016-07-06T18:33:38Z</time>
      </trkpt>
      <trkpt lat="43.19029" lon="5.63228">
        <ele>23</ele>
        <time>2016-07-06T18:35:38Z</time>
      </trkpt>
      <trkpt lat="43.1898" lon="5.63222">
        <ele>18</ele>
        <time>2016-07-06T18:37:38Z</time>
      </trkpt>
      <trkpt lat="43.18962" lon="5.6322">
        <ele>16</ele>
        <time>2016-07-06T18:39:38Z</time>
      </trkpt>
      <trkpt lat="43.18951" lon="5.63219">
        <ele>15</ele>
        <time>2016-07-06T18:41:38Z</time>
      </trkpt>
      <trkpt lat="43.18944" lon="5.63219">
        <ele>14</ele>
        <time>2016-07-06T18:43:38Z</time>
      </trkpt>
      <trkpt lat="43.18923" lon="5.63218">
        <ele>12</ele>
        <time>2016-07-06T18:45:38Z</time>
      </trkpt>
      <trkpt lat="43.18918" lon="5.63217">
        <ele>12</ele>
        <time>2016-07-06T18:47:38Z</time>
      </trkpt>
      <trkpt lat="43.18912" lon="5.63216">
        <ele>11</ele>
        <time>2016-07-06T18:49:38Z</time>
      </trkpt>
      <trkpt lat="43.18903" lon="5.63213">
        <ele>10</ele>
        <time>2016-07-06T18:51:38Z</time>
      </trkpt>
      <trkpt lat="43.18902" lon="5.63213">
        <ele>10</ele>
        <time>2016-07-06T18:53:38Z</time>
      </trkpt>
      <trkpt lat="43.189" lon="5.63212">
        <ele>10</ele>
        <time>2016-07-06T18:55:38Z</time>
      </trkpt>
      <trkpt lat="43.18892" lon="5.6321">
        <ele>9</ele>
        <time>2016-07-06T18:57:38Z</time>
      </trkpt>
      <trkpt lat="43.18869" lon="5.63203">
        <ele>8</ele>
        <time>2016-07-06T18:59:38Z</time>
      </trkpt>
      <trkpt lat="43.18859" lon="5.63198">
        <ele>7</ele>
        <time>2016-07-06T19:01:38Z</time>
      </trkpt>
      <trkpt lat="43.18855" lon="5.63193">
        <ele>6</ele>
        <time>2016-07-06T19:03:38Z</time>
      </trkpt>
      <trkpt lat="43.1885" lon="5.63186">
        <ele>6</ele>
        <time>2016-07-06T19:05:38Z</time>
      </trkpt>
      <trkpt lat="43.18842" lon="5.63168">
        <ele>5</ele>
        <time>2016-07-06T19:07:38Z</time>
      </trkpt>
      <trkpt lat="43.18842" lon="5.63168">
        <ele>5</ele>
        <time>2016-07-06T19:09:38Z</time>
      </trkpt>
      <trkpt lat="43.18849" lon="5.63135">
        <ele>6</ele>
        <time>2016-07-06T19:11:38Z</time>
      </trkpt>
      <trkpt lat="43.18856" lon="5.63108">
        <ele>6</ele>
        <time>2016-07-06T19:13:38Z</time>
      </trkpt>
      <trkpt lat="43.1886" lon="5.63087">
        <ele>7</ele>
        <time>2016-07-06T19:15:38Z</time>
      </trkpt>
      <trkpt lat="43.18865" lon="5.63069">
        <ele>8</ele>
        <time>2016-07-06T19:17:38Z</time>
      </trkpt>
      <trkpt lat="43.1887" lon="5.63052">
        <ele>9</ele>
        <time>2016-07-06T19:19:38Z</time>
      </trkpt>
      <trkpt lat="43.18898" lon="5.62982">
        <ele>9</ele>
        <time>2016-07-06T19:21:38Z</time>
      </trkpt>
      <trkpt lat="43.18904" lon="5.62965">
        <ele>9</ele>
        <time>2016-07-06T19:23:38Z</time>
      </trkpt>
      <trkpt lat="43.18906" lon="5.62957">
        <ele>9</ele>
        <time>2016-07-06T19:25:38Z</time>
      </trkpt>
      <trkpt lat="43.18906" lon="5.6295">
        <ele>9</ele>
        <time>2016-07-06T19:27:38Z</time>
      </trkpt>
      <trkpt lat="43.18906" lon="5.6294">
        <ele>9</ele>
        <time>2016-07-06T19:29:38Z</time>
      </trkpt>
      <trkpt lat="43.18904" lon="5.62926">
        <ele>9</ele>
        <time>2016-07-06T19:31:38Z</time>
      </trkpt>
      <trkpt lat="43.18901" lon="5.62911">
        <ele>9</ele>
        <time>2016-07-06T19:33:38Z</time>
      </trkpt>
      <trkpt lat="43.189" lon="5.62903">
        <ele>9</ele>
        <time>2016-07-06T19:35:38Z</time>
      </trkpt>
      <trkpt lat="43.18899" lon="5.62895">
        <ele>9</ele>
        <time>2016-07-06T19:37:38Z</time>
      </trkpt>
      <trkpt lat="43.18894" lon="5.62879">
        <ele>9</ele>
        <time>2016-07-06T19:39:38Z</time>
      </trkpt>
      <trkpt lat="43.18886" lon="5.62832">
        <ele>9</ele>
        <time>2016-07-06T19:41:38Z</time>
      </trkpt>
      <trkpt lat="43.18886" lon="5.62825">
        <ele>9</ele>
        <time>2016-07-06T19:43:38Z</time>
      </trkpt>
      <trkpt lat="43.18886" lon="5.6282">
        <ele>9</ele>
        <time>2016-07-06T19:45:38Z</time>
      </trkpt>
      <trkpt lat="43.18887" lon="5.62813">
        <ele>9</ele>
        <time>2016-07-06T19:47:38Z</time>
      </trkpt>
      <trkpt lat="43.18889" lon="5.62805">
        <ele>9</ele>
        <time>2016-07-06T19:49:38Z</time>
      </trkpt>
      <trkpt lat="43.1889" lon="5.62797">
        <ele>9</ele>
        <time>2016-07-06T19:51:38Z</time>
      </trkpt>
      <trkpt lat="43.1889" lon="5.62797">
        <ele>9</ele>
        <time>2016-07-06T19:53:38Z</time>
      </trkpt>
      <trkpt lat="43.18892" lon="5.62798">
        <ele>9</ele>
        <time>2016-07-06T19:55:38Z</time>
      </trkpt>
      <trkpt lat="43.18893" lon="5.62798">
        <ele>9</ele>
        <time>2016-07-06T19:57:38Z</time>
      </trkpt>
      <trkpt lat="43.18894" lon="5.62798">
        <ele>9</ele>
        <time>2016-07-06T19:59:38Z</time>
      </trkpt>
      <trkpt lat="43.18896" lon="5.62797">
        <ele>9</ele>
        <time>2016-07-06T20:01:38Z</time>
      </trkpt>
      <trkpt lat="43.18898" lon="5.62796">
        <ele>9</ele>
        <time>2016-07-06T20:03:38Z</time>
      </trkpt>
      <trkpt lat="43.189" lon="5.62795">
        <ele>9</ele>
        <time>2016-07-06T20:05:38Z</time>
      </trkpt>
      <trkpt lat="43.18902" lon="5.62792">
        <ele>9</ele>
        <time>2016-07-06T20:07:38Z</time>
      </trkpt>
      <trkpt lat="43.18903" lon="5.62788">
        <ele>9</ele>
        <time>2016-07-06T20:09:38Z</time>
      </trkpt>
      <trkpt lat="43.18904" lon="5.62783">
        <ele>9</ele>
        <time>2016-07-06T20:11:38Z</time>
      </trkpt>
      <trkpt lat="43.18904" lon="5.62779">
        <ele>9</ele>
        <time>2016-07-06T20:13:38Z</time>
      </trkpt>
      <trkpt lat="43.18903" lon="5.62774">
        <ele>9</ele>
        <time>2016-07-06T20:15:38Z</time>
      </trkpt>
      <trkpt lat="43.18902" lon="5.6277">
        <ele>9</ele>
        <time>2016-07-06T20:17:38Z</time>
      </trkpt>
      <trkpt lat="43.189" lon="5.62767">
        <ele>9</ele>
        <time>2016-07-06T20:19:38Z</time>
      </trkpt>
      <trkpt lat="43.18899" lon="5.62763">
        <ele>9</ele>
        <time>2016-07-06T20:21:38Z</time>
      </trkpt>
      <trkpt lat="43.18896" lon="5.6276">
        <ele>9</ele>
        <time>2016-07-06T20:23:38Z</time>
      </trkpt>
      <trkpt lat="43.18892" lon="5.6276">
        <ele>8</ele>
        <time>2016-07-06T20:25:38Z</time>
      </trkpt>
      <trkpt lat="43.18888" lon="5.6276">
        <ele>8</ele>
        <time>2016-07-06T20:27:38Z</time>
      </trkpt>
      <trkpt lat="43.18887" lon="5.6276">
        <ele>8</ele>
        <time>2016-07-06T20:29:38Z</time>
      </trkpt>
      <trkpt lat="43.18886" lon="5.62761">
        <ele>8</ele>
        <time>2016-07-06T20:31:38Z</time>
      </trkpt>
      <trkpt lat="43.18884" lon="5.62763">
        <ele>8</ele>
        <time>2016-07-06T20:33:38Z</time>
      </trkpt>
      <trkpt lat="43.18881" lon="5.6276">
        <ele>8</ele>
        <time>2016-07-06T20:35:38Z</time>
      </trkpt>
      <trkpt lat="43.18877" lon="5.62756">
        <ele>8</ele>
        <time>2016-07-06T20:37:38Z</time>
      </trkpt>
      <trkpt lat="43.18872" lon="5.62749">
        <ele>8</ele>
        <time>2016-07-06T20:39:38Z</time>
      </trkpt>
      <trkpt lat="43.18865" lon="5.62739">
        <ele>8</ele>
        <time>2016-07-06T20:41:38Z</time>
      </trkpt>
      <trkpt lat="43.18854" lon="5.62717">
        <ele>7</ele>
        <time>2016-07-06T20:43:38Z</time>
      </trkpt>
      <trkpt lat="43.18849" lon="5.62714">
        <ele>7</ele>
        <time>2016-07-06T20:45:38Z</time>
      </trkpt>
      <trkpt lat="43.18838" lon="5.62693">
        <ele>6</ele>
        <time>2016-07-06T20:47:38Z</time>
      </trkpt>
      <trkpt lat="43.18836" lon="5.6269">
        <ele>6</ele>
        <time>2016-07-06T20:49:38Z</time>
      </trkpt>
      <trkpt lat="43.18829" lon="5.6268">
        <ele>6</ele>
        <time>2016-07-06T20:51:38Z</time>
      </trkpt>
      <trkpt lat="43.1882" lon="5.62671">
        <ele>6</ele>
        <time>2016-07-06T20:53:38Z</time>
      </trkpt>
      <trkpt lat="43.18748" lon="5.62634">
        <ele>5</ele>
        <time>2016-07-06T20:55:38Z</time>
      </trkpt>
      <trkpt lat="43.18741" lon="5.62629">
        <ele>4</ele>
        <time>2016-07-06T20:57:38Z</time>
      </trkpt>
      <trkpt lat="43.18737" lon="5.62624">
        <ele>4</ele>
        <time>2016-07-06T20:59:38Z</time>
      </trkpt>
      <trkpt lat="43.18733" lon="5.62618">
        <ele>4</ele>
        <time>2016-07-06T21:01:38Z</time>
      </trkpt>
      <trkpt lat="43.1873" lon="5.6261">
        <ele>4</ele>
        <time>2016-07-06T21:03:38Z</time>
      </trkpt>
      <trkpt lat="43.18728" lon="5.62595">
        <ele>4</ele>
        <time>2016-07-06T21:05:38Z</time>
      </trkpt>
      <trkpt lat="43.18729" lon="5.62549">
        <ele>3</ele>
        <time>2016-07-06T21:07:38Z</time>
      </trkpt>
      <trkpt lat="43.18728" lon="5.62482">
        <ele>2</ele>
        <time>2016-07-06T21:09:38Z</time>
      </trkpt>
      <trkpt lat="43.18727" lon="5.6246">
        <ele>2</ele>
        <time>2016-07-06T21:11:38Z</time>
      </trkpt>
      <trkpt lat="43.18724" lon="5.62428">
        <ele>2</ele>
        <time>2016-07-06T21:13:38Z</time>
      </trkpt>
      <trkpt lat="43.18721" lon="5.62405">
        <ele>2</ele>
        <time>2016-07-06T21:15:38Z</time>
      </trkpt>
      <trkpt lat="43.18717" lon="5.62376">
        <ele>2</ele>
        <time>2016-07-06T21:17:38Z</time>
      </trkpt>
      <trkpt lat="43.18716" lon="5.62371">
        <ele>2</ele>
        <time>2016-07-06T21:19:38Z</time>
      </trkpt>
      <trkpt lat="43.18707" lon="5.62329">
        <ele>3</ele>
        <time>2016-07-06T21:21:38Z</time>
      </trkpt>
      <trkpt lat="43.18695" lon="5.62282">
        <ele>4</ele>
        <time>2016-07-06T21:23:38Z</time>
      </trkpt>
      <trkpt lat="43.1868" lon="5.62238">
        <ele>6</ele>
        <time>2016-07-06T21:25:38Z</time>
      </trkpt>
      <trkpt lat="43.18672" lon="5.62216">
        <ele>7</ele>
        <time>2016-07-06T21:27:38Z</time>
      </trkpt>
      <trkpt lat="43.18661" lon="5.62191">
        <ele>7</ele>
        <time>2016-07-06T21:29:38Z</time>
      </trkpt>
      <trkpt lat="43.18648" lon="5.62162">
        <ele>8</ele>
        <time>2016-07-06T21:31:38Z</time>
      </trkpt>
      <trkpt lat="43.18636" lon="5.62139">
        <ele>7</ele>
        <time>2016-07-06T21:33:38Z</time>
      </trkpt>
      <trkpt lat="43.18619" lon="5.62112">
        <ele>5</ele>
        <time>2016-07-06T21:35:38Z</time>
      </trkpt>
      <trkpt lat="43.18603" lon="5.6209">
        <ele>4</ele>
        <time>2016-07-06T21:37:38Z</time>
      </trkpt>
      <trkpt lat="43.18576" lon="5.62052">
        <ele>4</ele>
        <time>2016-07-06T21:39:38Z</time>
      </trkpt>
      <trkpt lat="43.18568" lon="5.62037">
        <ele>4</ele>
        <time>2016-07-06T21:41:38Z</time>
      </trkpt>
      <trkpt lat="43.18538" lon="5.61967">
        <ele>4</ele>
        <time>2016-07-06T21:43:38Z</time>
      </trkpt>
      <trkpt lat="43.18512" lon="5.61905">
        <ele>6</ele>
        <time>2016-07-06T21:45:38Z</time>
      </trkpt>
      <trkpt lat="43.18497" lon="5.61873">
        <ele>4</ele>
        <time>2016-07-06T21:47:38Z</time>
      </trkpt>
      <trkpt lat="43.18479" lon="5.61828">
        <ele>5</ele>
        <time>2016-07-06T21:49:38Z</time>
      </trkpt>
      <trkpt lat="43.18462" lon="5.61787">
        <ele>5</ele>
        <time>2016-07-06T21:51:38Z</time>
      </trkpt>
      <trkpt lat="43.18455" lon="5.61773">
        <ele>5</ele>
        <time>2016-07-06T21:53:38Z</time>
      </trkpt>
      <trkpt lat="43.18432" lon="5.6174">
        <ele>3</ele>
        <time>2016-07-06T21:55:38Z</time>
      </trkpt>
      <trkpt lat="43.18403" lon="5.61703">
        <ele>3</ele>
        <time>2016-07-06T21:57:38Z</time>
      </trkpt>
      <trkpt lat="43.18374" lon="5.6167">
        <ele>3</ele>
        <time>2016-07-06T21:59:38Z</time>
      </trkpt>
      <trkpt lat="43.18372" lon="5.61667">
        <ele>3</ele>
        <time>2016-07-06T22:01:38Z</time>
      </trkpt>
      <trkpt lat="43.18358" lon="5.61654">
        <ele>4</ele>
        <time>2016-07-06T22:03:38Z</time>
      </trkpt>
      <trkpt lat="43.1832" lon="5.6162">
        <ele>5</ele>
        <time>2016-07-06T22:05:38Z</time>
      </trkpt>
      <trkpt lat="43.18276" lon="5.61572">
        <ele>4</ele>
        <time>2016-07-06T22:07:38Z</time>
      </trkpt>
      <trkpt lat="43.18262" lon="5.61547">
        <ele>4</ele>
        <time>2016-07-06T22:09:38Z</time>
      </trkpt>
      <trkpt lat="43.18262" lon="5.61545">
        <ele>4</ele>
        <time>2016-07-06T22:11:38Z</time>
      </trkpt>
      <trkpt lat="43.18257" lon="5.61529">
        <ele>4</ele>
        <time>2016-07-06T22:13:38Z</time>
      </trkpt>
      <trkpt lat="43.18255" lon="5.61517">
        <ele>5</ele>
        <time>2016-07-06T22:15:38Z</time>
      </trkpt>
      <trkpt lat="43.18256" lon="5.61503">
        <ele>5</ele>
        <time>2016-07-06T22:17:38Z</time>
      </trkpt>
      <trkpt lat="43.18256" lon="5.61503">
        <ele>5</ele>
        <time>2016-07-06T22:19:38Z</time>
      </trkpt>
      <trkpt lat="43.1826" lon="5.61503">
        <ele>5</ele>
        <time>2016-07-06T22:21:38Z</time>
      </trkpt>
      <trkpt lat="43.18263" lon="5.61501">
        <ele>5</ele>
        <time>2016-07-06T22:23:38Z</time>
      </trkpt>
      <trkpt lat="43.18265" lon="5.61498">
        <ele>6</ele>
        <time>2016-07-06T22:25:38Z</time>
      </trkpt>
      <trkpt lat="43.18267" lon="5.61496">
        <ele>6</ele>
        <time>2016-07-06T22:27:38Z</time>
      </trkpt>
      <trkpt lat="43.18268" lon="5.61492">
        <ele>6</ele>
        <time>2016-07-06T22:29:38Z</time>
      </trkpt>
      <trkpt lat="43.18268" lon="5.61489">
        <ele>6</ele>
        <time>2016-07-06T22:31:38Z</time>
      </trkpt>
      <trkpt lat="43.18267" lon="5.61483">
        <ele>6</ele>
        <time>2016-07-06T22:33:38Z</time>
      </trkpt>
      <trkpt lat="43.18266" lon="5.61479">
        <ele>6</ele>
        <time>2016-07-06T22:35:38Z</time>
      </trkpt>
      <trkpt lat="43.18263" lon="5.61477">
        <ele>6</ele>
        <time>2016-07-06T22:37:38Z</time>
      </trkpt>
      <trkpt lat="43.18261" lon="5.61476">
        <ele>6</ele>
        <time>2016-07-06T22:39:38Z</time>
      </trkpt>
      <trkpt lat="43.18258" lon="5.61475">
        <ele>6</ele>
        <time>2016-07-06T22:41:38Z</time>
      </trkpt>
      <trkpt lat="43.18255" lon="5.61476">
        <ele>5</ele>
        <time>2016-07-06T22:43:38Z</time>
      </trkpt>
      <trkpt lat="43.18252" lon="5.61477">
        <ele>5</ele>
        <time>2016-07-06T22:45:38Z</time>
      </trkpt>
      <trkpt lat="43.18249" lon="5.6148">
        <ele>5</ele>
        <time>2016-07-06T22:47:38Z</time>
      </trkpt>
      <trkpt lat="43.18245" lon="5.61476">
        <ele>5</ele>
        <time>2016-07-06T22:49:38Z</time>
      </trkpt>
      <trkpt lat="43.18241" lon="5.61473">
        <ele>5</ele>
        <time>2016-07-06T22:51:38Z</time>
      </trkpt>
      <trkpt lat="43.18232" lon="5.61464">
        <ele>5</ele>
        <time>2016-07-06T22:53:38Z</time>
      </trkpt>
      <trkpt lat="43.18216" lon="5.61443">
        <ele>4</ele>
        <time>2016-07-06T22:55:38Z</time>
      </trkpt>
      <trkpt lat="43.18208" lon="5.61434">
        <ele>4</ele>
        <time>2016-07-06T22:57:38Z</time>
      </trkpt>
      <trkpt lat="43.18193" lon="5.6142">
        <ele>4</ele>
        <time>2016-07-06T22:59:38Z</time>
      </trkpt>
      <trkpt lat="43.18186" lon="5.61412">
        <ele>4</ele>
        <time>2016-07-06T23:01:38Z</time>
      </trkpt>
      <trkpt lat="43.18177" lon="5.614">
        <ele>4</ele>
        <time>2016-07-06T23:03:38Z</time>
      </trkpt>
      <trkpt lat="43.18164" lon="5.61381">
        <ele>4</ele>
        <time>2016-07-06T23:05:38Z</time>
      </trkpt>
      <trkpt lat="43.18158" lon="5.61374">
        <ele>4</ele>
        <time>2016-07-06T23:07:38Z</time>
      </trkpt>
      <trkpt lat="43.1811" lon="5.61305">
        <ele>6</ele>
        <time>2016-07-06T23:09:38Z</time>
      </trkpt>
      <trkpt lat="43.18105" lon="5.61298">
        <ele>6</ele>
        <time>2016-07-06T23:11:38Z</time>
      </trkpt>
      <trkpt lat="43.1806" lon="5.6125">
        <ele>7</ele>
        <time>2016-07-06T23:13:38Z</time>
      </trkpt>
      <trkpt lat="43.18035" lon="5.61226">
        <ele>8</ele>
        <time>2016-07-06T23:15:38Z</time>
      </trkpt>
      <trkpt lat="43.18006" lon="5.61201">
        <ele>9</ele>
        <time>2016-07-06T23:17:38Z</time>
      </trkpt>
      <trkpt lat="43.17991" lon="5.61189">
        <ele>9</ele>
        <time>2016-07-06T23:19:38Z</time>
      </trkpt>
      <trkpt lat="43.17883" lon="5.61112">
        <ele>9</ele>
        <time>2016-07-06T23:21:38Z</time>
      </trkpt>
      <trkpt lat="43.17873" lon="5.61105">
        <ele>9</ele>
        <time>2016-07-06T23:23:38Z</time>
      </trkpt>
      <trkpt lat="43.17851" lon="5.61088">
        <ele>10</ele>
        <time>2016-07-06T23:25:38Z</time>
      </trkpt>
      <trkpt lat="43.17851" lon="5.61088">
        <ele>10</ele>
        <time>2016-07-06T23:27:38Z</time>
      </trkpt>
      <trkpt lat="43.17875" lon="5.61083">
        <ele>12</ele>
        <time>2016-07-06T23:29:38Z</time>
      </trkpt>
      <trkpt lat="43.17881" lon="5.61082">
        <ele>12</ele>
        <time>2016-07-06T23:31:38Z</time>
      </trkpt>
      <trkpt lat="43.17884" lon="5.6108">
        <ele>12</ele>
        <time>2016-07-06T23:33:38Z</time>
      </trkpt>
      <trkpt lat="43.17887" lon="5.61079">
        <ele>13</ele>
        <time>2016-07-06T23:35:38Z</time>
      </trkpt>
      <trkpt lat="43.17888" lon="5.61077">
        <ele>13</ele>
        <time>2016-07-06T23:37:38Z</time>
      </trkpt>
      <trkpt lat="43.1789" lon="5.61075">
        <ele>13</ele>
        <time>2016-07-06T23:39:38Z</time>
      </trkpt>
      <trkpt lat="43.17894" lon="5.6107">
        <ele>14</ele>
        <time>2016-07-06T23:41:38Z</time>
      </trkpt>
      <trkpt lat="43.17894" lon="5.6107">
        <ele>14</ele>
        <time>2016-07-06T23:43:38Z</time>
      </trkpt>
      <trkpt lat="43.17891" lon="5.61065">
        <ele>14</ele>
        <time>2016-07-06T23:45:38Z</time>
      </trkpt>
      <trkpt lat="43.17887" lon="5.61057">
        <ele>15</ele>
        <time>2016-07-06T23:47:38Z</time>
      </trkpt>
      <trkpt lat="43.17874" lon="5.61045">
        <ele>15</ele>
        <time>2016-07-06T23:49:38Z</time>
      </trkpt>
      <trkpt lat="43.1784" lon="5.6102">
        <ele>15</ele>
        <time>2016-07-06T23:51:38Z</time>
      </trkpt>
      <trkpt lat="43.1784" lon="5.6102">
        <ele>15</ele>
        <time>2016-07-06T23:53:38Z</time>
      </trkpt>
      <trkpt lat="43.17845" lon="5.61">
        <ele>18</ele>
        <time>2016-07-06T23:55:38Z</time>
      </trkpt>
      <trkpt lat="43.17852" lon="5.60969">
        <ele>19</ele>
        <time>2016-07-06T23:57:38Z</time>
      </trkpt>
      <trkpt lat="43.17857" lon="5.60946">
        <ele>20</ele>
        <time>2016-07-06T23:59:38Z</time>
      </trkpt>
      <trkpt lat="43.17862" lon="5.60921">
        <ele>21</ele>
        <time>2016-07-07T00:01:38Z</time>
      </trkpt>
      <trkpt lat="43.17872" lon="5.60882">
        <ele>22</ele>
        <time>2016-07-07T00:03:38Z</time>
      </trkpt>
      <trkpt lat="43.17882" lon="5.60848">
        <ele>22</ele>
        <time>2016-07-07T00:05:38Z</time>
      </trkpt>
      <trkpt lat="43.17888" lon="5.60823">
        <ele>23</ele>
        <time>2016-07-07T00:07:38Z</time>
      </trkpt>
      <trkpt lat="43.17894" lon="5.60796">
        <ele>24</ele>
        <time>2016-07-07T00:09:38Z</time>
      </trkpt>
      <trkpt lat="43.17912" lon="5.60727">
        <ele>26</ele>
        <time>2016-07-07T00:11:38Z</time>
      </trkpt>
      <trkpt lat="43.1792" lon="5.60699">
        <ele>27</ele>
        <time>2016-07-07T00:13:38Z</time>
      </trkpt>
      <trkpt lat="43.1792" lon="5.60699">
        <ele>27</ele>
        <time>2016-07-07T00:15:38Z</time>
      </trkpt>
      <trkpt lat="43.17921" lon="5.60692">
        <ele>27</ele>
        <time>2016-07-07T00:17:38Z</time>
      </trkpt>
      <trkpt lat="43.17922" lon="5.6068">
        <ele>27</ele>
        <time>2016-07-07T00:19:38Z</time>
      </trkpt>
      <trkpt lat="43.17922" lon="5.60662">
        <ele>28</ele>
        <time>2016-07-07T00:21:38Z</time>
      </trkpt>
      <trkpt lat="43.17922" lon="5.60632">
        <ele>26</ele>
        <time>2016-07-07T00:23:38Z</time>
      </trkpt>
      <trkpt lat="43.17923" lon="5.60626">
        <ele>26</ele>
        <time>2016-07-07T00:25:38Z</time>
      </trkpt>
      <trkpt lat="43.17924" lon="5.6062">
        <ele>25</ele>
        <time>2016-07-07T00:27:38Z</time>
      </trkpt>
      <trkpt lat="43.17924" lon="5.60553">
        <ele>23</ele>
        <time>2016-07-07T00:29:38Z</time>
      </trkpt>
      <trkpt lat="43.17925" lon="5.60539">
        <ele>22</ele>
        <time>2016-07-07T00:31:38Z</time>
      </trkpt>
      <trkpt lat="43.17925" lon="5.60473">
        <ele>22</ele>
        <time>2016-07-07T00:33:38Z</time>
      </trkpt>
      <trkpt lat="43.17924" lon="5.60456">
        <ele>21</ele>
        <time>2016-07-07T00:35:38Z</time>
      </trkpt>
      <trkpt lat="43.17924" lon="5.60454">
        <ele>21</ele>
        <time>2016-07-07T00:37:38Z</time>
      </trkpt>
      <trkpt lat="43.17926" lon="5.60394">
        <ele>22</ele>
        <time>2016-07-07T00:39:38Z</time>
      </trkpt>
      <trkpt lat="43.17926" lon="5.60388">
        <ele>22</ele>
        <time>2016-07-07T00:41:38Z</time>
      </trkpt>
      <trkpt lat="43.17926" lon="5.60382">
        <ele>22</ele>
        <time>2016-07-07T00:43:38Z</time>
      </trkpt>
      <trkpt lat="43.17928" lon="5.60344">
        <ele>22</ele>
        <time>2016-07-07T00:45:38Z</time>
      </trkpt>
      <trkpt lat="43.17929" lon="5.60317">
        <ele>23</ele>
        <time>2016-07-07T00:47:38Z</time>
      </trkpt>
      <trkpt lat="43.1793" lon="5.6027">
        <ele>25</ele>
        <time>2016-07-07T00:49:38Z</time>
      </trkpt>
      <trkpt lat="43.17929" lon="5.60252">
        <ele>25</ele>
        <time>2016-07-07T00:51:38Z</time>
      </trkpt>
      <trkpt lat="43.17929" lon="5.60206">
        <ele>27</ele>
        <time>2016-07-07T00:53:38Z</time>
      </trkpt>
      <trkpt lat="43.17929" lon="5.60195">
        <ele>27</ele>
        <time>2016-07-07T00:55:38Z</time>
      </trkpt>
      <trkpt lat="43.17928" lon="5.6018">
        <ele>28</ele>
        <time>2016-07-07T00:57:38Z</time>
      </trkpt>
      <trkpt lat="43.17927" lon="5.60167">
        <ele>28</ele>
        <time>2016-07-07T00:59:38Z</time>
      </trkpt>
      <trkpt lat="43.17926" lon="5.60156">
        <ele>29</ele>
        <time>2016-07-07T01:01:38Z</time>
      </trkpt>
      <trkpt lat="43.17922" lon="5.6013">
        <ele>30</ele>
        <time>2016-07-07T01:03:38Z</time>
      </trkpt>
      <trkpt lat="43.17919" lon="5.60109">
        <ele>31</ele>
        <time>2016-07-07T01:05:38Z</time>
      </trkpt>
      <trkpt lat="43.17915" lon="5.60088">
        <ele>32</ele>
        <time>2016-07-07T01:07:38Z</time>
      </trkpt>
      <trkpt lat="43.17905" lon="5.60045">
        <ele>33</ele>
        <time>2016-07-07T01:09:38Z</time>
      </trkpt>
      <trkpt lat="43.17896" lon="5.60009">
        <ele>34</ele>
        <time>2016-07-07T01:11:38Z</time>
      </trkpt>
      <trkpt lat="43.17896" lon="5.60009">
        <ele>34</ele>
        <time>2016-07-07T01:13:38Z</time>
      </trkpt>
      <trkpt lat="43.17893" lon="5.59998">
        <ele>34</ele>
        <time>2016-07-07T01:15:38Z</time>
      </trkpt>
      <trkpt lat="43.17889" lon="5.59972">
        <ele>35</ele>
        <time>2016-07-07T01:17:38Z</time>
      </trkpt>
      <trkpt lat="43.17884" lon="5.59931">
        <ele>37</ele>
        <time>2016-07-07T01:19:38Z</time>
      </trkpt>
      <trkpt lat="43.17879" lon="5.59852">
        <ele>40</ele>
        <time>2016-07-07T01:21:38Z</time>
      </trkpt>
      <trkpt lat="43.17879" lon="5.59847">
        <ele>40</ele>
        <time>2016-07-07T01:23:38Z</time>
      </trkpt>
      <trkpt lat="43.17878" lon="5.59841">
        <ele>40</ele>
        <time>2016-07-07T01:25:38Z</time>
      </trkpt>
      <trkpt lat="43.17877" lon="5.59818">
        <ele>41</ele>
        <time>2016-07-07T01:27:38Z</time>
      </trkpt>
      <trkpt lat="43.17877" lon="5.59815">
        <ele>42</ele>
        <time>2016-07-07T01:29:38Z</time>
      </trkpt>
      <trkpt lat="43.17877" lon="5.59786">
        <ele>43</ele>
        <time>2016-07-07T01:31:38Z</time>
      </trkpt>
      <trkpt lat="43.17876" lon="5.5975">
        <ele>45</ele>
        <time>2016-07-07T01:33:38Z</time>
      </trkpt>
      <trkpt lat="43.17876" lon="5.59649">
        <ele>53</ele>
        <time>2016-07-07T01:35:38Z</time>
      </trkpt>
      <trkpt lat="43.17877" lon="5.59568">
        <ele>59</ele>
        <time>2016-07-07T01:37:38Z</time>
      </trkpt>
      <trkpt lat="43.17876" lon="5.59464">
        <ele>67</ele>
        <time>2016-07-07T01:39:38Z</time>
      </trkpt>
      <trkpt lat="43.17877" lon="5.59442">
        <ele>68</ele>
        <time>2016-07-07T01:41:38Z</time>
      </trkpt>
      <trkpt lat="43.17879" lon="5.59403">
        <ele>70</ele>
        <time>2016-07-07T01:43:38Z</time>
      </trkpt>
      <trkpt lat="43.1788" lon="5.5939">
        <ele>71</ele>
        <time>2016-07-07T01:45:38Z</time>
      </trkpt>
      <trkpt lat="43.17885" lon="5.59352">
        <ele>74</ele>
        <time>2016-07-07T01:47:38Z</time>
      </trkpt>
      <trkpt lat="43.17888" lon="5.59329">
        <ele>76</ele>
        <time>2016-07-07T01:49:38Z</time>
      </trkpt>
      <trkpt lat="43.17889" lon="5.59317">
        <ele>77</ele>
        <time>2016-07-07T01:51:38Z</time>
      </trkpt>
      <trkpt lat="43.17892" lon="5.59293">
        <ele>79</ele>
        <time>2016-07-07T01:53:38Z</time>
      </trkpt>
      <trkpt lat="43.17897" lon="5.59232">
        <ele>84</ele>
        <time>2016-07-07T01:55:38Z</time>
      </trkpt>
      <trkpt lat="43.17904" lon="5.59169">
        <ele>91</ele>
        <time>2016-07-07T01:57:38Z</time>
      </trkpt>
      <trkpt lat="43.17907" lon="5.5915">
        <ele>93</ele>
        <time>2016-07-07T01:59:38Z</time>
      </trkpt>
      <trkpt lat="43.1791" lon="5.59142">
        <ele>94</ele>
        <time>2016-07-07T02:01:38Z</time>
      </trkpt>
      <trkpt lat="43.17921" lon="5.59121">
        <ele>96</ele>
        <time>2016-07-07T02:03:38Z</time>
      </trkpt>
      <trkpt lat="43.17921" lon="5.59121">
        <ele>96</ele>
        <time>2016-07-07T02:05:38Z</time>
      </trkpt>
      <trkpt lat="43.17932" lon="5.59093">
        <ele>99</ele>
        <time>2016-07-07T02:07:38Z</time>
      </trkpt>
      <trkpt lat="43.17941" lon="5.59057">
        <ele>103</ele>
        <time>2016-07-07T02:09:38Z</time>
      </trkpt>
      <trkpt lat="43.17945" lon="5.59031">
        <ele>106</ele>
        <time>2016-07-07T02:11:38Z</time>
      </trkpt>
      <trkpt lat="43.17954" lon="5.58974">
        <ele>111</ele>
        <time>2016-07-07T02:13:38Z</time>
      </trkpt>
      <trkpt lat="43.1796" lon="5.58934">
        <ele>113</ele>
        <time>2016-07-07T02:15:38Z</time>
      </trkpt>
      <trkpt lat="43.1796" lon="5.58919">
        <ele>114</ele>
        <time>2016-07-07T02:17:38Z</time>
      </trkpt>
      <trkpt lat="43.17958" lon="5.58871">
        <ele>119</ele>
        <time>2016-07-07T02:19:38Z</time>
      </trkpt>
      <trkpt lat="43.1794" lon="5.58775">
        <ele>128</ele>
        <time>2016-07-07T02:21:38Z</time>
      </trkpt>
      <trkpt lat="43.17938" lon="5.58761">
        <ele>129</ele>
        <time>2016-07-07T02:23:38Z</time>
      </trkpt>
      <trkpt lat="43.17938" lon="5.58746">
        <ele>130</ele>
        <time>2016-07-07T02:25:38Z</time>
      </trkpt>
      <trkpt lat="43.17938" lon="5.58699">
        <ele>134</ele>
        <time>2016-07-07T02:27:38Z</time>
      </trkpt>
      <trkpt lat="43.17939" lon="5.58638">
        <ele>139</ele>
        <time>2016-07-07T02:29:38Z</time>
      </trkpt>
      <trkpt lat="43.17938" lon="5.58624">
        <ele>140</ele>
        <time>2016-07-07T02:31:38Z</time>
      </trkpt>
      <trkpt lat="43.17936" lon="5.5861">
        <ele>141</ele>
        <time>2016-07-07T02:33:38Z</time>
      </trkpt>
      <trkpt lat="43.17933" lon="5.58598">
        <ele>142</ele>
        <time>2016-07-07T02:35:38Z</time>
      </trkpt>
      <trkpt lat="43.17928" lon="5.58585">
        <ele>143</ele>
        <time>2016-07-07T02:37:38Z</time>
      </trkpt>
      <trkpt lat="43.17924" lon="5.58576">
        <ele>144</ele>
        <time>2016-07-07T02:39:38Z</time>
      </trkpt>
      <trkpt lat="43.17914" lon="5.5856">
        <ele>147</ele>
        <time>2016-07-07T02:41:38Z</time>
      </trkpt>
      <trkpt lat="43.1791" lon="5.58552">
        <ele>149</ele>
        <time>2016-07-07T02:43:38Z</time>
      </trkpt>
      <trkpt lat="43.17909" lon="5.58545">
        <ele>150</ele>
        <time>2016-07-07T02:45:38Z</time>
      </trkpt>
      <trkpt lat="43.17909" lon="5.58541">
        <ele>150</ele>
        <time>2016-07-07T02:47:38Z</time>
      </trkpt>
      <trkpt lat="43.17915" lon="5.58536">
        <ele>149</ele>
        <time>2016-07-07T02:49:38Z</time>
      </trkpt>
      <trkpt lat="43.17923" lon="5.58538">
        <ele>148</ele>
        <time>2016-07-07T02:51:38Z</time>
      </trkpt>
      <trkpt lat="43.1793" lon="5.58541">
        <ele>147</ele>
        <time>2016-07-07T02:53:38Z</time>
      </trkpt>
      <trkpt lat="43.17932" lon="5.58541">
        <ele>147</ele>
        <time>2016-07-07T02:55:38Z</time>
      </trkpt>
      <trkpt lat="43.17939" lon="5.58542">
        <ele>147</ele>
        <time>2016-07-07T02:57:38Z</time>
      </trkpt>
      <trkpt lat="43.17945" lon="5.58543">
        <ele>146</ele>
        <time>2016-07-07T02:59:38Z</time>
      </trkpt>
      <trkpt lat="43.17953" lon="5.58541">
        <ele>146</ele>
        <time>2016-07-07T03:01:38Z</time>
      </trkpt>
      <trkpt lat="43.17957" lon="5.58538">
        <ele>147</ele>
        <time>2016-07-07T03:03:38Z</time>
      </trkpt>
      <trkpt lat="43.17961" lon="5.58533">
        <ele>147</ele>
        <time>2016-07-07T03:05:38Z</time>
      </trkpt>
      <trkpt lat="43.17964" lon="5.58527">
        <ele>148</ele>
        <time>2016-07-07T03:07:38Z</time>
      </trkpt>
      <trkpt lat="43.17966" lon="5.58517">
        <ele>149</ele>
        <time>2016-07-07T03:09:38Z</time>
      </trkpt>
      <trkpt lat="43.17968" lon="5.58502">
        <ele>151</ele>
        <time>2016-07-07T03:11:38Z</time>
      </trkpt>
      <trkpt lat="43.17969" lon="5.58488">
        <ele>153</ele>
        <time>2016-07-07T03:13:38Z</time>
      </trkpt>
      <trkpt lat="43.1797" lon="5.58458">
        <ele>157</ele>
        <time>2016-07-07T03:15:38Z</time>
      </trkpt>
      <trkpt lat="43.1797" lon="5.58442">
        <ele>160</ele>
        <time>2016-07-07T03:17:38Z</time>
      </trkpt>
      <trkpt lat="43.17968" lon="5.58429">
        <ele>162</ele>
        <time>2016-07-07T03:19:38Z</time>
      </trkpt>
      <trkpt lat="43.17963" lon="5.58392">
        <ele>169</ele>
        <time>2016-07-07T03:21:38Z</time>
      </trkpt>
      <trkpt lat="43.17964" lon="5.58386">
        <ele>170</ele>
        <time>2016-07-07T03:23:38Z</time>
      </trkpt>
      <trkpt lat="43.17965" lon="5.58381">
        <ele>171</ele>
        <time>2016-07-07T03:25:38Z</time>
      </trkpt>
      <trkpt lat="43.17969" lon="5.58378">
        <ele>172</ele>
        <time>2016-07-07T03:27:38Z</time>
      </trkpt>
      <trkpt lat="43.17972" lon="5.58377">
        <ele>172</ele>
        <time>2016-07-07T03:29:38Z</time>
      </trkpt>
      <trkpt lat="43.17976" lon="5.58378">
        <ele>172</ele>
        <time>2016-07-07T03:31:38Z</time>
      </trkpt>
      <trkpt lat="43.1798" lon="5.5838">
        <ele>171</ele>
        <time>2016-07-07T03:33:38Z</time>
      </trkpt>
      <trkpt lat="43.17983" lon="5.58384">
        <ele>170</ele>
        <time>2016-07-07T03:35:38Z</time>
      </trkpt>
      <trkpt lat="43.17987" lon="5.58388">
        <ele>169</ele>
        <time>2016-07-07T03:37:38Z</time>
      </trkpt>
      <trkpt lat="43.17999" lon="5.58404">
        <ele>165</ele>
        <time>2016-07-07T03:39:38Z</time>
      </trkpt>
      <trkpt lat="43.18012" lon="5.58419">
        <ele>165</ele>
        <time>2016-07-07T03:41:38Z</time>
      </trkpt>
      <trkpt lat="43.18035" lon="5.58448">
        <ele>168</ele>
        <time>2016-07-07T03:43:38Z</time>
      </trkpt>
      <trkpt lat="43.18039" lon="5.58453">
        <ele>168</ele>
        <time>2016-07-07T03:45:38Z</time>
      </trkpt>
      <trkpt lat="43.18045" lon="5.58463">
        <ele>169</ele>
        <time>2016-07-07T03:47:38Z</time>
      </trkpt>
      <trkpt lat="43.1805" lon="5.58473">
        <ele>168</ele>
        <time>2016-07-07T03:49:38Z</time>
      </trkpt>
      <trkpt lat="43.18054" lon="5.58482">
        <ele>168</ele>
        <time>2016-07-07T03:51:38Z</time>
      </trkpt>
      <trkpt lat="43.18057" lon="5.58493">
        <ele>167</ele>
        <time>2016-07-07T03:53:38Z</time>
      </trkpt>
      <trkpt lat="43.18072" lon="5.58576">
        <ele>161</ele>
        <time>2016-07-07T03:55:38Z</time>
      </trkpt>
      <trkpt lat="43.18076" lon="5.58601">
        <ele>160</ele>
        <time>2016-07-07T03:57:38Z</time>
      </trkpt>
      <trkpt lat="43.18079" lon="5.58612">
        <ele>160</ele>
        <time>2016-07-07T03:59:38Z</time>
      </trkpt>
      <trkpt lat="43.18083" lon="5.58618">
        <ele>160</ele>
        <time>2016-07-07T04:01:38Z</time>
      </trkpt>
      <trkpt lat="43.18088" lon="5.58622">
        <ele>160</ele>
        <time>2016-07-07T04:03:38Z</time>
      </trkpt>
      <trkpt lat="43.18092" lon="5.58624">
        <ele>160</ele>
        <time>2016-07-07T04:05:38Z</time>
      </trkpt>
      <trkpt lat="43.18098" lon="5.58624">
        <ele>161</ele>
        <time>2016-07-07T04:07:38Z</time>
      </trkpt>
      <trkpt lat="43.18103" lon="5.58622">
        <ele>161</ele>
        <time>2016-07-07T04:09:38Z</time>
      </trkpt>
      <trkpt lat="43.18109" lon="5.5862">
        <ele>162</ele>
        <time>2016-07-07T04:11:38Z</time>
      </trkpt>
      <trkpt lat="43.18114" lon="5.58616">
        <ele>163</ele>
        <time>2016-07-07T04:13:38Z</time>
      </trkpt>
      <trkpt lat="43.18125" lon="5.58606">
        <ele>165</ele>
        <time>2016-07-07T04:15:38Z</time>
      </trkpt>
      <trkpt lat="43.18161" lon="5.58562">
        <ele>174</ele>
        <time>2016-07-07T04:17:38Z</time>
      </trkpt>
      <trkpt lat="43.18172" lon="5.58546">
        <ele>176</ele>
        <time>2016-07-07T04:19:38Z</time>
      </trkpt>
      <trkpt lat="43.1819" lon="5.58519">
        <ele>177</ele>
        <time>2016-07-07T04:21:38Z</time>
      </trkpt>
      <trkpt lat="43.18197" lon="5.58506">
        <ele>178</ele>
        <time>2016-07-07T04:23:38Z</time>
      </trkpt>
      <trkpt lat="43.18201" lon="5.58496">
        <ele>178</ele>
        <time>2016-07-07T04:25:38Z</time>
      </trkpt>
      <trkpt lat="43.18204" lon="5.58489">
        <ele>179</ele>
        <time>2016-07-07T04:27:38Z</time>
      </trkpt>
      <trkpt lat="43.18206" lon="5.58468">
        <ele>180</ele>
        <time>2016-07-07T04:29:38Z</time>
      </trkpt>
      <trkpt lat="43.18206" lon="5.58456">
        <ele>181</ele>
        <time>2016-07-07T04:31:38Z</time>
      </trkpt>
      <trkpt lat="43.18205" lon="5.58442">
        <ele>182</ele>
        <time>2016-07-07T04:33:38Z</time>
      </trkpt>
      <trkpt lat="43.18203" lon="5.58429">
        <ele>184</ele>
        <time>2016-07-07T04:35:38Z</time>
      </trkpt>
      <trkpt lat="43.18195" lon="5.58377">
        <ele>190</ele>
        <time>2016-07-07T04:37:38Z</time>
      </trkpt>
      <trkpt lat="43.18189" lon="5.58325">
        <ele>196</ele>
        <time>2016-07-07T04:39:38Z</time>
      </trkpt>
      <trkpt lat="43.18186" lon="5.58285">
        <ele>200</ele>
        <time>2016-07-07T04:41:38Z</time>
      </trkpt>
      <trkpt lat="43.18184" lon="5.58181">
        <ele>207</ele>
        <time>2016-07-07T04:43:38Z</time>
      </trkpt>
      <trkpt lat="43.18179" lon="5.58154">
        <ele>210</ele>
        <time>2016-07-07T04:45:38Z</time>
      </trkpt>
      <trkpt lat="43.18176" lon="5.58143">
        <ele>212</ele>
        <time>2016-07-07T04:47:38Z</time>
      </trkpt>
      <trkpt lat="43.18159" lon="5.58087">
        <ele>218</ele>
        <time>2016-07-07T04:49:38Z</time>
      </trkpt>
      <trkpt lat="43.18157" lon="5.58066">
        <ele>222</ele>
        <time>2016-07-07T04:51:38Z</time>
      </trkpt>
      <trkpt lat="43.18156" lon="5.58048">
        <ele>225</ele>
        <time>2016-07-07T04:53:38Z</time>
      </trkpt>
      <trkpt lat="43.18157" lon="5.58038">
        <ele>226</ele>
        <time>2016-07-07T04:55:38Z</time>
      </trkpt>
      <trkpt lat="43.18159" lon="5.58028">
        <ele>227</ele>
        <time>2016-07-07T04:57:38Z</time>
      </trkpt>
      <trkpt lat="43.18161" lon="5.58022">
        <ele>227</ele>
        <time>2016-07-07T04:59:38Z</time>
      </trkpt>
      <trkpt lat="43.18167" lon="5.58011">
        <ele>227</ele>
        <time>2016-07-07T05:01:38Z</time>
      </trkpt>
      <trkpt lat="43.18175" lon="5.58005">
        <ele>227</ele>
        <time>2016-07-07T05:03:38Z</time>
      </trkpt>
      <trkpt lat="43.18183" lon="5.57998">
        <ele>227</ele>
        <time>2016-07-07T05:05:38Z</time>
      </trkpt>
      <trkpt lat="43.18207" lon="5.57982">
        <ele>229</ele>
        <time>2016-07-07T05:07:38Z</time>
      </trkpt>
      <trkpt lat="43.18218" lon="5.57976">
        <ele>229</ele>
        <time>2016-07-07T05:09:38Z</time>
      </trkpt>
      <trkpt lat="43.18228" lon="5.57971">
        <ele>229</ele>
        <time>2016-07-07T05:11:38Z</time>
      </trkpt>
      <trkpt lat="43.18238" lon="5.57968">
        <ele>229</ele>
        <time>2016-07-07T05:13:38Z</time>
      </trkpt>
      <trkpt lat="43.18265" lon="5.57969">
        <ele>227</ele>
        <time>2016-07-07T05:15:38Z</time>
      </trkpt>
      <trkpt lat="43.1828" lon="5.57966">
        <ele>227</ele>
        <time>2016-07-07T05:17:38Z</time>
      </trkpt>
      <trkpt lat="43.18296" lon="5.5796">
        <ele>229</ele>
        <time>2016-07-07T05:19:38Z</time>
      </trkpt>
      <trkpt lat="43.18305" lon="5.57955">
        <ele>230</ele>
        <time>2016-07-07T05:21:38Z</time>
      </trkpt>
      <trkpt lat="43.18342" lon="5.57928">
        <ele>234</ele>
        <time>2016-07-07T05:23:38Z</time>
      </trkpt>
      <trkpt lat="43.18355" lon="5.57917">
        <ele>234</ele>
        <time>2016-07-07T05:25:38Z</time>
      </trkpt>
      <trkpt lat="43.18363" lon="5.57909">
        <ele>233</ele>
        <time>2016-07-07T05:27:38Z</time>
      </trkpt>
      <trkpt lat="43.1837" lon="5.57898">
        <ele>232</ele>
        <time>2016-07-07T05:29:38Z</time>
      </trkpt>
      <trkpt lat="43.18372" lon="5.57891">
        <ele>232</ele>
        <time>2016-07-07T05:31:38Z</time>
      </trkpt>
      <trkpt lat="43.18374" lon="5.5788">
        <ele>232</ele>
        <time>2016-07-07T05:33:38Z</time>
      </trkpt>
      <trkpt lat="43.18374" lon="5.5787">
        <ele>232</ele>
        <time>2016-07-07T05:35:38Z</time>
      </trkpt>
      <trkpt lat="43.18371" lon="5.5785">
        <ele>233</ele>
        <time>2016-07-07T05:37:38Z</time>
      </trkpt>
      <trkpt lat="43.18368" lon="5.57839">
        <ele>235</ele>
        <time>2016-07-07T05:39:38Z</time>
      </trkpt>
      <trkpt lat="43.18363" lon="5.5783">
        <ele>236</ele>
        <time>2016-07-07T05:41:38Z</time>
      </trkpt>
      <trkpt lat="43.18341" lon="5.57789">
        <ele>234</ele>
        <time>2016-07-07T05:43:38Z</time>
      </trkpt>
      <trkpt lat="43.18336" lon="5.57782">
        <ele>234</ele>
        <time>2016-07-07T05:45:38Z</time>
      </trkpt>
      <trkpt lat="43.18333" lon="5.57778">
        <ele>234</ele>
        <time>2016-07-07T05:47:38Z</time>
      </trkpt>
      <trkpt lat="43.18291" lon="5.57755">
        <ele>242</ele>
        <time>2016-07-07T05:49:38Z</time>
      </trkpt>
      <trkpt lat="43.18286" lon="5.57752">
        <ele>243</ele>
        <time>2016-07-07T05:51:38Z</time>
      </trkpt>
      <trkpt lat="43.18275" lon="5.5775">
        <ele>247</ele>
        <time>2016-07-07T05:53:38Z</time>
      </trkpt>
      <trkpt lat="43.18262" lon="5.57743">
        <ele>249</ele>
        <time>2016-07-07T05:55:38Z</time>
      </trkpt>
      <trkpt lat="43.18249" lon="5.57735">
        <ele>252</ele>
        <time>2016-07-07T05:57:38Z</time>
      </trkpt>
      <trkpt lat="43.18225" lon="5.57718">
        <ele>255</ele>
        <time>2016-07-07T05:59:38Z</time>
      </trkpt>
      <trkpt lat="43.18213" lon="5.57708">
        <ele>256</ele>
        <time>2016-07-07T06:01:38Z</time>
      </trkpt>
      <trkpt lat="43.18193" lon="5.57693">
        <ele>258</ele>
        <time>2016-07-07T06:03:38Z</time>
      </trkpt>
      <trkpt lat="43.18156" lon="5.5766">
        <ele>263</ele>
        <time>2016-07-07T06:05:38Z</time>
      </trkpt>
      <trkpt lat="43.18147" lon="5.57653">
        <ele>265</ele>
        <time>2016-07-07T06:07:38Z</time>
      </trkpt>
      <trkpt lat="43.18124" lon="5.57639">
        <ele>270</ele>
        <time>2016-07-07T06:09:38Z</time>
      </trkpt>
      <trkpt lat="43.18109" lon="5.57632">
        <ele>274</ele>
        <time>2016-07-07T06:11:38Z</time>
      </trkpt>
      <trkpt lat="43.18095" lon="5.57626">
        <ele>277</ele>
        <time>2016-07-07T06:13:38Z</time>
      </trkpt>
      <trkpt lat="43.18074" lon="5.57614">
        <ele>281</ele>
        <time>2016-07-07T06:15:38Z</time>
      </trkpt>
      <trkpt lat="43.18069" lon="5.57608">
        <ele>282</ele>
        <time>2016-07-07T06:17:38Z</time>
      </trkpt>
      <trkpt lat="43.18066" lon="5.57603">
        <ele>282</ele>
        <time>2016-07-07T06:19:38Z</time>
      </trkpt>
      <trkpt lat="43.18064" lon="5.57598">
        <ele>282</ele>
        <time>2016-07-07T06:21:38Z</time>
      </trkpt>
      <trkpt lat="43.18064" lon="5.57592">
        <ele>282</ele>
        <time>2016-07-07T06:23:38Z</time>
      </trkpt>
      <trkpt lat="43.18065" lon="5.57585">
        <ele>281</ele>
        <time>2016-07-07T06:25:38Z</time>
      </trkpt>
      <trkpt lat="43.18075" lon="5.57557">
        <ele>279</ele>
        <time>2016-07-07T06:27:38Z</time>
      </trkpt>
      <trkpt lat="43.18087" lon="5.57527">
        <ele>278</ele>
        <time>2016-07-07T06:29:38Z</time>
      </trkpt>
      <trkpt lat="43.18089" lon="5.57518">
        <ele>278</ele>
        <time>2016-07-07T06:31:38Z</time>
      </trkpt>
      <trkpt lat="43.1809" lon="5.5751">
        <ele>279</ele>
        <time>2016-07-07T06:33:38Z</time>
      </trkpt>
      <trkpt lat="43.1809" lon="5.575">
        <ele>279</ele>
        <time>2016-07-07T06:35:38Z</time>
      </trkpt>
      <trkpt lat="43.1809" lon="5.5749">
        <ele>281</ele>
        <time>2016-07-07T06:37:38Z</time>
      </trkpt>
      <trkpt lat="43.18084" lon="5.57462">
        <ele>285</ele>
        <time>2016-07-07T06:39:38Z</time>
      </trkpt>
      <trkpt lat="43.18078" lon="5.57441">
        <ele>290</ele>
        <time>2016-07-07T06:41:38Z</time>
      </trkpt>
      <trkpt lat="43.18074" lon="5.57419">
        <ele>294</ele>
        <time>2016-07-07T06:43:38Z</time>
      </trkpt>
      <trkpt lat="43.18073" lon="5.57412">
        <ele>295</ele>
        <time>2016-07-07T06:45:38Z</time>
      </trkpt>
      <trkpt lat="43.18074" lon="5.57404">
        <ele>297</ele>
        <time>2016-07-07T06:47:38Z</time>
      </trkpt>
      <trkpt lat="43.18076" lon="5.57397">
        <ele>298</ele>
        <time>2016-07-07T06:49:38Z</time>
      </trkpt>
      <trkpt lat="43.18078" lon="5.57391">
        <ele>298</ele>
        <time>2016-07-07T06:51:38Z</time>
      </trkpt>
      <trkpt lat="43.18083" lon="5.57386">
        <ele>298</ele>
        <time>2016-07-07T06:53:38Z</time>
      </trkpt>
      <trkpt lat="43.1809" lon="5.5738">
        <ele>299</ele>
        <time>2016-07-07T06:55:38Z</time>
      </trkpt>
      <trkpt lat="43.18097" lon="5.57376">
        <ele>299</ele>
        <time>2016-07-07T06:57:38Z</time>
      </trkpt>
      <trkpt lat="43.18109" lon="5.57369">
        <ele>299</ele>
        <time>2016-07-07T06:59:38Z</time>
      </trkpt>
      <trkpt lat="43.18125" lon="5.57363">
        <ele>299</ele>
        <time>2016-07-07T07:01:38Z</time>
      </trkpt>
      <trkpt lat="43.18151" lon="5.57357">
        <ele>298</ele>
        <time>2016-07-07T07:03:38Z</time>
      </trkpt>
      <trkpt lat="43.1818" lon="5.57349">
        <ele>297</ele>
        <time>2016-07-07T07:05:38Z</time>
      </trkpt>
      <trkpt lat="43.18187" lon="5.57345">
        <ele>297</ele>
        <time>2016-07-07T07:07:38Z</time>
      </trkpt>
      <trkpt lat="43.18192" lon="5.5734">
        <ele>298</ele>
        <time>2016-07-07T07:09:38Z</time>
      </trkpt>
      <trkpt lat="43.18197" lon="5.57332">
        <ele>299</ele>
        <time>2016-07-07T07:11:38Z</time>
      </trkpt>
      <trkpt lat="43.18205" lon="5.57319">
        <ele>301</ele>
        <time>2016-07-07T07:13:38Z</time>
      </trkpt>
      <trkpt lat="43.18211" lon="5.57305">
        <ele>303</ele>
        <time>2016-07-07T07:15:38Z</time>
      </trkpt>
      <trkpt lat="43.18224" lon="5.57277">
        <ele>306</ele>
        <time>2016-07-07T07:17:38Z</time>
      </trkpt>
      <trkpt lat="43.18231" lon="5.57266">
        <ele>307</ele>
        <time>2016-07-07T07:19:38Z</time>
      </trkpt>
      <trkpt lat="43.18246" lon="5.57247">
        <ele>307</ele>
        <time>2016-07-07T07:21:38Z</time>
      </trkpt>
      <trkpt lat="43.18249" lon="5.57241">
        <ele>307</ele>
        <time>2016-07-07T07:23:38Z</time>
      </trkpt>
      <trkpt lat="43.18251" lon="5.57236">
        <ele>307</ele>
        <time>2016-07-07T07:25:38Z</time>
      </trkpt>
      <trkpt lat="43.18252" lon="5.57231">
        <ele>308</ele>
        <time>2016-07-07T07:27:38Z</time>
      </trkpt>
      <trkpt lat="43.18251" lon="5.57227">
        <ele>309</ele>
        <time>2016-07-07T07:29:38Z</time>
      </trkpt>
      <trkpt lat="43.1825" lon="5.57223">
        <ele>310</ele>
        <time>2016-07-07T07:31:38Z</time>
      </trkpt>
      <trkpt lat="43.18247" lon="5.57221">
        <ele>310</ele>
        <time>2016-07-07T07:33:38Z</time>
      </trkpt>
      <trkpt lat="43.18244" lon="5.57221">
        <ele>311</ele>
        <time>2016-07-07T07:35:38Z</time>
      </trkpt>
      <trkpt lat="43.18241" lon="5.57222">
        <ele>311</ele>
        <time>2016-07-07T07:37:38Z</time>
      </trkpt>
      <trkpt lat="43.18239" lon="5.57224">
        <ele>312</ele>
        <time>2016-07-07T07:39:38Z</time>
      </trkpt>
      <trkpt lat="43.18234" lon="5.57233">
        <ele>311</ele>
        <time>2016-07-07T07:41:38Z</time>
      </trkpt>
      <trkpt lat="43.18218" lon="5.57254">
        <ele>311</ele>
        <time>2016-07-07T07:43:38Z</time>
      </trkpt>
      <trkpt lat="43.1821" lon="5.57264">
        <ele>311</ele>
        <time>2016-07-07T07:45:38Z</time>
      </trkpt>
      <trkpt lat="43.18201" lon="5.57272">
        <ele>311</ele>
        <time>2016-07-07T07:47:38Z</time>
      </trkpt>
      <trkpt lat="43.18186" lon="5.57282">
        <ele>311</ele>
        <time>2016-07-07T07:49:38Z</time>
      </trkpt>
      <trkpt lat="43.18172" lon="5.57288">
        <ele>312</ele>
        <time>2016-07-07T07:51:38Z</time>
      </trkpt>
      <trkpt lat="43.18164" lon="5.57289">
        <ele>313</ele>
        <time>2016-07-07T07:53:38Z</time>
      </trkpt>
      <trkpt lat="43.18147" lon="5.57289">
        <ele>314</ele>
        <time>2016-07-07T07:55:38Z</time>
      </trkpt>
      <trkpt lat="43.18138" lon="5.57288">
        <ele>315</ele>
        <time>2016-07-07T07:57:38Z</time>
      </trkpt>
      <trkpt lat="43.18105" lon="5.57277">
        <ele>319</ele>
        <time>2016-07-07T07:59:38Z</time>
      </trkpt>
      <trkpt lat="43.18077" lon="5.57271">
        <ele>322</ele>
        <time>2016-07-07T08:01:38Z</time>
      </trkpt>
      <trkpt lat="43.18056" lon="5.57268">
        <ele>325</ele>
        <time>2016-07-07T08:03:38Z</time>
      </trkpt>
      <trkpt lat="43.1802" lon="5.57267">
        <ele>327</ele>
        <time>2016-07-07T08:05:38Z</time>
      </trkpt>
      <trkpt lat="43.18014" lon="5.57265">
        <ele>328</ele>
        <time>2016-07-07T08:07:38Z</time>
      </trkpt>
      <trkpt lat="43.18009" lon="5.57263">
        <ele>328</ele>
        <time>2016-07-07T08:09:38Z</time>
      </trkpt>
      <trkpt lat="43.18008" lon="5.57262">
        <ele>328</ele>
        <time>2016-07-07T08:11:38Z</time>
      </trkpt>
      <trkpt lat="43.18002" lon="5.57256">
        <ele>329</ele>
        <time>2016-07-07T08:13:38Z</time>
      </trkpt>
      <trkpt lat="43.18002" lon="5.57256">
        <ele>329</ele>
        <time>2016-07-07T08:15:38Z</time>
      </trkpt>
      <trkpt lat="43.18017" lon="5.57243">
        <ele>328</ele>
        <time>2016-07-07T08:17:38Z</time>
      </trkpt>
      <trkpt lat="43.18033" lon="5.5723">
        <ele>327</ele>
        <time>2016-07-07T08:19:38Z</time>
      </trkpt>
      <trkpt lat="43.18043" lon="5.5722">
        <ele>327</ele>
        <time>2016-07-07T08:21:38Z</time>
      </trkpt>
      <trkpt lat="43.18053" lon="5.57209">
        <ele>328</ele>
        <time>2016-07-07T08:23:38Z</time>
      </trkpt>
      <trkpt lat="43.18061" lon="5.57199">
        <ele>329</ele>
        <time>2016-07-07T08:25:38Z</time>
      </trkpt>
      <trkpt lat="43.18076" lon="5.5718">
        <ele>332</ele>
        <time>2016-07-07T08:27:38Z</time>
      </trkpt>
      <trkpt lat="43.18086" lon="5.57164">
        <ele>335</ele>
        <time>2016-07-07T08:29:38Z</time>
      </trkpt>
      <trkpt lat="43.18103" lon="5.57135">
        <ele>336</ele>
        <time>2016-07-07T08:31:38Z</time>
      </trkpt>
      <trkpt lat="43.18109" lon="5.57122">
        <ele>336</ele>
        <time>2016-07-07T08:33:38Z</time>
      </trkpt>
      <trkpt lat="43.18131" lon="5.57086">
        <ele>339</ele>
        <time>2016-07-07T08:35:38Z</time>
      </trkpt>
      <trkpt lat="43.18146" lon="5.57063">
        <ele>341</ele>
        <time>2016-07-07T08:37:38Z</time>
      </trkpt>
      <trkpt lat="43.18156" lon="5.57046">
        <ele>343</ele>
        <time>2016-07-07T08:39:38Z</time>
      </trkpt>
      <trkpt lat="43.18158" lon="5.57041">
        <ele>343</ele>
        <time>2016-07-07T08:41:38Z</time>
      </trkpt>
      <trkpt lat="43.1816" lon="5.57033">
        <ele>344</ele>
        <time>2016-07-07T08:43:38Z</time>
      </trkpt>
      <trkpt lat="43.18161" lon="5.57024">
        <ele>345</ele>
        <time>2016-07-07T08:45:38Z</time>
      </trkpt>
      <trkpt lat="43.18161" lon="5.57014">
        <ele>346</ele>
        <time>2016-07-07T08:47:38Z</time>
      </trkpt>
      <trkpt lat="43.18156" lon="5.56974">
        <ele>346</ele>
        <time>2016-07-07T08:49:38Z</time>
      </trkpt>
      <trkpt lat="43.18154" lon="5.5696">
        <ele>345</ele>
        <time>2016-07-07T08:51:38Z</time>
      </trkpt>
      <trkpt lat="43.18139" lon="5.56882">
        <ele>343</ele>
        <time>2016-07-07T08:53:38Z</time>
      </trkpt>
      <trkpt lat="43.18138" lon="5.56868">
        <ele>343</ele>
        <time>2016-07-07T08:55:38Z</time>
      </trkpt>
      <trkpt lat="43.18136" lon="5.56855">
        <ele>343</ele>
        <time>2016-07-07T08:57:38Z</time>
      </trkpt>
      <trkpt lat="43.18136" lon="5.56842">
        <ele>342</ele>
        <time>2016-07-07T08:59:38Z</time>
      </trkpt>
      <trkpt lat="43.18137" lon="5.5683">
        <ele>343</ele>
        <time>2016-07-07T09:01:38Z</time>
      </trkpt>
      <trkpt lat="43.18139" lon="5.56821">
        <ele>344</ele>
        <time>2016-07-07T09:03:38Z</time>
      </trkpt>
      <trkpt lat="43.18141" lon="5.56814">
        <ele>345</ele>
        <time>2016-07-07T09:05:38Z</time>
      </trkpt>
      <trkpt lat="43.18151" lon="5.56796">
        <ele>349</ele>
        <time>2016-07-07T09:07:38Z</time>
      </trkpt>
      <trkpt lat="43.1816" lon="5.56786">
        <ele>353</ele>
        <time>2016-07-07T09:09:38Z</time>
      </trkpt>
      <trkpt lat="43.18177" lon="5.56771">
        <ele>357</ele>
        <time>2016-07-07T09:11:38Z</time>
      </trkpt>
      <trkpt lat="43.18186" lon="5.56766">
        <ele>358</ele>
        <time>2016-07-07T09:13:38Z</time>
      </trkpt>
      <trkpt lat="43.18194" lon="5.56763">
        <ele>359</ele>
        <time>2016-07-07T09:15:38Z</time>
      </trkpt>
      <trkpt lat="43.18209" lon="5.56764">
        <ele>359</ele>
        <time>2016-07-07T09:17:38Z</time>
      </trkpt>
      <trkpt lat="43.18228" lon="5.56771">
        <ele>358</ele>
        <time>2016-07-07T09:19:38Z</time>
      </trkpt>
      <trkpt lat="43.18253" lon="5.56779">
        <ele>357</ele>
        <time>2016-07-07T09:21:38Z</time>
      </trkpt>
      <trkpt lat="43.18278" lon="5.56783">
        <ele>355</ele>
        <time>2016-07-07T09:23:38Z</time>
      </trkpt>
      <trkpt lat="43.18289" lon="5.56783">
        <ele>355</ele>
        <time>2016-07-07T09:25:38Z</time>
      </trkpt>
      <trkpt lat="43.18298" lon="5.56782">
        <ele>354</ele>
        <time>2016-07-07T09:27:38Z</time>
      </trkpt>
      <trkpt lat="43.18306" lon="5.56781">
        <ele>354</ele>
        <time>2016-07-07T09:29:38Z</time>
      </trkpt>
      <trkpt lat="43.18322" lon="5.56776">
        <ele>355</ele>
        <time>2016-07-07T09:31:38Z</time>
      </trkpt>
      <trkpt lat="43.18329" lon="5.56771">
        <ele>356</ele>
        <time>2016-07-07T09:33:38Z</time>
      </trkpt>
      <trkpt lat="43.18343" lon="5.56759">
        <ele>355</ele>
        <time>2016-07-07T09:35:38Z</time>
      </trkpt>
      <trkpt lat="43.18355" lon="5.56745">
        <ele>354</ele>
        <time>2016-07-07T09:37:38Z</time>
      </trkpt>
      <trkpt lat="43.18361" lon="5.56736">
        <ele>353</ele>
        <time>2016-07-07T09:39:38Z</time>
      </trkpt>
      <trkpt lat="43.18365" lon="5.5673">
        <ele>352</ele>
        <time>2016-07-07T09:41:38Z</time>
      </trkpt>
      <trkpt lat="43.18367" lon="5.56723">
        <ele>352</ele>
        <time>2016-07-07T09:43:38Z</time>
      </trkpt>
      <trkpt lat="43.18369" lon="5.56718">
        <ele>351</ele>
        <time>2016-07-07T09:45:38Z</time>
      </trkpt>
      <trkpt lat="43.18369" lon="5.56713">
        <ele>351</ele>
        <time>2016-07-07T09:47:38Z</time>
      </trkpt>
      <trkpt lat="43.18368" lon="5.56708">
        <ele>352</ele>
        <time>2016-07-07T09:49:38Z</time>
      </trkpt>
      <trkpt lat="43.18365" lon="5.56695">
        <ele>354</ele>
        <time>2016-07-07T09:51:38Z</time>
      </trkpt>
      <trkpt lat="43.18355" lon="5.56666">
        <ele>361</ele>
        <time>2016-07-07T09:53:38Z</time>
      </trkpt>
      <trkpt lat="43.1835" lon="5.56645">
        <ele>364</ele>
        <time>2016-07-07T09:55:38Z</time>
      </trkpt>
      <trkpt lat="43.18348" lon="5.56634">
        <ele>366</ele>
        <time>2016-07-07T09:57:38Z</time>
      </trkpt>
      <trkpt lat="43.18348" lon="5.56622">
        <ele>366</ele>
        <time>2016-07-07T09:59:38Z</time>
      </trkpt>
      <trkpt lat="43.18348" lon="5.56605">
        <ele>367</ele>
        <time>2016-07-07T10:01:38Z</time>
      </trkpt>
      <trkpt lat="43.18349" lon="5.56599">
        <ele>366</ele>
        <time>2016-07-07T10:03:38Z</time>
      </trkpt>
      <trkpt lat="43.18351" lon="5.56588">
        <ele>366</ele>
        <time>2016-07-07T10:05:38Z</time>
      </trkpt>
      <trkpt lat="43.18358" lon="5.56572">
        <ele>363</ele>
        <time>2016-07-07T10:07:38Z</time>
      </trkpt>
      <trkpt lat="43.18362" lon="5.56566">
        <ele>361</ele>
        <time>2016-07-07T10:09:38Z</time>
      </trkpt>
      <trkpt lat="43.18366" lon="5.56561">
        <ele>360</ele>
        <time>2016-07-07T10:11:38Z</time>
      </trkpt>
      <trkpt lat="43.18371" lon="5.56556">
        <ele>358</ele>
        <time>2016-07-07T10:13:38Z</time>
      </trkpt>
      <trkpt lat="43.18378" lon="5.56552">
        <ele>356</ele>
        <time>2016-07-07T10:15:38Z</time>
      </trkpt>
      <trkpt lat="43.18395" lon="5.56545">
        <ele>350</ele>
        <time>2016-07-07T10:17:38Z</time>
      </trkpt>
      <trkpt lat="43.184" lon="5.56543">
        <ele>348</ele>
        <time>2016-07-07T10:19:38Z</time>
      </trkpt>
      <trkpt lat="43.18404" lon="5.56539">
        <ele>347</ele>
        <time>2016-07-07T10:21:38Z</time>
      </trkpt>
      <trkpt lat="43.18411" lon="5.56529">
        <ele>346</ele>
        <time>2016-07-07T10:23:38Z</time>
      </trkpt>
      <trkpt lat="43.18416" lon="5.56518">
        <ele>346</ele>
        <time>2016-07-07T10:25:38Z</time>
      </trkpt>
      <trkpt lat="43.18418" lon="5.56502">
        <ele>348</ele>
        <time>2016-07-07T10:27:38Z</time>
      </trkpt>
      <trkpt lat="43.18419" lon="5.56493">
        <ele>347</ele>
        <time>2016-07-07T10:29:38Z</time>
      </trkpt>
      <trkpt lat="43.18419" lon="5.56476">
        <ele>344</ele>
        <time>2016-07-07T10:31:38Z</time>
      </trkpt>
      <trkpt lat="43.18418" lon="5.56438">
        <ele>337</ele>
        <time>2016-07-07T10:33:38Z</time>
      </trkpt>
      <trkpt lat="43.18419" lon="5.56424">
        <ele>334</ele>
        <time>2016-07-07T10:35:38Z</time>
      </trkpt>
      <trkpt lat="43.18419" lon="5.56412">
        <ele>330</ele>
        <time>2016-07-07T10:37:38Z</time>
      </trkpt>
      <trkpt lat="43.1842" lon="5.56402">
        <ele>323</ele>
        <time>2016-07-07T10:39:38Z</time>
      </trkpt>
      <trkpt lat="43.18422" lon="5.56388">
        <ele>313</ele>
        <time>2016-07-07T10:41:38Z</time>
      </trkpt>
      <trkpt lat="43.18424" lon="5.56384">
        <ele>310</ele>
        <time>2016-07-07T10:43:38Z</time>
      </trkpt>
      <trkpt lat="43.18426" lon="5.56382">
        <ele>309</ele>
        <time>2016-07-07T10:45:38Z</time>
      </trkpt>
      <trkpt lat="43.18429" lon="5.56381">
        <ele>308</ele>
        <time>2016-07-07T10:47:38Z</time>
      </trkpt>
      <trkpt lat="43.18432" lon="5.56382">
        <ele>308</ele>
        <time>2016-07-07T10:49:38Z</time>
      </trkpt>
      <trkpt lat="43.18434" lon="5.56383">
        <ele>308</ele>
        <time>2016-07-07T10:51:38Z</time>
      </trkpt>
      <trkpt lat="43.18436" lon="5.56386">
        <ele>310</ele>
        <time>2016-07-07T10:53:38Z</time>
      </trkpt>
      <trkpt lat="43.18436" lon="5.56396">
        <ele>315</ele>
        <time>2016-07-07T10:55:38Z</time>
      </trkpt>
      <trkpt lat="43.18433" lon="5.56425">
        <ele>329</ele>
        <time>2016-07-07T10:57:38Z</time>
      </trkpt>
      <trkpt lat="43.18433" lon="5.56433">
        <ele>330</ele>
        <time>2016-07-07T10:59:38Z</time>
      </trkpt>
      <trkpt lat="43.18435" lon="5.56455">
        <ele>333</ele>
        <time>2016-07-07T11:01:38Z</time>
      </trkpt>
      <trkpt lat="43.18436" lon="5.56464">
        <ele>334</ele>
        <time>2016-07-07T11:03:38Z</time>
      </trkpt>
      <trkpt lat="43.18452" lon="5.56508">
        <ele>330</ele>
        <time>2016-07-07T11:05:38Z</time>
      </trkpt>
      <trkpt lat="43.18454" lon="5.56516">
        <ele>328</ele>
        <time>2016-07-07T11:07:38Z</time>
      </trkpt>
      <trkpt lat="43.18456" lon="5.56524">
        <ele>326</ele>
        <time>2016-07-07T11:09:38Z</time>
      </trkpt>
      <trkpt lat="43.18456" lon="5.56532">
        <ele>326</ele>
        <time>2016-07-07T11:11:38Z</time>
      </trkpt>
      <trkpt lat="43.18456" lon="5.56539">
        <ele>325</ele>
        <time>2016-07-07T11:13:38Z</time>
      </trkpt>
      <trkpt lat="43.18454" lon="5.56546">
        <ele>325</ele>
        <time>2016-07-07T11:15:38Z</time>
      </trkpt>
      <trkpt lat="43.18447" lon="5.56561">
        <ele>326</ele>
        <time>2016-07-07T11:17:38Z</time>
      </trkpt>
      <trkpt lat="43.18442" lon="5.56569">
        <ele>328</ele>
        <time>2016-07-07T11:19:38Z</time>
      </trkpt>
      <trkpt lat="43.18434" lon="5.56579">
        <ele>330</ele>
        <time>2016-07-07T11:21:38Z</time>
      </trkpt>
      <trkpt lat="43.18425" lon="5.56586">
        <ele>333</ele>
        <time>2016-07-07T11:23:38Z</time>
      </trkpt>
      <trkpt lat="43.18415" lon="5.56591">
        <ele>336</ele>
        <time>2016-07-07T11:25:38Z</time>
      </trkpt>
      <trkpt lat="43.18412" lon="5.56594">
        <ele>338</ele>
        <time>2016-07-07T11:27:38Z</time>
      </trkpt>
      <trkpt lat="43.1841" lon="5.56598">
        <ele>338</ele>
        <time>2016-07-07T11:29:38Z</time>
      </trkpt>
      <trkpt lat="43.18409" lon="5.56602">
        <ele>338</ele>
        <time>2016-07-07T11:31:38Z</time>
      </trkpt>
      <trkpt lat="43.18409" lon="5.56606">
        <ele>338</ele>
        <time>2016-07-07T11:33:38Z</time>
      </trkpt>
      <trkpt lat="43.18411" lon="5.5661">
        <ele>337</ele>
        <time>2016-07-07T11:35:38Z</time>
      </trkpt>
      <trkpt lat="43.18411" lon="5.5661">
        <ele>337</ele>
        <time>2016-07-07T11:37:38Z</time>
      </trkpt>
      <trkpt lat="43.18414" lon="5.56611">
        <ele>336</ele>
        <time>2016-07-07T11:39:38Z</time>
      </trkpt>
      <trkpt lat="43.18416" lon="5.56612">
        <ele>335</ele>
        <time>2016-07-07T11:41:38Z</time>
      </trkpt>
      <trkpt lat="43.18419" lon="5.56611">
        <ele>333</ele>
        <time>2016-07-07T11:43:38Z</time>
      </trkpt>
      <trkpt lat="43.18422" lon="5.56609">
        <ele>332</ele>
        <time>2016-07-07T11:45:38Z</time>
      </trkpt>
      <trkpt lat="43.18432" lon="5.56599">
        <ele>329</ele>
        <time>2016-07-07T11:47:38Z</time>
      </trkpt>
      <trkpt lat="43.18441" lon="5.56591">
        <ele>326</ele>
        <time>2016-07-07T11:49:38Z</time>
      </trkpt>
      <trkpt lat="43.18451" lon="5.56582">
        <ele>323</ele>
        <time>2016-07-07T11:51:38Z</time>
      </trkpt>
      <trkpt lat="43.1846" lon="5.56574">
        <ele>320</ele>
        <time>2016-07-07T11:53:38Z</time>
      </trkpt>
      <trkpt lat="43.18469" lon="5.56564">
        <ele>317</ele>
        <time>2016-07-07T11:55:38Z</time>
      </trkpt>
      <trkpt lat="43.18476" lon="5.56555">
        <ele>315</ele>
        <time>2016-07-07T11:57:38Z</time>
      </trkpt>
      <trkpt lat="43.18481" lon="5.56548">
        <ele>313</ele>
        <time>2016-07-07T11:59:38Z</time>
      </trkpt>
      <trkpt lat="43.18485" lon="5.56542">
        <ele>311</ele>
        <time>2016-07-07T12:01:38Z</time>
      </trkpt>
      <trkpt lat="43.18486" lon="5.56536">
        <ele>311</ele>
        <time>2016-07-07T12:03:38Z</time>
      </trkpt>
      <trkpt lat="43.18487" lon="5.5653">
        <ele>311</ele>
        <time>2016-07-07T12:05:38Z</time>
      </trkpt>
      <trkpt lat="43.18487" lon="5.56523">
        <ele>311</ele>
        <time>2016-07-07T12:07:38Z</time>
      </trkpt>
      <trkpt lat="43.18486" lon="5.56515">
        <ele>312</ele>
        <time>2016-07-07T12:09:38Z</time>
      </trkpt>
      <trkpt lat="43.18484" lon="5.56509">
        <ele>314</ele>
        <time>2016-07-07T12:11:38Z</time>
      </trkpt>
      <trkpt lat="43.18483" lon="5.56504">
        <ele>315</ele>
        <time>2016-07-07T12:13:38Z</time>
      </trkpt>
      <trkpt lat="43.18479" lon="5.56489">
        <ele>316</ele>
        <time>2016-07-07T12:15:38Z</time>
      </trkpt>
      <trkpt lat="43.18474" lon="5.56473">
        <ele>317</ele>
        <time>2016-07-07T12:17:38Z</time>
      </trkpt>
      <trkpt lat="43.1847" lon="5.56459">
        <ele>317</ele>
        <time>2016-07-07T12:19:38Z</time>
      </trkpt>
      <trkpt lat="43.18469" lon="5.56448">
        <ele>317</ele>
        <time>2016-07-07T12:21:38Z</time>
      </trkpt>
      <trkpt lat="43.18469" lon="5.56441">
        <ele>316</ele>
        <time>2016-07-07T12:23:38Z</time>
      </trkpt>
      <trkpt lat="43.1847" lon="5.56434">
        <ele>315</ele>
        <time>2016-07-07T12:25:38Z</time>
      </trkpt>
      <trkpt lat="43.18472" lon="5.56424">
        <ele>313</ele>
        <time>2016-07-07T12:27:38Z</time>
      </trkpt>
      <trkpt lat="43.18476" lon="5.56412">
        <ele>310</ele>
        <time>2016-07-07T12:29:38Z</time>
      </trkpt>
      <trkpt lat="43.18479" lon="5.56401">
        <ele>307</ele>
        <time>2016-07-07T12:31:38Z</time>
      </trkpt>
      <trkpt lat="43.18483" lon="5.5639">
        <ele>304</ele>
        <time>2016-07-07T12:33:38Z</time>
      </trkpt>
      <trkpt lat="43.18485" lon="5.56379">
        <ele>303</ele>
        <time>2016-07-07T12:35:38Z</time>
      </trkpt>
      <trkpt lat="43.18486" lon="5.56369">
        <ele>302</ele>
        <time>2016-07-07T12:37:38Z</time>
      </trkpt>
      <trkpt lat="43.18488" lon="5.56359">
        <ele>301</ele>
        <time>2016-07-07T12:39:38Z</time>
      </trkpt>
      <trkpt lat="43.18489" lon="5.56348">
        <ele>300</ele>
        <time>2016-07-07T12:41:38Z</time>
      </trkpt>
      <trkpt lat="43.1849" lon="5.56334">
        <ele>300</ele>
        <time>2016-07-07T12:43:38Z</time>
      </trkpt>
      <trkpt lat="43.18492" lon="5.56324">
        <ele>298</ele>
        <time>2016-07-07T12:45:38Z</time>
      </trkpt>
      <trkpt lat="43.18494" lon="5.56317">
        <ele>297</ele>
        <time>2016-07-07T12:47:38Z</time>
      </trkpt>
      <trkpt lat="43.18496" lon="5.56312">
        <ele>296</ele>
        <time>2016-07-07T12:49:38Z</time>
      </trkpt>
      <trkpt lat="43.18499" lon="5.56308">
        <ele>297</ele>
        <time>2016-07-07T12:51:38Z</time>
      </trkpt>
      <trkpt lat="43.18503" lon="5.56305">
        <ele>297</ele>
        <time>2016-07-07T12:53:38Z</time>
      </trkpt>
      <trkpt lat="43.18508" lon="5.56304">
        <ele>297</ele>
        <time>2016-07-07T12:55:38Z</time>
      </trkpt>
      <trkpt lat="43.18515" lon="5.56302">
        <ele>297</ele>
        <time>2016-07-07T12:57:38Z</time>
      </trkpt>
      <trkpt lat="43.18522" lon="5.56302">
        <ele>298</ele>
        <time>2016-07-07T12:59:38Z</time>
      </trkpt>
      <trkpt lat="43.1853" lon="5.56303">
        <ele>299</ele>
        <time>2016-07-07T13:01:38Z</time>
      </trkpt>
      <trkpt lat="43.18537" lon="5.56304">
        <ele>299</ele>
        <time>2016-07-07T13:03:38Z</time>
      </trkpt>
      <trkpt lat="43.18545" lon="5.56307">
        <ele>300</ele>
        <time>2016-07-07T13:05:38Z</time>
      </trkpt>
      <trkpt lat="43.18549" lon="5.5631">
        <ele>300</ele>
        <time>2016-07-07T13:07:38Z</time>
      </trkpt>
      <trkpt lat="43.18552" lon="5.56312">
        <ele>300</ele>
        <time>2016-07-07T13:09:38Z</time>
      </trkpt>
      <trkpt lat="43.18558" lon="5.56314">
        <ele>301</ele>
        <time>2016-07-07T13:11:38Z</time>
      </trkpt>
      <trkpt lat="43.18564" lon="5.56315">
        <ele>301</ele>
        <time>2016-07-07T13:13:38Z</time>
      </trkpt>
      <trkpt lat="43.1857" lon="5.56315">
        <ele>301</ele>
        <time>2016-07-07T13:15:38Z</time>
      </trkpt>
      <trkpt lat="43.18575" lon="5.56315">
        <ele>301</ele>
        <time>2016-07-07T13:17:38Z</time>
      </trkpt>
      <trkpt lat="43.18578" lon="5.56313">
        <ele>301</ele>
        <time>2016-07-07T13:19:38Z</time>
      </trkpt>
      <trkpt lat="43.18581" lon="5.5631">
        <ele>302</ele>
        <time>2016-07-07T13:21:38Z</time>
      </trkpt>
      <trkpt lat="43.18584" lon="5.56305">
        <ele>303</ele>
        <time>2016-07-07T13:23:38Z</time>
      </trkpt>
      <trkpt lat="43.18585" lon="5.56299">
        <ele>303</ele>
        <time>2016-07-07T13:25:38Z</time>
      </trkpt>
      <trkpt lat="43.18587" lon="5.5629">
        <ele>304</ele>
        <time>2016-07-07T13:27:38Z</time>
      </trkpt>
      <trkpt lat="43.18588" lon="5.56283">
        <ele>304</ele>
        <time>2016-07-07T13:29:38Z</time>
      </trkpt>
      <trkpt lat="43.18589" lon="5.56278">
        <ele>305</ele>
        <time>2016-07-07T13:31:38Z</time>
      </trkpt>
      <trkpt lat="43.1859" lon="5.56265">
        <ele>306</ele>
        <time>2016-07-07T13:33:38Z</time>
      </trkpt>
      <trkpt lat="43.18592" lon="5.56251">
        <ele>307</ele>
        <time>2016-07-07T13:35:38Z</time>
      </trkpt>
      <trkpt lat="43.18594" lon="5.56236">
        <ele>305</ele>
        <time>2016-07-07T13:37:38Z</time>
      </trkpt>
      <trkpt lat="43.18598" lon="5.56217">
        <ele>301</ele>
        <time>2016-07-07T13:39:38Z</time>
      </trkpt>
      <trkpt lat="43.18602" lon="5.56199">
        <ele>299</ele>
        <time>2016-07-07T13:41:38Z</time>
      </trkpt>
      <trkpt lat="43.18606" lon="5.56184">
        <ele>298</ele>
        <time>2016-07-07T13:43:38Z</time>
      </trkpt>
      <trkpt lat="43.18609" lon="5.56175">
        <ele>297</ele>
        <time>2016-07-07T13:45:38Z</time>
      </trkpt>
      <trkpt lat="43.18612" lon="5.56167">
        <ele>297</ele>
        <time>2016-07-07T13:47:38Z</time>
      </trkpt>
      <trkpt lat="43.18614" lon="5.56163">
        <ele>296</ele>
        <time>2016-07-07T13:49:38Z</time>
      </trkpt>
      <trkpt lat="43.18617" lon="5.56157">
        <ele>295</ele>
        <time>2016-07-07T13:51:38Z</time>
      </trkpt>
      <trkpt lat="43.18621" lon="5.56152">
        <ele>294</ele>
        <time>2016-07-07T13:53:38Z</time>
      </trkpt>
      <trkpt lat="43.18625" lon="5.56148">
        <ele>294</ele>
        <time>2016-07-07T13:55:38Z</time>
      </trkpt>
      <trkpt lat="43.1863" lon="5.56145">
        <ele>295</ele>
        <time>2016-07-07T13:57:38Z</time>
      </trkpt>
      <trkpt lat="43.18636" lon="5.56142">
        <ele>296</ele>
        <time>2016-07-07T13:59:38Z</time>
      </trkpt>
      <trkpt lat="43.18641" lon="5.56141">
        <ele>297</ele>
        <time>2016-07-07T14:01:38Z</time>
      </trkpt>
      <trkpt lat="43.18646" lon="5.56141">
        <ele>299</ele>
        <time>2016-07-07T14:03:38Z</time>
      </trkpt>
      <trkpt lat="43.18651" lon="5.56143">
        <ele>300</ele>
        <time>2016-07-07T14:05:38Z</time>
      </trkpt>
      <trkpt lat="43.18658" lon="5.56145">
        <ele>302</ele>
        <time>2016-07-07T14:07:38Z</time>
      </trkpt>
      <trkpt lat="43.18667" lon="5.5615">
        <ele>305</ele>
        <time>2016-07-07T14:09:38Z</time>
      </trkpt>
      <trkpt lat="43.1868" lon="5.56157">
        <ele>306</ele>
        <time>2016-07-07T14:11:38Z</time>
      </trkpt>
      <trkpt lat="43.18691" lon="5.56162">
        <ele>306</ele>
        <time>2016-07-07T14:13:38Z</time>
      </trkpt>
      <trkpt lat="43.18694" lon="5.56163">
        <ele>306</ele>
        <time>2016-07-07T14:15:38Z</time>
      </trkpt>
      <trkpt lat="43.187" lon="5.56166">
        <ele>306</ele>
        <time>2016-07-07T14:17:38Z</time>
      </trkpt>
      <trkpt lat="43.18707" lon="5.56167">
        <ele>306</ele>
        <time>2016-07-07T14:19:38Z</time>
      </trkpt>
      <trkpt lat="43.18713" lon="5.56168">
        <ele>306</ele>
        <time>2016-07-07T14:21:38Z</time>
      </trkpt>
      <trkpt lat="43.18718" lon="5.56168">
        <ele>306</ele>
        <time>2016-07-07T14:23:38Z</time>
      </trkpt>
      <trkpt lat="43.18724" lon="5.56167">
        <ele>307</ele>
        <time>2016-07-07T14:25:38Z</time>
      </trkpt>
      <trkpt lat="43.18731" lon="5.56163">
        <ele>308</ele>
        <time>2016-07-07T14:27:38Z</time>
      </trkpt>
      <trkpt lat="43.18738" lon="5.56159">
        <ele>309</ele>
        <time>2016-07-07T14:29:38Z</time>
      </trkpt>
      <trkpt lat="43.18747" lon="5.56154">
        <ele>311</ele>
        <time>2016-07-07T14:31:38Z</time>
      </trkpt>
      <trkpt lat="43.18754" lon="5.56151">
        <ele>313</ele>
        <time>2016-07-07T14:33:38Z</time>
      </trkpt>
      <trkpt lat="43.18762" lon="5.5615">
        <ele>314</ele>
        <time>2016-07-07T14:35:38Z</time>
      </trkpt>
      <trkpt lat="43.18765" lon="5.56149">
        <ele>314</ele>
        <time>2016-07-07T14:37:38Z</time>
      </trkpt>
      <trkpt lat="43.18769" lon="5.5615">
        <ele>314</ele>
        <time>2016-07-07T14:39:38Z</time>
      </trkpt>
      <trkpt lat="43.18774" lon="5.5615">
        <ele>315</ele>
        <time>2016-07-07T14:41:38Z</time>
      </trkpt>
      <trkpt lat="43.18779" lon="5.56153">
        <ele>315</ele>
        <time>2016-07-07T14:43:38Z</time>
      </trkpt>
      <trkpt lat="43.18784" lon="5.56157">
        <ele>314</ele>
        <time>2016-07-07T14:45:38Z</time>
      </trkpt>
      <trkpt lat="43.18791" lon="5.56163">
        <ele>314</ele>
        <time>2016-07-07T14:47:38Z</time>
      </trkpt>
      <trkpt lat="43.18798" lon="5.56171">
        <ele>313</ele>
        <time>2016-07-07T14:49:38Z</time>
      </trkpt>
      <trkpt lat="43.18806" lon="5.56182">
        <ele>311</ele>
        <time>2016-07-07T14:51:38Z</time>
      </trkpt>
      <trkpt lat="43.18813" lon="5.56194">
        <ele>310</ele>
        <time>2016-07-07T14:53:38Z</time>
      </trkpt>
      <trkpt lat="43.18815" lon="5.56197">
        <ele>310</ele>
        <time>2016-07-07T14:55:38Z</time>
      </trkpt>
      <trkpt lat="43.18823" lon="5.56211">
        <ele>308</ele>
        <time>2016-07-07T14:57:38Z</time>
      </trkpt>
      <trkpt lat="43.18832" lon="5.5623">
        <ele>306</ele>
        <time>2016-07-07T14:59:38Z</time>
      </trkpt>
      <trkpt lat="43.18842" lon="5.56248">
        <ele>306</ele>
        <time>2016-07-07T15:01:38Z</time>
      </trkpt>
      <trkpt lat="43.18848" lon="5.56262">
        <ele>305</ele>
        <time>2016-07-07T15:03:38Z</time>
      </trkpt>
      <trkpt lat="43.18849" lon="5.56263">
        <ele>305</ele>
        <time>2016-07-07T15:05:38Z</time>
      </trkpt>
      <trkpt lat="43.18853" lon="5.56275">
        <ele>305</ele>
        <time>2016-07-07T15:07:38Z</time>
      </trkpt>
      <trkpt lat="43.18858" lon="5.56289">
        <ele>304</ele>
        <time>2016-07-07T15:09:38Z</time>
      </trkpt>
      <trkpt lat="43.18861" lon="5.56301">
        <ele>303</ele>
        <time>2016-07-07T15:11:38Z</time>
      </trkpt>
      <trkpt lat="43.18865" lon="5.56319">
        <ele>301</ele>
        <time>2016-07-07T15:13:38Z</time>
      </trkpt>
      <trkpt lat="43.18868" lon="5.56336">
        <ele>299</ele>
        <time>2016-07-07T15:15:38Z</time>
      </trkpt>
      <trkpt lat="43.18871" lon="5.56351">
        <ele>297</ele>
        <time>2016-07-07T15:17:38Z</time>
      </trkpt>
      <trkpt lat="43.18874" lon="5.56363">
        <ele>296</ele>
        <time>2016-07-07T15:19:38Z</time>
      </trkpt>
      <trkpt lat="43.18877" lon="5.56368">
        <ele>296</ele>
        <time>2016-07-07T15:21:38Z</time>
      </trkpt>
      <trkpt lat="43.1888" lon="5.56373">
        <ele>296</ele>
        <time>2016-07-07T15:23:38Z</time>
      </trkpt>
      <trkpt lat="43.18884" lon="5.56376">
        <ele>296</ele>
        <time>2016-07-07T15:25:38Z</time>
      </trkpt>
      <trkpt lat="43.18889" lon="5.5638">
        <ele>297</ele>
        <time>2016-07-07T15:27:38Z</time>
      </trkpt>
      <trkpt lat="43.18897" lon="5.56383">
        <ele>298</ele>
        <time>2016-07-07T15:29:38Z</time>
      </trkpt>
      <trkpt lat="43.18908" lon="5.56387">
        <ele>300</ele>
        <time>2016-07-07T15:31:38Z</time>
      </trkpt>
      <trkpt lat="43.1892" lon="5.56392">
        <ele>302</ele>
        <time>2016-07-07T15:33:38Z</time>
      </trkpt>
      <trkpt lat="43.18934" lon="5.56396">
        <ele>302</ele>
        <time>2016-07-07T15:35:38Z</time>
      </trkpt>
      <trkpt lat="43.18946" lon="5.56401">
        <ele>302</ele>
        <time>2016-07-07T15:37:38Z</time>
      </trkpt>
      <trkpt lat="43.1896" lon="5.56406">
        <ele>302</ele>
        <time>2016-07-07T15:39:38Z</time>
      </trkpt>
      <trkpt lat="43.1897" lon="5.5641">
        <ele>302</ele>
        <time>2016-07-07T15:41:38Z</time>
      </trkpt>
      <trkpt lat="43.18978" lon="5.56412">
        <ele>303</ele>
        <time>2016-07-07T15:43:38Z</time>
      </trkpt>
      <trkpt lat="43.18985" lon="5.56413">
        <ele>303</ele>
        <time>2016-07-07T15:45:38Z</time>
      </trkpt>
      <trkpt lat="43.18993" lon="5.56413">
        <ele>304</ele>
        <time>2016-07-07T15:47:38Z</time>
      </trkpt>
      <trkpt lat="43.18998" lon="5.56411">
        <ele>305</ele>
        <time>2016-07-07T15:49:38Z</time>
      </trkpt>
      <trkpt lat="43.19004" lon="5.56408">
        <ele>304</ele>
        <time>2016-07-07T15:51:38Z</time>
      </trkpt>
      <trkpt lat="43.19009" lon="5.56403">
        <ele>304</ele>
        <time>2016-07-07T15:53:38Z</time>
      </trkpt>
      <trkpt lat="43.19012" lon="5.56398">
        <ele>303</ele>
        <time>2016-07-07T15:55:38Z</time>
      </trkpt>
      <trkpt lat="43.19015" lon="5.5639">
        <ele>303</ele>
        <time>2016-07-07T15:57:38Z</time>
      </trkpt>
      <trkpt lat="43.19016" lon="5.56381">
        <ele>304</ele>
        <time>2016-07-07T15:59:38Z</time>
      </trkpt>
      <trkpt lat="43.19016" lon="5.56372">
        <ele>304</ele>
        <time>2016-07-07T16:01:38Z</time>
      </trkpt>
      <trkpt lat="43.19015" lon="5.56363">
        <ele>305</ele>
        <time>2016-07-07T16:03:38Z</time>
      </trkpt>
      <trkpt lat="43.19013" lon="5.56352">
        <ele>307</ele>
        <time>2016-07-07T16:05:38Z</time>
      </trkpt>
      <trkpt lat="43.1901" lon="5.56339">
        <ele>309</ele>
        <time>2016-07-07T16:07:38Z</time>
      </trkpt>
      <trkpt lat="43.19006" lon="5.56325">
        <ele>311</ele>
        <time>2016-07-07T16:09:38Z</time>
      </trkpt>
      <trkpt lat="43.19004" lon="5.56313">
        <ele>312</ele>
        <time>2016-07-07T16:11:38Z</time>
      </trkpt>
      <trkpt lat="43.19002" lon="5.563">
        <ele>312</ele>
        <time>2016-07-07T16:13:38Z</time>
      </trkpt>
      <trkpt lat="43.19001" lon="5.56286">
        <ele>312</ele>
        <time>2016-07-07T16:15:38Z</time>
      </trkpt>
      <trkpt lat="43.19" lon="5.56272">
        <ele>313</ele>
        <time>2016-07-07T16:17:38Z</time>
      </trkpt>
      <trkpt lat="43.19" lon="5.56258">
        <ele>312</ele>
        <time>2016-07-07T16:19:38Z</time>
      </trkpt>
      <trkpt lat="43.19" lon="5.56242">
        <ele>310</ele>
        <time>2016-07-07T16:21:38Z</time>
      </trkpt>
      <trkpt lat="43.18998" lon="5.5623">
        <ele>309</ele>
        <time>2016-07-07T16:23:38Z</time>
      </trkpt>
      <trkpt lat="43.18997" lon="5.5622">
        <ele>307</ele>
        <time>2016-07-07T16:25:38Z</time>
      </trkpt>
      <trkpt lat="43.18995" lon="5.56215">
        <ele>307</ele>
        <time>2016-07-07T16:27:38Z</time>
      </trkpt>
      <trkpt lat="43.18994" lon="5.56209">
        <ele>306</ele>
        <time>2016-07-07T16:29:38Z</time>
      </trkpt>
      <trkpt lat="43.1899" lon="5.56199">
        <ele>306</ele>
        <time>2016-07-07T16:31:38Z</time>
      </trkpt>
      <trkpt lat="43.18986" lon="5.56189">
        <ele>305</ele>
        <time>2016-07-07T16:33:38Z</time>
      </trkpt>
      <trkpt lat="43.18984" lon="5.56186">
        <ele>306</ele>
        <time>2016-07-07T16:35:38Z</time>
      </trkpt>
      <trkpt lat="43.1898" lon="5.56179">
        <ele>306</ele>
        <time>2016-07-07T16:37:38Z</time>
      </trkpt>
      <trkpt lat="43.18974" lon="5.56168">
        <ele>307</ele>
        <time>2016-07-07T16:39:38Z</time>
      </trkpt>
      <trkpt lat="43.18967" lon="5.56157">
        <ele>308</ele>
        <time>2016-07-07T16:41:38Z</time>
      </trkpt>
      <trkpt lat="43.1896" lon="5.56145">
        <ele>308</ele>
        <time>2016-07-07T16:43:38Z</time>
      </trkpt>
      <trkpt lat="43.18951" lon="5.5613">
        <ele>309</ele>
        <time>2016-07-07T16:45:38Z</time>
      </trkpt>
      <trkpt lat="43.18942" lon="5.56114">
        <ele>309</ele>
        <time>2016-07-07T16:47:38Z</time>
      </trkpt>
      <trkpt lat="43.18932" lon="5.56093">
        <ele>309</ele>
        <time>2016-07-07T16:49:38Z</time>
      </trkpt>
      <trkpt lat="43.18922" lon="5.56075">
        <ele>310</ele>
        <time>2016-07-07T16:51:38Z</time>
      </trkpt>
      <trkpt lat="43.18913" lon="5.56058">
        <ele>309</ele>
        <time>2016-07-07T16:53:38Z</time>
      </trkpt>
      <trkpt lat="43.18903" lon="5.56041">
        <ele>308</ele>
        <time>2016-07-07T16:55:38Z</time>
      </trkpt>
      <trkpt lat="43.18895" lon="5.56026">
        <ele>307</ele>
        <time>2016-07-07T16:57:38Z</time>
      </trkpt>
      <trkpt lat="43.18887" lon="5.5601">
        <ele>307</ele>
        <time>2016-07-07T16:59:38Z</time>
      </trkpt>
      <trkpt lat="43.18886" lon="5.56006">
        <ele>307</ele>
        <time>2016-07-07T17:01:38Z</time>
      </trkpt>
      <trkpt lat="43.18882" lon="5.55997">
        <ele>307</ele>
        <time>2016-07-07T17:03:38Z</time>
      </trkpt>
      <trkpt lat="43.18876" lon="5.55985">
        <ele>309</ele>
        <time>2016-07-07T17:05:38Z</time>
      </trkpt>
      <trkpt lat="43.18872" lon="5.55974">
        <ele>310</ele>
        <time>2016-07-07T17:07:38Z</time>
      </trkpt>
      <trkpt lat="43.1887" lon="5.55963">
        <ele>309</ele>
        <time>2016-07-07T17:09:38Z</time>
      </trkpt>
      <trkpt lat="43.18867" lon="5.55952">
        <ele>309</ele>
        <time>2016-07-07T17:11:38Z</time>
      </trkpt>
      <trkpt lat="43.18865" lon="5.55941">
        <ele>309</ele>
        <time>2016-07-07T17:13:38Z</time>
      </trkpt>
      <trkpt lat="43.18863" lon="5.55928">
        <ele>308</ele>
        <time>2016-07-07T17:15:38Z</time>
      </trkpt>
      <trkpt lat="43.18861" lon="5.55913">
        <ele>307</ele>
        <time>2016-07-07T17:17:38Z</time>
      </trkpt>
      <trkpt lat="43.18859" lon="5.55896">
        <ele>305</ele>
        <time>2016-07-07T17:19:38Z</time>
      </trkpt>
      <trkpt lat="43.18857" lon="5.55882">
        <ele>302</ele>
        <time>2016-07-07T17:21:38Z</time>
      </trkpt>
      <trkpt lat="43.18856" lon="5.55872">
        <ele>300</ele>
        <time>2016-07-07T17:23:38Z</time>
      </trkpt>
      <trkpt lat="43.18856" lon="5.55863">
        <ele>299</ele>
        <time>2016-07-07T17:25:38Z</time>
      </trkpt>
      <trkpt lat="43.18857" lon="5.55854">
        <ele>297</ele>
        <time>2016-07-07T17:27:38Z</time>
      </trkpt>
      <trkpt lat="43.18858" lon="5.55846">
        <ele>296</ele>
        <time>2016-07-07T17:29:38Z</time>
      </trkpt>
      <trkpt lat="43.18861" lon="5.55836">
        <ele>294</ele>
        <time>2016-07-07T17:31:38Z</time>
      </trkpt>
      <trkpt lat="43.18865" lon="5.5583">
        <ele>289</ele>
        <time>2016-07-07T17:33:38Z</time>
      </trkpt>
      <trkpt lat="43.18868" lon="5.55827">
        <ele>285</ele>
        <time>2016-07-07T17:35:38Z</time>
      </trkpt>
      <trkpt lat="43.18872" lon="5.55824">
        <ele>281</ele>
        <time>2016-07-07T17:37:38Z</time>
      </trkpt>
      <trkpt lat="43.18876" lon="5.55822">
        <ele>280</ele>
        <time>2016-07-07T17:39:38Z</time>
      </trkpt>
      <trkpt lat="43.18878" lon="5.55821">
        <ele>279</ele>
        <time>2016-07-07T17:41:38Z</time>
      </trkpt>
      <trkpt lat="43.18883" lon="5.5582">
        <ele>280</ele>
        <time>2016-07-07T17:43:38Z</time>
      </trkpt>
      <trkpt lat="43.18888" lon="5.5582">
        <ele>282</ele>
        <time>2016-07-07T17:45:38Z</time>
      </trkpt>
      <trkpt lat="43.18894" lon="5.55821">
        <ele>286</ele>
        <time>2016-07-07T17:47:38Z</time>
      </trkpt>
      <trkpt lat="43.189" lon="5.55823">
        <ele>291</ele>
        <time>2016-07-07T17:49:38Z</time>
      </trkpt>
      <trkpt lat="43.18905" lon="5.55825">
        <ele>296</ele>
        <time>2016-07-07T17:51:38Z</time>
      </trkpt>
      <trkpt lat="43.18915" lon="5.5583">
        <ele>304</ele>
        <time>2016-07-07T17:53:38Z</time>
      </trkpt>
      <trkpt lat="43.18926" lon="5.55836">
        <ele>309</ele>
        <time>2016-07-07T17:55:38Z</time>
      </trkpt>
      <trkpt lat="43.18937" lon="5.55842">
        <ele>309</ele>
        <time>2016-07-07T17:57:38Z</time>
      </trkpt>
      <trkpt lat="43.18945" lon="5.55846">
        <ele>309</ele>
        <time>2016-07-07T17:59:38Z</time>
      </trkpt>
      <trkpt lat="43.18957" lon="5.55852">
        <ele>309</ele>
        <time>2016-07-07T18:01:38Z</time>
      </trkpt>
      <trkpt lat="43.18968" lon="5.55856">
        <ele>309</ele>
        <time>2016-07-07T18:03:38Z</time>
      </trkpt>
      <trkpt lat="43.18988" lon="5.55863">
        <ele>309</ele>
        <time>2016-07-07T18:05:38Z</time>
      </trkpt>
      <trkpt lat="43.19006" lon="5.55869">
        <ele>309</ele>
        <time>2016-07-07T18:07:38Z</time>
      </trkpt>
      <trkpt lat="43.19023" lon="5.55875">
        <ele>308</ele>
        <time>2016-07-07T18:09:38Z</time>
      </trkpt>
      <trkpt lat="43.19039" lon="5.55881">
        <ele>307</ele>
        <time>2016-07-07T18:11:38Z</time>
      </trkpt>
      <trkpt lat="43.19052" lon="5.55885">
        <ele>307</ele>
        <time>2016-07-07T18:13:38Z</time>
      </trkpt>
      <trkpt lat="43.19064" lon="5.55888">
        <ele>306</ele>
        <time>2016-07-07T18:15:38Z</time>
      </trkpt>
      <trkpt lat="43.19074" lon="5.55891">
        <ele>306</ele>
        <time>2016-07-07T18:17:38Z</time>
      </trkpt>
      <trkpt lat="43.19086" lon="5.55894">
        <ele>306</ele>
        <time>2016-07-07T18:19:38Z</time>
      </trkpt>
      <trkpt lat="43.191" lon="5.55896">
        <ele>305</ele>
        <time>2016-07-07T18:21:38Z</time>
      </trkpt>
      <trkpt lat="43.1912" lon="5.55901">
        <ele>303</ele>
        <time>2016-07-07T18:23:38Z</time>
      </trkpt>
      <trkpt lat="43.1914" lon="5.55905">
        <ele>303</ele>
        <time>2016-07-07T18:25:38Z</time>
      </trkpt>
      <trkpt lat="43.19156" lon="5.55908">
        <ele>302</ele>
        <time>2016-07-07T18:27:38Z</time>
      </trkpt>
      <trkpt lat="43.19174" lon="5.55912">
        <ele>301</ele>
        <time>2016-07-07T18:29:38Z</time>
      </trkpt>
      <trkpt lat="43.19183" lon="5.55914">
        <ele>299</ele>
        <time>2016-07-07T18:31:38Z</time>
      </trkpt>
      <trkpt lat="43.19189" lon="5.55914">
        <ele>297</ele>
        <time>2016-07-07T18:33:38Z</time>
      </trkpt>
      <trkpt lat="43.19193" lon="5.55911">
        <ele>296</ele>
        <time>2016-07-07T18:35:38Z</time>
      </trkpt>
      <trkpt lat="43.19194" lon="5.55909">
        <ele>296</ele>
        <time>2016-07-07T18:37:38Z</time>
      </trkpt>
      <trkpt lat="43.19195" lon="5.55908">
        <ele>296</ele>
        <time>2016-07-07T18:39:38Z</time>
      </trkpt>
      <trkpt lat="43.19197" lon="5.55903">
        <ele>295</ele>
        <time>2016-07-07T18:41:38Z</time>
      </trkpt>
      <trkpt lat="43.19197" lon="5.559">
        <ele>295</ele>
        <time>2016-07-07T18:43:38Z</time>
      </trkpt>
      <trkpt lat="43.19197" lon="5.55897">
        <ele>295</ele>
        <time>2016-07-07T18:45:38Z</time>
      </trkpt>
      <trkpt lat="43.19196" lon="5.55891">
        <ele>295</ele>
        <time>2016-07-07T18:47:38Z</time>
      </trkpt>
      <trkpt lat="43.19194" lon="5.55883">
        <ele>296</ele>
        <time>2016-07-07T18:49:38Z</time>
      </trkpt>
      <trkpt lat="43.1919" lon="5.55871">
        <ele>297</ele>
        <time>2016-07-07T18:51:38Z</time>
      </trkpt>
      <trkpt lat="43.19183" lon="5.55853">
        <ele>299</ele>
        <time>2016-07-07T18:53:38Z</time>
      </trkpt>
      <trkpt lat="43.19179" lon="5.55841">
        <ele>301</ele>
        <time>2016-07-07T18:55:38Z</time>
      </trkpt>
      <trkpt lat="43.19173" lon="5.55829">
        <ele>303</ele>
        <time>2016-07-07T18:57:38Z</time>
      </trkpt>
      <trkpt lat="43.19168" lon="5.5582">
        <ele>303</ele>
        <time>2016-07-07T18:59:38Z</time>
      </trkpt>
      <trkpt lat="43.19161" lon="5.55809">
        <ele>303</ele>
        <time>2016-07-07T19:01:38Z</time>
      </trkpt>
      <trkpt lat="43.19153" lon="5.55798">
        <ele>303</ele>
        <time>2016-07-07T19:03:38Z</time>
      </trkpt>
      <trkpt lat="43.19146" lon="5.55784">
        <ele>303</ele>
        <time>2016-07-07T19:05:38Z</time>
      </trkpt>
      <trkpt lat="43.19137" lon="5.55768">
        <ele>303</ele>
        <time>2016-07-07T19:07:38Z</time>
      </trkpt>
      <trkpt lat="43.19129" lon="5.55752">
        <ele>304</ele>
        <time>2016-07-07T19:09:38Z</time>
      </trkpt>
      <trkpt lat="43.1912" lon="5.55735">
        <ele>305</ele>
        <time>2016-07-07T19:11:38Z</time>
      </trkpt>
      <trkpt lat="43.19112" lon="5.5572">
        <ele>304</ele>
        <time>2016-07-07T19:13:38Z</time>
      </trkpt>
      <trkpt lat="43.19105" lon="5.55707">
        <ele>303</ele>
        <time>2016-07-07T19:15:38Z</time>
      </trkpt>
      <trkpt lat="43.19096" lon="5.55688">
        <ele>301</ele>
        <time>2016-07-07T19:17:38Z</time>
      </trkpt>
      <trkpt lat="43.19085" lon="5.55667">
        <ele>297</ele>
        <time>2016-07-07T19:19:38Z</time>
      </trkpt>
      <trkpt lat="43.19078" lon="5.55652">
        <ele>287</ele>
        <time>2016-07-07T19:21:38Z</time>
      </trkpt>
      <trkpt lat="43.19072" lon="5.55639">
        <ele>276</ele>
        <time>2016-07-07T19:23:38Z</time>
      </trkpt>
      <trkpt lat="43.19066" lon="5.55625">
        <ele>262</ele>
        <time>2016-07-07T19:25:38Z</time>
      </trkpt>
      <trkpt lat="43.19062" lon="5.55615">
        <ele>250</ele>
        <time>2016-07-07T19:27:38Z</time>
      </trkpt>
      <trkpt lat="43.1906" lon="5.55608">
        <ele>243</ele>
        <time>2016-07-07T19:29:38Z</time>
      </trkpt>
      <trkpt lat="43.19061" lon="5.55605">
        <ele>242</ele>
        <time>2016-07-07T19:31:38Z</time>
      </trkpt>
      <trkpt lat="43.19061" lon="5.556">
        <ele>239</ele>
        <time>2016-07-07T19:33:38Z</time>
      </trkpt>
      <trkpt lat="43.19062" lon="5.55595">
        <ele>237</ele>
        <time>2016-07-07T19:35:38Z</time>
      </trkpt>
      <trkpt lat="43.19064" lon="5.55588">
        <ele>236</ele>
        <time>2016-07-07T19:37:38Z</time>
      </trkpt>
      <trkpt lat="43.19066" lon="5.55582">
        <ele>234</ele>
        <time>2016-07-07T19:39:38Z</time>
      </trkpt>
      <trkpt lat="43.1907" lon="5.55575">
        <ele>229</ele>
        <time>2016-07-07T19:41:38Z</time>
      </trkpt>
      <trkpt lat="43.19076" lon="5.55568">
        <ele>227</ele>
        <time>2016-07-07T19:43:38Z</time>
      </trkpt>
      <trkpt lat="43.19076" lon="5.55567">
        <ele>225</ele>
        <time>2016-07-07T19:45:38Z</time>
      </trkpt>
      <trkpt lat="43.19082" lon="5.5556">
        <ele>222</ele>
        <time>2016-07-07T19:47:38Z</time>
      </trkpt>
      <trkpt lat="43.19087" lon="5.55555">
        <ele>219</ele>
        <time>2016-07-07T19:49:38Z</time>
      </trkpt>
      <trkpt lat="43.19094" lon="5.5555">
        <ele>219</ele>
        <time>2016-07-07T19:51:38Z</time>
      </trkpt>
      <trkpt lat="43.191" lon="5.55546">
        <ele>220</ele>
        <time>2016-07-07T19:53:38Z</time>
      </trkpt>
      <trkpt lat="43.19106" lon="5.55545">
        <ele>227</ele>
        <time>2016-07-07T19:55:38Z</time>
      </trkpt>
      <trkpt lat="43.1911" lon="5.55544">
        <ele>231</ele>
        <time>2016-07-07T19:57:38Z</time>
      </trkpt>
      <trkpt lat="43.19119" lon="5.55545">
        <ele>243</ele>
        <time>2016-07-07T19:59:38Z</time>
      </trkpt>
      <trkpt lat="43.19125" lon="5.55548">
        <ele>254</ele>
        <time>2016-07-07T20:01:38Z</time>
      </trkpt>
      <trkpt lat="43.19133" lon="5.55552">
        <ele>267</ele>
        <time>2016-07-07T20:03:38Z</time>
      </trkpt>
      <trkpt lat="43.19141" lon="5.55558">
        <ele>279</ele>
        <time>2016-07-07T20:05:38Z</time>
      </trkpt>
      <trkpt lat="43.19152" lon="5.55565">
        <ele>292</ele>
        <time>2016-07-07T20:07:38Z</time>
      </trkpt>
      <trkpt lat="43.19162" lon="5.55573">
        <ele>302</ele>
        <time>2016-07-07T20:09:38Z</time>
      </trkpt>
      <trkpt lat="43.19173" lon="5.5558">
        <ele>306</ele>
        <time>2016-07-07T20:11:38Z</time>
      </trkpt>
      <trkpt lat="43.19186" lon="5.55587">
        <ele>306</ele>
        <time>2016-07-07T20:13:38Z</time>
      </trkpt>
      <trkpt lat="43.19195" lon="5.5559">
        <ele>306</ele>
        <time>2016-07-07T20:15:38Z</time>
      </trkpt>
      <trkpt lat="43.19205" lon="5.55593">
        <ele>306</ele>
        <time>2016-07-07T20:17:38Z</time>
      </trkpt>
      <trkpt lat="43.19215" lon="5.55595">
        <ele>306</ele>
        <time>2016-07-07T20:19:38Z</time>
      </trkpt>
      <trkpt lat="43.19224" lon="5.55596">
        <ele>306</ele>
        <time>2016-07-07T20:21:38Z</time>
      </trkpt>
      <trkpt lat="43.19232" lon="5.55595">
        <ele>307</ele>
        <time>2016-07-07T20:23:38Z</time>
      </trkpt>
      <trkpt lat="43.19239" lon="5.55594">
        <ele>308</ele>
        <time>2016-07-07T20:25:38Z</time>
      </trkpt>
      <trkpt lat="43.19247" lon="5.55592">
        <ele>309</ele>
        <time>2016-07-07T20:27:38Z</time>
      </trkpt>
      <trkpt lat="43.19253" lon="5.5559">
        <ele>310</ele>
        <time>2016-07-07T20:29:38Z</time>
      </trkpt>
      <trkpt lat="43.19259" lon="5.55587">
        <ele>311</ele>
        <time>2016-07-07T20:31:38Z</time>
      </trkpt>
      <trkpt lat="43.19267" lon="5.55582">
        <ele>312</ele>
        <time>2016-07-07T20:33:38Z</time>
      </trkpt>
      <trkpt lat="43.19274" lon="5.55575">
        <ele>313</ele>
        <time>2016-07-07T20:35:38Z</time>
      </trkpt>
      <trkpt lat="43.19282" lon="5.55565">
        <ele>315</ele>
        <time>2016-07-07T20:37:38Z</time>
      </trkpt>
      <trkpt lat="43.19291" lon="5.55554">
        <ele>317</ele>
        <time>2016-07-07T20:39:38Z</time>
      </trkpt>
      <trkpt lat="43.193" lon="5.55543">
        <ele>319</ele>
        <time>2016-07-07T20:41:38Z</time>
      </trkpt>
      <trkpt lat="43.19308" lon="5.55534">
        <ele>321</ele>
        <time>2016-07-07T20:43:38Z</time>
      </trkpt>
      <trkpt lat="43.19314" lon="5.55529">
        <ele>321</ele>
        <time>2016-07-07T20:45:38Z</time>
      </trkpt>
      <trkpt lat="43.19318" lon="5.55526">
        <ele>322</ele>
        <time>2016-07-07T20:47:38Z</time>
      </trkpt>
      <trkpt lat="43.19323" lon="5.55524">
        <ele>322</ele>
        <time>2016-07-07T20:49:38Z</time>
      </trkpt>
      <trkpt lat="43.19327" lon="5.55525">
        <ele>322</ele>
        <time>2016-07-07T20:51:38Z</time>
      </trkpt>
      <trkpt lat="43.19331" lon="5.55528">
        <ele>321</ele>
        <time>2016-07-07T20:53:38Z</time>
      </trkpt>
      <trkpt lat="43.19336" lon="5.55532">
        <ele>320</ele>
        <time>2016-07-07T20:55:38Z</time>
      </trkpt>
      <trkpt lat="43.1934" lon="5.55541">
        <ele>319</ele>
        <time>2016-07-07T20:57:38Z</time>
      </trkpt>
      <trkpt lat="43.19345" lon="5.5555">
        <ele>318</ele>
        <time>2016-07-07T20:59:38Z</time>
      </trkpt>
      <trkpt lat="43.1935" lon="5.55564">
        <ele>316</ele>
        <time>2016-07-07T21:01:38Z</time>
      </trkpt>
      <trkpt lat="43.19355" lon="5.55579">
        <ele>314</ele>
        <time>2016-07-07T21:03:38Z</time>
      </trkpt>
      <trkpt lat="43.19362" lon="5.55597">
        <ele>311</ele>
        <time>2016-07-07T21:05:38Z</time>
      </trkpt>
      <trkpt lat="43.19368" lon="5.55617">
        <ele>309</ele>
        <time>2016-07-07T21:07:38Z</time>
      </trkpt>
      <trkpt lat="43.19374" lon="5.55631">
        <ele>307</ele>
        <time>2016-07-07T21:09:38Z</time>
      </trkpt>
      <trkpt lat="43.19378" lon="5.5564">
        <ele>306</ele>
        <time>2016-07-07T21:11:38Z</time>
      </trkpt>
      <trkpt lat="43.19383" lon="5.55646">
        <ele>306</ele>
        <time>2016-07-07T21:13:38Z</time>
      </trkpt>
      <trkpt lat="43.19387" lon="5.55651">
        <ele>306</ele>
        <time>2016-07-07T21:15:38Z</time>
      </trkpt>
      <trkpt lat="43.19391" lon="5.55654">
        <ele>306</ele>
        <time>2016-07-07T21:17:38Z</time>
      </trkpt>
      <trkpt lat="43.19393" lon="5.55655">
        <ele>306</ele>
        <time>2016-07-07T21:19:38Z</time>
      </trkpt>
      <trkpt lat="43.19396" lon="5.55655">
        <ele>307</ele>
        <time>2016-07-07T21:21:38Z</time>
      </trkpt>
      <trkpt lat="43.19402" lon="5.55656">
        <ele>308</ele>
        <time>2016-07-07T21:23:38Z</time>
      </trkpt>
      <trkpt lat="43.19407" lon="5.55657">
        <ele>309</ele>
        <time>2016-07-07T21:25:38Z</time>
      </trkpt>
      <trkpt lat="43.19417" lon="5.55657">
        <ele>311</ele>
        <time>2016-07-07T21:27:38Z</time>
      </trkpt>
      <trkpt lat="43.19424" lon="5.55654">
        <ele>311</ele>
        <time>2016-07-07T21:29:38Z</time>
      </trkpt>
      <trkpt lat="43.19434" lon="5.55649">
        <ele>310</ele>
        <time>2016-07-07T21:31:38Z</time>
      </trkpt>
      <trkpt lat="43.19436" lon="5.55648">
        <ele>310</ele>
        <time>2016-07-07T21:33:38Z</time>
      </trkpt>
      <trkpt lat="43.19441" lon="5.55644">
        <ele>311</ele>
        <time>2016-07-07T21:35:38Z</time>
      </trkpt>
      <trkpt lat="43.19447" lon="5.55638">
        <ele>311</ele>
        <time>2016-07-07T21:37:38Z</time>
      </trkpt>
      <trkpt lat="43.19454" lon="5.55627">
        <ele>313</ele>
        <time>2016-07-07T21:39:38Z</time>
      </trkpt>
      <trkpt lat="43.19464" lon="5.55612">
        <ele>315</ele>
        <time>2016-07-07T21:41:38Z</time>
      </trkpt>
      <trkpt lat="43.19478" lon="5.55591">
        <ele>318</ele>
        <time>2016-07-07T21:43:38Z</time>
      </trkpt>
      <trkpt lat="43.19491" lon="5.55571">
        <ele>321</ele>
        <time>2016-07-07T21:45:38Z</time>
      </trkpt>
      <trkpt lat="43.19503" lon="5.55556">
        <ele>324</ele>
        <time>2016-07-07T21:47:38Z</time>
      </trkpt>
      <trkpt lat="43.1951" lon="5.55547">
        <ele>326</ele>
        <time>2016-07-07T21:49:38Z</time>
      </trkpt>
      <trkpt lat="43.19516" lon="5.55541">
        <ele>328</ele>
        <time>2016-07-07T21:51:38Z</time>
      </trkpt>
      <trkpt lat="43.19521" lon="5.55538">
        <ele>328</ele>
        <time>2016-07-07T21:53:38Z</time>
      </trkpt>
      <trkpt lat="43.19527" lon="5.55536">
        <ele>329</ele>
        <time>2016-07-07T21:55:38Z</time>
      </trkpt>
      <trkpt lat="43.19532" lon="5.55534">
        <ele>329</ele>
        <time>2016-07-07T21:57:38Z</time>
      </trkpt>
      <trkpt lat="43.19538" lon="5.55534">
        <ele>329</ele>
        <time>2016-07-07T21:59:38Z</time>
      </trkpt>
      <trkpt lat="43.19544" lon="5.55535">
        <ele>329</ele>
        <time>2016-07-07T22:01:38Z</time>
      </trkpt>
      <trkpt lat="43.1955" lon="5.55537">
        <ele>329</ele>
        <time>2016-07-07T22:03:38Z</time>
      </trkpt>
      <trkpt lat="43.19556" lon="5.55541">
        <ele>328</ele>
        <time>2016-07-07T22:05:38Z</time>
      </trkpt>
      <trkpt lat="43.19563" lon="5.55548">
        <ele>327</ele>
        <time>2016-07-07T22:07:38Z</time>
      </trkpt>
      <trkpt lat="43.19566" lon="5.55551">
        <ele>326</ele>
        <time>2016-07-07T22:09:38Z</time>
      </trkpt>
      <trkpt lat="43.1957" lon="5.55556">
        <ele>325</ele>
        <time>2016-07-07T22:11:38Z</time>
      </trkpt>
      <trkpt lat="43.19576" lon="5.55564">
        <ele>324</ele>
        <time>2016-07-07T22:13:38Z</time>
      </trkpt>
      <trkpt lat="43.19583" lon="5.55574">
        <ele>322</ele>
        <time>2016-07-07T22:15:38Z</time>
      </trkpt>
      <trkpt lat="43.19589" lon="5.55584">
        <ele>320</ele>
        <time>2016-07-07T22:17:38Z</time>
      </trkpt>
      <trkpt lat="43.19595" lon="5.55593">
        <ele>320</ele>
        <time>2016-07-07T22:19:38Z</time>
      </trkpt>
      <trkpt lat="43.196" lon="5.55603">
        <ele>320</ele>
        <time>2016-07-07T22:21:38Z</time>
      </trkpt>
      <trkpt lat="43.19606" lon="5.55614">
        <ele>320</ele>
        <time>2016-07-07T22:23:38Z</time>
      </trkpt>
      <trkpt lat="43.19611" lon="5.55623">
        <ele>320</ele>
        <time>2016-07-07T22:25:38Z</time>
      </trkpt>
      <trkpt lat="43.19616" lon="5.55632">
        <ele>320</ele>
        <time>2016-07-07T22:27:38Z</time>
      </trkpt>
      <trkpt lat="43.19621" lon="5.5564">
        <ele>320</ele>
        <time>2016-07-07T22:29:38Z</time>
      </trkpt>
      <trkpt lat="43.19626" lon="5.55646">
        <ele>321</ele>
        <time>2016-07-07T22:31:38Z</time>
      </trkpt>
      <trkpt lat="43.1963" lon="5.55651">
        <ele>321</ele>
        <time>2016-07-07T22:33:38Z</time>
      </trkpt>
      <trkpt lat="43.19634" lon="5.55656">
        <ele>322</ele>
        <time>2016-07-07T22:35:38Z</time>
      </trkpt>
      <trkpt lat="43.19638" lon="5.55659">
        <ele>322</ele>
        <time>2016-07-07T22:37:38Z</time>
      </trkpt>
      <trkpt lat="43.19643" lon="5.55663">
        <ele>323</ele>
        <time>2016-07-07T22:39:38Z</time>
      </trkpt>
      <trkpt lat="43.1965" lon="5.55667">
        <ele>324</ele>
        <time>2016-07-07T22:41:38Z</time>
      </trkpt>
      <trkpt lat="43.19656" lon="5.55668">
        <ele>325</ele>
        <time>2016-07-07T22:43:38Z</time>
      </trkpt>
      <trkpt lat="43.19661" lon="5.55669">
        <ele>326</ele>
        <time>2016-07-07T22:45:38Z</time>
      </trkpt>
      <trkpt lat="43.19667" lon="5.55667">
        <ele>327</ele>
        <time>2016-07-07T22:47:38Z</time>
      </trkpt>
      <trkpt lat="43.19672" lon="5.55664">
        <ele>326</ele>
        <time>2016-07-07T22:49:38Z</time>
      </trkpt>
      <trkpt lat="43.19678" lon="5.55659">
        <ele>325</ele>
        <time>2016-07-07T22:51:38Z</time>
      </trkpt>
      <trkpt lat="43.19682" lon="5.55653">
        <ele>324</ele>
        <time>2016-07-07T22:53:38Z</time>
      </trkpt>
      <trkpt lat="43.19685" lon="5.55647">
        <ele>323</ele>
        <time>2016-07-07T22:55:38Z</time>
      </trkpt>
      <trkpt lat="43.19686" lon="5.55641">
        <ele>323</ele>
        <time>2016-07-07T22:57:38Z</time>
      </trkpt>
      <trkpt lat="43.19688" lon="5.55634">
        <ele>322</ele>
        <time>2016-07-07T22:59:38Z</time>
      </trkpt>
      <trkpt lat="43.19689" lon="5.5562">
        <ele>321</ele>
        <time>2016-07-07T23:01:38Z</time>
      </trkpt>
      <trkpt lat="43.1969" lon="5.55607">
        <ele>321</ele>
        <time>2016-07-07T23:03:38Z</time>
      </trkpt>
      <trkpt lat="43.19692" lon="5.55596">
        <ele>320</ele>
        <time>2016-07-07T23:05:38Z</time>
      </trkpt>
      <trkpt lat="43.19693" lon="5.55584">
        <ele>319</ele>
        <time>2016-07-07T23:07:38Z</time>
      </trkpt>
      <trkpt lat="43.19694" lon="5.5557">
        <ele>319</ele>
        <time>2016-07-07T23:09:38Z</time>
      </trkpt>
      <trkpt lat="43.19696" lon="5.55558">
        <ele>319</ele>
        <time>2016-07-07T23:11:38Z</time>
      </trkpt>
      <trkpt lat="43.19697" lon="5.55545">
        <ele>320</ele>
        <time>2016-07-07T23:13:38Z</time>
      </trkpt>
      <trkpt lat="43.19701" lon="5.55525">
        <ele>320</ele>
        <time>2016-07-07T23:15:38Z</time>
      </trkpt>
      <trkpt lat="43.19705" lon="5.55507">
        <ele>319</ele>
        <time>2016-07-07T23:17:38Z</time>
      </trkpt>
      <trkpt lat="43.19711" lon="5.55475">
        <ele>316</ele>
        <time>2016-07-07T23:19:38Z</time>
      </trkpt>
      <trkpt lat="43.19714" lon="5.55451">
        <ele>314</ele>
        <time>2016-07-07T23:21:38Z</time>
      </trkpt>
      <trkpt lat="43.19714" lon="5.55448">
        <ele>313</ele>
        <time>2016-07-07T23:23:38Z</time>
      </trkpt>
      <trkpt lat="43.19713" lon="5.55432">
        <ele>313</ele>
        <time>2016-07-07T23:25:38Z</time>
      </trkpt>
      <trkpt lat="43.19712" lon="5.55421">
        <ele>313</ele>
        <time>2016-07-07T23:27:38Z</time>
      </trkpt>
      <trkpt lat="43.19709" lon="5.55408">
        <ele>313</ele>
        <time>2016-07-07T23:29:38Z</time>
      </trkpt>
      <trkpt lat="43.19705" lon="5.55393">
        <ele>313</ele>
        <time>2016-07-07T23:31:38Z</time>
      </trkpt>
      <trkpt lat="43.19701" lon="5.55381">
        <ele>313</ele>
        <time>2016-07-07T23:33:38Z</time>
      </trkpt>
      <trkpt lat="43.19694" lon="5.55358">
        <ele>312</ele>
        <time>2016-07-07T23:35:38Z</time>
      </trkpt>
      <trkpt lat="43.19694" lon="5.55355">
        <ele>312</ele>
        <time>2016-07-07T23:37:38Z</time>
      </trkpt>
      <trkpt lat="43.19691" lon="5.55335">
        <ele>311</ele>
        <time>2016-07-07T23:39:38Z</time>
      </trkpt>
      <trkpt lat="43.1969" lon="5.55322">
        <ele>310</ele>
        <time>2016-07-07T23:41:38Z</time>
      </trkpt>
      <trkpt lat="43.1969" lon="5.55317">
        <ele>310</ele>
        <time>2016-07-07T23:43:38Z</time>
      </trkpt>
      <trkpt lat="43.19691" lon="5.55313">
        <ele>310</ele>
        <time>2016-07-07T23:45:38Z</time>
      </trkpt>
      <trkpt lat="43.19692" lon="5.55308">
        <ele>310</ele>
        <time>2016-07-07T23:47:38Z</time>
      </trkpt>
      <trkpt lat="43.19693" lon="5.55304">
        <ele>310</ele>
        <time>2016-07-07T23:49:38Z</time>
      </trkpt>
      <trkpt lat="43.19695" lon="5.55299">
        <ele>310</ele>
        <time>2016-07-07T23:51:38Z</time>
      </trkpt>
      <trkpt lat="43.197" lon="5.55293">
        <ele>310</ele>
        <time>2016-07-07T23:53:38Z</time>
      </trkpt>
      <trkpt lat="43.19709" lon="5.55287">
        <ele>310</ele>
        <time>2016-07-07T23:55:38Z</time>
      </trkpt>
      <trkpt lat="43.19713" lon="5.55284">
        <ele>310</ele>
        <time>2016-07-07T23:57:38Z</time>
      </trkpt>
      <trkpt lat="43.19717" lon="5.55282">
        <ele>310</ele>
        <time>2016-07-07T23:59:38Z</time>
      </trkpt>
      <trkpt lat="43.19721" lon="5.55281">
        <ele>311</ele>
        <time>2016-07-08T00:01:38Z</time>
      </trkpt>
      <trkpt lat="43.19727" lon="5.5528">
        <ele>311</ele>
        <time>2016-07-08T00:03:38Z</time>
      </trkpt>
      <trkpt lat="43.19734" lon="5.55279">
        <ele>311</ele>
        <time>2016-07-08T00:05:38Z</time>
      </trkpt>
      <trkpt lat="43.19747" lon="5.55281">
        <ele>312</ele>
        <time>2016-07-08T00:07:38Z</time>
      </trkpt>
      <trkpt lat="43.19781" lon="5.55286">
        <ele>312</ele>
        <time>2016-07-08T00:09:38Z</time>
      </trkpt>
      <trkpt lat="43.19806" lon="5.5529">
        <ele>312</ele>
        <time>2016-07-08T00:11:38Z</time>
      </trkpt>
      <trkpt lat="43.19819" lon="5.55293">
        <ele>312</ele>
        <time>2016-07-08T00:13:38Z</time>
      </trkpt>
      <trkpt lat="43.19832" lon="5.55299">
        <ele>312</ele>
        <time>2016-07-08T00:15:38Z</time>
      </trkpt>
      <trkpt lat="43.19865" lon="5.55321">
        <ele>316</ele>
        <time>2016-07-08T00:17:38Z</time>
      </trkpt>
      <trkpt lat="43.1988" lon="5.55327">
        <ele>318</ele>
        <time>2016-07-08T00:19:38Z</time>
      </trkpt>
      <trkpt lat="43.19888" lon="5.55328">
        <ele>319</ele>
        <time>2016-07-08T00:21:38Z</time>
      </trkpt>
      <trkpt lat="43.19905" lon="5.5533">
        <ele>321</ele>
        <time>2016-07-08T00:23:38Z</time>
      </trkpt>
      <trkpt lat="43.19913" lon="5.55331">
        <ele>323</ele>
        <time>2016-07-08T00:25:38Z</time>
      </trkpt>
      <trkpt lat="43.19916" lon="5.55333">
        <ele>323</ele>
        <time>2016-07-08T00:27:38Z</time>
      </trkpt>
      <trkpt lat="43.19918" lon="5.55334">
        <ele>323</ele>
        <time>2016-07-08T00:29:38Z</time>
      </trkpt>
      <trkpt lat="43.19923" lon="5.55339">
        <ele>323</ele>
        <time>2016-07-08T00:31:38Z</time>
      </trkpt>
      <trkpt lat="43.19927" lon="5.55344">
        <ele>323</ele>
        <time>2016-07-08T00:33:38Z</time>
      </trkpt>
      <trkpt lat="43.19933" lon="5.5535">
        <ele>323</ele>
        <time>2016-07-08T00:35:38Z</time>
      </trkpt>
      <trkpt lat="43.19938" lon="5.5536">
        <ele>323</ele>
        <time>2016-07-08T00:37:38Z</time>
      </trkpt>
      <trkpt lat="43.19945" lon="5.55376">
        <ele>323</ele>
        <time>2016-07-08T00:39:38Z</time>
      </trkpt>
      <trkpt lat="43.19955" lon="5.55392">
        <ele>325</ele>
        <time>2016-07-08T00:41:38Z</time>
      </trkpt>
      <trkpt lat="43.19958" lon="5.55397">
        <ele>325</ele>
        <time>2016-07-08T00:43:38Z</time>
      </trkpt>
      <trkpt lat="43.19962" lon="5.554">
        <ele>326</ele>
        <time>2016-07-08T00:45:38Z</time>
      </trkpt>
      <trkpt lat="43.20004" lon="5.55434">
        <ele>330</ele>
        <time>2016-07-08T00:47:38Z</time>
      </trkpt>
      <trkpt lat="43.20009" lon="5.55437">
        <ele>330</ele>
        <time>2016-07-08T00:49:38Z</time>
      </trkpt>
      <trkpt lat="43.20049" lon="5.55466">
        <ele>332</ele>
        <time>2016-07-08T00:51:38Z</time>
      </trkpt>
      <trkpt lat="43.2005" lon="5.55467">
        <ele>332</ele>
        <time>2016-07-08T00:53:38Z</time>
      </trkpt>
      <trkpt lat="43.20067" lon="5.55479">
        <ele>335</ele>
        <time>2016-07-08T00:55:38Z</time>
      </trkpt>
      <trkpt lat="43.20073" lon="5.55485">
        <ele>336</ele>
        <time>2016-07-08T00:57:38Z</time>
      </trkpt>
      <trkpt lat="43.20079" lon="5.55493">
        <ele>338</ele>
        <time>2016-07-08T00:59:38Z</time>
      </trkpt>
      <trkpt lat="43.20082" lon="5.55497">
        <ele>339</ele>
        <time>2016-07-08T01:01:38Z</time>
      </trkpt>
      <trkpt lat="43.20085" lon="5.55506">
        <ele>339</ele>
        <time>2016-07-08T01:03:38Z</time>
      </trkpt>
      <trkpt lat="43.20089" lon="5.55519">
        <ele>338</ele>
        <time>2016-07-08T01:05:38Z</time>
      </trkpt>
      <trkpt lat="43.20095" lon="5.55539">
        <ele>337</ele>
        <time>2016-07-08T01:07:38Z</time>
      </trkpt>
      <trkpt lat="43.20098" lon="5.55549">
        <ele>337</ele>
        <time>2016-07-08T01:09:38Z</time>
      </trkpt>
      <trkpt lat="43.20102" lon="5.55558">
        <ele>336</ele>
        <time>2016-07-08T01:11:38Z</time>
      </trkpt>
      <trkpt lat="43.20106" lon="5.55565">
        <ele>336</ele>
        <time>2016-07-08T01:13:38Z</time>
      </trkpt>
      <trkpt lat="43.2011" lon="5.55572">
        <ele>336</ele>
        <time>2016-07-08T01:15:38Z</time>
      </trkpt>
      <trkpt lat="43.20116" lon="5.55582">
        <ele>335</ele>
        <time>2016-07-08T01:17:38Z</time>
      </trkpt>
      <trkpt lat="43.20121" lon="5.5559">
        <ele>335</ele>
        <time>2016-07-08T01:19:38Z</time>
      </trkpt>
      <trkpt lat="43.20124" lon="5.55593">
        <ele>335</ele>
        <time>2016-07-08T01:21:38Z</time>
      </trkpt>
      <trkpt lat="43.20125" lon="5.55596">
        <ele>335</ele>
        <time>2016-07-08T01:23:38Z</time>
      </trkpt>
      <trkpt lat="43.20127" lon="5.55601">
        <ele>335</ele>
        <time>2016-07-08T01:25:38Z</time>
      </trkpt>
      <trkpt lat="43.20129" lon="5.55604">
        <ele>335</ele>
        <time>2016-07-08T01:27:38Z</time>
      </trkpt>
      <trkpt lat="43.20131" lon="5.55609">
        <ele>335</ele>
        <time>2016-07-08T01:29:38Z</time>
      </trkpt>
      <trkpt lat="43.20134" lon="5.55616">
        <ele>335</ele>
        <time>2016-07-08T01:31:38Z</time>
      </trkpt>
      <trkpt lat="43.20136" lon="5.55625">
        <ele>335</ele>
        <time>2016-07-08T01:33:38Z</time>
      </trkpt>
      <trkpt lat="43.20139" lon="5.55636">
        <ele>335</ele>
        <time>2016-07-08T01:35:38Z</time>
      </trkpt>
      <trkpt lat="43.20142" lon="5.5565">
        <ele>335</ele>
        <time>2016-07-08T01:37:38Z</time>
      </trkpt>
      <trkpt lat="43.20145" lon="5.55661">
        <ele>335</ele>
        <time>2016-07-08T01:39:38Z</time>
      </trkpt>
      <trkpt lat="43.20147" lon="5.55669">
        <ele>336</ele>
        <time>2016-07-08T01:41:38Z</time>
      </trkpt>
      <trkpt lat="43.2015" lon="5.55676">
        <ele>336</ele>
        <time>2016-07-08T01:43:38Z</time>
      </trkpt>
      <trkpt lat="43.20152" lon="5.5568">
        <ele>336</ele>
        <time>2016-07-08T01:45:38Z</time>
      </trkpt>
      <trkpt lat="43.20158" lon="5.55695">
        <ele>337</ele>
        <time>2016-07-08T01:47:38Z</time>
      </trkpt>
      <trkpt lat="43.20166" lon="5.55715">
        <ele>339</ele>
        <time>2016-07-08T01:49:38Z</time>
      </trkpt>
      <trkpt lat="43.20175" lon="5.55737">
        <ele>338</ele>
        <time>2016-07-08T01:51:38Z</time>
      </trkpt>
      <trkpt lat="43.20178" lon="5.55746">
        <ele>338</ele>
        <time>2016-07-08T01:53:38Z</time>
      </trkpt>
      <trkpt lat="43.2018" lon="5.55752">
        <ele>338</ele>
        <time>2016-07-08T01:55:38Z</time>
      </trkpt>
      <trkpt lat="43.20183" lon="5.55758">
        <ele>338</ele>
        <time>2016-07-08T01:57:38Z</time>
      </trkpt>
      <trkpt lat="43.20186" lon="5.55766">
        <ele>337</ele>
        <time>2016-07-08T01:59:38Z</time>
      </trkpt>
      <trkpt lat="43.2019" lon="5.55772">
        <ele>337</ele>
        <time>2016-07-08T02:01:38Z</time>
      </trkpt>
      <trkpt lat="43.20194" lon="5.55778">
        <ele>336</ele>
        <time>2016-07-08T02:03:38Z</time>
      </trkpt>
      <trkpt lat="43.20199" lon="5.55783">
        <ele>336</ele>
        <time>2016-07-08T02:05:38Z</time>
      </trkpt>
      <trkpt lat="43.20205" lon="5.55788">
        <ele>336</ele>
        <time>2016-07-08T02:07:38Z</time>
      </trkpt>
      <trkpt lat="43.20209" lon="5.55792">
        <ele>335</ele>
        <time>2016-07-08T02:09:38Z</time>
      </trkpt>
      <trkpt lat="43.20215" lon="5.55798">
        <ele>335</ele>
        <time>2016-07-08T02:11:38Z</time>
      </trkpt>
      <trkpt lat="43.20221" lon="5.55802">
        <ele>335</ele>
        <time>2016-07-08T02:13:38Z</time>
      </trkpt>
      <trkpt lat="43.20227" lon="5.55806">
        <ele>336</ele>
        <time>2016-07-08T02:15:38Z</time>
      </trkpt>
      <trkpt lat="43.20253" lon="5.55827">
        <ele>337</ele>
        <time>2016-07-08T02:17:38Z</time>
      </trkpt>
      <trkpt lat="43.20259" lon="5.55835">
        <ele>338</ele>
        <time>2016-07-08T02:19:38Z</time>
      </trkpt>
      <trkpt lat="43.20267" lon="5.55847">
        <ele>337</ele>
        <time>2016-07-08T02:21:38Z</time>
      </trkpt>
      <trkpt lat="43.20274" lon="5.55858">
        <ele>337</ele>
        <time>2016-07-08T02:23:38Z</time>
      </trkpt>
      <trkpt lat="43.20276" lon="5.55862">
        <ele>337</ele>
        <time>2016-07-08T02:25:38Z</time>
      </trkpt>
      <trkpt lat="43.20277" lon="5.55866">
        <ele>337</ele>
        <time>2016-07-08T02:27:38Z</time>
      </trkpt>
      <trkpt lat="43.2028" lon="5.55872">
        <ele>336</ele>
        <time>2016-07-08T02:29:38Z</time>
      </trkpt>
      <trkpt lat="43.20283" lon="5.55891">
        <ele>336</ele>
        <time>2016-07-08T02:31:38Z</time>
      </trkpt>
      <trkpt lat="43.2029" lon="5.55929">
        <ele>334</ele>
        <time>2016-07-08T02:33:38Z</time>
      </trkpt>
      <trkpt lat="43.20296" lon="5.55954">
        <ele>332</ele>
        <time>2016-07-08T02:35:38Z</time>
      </trkpt>
      <trkpt lat="43.20303" lon="5.55976">
        <ele>330</ele>
        <time>2016-07-08T02:37:38Z</time>
      </trkpt>
      <trkpt lat="43.20312" lon="5.56003">
        <ele>329</ele>
        <time>2016-07-08T02:39:38Z</time>
      </trkpt>
      <trkpt lat="43.20318" lon="5.56021">
        <ele>328</ele>
        <time>2016-07-08T02:41:38Z</time>
      </trkpt>
      <trkpt lat="43.20321" lon="5.5603">
        <ele>327</ele>
        <time>2016-07-08T02:43:38Z</time>
      </trkpt>
      <trkpt lat="43.20328" lon="5.56051">
        <ele>326</ele>
        <time>2016-07-08T02:45:38Z</time>
      </trkpt>
      <trkpt lat="43.20334" lon="5.56074">
        <ele>325</ele>
        <time>2016-07-08T02:47:38Z</time>
      </trkpt>
      <trkpt lat="43.20336" lon="5.56086">
        <ele>324</ele>
        <time>2016-07-08T02:49:38Z</time>
      </trkpt>
      <trkpt lat="43.20341" lon="5.56127">
        <ele>322</ele>
        <time>2016-07-08T02:51:38Z</time>
      </trkpt>
      <trkpt lat="43.20342" lon="5.56165">
        <ele>319</ele>
        <time>2016-07-08T02:53:38Z</time>
      </trkpt>
      <trkpt lat="43.20341" lon="5.56185">
        <ele>317</ele>
        <time>2016-07-08T02:55:38Z</time>
      </trkpt>
      <trkpt lat="43.20341" lon="5.56199">
        <ele>316</ele>
        <time>2016-07-08T02:57:38Z</time>
      </trkpt>
      <trkpt lat="43.20342" lon="5.56212">
        <ele>315</ele>
        <time>2016-07-08T02:59:38Z</time>
      </trkpt>
      <trkpt lat="43.20344" lon="5.56233">
        <ele>314</ele>
        <time>2016-07-08T03:01:38Z</time>
      </trkpt>
      <trkpt lat="43.20349" lon="5.56256">
        <ele>313</ele>
        <time>2016-07-08T03:03:38Z</time>
      </trkpt>
      <trkpt lat="43.20357" lon="5.5629">
        <ele>310</ele>
        <time>2016-07-08T03:05:38Z</time>
      </trkpt>
      <trkpt lat="43.20366" lon="5.56323">
        <ele>307</ele>
        <time>2016-07-08T03:07:38Z</time>
      </trkpt>
      <trkpt lat="43.20371" lon="5.56344">
        <ele>305</ele>
        <time>2016-07-08T03:09:38Z</time>
      </trkpt>
      <trkpt lat="43.20372" lon="5.56347">
        <ele>305</ele>
        <time>2016-07-08T03:11:38Z</time>
      </trkpt>
      <trkpt lat="43.20376" lon="5.56361">
        <ele>303</ele>
        <time>2016-07-08T03:13:38Z</time>
      </trkpt>
      <trkpt lat="43.2038" lon="5.56374">
        <ele>302</ele>
        <time>2016-07-08T03:15:38Z</time>
      </trkpt>
      <trkpt lat="43.20381" lon="5.56383">
        <ele>301</ele>
        <time>2016-07-08T03:17:38Z</time>
      </trkpt>
      <trkpt lat="43.20382" lon="5.56392">
        <ele>300</ele>
        <time>2016-07-08T03:19:38Z</time>
      </trkpt>
      <trkpt lat="43.20382" lon="5.56399">
        <ele>299</ele>
        <time>2016-07-08T03:21:38Z</time>
      </trkpt>
      <trkpt lat="43.20382" lon="5.56408">
        <ele>298</ele>
        <time>2016-07-08T03:23:38Z</time>
      </trkpt>
      <trkpt lat="43.20381" lon="5.56416">
        <ele>297</ele>
        <time>2016-07-08T03:25:38Z</time>
      </trkpt>
      <trkpt lat="43.20379" lon="5.56427">
        <ele>296</ele>
        <time>2016-07-08T03:27:38Z</time>
      </trkpt>
      <trkpt lat="43.20374" lon="5.56445">
        <ele>293</ele>
        <time>2016-07-08T03:29:38Z</time>
      </trkpt>
      <trkpt lat="43.2037" lon="5.56456">
        <ele>292</ele>
        <time>2016-07-08T03:31:38Z</time>
      </trkpt>
      <trkpt lat="43.20367" lon="5.56472">
        <ele>290</ele>
        <time>2016-07-08T03:33:38Z</time>
      </trkpt>
      <trkpt lat="43.20359" lon="5.56501">
        <ele>287</ele>
        <time>2016-07-08T03:35:38Z</time>
      </trkpt>
      <trkpt lat="43.20353" lon="5.56522">
        <ele>285</ele>
        <time>2016-07-08T03:37:38Z</time>
      </trkpt>
      <trkpt lat="43.20351" lon="5.56528">
        <ele>285</ele>
        <time>2016-07-08T03:39:38Z</time>
      </trkpt>
      <trkpt lat="43.2035" lon="5.56532">
        <ele>285</ele>
        <time>2016-07-08T03:41:38Z</time>
      </trkpt>
      <trkpt lat="43.20349" lon="5.56536">
        <ele>285</ele>
        <time>2016-07-08T03:43:38Z</time>
      </trkpt>
      <trkpt lat="43.20348" lon="5.56543">
        <ele>284</ele>
        <time>2016-07-08T03:45:38Z</time>
      </trkpt>
      <trkpt lat="43.20348" lon="5.56547">
        <ele>284</ele>
        <time>2016-07-08T03:47:38Z</time>
      </trkpt>
      <trkpt lat="43.20347" lon="5.5655">
        <ele>284</ele>
        <time>2016-07-08T03:49:38Z</time>
      </trkpt>
      <trkpt lat="43.20348" lon="5.56553">
        <ele>284</ele>
        <time>2016-07-08T03:51:38Z</time>
      </trkpt>
      <trkpt lat="43.20348" lon="5.56556">
        <ele>284</ele>
        <time>2016-07-08T03:53:38Z</time>
      </trkpt>
      <trkpt lat="43.20348" lon="5.56558">
        <ele>284</ele>
        <time>2016-07-08T03:55:38Z</time>
      </trkpt>
      <trkpt lat="43.20349" lon="5.56561">
        <ele>283</ele>
        <time>2016-07-08T03:57:38Z</time>
      </trkpt>
      <trkpt lat="43.2035" lon="5.56563">
        <ele>283</ele>
        <time>2016-07-08T03:59:38Z</time>
      </trkpt>
      <trkpt lat="43.2035" lon="5.56565">
        <ele>283</ele>
        <time>2016-07-08T04:01:38Z</time>
      </trkpt>
      <trkpt lat="43.20354" lon="5.5657">
        <ele>283</ele>
        <time>2016-07-08T04:03:38Z</time>
      </trkpt>
      <trkpt lat="43.20356" lon="5.56572">
        <ele>282</ele>
        <time>2016-07-08T04:05:38Z</time>
      </trkpt>
      <trkpt lat="43.20363" lon="5.56574">
        <ele>281</ele>
        <time>2016-07-08T04:07:38Z</time>
      </trkpt>
      <trkpt lat="43.2037" lon="5.56573">
        <ele>281</ele>
        <time>2016-07-08T04:09:38Z</time>
      </trkpt>
      <trkpt lat="43.20377" lon="5.56568">
        <ele>281</ele>
        <time>2016-07-08T04:11:38Z</time>
      </trkpt>
      <trkpt lat="43.20382" lon="5.56564">
        <ele>281</ele>
        <time>2016-07-08T04:13:38Z</time>
      </trkpt>
      <trkpt lat="43.20387" lon="5.56558">
        <ele>281</ele>
        <time>2016-07-08T04:15:38Z</time>
      </trkpt>
      <trkpt lat="43.20391" lon="5.56553">
        <ele>282</ele>
        <time>2016-07-08T04:17:38Z</time>
      </trkpt>
      <trkpt lat="43.20398" lon="5.56546">
        <ele>282</ele>
        <time>2016-07-08T04:19:38Z</time>
      </trkpt>
      <trkpt lat="43.20412" lon="5.56533">
        <ele>284</ele>
        <time>2016-07-08T04:21:38Z</time>
      </trkpt>
      <trkpt lat="43.20421" lon="5.56522">
        <ele>285</ele>
        <time>2016-07-08T04:23:38Z</time>
      </trkpt>
      <trkpt lat="43.2043" lon="5.56512">
        <ele>285</ele>
        <time>2016-07-08T04:25:38Z</time>
      </trkpt>
      <trkpt lat="43.20456" lon="5.56483">
        <ele>286</ele>
        <time>2016-07-08T04:27:38Z</time>
      </trkpt>
      <trkpt lat="43.20464" lon="5.56477">
        <ele>285</ele>
        <time>2016-07-08T04:29:38Z</time>
      </trkpt>
      <trkpt lat="43.20467" lon="5.56476">
        <ele>285</ele>
        <time>2016-07-08T04:31:38Z</time>
      </trkpt>
      <trkpt lat="43.2047" lon="5.56475">
        <ele>285</ele>
        <time>2016-07-08T04:33:38Z</time>
      </trkpt>
      <trkpt lat="43.20472" lon="5.56475">
        <ele>285</ele>
        <time>2016-07-08T04:35:38Z</time>
      </trkpt>
      <trkpt lat="43.20475" lon="5.56475">
        <ele>284</ele>
        <time>2016-07-08T04:37:38Z</time>
      </trkpt>
      <trkpt lat="43.20481" lon="5.56479">
        <ele>283</ele>
        <time>2016-07-08T04:39:38Z</time>
      </trkpt>
      <trkpt lat="43.20487" lon="5.56488">
        <ele>281</ele>
        <time>2016-07-08T04:41:38Z</time>
      </trkpt>
      <trkpt lat="43.20493" lon="5.56505">
        <ele>277</ele>
        <time>2016-07-08T04:43:38Z</time>
      </trkpt>
      <trkpt lat="43.20498" lon="5.56523">
        <ele>275</ele>
        <time>2016-07-08T04:45:38Z</time>
      </trkpt>
      <trkpt lat="43.20501" lon="5.56541">
        <ele>272</ele>
        <time>2016-07-08T04:47:38Z</time>
      </trkpt>
      <trkpt lat="43.20508" lon="5.56579">
        <ele>267</ele>
        <time>2016-07-08T04:49:38Z</time>
      </trkpt>
      <trkpt lat="43.20513" lon="5.56612">
        <ele>263</ele>
        <time>2016-07-08T04:51:38Z</time>
      </trkpt>
      <trkpt lat="43.20515" lon="5.56618">
        <ele>262</ele>
        <time>2016-07-08T04:53:38Z</time>
      </trkpt>
      <trkpt lat="43.20516" lon="5.56621">
        <ele>262</ele>
        <time>2016-07-08T04:55:38Z</time>
      </trkpt>
      <trkpt lat="43.20518" lon="5.56623">
        <ele>261</ele>
        <time>2016-07-08T04:57:38Z</time>
      </trkpt>
      <trkpt lat="43.2052" lon="5.56625">
        <ele>261</ele>
        <time>2016-07-08T04:59:38Z</time>
      </trkpt>
      <trkpt lat="43.20522" lon="5.56627">
        <ele>260</ele>
        <time>2016-07-08T05:01:38Z</time>
      </trkpt>
      <trkpt lat="43.20525" lon="5.56627">
        <ele>260</ele>
        <time>2016-07-08T05:03:38Z</time>
      </trkpt>
      <trkpt lat="43.20526" lon="5.56627">
        <ele>260</ele>
        <time>2016-07-08T05:05:38Z</time>
      </trkpt>
      <trkpt lat="43.20528" lon="5.56626">
        <ele>260</ele>
        <time>2016-07-08T05:07:38Z</time>
      </trkpt>
      <trkpt lat="43.20529" lon="5.56625">
        <ele>259</ele>
        <time>2016-07-08T05:09:38Z</time>
      </trkpt>
      <trkpt lat="43.2053" lon="5.56624">
        <ele>259</ele>
        <time>2016-07-08T05:11:38Z</time>
      </trkpt>
      <trkpt lat="43.20531" lon="5.56623">
        <ele>259</ele>
        <time>2016-07-08T05:13:38Z</time>
      </trkpt>
      <trkpt lat="43.20533" lon="5.56621">
        <ele>259</ele>
        <time>2016-07-08T05:15:38Z</time>
      </trkpt>
      <trkpt lat="43.20534" lon="5.56617">
        <ele>259</ele>
        <time>2016-07-08T05:17:38Z</time>
      </trkpt>
      <trkpt lat="43.20534" lon="5.56611">
        <ele>259</ele>
        <time>2016-07-08T05:19:38Z</time>
      </trkpt>
      <trkpt lat="43.20535" lon="5.56603">
        <ele>259</ele>
        <time>2016-07-08T05:21:38Z</time>
      </trkpt>
      <trkpt lat="43.20536" lon="5.56592">
        <ele>259</ele>
        <time>2016-07-08T05:23:38Z</time>
      </trkpt>
      <trkpt lat="43.20538" lon="5.56577">
        <ele>259</ele>
        <time>2016-07-08T05:25:38Z</time>
      </trkpt>
      <trkpt lat="43.2054" lon="5.56558">
        <ele>260</ele>
        <time>2016-07-08T05:27:38Z</time>
      </trkpt>
      <trkpt lat="43.20546" lon="5.56532">
        <ele>259</ele>
        <time>2016-07-08T05:29:38Z</time>
      </trkpt>
      <trkpt lat="43.20552" lon="5.56509">
        <ele>259</ele>
        <time>2016-07-08T05:31:38Z</time>
      </trkpt>
      <trkpt lat="43.20563" lon="5.56479">
        <ele>258</ele>
        <time>2016-07-08T05:33:38Z</time>
      </trkpt>
      <trkpt lat="43.2057" lon="5.5646">
        <ele>259</ele>
        <time>2016-07-08T05:35:38Z</time>
      </trkpt>
      <trkpt lat="43.20587" lon="5.56424">
        <ele>259</ele>
        <time>2016-07-08T05:37:38Z</time>
      </trkpt>
      <trkpt lat="43.20604" lon="5.56392">
        <ele>255</ele>
        <time>2016-07-08T05:39:38Z</time>
      </trkpt>
      <trkpt lat="43.20618" lon="5.56372">
        <ele>252</ele>
        <time>2016-07-08T05:41:38Z</time>
      </trkpt>
      <trkpt lat="43.20633" lon="5.56348">
        <ele>248</ele>
        <time>2016-07-08T05:43:38Z</time>
      </trkpt>
      <trkpt lat="43.20643" lon="5.56328">
        <ele>246</ele>
        <time>2016-07-08T05:45:38Z</time>
      </trkpt>
      <trkpt lat="43.20653" lon="5.56309">
        <ele>242</ele>
        <time>2016-07-08T05:47:38Z</time>
      </trkpt>
      <trkpt lat="43.20663" lon="5.56285">
        <ele>239</ele>
        <time>2016-07-08T05:49:38Z</time>
      </trkpt>
      <trkpt lat="43.20666" lon="5.56274">
        <ele>238</ele>
        <time>2016-07-08T05:51:38Z</time>
      </trkpt>
      <trkpt lat="43.20668" lon="5.56261">
        <ele>238</ele>
        <time>2016-07-08T05:53:38Z</time>
      </trkpt>
      <trkpt lat="43.20672" lon="5.56221">
        <ele>237</ele>
        <time>2016-07-08T05:55:38Z</time>
      </trkpt>
      <trkpt lat="43.20673" lon="5.56199">
        <ele>236</ele>
        <time>2016-07-08T05:57:38Z</time>
      </trkpt>
      <trkpt lat="43.20674" lon="5.56176">
        <ele>235</ele>
        <time>2016-07-08T05:59:38Z</time>
      </trkpt>
      <trkpt lat="43.20675" lon="5.56165">
        <ele>235</ele>
        <time>2016-07-08T06:01:38Z</time>
      </trkpt>
      <trkpt lat="43.20679" lon="5.56141">
        <ele>235</ele>
        <time>2016-07-08T06:03:38Z</time>
      </trkpt>
      <trkpt lat="43.20685" lon="5.56117">
        <ele>234</ele>
        <time>2016-07-08T06:05:38Z</time>
      </trkpt>
      <trkpt lat="43.20688" lon="5.56107">
        <ele>234</ele>
        <time>2016-07-08T06:07:38Z</time>
      </trkpt>
      <trkpt lat="43.20694" lon="5.56083">
        <ele>233</ele>
        <time>2016-07-08T06:09:38Z</time>
      </trkpt>
      <trkpt lat="43.20695" lon="5.56078">
        <ele>233</ele>
        <time>2016-07-08T06:11:38Z</time>
      </trkpt>
      <trkpt lat="43.20696" lon="5.56075">
        <ele>232</ele>
        <time>2016-07-08T06:13:38Z</time>
      </trkpt>
      <trkpt lat="43.20698" lon="5.56073">
        <ele>232</ele>
        <time>2016-07-08T06:15:38Z</time>
      </trkpt>
      <trkpt lat="43.20699" lon="5.56071">
        <ele>231</ele>
        <time>2016-07-08T06:17:38Z</time>
      </trkpt>
      <trkpt lat="43.20701" lon="5.56071">
        <ele>231</ele>
        <time>2016-07-08T06:19:38Z</time>
      </trkpt>
      <trkpt lat="43.20709" lon="5.56072">
        <ele>229</ele>
        <time>2016-07-08T06:21:38Z</time>
      </trkpt>
      <trkpt lat="43.20711" lon="5.56078">
        <ele>229</ele>
        <time>2016-07-08T06:23:38Z</time>
      </trkpt>
      <trkpt lat="43.20712" lon="5.56081">
        <ele>229</ele>
        <time>2016-07-08T06:25:38Z</time>
      </trkpt>
      <trkpt lat="43.20712" lon="5.56084">
        <ele>229</ele>
        <time>2016-07-08T06:27:38Z</time>
      </trkpt>
      <trkpt lat="43.20712" lon="5.56089">
        <ele>229</ele>
        <time>2016-07-08T06:29:38Z</time>
      </trkpt>
      <trkpt lat="43.2071" lon="5.56098">
        <ele>229</ele>
        <time>2016-07-08T06:31:38Z</time>
      </trkpt>
      <trkpt lat="43.20709" lon="5.56108">
        <ele>229</ele>
        <time>2016-07-08T06:33:38Z</time>
      </trkpt>
      <trkpt lat="43.20705" lon="5.56124">
        <ele>229</ele>
        <time>2016-07-08T06:35:38Z</time>
      </trkpt>
      <trkpt lat="43.20702" lon="5.56137">
        <ele>230</ele>
        <time>2016-07-08T06:37:38Z</time>
      </trkpt>
      <trkpt lat="43.20699" lon="5.5615">
        <ele>230</ele>
        <time>2016-07-08T06:39:38Z</time>
      </trkpt>
      <trkpt lat="43.20698" lon="5.56156">
        <ele>230</ele>
        <time>2016-07-08T06:41:38Z</time>
      </trkpt>
      <trkpt lat="43.20697" lon="5.5616">
        <ele>230</ele>
        <time>2016-07-08T06:43:38Z</time>
      </trkpt>
      <trkpt lat="43.20697" lon="5.56167">
        <ele>230</ele>
        <time>2016-07-08T06:45:38Z</time>
      </trkpt>
      <trkpt lat="43.20697" lon="5.5617">
        <ele>230</ele>
        <time>2016-07-08T06:47:38Z</time>
      </trkpt>
      <trkpt lat="43.20697" lon="5.56174">
        <ele>230</ele>
        <time>2016-07-08T06:49:38Z</time>
      </trkpt>
      <trkpt lat="43.20698" lon="5.56177">
        <ele>229</ele>
        <time>2016-07-08T06:51:38Z</time>
      </trkpt>
      <trkpt lat="43.207" lon="5.56179">
        <ele>229</ele>
        <time>2016-07-08T06:53:38Z</time>
      </trkpt>
      <trkpt lat="43.207" lon="5.5618">
        <ele>229</ele>
        <time>2016-07-08T06:55:38Z</time>
      </trkpt>
      <trkpt lat="43.20702" lon="5.56181">
        <ele>228</ele>
        <time>2016-07-08T06:57:38Z</time>
      </trkpt>
      <trkpt lat="43.20703" lon="5.56182">
        <ele>228</ele>
        <time>2016-07-08T06:59:38Z</time>
      </trkpt>
      <trkpt lat="43.20705" lon="5.56182">
        <ele>228</ele>
        <time>2016-07-08T07:01:38Z</time>
      </trkpt>
      <trkpt lat="43.20707" lon="5.56181">
        <ele>227</ele>
        <time>2016-07-08T07:03:38Z</time>
      </trkpt>
      <trkpt lat="43.20708" lon="5.56179">
        <ele>227</ele>
        <time>2016-07-08T07:05:38Z</time>
      </trkpt>
      <trkpt lat="43.2071" lon="5.56177">
        <ele>226</ele>
        <time>2016-07-08T07:07:38Z</time>
      </trkpt>
      <trkpt lat="43.20712" lon="5.56172">
        <ele>226</ele>
        <time>2016-07-08T07:09:38Z</time>
      </trkpt>
      <trkpt lat="43.20715" lon="5.56164">
        <ele>225</ele>
        <time>2016-07-08T07:11:38Z</time>
      </trkpt>
      <trkpt lat="43.20719" lon="5.56152">
        <ele>225</ele>
        <time>2016-07-08T07:13:38Z</time>
      </trkpt>
      <trkpt lat="43.20723" lon="5.56142">
        <ele>224</ele>
        <time>2016-07-08T07:15:38Z</time>
      </trkpt>
      <trkpt lat="43.20729" lon="5.56131">
        <ele>223</ele>
        <time>2016-07-08T07:17:38Z</time>
      </trkpt>
      <trkpt lat="43.20732" lon="5.56125">
        <ele>223</ele>
        <time>2016-07-08T07:19:38Z</time>
      </trkpt>
      <trkpt lat="43.20737" lon="5.56116">
        <ele>222</ele>
        <time>2016-07-08T07:21:38Z</time>
      </trkpt>
      <trkpt lat="43.20741" lon="5.56106">
        <ele>221</ele>
        <time>2016-07-08T07:23:38Z</time>
      </trkpt>
      <trkpt lat="43.20742" lon="5.56098">
        <ele>221</ele>
        <time>2016-07-08T07:25:38Z</time>
      </trkpt>
      <trkpt lat="43.20743" lon="5.56094">
        <ele>221</ele>
        <time>2016-07-08T07:27:38Z</time>
      </trkpt>
      <trkpt lat="43.20744" lon="5.56086">
        <ele>221</ele>
        <time>2016-07-08T07:29:38Z</time>
      </trkpt>
      <trkpt lat="43.20744" lon="5.56075">
        <ele>220</ele>
        <time>2016-07-08T07:31:38Z</time>
      </trkpt>
      <trkpt lat="43.20747" lon="5.5604">
        <ele>213</ele>
        <time>2016-07-08T07:33:38Z</time>
      </trkpt>
      <trkpt lat="43.20749" lon="5.56023">
        <ele>209</ele>
        <time>2016-07-08T07:35:38Z</time>
      </trkpt>
      <trkpt lat="43.2075" lon="5.56017">
        <ele>207</ele>
        <time>2016-07-08T07:37:38Z</time>
      </trkpt>
      <trkpt lat="43.20753" lon="5.56009">
        <ele>207</ele>
        <time>2016-07-08T07:39:38Z</time>
      </trkpt>
      <trkpt lat="43.20757" lon="5.56001">
        <ele>207</ele>
        <time>2016-07-08T07:41:38Z</time>
      </trkpt>
      <trkpt lat="43.2076" lon="5.55996">
        <ele>207</ele>
        <time>2016-07-08T07:43:38Z</time>
      </trkpt>
      <trkpt lat="43.20765" lon="5.5599">
        <ele>207</ele>
        <time>2016-07-08T07:45:38Z</time>
      </trkpt>
      <trkpt lat="43.20768" lon="5.55982">
        <ele>206</ele>
        <time>2016-07-08T07:47:38Z</time>
      </trkpt>
      <trkpt lat="43.20771" lon="5.55974">
        <ele>205</ele>
        <time>2016-07-08T07:49:38Z</time>
      </trkpt>
      <trkpt lat="43.20773" lon="5.55958">
        <ele>201</ele>
        <time>2016-07-08T07:51:38Z</time>
      </trkpt>
      <trkpt lat="43.20777" lon="5.55926">
        <ele>192</ele>
        <time>2016-07-08T07:53:38Z</time>
      </trkpt>
      <trkpt lat="43.2078" lon="5.55906">
        <ele>187</ele>
        <time>2016-07-08T07:55:38Z</time>
      </trkpt>
      <trkpt lat="43.20784" lon="5.55891">
        <ele>183</ele>
        <time>2016-07-08T07:57:38Z</time>
      </trkpt>
      <trkpt lat="43.20794" lon="5.5586">
        <ele>176</ele>
        <time>2016-07-08T07:59:38Z</time>
      </trkpt>
      <trkpt lat="43.20803" lon="5.55838">
        <ele>171</ele>
        <time>2016-07-08T08:01:38Z</time>
      </trkpt>
      <trkpt lat="43.20805" lon="5.55833">
        <ele>170</ele>
        <time>2016-07-08T08:03:38Z</time>
      </trkpt>
      <trkpt lat="43.20811" lon="5.5582">
        <ele>167</ele>
        <time>2016-07-08T08:05:38Z</time>
      </trkpt>
      <trkpt lat="43.20815" lon="5.55812">
        <ele>166</ele>
        <time>2016-07-08T08:07:38Z</time>
      </trkpt>
      <trkpt lat="43.20818" lon="5.55808">
        <ele>165</ele>
        <time>2016-07-08T08:09:38Z</time>
      </trkpt>
      <trkpt lat="43.20824" lon="5.55798">
        <ele>163</ele>
        <time>2016-07-08T08:11:38Z</time>
      </trkpt>
      <trkpt lat="43.20832" lon="5.55786">
        <ele>161</ele>
        <time>2016-07-08T08:13:38Z</time>
      </trkpt>
      <trkpt lat="43.20852" lon="5.5576">
        <ele>156</ele>
        <time>2016-07-08T08:15:38Z</time>
      </trkpt>
      <trkpt lat="43.20858" lon="5.55749">
        <ele>154</ele>
        <time>2016-07-08T08:17:38Z</time>
      </trkpt>
      <trkpt lat="43.20863" lon="5.55739">
        <ele>152</ele>
        <time>2016-07-08T08:19:38Z</time>
      </trkpt>
      <trkpt lat="43.20866" lon="5.55732">
        <ele>151</ele>
        <time>2016-07-08T08:21:38Z</time>
      </trkpt>
      <trkpt lat="43.20867" lon="5.55728">
        <ele>150</ele>
        <time>2016-07-08T08:23:38Z</time>
      </trkpt>
      <trkpt lat="43.20869" lon="5.55721">
        <ele>148</ele>
        <time>2016-07-08T08:25:38Z</time>
      </trkpt>
      <trkpt lat="43.20873" lon="5.55701">
        <ele>143</ele>
        <time>2016-07-08T08:27:38Z</time>
      </trkpt>
      <trkpt lat="43.20874" lon="5.55692">
        <ele>141</ele>
        <time>2016-07-08T08:29:38Z</time>
      </trkpt>
      <trkpt lat="43.20876" lon="5.55689">
        <ele>140</ele>
        <time>2016-07-08T08:31:38Z</time>
      </trkpt>
      <trkpt lat="43.20876" lon="5.55688">
        <ele>140</ele>
        <time>2016-07-08T08:33:38Z</time>
      </trkpt>
      <trkpt lat="43.20877" lon="5.55685">
        <ele>139</ele>
        <time>2016-07-08T08:35:38Z</time>
      </trkpt>
      <trkpt lat="43.20881" lon="5.5568">
        <ele>138</ele>
        <time>2016-07-08T08:37:38Z</time>
      </trkpt>
      <trkpt lat="43.20884" lon="5.55677">
        <ele>137</ele>
        <time>2016-07-08T08:39:38Z</time>
      </trkpt>
      <trkpt lat="43.20887" lon="5.55675">
        <ele>137</ele>
        <time>2016-07-08T08:41:38Z</time>
      </trkpt>
      <trkpt lat="43.20901" lon="5.55668">
        <ele>135</ele>
        <time>2016-07-08T08:43:38Z</time>
      </trkpt>
      <trkpt lat="43.20916" lon="5.55664">
        <ele>135</ele>
        <time>2016-07-08T08:45:38Z</time>
      </trkpt>
      <trkpt lat="43.2093" lon="5.55661">
        <ele>135</ele>
        <time>2016-07-08T08:47:38Z</time>
      </trkpt>
      <trkpt lat="43.20937" lon="5.55661">
        <ele>135</ele>
        <time>2016-07-08T08:49:38Z</time>
      </trkpt>
      <trkpt lat="43.20945" lon="5.5566">
        <ele>135</ele>
        <time>2016-07-08T08:51:38Z</time>
      </trkpt>
      <trkpt lat="43.20952" lon="5.55661">
        <ele>136</ele>
        <time>2016-07-08T08:53:38Z</time>
      </trkpt>
      <trkpt lat="43.20959" lon="5.55662">
        <ele>136</ele>
        <time>2016-07-08T08:55:38Z</time>
      </trkpt>
      <trkpt lat="43.20975" lon="5.55665">
        <ele>138</ele>
        <time>2016-07-08T08:57:38Z</time>
      </trkpt>
      <trkpt lat="43.2098" lon="5.55667">
        <ele>138</ele>
        <time>2016-07-08T08:59:38Z</time>
      </trkpt>
      <trkpt lat="43.20985" lon="5.55667">
        <ele>139</ele>
        <time>2016-07-08T09:01:38Z</time>
      </trkpt>
      <trkpt lat="43.20991" lon="5.55667">
        <ele>139</ele>
        <time>2016-07-08T09:03:38Z</time>
      </trkpt>
      <trkpt lat="43.20997" lon="5.55666">
        <ele>139</ele>
        <time>2016-07-08T09:05:38Z</time>
      </trkpt>
      <trkpt lat="43.21004" lon="5.55665">
        <ele>139</ele>
        <time>2016-07-08T09:07:38Z</time>
      </trkpt>
      <trkpt lat="43.21008" lon="5.55663">
        <ele>138</ele>
        <time>2016-07-08T09:09:38Z</time>
      </trkpt>
      <trkpt lat="43.21016" lon="5.55658">
        <ele>138</ele>
        <time>2016-07-08T09:11:38Z</time>
      </trkpt>
      <trkpt lat="43.21024" lon="5.55652">
        <ele>136</ele>
        <time>2016-07-08T09:13:38Z</time>
      </trkpt>
      <trkpt lat="43.21026" lon="5.5565">
        <ele>136</ele>
        <time>2016-07-08T09:15:38Z</time>
      </trkpt>
      <trkpt lat="43.21029" lon="5.55647">
        <ele>136</ele>
        <time>2016-07-08T09:17:38Z</time>
      </trkpt>
      <trkpt lat="43.21033" lon="5.55642">
        <ele>135</ele>
        <time>2016-07-08T09:19:38Z</time>
      </trkpt>
      <trkpt lat="43.2106" lon="5.556">
        <ele>128</ele>
        <time>2016-07-08T09:21:38Z</time>
      </trkpt>
      <trkpt lat="43.21064" lon="5.55601">
        <ele>128</ele>
        <time>2016-07-08T09:23:38Z</time>
      </trkpt>
      <trkpt lat="43.21069" lon="5.55599">
        <ele>128</ele>
        <time>2016-07-08T09:25:38Z</time>
      </trkpt>
      <trkpt lat="43.21073" lon="5.55598">
        <ele>129</ele>
        <time>2016-07-08T09:27:38Z</time>
      </trkpt>
      <trkpt lat="43.21081" lon="5.55594">
        <ele>129</ele>
        <time>2016-07-08T09:29:38Z</time>
      </trkpt>
      <trkpt lat="43.21088" lon="5.55592">
        <ele>128</ele>
        <time>2016-07-08T09:31:38Z</time>
      </trkpt>
      <trkpt lat="43.21118" lon="5.55585">
        <ele>124</ele>
        <time>2016-07-08T09:33:38Z</time>
      </trkpt>
      <trkpt lat="43.21156" lon="5.55579">
        <ele>120</ele>
        <time>2016-07-08T09:35:38Z</time>
      </trkpt>
      <trkpt lat="43.212" lon="5.55571">
        <ele>117</ele>
        <time>2016-07-08T09:37:38Z</time>
      </trkpt>
      <trkpt lat="43.21215" lon="5.55566">
        <ele>115</ele>
        <time>2016-07-08T09:39:38Z</time>
      </trkpt>
      <trkpt lat="43.21253" lon="5.55552">
        <ele>111</ele>
        <time>2016-07-08T09:41:38Z</time>
      </trkpt>
      <trkpt lat="43.21273" lon="5.55545">
        <ele>108</ele>
        <time>2016-07-08T09:43:38Z</time>
      </trkpt>
      <trkpt lat="43.21305" lon="5.55531">
        <ele>103</ele>
        <time>2016-07-08T09:45:38Z</time>
      </trkpt>
      <trkpt lat="43.21318" lon="5.55524">
        <ele>101</ele>
        <time>2016-07-08T09:47:38Z</time>
      </trkpt>
      <trkpt lat="43.21328" lon="5.55516">
        <ele>99</ele>
        <time>2016-07-08T09:49:38Z</time>
      </trkpt>
      <trkpt lat="43.2134" lon="5.55503">
        <ele>97</ele>
        <time>2016-07-08T09:51:38Z</time>
      </trkpt>
      <trkpt lat="43.21381" lon="5.5545">
        <ele>88</ele>
        <time>2016-07-08T09:53:38Z</time>
      </trkpt>
      <trkpt lat="43.21385" lon="5.55444">
        <ele>88</ele>
        <time>2016-07-08T09:55:38Z</time>
      </trkpt>
      <trkpt lat="43.21388" lon="5.55441">
        <ele>87</ele>
        <time>2016-07-08T09:57:38Z</time>
      </trkpt>
      <trkpt lat="43.21393" lon="5.55435">
        <ele>86</ele>
        <time>2016-07-08T09:59:38Z</time>
      </trkpt>
      <trkpt lat="43.21426" lon="5.5539">
        <ele>79</ele>
        <time>2016-07-08T10:01:38Z</time>
      </trkpt>
      <trkpt lat="43.21448" lon="5.5536">
        <ele>75</ele>
        <time>2016-07-08T10:03:38Z</time>
      </trkpt>
      <trkpt lat="43.21461" lon="5.5534">
        <ele>72</ele>
        <time>2016-07-08T10:05:38Z</time>
      </trkpt>
      <trkpt lat="43.21522" lon="5.55247">
        <ele>62</ele>
        <time>2016-07-08T10:07:38Z</time>
      </trkpt>
      <trkpt lat="43.21531" lon="5.55241">
        <ele>62</ele>
        <time>2016-07-08T10:09:38Z</time>
      </trkpt>
      <trkpt lat="43.21538" lon="5.55236">
        <ele>61</ele>
        <time>2016-07-08T10:11:38Z</time>
      </trkpt>
      <trkpt lat="43.2154" lon="5.55235">
        <ele>61</ele>
        <time>2016-07-08T10:13:38Z</time>
      </trkpt>
      <trkpt lat="43.21541" lon="5.55235">
        <ele>60</ele>
        <time>2016-07-08T10:15:38Z</time>
      </trkpt>
      <trkpt lat="43.21542" lon="5.55234">
        <ele>60</ele>
        <time>2016-07-08T10:17:38Z</time>
      </trkpt>
      <trkpt lat="43.21545" lon="5.55233">
        <ele>60</ele>
        <time>2016-07-08T10:19:38Z</time>
      </trkpt>
      <trkpt lat="43.21545" lon="5.55233">
        <ele>60</ele>
        <time>2016-07-08T10:21:38Z</time>
      </trkpt>
      <trkpt lat="43.21552" lon="5.55232">
        <ele>59</ele>
        <time>2016-07-08T10:23:38Z</time>
      </trkpt>
      <trkpt lat="43.21553" lon="5.55206">
        <ele>57</ele>
        <time>2016-07-08T10:25:38Z</time>
      </trkpt>
      <trkpt lat="43.21553" lon="5.55185">
        <ele>56</ele>
        <time>2016-07-08T10:27:38Z</time>
      </trkpt>
      <trkpt lat="43.21553" lon="5.55175">
        <ele>55</ele>
        <time>2016-07-08T10:29:38Z</time>
      </trkpt>
      <trkpt lat="43.21554" lon="5.55166">
        <ele>54</ele>
        <time>2016-07-08T10:31:38Z</time>
      </trkpt>
      <trkpt lat="43.21554" lon="5.55159">
        <ele>54</ele>
        <time>2016-07-08T10:33:38Z</time>
      </trkpt>
      <trkpt lat="43.21555" lon="5.55154">
        <ele>54</ele>
        <time>2016-07-08T10:35:38Z</time>
      </trkpt>
      <trkpt lat="43.21557" lon="5.55146">
        <ele>53</ele>
        <time>2016-07-08T10:37:38Z</time>
      </trkpt>
      <trkpt lat="43.2156" lon="5.55138">
        <ele>53</ele>
        <time>2016-07-08T10:39:38Z</time>
      </trkpt>
      <trkpt lat="43.21565" lon="5.55125">
        <ele>52</ele>
        <time>2016-07-08T10:41:38Z</time>
      </trkpt>
      <trkpt lat="43.2157" lon="5.55115">
        <ele>52</ele>
        <time>2016-07-08T10:43:38Z</time>
      </trkpt>
      <trkpt lat="43.21573" lon="5.55109">
        <ele>52</ele>
        <time>2016-07-08T10:45:38Z</time>
      </trkpt>
      <trkpt lat="43.21575" lon="5.55102">
        <ele>51</ele>
        <time>2016-07-08T10:47:38Z</time>
      </trkpt>
      <trkpt lat="43.21581" lon="5.55094">
        <ele>51</ele>
        <time>2016-07-08T10:49:38Z</time>
      </trkpt>
      <trkpt lat="43.21587" lon="5.55086">
        <ele>51</ele>
        <time>2016-07-08T10:51:38Z</time>
      </trkpt>
      <trkpt lat="43.21591" lon="5.55082">
        <ele>50</ele>
        <time>2016-07-08T10:53:38Z</time>
      </trkpt>
      <trkpt lat="43.21593" lon="5.55079">
        <ele>50</ele>
        <time>2016-07-08T10:55:38Z</time>
      </trkpt>
      <trkpt lat="43.21595" lon="5.55078">
        <ele>50</ele>
        <time>2016-07-08T10:57:38Z</time>
      </trkpt>
      <trkpt lat="43.21598" lon="5.55076">
        <ele>50</ele>
        <time>2016-07-08T10:59:38Z</time>
      </trkpt>
      <trkpt lat="43.21602" lon="5.55072">
        <ele>49</ele>
        <time>2016-07-08T11:01:38Z</time>
      </trkpt>
      <trkpt lat="43.21609" lon="5.55068">
        <ele>49</ele>
        <time>2016-07-08T11:03:38Z</time>
      </trkpt>
      <trkpt lat="43.21616" lon="5.55065">
        <ele>48</ele>
        <time>2016-07-08T11:05:38Z</time>
      </trkpt>
      <trkpt lat="43.21622" lon="5.55063">
        <ele>48</ele>
        <time>2016-07-08T11:07:38Z</time>
      </trkpt>
      <trkpt lat="43.21649" lon="5.55055">
        <ele>46</ele>
        <time>2016-07-08T11:09:38Z</time>
      </trkpt>
      <trkpt lat="43.2166" lon="5.55051">
        <ele>45</ele>
        <time>2016-07-08T11:11:38Z</time>
      </trkpt>
      <trkpt lat="43.21671" lon="5.55047">
        <ele>45</ele>
        <time>2016-07-08T11:13:38Z</time>
      </trkpt>
      <trkpt lat="43.21683" lon="5.55042">
        <ele>43</ele>
        <time>2016-07-08T11:15:38Z</time>
      </trkpt>
      <trkpt lat="43.21688" lon="5.5504">
        <ele>43</ele>
        <time>2016-07-08T11:17:38Z</time>
      </trkpt>
      <trkpt lat="43.21693" lon="5.55037">
        <ele>42</ele>
        <time>2016-07-08T11:19:38Z</time>
      </trkpt>
      <trkpt lat="43.21704" lon="5.55028">
        <ele>41</ele>
        <time>2016-07-08T11:21:38Z</time>
      </trkpt>
      <trkpt lat="43.2171" lon="5.55022">
        <ele>40</ele>
        <time>2016-07-08T11:23:38Z</time>
      </trkpt>
      <trkpt lat="43.21715" lon="5.55017">
        <ele>40</ele>
        <time>2016-07-08T11:25:38Z</time>
      </trkpt>
      <trkpt lat="43.2172" lon="5.55011">
        <ele>39</ele>
        <time>2016-07-08T11:27:38Z</time>
      </trkpt>
      <trkpt lat="43.21722" lon="5.5501">
        <ele>39</ele>
        <time>2016-07-08T11:29:38Z</time>
      </trkpt>
      <trkpt lat="43.21726" lon="5.55004">
        <ele>39</ele>
        <time>2016-07-08T11:31:38Z</time>
      </trkpt>
      <trkpt lat="43.21763" lon="5.54948">
        <ele>42</ele>
        <time>2016-07-08T11:33:38Z</time>
      </trkpt>
      <trkpt lat="43.21783" lon="5.54918">
        <ele>47</ele>
        <time>2016-07-08T11:35:38Z</time>
      </trkpt>
      <trkpt lat="43.21789" lon="5.54909">
        <ele>48</ele>
        <time>2016-07-08T11:37:38Z</time>
      </trkpt>
      <trkpt lat="43.21794" lon="5.549">
        <ele>49</ele>
        <time>2016-07-08T11:39:38Z</time>
      </trkpt>
      <trkpt lat="43.21798" lon="5.54894">
        <ele>49</ele>
        <time>2016-07-08T11:41:38Z</time>
      </trkpt>
      <trkpt lat="43.218" lon="5.54889">
        <ele>50</ele>
        <time>2016-07-08T11:43:38Z</time>
      </trkpt>
      <trkpt lat="43.21802" lon="5.54884">
        <ele>50</ele>
        <time>2016-07-08T11:45:38Z</time>
      </trkpt>
      <trkpt lat="43.21804" lon="5.54878">
        <ele>51</ele>
        <time>2016-07-08T11:47:38Z</time>
      </trkpt>
      <trkpt lat="43.21805" lon="5.54876">
        <ele>51</ele>
        <time>2016-07-08T11:49:38Z</time>
      </trkpt>
      <trkpt lat="43.21807" lon="5.54871">
        <ele>51</ele>
        <time>2016-07-08T11:51:38Z</time>
      </trkpt>
      <trkpt lat="43.21808" lon="5.54866">
        <ele>51</ele>
        <time>2016-07-08T11:53:38Z</time>
      </trkpt>
      <trkpt lat="43.21809" lon="5.5486">
        <ele>52</ele>
        <time>2016-07-08T11:55:38Z</time>
      </trkpt>
      <trkpt lat="43.2181" lon="5.54857">
        <ele>52</ele>
        <time>2016-07-08T11:57:38Z</time>
      </trkpt>
      <trkpt lat="43.21811" lon="5.54852">
        <ele>52</ele>
        <time>2016-07-08T11:59:38Z</time>
      </trkpt>
      <trkpt lat="43.21812" lon="5.54849">
        <ele>53</ele>
        <time>2016-07-08T12:01:38Z</time>
      </trkpt>
      <trkpt lat="43.21813" lon="5.54844">
        <ele>53</ele>
        <time>2016-07-08T12:03:38Z</time>
      </trkpt>
      <trkpt lat="43.21813" lon="5.54841">
        <ele>53</ele>
        <time>2016-07-08T12:05:38Z</time>
      </trkpt>
      <trkpt lat="43.21814" lon="5.54835">
        <ele>53</ele>
        <time>2016-07-08T12:07:38Z</time>
      </trkpt>
      <trkpt lat="43.21815" lon="5.54829">
        <ele>54</ele>
        <time>2016-07-08T12:09:38Z</time>
      </trkpt>
      <trkpt lat="43.21815" lon="5.54825">
        <ele>55</ele>
        <time>2016-07-08T12:11:38Z</time>
      </trkpt>
      <trkpt lat="43.21815" lon="5.54819">
        <ele>55</ele>
        <time>2016-07-08T12:13:38Z</time>
      </trkpt>
      <trkpt lat="43.21814" lon="5.54812">
        <ele>56</ele>
        <time>2016-07-08T12:15:38Z</time>
      </trkpt>
      <trkpt lat="43.21814" lon="5.54807">
        <ele>57</ele>
        <time>2016-07-08T12:17:38Z</time>
      </trkpt>
      <trkpt lat="43.21813" lon="5.548">
        <ele>57</ele>
        <time>2016-07-08T12:19:38Z</time>
      </trkpt>
      <trkpt lat="43.21812" lon="5.54793">
        <ele>58</ele>
        <time>2016-07-08T12:21:38Z</time>
      </trkpt>
      <trkpt lat="43.21811" lon="5.54787">
        <ele>58</ele>
        <time>2016-07-08T12:23:38Z</time>
      </trkpt>
      <trkpt lat="43.2181" lon="5.5478">
        <ele>59</ele>
        <time>2016-07-08T12:25:38Z</time>
      </trkpt>
      <trkpt lat="43.21809" lon="5.54775">
        <ele>59</ele>
        <time>2016-07-08T12:27:38Z</time>
      </trkpt>
      <trkpt lat="43.21807" lon="5.54771">
        <ele>59</ele>
        <time>2016-07-08T12:29:38Z</time>
      </trkpt>
      <trkpt lat="43.21805" lon="5.54766">
        <ele>60</ele>
        <time>2016-07-08T12:31:38Z</time>
      </trkpt>
      <trkpt lat="43.21803" lon="5.54761">
        <ele>60</ele>
        <time>2016-07-08T12:33:38Z</time>
      </trkpt>
      <trkpt lat="43.21746" lon="5.54671">
        <ele>61</ele>
        <time>2016-07-08T12:35:38Z</time>
      </trkpt>
      <trkpt lat="43.21732" lon="5.54648">
        <ele>62</ele>
        <time>2016-07-08T12:37:38Z</time>
      </trkpt>
      <trkpt lat="43.21725" lon="5.54635">
        <ele>63</ele>
        <time>2016-07-08T12:39:38Z</time>
      </trkpt>
      <trkpt lat="43.2172" lon="5.54625">
        <ele>63</ele>
        <time>2016-07-08T12:41:38Z</time>
      </trkpt>
      <trkpt lat="43.21717" lon="5.54616">
        <ele>64</ele>
        <time>2016-07-08T12:43:38Z</time>
      </trkpt>
      <trkpt lat="43.21711" lon="5.54599">
        <ele>65</ele>
        <time>2016-07-08T12:45:38Z</time>
      </trkpt>
      <trkpt lat="43.21698" lon="5.5456">
        <ele>66</ele>
        <time>2016-07-08T12:47:38Z</time>
      </trkpt>
      <trkpt lat="43.21691" lon="5.54537">
        <ele>65</ele>
        <time>2016-07-08T12:49:38Z</time>
      </trkpt>
      <trkpt lat="43.21685" lon="5.54518">
        <ele>65</ele>
        <time>2016-07-08T12:51:38Z</time>
      </trkpt>
      <trkpt lat="43.21683" lon="5.5451">
        <ele>65</ele>
        <time>2016-07-08T12:53:38Z</time>
      </trkpt>
      <trkpt lat="43.21682" lon="5.54506">
        <ele>65</ele>
        <time>2016-07-08T12:55:38Z</time>
      </trkpt>
      <trkpt lat="43.21681" lon="5.54502">
        <ele>65</ele>
        <time>2016-07-08T12:57:38Z</time>
      </trkpt>
      <trkpt lat="43.2168" lon="5.54499">
        <ele>64</ele>
        <time>2016-07-08T12:59:38Z</time>
      </trkpt>
      <trkpt lat="43.21679" lon="5.54494">
        <ele>64</ele>
        <time>2016-07-08T13:01:38Z</time>
      </trkpt>
      <trkpt lat="43.21679" lon="5.5449">
        <ele>64</ele>
        <time>2016-07-08T13:03:38Z</time>
      </trkpt>
      <trkpt lat="43.21678" lon="5.54486">
        <ele>63</ele>
        <time>2016-07-08T13:05:38Z</time>
      </trkpt>
      <trkpt lat="43.21678" lon="5.54482">
        <ele>63</ele>
        <time>2016-07-08T13:07:38Z</time>
      </trkpt>
      <trkpt lat="43.21678" lon="5.54478">
        <ele>63</ele>
        <time>2016-07-08T13:09:38Z</time>
      </trkpt>
      <trkpt lat="43.21677" lon="5.54474">
        <ele>63</ele>
        <time>2016-07-08T13:11:38Z</time>
      </trkpt>
      <trkpt lat="43.21678" lon="5.54469">
        <ele>63</ele>
        <time>2016-07-08T13:13:38Z</time>
      </trkpt>
      <trkpt lat="43.21678" lon="5.54466">
        <ele>63</ele>
        <time>2016-07-08T13:15:38Z</time>
      </trkpt>
      <trkpt lat="43.21678" lon="5.54462">
        <ele>63</ele>
        <time>2016-07-08T13:17:38Z</time>
      </trkpt>
      <trkpt lat="43.21678" lon="5.54457">
        <ele>62</ele>
        <time>2016-07-08T13:19:38Z</time>
      </trkpt>
      <trkpt lat="43.21679" lon="5.54452">
        <ele>62</ele>
        <time>2016-07-08T13:21:38Z</time>
      </trkpt>
      <trkpt lat="43.2168" lon="5.54449">
        <ele>63</ele>
        <time>2016-07-08T13:23:38Z</time>
      </trkpt>
      <trkpt lat="43.2168" lon="5.54446">
        <ele>63</ele>
        <time>2016-07-08T13:25:38Z</time>
      </trkpt>
      <trkpt lat="43.21682" lon="5.54441">
        <ele>63</ele>
        <time>2016-07-08T13:27:38Z</time>
      </trkpt>
      <trkpt lat="43.21682" lon="5.54438">
        <ele>63</ele>
        <time>2016-07-08T13:29:38Z</time>
      </trkpt>
      <trkpt lat="43.21684" lon="5.54434">
        <ele>63</ele>
        <time>2016-07-08T13:31:38Z</time>
      </trkpt>
      <trkpt lat="43.21687" lon="5.54425">
        <ele>63</ele>
        <time>2016-07-08T13:33:38Z</time>
      </trkpt>
      <trkpt lat="43.2169" lon="5.54419">
        <ele>64</ele>
        <time>2016-07-08T13:35:38Z</time>
      </trkpt>
      <trkpt lat="43.21693" lon="5.54414">
        <ele>63</ele>
        <time>2016-07-08T13:37:38Z</time>
      </trkpt>
      <trkpt lat="43.21696" lon="5.54409">
        <ele>63</ele>
        <time>2016-07-08T13:39:38Z</time>
      </trkpt>
      <trkpt lat="43.21698" lon="5.54406">
        <ele>62</ele>
        <time>2016-07-08T13:41:38Z</time>
      </trkpt>
      <trkpt lat="43.217" lon="5.54403">
        <ele>62</ele>
        <time>2016-07-08T13:43:38Z</time>
      </trkpt>
      <trkpt lat="43.21704" lon="5.54399">
        <ele>61</ele>
        <time>2016-07-08T13:45:38Z</time>
      </trkpt>
      <trkpt lat="43.21708" lon="5.54394">
        <ele>61</ele>
        <time>2016-07-08T13:47:38Z</time>
      </trkpt>
      <trkpt lat="43.21714" lon="5.5439">
        <ele>61</ele>
        <time>2016-07-08T13:49:38Z</time>
      </trkpt>
      <trkpt lat="43.2172" lon="5.54386">
        <ele>60</ele>
        <time>2016-07-08T13:51:38Z</time>
      </trkpt>
      <trkpt lat="43.21725" lon="5.54383">
        <ele>60</ele>
        <time>2016-07-08T13:53:38Z</time>
      </trkpt>
      <trkpt lat="43.21732" lon="5.54381">
        <ele>61</ele>
        <time>2016-07-08T13:55:38Z</time>
      </trkpt>
      <trkpt lat="43.21738" lon="5.54379">
        <ele>61</ele>
        <time>2016-07-08T13:57:38Z</time>
      </trkpt>
      <trkpt lat="43.21742" lon="5.54378">
        <ele>61</ele>
        <time>2016-07-08T13:59:38Z</time>
      </trkpt>
      <trkpt lat="43.21746" lon="5.54378">
        <ele>62</ele>
        <time>2016-07-08T14:01:38Z</time>
      </trkpt>
      <trkpt lat="43.21749" lon="5.54378">
        <ele>62</ele>
        <time>2016-07-08T14:03:38Z</time>
      </trkpt>
      <trkpt lat="43.21752" lon="5.54378">
        <ele>62</ele>
        <time>2016-07-08T14:05:38Z</time>
      </trkpt>
      <trkpt lat="43.21756" lon="5.54378">
        <ele>62</ele>
        <time>2016-07-08T14:07:38Z</time>
      </trkpt>
      <trkpt lat="43.21761" lon="5.54379">
        <ele>63</ele>
        <time>2016-07-08T14:09:38Z</time>
      </trkpt>
      <trkpt lat="43.21764" lon="5.5438">
        <ele>63</ele>
        <time>2016-07-08T14:11:38Z</time>
      </trkpt>
      <trkpt lat="43.21767" lon="5.54381">
        <ele>63</ele>
        <time>2016-07-08T14:13:38Z</time>
      </trkpt>
      <trkpt lat="43.21772" lon="5.54383">
        <ele>64</ele>
        <time>2016-07-08T14:15:38Z</time>
      </trkpt>
      <trkpt lat="43.21778" lon="5.54386">
        <ele>65</ele>
        <time>2016-07-08T14:17:38Z</time>
      </trkpt>
      <trkpt lat="43.21786" lon="5.54391">
        <ele>66</ele>
        <time>2016-07-08T14:19:38Z</time>
      </trkpt>
      <trkpt lat="43.218" lon="5.544">
        <ele>69</ele>
        <time>2016-07-08T14:21:38Z</time>
      </trkpt>
      <trkpt lat="43.21829" lon="5.54418">
        <ele>73</ele>
        <time>2016-07-08T14:23:38Z</time>
      </trkpt>
      <trkpt lat="43.21843" lon="5.54426">
        <ele>75</ele>
        <time>2016-07-08T14:25:38Z</time>
      </trkpt>
      <trkpt lat="43.21849" lon="5.54428">
        <ele>75</ele>
        <time>2016-07-08T14:27:38Z</time>
      </trkpt>
      <trkpt lat="43.21854" lon="5.54429">
        <ele>76</ele>
        <time>2016-07-08T14:29:38Z</time>
      </trkpt>
      <trkpt lat="43.21858" lon="5.54432">
        <ele>77</ele>
        <time>2016-07-08T14:31:38Z</time>
      </trkpt>
      <trkpt lat="43.21861" lon="5.54433">
        <ele>77</ele>
        <time>2016-07-08T14:33:38Z</time>
      </trkpt>
      <trkpt lat="43.21869" lon="5.54436">
        <ele>78</ele>
        <time>2016-07-08T14:35:38Z</time>
      </trkpt>
      <trkpt lat="43.21884" lon="5.54437">
        <ele>78</ele>
        <time>2016-07-08T14:37:38Z</time>
      </trkpt>
      <trkpt lat="43.21899" lon="5.54437">
        <ele>78</ele>
        <time>2016-07-08T14:39:38Z</time>
      </trkpt>
      <trkpt lat="43.21914" lon="5.54437">
        <ele>78</ele>
        <time>2016-07-08T14:41:38Z</time>
      </trkpt>
      <trkpt lat="43.21925" lon="5.54436">
        <ele>79</ele>
        <time>2016-07-08T14:43:38Z</time>
      </trkpt>
      <trkpt lat="43.21926" lon="5.54436">
        <ele>79</ele>
        <time>2016-07-08T14:45:38Z</time>
      </trkpt>
      <trkpt lat="43.21936" lon="5.54434">
        <ele>79</ele>
        <time>2016-07-08T14:47:38Z</time>
      </trkpt>
      <trkpt lat="43.21959" lon="5.54428">
        <ele>80</ele>
        <time>2016-07-08T14:49:38Z</time>
      </trkpt>
      <trkpt lat="43.2198" lon="5.54423">
        <ele>81</ele>
        <time>2016-07-08T14:51:38Z</time>
      </trkpt>
      <trkpt lat="43.22012" lon="5.54414">
        <ele>82</ele>
        <time>2016-07-08T14:53:38Z</time>
      </trkpt>
      <trkpt lat="43.22036" lon="5.54405">
        <ele>82</ele>
        <time>2016-07-08T14:55:38Z</time>
      </trkpt>
      <trkpt lat="43.22052" lon="5.54399">
        <ele>83</ele>
        <time>2016-07-08T14:57:38Z</time>
      </trkpt>
      <trkpt lat="43.22067" lon="5.54394">
        <ele>84</ele>
        <time>2016-07-08T14:59:38Z</time>
      </trkpt>
      <trkpt lat="43.22076" lon="5.54391">
        <ele>84</ele>
        <time>2016-07-08T15:01:38Z</time>
      </trkpt>
      <trkpt lat="43.22088" lon="5.54387">
        <ele>84</ele>
        <time>2016-07-08T15:03:38Z</time>
      </trkpt>
      <trkpt lat="43.22091" lon="5.54386">
        <ele>84</ele>
        <time>2016-07-08T15:05:38Z</time>
      </trkpt>
      <trkpt lat="43.22094" lon="5.54383">
        <ele>83</ele>
        <time>2016-07-08T15:07:38Z</time>
      </trkpt>
      <trkpt lat="43.22107" lon="5.54379">
        <ele>83</ele>
        <time>2016-07-08T15:09:38Z</time>
      </trkpt>
      <trkpt lat="43.2212" lon="5.54376">
        <ele>82</ele>
        <time>2016-07-08T15:11:38Z</time>
      </trkpt>
      <trkpt lat="43.2213" lon="5.54375">
        <ele>82</ele>
        <time>2016-07-08T15:13:38Z</time>
      </trkpt>
      <trkpt lat="43.22136" lon="5.54374">
        <ele>82</ele>
        <time>2016-07-08T15:15:38Z</time>
      </trkpt>
      <trkpt lat="43.22143" lon="5.54374">
        <ele>82</ele>
        <time>2016-07-08T15:17:38Z</time>
      </trkpt>
      <trkpt lat="43.22155" lon="5.54373">
        <ele>82</ele>
        <time>2016-07-08T15:19:38Z</time>
      </trkpt>
      <trkpt lat="43.22175" lon="5.54373">
        <ele>83</ele>
        <time>2016-07-08T15:21:38Z</time>
      </trkpt>
      <trkpt lat="43.2219" lon="5.54375">
        <ele>84</ele>
        <time>2016-07-08T15:23:38Z</time>
      </trkpt>
      <trkpt lat="43.22198" lon="5.54376">
        <ele>85</ele>
        <time>2016-07-08T15:25:38Z</time>
      </trkpt>
      <trkpt lat="43.22206" lon="5.54378">
        <ele>85</ele>
        <time>2016-07-08T15:27:38Z</time>
      </trkpt>
      <trkpt lat="43.22218" lon="5.5438">
        <ele>86</ele>
        <time>2016-07-08T15:29:38Z</time>
      </trkpt>
      <trkpt lat="43.22237" lon="5.54386">
        <ele>87</ele>
        <time>2016-07-08T15:31:38Z</time>
      </trkpt>
      <trkpt lat="43.2226" lon="5.54395">
        <ele>88</ele>
        <time>2016-07-08T15:33:38Z</time>
      </trkpt>
      <trkpt lat="43.22272" lon="5.54401">
        <ele>89</ele>
        <time>2016-07-08T15:35:38Z</time>
      </trkpt>
      <trkpt lat="43.22319" lon="5.54422">
        <ele>90</ele>
        <time>2016-07-08T15:37:38Z</time>
      </trkpt>
      <trkpt lat="43.22324" lon="5.54426">
        <ele>90</ele>
        <time>2016-07-08T15:39:38Z</time>
      </trkpt>
      <trkpt lat="43.22337" lon="5.54432">
        <ele>91</ele>
        <time>2016-07-08T15:41:38Z</time>
      </trkpt>
      <trkpt lat="43.22346" lon="5.54433">
        <ele>91</ele>
        <time>2016-07-08T15:43:38Z</time>
      </trkpt>
      <trkpt lat="43.22367" lon="5.54436">
        <ele>91</ele>
        <time>2016-07-08T15:45:38Z</time>
      </trkpt>
      <trkpt lat="43.22367" lon="5.54436">
        <ele>91</ele>
        <time>2016-07-08T15:47:38Z</time>
      </trkpt>
      <trkpt lat="43.22368" lon="5.54437">
        <ele>91</ele>
        <time>2016-07-08T15:49:38Z</time>
      </trkpt>
      <trkpt lat="43.22369" lon="5.54438">
        <ele>91</ele>
        <time>2016-07-08T15:51:38Z</time>
      </trkpt>
      <trkpt lat="43.22369" lon="5.54439">
        <ele>91</ele>
        <time>2016-07-08T15:53:38Z</time>
      </trkpt>
      <trkpt lat="43.2237" lon="5.54439">
        <ele>91</ele>
        <time>2016-07-08T15:55:38Z</time>
      </trkpt>
      <trkpt lat="43.22371" lon="5.5444">
        <ele>91</ele>
        <time>2016-07-08T15:57:38Z</time>
      </trkpt>
      <trkpt lat="43.22371" lon="5.54441">
        <ele>91</ele>
        <time>2016-07-08T15:59:38Z</time>
      </trkpt>
      <trkpt lat="43.22372" lon="5.54441">
        <ele>91</ele>
        <time>2016-07-08T16:01:38Z</time>
      </trkpt>
      <trkpt lat="43.22373" lon="5.54442">
        <ele>91</ele>
        <time>2016-07-08T16:03:38Z</time>
      </trkpt>
      <trkpt lat="43.22374" lon="5.54442">
        <ele>91</ele>
        <time>2016-07-08T16:05:38Z</time>
      </trkpt>
      <trkpt lat="43.22375" lon="5.54443">
        <ele>91</ele>
        <time>2016-07-08T16:07:38Z</time>
      </trkpt>
      <trkpt lat="43.22376" lon="5.54443">
        <ele>91</ele>
        <time>2016-07-08T16:09:38Z</time>
      </trkpt>
      <trkpt lat="43.22377" lon="5.54443">
        <ele>91</ele>
        <time>2016-07-08T16:11:38Z</time>
      </trkpt>
      <trkpt lat="43.22378" lon="5.54443">
        <ele>91</ele>
        <time>2016-07-08T16:13:38Z</time>
      </trkpt>
      <trkpt lat="43.22379" lon="5.54443">
        <ele>91</ele>
        <time>2016-07-08T16:15:38Z</time>
      </trkpt>
      <trkpt lat="43.22382" lon="5.54449">
        <ele>92</ele>
        <time>2016-07-08T16:17:38Z</time>
      </trkpt>
      <trkpt lat="43.2239" lon="5.54459">
        <ele>92</ele>
        <time>2016-07-08T16:19:38Z</time>
      </trkpt>
      <trkpt lat="43.22394" lon="5.54462">
        <ele>92</ele>
        <time>2016-07-08T16:21:38Z</time>
      </trkpt>
      <trkpt lat="43.22398" lon="5.54467">
        <ele>92</ele>
        <time>2016-07-08T16:23:38Z</time>
      </trkpt>
      <trkpt lat="43.22402" lon="5.54471">
        <ele>92</ele>
        <time>2016-07-08T16:25:38Z</time>
      </trkpt>
      <trkpt lat="43.22404" lon="5.54475">
        <ele>92</ele>
        <time>2016-07-08T16:27:38Z</time>
      </trkpt>
      <trkpt lat="43.22407" lon="5.54477">
        <ele>92</ele>
        <time>2016-07-08T16:29:38Z</time>
      </trkpt>
      <trkpt lat="43.22411" lon="5.54479">
        <ele>92</ele>
        <time>2016-07-08T16:31:38Z</time>
      </trkpt>
      <trkpt lat="43.22413" lon="5.54481">
        <ele>92</ele>
        <time>2016-07-08T16:33:38Z</time>
      </trkpt>
      <trkpt lat="43.22463" lon="5.54537">
        <ele>93</ele>
        <time>2016-07-08T16:35:38Z</time>
      </trkpt>
      <trkpt lat="43.22553" lon="5.54638">
        <ele>93</ele>
        <time>2016-07-08T16:37:38Z</time>
      </trkpt>
      <trkpt lat="43.22578" lon="5.54664">
        <ele>95</ele>
        <time>2016-07-08T16:39:38Z</time>
      </trkpt>
      <trkpt lat="43.22588" lon="5.54673">
        <ele>95</ele>
        <time>2016-07-08T16:41:38Z</time>
      </trkpt>
      <trkpt lat="43.2261" lon="5.54695">
        <ele>97</ele>
        <time>2016-07-08T16:43:38Z</time>
      </trkpt>
      <trkpt lat="43.22639" lon="5.54723">
        <ele>97</ele>
        <time>2016-07-08T16:45:38Z</time>
      </trkpt>
      <trkpt lat="43.22702" lon="5.54784">
        <ele>99</ele>
        <time>2016-07-08T16:47:38Z</time>
      </trkpt>
      <trkpt lat="43.22713" lon="5.54795">
        <ele>99</ele>
        <time>2016-07-08T16:49:38Z</time>
      </trkpt>
      <trkpt lat="43.2274" lon="5.54822">
        <ele>99</ele>
        <time>2016-07-08T16:51:38Z</time>
      </trkpt>
      <trkpt lat="43.22754" lon="5.54837">
        <ele>99</ele>
        <time>2016-07-08T16:53:38Z</time>
      </trkpt>
      <trkpt lat="43.22768" lon="5.54851">
        <ele>100</ele>
        <time>2016-07-08T16:55:38Z</time>
      </trkpt>
      <trkpt lat="43.22828" lon="5.54915">
        <ele>101</ele>
        <time>2016-07-08T16:57:38Z</time>
      </trkpt>
      <trkpt lat="43.22838" lon="5.54927">
        <ele>101</ele>
        <time>2016-07-08T16:59:38Z</time>
      </trkpt>
      <trkpt lat="43.22901" lon="5.54992">
        <ele>102</ele>
        <time>2016-07-08T17:01:38Z</time>
      </trkpt>
      <trkpt lat="43.22929" lon="5.55022">
        <ele>103</ele>
        <time>2016-07-08T17:03:38Z</time>
      </trkpt>
      <trkpt lat="43.22949" lon="5.55043">
        <ele>104</ele>
        <time>2016-07-08T17:05:38Z</time>
      </trkpt>
      <trkpt lat="43.22965" lon="5.55058">
        <ele>104</ele>
        <time>2016-07-08T17:07:38Z</time>
      </trkpt>
      <trkpt lat="43.22975" lon="5.55069">
        <ele>104</ele>
        <time>2016-07-08T17:09:38Z</time>
      </trkpt>
      <trkpt lat="43.22982" lon="5.55076">
        <ele>104</ele>
        <time>2016-07-08T17:11:38Z</time>
      </trkpt>
      <trkpt lat="43.22986" lon="5.55082">
        <ele>104</ele>
        <time>2016-07-08T17:13:38Z</time>
      </trkpt>
      <trkpt lat="43.22991" lon="5.55087">
        <ele>104</ele>
        <time>2016-07-08T17:15:38Z</time>
      </trkpt>
      <trkpt lat="43.22994" lon="5.55093">
        <ele>105</ele>
        <time>2016-07-08T17:17:38Z</time>
      </trkpt>
      <trkpt lat="43.23008" lon="5.55114">
        <ele>106</ele>
        <time>2016-07-08T17:19:38Z</time>
      </trkpt>
      <trkpt lat="43.23016" lon="5.55126">
        <ele>107</ele>
        <time>2016-07-08T17:21:38Z</time>
      </trkpt>
      <trkpt lat="43.23025" lon="5.55141">
        <ele>108</ele>
        <time>2016-07-08T17:23:38Z</time>
      </trkpt>
      <trkpt lat="43.2303" lon="5.5515">
        <ele>108</ele>
        <time>2016-07-08T17:25:38Z</time>
      </trkpt>
      <trkpt lat="43.23036" lon="5.55161">
        <ele>109</ele>
        <time>2016-07-08T17:27:38Z</time>
      </trkpt>
      <trkpt lat="43.2304" lon="5.5517">
        <ele>109</ele>
        <time>2016-07-08T17:29:38Z</time>
      </trkpt>
      <trkpt lat="43.23043" lon="5.55178">
        <ele>109</ele>
        <time>2016-07-08T17:31:38Z</time>
      </trkpt>
      <trkpt lat="43.23045" lon="5.55183">
        <ele>110</ele>
        <time>2016-07-08T17:33:38Z</time>
      </trkpt>
      <trkpt lat="43.23047" lon="5.55188">
        <ele>110</ele>
        <time>2016-07-08T17:35:38Z</time>
      </trkpt>
      <trkpt lat="43.23052" lon="5.552">
        <ele>110</ele>
        <time>2016-07-08T17:37:38Z</time>
      </trkpt>
      <trkpt lat="43.23056" lon="5.55213">
        <ele>111</ele>
        <time>2016-07-08T17:39:38Z</time>
      </trkpt>
      <trkpt lat="43.23063" lon="5.55231">
        <ele>111</ele>
        <time>2016-07-08T17:41:38Z</time>
      </trkpt>
      <trkpt lat="43.23068" lon="5.55247">
        <ele>112</ele>
        <time>2016-07-08T17:43:38Z</time>
      </trkpt>
      <trkpt lat="43.23069" lon="5.55249">
        <ele>112</ele>
        <time>2016-07-08T17:45:38Z</time>
      </trkpt>
      <trkpt lat="43.23078" lon="5.55275">
        <ele>113</ele>
        <time>2016-07-08T17:47:38Z</time>
      </trkpt>
      <trkpt lat="43.23084" lon="5.55294">
        <ele>113</ele>
        <time>2016-07-08T17:49:38Z</time>
      </trkpt>
      <trkpt lat="43.23086" lon="5.553">
        <ele>113</ele>
        <time>2016-07-08T17:51:38Z</time>
      </trkpt>
      <trkpt lat="43.23096" lon="5.55332">
        <ele>114</ele>
        <time>2016-07-08T17:53:38Z</time>
      </trkpt>
      <trkpt lat="43.23109" lon="5.5537">
        <ele>116</ele>
        <time>2016-07-08T17:55:38Z</time>
      </trkpt>
      <trkpt lat="43.23115" lon="5.55385">
        <ele>117</ele>
        <time>2016-07-08T17:57:38Z</time>
      </trkpt>
      <trkpt lat="43.23119" lon="5.55396">
        <ele>117</ele>
        <time>2016-07-08T17:59:38Z</time>
      </trkpt>
      <trkpt lat="43.23121" lon="5.554">
        <ele>117</ele>
        <time>2016-07-08T18:01:38Z</time>
      </trkpt>
      <trkpt lat="43.23126" lon="5.55412">
        <ele>118</ele>
        <time>2016-07-08T18:03:38Z</time>
      </trkpt>
      <trkpt lat="43.23131" lon="5.55423">
        <ele>118</ele>
        <time>2016-07-08T18:05:38Z</time>
      </trkpt>
      <trkpt lat="43.23133" lon="5.55428">
        <ele>118</ele>
        <time>2016-07-08T18:07:38Z</time>
      </trkpt>
      <trkpt lat="43.23136" lon="5.55435">
        <ele>118</ele>
        <time>2016-07-08T18:09:38Z</time>
      </trkpt>
      <trkpt lat="43.23139" lon="5.55443">
        <ele>118</ele>
        <time>2016-07-08T18:11:38Z</time>
      </trkpt>
      <trkpt lat="43.23139" lon="5.55443">
        <ele>118</ele>
        <time>2016-07-08T18:13:38Z</time>
      </trkpt>
      <trkpt lat="43.23137" lon="5.55447">
        <ele>118</ele>
        <time>2016-07-08T18:15:38Z</time>
      </trkpt>
      <trkpt lat="43.23136" lon="5.55451">
        <ele>118</ele>
        <time>2016-07-08T18:17:38Z</time>
      </trkpt>
      <trkpt lat="43.23135" lon="5.55455">
        <ele>118</ele>
        <time>2016-07-08T18:19:38Z</time>
      </trkpt>
      <trkpt lat="43.23136" lon="5.55458">
        <ele>118</ele>
        <time>2016-07-08T18:21:38Z</time>
      </trkpt>
      <trkpt lat="43.23137" lon="5.55461">
        <ele>118</ele>
        <time>2016-07-08T18:23:38Z</time>
      </trkpt>
      <trkpt lat="43.23139" lon="5.55464">
        <ele>118</ele>
        <time>2016-07-08T18:25:38Z</time>
      </trkpt>
      <trkpt lat="43.23141" lon="5.55466">
        <ele>118</ele>
        <time>2016-07-08T18:27:38Z</time>
      </trkpt>
      <trkpt lat="43.23143" lon="5.55468">
        <ele>118</ele>
        <time>2016-07-08T18:29:38Z</time>
      </trkpt>
      <trkpt lat="43.23146" lon="5.55469">
        <ele>118</ele>
        <time>2016-07-08T18:31:38Z</time>
      </trkpt>
      <trkpt lat="43.23149" lon="5.55468">
        <ele>118</ele>
        <time>2016-07-08T18:33:38Z</time>
      </trkpt>
      <trkpt lat="43.23155" lon="5.55474">
        <ele>118</ele>
        <time>2016-07-08T18:35:38Z</time>
      </trkpt>
      <trkpt lat="43.23172" lon="5.55493">
        <ele>119</ele>
        <time>2016-07-08T18:37:38Z</time>
      </trkpt>
      <trkpt lat="43.23195" lon="5.55516">
        <ele>120</ele>
        <time>2016-07-08T18:39:38Z</time>
      </trkpt>
      <trkpt lat="43.232" lon="5.55521">
        <ele>120</ele>
        <time>2016-07-08T18:41:38Z</time>
      </trkpt>
      <trkpt lat="43.23202" lon="5.55522">
        <ele>121</ele>
        <time>2016-07-08T18:43:38Z</time>
      </trkpt>
      <trkpt lat="43.23206" lon="5.55525">
        <ele>121</ele>
        <time>2016-07-08T18:45:38Z</time>
      </trkpt>
      <trkpt lat="43.2321" lon="5.55527">
        <ele>121</ele>
        <time>2016-07-08T18:47:38Z</time>
      </trkpt>
      <trkpt lat="43.23242" lon="5.55555">
        <ele>122</ele>
        <time>2016-07-08T18:49:38Z</time>
      </trkpt>
      <trkpt lat="43.2325" lon="5.55561">
        <ele>122</ele>
        <time>2016-07-08T18:51:38Z</time>
      </trkpt>
      <trkpt lat="43.23261" lon="5.5557">
        <ele>123</ele>
        <time>2016-07-08T18:53:38Z</time>
      </trkpt>
      <trkpt lat="43.23263" lon="5.55572">
        <ele>123</ele>
        <time>2016-07-08T18:55:38Z</time>
      </trkpt>
      <trkpt lat="43.23277" lon="5.55584">
        <ele>123</ele>
        <time>2016-07-08T18:57:38Z</time>
      </trkpt>
      <trkpt lat="43.2334" lon="5.55638">
        <ele>125</ele>
        <time>2016-07-08T18:59:38Z</time>
      </trkpt>
      <trkpt lat="43.23362" lon="5.55661">
        <ele>127</ele>
        <time>2016-07-08T19:01:38Z</time>
      </trkpt>
      <trkpt lat="43.23369" lon="5.55672">
        <ele>128</ele>
        <time>2016-07-08T19:03:38Z</time>
      </trkpt>
      <trkpt lat="43.23374" lon="5.5568">
        <ele>129</ele>
        <time>2016-07-08T19:05:38Z</time>
      </trkpt>
      <trkpt lat="43.23381" lon="5.55695">
        <ele>130</ele>
        <time>2016-07-08T19:07:38Z</time>
      </trkpt>
      <trkpt lat="43.23389" lon="5.55715">
        <ele>131</ele>
        <time>2016-07-08T19:09:38Z</time>
      </trkpt>
      <trkpt lat="43.23394" lon="5.55726">
        <ele>132</ele>
        <time>2016-07-08T19:11:38Z</time>
      </trkpt>
      <trkpt lat="43.23395" lon="5.55727">
        <ele>132</ele>
        <time>2016-07-08T19:13:38Z</time>
      </trkpt>
      <trkpt lat="43.23398" lon="5.55731">
        <ele>132</ele>
        <time>2016-07-08T19:15:38Z</time>
      </trkpt>
      <trkpt lat="43.23399" lon="5.55733">
        <ele>132</ele>
        <time>2016-07-08T19:17:38Z</time>
      </trkpt>
      <trkpt lat="43.23402" lon="5.55735">
        <ele>133</ele>
        <time>2016-07-08T19:19:38Z</time>
      </trkpt>
      <trkpt lat="43.23403" lon="5.55736">
        <ele>133</ele>
        <time>2016-07-08T19:21:38Z</time>
      </trkpt>
      <trkpt lat="43.23405" lon="5.55736">
        <ele>133</ele>
        <time>2016-07-08T19:23:38Z</time>
      </trkpt>
      <trkpt lat="43.23407" lon="5.55737">
        <ele>133</ele>
        <time>2016-07-08T19:25:38Z</time>
      </trkpt>
      <trkpt lat="43.23409" lon="5.55737">
        <ele>133</ele>
        <time>2016-07-08T19:27:38Z</time>
      </trkpt>
      <trkpt lat="43.23413" lon="5.55737">
        <ele>133</ele>
        <time>2016-07-08T19:29:38Z</time>
      </trkpt>
      <trkpt lat="43.23415" lon="5.55737">
        <ele>133</ele>
        <time>2016-07-08T19:31:38Z</time>
      </trkpt>
      <trkpt lat="43.2342" lon="5.55735">
        <ele>133</ele>
        <time>2016-07-08T19:33:38Z</time>
      </trkpt>
      <trkpt lat="43.23424" lon="5.55732">
        <ele>133</ele>
        <time>2016-07-08T19:35:38Z</time>
      </trkpt>
      <trkpt lat="43.23427" lon="5.55729">
        <ele>133</ele>
        <time>2016-07-08T19:37:38Z</time>
      </trkpt>
      <trkpt lat="43.2343" lon="5.55725">
        <ele>133</ele>
        <time>2016-07-08T19:39:38Z</time>
      </trkpt>
      <trkpt lat="43.23432" lon="5.55721">
        <ele>133</ele>
        <time>2016-07-08T19:41:38Z</time>
      </trkpt>
      <trkpt lat="43.23442" lon="5.557">
        <ele>133</ele>
        <time>2016-07-08T19:43:38Z</time>
      </trkpt>
      <trkpt lat="43.23448" lon="5.55692">
        <ele>133</ele>
        <time>2016-07-08T19:45:38Z</time>
      </trkpt>
      <trkpt lat="43.23452" lon="5.55686">
        <ele>133</ele>
        <time>2016-07-08T19:47:38Z</time>
      </trkpt>
      <trkpt lat="43.23456" lon="5.55682">
        <ele>134</ele>
        <time>2016-07-08T19:49:38Z</time>
      </trkpt>
      <trkpt lat="43.23476" lon="5.55671">
        <ele>135</ele>
        <time>2016-07-08T19:51:38Z</time>
      </trkpt>
      <trkpt lat="43.2348" lon="5.55668">
        <ele>135</ele>
        <time>2016-07-08T19:53:38Z</time>
      </trkpt>
      <trkpt lat="43.23483" lon="5.55662">
        <ele>135</ele>
        <time>2016-07-08T19:55:38Z</time>
      </trkpt>
      <trkpt lat="43.23486" lon="5.55657">
        <ele>135</ele>
        <time>2016-07-08T19:57:38Z</time>
      </trkpt>
      <trkpt lat="43.23489" lon="5.5565">
        <ele>135</ele>
        <time>2016-07-08T19:59:38Z</time>
      </trkpt>
      <trkpt lat="43.23497" lon="5.55622">
        <ele>135</ele>
        <time>2016-07-08T20:01:38Z</time>
      </trkpt>
      <trkpt lat="43.23502" lon="5.55611">
        <ele>135</ele>
        <time>2016-07-08T20:03:38Z</time>
      </trkpt>
      <trkpt lat="43.23509" lon="5.55603">
        <ele>135</ele>
        <time>2016-07-08T20:05:38Z</time>
      </trkpt>
      <trkpt lat="43.23518" lon="5.55599">
        <ele>135</ele>
        <time>2016-07-08T20:07:38Z</time>
      </trkpt>
      <trkpt lat="43.23531" lon="5.55598">
        <ele>136</ele>
        <time>2016-07-08T20:09:38Z</time>
      </trkpt>
      <trkpt lat="43.23556" lon="5.55606">
        <ele>137</ele>
        <time>2016-07-08T20:11:38Z</time>
      </trkpt>
      <trkpt lat="43.23596" lon="5.55627">
        <ele>140</ele>
        <time>2016-07-08T20:13:38Z</time>
      </trkpt>
      <trkpt lat="43.23603" lon="5.55633">
        <ele>141</ele>
        <time>2016-07-08T20:15:38Z</time>
      </trkpt>
      <trkpt lat="43.23618" lon="5.55646">
        <ele>142</ele>
        <time>2016-07-08T20:17:38Z</time>
      </trkpt>
      <trkpt lat="43.2364" lon="5.55673">
        <ele>143</ele>
        <time>2016-07-08T20:19:38Z</time>
      </trkpt>
      <trkpt lat="43.23653" lon="5.55692">
        <ele>144</ele>
        <time>2016-07-08T20:21:38Z</time>
      </trkpt>
      <trkpt lat="43.2366" lon="5.55704">
        <ele>144</ele>
        <time>2016-07-08T20:23:38Z</time>
      </trkpt>
      <trkpt lat="43.23667" lon="5.55718">
        <ele>145</ele>
        <time>2016-07-08T20:25:38Z</time>
      </trkpt>
      <trkpt lat="43.2367" lon="5.55726">
        <ele>145</ele>
        <time>2016-07-08T20:27:38Z</time>
      </trkpt>
      <trkpt lat="43.23682" lon="5.55761">
        <ele>146</ele>
        <time>2016-07-08T20:29:38Z</time>
      </trkpt>
      <trkpt lat="43.23698" lon="5.55806">
        <ele>148</ele>
        <time>2016-07-08T20:31:38Z</time>
      </trkpt>
      <trkpt lat="43.23701" lon="5.55818">
        <ele>148</ele>
        <time>2016-07-08T20:33:38Z</time>
      </trkpt>
      <trkpt lat="43.23702" lon="5.55824">
        <ele>148</ele>
        <time>2016-07-08T20:35:38Z</time>
      </trkpt>
      <trkpt lat="43.23701" lon="5.55829">
        <ele>148</ele>
        <time>2016-07-08T20:37:38Z</time>
      </trkpt>
      <trkpt lat="43.23696" lon="5.55841">
        <ele>149</ele>
        <time>2016-07-08T20:39:38Z</time>
      </trkpt>
      <trkpt lat="43.23694" lon="5.55846">
        <ele>149</ele>
        <time>2016-07-08T20:41:38Z</time>
      </trkpt>
      <trkpt lat="43.23691" lon="5.55856">
        <ele>150</ele>
        <time>2016-07-08T20:43:38Z</time>
      </trkpt>
      <trkpt lat="43.23688" lon="5.55874">
        <ele>151</ele>
        <time>2016-07-08T20:45:38Z</time>
      </trkpt>
      <trkpt lat="43.23687" lon="5.55882">
        <ele>151</ele>
        <time>2016-07-08T20:47:38Z</time>
      </trkpt>
      <trkpt lat="43.23687" lon="5.5589">
        <ele>151</ele>
        <time>2016-07-08T20:49:38Z</time>
      </trkpt>
      <trkpt lat="43.23689" lon="5.55904">
        <ele>152</ele>
        <time>2016-07-08T20:51:38Z</time>
      </trkpt>
      <trkpt lat="43.23694" lon="5.55921">
        <ele>152</ele>
        <time>2016-07-08T20:53:38Z</time>
      </trkpt>
      <trkpt lat="43.23698" lon="5.5594">
        <ele>153</ele>
        <time>2016-07-08T20:55:38Z</time>
      </trkpt>
      <trkpt lat="43.23698" lon="5.55947">
        <ele>153</ele>
        <time>2016-07-08T20:57:38Z</time>
      </trkpt>
      <trkpt lat="43.23696" lon="5.55955">
        <ele>153</ele>
        <time>2016-07-08T20:59:38Z</time>
      </trkpt>
      <trkpt lat="43.23694" lon="5.55962">
        <ele>153</ele>
        <time>2016-07-08T21:01:38Z</time>
      </trkpt>
      <trkpt lat="43.23687" lon="5.55975">
        <ele>154</ele>
        <time>2016-07-08T21:03:38Z</time>
      </trkpt>
      <trkpt lat="43.23682" lon="5.55979">
        <ele>154</ele>
        <time>2016-07-08T21:05:38Z</time>
      </trkpt>
      <trkpt lat="43.23674" lon="5.55984">
        <ele>154</ele>
        <time>2016-07-08T21:07:38Z</time>
      </trkpt>
      <trkpt lat="43.23647" lon="5.55992">
        <ele>154</ele>
        <time>2016-07-08T21:09:38Z</time>
      </trkpt>
      <trkpt lat="43.2364" lon="5.55995">
        <ele>154</ele>
        <time>2016-07-08T21:11:38Z</time>
      </trkpt>
      <trkpt lat="43.23623" lon="5.56007">
        <ele>154</ele>
        <time>2016-07-08T21:13:38Z</time>
      </trkpt>
      <trkpt lat="43.23605" lon="5.56021">
        <ele>155</ele>
        <time>2016-07-08T21:15:38Z</time>
      </trkpt>
      <trkpt lat="43.23599" lon="5.56026">
        <ele>155</ele>
        <time>2016-07-08T21:17:38Z</time>
      </trkpt>
      <trkpt lat="43.2359" lon="5.56033">
        <ele>155</ele>
        <time>2016-07-08T21:19:38Z</time>
      </trkpt>
      <trkpt lat="43.23585" lon="5.56038">
        <ele>155</ele>
        <time>2016-07-08T21:21:38Z</time>
      </trkpt>
      <trkpt lat="43.23579" lon="5.56045">
        <ele>155</ele>
        <time>2016-07-08T21:23:38Z</time>
      </trkpt>
      <trkpt lat="43.23574" lon="5.56052">
        <ele>156</ele>
        <time>2016-07-08T21:25:38Z</time>
      </trkpt>
      <trkpt lat="43.23568" lon="5.56063">
        <ele>156</ele>
        <time>2016-07-08T21:27:38Z</time>
      </trkpt>
      <trkpt lat="43.23552" lon="5.56094">
        <ele>157</ele>
        <time>2016-07-08T21:29:38Z</time>
      </trkpt>
      <trkpt lat="43.23549" lon="5.561">
        <ele>157</ele>
        <time>2016-07-08T21:31:38Z</time>
      </trkpt>
      <trkpt lat="43.23548" lon="5.56105">
        <ele>158</ele>
        <time>2016-07-08T21:33:38Z</time>
      </trkpt>
      <trkpt lat="43.23548" lon="5.5611">
        <ele>158</ele>
        <time>2016-07-08T21:35:38Z</time>
      </trkpt>
      <trkpt lat="43.23549" lon="5.56116">
        <ele>158</ele>
        <time>2016-07-08T21:37:38Z</time>
      </trkpt>
      <trkpt lat="43.23551" lon="5.56121">
        <ele>158</ele>
        <time>2016-07-08T21:39:38Z</time>
      </trkpt>
      <trkpt lat="43.23553" lon="5.56126">
        <ele>159</ele>
        <time>2016-07-08T21:41:38Z</time>
      </trkpt>
      <trkpt lat="43.23556" lon="5.56129">
        <ele>159</ele>
        <time>2016-07-08T21:43:38Z</time>
      </trkpt>
      <trkpt lat="43.23559" lon="5.56131">
        <ele>159</ele>
        <time>2016-07-08T21:45:38Z</time>
      </trkpt>
      <trkpt lat="43.23563" lon="5.56133">
        <ele>159</ele>
        <time>2016-07-08T21:47:38Z</time>
      </trkpt>
      <trkpt lat="43.23567" lon="5.56134">
        <ele>160</ele>
        <time>2016-07-08T21:49:38Z</time>
      </trkpt>
      <trkpt lat="43.23572" lon="5.56133">
        <ele>160</ele>
        <time>2016-07-08T21:51:38Z</time>
      </trkpt>
      <trkpt lat="43.23577" lon="5.56132">
        <ele>160</ele>
        <time>2016-07-08T21:53:38Z</time>
      </trkpt>
      <trkpt lat="43.23581" lon="5.56131">
        <ele>160</ele>
        <time>2016-07-08T21:55:38Z</time>
      </trkpt>
      <trkpt lat="43.23584" lon="5.5613">
        <ele>160</ele>
        <time>2016-07-08T21:57:38Z</time>
      </trkpt>
      <trkpt lat="43.23588" lon="5.56128">
        <ele>160</ele>
        <time>2016-07-08T21:59:38Z</time>
      </trkpt>
      <trkpt lat="43.2359" lon="5.56128">
        <ele>160</ele>
        <time>2016-07-08T22:01:38Z</time>
      </trkpt>
      <trkpt lat="43.23592" lon="5.56127">
        <ele>161</ele>
        <time>2016-07-08T22:03:38Z</time>
      </trkpt>
      <trkpt lat="43.23595" lon="5.56128">
        <ele>161</ele>
        <time>2016-07-08T22:05:38Z</time>
      </trkpt>
      <trkpt lat="43.23601" lon="5.56129">
        <ele>161</ele>
        <time>2016-07-08T22:07:38Z</time>
      </trkpt>
      <trkpt lat="43.23606" lon="5.56132">
        <ele>162</ele>
        <time>2016-07-08T22:09:38Z</time>
      </trkpt>
      <trkpt lat="43.23619" lon="5.56143">
        <ele>163</ele>
        <time>2016-07-08T22:11:38Z</time>
      </trkpt>
      <trkpt lat="43.2363" lon="5.56151">
        <ele>165</ele>
        <time>2016-07-08T22:13:38Z</time>
      </trkpt>
      <trkpt lat="43.23635" lon="5.56153">
        <ele>165</ele>
        <time>2016-07-08T22:15:38Z</time>
      </trkpt>
      <trkpt lat="43.23639" lon="5.56152">
        <ele>165</ele>
        <time>2016-07-08T22:17:38Z</time>
      </trkpt>
      <trkpt lat="43.23644" lon="5.56151">
        <ele>166</ele>
        <time>2016-07-08T22:19:38Z</time>
      </trkpt>
      <trkpt lat="43.23663" lon="5.56141">
        <ele>166</ele>
        <time>2016-07-08T22:21:38Z</time>
      </trkpt>
      <trkpt lat="43.23672" lon="5.56139">
        <ele>166</ele>
        <time>2016-07-08T22:23:38Z</time>
      </trkpt>
      <trkpt lat="43.23678" lon="5.56139">
        <ele>166</ele>
        <time>2016-07-08T22:25:38Z</time>
      </trkpt>
      <trkpt lat="43.23684" lon="5.56139">
        <ele>167</ele>
        <time>2016-07-08T22:27:38Z</time>
      </trkpt>
      <trkpt lat="43.2369" lon="5.5614">
        <ele>167</ele>
        <time>2016-07-08T22:29:38Z</time>
      </trkpt>
      <trkpt lat="43.23695" lon="5.56142">
        <ele>167</ele>
        <time>2016-07-08T22:31:38Z</time>
      </trkpt>
      <trkpt lat="43.23703" lon="5.56147">
        <ele>169</ele>
        <time>2016-07-08T22:33:38Z</time>
      </trkpt>
      <trkpt lat="43.23709" lon="5.56151">
        <ele>169</ele>
        <time>2016-07-08T22:35:38Z</time>
      </trkpt>
      <trkpt lat="43.23723" lon="5.56164">
        <ele>172</ele>
        <time>2016-07-08T22:37:38Z</time>
      </trkpt>
      <trkpt lat="43.23728" lon="5.56169">
        <ele>173</ele>
        <time>2016-07-08T22:39:38Z</time>
      </trkpt>
      <trkpt lat="43.23736" lon="5.56179">
        <ele>174</ele>
        <time>2016-07-08T22:41:38Z</time>
      </trkpt>
      <trkpt lat="43.2374" lon="5.56186">
        <ele>175</ele>
        <time>2016-07-08T22:43:38Z</time>
      </trkpt>
      <trkpt lat="43.23742" lon="5.5619">
        <ele>175</ele>
        <time>2016-07-08T22:45:38Z</time>
      </trkpt>
      <trkpt lat="43.23744" lon="5.56195">
        <ele>176</ele>
        <time>2016-07-08T22:47:38Z</time>
      </trkpt>
      <trkpt lat="43.23745" lon="5.56199">
        <ele>176</ele>
        <time>2016-07-08T22:49:38Z</time>
      </trkpt>
      <trkpt lat="43.23746" lon="5.56204">
        <ele>176</ele>
        <time>2016-07-08T22:51:38Z</time>
      </trkpt>
      <trkpt lat="43.23747" lon="5.56209">
        <ele>177</ele>
        <time>2016-07-08T22:53:38Z</time>
      </trkpt>
      <trkpt lat="43.23748" lon="5.56213">
        <ele>177</ele>
        <time>2016-07-08T22:55:38Z</time>
      </trkpt>
      <trkpt lat="43.2375" lon="5.56218">
        <ele>178</ele>
        <time>2016-07-08T22:57:38Z</time>
      </trkpt>
      <trkpt lat="43.23752" lon="5.56225">
        <ele>178</ele>
        <time>2016-07-08T22:59:38Z</time>
      </trkpt>
      <trkpt lat="43.23754" lon="5.56228">
        <ele>179</ele>
        <time>2016-07-08T23:01:38Z</time>
      </trkpt>
      <trkpt lat="43.23756" lon="5.5623">
        <ele>179</ele>
        <time>2016-07-08T23:03:38Z</time>
      </trkpt>
      <trkpt lat="43.23758" lon="5.56232">
        <ele>180</ele>
        <time>2016-07-08T23:05:38Z</time>
      </trkpt>
      <trkpt lat="43.23761" lon="5.56234">
        <ele>180</ele>
        <time>2016-07-08T23:07:38Z</time>
      </trkpt>
      <trkpt lat="43.23765" lon="5.56236">
        <ele>181</ele>
        <time>2016-07-08T23:09:38Z</time>
      </trkpt>
      <trkpt lat="43.23772" lon="5.56238">
        <ele>182</ele>
        <time>2016-07-08T23:11:38Z</time>
      </trkpt>
      <trkpt lat="43.23774" lon="5.5624">
        <ele>183</ele>
        <time>2016-07-08T23:13:38Z</time>
      </trkpt>
      <trkpt lat="43.23778" lon="5.56241">
        <ele>183</ele>
        <time>2016-07-08T23:15:38Z</time>
      </trkpt>
      <trkpt lat="43.2378" lon="5.5624">
        <ele>184</ele>
        <time>2016-07-08T23:17:38Z</time>
      </trkpt>
      <trkpt lat="43.23782" lon="5.5624">
        <ele>184</ele>
        <time>2016-07-08T23:19:38Z</time>
      </trkpt>
      <trkpt lat="43.23785" lon="5.5624">
        <ele>184</ele>
        <time>2016-07-08T23:21:38Z</time>
      </trkpt>
      <trkpt lat="43.23788" lon="5.5624">
        <ele>185</ele>
        <time>2016-07-08T23:23:38Z</time>
      </trkpt>
      <trkpt lat="43.23791" lon="5.5624">
        <ele>185</ele>
        <time>2016-07-08T23:25:38Z</time>
      </trkpt>
      <trkpt lat="43.23794" lon="5.56239">
        <ele>185</ele>
        <time>2016-07-08T23:27:38Z</time>
      </trkpt>
      <trkpt lat="43.23796" lon="5.56238">
        <ele>186</ele>
        <time>2016-07-08T23:29:38Z</time>
      </trkpt>
      <trkpt lat="43.23799" lon="5.56236">
        <ele>186</ele>
        <time>2016-07-08T23:31:38Z</time>
      </trkpt>
      <trkpt lat="43.23802" lon="5.56233">
        <ele>186</ele>
        <time>2016-07-08T23:33:38Z</time>
      </trkpt>
      <trkpt lat="43.23806" lon="5.5623">
        <ele>186</ele>
        <time>2016-07-08T23:35:38Z</time>
      </trkpt>
      <trkpt lat="43.2381" lon="5.56226">
        <ele>186</ele>
        <time>2016-07-08T23:37:38Z</time>
      </trkpt>
      <trkpt lat="43.23813" lon="5.56223">
        <ele>185</ele>
        <time>2016-07-08T23:39:38Z</time>
      </trkpt>
      <trkpt lat="43.23817" lon="5.56219">
        <ele>185</ele>
        <time>2016-07-08T23:41:38Z</time>
      </trkpt>
      <trkpt lat="43.23819" lon="5.56217">
        <ele>185</ele>
        <time>2016-07-08T23:43:38Z</time>
      </trkpt>
      <trkpt lat="43.23827" lon="5.56209">
        <ele>185</ele>
        <time>2016-07-08T23:45:38Z</time>
      </trkpt>
      <trkpt lat="43.2383" lon="5.56205">
        <ele>184</ele>
        <time>2016-07-08T23:47:38Z</time>
      </trkpt>
      <trkpt lat="43.23832" lon="5.56203">
        <ele>184</ele>
        <time>2016-07-08T23:49:38Z</time>
      </trkpt>
      <trkpt lat="43.23835" lon="5.56201">
        <ele>184</ele>
        <time>2016-07-08T23:51:38Z</time>
      </trkpt>
      <trkpt lat="43.2384" lon="5.56198">
        <ele>183</ele>
        <time>2016-07-08T23:53:38Z</time>
      </trkpt>
      <trkpt lat="43.23849" lon="5.56194">
        <ele>183</ele>
        <time>2016-07-08T23:55:38Z</time>
      </trkpt>
      <trkpt lat="43.23854" lon="5.56195">
        <ele>183</ele>
        <time>2016-07-08T23:57:38Z</time>
      </trkpt>
      <trkpt lat="43.23861" lon="5.56199">
        <ele>184</ele>
        <time>2016-07-08T23:59:38Z</time>
      </trkpt>
      <trkpt lat="43.23885" lon="5.56213">
        <ele>187</ele>
        <time>2016-07-09T00:01:38Z</time>
      </trkpt>
      <trkpt lat="43.2389" lon="5.56215">
        <ele>187</ele>
        <time>2016-07-09T00:03:38Z</time>
      </trkpt>
      <trkpt lat="43.23902" lon="5.56215">
        <ele>188</ele>
        <time>2016-07-09T00:05:38Z</time>
      </trkpt>
      <trkpt lat="43.23921" lon="5.56213">
        <ele>188</ele>
        <time>2016-07-09T00:07:38Z</time>
      </trkpt>
      <trkpt lat="43.23932" lon="5.56213">
        <ele>188</ele>
        <time>2016-07-09T00:09:38Z</time>
      </trkpt>
      <trkpt lat="43.2394" lon="5.56214">
        <ele>189</ele>
        <time>2016-07-09T00:11:38Z</time>
      </trkpt>
      <trkpt lat="43.23949" lon="5.56216">
        <ele>190</ele>
        <time>2016-07-09T00:13:38Z</time>
      </trkpt>
      <trkpt lat="43.2396" lon="5.56219">
        <ele>191</ele>
        <time>2016-07-09T00:15:38Z</time>
      </trkpt>
      <trkpt lat="43.24035" lon="5.56243">
        <ele>195</ele>
        <time>2016-07-09T00:17:38Z</time>
      </trkpt>
      <trkpt lat="43.24049" lon="5.56249">
        <ele>196</ele>
        <time>2016-07-09T00:19:38Z</time>
      </trkpt>
      <trkpt lat="43.24064" lon="5.5626">
        <ele>197</ele>
        <time>2016-07-09T00:21:38Z</time>
      </trkpt>
      <trkpt lat="43.24069" lon="5.56264">
        <ele>198</ele>
        <time>2016-07-09T00:23:38Z</time>
      </trkpt>
      <trkpt lat="43.24083" lon="5.56272">
        <ele>199</ele>
        <time>2016-07-09T00:25:38Z</time>
      </trkpt>
      <trkpt lat="43.2411" lon="5.56286">
        <ele>202</ele>
        <time>2016-07-09T00:27:38Z</time>
      </trkpt>
      <trkpt lat="43.24124" lon="5.56291">
        <ele>204</ele>
        <time>2016-07-09T00:29:38Z</time>
      </trkpt>
      <trkpt lat="43.24131" lon="5.56292">
        <ele>204</ele>
        <time>2016-07-09T00:31:38Z</time>
      </trkpt>
      <trkpt lat="43.24144" lon="5.56292">
        <ele>205</ele>
        <time>2016-07-09T00:33:38Z</time>
      </trkpt>
      <trkpt lat="43.24159" lon="5.56289">
        <ele>206</ele>
        <time>2016-07-09T00:35:38Z</time>
      </trkpt>
      <trkpt lat="43.2417" lon="5.56284">
        <ele>206</ele>
        <time>2016-07-09T00:37:38Z</time>
      </trkpt>
      <trkpt lat="43.24172" lon="5.56283">
        <ele>206</ele>
        <time>2016-07-09T00:39:38Z</time>
      </trkpt>
      <trkpt lat="43.2418" lon="5.56275">
        <ele>206</ele>
        <time>2016-07-09T00:41:38Z</time>
      </trkpt>
      <trkpt lat="43.24183" lon="5.56271">
        <ele>205</ele>
        <time>2016-07-09T00:43:38Z</time>
      </trkpt>
      <trkpt lat="43.24186" lon="5.56265">
        <ele>205</ele>
        <time>2016-07-09T00:45:38Z</time>
      </trkpt>
      <trkpt lat="43.24187" lon="5.5626">
        <ele>205</ele>
        <time>2016-07-09T00:47:38Z</time>
      </trkpt>
      <trkpt lat="43.24188" lon="5.56257">
        <ele>204</ele>
        <time>2016-07-09T00:49:38Z</time>
      </trkpt>
      <trkpt lat="43.2419" lon="5.56245">
        <ele>204</ele>
        <time>2016-07-09T00:51:38Z</time>
      </trkpt>
      <trkpt lat="43.24191" lon="5.56233">
        <ele>204</ele>
        <time>2016-07-09T00:53:38Z</time>
      </trkpt>
      <trkpt lat="43.24191" lon="5.56206">
        <ele>204</ele>
        <time>2016-07-09T00:55:38Z</time>
      </trkpt>
      <trkpt lat="43.24193" lon="5.56192">
        <ele>204</ele>
        <time>2016-07-09T00:57:38Z</time>
      </trkpt>
      <trkpt lat="43.24197" lon="5.56178">
        <ele>204</ele>
        <time>2016-07-09T00:59:38Z</time>
      </trkpt>
      <trkpt lat="43.24199" lon="5.56173">
        <ele>203</ele>
        <time>2016-07-09T01:01:38Z</time>
      </trkpt>
      <trkpt lat="43.24202" lon="5.5617">
        <ele>203</ele>
        <time>2016-07-09T01:03:38Z</time>
      </trkpt>
      <trkpt lat="43.24206" lon="5.56165">
        <ele>203</ele>
        <time>2016-07-09T01:05:38Z</time>
      </trkpt>
      <trkpt lat="43.2421" lon="5.56162">
        <ele>203</ele>
        <time>2016-07-09T01:07:38Z</time>
      </trkpt>
      <trkpt lat="43.24215" lon="5.5616">
        <ele>203</ele>
        <time>2016-07-09T01:09:38Z</time>
      </trkpt>
      <trkpt lat="43.24222" lon="5.5616">
        <ele>203</ele>
        <time>2016-07-09T01:11:38Z</time>
      </trkpt>
      <trkpt lat="43.24227" lon="5.56162">
        <ele>203</ele>
        <time>2016-07-09T01:13:38Z</time>
      </trkpt>
      <trkpt lat="43.24232" lon="5.56164">
        <ele>204</ele>
        <time>2016-07-09T01:15:38Z</time>
      </trkpt>
      <trkpt lat="43.24236" lon="5.56166">
        <ele>204</ele>
        <time>2016-07-09T01:17:38Z</time>
      </trkpt>
      <trkpt lat="43.24236" lon="5.56167">
        <ele>204</ele>
        <time>2016-07-09T01:19:38Z</time>
      </trkpt>
      <trkpt lat="43.24238" lon="5.56168">
        <ele>204</ele>
        <time>2016-07-09T01:21:38Z</time>
      </trkpt>
      <trkpt lat="43.2424" lon="5.5617">
        <ele>204</ele>
        <time>2016-07-09T01:23:38Z</time>
      </trkpt>
      <trkpt lat="43.24242" lon="5.56173">
        <ele>204</ele>
        <time>2016-07-09T01:25:38Z</time>
      </trkpt>
      <trkpt lat="43.24246" lon="5.56181">
        <ele>205</ele>
        <time>2016-07-09T01:27:38Z</time>
      </trkpt>
      <trkpt lat="43.24249" lon="5.56188">
        <ele>205</ele>
        <time>2016-07-09T01:29:38Z</time>
      </trkpt>
      <trkpt lat="43.24251" lon="5.56195">
        <ele>206</ele>
        <time>2016-07-09T01:31:38Z</time>
      </trkpt>
      <trkpt lat="43.24253" lon="5.562">
        <ele>206</ele>
        <time>2016-07-09T01:33:38Z</time>
      </trkpt>
      <trkpt lat="43.24254" lon="5.56205">
        <ele>206</ele>
        <time>2016-07-09T01:35:38Z</time>
      </trkpt>
      <trkpt lat="43.24255" lon="5.56212">
        <ele>206</ele>
        <time>2016-07-09T01:37:38Z</time>
      </trkpt>
      <trkpt lat="43.24258" lon="5.56224">
        <ele>207</ele>
        <time>2016-07-09T01:39:38Z</time>
      </trkpt>
      <trkpt lat="43.24259" lon="5.56235">
        <ele>207</ele>
        <time>2016-07-09T01:41:38Z</time>
      </trkpt>
      <trkpt lat="43.24261" lon="5.56249">
        <ele>207</ele>
        <time>2016-07-09T01:43:38Z</time>
      </trkpt>
      <trkpt lat="43.24263" lon="5.5627">
        <ele>208</ele>
        <time>2016-07-09T01:45:38Z</time>
      </trkpt>
      <trkpt lat="43.24264" lon="5.56276">
        <ele>208</ele>
        <time>2016-07-09T01:47:38Z</time>
      </trkpt>
      <trkpt lat="43.24265" lon="5.56286">
        <ele>209</ele>
        <time>2016-07-09T01:49:38Z</time>
      </trkpt>
      <trkpt lat="43.24265" lon="5.56293">
        <ele>209</ele>
        <time>2016-07-09T01:51:38Z</time>
      </trkpt>
      <trkpt lat="43.24264" lon="5.56303">
        <ele>210</ele>
        <time>2016-07-09T01:53:38Z</time>
      </trkpt>
      <trkpt lat="43.24264" lon="5.56313">
        <ele>210</ele>
        <time>2016-07-09T01:55:38Z</time>
      </trkpt>
      <trkpt lat="43.24263" lon="5.5632">
        <ele>211</ele>
        <time>2016-07-09T01:57:38Z</time>
      </trkpt>
      <trkpt lat="43.24262" lon="5.5633">
        <ele>211</ele>
        <time>2016-07-09T01:59:38Z</time>
      </trkpt>
      <trkpt lat="43.24263" lon="5.56343">
        <ele>212</ele>
        <time>2016-07-09T02:01:38Z</time>
      </trkpt>
      <trkpt lat="43.24265" lon="5.56349">
        <ele>213</ele>
        <time>2016-07-09T02:03:38Z</time>
      </trkpt>
      <trkpt lat="43.24266" lon="5.56353">
        <ele>213</ele>
        <time>2016-07-09T02:05:38Z</time>
      </trkpt>
      <trkpt lat="43.24267" lon="5.56356">
        <ele>213</ele>
        <time>2016-07-09T02:07:38Z</time>
      </trkpt>
      <trkpt lat="43.24269" lon="5.56361">
        <ele>214</ele>
        <time>2016-07-09T02:09:38Z</time>
      </trkpt>
      <trkpt lat="43.24272" lon="5.56363">
        <ele>213</ele>
        <time>2016-07-09T02:11:38Z</time>
      </trkpt>
      <trkpt lat="43.24274" lon="5.56366">
        <ele>214</ele>
        <time>2016-07-09T02:13:38Z</time>
      </trkpt>
      <trkpt lat="43.24278" lon="5.56369">
        <ele>213</ele>
        <time>2016-07-09T02:15:38Z</time>
      </trkpt>
      <trkpt lat="43.24284" lon="5.56372">
        <ele>213</ele>
        <time>2016-07-09T02:17:38Z</time>
      </trkpt>
      <trkpt lat="43.24288" lon="5.56374">
        <ele>213</ele>
        <time>2016-07-09T02:19:38Z</time>
      </trkpt>
      <trkpt lat="43.24291" lon="5.56375">
        <ele>213</ele>
        <time>2016-07-09T02:21:38Z</time>
      </trkpt>
      <trkpt lat="43.24294" lon="5.56377">
        <ele>212</ele>
        <time>2016-07-09T02:23:38Z</time>
      </trkpt>
      <trkpt lat="43.24296" lon="5.56379">
        <ele>213</ele>
        <time>2016-07-09T02:25:38Z</time>
      </trkpt>
      <trkpt lat="43.24299" lon="5.5638">
        <ele>212</ele>
        <time>2016-07-09T02:27:38Z</time>
      </trkpt>
      <trkpt lat="43.24302" lon="5.56383">
        <ele>212</ele>
        <time>2016-07-09T02:29:38Z</time>
      </trkpt>
      <trkpt lat="43.24306" lon="5.56388">
        <ele>213</ele>
        <time>2016-07-09T02:31:38Z</time>
      </trkpt>
      <trkpt lat="43.24309" lon="5.56391">
        <ele>213</ele>
        <time>2016-07-09T02:33:38Z</time>
      </trkpt>
      <trkpt lat="43.24311" lon="5.56394">
        <ele>213</ele>
        <time>2016-07-09T02:35:38Z</time>
      </trkpt>
      <trkpt lat="43.24313" lon="5.56397">
        <ele>213</ele>
        <time>2016-07-09T02:37:38Z</time>
      </trkpt>
      <trkpt lat="43.24315" lon="5.56401">
        <ele>213</ele>
        <time>2016-07-09T02:39:38Z</time>
      </trkpt>
      <trkpt lat="43.24317" lon="5.56405">
        <ele>214</ele>
        <time>2016-07-09T02:41:38Z</time>
      </trkpt>
      <trkpt lat="43.24319" lon="5.56412">
        <ele>215</ele>
        <time>2016-07-09T02:43:38Z</time>
      </trkpt>
      <trkpt lat="43.24321" lon="5.56418">
        <ele>215</ele>
        <time>2016-07-09T02:45:38Z</time>
      </trkpt>
      <trkpt lat="43.24322" lon="5.5642">
        <ele>215</ele>
        <time>2016-07-09T02:47:38Z</time>
      </trkpt>
      <trkpt lat="43.24324" lon="5.56427">
        <ele>216</ele>
        <time>2016-07-09T02:49:38Z</time>
      </trkpt>
      <trkpt lat="43.24326" lon="5.56435">
        <ele>216</ele>
        <time>2016-07-09T02:51:38Z</time>
      </trkpt>
      <trkpt lat="43.24327" lon="5.56441">
        <ele>216</ele>
        <time>2016-07-09T02:53:38Z</time>
      </trkpt>
      <trkpt lat="43.24328" lon="5.56446">
        <ele>217</ele>
        <time>2016-07-09T02:55:38Z</time>
      </trkpt>
      <trkpt lat="43.2433" lon="5.56452">
        <ele>217</ele>
        <time>2016-07-09T02:57:38Z</time>
      </trkpt>
      <trkpt lat="43.24331" lon="5.56459">
        <ele>217</ele>
        <time>2016-07-09T02:59:38Z</time>
      </trkpt>
      <trkpt lat="43.24332" lon="5.56464">
        <ele>218</ele>
        <time>2016-07-09T03:01:38Z</time>
      </trkpt>
      <trkpt lat="43.24333" lon="5.56469">
        <ele>218</ele>
        <time>2016-07-09T03:03:38Z</time>
      </trkpt>
      <trkpt lat="43.24334" lon="5.56477">
        <ele>218</ele>
        <time>2016-07-09T03:05:38Z</time>
      </trkpt>
      <trkpt lat="43.24335" lon="5.56483">
        <ele>219</ele>
        <time>2016-07-09T03:07:38Z</time>
      </trkpt>
      <trkpt lat="43.24336" lon="5.56486">
        <ele>219</ele>
        <time>2016-07-09T03:09:38Z</time>
      </trkpt>
      <trkpt lat="43.24337" lon="5.56492">
        <ele>219</ele>
        <time>2016-07-09T03:11:38Z</time>
      </trkpt>
      <trkpt lat="43.24338" lon="5.56501">
        <ele>220</ele>
        <time>2016-07-09T03:13:38Z</time>
      </trkpt>
      <trkpt lat="43.2434" lon="5.56515">
        <ele>221</ele>
        <time>2016-07-09T03:15:38Z</time>
      </trkpt>
      <trkpt lat="43.24341" lon="5.56522">
        <ele>222</ele>
        <time>2016-07-09T03:17:38Z</time>
      </trkpt>
      <trkpt lat="43.24342" lon="5.56528">
        <ele>222</ele>
        <time>2016-07-09T03:19:38Z</time>
      </trkpt>
      <trkpt lat="43.24342" lon="5.56532">
        <ele>223</ele>
        <time>2016-07-09T03:21:38Z</time>
      </trkpt>
      <trkpt lat="43.24343" lon="5.56536">
        <ele>223</ele>
        <time>2016-07-09T03:23:38Z</time>
      </trkpt>
      <trkpt lat="43.24345" lon="5.56546">
        <ele>224</ele>
        <time>2016-07-09T03:25:38Z</time>
      </trkpt>
      <trkpt lat="43.24349" lon="5.56562">
        <ele>225</ele>
        <time>2016-07-09T03:27:38Z</time>
      </trkpt>
      <trkpt lat="43.2435" lon="5.56565">
        <ele>225</ele>
        <time>2016-07-09T03:29:38Z</time>
      </trkpt>
      <trkpt lat="43.24352" lon="5.56571">
        <ele>225</ele>
        <time>2016-07-09T03:31:38Z</time>
      </trkpt>
      <trkpt lat="43.24355" lon="5.56578">
        <ele>226</ele>
        <time>2016-07-09T03:33:38Z</time>
      </trkpt>
      <trkpt lat="43.24357" lon="5.56583">
        <ele>226</ele>
        <time>2016-07-09T03:35:38Z</time>
      </trkpt>
      <trkpt lat="43.24359" lon="5.56585">
        <ele>226</ele>
        <time>2016-07-09T03:37:38Z</time>
      </trkpt>
      <trkpt lat="43.24362" lon="5.56589">
        <ele>227</ele>
        <time>2016-07-09T03:39:38Z</time>
      </trkpt>
      <trkpt lat="43.24365" lon="5.56593">
        <ele>228</ele>
        <time>2016-07-09T03:41:38Z</time>
      </trkpt>
      <trkpt lat="43.24368" lon="5.56597">
        <ele>228</ele>
        <time>2016-07-09T03:43:38Z</time>
      </trkpt>
      <trkpt lat="43.24381" lon="5.56611">
        <ele>230</ele>
        <time>2016-07-09T03:45:38Z</time>
      </trkpt>
      <trkpt lat="43.24393" lon="5.56622">
        <ele>231</ele>
        <time>2016-07-09T03:47:38Z</time>
      </trkpt>
      <trkpt lat="43.24401" lon="5.56628">
        <ele>231</ele>
        <time>2016-07-09T03:49:38Z</time>
      </trkpt>
      <trkpt lat="43.24404" lon="5.56629">
        <ele>231</ele>
        <time>2016-07-09T03:51:38Z</time>
      </trkpt>
      <trkpt lat="43.24408" lon="5.56631">
        <ele>231</ele>
        <time>2016-07-09T03:53:38Z</time>
      </trkpt>
      <trkpt lat="43.24415" lon="5.56634">
        <ele>231</ele>
        <time>2016-07-09T03:55:38Z</time>
      </trkpt>
      <trkpt lat="43.2442" lon="5.56636">
        <ele>231</ele>
        <time>2016-07-09T03:57:38Z</time>
      </trkpt>
      <trkpt lat="43.24425" lon="5.56639">
        <ele>231</ele>
        <time>2016-07-09T03:59:38Z</time>
      </trkpt>
      <trkpt lat="43.24431" lon="5.56646">
        <ele>231</ele>
        <time>2016-07-09T04:01:38Z</time>
      </trkpt>
      <trkpt lat="43.24434" lon="5.56649">
        <ele>231</ele>
        <time>2016-07-09T04:03:38Z</time>
      </trkpt>
      <trkpt lat="43.24436" lon="5.56652">
        <ele>232</ele>
        <time>2016-07-09T04:05:38Z</time>
      </trkpt>
      <trkpt lat="43.24439" lon="5.56655">
        <ele>232</ele>
        <time>2016-07-09T04:07:38Z</time>
      </trkpt>
      <trkpt lat="43.2444" lon="5.56658">
        <ele>232</ele>
        <time>2016-07-09T04:09:38Z</time>
      </trkpt>
      <trkpt lat="43.24442" lon="5.56662">
        <ele>232</ele>
        <time>2016-07-09T04:11:38Z</time>
      </trkpt>
      <trkpt lat="43.24445" lon="5.56667">
        <ele>232</ele>
        <time>2016-07-09T04:13:38Z</time>
      </trkpt>
      <trkpt lat="43.24446" lon="5.56671">
        <ele>232</ele>
        <time>2016-07-09T04:15:38Z</time>
      </trkpt>
      <trkpt lat="43.24447" lon="5.56674">
        <ele>233</ele>
        <time>2016-07-09T04:17:38Z</time>
      </trkpt>
      <trkpt lat="43.24449" lon="5.56679">
        <ele>233</ele>
        <time>2016-07-09T04:19:38Z</time>
      </trkpt>
      <trkpt lat="43.24449" lon="5.56681">
        <ele>233</ele>
        <time>2016-07-09T04:21:38Z</time>
      </trkpt>
      <trkpt lat="43.2445" lon="5.56684">
        <ele>233</ele>
        <time>2016-07-09T04:23:38Z</time>
      </trkpt>
      <trkpt lat="43.2445" lon="5.56688">
        <ele>233</ele>
        <time>2016-07-09T04:25:38Z</time>
      </trkpt>
      <trkpt lat="43.24451" lon="5.56693">
        <ele>233</ele>
        <time>2016-07-09T04:27:38Z</time>
      </trkpt>
      <trkpt lat="43.24451" lon="5.56698">
        <ele>234</ele>
        <time>2016-07-09T04:29:38Z</time>
      </trkpt>
      <trkpt lat="43.24452" lon="5.56705">
        <ele>234</ele>
        <time>2016-07-09T04:31:38Z</time>
      </trkpt>
      <trkpt lat="43.24453" lon="5.5671">
        <ele>234</ele>
        <time>2016-07-09T04:33:38Z</time>
      </trkpt>
      <trkpt lat="43.24453" lon="5.56715">
        <ele>234</ele>
        <time>2016-07-09T04:35:38Z</time>
      </trkpt>
      <trkpt lat="43.24454" lon="5.56718">
        <ele>234</ele>
        <time>2016-07-09T04:37:38Z</time>
      </trkpt>
      <trkpt lat="43.24454" lon="5.56721">
        <ele>235</ele>
        <time>2016-07-09T04:39:38Z</time>
      </trkpt>
      <trkpt lat="43.24457" lon="5.56731">
        <ele>235</ele>
        <time>2016-07-09T04:41:38Z</time>
      </trkpt>
      <trkpt lat="43.24459" lon="5.56739">
        <ele>235</ele>
        <time>2016-07-09T04:43:38Z</time>
      </trkpt>
      <trkpt lat="43.24463" lon="5.56752">
        <ele>235</ele>
        <time>2016-07-09T04:45:38Z</time>
      </trkpt>
      <trkpt lat="43.24466" lon="5.5676">
        <ele>235</ele>
        <time>2016-07-09T04:47:38Z</time>
      </trkpt>
      <trkpt lat="43.24471" lon="5.5677">
        <ele>235</ele>
        <time>2016-07-09T04:49:38Z</time>
      </trkpt>
      <trkpt lat="43.24474" lon="5.56778">
        <ele>235</ele>
        <time>2016-07-09T04:51:38Z</time>
      </trkpt>
      <trkpt lat="43.24479" lon="5.56787">
        <ele>234</ele>
        <time>2016-07-09T04:53:38Z</time>
      </trkpt>
      <trkpt lat="43.24484" lon="5.56798">
        <ele>233</ele>
        <time>2016-07-09T04:55:38Z</time>
      </trkpt>
      <trkpt lat="43.24489" lon="5.56805">
        <ele>233</ele>
        <time>2016-07-09T04:57:38Z</time>
      </trkpt>
      <trkpt lat="43.24492" lon="5.56811">
        <ele>232</ele>
        <time>2016-07-09T04:59:38Z</time>
      </trkpt>
      <trkpt lat="43.24499" lon="5.56822">
        <ele>231</ele>
        <time>2016-07-09T05:01:38Z</time>
      </trkpt>
      <trkpt lat="43.2451" lon="5.5684">
        <ele>231</ele>
        <time>2016-07-09T05:03:38Z</time>
      </trkpt>
      <trkpt lat="43.24525" lon="5.56864">
        <ele>233</ele>
        <time>2016-07-09T05:05:38Z</time>
      </trkpt>
      <trkpt lat="43.24535" lon="5.56882">
        <ele>234</ele>
        <time>2016-07-09T05:07:38Z</time>
      </trkpt>
      <trkpt lat="43.24542" lon="5.56891">
        <ele>234</ele>
        <time>2016-07-09T05:09:38Z</time>
      </trkpt>
      <trkpt lat="43.24546" lon="5.56898">
        <ele>235</ele>
        <time>2016-07-09T05:11:38Z</time>
      </trkpt>
      <trkpt lat="43.24549" lon="5.56901">
        <ele>235</ele>
        <time>2016-07-09T05:13:38Z</time>
      </trkpt>
      <trkpt lat="43.24551" lon="5.56903">
        <ele>235</ele>
        <time>2016-07-09T05:15:38Z</time>
      </trkpt>
      <trkpt lat="43.24555" lon="5.56908">
        <ele>235</ele>
        <time>2016-07-09T05:17:38Z</time>
      </trkpt>
      <trkpt lat="43.24558" lon="5.56911">
        <ele>235</ele>
        <time>2016-07-09T05:19:38Z</time>
      </trkpt>
      <trkpt lat="43.24561" lon="5.56914">
        <ele>235</ele>
        <time>2016-07-09T05:21:38Z</time>
      </trkpt>
      <trkpt lat="43.24566" lon="5.56917">
        <ele>234</ele>
        <time>2016-07-09T05:23:38Z</time>
      </trkpt>
      <trkpt lat="43.24567" lon="5.56917">
        <ele>234</ele>
        <time>2016-07-09T05:25:38Z</time>
      </trkpt>
      <trkpt lat="43.24568" lon="5.56917">
        <ele>234</ele>
        <time>2016-07-09T05:27:38Z</time>
      </trkpt>
      <trkpt lat="43.24571" lon="5.56917">
        <ele>234</ele>
        <time>2016-07-09T05:29:38Z</time>
      </trkpt>
      <trkpt lat="43.24574" lon="5.56917">
        <ele>234</ele>
        <time>2016-07-09T05:31:38Z</time>
      </trkpt>
      <trkpt lat="43.24578" lon="5.56917">
        <ele>233</ele>
        <time>2016-07-09T05:33:38Z</time>
      </trkpt>
      <trkpt lat="43.24582" lon="5.56916">
        <ele>233</ele>
        <time>2016-07-09T05:35:38Z</time>
      </trkpt>
      <trkpt lat="43.24586" lon="5.56916">
        <ele>233</ele>
        <time>2016-07-09T05:37:38Z</time>
      </trkpt>
      <trkpt lat="43.24589" lon="5.56917">
        <ele>233</ele>
        <time>2016-07-09T05:39:38Z</time>
      </trkpt>
      <trkpt lat="43.24593" lon="5.56918">
        <ele>233</ele>
        <time>2016-07-09T05:41:38Z</time>
      </trkpt>
      <trkpt lat="43.24595" lon="5.56918">
        <ele>234</ele>
        <time>2016-07-09T05:43:38Z</time>
      </trkpt>
      <trkpt lat="43.24598" lon="5.5692">
        <ele>234</ele>
        <time>2016-07-09T05:45:38Z</time>
      </trkpt>
      <trkpt lat="43.246" lon="5.56921">
        <ele>234</ele>
        <time>2016-07-09T05:47:38Z</time>
      </trkpt>
      <trkpt lat="43.24602" lon="5.56923">
        <ele>234</ele>
        <time>2016-07-09T05:49:38Z</time>
      </trkpt>
      <trkpt lat="43.24603" lon="5.56925">
        <ele>234</ele>
        <time>2016-07-09T05:51:38Z</time>
      </trkpt>
      <trkpt lat="43.24605" lon="5.56927">
        <ele>234</ele>
        <time>2016-07-09T05:53:38Z</time>
      </trkpt>
      <trkpt lat="43.24608" lon="5.56935">
        <ele>235</ele>
        <time>2016-07-09T05:55:38Z</time>
      </trkpt>
      <trkpt lat="43.24609" lon="5.56938">
        <ele>235</ele>
        <time>2016-07-09T05:57:38Z</time>
      </trkpt>
      <trkpt lat="43.2461" lon="5.56941">
        <ele>235</ele>
        <time>2016-07-09T05:59:38Z</time>
      </trkpt>
      <trkpt lat="43.24611" lon="5.56945">
        <ele>235</ele>
        <time>2016-07-09T06:01:38Z</time>
      </trkpt>
      <trkpt lat="43.24612" lon="5.56952">
        <ele>236</ele>
        <time>2016-07-09T06:03:38Z</time>
      </trkpt>
      <trkpt lat="43.24613" lon="5.56957">
        <ele>236</ele>
        <time>2016-07-09T06:05:38Z</time>
      </trkpt>
      <trkpt lat="43.24613" lon="5.56961">
        <ele>236</ele>
        <time>2016-07-09T06:07:38Z</time>
      </trkpt>
      <trkpt lat="43.24615" lon="5.5697">
        <ele>236</ele>
        <time>2016-07-09T06:09:38Z</time>
      </trkpt>
      <trkpt lat="43.24616" lon="5.56979">
        <ele>237</ele>
        <time>2016-07-09T06:11:38Z</time>
      </trkpt>
      <trkpt lat="43.24618" lon="5.56989">
        <ele>237</ele>
        <time>2016-07-09T06:13:38Z</time>
      </trkpt>
      <trkpt lat="43.2462" lon="5.56997">
        <ele>237</ele>
        <time>2016-07-09T06:15:38Z</time>
      </trkpt>
      <trkpt lat="43.24621" lon="5.57004">
        <ele>238</ele>
        <time>2016-07-09T06:17:38Z</time>
      </trkpt>
      <trkpt lat="43.24623" lon="5.57014">
        <ele>238</ele>
        <time>2016-07-09T06:19:38Z</time>
      </trkpt>
      <trkpt lat="43.24624" lon="5.57018">
        <ele>239</ele>
        <time>2016-07-09T06:21:38Z</time>
      </trkpt>
      <trkpt lat="43.24626" lon="5.57024">
        <ele>239</ele>
        <time>2016-07-09T06:23:38Z</time>
      </trkpt>
      <trkpt lat="43.24629" lon="5.57032">
        <ele>240</ele>
        <time>2016-07-09T06:25:38Z</time>
      </trkpt>
      <trkpt lat="43.24631" lon="5.57036">
        <ele>240</ele>
        <time>2016-07-09T06:27:38Z</time>
      </trkpt>
      <trkpt lat="43.24634" lon="5.57041">
        <ele>240</ele>
        <time>2016-07-09T06:29:38Z</time>
      </trkpt>
      <trkpt lat="43.24637" lon="5.57045">
        <ele>240</ele>
        <time>2016-07-09T06:31:38Z</time>
      </trkpt>
      <trkpt lat="43.24639" lon="5.57048">
        <ele>240</ele>
        <time>2016-07-09T06:33:38Z</time>
      </trkpt>
      <trkpt lat="43.24641" lon="5.57051">
        <ele>241</ele>
        <time>2016-07-09T06:35:38Z</time>
      </trkpt>
      <trkpt lat="43.24645" lon="5.57054">
        <ele>241</ele>
        <time>2016-07-09T06:37:38Z</time>
      </trkpt>
      <trkpt lat="43.24646" lon="5.57055">
        <ele>241</ele>
        <time>2016-07-09T06:39:38Z</time>
      </trkpt>
      <trkpt lat="43.24649" lon="5.57057">
        <ele>241</ele>
        <time>2016-07-09T06:41:38Z</time>
      </trkpt>
      <trkpt lat="43.24652" lon="5.57059">
        <ele>241</ele>
        <time>2016-07-09T06:43:38Z</time>
      </trkpt>
      <trkpt lat="43.24655" lon="5.57061">
        <ele>241</ele>
        <time>2016-07-09T06:45:38Z</time>
      </trkpt>
      <trkpt lat="43.24658" lon="5.57062">
        <ele>240</ele>
        <time>2016-07-09T06:47:38Z</time>
      </trkpt>
      <trkpt lat="43.24663" lon="5.57064">
        <ele>240</ele>
        <time>2016-07-09T06:49:38Z</time>
      </trkpt>
      <trkpt lat="43.24667" lon="5.57065">
        <ele>240</ele>
        <time>2016-07-09T06:51:38Z</time>
      </trkpt>
      <trkpt lat="43.2467" lon="5.57065">
        <ele>240</ele>
        <time>2016-07-09T06:53:38Z</time>
      </trkpt>
      <trkpt lat="43.24674" lon="5.57066">
        <ele>240</ele>
        <time>2016-07-09T06:55:38Z</time>
      </trkpt>
      <trkpt lat="43.24677" lon="5.57066">
        <ele>240</ele>
        <time>2016-07-09T06:57:38Z</time>
      </trkpt>
      <trkpt lat="43.24689" lon="5.57067">
        <ele>240</ele>
        <time>2016-07-09T06:59:38Z</time>
      </trkpt>
      <trkpt lat="43.24694" lon="5.57068">
        <ele>240</ele>
        <time>2016-07-09T07:01:38Z</time>
      </trkpt>
      <trkpt lat="43.24699" lon="5.57069">
        <ele>240</ele>
        <time>2016-07-09T07:03:38Z</time>
      </trkpt>
      <trkpt lat="43.24703" lon="5.57069">
        <ele>240</ele>
        <time>2016-07-09T07:05:38Z</time>
      </trkpt>
      <trkpt lat="43.24705" lon="5.5707">
        <ele>240</ele>
        <time>2016-07-09T07:07:38Z</time>
      </trkpt>
      <trkpt lat="43.24708" lon="5.57071">
        <ele>240</ele>
        <time>2016-07-09T07:09:38Z</time>
      </trkpt>
      <trkpt lat="43.24709" lon="5.57073">
        <ele>240</ele>
        <time>2016-07-09T07:11:38Z</time>
      </trkpt>
      <trkpt lat="43.24711" lon="5.57074">
        <ele>240</ele>
        <time>2016-07-09T07:13:38Z</time>
      </trkpt>
      <trkpt lat="43.24713" lon="5.57076">
        <ele>240</ele>
        <time>2016-07-09T07:15:38Z</time>
      </trkpt>
      <trkpt lat="43.24718" lon="5.5708">
        <ele>239</ele>
        <time>2016-07-09T07:17:38Z</time>
      </trkpt>
      <trkpt lat="43.24723" lon="5.57088">
        <ele>239</ele>
        <time>2016-07-09T07:19:38Z</time>
      </trkpt>
      <trkpt lat="43.24725" lon="5.57093">
        <ele>239</ele>
        <time>2016-07-09T07:21:38Z</time>
      </trkpt>
      <trkpt lat="43.24726" lon="5.57097">
        <ele>240</ele>
        <time>2016-07-09T07:23:38Z</time>
      </trkpt>
      <trkpt lat="43.24727" lon="5.57105">
        <ele>240</ele>
        <time>2016-07-09T07:25:38Z</time>
      </trkpt>
      <trkpt lat="43.24728" lon="5.57111">
        <ele>240</ele>
        <time>2016-07-09T07:27:38Z</time>
      </trkpt>
      <trkpt lat="43.24731" lon="5.57128">
        <ele>240</ele>
        <time>2016-07-09T07:29:38Z</time>
      </trkpt>
      <trkpt lat="43.24732" lon="5.57132">
        <ele>240</ele>
        <time>2016-07-09T07:31:38Z</time>
      </trkpt>
      <trkpt lat="43.24733" lon="5.57146">
        <ele>241</ele>
        <time>2016-07-09T07:33:38Z</time>
      </trkpt>
      <trkpt lat="43.24737" lon="5.57176">
        <ele>242</ele>
        <time>2016-07-09T07:35:38Z</time>
      </trkpt>
      <trkpt lat="43.24737" lon="5.57178">
        <ele>242</ele>
        <time>2016-07-09T07:37:38Z</time>
      </trkpt>
      <trkpt lat="43.24737" lon="5.57181">
        <ele>242</ele>
        <time>2016-07-09T07:39:38Z</time>
      </trkpt>
      <trkpt lat="43.24738" lon="5.57186">
        <ele>242</ele>
        <time>2016-07-09T07:41:38Z</time>
      </trkpt>
      <trkpt lat="43.24738" lon="5.572">
        <ele>242</ele>
        <time>2016-07-09T07:43:38Z</time>
      </trkpt>
      <trkpt lat="43.24739" lon="5.57213">
        <ele>243</ele>
        <time>2016-07-09T07:45:38Z</time>
      </trkpt>
      <trkpt lat="43.24739" lon="5.57224">
        <ele>243</ele>
        <time>2016-07-09T07:47:38Z</time>
      </trkpt>
      <trkpt lat="43.2474" lon="5.57234">
        <ele>244</ele>
        <time>2016-07-09T07:49:38Z</time>
      </trkpt>
      <trkpt lat="43.2474" lon="5.57246">
        <ele>244</ele>
        <time>2016-07-09T07:51:38Z</time>
      </trkpt>
      <trkpt lat="43.24741" lon="5.57292">
        <ele>247</ele>
        <time>2016-07-09T07:53:38Z</time>
      </trkpt>
      <trkpt lat="43.24741" lon="5.57297">
        <ele>247</ele>
        <time>2016-07-09T07:55:38Z</time>
      </trkpt>
      <trkpt lat="43.24741" lon="5.57304">
        <ele>248</ele>
        <time>2016-07-09T07:57:38Z</time>
      </trkpt>
      <trkpt lat="43.24741" lon="5.57309">
        <ele>248</ele>
        <time>2016-07-09T07:59:38Z</time>
      </trkpt>
      <trkpt lat="43.24741" lon="5.57314">
        <ele>248</ele>
        <time>2016-07-09T08:01:38Z</time>
      </trkpt>
      <trkpt lat="43.2474" lon="5.5732">
        <ele>249</ele>
        <time>2016-07-09T08:03:38Z</time>
      </trkpt>
      <trkpt lat="43.24739" lon="5.57324">
        <ele>249</ele>
        <time>2016-07-09T08:05:38Z</time>
      </trkpt>
      <trkpt lat="43.24738" lon="5.57329">
        <ele>250</ele>
        <time>2016-07-09T08:07:38Z</time>
      </trkpt>
      <trkpt lat="43.24731" lon="5.57346">
        <ele>251</ele>
        <time>2016-07-09T08:09:38Z</time>
      </trkpt>
      <trkpt lat="43.24728" lon="5.57356">
        <ele>252</ele>
        <time>2016-07-09T08:11:38Z</time>
      </trkpt>
      <trkpt lat="43.24726" lon="5.57361">
        <ele>253</ele>
        <time>2016-07-09T08:13:38Z</time>
      </trkpt>
      <trkpt lat="43.24726" lon="5.57366">
        <ele>253</ele>
        <time>2016-07-09T08:15:38Z</time>
      </trkpt>
      <trkpt lat="43.24726" lon="5.57373">
        <ele>253</ele>
        <time>2016-07-09T08:17:38Z</time>
      </trkpt>
      <trkpt lat="43.24726" lon="5.57377">
        <ele>254</ele>
        <time>2016-07-09T08:19:38Z</time>
      </trkpt>
      <trkpt lat="43.24726" lon="5.57381">
        <ele>254</ele>
        <time>2016-07-09T08:21:38Z</time>
      </trkpt>
      <trkpt lat="43.24728" lon="5.57388">
        <ele>254</ele>
        <time>2016-07-09T08:23:38Z</time>
      </trkpt>
      <trkpt lat="43.24729" lon="5.57394">
        <ele>255</ele>
        <time>2016-07-09T08:25:38Z</time>
      </trkpt>
      <trkpt lat="43.24731" lon="5.57399">
        <ele>255</ele>
        <time>2016-07-09T08:27:38Z</time>
      </trkpt>
      <trkpt lat="43.24735" lon="5.57411">
        <ele>255</ele>
        <time>2016-07-09T08:29:38Z</time>
      </trkpt>
      <trkpt lat="43.24738" lon="5.57417">
        <ele>255</ele>
        <time>2016-07-09T08:31:38Z</time>
      </trkpt>
      <trkpt lat="43.24742" lon="5.57424">
        <ele>254</ele>
        <time>2016-07-09T08:33:38Z</time>
      </trkpt>
      <trkpt lat="43.24749" lon="5.57438">
        <ele>254</ele>
        <time>2016-07-09T08:35:38Z</time>
      </trkpt>
      <trkpt lat="43.24752" lon="5.57445">
        <ele>254</ele>
        <time>2016-07-09T08:37:38Z</time>
      </trkpt>
      <trkpt lat="43.2476" lon="5.57451">
        <ele>253</ele>
        <time>2016-07-09T08:39:38Z</time>
      </trkpt>
      <trkpt lat="43.24766" lon="5.57454">
        <ele>253</ele>
        <time>2016-07-09T08:41:38Z</time>
      </trkpt>
      <trkpt lat="43.24771" lon="5.57457">
        <ele>253</ele>
        <time>2016-07-09T08:43:38Z</time>
      </trkpt>
      <trkpt lat="43.24775" lon="5.5746">
        <ele>253</ele>
        <time>2016-07-09T08:45:38Z</time>
      </trkpt>
      <trkpt lat="43.24779" lon="5.57462">
        <ele>252</ele>
        <time>2016-07-09T08:47:38Z</time>
      </trkpt>
      <trkpt lat="43.24782" lon="5.57466">
        <ele>252</ele>
        <time>2016-07-09T08:49:38Z</time>
      </trkpt>
      <trkpt lat="43.24786" lon="5.57471">
        <ele>252</ele>
        <time>2016-07-09T08:51:38Z</time>
      </trkpt>
      <trkpt lat="43.24788" lon="5.57475">
        <ele>252</ele>
        <time>2016-07-09T08:53:38Z</time>
      </trkpt>
      <trkpt lat="43.2479" lon="5.57477">
        <ele>252</ele>
        <time>2016-07-09T08:55:38Z</time>
      </trkpt>
      <trkpt lat="43.24791" lon="5.5748">
        <ele>252</ele>
        <time>2016-07-09T08:57:38Z</time>
      </trkpt>
      <trkpt lat="43.24792" lon="5.57483">
        <ele>252</ele>
        <time>2016-07-09T08:59:38Z</time>
      </trkpt>
      <trkpt lat="43.24793" lon="5.57487">
        <ele>252</ele>
        <time>2016-07-09T09:01:38Z</time>
      </trkpt>
      <trkpt lat="43.24793" lon="5.57493">
        <ele>252</ele>
        <time>2016-07-09T09:03:38Z</time>
      </trkpt>
      <trkpt lat="43.24793" lon="5.57497">
        <ele>252</ele>
        <time>2016-07-09T09:05:38Z</time>
      </trkpt>
      <trkpt lat="43.24793" lon="5.57501">
        <ele>252</ele>
        <time>2016-07-09T09:07:38Z</time>
      </trkpt>
      <trkpt lat="43.24792" lon="5.57506">
        <ele>252</ele>
        <time>2016-07-09T09:09:38Z</time>
      </trkpt>
      <trkpt lat="43.2479" lon="5.5751">
        <ele>252</ele>
        <time>2016-07-09T09:11:38Z</time>
      </trkpt>
      <trkpt lat="43.24788" lon="5.57515">
        <ele>252</ele>
        <time>2016-07-09T09:13:38Z</time>
      </trkpt>
      <trkpt lat="43.24784" lon="5.57521">
        <ele>252</ele>
        <time>2016-07-09T09:15:38Z</time>
      </trkpt>
      <trkpt lat="43.2478" lon="5.57525">
        <ele>252</ele>
        <time>2016-07-09T09:17:38Z</time>
      </trkpt>
      <trkpt lat="43.24777" lon="5.57529">
        <ele>252</ele>
        <time>2016-07-09T09:19:38Z</time>
      </trkpt>
      <trkpt lat="43.24774" lon="5.57533">
        <ele>253</ele>
        <time>2016-07-09T09:21:38Z</time>
      </trkpt>
      <trkpt lat="43.2477" lon="5.57537">
        <ele>253</ele>
        <time>2016-07-09T09:23:38Z</time>
      </trkpt>
      <trkpt lat="43.24767" lon="5.57542">
        <ele>253</ele>
        <time>2016-07-09T09:25:38Z</time>
      </trkpt>
      <trkpt lat="43.24765" lon="5.57544">
        <ele>253</ele>
        <time>2016-07-09T09:27:38Z</time>
      </trkpt>
      <trkpt lat="43.24763" lon="5.57548">
        <ele>253</ele>
        <time>2016-07-09T09:29:38Z</time>
      </trkpt>
      <trkpt lat="43.24762" lon="5.5755">
        <ele>253</ele>
        <time>2016-07-09T09:31:38Z</time>
      </trkpt>
      <trkpt lat="43.24761" lon="5.57554">
        <ele>253</ele>
        <time>2016-07-09T09:33:38Z</time>
      </trkpt>
      <trkpt lat="43.24759" lon="5.57558">
        <ele>253</ele>
        <time>2016-07-09T09:35:38Z</time>
      </trkpt>
      <trkpt lat="43.24757" lon="5.57565">
        <ele>254</ele>
        <time>2016-07-09T09:37:38Z</time>
      </trkpt>
      <trkpt lat="43.24758" lon="5.57571">
        <ele>253</ele>
        <time>2016-07-09T09:39:38Z</time>
      </trkpt>
      <trkpt lat="43.24759" lon="5.57579">
        <ele>253</ele>
        <time>2016-07-09T09:41:38Z</time>
      </trkpt>
      <trkpt lat="43.24761" lon="5.57586">
        <ele>253</ele>
        <time>2016-07-09T09:43:38Z</time>
      </trkpt>
      <trkpt lat="43.24764" lon="5.57593">
        <ele>253</ele>
        <time>2016-07-09T09:45:38Z</time>
      </trkpt>
      <trkpt lat="43.24767" lon="5.57597">
        <ele>253</ele>
        <time>2016-07-09T09:47:38Z</time>
      </trkpt>
      <trkpt lat="43.2477" lon="5.57602">
        <ele>253</ele>
        <time>2016-07-09T09:49:38Z</time>
      </trkpt>
      <trkpt lat="43.24773" lon="5.57608">
        <ele>253</ele>
        <time>2016-07-09T09:51:38Z</time>
      </trkpt>
      <trkpt lat="43.24777" lon="5.57614">
        <ele>252</ele>
        <time>2016-07-09T09:53:38Z</time>
      </trkpt>
      <trkpt lat="43.24781" lon="5.57623">
        <ele>252</ele>
        <time>2016-07-09T09:55:38Z</time>
      </trkpt>
      <trkpt lat="43.24782" lon="5.5763">
        <ele>252</ele>
        <time>2016-07-09T09:57:38Z</time>
      </trkpt>
      <trkpt lat="43.24783" lon="5.57636">
        <ele>253</ele>
        <time>2016-07-09T09:59:38Z</time>
      </trkpt>
      <trkpt lat="43.24784" lon="5.57644">
        <ele>253</ele>
        <time>2016-07-09T10:01:38Z</time>
      </trkpt>
      <trkpt lat="43.24784" lon="5.57653">
        <ele>253</ele>
        <time>2016-07-09T10:03:38Z</time>
      </trkpt>
      <trkpt lat="43.24784" lon="5.57664">
        <ele>254</ele>
        <time>2016-07-09T10:05:38Z</time>
      </trkpt>
      <trkpt lat="43.24783" lon="5.57672">
        <ele>254</ele>
        <time>2016-07-09T10:07:38Z</time>
      </trkpt>
      <trkpt lat="43.24783" lon="5.57682">
        <ele>254</ele>
        <time>2016-07-09T10:09:38Z</time>
      </trkpt>
      <trkpt lat="43.24784" lon="5.57707">
        <ele>255</ele>
        <time>2016-07-09T10:11:38Z</time>
      </trkpt>
      <trkpt lat="43.24784" lon="5.57717">
        <ele>255</ele>
        <time>2016-07-09T10:13:38Z</time>
      </trkpt>
      <trkpt lat="43.24784" lon="5.57735">
        <ele>255</ele>
        <time>2016-07-09T10:15:38Z</time>
      </trkpt>
      <trkpt lat="43.24784" lon="5.57738">
        <ele>255</ele>
        <time>2016-07-09T10:17:38Z</time>
      </trkpt>
      <trkpt lat="43.24784" lon="5.57742">
        <ele>255</ele>
        <time>2016-07-09T10:19:38Z</time>
      </trkpt>
      <trkpt lat="43.24784" lon="5.57749">
        <ele>255</ele>
        <time>2016-07-09T10:21:38Z</time>
      </trkpt>
      <trkpt lat="43.24783" lon="5.57768">
        <ele>256</ele>
        <time>2016-07-09T10:23:38Z</time>
      </trkpt>
      <trkpt lat="43.24783" lon="5.57776">
        <ele>256</ele>
        <time>2016-07-09T10:25:38Z</time>
      </trkpt>
      <trkpt lat="43.24782" lon="5.57792">
        <ele>256</ele>
        <time>2016-07-09T10:27:38Z</time>
      </trkpt>
      <trkpt lat="43.24781" lon="5.57798">
        <ele>256</ele>
        <time>2016-07-09T10:29:38Z</time>
      </trkpt>
      <trkpt lat="43.24778" lon="5.57859">
        <ele>257</ele>
        <time>2016-07-09T10:31:38Z</time>
      </trkpt>
      <trkpt lat="43.24776" lon="5.57892">
        <ele>257</ele>
        <time>2016-07-09T10:33:38Z</time>
      </trkpt>
      <trkpt lat="43.24774" lon="5.57926">
        <ele>257</ele>
        <time>2016-07-09T10:35:38Z</time>
      </trkpt>
      <trkpt lat="43.24774" lon="5.57932">
        <ele>258</ele>
        <time>2016-07-09T10:37:38Z</time>
      </trkpt>
      <trkpt lat="43.24773" lon="5.5794">
        <ele>258</ele>
        <time>2016-07-09T10:39:38Z</time>
      </trkpt>
      <trkpt lat="43.24771" lon="5.5795">
        <ele>258</ele>
        <time>2016-07-09T10:41:38Z</time>
      </trkpt>
      <trkpt lat="43.2477" lon="5.57962">
        <ele>259</ele>
        <time>2016-07-09T10:43:38Z</time>
      </trkpt>
      <trkpt lat="43.24768" lon="5.57973">
        <ele>259</ele>
        <time>2016-07-09T10:45:38Z</time>
      </trkpt>
      <trkpt lat="43.24767" lon="5.57979">
        <ele>260</ele>
        <time>2016-07-09T10:47:38Z</time>
      </trkpt>
      <trkpt lat="43.24764" lon="5.57994">
        <ele>260</ele>
        <time>2016-07-09T10:49:38Z</time>
      </trkpt>
      <trkpt lat="43.24759" lon="5.58021">
        <ele>260</ele>
        <time>2016-07-09T10:51:38Z</time>
      </trkpt>
      <trkpt lat="43.24756" lon="5.58036">
        <ele>260</ele>
        <time>2016-07-09T10:53:38Z</time>
      </trkpt>
      <trkpt lat="43.24749" lon="5.58075">
        <ele>260</ele>
        <time>2016-07-09T10:55:38Z</time>
      </trkpt>
      <trkpt lat="43.24745" lon="5.581">
        <ele>260</ele>
        <time>2016-07-09T10:57:38Z</time>
      </trkpt>
      <trkpt lat="43.24733" lon="5.58172">
        <ele>259</ele>
        <time>2016-07-09T10:59:38Z</time>
      </trkpt>
      <trkpt lat="43.24731" lon="5.58188">
        <ele>260</ele>
        <time>2016-07-09T11:01:38Z</time>
      </trkpt>
      <trkpt lat="43.24727" lon="5.58206">
        <ele>261</ele>
        <time>2016-07-09T11:03:38Z</time>
      </trkpt>
      <trkpt lat="43.24725" lon="5.58214">
        <ele>262</ele>
        <time>2016-07-09T11:05:38Z</time>
      </trkpt>
      <trkpt lat="43.24723" lon="5.58221">
        <ele>262</ele>
        <time>2016-07-09T11:07:38Z</time>
      </trkpt>
      <trkpt lat="43.24716" lon="5.58231">
        <ele>262</ele>
        <time>2016-07-09T11:09:38Z</time>
      </trkpt>
      <trkpt lat="43.24688" lon="5.58299">
        <ele>263</ele>
        <time>2016-07-09T11:11:38Z</time>
      </trkpt>
      <trkpt lat="43.24686" lon="5.58307">
        <ele>263</ele>
        <time>2016-07-09T11:13:38Z</time>
      </trkpt>
      <trkpt lat="43.24684" lon="5.58314">
        <ele>263</ele>
        <time>2016-07-09T11:15:38Z</time>
      </trkpt>
      <trkpt lat="43.24683" lon="5.5832">
        <ele>263</ele>
        <time>2016-07-09T11:17:38Z</time>
      </trkpt>
      <trkpt lat="43.24682" lon="5.58332">
        <ele>263</ele>
        <time>2016-07-09T11:19:38Z</time>
      </trkpt>
      <trkpt lat="43.24681" lon="5.58343">
        <ele>264</ele>
        <time>2016-07-09T11:21:38Z</time>
      </trkpt>
      <trkpt lat="43.24681" lon="5.58377">
        <ele>266</ele>
        <time>2016-07-09T11:23:38Z</time>
      </trkpt>
      <trkpt lat="43.24681" lon="5.58393">
        <ele>266</ele>
        <time>2016-07-09T11:25:38Z</time>
      </trkpt>
      <trkpt lat="43.2468" lon="5.58474">
        <ele>268</ele>
        <time>2016-07-09T11:27:38Z</time>
      </trkpt>
      <trkpt lat="43.24677" lon="5.58495">
        <ele>268</ele>
        <time>2016-07-09T11:29:38Z</time>
      </trkpt>
      <trkpt lat="43.24674" lon="5.58496">
        <ele>268</ele>
        <time>2016-07-09T11:31:38Z</time>
      </trkpt>
      <trkpt lat="43.24672" lon="5.58497">
        <ele>268</ele>
        <time>2016-07-09T11:33:38Z</time>
      </trkpt>
      <trkpt lat="43.24671" lon="5.58499">
        <ele>268</ele>
        <time>2016-07-09T11:35:38Z</time>
      </trkpt>
      <trkpt lat="43.2467" lon="5.58503">
        <ele>268</ele>
        <time>2016-07-09T11:37:38Z</time>
      </trkpt>
      <trkpt lat="43.24669" lon="5.58506">
        <ele>268</ele>
        <time>2016-07-09T11:39:38Z</time>
      </trkpt>
      <trkpt lat="43.24668" lon="5.58508">
        <ele>268</ele>
        <time>2016-07-09T11:41:38Z</time>
      </trkpt>
      <trkpt lat="43.24669" lon="5.58513">
        <ele>268</ele>
        <time>2016-07-09T11:43:38Z</time>
      </trkpt>
      <trkpt lat="43.24669" lon="5.58517">
        <ele>268</ele>
        <time>2016-07-09T11:45:38Z</time>
      </trkpt>
      <trkpt lat="43.2467" lon="5.5852">
        <ele>268</ele>
        <time>2016-07-09T11:47:38Z</time>
      </trkpt>
      <trkpt lat="43.24671" lon="5.58521">
        <ele>268</ele>
        <time>2016-07-09T11:49:38Z</time>
      </trkpt>
      <trkpt lat="43.24673" lon="5.58523">
        <ele>268</ele>
        <time>2016-07-09T11:51:38Z</time>
      </trkpt>
      <trkpt lat="43.24676" lon="5.58524">
        <ele>268</ele>
        <time>2016-07-09T11:53:38Z</time>
      </trkpt>
      <trkpt lat="43.2468" lon="5.58536">
        <ele>268</ele>
        <time>2016-07-09T11:55:38Z</time>
      </trkpt>
      <trkpt lat="43.24682" lon="5.58544">
        <ele>268</ele>
        <time>2016-07-09T11:57:38Z</time>
      </trkpt>
      <trkpt lat="43.24684" lon="5.58549">
        <ele>268</ele>
        <time>2016-07-09T11:59:38Z</time>
      </trkpt>
      <trkpt lat="43.2469" lon="5.58629">
        <ele>270</ele>
        <time>2016-07-09T12:01:38Z</time>
      </trkpt>
      <trkpt lat="43.24698" lon="5.58739">
        <ele>272</ele>
        <time>2016-07-09T12:03:38Z</time>
      </trkpt>
      <trkpt lat="43.24709" lon="5.58869">
        <ele>274</ele>
        <time>2016-07-09T12:05:38Z</time>
      </trkpt>
      <trkpt lat="43.24712" lon="5.58892">
        <ele>274</ele>
        <time>2016-07-09T12:07:38Z</time>
      </trkpt>
      <trkpt lat="43.24715" lon="5.58909">
        <ele>275</ele>
        <time>2016-07-09T12:09:38Z</time>
      </trkpt>
      <trkpt lat="43.24716" lon="5.58921">
        <ele>275</ele>
        <time>2016-07-09T12:11:38Z</time>
      </trkpt>
      <trkpt lat="43.24723" lon="5.58979">
        <ele>277</ele>
        <time>2016-07-09T12:13:38Z</time>
      </trkpt>
      <trkpt lat="43.24724" lon="5.58989">
        <ele>277</ele>
        <time>2016-07-09T12:15:38Z</time>
      </trkpt>
      <trkpt lat="43.24724" lon="5.58994">
        <ele>277</ele>
        <time>2016-07-09T12:17:38Z</time>
      </trkpt>
      <trkpt lat="43.24732" lon="5.59073">
        <ele>278</ele>
        <time>2016-07-09T12:19:38Z</time>
      </trkpt>
      <trkpt lat="43.24736" lon="5.59113">
        <ele>278</ele>
        <time>2016-07-09T12:21:38Z</time>
      </trkpt>
      <trkpt lat="43.24741" lon="5.59153">
        <ele>278</ele>
        <time>2016-07-09T12:23:38Z</time>
      </trkpt>
      <trkpt lat="43.24745" lon="5.59185">
        <ele>278</ele>
        <time>2016-07-09T12:25:38Z</time>
      </trkpt>
      <trkpt lat="43.24749" lon="5.59219">
        <ele>279</ele>
        <time>2016-07-09T12:27:38Z</time>
      </trkpt>
      <trkpt lat="43.2475" lon="5.59235">
        <ele>279</ele>
        <time>2016-07-09T12:29:38Z</time>
      </trkpt>
      <trkpt lat="43.24751" lon="5.59244">
        <ele>279</ele>
        <time>2016-07-09T12:31:38Z</time>
      </trkpt>
      <trkpt lat="43.24751" lon="5.59269">
        <ele>279</ele>
        <time>2016-07-09T12:33:38Z</time>
      </trkpt>
      <trkpt lat="43.24751" lon="5.59282">
        <ele>279</ele>
        <time>2016-07-09T12:35:38Z</time>
      </trkpt>
      <trkpt lat="43.2475" lon="5.59288">
        <ele>279</ele>
        <time>2016-07-09T12:37:38Z</time>
      </trkpt>
      <trkpt lat="43.24749" lon="5.59303">
        <ele>279</ele>
        <time>2016-07-09T12:39:38Z</time>
      </trkpt>
      <trkpt lat="43.24744" lon="5.59351">
        <ele>279</ele>
        <time>2016-07-09T12:41:38Z</time>
      </trkpt>
      <trkpt lat="43.24739" lon="5.59388">
        <ele>278</ele>
        <time>2016-07-09T12:43:38Z</time>
      </trkpt>
      <trkpt lat="43.24737" lon="5.59417">
        <ele>278</ele>
        <time>2016-07-09T12:45:38Z</time>
      </trkpt>
      <trkpt lat="43.24736" lon="5.59432">
        <ele>278</ele>
        <time>2016-07-09T12:47:38Z</time>
      </trkpt>
      <trkpt lat="43.24735" lon="5.59449">
        <ele>278</ele>
        <time>2016-07-09T12:49:38Z</time>
      </trkpt>
      <trkpt lat="43.24735" lon="5.59462">
        <ele>278</ele>
        <time>2016-07-09T12:51:38Z</time>
      </trkpt>
      <trkpt lat="43.24736" lon="5.59473">
        <ele>277</ele>
        <time>2016-07-09T12:53:38Z</time>
      </trkpt>
      <trkpt lat="43.24736" lon="5.59488">
        <ele>277</ele>
        <time>2016-07-09T12:55:38Z</time>
      </trkpt>
      <trkpt lat="43.24737" lon="5.59498">
        <ele>277</ele>
        <time>2016-07-09T12:57:38Z</time>
      </trkpt>
      <trkpt lat="43.24738" lon="5.59511">
        <ele>277</ele>
        <time>2016-07-09T12:59:38Z</time>
      </trkpt>
      <trkpt lat="43.2474" lon="5.59532">
        <ele>277</ele>
        <time>2016-07-09T13:01:38Z</time>
      </trkpt>
      <trkpt lat="43.24742" lon="5.59548">
        <ele>277</ele>
        <time>2016-07-09T13:03:38Z</time>
      </trkpt>
      <trkpt lat="43.24743" lon="5.59554">
        <ele>276</ele>
        <time>2016-07-09T13:05:38Z</time>
      </trkpt>
      <trkpt lat="43.24743" lon="5.59556">
        <ele>276</ele>
        <time>2016-07-09T13:07:38Z</time>
      </trkpt>
      <trkpt lat="43.24746" lon="5.59577">
        <ele>276</ele>
        <time>2016-07-09T13:09:38Z</time>
      </trkpt>
      <trkpt lat="43.24745" lon="5.59585">
        <ele>276</ele>
        <time>2016-07-09T13:11:38Z</time>
      </trkpt>
      <trkpt lat="43.24748" lon="5.59604">
        <ele>276</ele>
        <time>2016-07-09T13:13:38Z</time>
      </trkpt>
      <trkpt lat="43.24759" lon="5.59702">
        <ele>275</ele>
        <time>2016-07-09T13:15:38Z</time>
      </trkpt>
      <trkpt lat="43.2476" lon="5.59712">
        <ele>274</ele>
        <time>2016-07-09T13:17:38Z</time>
      </trkpt>
      <trkpt lat="43.24763" lon="5.5973">
        <ele>274</ele>
        <time>2016-07-09T13:19:38Z</time>
      </trkpt>
      <trkpt lat="43.24765" lon="5.5974">
        <ele>273</ele>
        <time>2016-07-09T13:21:38Z</time>
      </trkpt>
      <trkpt lat="43.24767" lon="5.59749">
        <ele>273</ele>
        <time>2016-07-09T13:23:38Z</time>
      </trkpt>
      <trkpt lat="43.2477" lon="5.59761">
        <ele>273</ele>
        <time>2016-07-09T13:25:38Z</time>
      </trkpt>
      <trkpt lat="43.24771" lon="5.59762">
        <ele>273</ele>
        <time>2016-07-09T13:27:38Z</time>
      </trkpt>
      <trkpt lat="43.24775" lon="5.59775">
        <ele>273</ele>
        <time>2016-07-09T13:29:38Z</time>
      </trkpt>
      <trkpt lat="43.2478" lon="5.59787">
        <ele>273</ele>
        <time>2016-07-09T13:31:38Z</time>
      </trkpt>
      <trkpt lat="43.24785" lon="5.59798">
        <ele>272</ele>
        <time>2016-07-09T13:33:38Z</time>
      </trkpt>
      <trkpt lat="43.24785" lon="5.59798">
        <ele>272</ele>
        <time>2016-07-09T13:35:38Z</time>
      </trkpt>
      <trkpt lat="43.24799" lon="5.59838">
        <ele>272</ele>
        <time>2016-07-09T13:37:38Z</time>
      </trkpt>
      <trkpt lat="43.248" lon="5.59843">
        <ele>272</ele>
        <time>2016-07-09T13:39:38Z</time>
      </trkpt>
      <trkpt lat="43.24817" lon="5.59884">
        <ele>272</ele>
        <time>2016-07-09T13:41:38Z</time>
      </trkpt>
      <trkpt lat="43.2483" lon="5.59916">
        <ele>272</ele>
        <time>2016-07-09T13:43:38Z</time>
      </trkpt>
      <trkpt lat="43.24851" lon="5.59971">
        <ele>272</ele>
        <time>2016-07-09T13:45:38Z</time>
      </trkpt>
      <trkpt lat="43.24858" lon="5.59992">
        <ele>271</ele>
        <time>2016-07-09T13:47:38Z</time>
      </trkpt>
      <trkpt lat="43.24868" lon="5.60017">
        <ele>272</ele>
        <time>2016-07-09T13:49:38Z</time>
      </trkpt>
      <trkpt lat="43.24871" lon="5.60026">
        <ele>272</ele>
        <time>2016-07-09T13:51:38Z</time>
      </trkpt>
      <trkpt lat="43.24872" lon="5.60039">
        <ele>272</ele>
        <time>2016-07-09T13:53:38Z</time>
      </trkpt>
      <trkpt lat="43.24873" lon="5.60053">
        <ele>271</ele>
        <time>2016-07-09T13:55:38Z</time>
      </trkpt>
      <trkpt lat="43.24872" lon="5.6007">
        <ele>271</ele>
        <time>2016-07-09T13:57:38Z</time>
      </trkpt>
      <trkpt lat="43.24867" lon="5.60122">
        <ele>270</ele>
        <time>2016-07-09T13:59:38Z</time>
      </trkpt>
      <trkpt lat="43.24866" lon="5.60165">
        <ele>271</ele>
        <time>2016-07-09T14:01:38Z</time>
      </trkpt>
      <trkpt lat="43.24868" lon="5.60232">
        <ele>273</ele>
        <time>2016-07-09T14:03:38Z</time>
      </trkpt>
      <trkpt lat="43.24868" lon="5.60232">
        <ele>273</ele>
        <time>2016-07-09T14:05:38Z</time>
      </trkpt>
      <trkpt lat="43.24876" lon="5.60227">
        <ele>274</ele>
        <time>2016-07-09T14:07:38Z</time>
      </trkpt>
      <trkpt lat="43.24877" lon="5.60225">
        <ele>274</ele>
        <time>2016-07-09T14:09:38Z</time>
      </trkpt>
      <trkpt lat="43.2488" lon="5.60223">
        <ele>274</ele>
        <time>2016-07-09T14:11:38Z</time>
      </trkpt>
      <trkpt lat="43.24885" lon="5.60219">
        <ele>274</ele>
        <time>2016-07-09T14:13:38Z</time>
      </trkpt>
      <trkpt lat="43.24898" lon="5.60206">
        <ele>274</ele>
        <time>2016-07-09T14:15:38Z</time>
      </trkpt>
      <trkpt lat="43.24913" lon="5.60192">
        <ele>275</ele>
        <time>2016-07-09T14:17:38Z</time>
      </trkpt>
      <trkpt lat="43.2492" lon="5.60187">
        <ele>275</ele>
        <time>2016-07-09T14:19:38Z</time>
      </trkpt>
      <trkpt lat="43.24927" lon="5.60181">
        <ele>275</ele>
        <time>2016-07-09T14:21:38Z</time>
      </trkpt>
      <trkpt lat="43.24935" lon="5.60176">
        <ele>274</ele>
        <time>2016-07-09T14:23:38Z</time>
      </trkpt>
      <trkpt lat="43.24941" lon="5.60172">
        <ele>274</ele>
        <time>2016-07-09T14:25:38Z</time>
      </trkpt>
      <trkpt lat="43.24949" lon="5.60169">
        <ele>274</ele>
        <time>2016-07-09T14:27:38Z</time>
      </trkpt>
      <trkpt lat="43.24957" lon="5.60166">
        <ele>274</ele>
        <time>2016-07-09T14:29:38Z</time>
      </trkpt>
      <trkpt lat="43.24963" lon="5.60165">
        <ele>275</ele>
        <time>2016-07-09T14:31:38Z</time>
      </trkpt>
      <trkpt lat="43.24969" lon="5.60164">
        <ele>275</ele>
        <time>2016-07-09T14:33:38Z</time>
      </trkpt>
      <trkpt lat="43.24974" lon="5.60163">
        <ele>275</ele>
        <time>2016-07-09T14:35:38Z</time>
      </trkpt>
      <trkpt lat="43.24979" lon="5.60163">
        <ele>275</ele>
        <time>2016-07-09T14:37:38Z</time>
      </trkpt>
      <trkpt lat="43.24983" lon="5.60162">
        <ele>276</ele>
        <time>2016-07-09T14:39:38Z</time>
      </trkpt>
      <trkpt lat="43.24987" lon="5.60162">
        <ele>276</ele>
        <time>2016-07-09T14:41:38Z</time>
      </trkpt>
      <trkpt lat="43.2499" lon="5.60162">
        <ele>276</ele>
        <time>2016-07-09T14:43:38Z</time>
      </trkpt>
      <trkpt lat="43.25004" lon="5.60161">
        <ele>276</ele>
        <time>2016-07-09T14:45:38Z</time>
      </trkpt>
      <trkpt lat="43.25025" lon="5.60159">
        <ele>277</ele>
        <time>2016-07-09T14:47:38Z</time>
      </trkpt>
      <trkpt lat="43.25033" lon="5.60157">
        <ele>277</ele>
        <time>2016-07-09T14:49:38Z</time>
      </trkpt>
      <trkpt lat="43.25039" lon="5.60155">
        <ele>277</ele>
        <time>2016-07-09T14:51:38Z</time>
      </trkpt>
      <trkpt lat="43.25044" lon="5.60153">
        <ele>277</ele>
        <time>2016-07-09T14:53:38Z</time>
      </trkpt>
      <trkpt lat="43.25048" lon="5.60152">
        <ele>277</ele>
        <time>2016-07-09T14:55:38Z</time>
      </trkpt>
      <trkpt lat="43.25067" lon="5.60144">
        <ele>278</ele>
        <time>2016-07-09T14:57:38Z</time>
      </trkpt>
      <trkpt lat="43.2507" lon="5.60142">
        <ele>278</ele>
        <time>2016-07-09T14:59:38Z</time>
      </trkpt>
      <trkpt lat="43.25074" lon="5.6014">
        <ele>278</ele>
        <time>2016-07-09T15:01:38Z</time>
      </trkpt>
      <trkpt lat="43.25082" lon="5.60135">
        <ele>278</ele>
        <time>2016-07-09T15:03:38Z</time>
      </trkpt>
      <trkpt lat="43.2509" lon="5.6013">
        <ele>278</ele>
        <time>2016-07-09T15:05:38Z</time>
      </trkpt>
      <trkpt lat="43.25095" lon="5.60127">
        <ele>278</ele>
        <time>2016-07-09T15:07:38Z</time>
      </trkpt>
      <trkpt lat="43.25096" lon="5.60126">
        <ele>278</ele>
        <time>2016-07-09T15:09:38Z</time>
      </trkpt>
      <trkpt lat="43.25098" lon="5.60125">
        <ele>278</ele>
        <time>2016-07-09T15:11:38Z</time>
      </trkpt>
      <trkpt lat="43.25104" lon="5.60122">
        <ele>277</ele>
        <time>2016-07-09T15:13:38Z</time>
      </trkpt>
      <trkpt lat="43.2511" lon="5.60118">
        <ele>277</ele>
        <time>2016-07-09T15:15:38Z</time>
      </trkpt>
      <trkpt lat="43.25126" lon="5.60108">
        <ele>276</ele>
        <time>2016-07-09T15:17:38Z</time>
      </trkpt>
      <trkpt lat="43.25133" lon="5.60104">
        <ele>276</ele>
        <time>2016-07-09T15:19:38Z</time>
      </trkpt>
      <trkpt lat="43.25138" lon="5.60102">
        <ele>275</ele>
        <time>2016-07-09T15:21:38Z</time>
      </trkpt>
      <trkpt lat="43.25162" lon="5.60093">
        <ele>273</ele>
        <time>2016-07-09T15:23:38Z</time>
      </trkpt>
      <trkpt lat="43.25176" lon="5.60088">
        <ele>271</ele>
        <time>2016-07-09T15:25:38Z</time>
      </trkpt>
      <trkpt lat="43.25188" lon="5.60083">
        <ele>270</ele>
        <time>2016-07-09T15:27:38Z</time>
      </trkpt>
      <trkpt lat="43.25198" lon="5.60079">
        <ele>269</ele>
        <time>2016-07-09T15:29:38Z</time>
      </trkpt>
      <trkpt lat="43.25206" lon="5.60075">
        <ele>269</ele>
        <time>2016-07-09T15:31:38Z</time>
      </trkpt>
      <trkpt lat="43.25211" lon="5.60073">
        <ele>269</ele>
        <time>2016-07-09T15:33:38Z</time>
      </trkpt>
      <trkpt lat="43.25221" lon="5.60068">
        <ele>268</ele>
        <time>2016-07-09T15:35:38Z</time>
      </trkpt>
      <trkpt lat="43.25229" lon="5.60064">
        <ele>267</ele>
        <time>2016-07-09T15:37:38Z</time>
      </trkpt>
      <trkpt lat="43.25234" lon="5.60061">
        <ele>267</ele>
        <time>2016-07-09T15:39:38Z</time>
      </trkpt>
      <trkpt lat="43.25239" lon="5.60058">
        <ele>267</ele>
        <time>2016-07-09T15:41:38Z</time>
      </trkpt>
      <trkpt lat="43.25243" lon="5.60053">
        <ele>267</ele>
        <time>2016-07-09T15:43:38Z</time>
      </trkpt>
      <trkpt lat="43.2525" lon="5.60047">
        <ele>266</ele>
        <time>2016-07-09T15:45:38Z</time>
      </trkpt>
      <trkpt lat="43.25258" lon="5.60042">
        <ele>267</ele>
        <time>2016-07-09T15:47:38Z</time>
      </trkpt>
      <trkpt lat="43.25265" lon="5.60038">
        <ele>268</ele>
        <time>2016-07-09T15:49:38Z</time>
      </trkpt>
      <trkpt lat="43.25268" lon="5.60036">
        <ele>268</ele>
        <time>2016-07-09T15:51:38Z</time>
      </trkpt>
      <trkpt lat="43.25273" lon="5.60032">
        <ele>268</ele>
        <time>2016-07-09T15:53:38Z</time>
      </trkpt>
      <trkpt lat="43.25279" lon="5.60026">
        <ele>268</ele>
        <time>2016-07-09T15:55:38Z</time>
      </trkpt>
      <trkpt lat="43.25283" lon="5.60022">
        <ele>268</ele>
        <time>2016-07-09T15:57:38Z</time>
      </trkpt>
      <trkpt lat="43.25285" lon="5.60018">
        <ele>267</ele>
        <time>2016-07-09T15:59:38Z</time>
      </trkpt>
      <trkpt lat="43.25295" lon="5.60004">
        <ele>266</ele>
        <time>2016-07-09T16:01:38Z</time>
      </trkpt>
      <trkpt lat="43.253" lon="5.59996">
        <ele>266</ele>
        <time>2016-07-09T16:03:38Z</time>
      </trkpt>
      <trkpt lat="43.25307" lon="5.59985">
        <ele>266</ele>
        <time>2016-07-09T16:05:38Z</time>
      </trkpt>
      <trkpt lat="43.25312" lon="5.59976">
        <ele>266</ele>
        <time>2016-07-09T16:07:38Z</time>
      </trkpt>
      <trkpt lat="43.25316" lon="5.59967">
        <ele>266</ele>
        <time>2016-07-09T16:09:38Z</time>
      </trkpt>
      <trkpt lat="43.25323" lon="5.59953">
        <ele>265</ele>
        <time>2016-07-09T16:11:38Z</time>
      </trkpt>
      <trkpt lat="43.25326" lon="5.59949">
        <ele>265</ele>
        <time>2016-07-09T16:13:38Z</time>
      </trkpt>
      <trkpt lat="43.25329" lon="5.59944">
        <ele>264</ele>
        <time>2016-07-09T16:15:38Z</time>
      </trkpt>
      <trkpt lat="43.25333" lon="5.59941">
        <ele>263</ele>
        <time>2016-07-09T16:17:38Z</time>
      </trkpt>
      <trkpt lat="43.25334" lon="5.5994">
        <ele>263</ele>
        <time>2016-07-09T16:19:38Z</time>
      </trkpt>
      <trkpt lat="43.25337" lon="5.59938">
        <ele>263</ele>
        <time>2016-07-09T16:21:38Z</time>
      </trkpt>
      <trkpt lat="43.25338" lon="5.59937">
        <ele>263</ele>
        <time>2016-07-09T16:23:38Z</time>
      </trkpt>
      <trkpt lat="43.25341" lon="5.59937">
        <ele>263</ele>
        <time>2016-07-09T16:25:38Z</time>
      </trkpt>
      <trkpt lat="43.25343" lon="5.59936">
        <ele>263</ele>
        <time>2016-07-09T16:27:38Z</time>
      </trkpt>
      <trkpt lat="43.25345" lon="5.59937">
        <ele>263</ele>
        <time>2016-07-09T16:29:38Z</time>
      </trkpt>
      <trkpt lat="43.25347" lon="5.59937">
        <ele>263</ele>
        <time>2016-07-09T16:31:38Z</time>
      </trkpt>
      <trkpt lat="43.25351" lon="5.59938">
        <ele>263</ele>
        <time>2016-07-09T16:33:38Z</time>
      </trkpt>
      <trkpt lat="43.25357" lon="5.5994">
        <ele>263</ele>
        <time>2016-07-09T16:35:38Z</time>
      </trkpt>
      <trkpt lat="43.2536" lon="5.59942">
        <ele>263</ele>
        <time>2016-07-09T16:37:38Z</time>
      </trkpt>
      <trkpt lat="43.25363" lon="5.59943">
        <ele>263</ele>
        <time>2016-07-09T16:39:38Z</time>
      </trkpt>
      <trkpt lat="43.25368" lon="5.59946">
        <ele>263</ele>
        <time>2016-07-09T16:41:38Z</time>
      </trkpt>
      <trkpt lat="43.25375" lon="5.59949">
        <ele>263</ele>
        <time>2016-07-09T16:43:38Z</time>
      </trkpt>
      <trkpt lat="43.25381" lon="5.59952">
        <ele>263</ele>
        <time>2016-07-09T16:45:38Z</time>
      </trkpt>
      <trkpt lat="43.25388" lon="5.59955">
        <ele>264</ele>
        <time>2016-07-09T16:47:38Z</time>
      </trkpt>
      <trkpt lat="43.2539" lon="5.59956">
        <ele>264</ele>
        <time>2016-07-09T16:49:38Z</time>
      </trkpt>
      <trkpt lat="43.25393" lon="5.59956">
        <ele>264</ele>
        <time>2016-07-09T16:51:38Z</time>
      </trkpt>
      <trkpt lat="43.25395" lon="5.59956">
        <ele>264</ele>
        <time>2016-07-09T16:53:38Z</time>
      </trkpt>
      <trkpt lat="43.25397" lon="5.59955">
        <ele>264</ele>
        <time>2016-07-09T16:55:38Z</time>
      </trkpt>
      <trkpt lat="43.25399" lon="5.59954">
        <ele>264</ele>
        <time>2016-07-09T16:57:38Z</time>
      </trkpt>
      <trkpt lat="43.25401" lon="5.59953">
        <ele>264</ele>
        <time>2016-07-09T16:59:38Z</time>
      </trkpt>
      <trkpt lat="43.25403" lon="5.59951">
        <ele>263</ele>
        <time>2016-07-09T17:01:38Z</time>
      </trkpt>
      <trkpt lat="43.25405" lon="5.59949">
        <ele>263</ele>
        <time>2016-07-09T17:03:38Z</time>
      </trkpt>
      <trkpt lat="43.25406" lon="5.59946">
        <ele>263</ele>
        <time>2016-07-09T17:05:38Z</time>
      </trkpt>
      <trkpt lat="43.25407" lon="5.59944">
        <ele>262</ele>
        <time>2016-07-09T17:07:38Z</time>
      </trkpt>
      <trkpt lat="43.25408" lon="5.59941">
        <ele>262</ele>
        <time>2016-07-09T17:09:38Z</time>
      </trkpt>
      <trkpt lat="43.25408" lon="5.59938">
        <ele>262</ele>
        <time>2016-07-09T17:11:38Z</time>
      </trkpt>
      <trkpt lat="43.25409" lon="5.59935">
        <ele>261</ele>
        <time>2016-07-09T17:13:38Z</time>
      </trkpt>
      <trkpt lat="43.25409" lon="5.59932">
        <ele>261</ele>
        <time>2016-07-09T17:15:38Z</time>
      </trkpt>
      <trkpt lat="43.25409" lon="5.59929">
        <ele>260</ele>
        <time>2016-07-09T17:17:38Z</time>
      </trkpt>
      <trkpt lat="43.25409" lon="5.59926">
        <ele>260</ele>
        <time>2016-07-09T17:19:38Z</time>
      </trkpt>
      <trkpt lat="43.25408" lon="5.59919">
        <ele>259</ele>
        <time>2016-07-09T17:21:38Z</time>
      </trkpt>
      <trkpt lat="43.25408" lon="5.59912">
        <ele>259</ele>
        <time>2016-07-09T17:23:38Z</time>
      </trkpt>
      <trkpt lat="43.25408" lon="5.59905">
        <ele>261</ele>
        <time>2016-07-09T17:25:38Z</time>
      </trkpt>
      <trkpt lat="43.25408" lon="5.599">
        <ele>261</ele>
        <time>2016-07-09T17:27:38Z</time>
      </trkpt>
      <trkpt lat="43.25408" lon="5.59897">
        <ele>262</ele>
        <time>2016-07-09T17:29:38Z</time>
      </trkpt>
      <trkpt lat="43.25409" lon="5.59894">
        <ele>262</ele>
        <time>2016-07-09T17:31:38Z</time>
      </trkpt>
      <trkpt lat="43.2541" lon="5.59892">
        <ele>262</ele>
        <time>2016-07-09T17:33:38Z</time>
      </trkpt>
      <trkpt lat="43.25411" lon="5.5989">
        <ele>263</ele>
        <time>2016-07-09T17:35:38Z</time>
      </trkpt>
      <trkpt lat="43.25412" lon="5.59887">
        <ele>263</ele>
        <time>2016-07-09T17:37:38Z</time>
      </trkpt>
      <trkpt lat="43.25413" lon="5.59885">
        <ele>263</ele>
        <time>2016-07-09T17:39:38Z</time>
      </trkpt>
      <trkpt lat="43.25415" lon="5.59883">
        <ele>263</ele>
        <time>2016-07-09T17:41:38Z</time>
      </trkpt>
      <trkpt lat="43.25417" lon="5.59882">
        <ele>263</ele>
        <time>2016-07-09T17:43:38Z</time>
      </trkpt>
      <trkpt lat="43.25419" lon="5.59882">
        <ele>263</ele>
        <time>2016-07-09T17:45:38Z</time>
      </trkpt>
      <trkpt lat="43.25426" lon="5.59882">
        <ele>262</ele>
        <time>2016-07-09T17:47:38Z</time>
      </trkpt>
      <trkpt lat="43.25439" lon="5.59882">
        <ele>261</ele>
        <time>2016-07-09T17:49:38Z</time>
      </trkpt>
      <trkpt lat="43.25443" lon="5.59881">
        <ele>261</ele>
        <time>2016-07-09T17:51:38Z</time>
      </trkpt>
      <trkpt lat="43.25445" lon="5.5988">
        <ele>261</ele>
        <time>2016-07-09T17:53:38Z</time>
      </trkpt>
      <trkpt lat="43.25451" lon="5.59877">
        <ele>261</ele>
        <time>2016-07-09T17:55:38Z</time>
      </trkpt>
      <trkpt lat="43.25454" lon="5.59875">
        <ele>261</ele>
        <time>2016-07-09T17:57:38Z</time>
      </trkpt>
      <trkpt lat="43.25457" lon="5.59874">
        <ele>260</ele>
        <time>2016-07-09T17:59:38Z</time>
      </trkpt>
      <trkpt lat="43.25462" lon="5.59872">
        <ele>260</ele>
        <time>2016-07-09T18:01:38Z</time>
      </trkpt>
      <trkpt lat="43.25465" lon="5.59871">
        <ele>260</ele>
        <time>2016-07-09T18:03:38Z</time>
      </trkpt>
      <trkpt lat="43.2547" lon="5.5987">
        <ele>260</ele>
        <time>2016-07-09T18:05:38Z</time>
      </trkpt>
      <trkpt lat="43.25473" lon="5.59871">
        <ele>259</ele>
        <time>2016-07-09T18:07:38Z</time>
      </trkpt>
      <trkpt lat="43.25476" lon="5.59871">
        <ele>259</ele>
        <time>2016-07-09T18:09:38Z</time>
      </trkpt>
      <trkpt lat="43.25479" lon="5.59872">
        <ele>259</ele>
        <time>2016-07-09T18:11:38Z</time>
      </trkpt>
      <trkpt lat="43.25482" lon="5.59873">
        <ele>258</ele>
        <time>2016-07-09T18:13:38Z</time>
      </trkpt>
      <trkpt lat="43.25486" lon="5.59876">
        <ele>258</ele>
        <time>2016-07-09T18:15:38Z</time>
      </trkpt>
      <trkpt lat="43.25489" lon="5.59878">
        <ele>257</ele>
        <time>2016-07-09T18:17:38Z</time>
      </trkpt>
      <trkpt lat="43.25492" lon="5.59879">
        <ele>257</ele>
        <time>2016-07-09T18:19:38Z</time>
      </trkpt>
      <trkpt lat="43.25494" lon="5.59881">
        <ele>257</ele>
        <time>2016-07-09T18:21:38Z</time>
      </trkpt>
      <trkpt lat="43.25498" lon="5.59883">
        <ele>256</ele>
        <time>2016-07-09T18:23:38Z</time>
      </trkpt>
      <trkpt lat="43.25504" lon="5.59887">
        <ele>256</ele>
        <time>2016-07-09T18:25:38Z</time>
      </trkpt>
      <trkpt lat="43.25505" lon="5.59888">
        <ele>256</ele>
        <time>2016-07-09T18:27:38Z</time>
      </trkpt>
      <trkpt lat="43.25507" lon="5.59889">
        <ele>255</ele>
        <time>2016-07-09T18:29:38Z</time>
      </trkpt>
      <trkpt lat="43.25511" lon="5.5989">
        <ele>255</ele>
        <time>2016-07-09T18:31:38Z</time>
      </trkpt>
      <trkpt lat="43.25521" lon="5.5989">
        <ele>254</ele>
        <time>2016-07-09T18:33:38Z</time>
      </trkpt>
      <trkpt lat="43.25546" lon="5.59891">
        <ele>251</ele>
        <time>2016-07-09T18:35:38Z</time>
      </trkpt>
      <trkpt lat="43.25557" lon="5.59892">
        <ele>250</ele>
        <time>2016-07-09T18:37:38Z</time>
      </trkpt>
      <trkpt lat="43.25563" lon="5.59894">
        <ele>250</ele>
        <time>2016-07-09T18:39:38Z</time>
      </trkpt>
      <trkpt lat="43.25567" lon="5.59894">
        <ele>249</ele>
        <time>2016-07-09T18:41:38Z</time>
      </trkpt>
      <trkpt lat="43.25574" lon="5.59896">
        <ele>249</ele>
        <time>2016-07-09T18:43:38Z</time>
      </trkpt>
      <trkpt lat="43.25577" lon="5.59896">
        <ele>248</ele>
        <time>2016-07-09T18:45:38Z</time>
      </trkpt>
      <trkpt lat="43.25577" lon="5.59896">
        <ele>248</ele>
        <time>2016-07-09T18:47:38Z</time>
      </trkpt>
      <trkpt lat="43.25578" lon="5.59896">
        <ele>248</ele>
        <time>2016-07-09T18:49:38Z</time>
      </trkpt>
      <trkpt lat="43.25582" lon="5.59896">
        <ele>248</ele>
        <time>2016-07-09T18:51:38Z</time>
      </trkpt>
      <trkpt lat="43.25583" lon="5.59896">
        <ele>248</ele>
        <time>2016-07-09T18:53:38Z</time>
      </trkpt>
      <trkpt lat="43.25586" lon="5.59895">
        <ele>248</ele>
        <time>2016-07-09T18:55:38Z</time>
      </trkpt>
      <trkpt lat="43.2559" lon="5.59892">
        <ele>250</ele>
        <time>2016-07-09T18:57:38Z</time>
      </trkpt>
      <trkpt lat="43.25592" lon="5.59891">
        <ele>250</ele>
        <time>2016-07-09T18:59:38Z</time>
      </trkpt>
      <trkpt lat="43.25595" lon="5.59888">
        <ele>251</ele>
        <time>2016-07-09T19:01:38Z</time>
      </trkpt>
      <trkpt lat="43.25598" lon="5.59884">
        <ele>252</ele>
        <time>2016-07-09T19:03:38Z</time>
      </trkpt>
      <trkpt lat="43.25599" lon="5.59882">
        <ele>252</ele>
        <time>2016-07-09T19:05:38Z</time>
      </trkpt>
      <trkpt lat="43.25601" lon="5.59878">
        <ele>253</ele>
        <time>2016-07-09T19:07:38Z</time>
      </trkpt>
      <trkpt lat="43.25602" lon="5.59876">
        <ele>253</ele>
        <time>2016-07-09T19:09:38Z</time>
      </trkpt>
      <trkpt lat="43.25602" lon="5.59873">
        <ele>253</ele>
        <time>2016-07-09T19:11:38Z</time>
      </trkpt>
      <trkpt lat="43.25603" lon="5.59871">
        <ele>253</ele>
        <time>2016-07-09T19:13:38Z</time>
      </trkpt>
      <trkpt lat="43.25603" lon="5.59868">
        <ele>253</ele>
        <time>2016-07-09T19:15:38Z</time>
      </trkpt>
      <trkpt lat="43.25603" lon="5.59865">
        <ele>253</ele>
        <time>2016-07-09T19:17:38Z</time>
      </trkpt>
      <trkpt lat="43.25603" lon="5.59862">
        <ele>253</ele>
        <time>2016-07-09T19:19:38Z</time>
      </trkpt>
      <trkpt lat="43.25603" lon="5.59859">
        <ele>253</ele>
        <time>2016-07-09T19:21:38Z</time>
      </trkpt>
      <trkpt lat="43.25603" lon="5.59857">
        <ele>253</ele>
        <time>2016-07-09T19:23:38Z</time>
      </trkpt>
      <trkpt lat="43.25602" lon="5.59855">
        <ele>253</ele>
        <time>2016-07-09T19:25:38Z</time>
      </trkpt>
      <trkpt lat="43.25601" lon="5.59852">
        <ele>252</ele>
        <time>2016-07-09T19:27:38Z</time>
      </trkpt>
      <trkpt lat="43.25601" lon="5.5985">
        <ele>252</ele>
        <time>2016-07-09T19:29:38Z</time>
      </trkpt>
      <trkpt lat="43.256" lon="5.59847">
        <ele>252</ele>
        <time>2016-07-09T19:31:38Z</time>
      </trkpt>
      <trkpt lat="43.25598" lon="5.59843">
        <ele>251</ele>
        <time>2016-07-09T19:33:38Z</time>
      </trkpt>
      <trkpt lat="43.25597" lon="5.59841">
        <ele>251</ele>
        <time>2016-07-09T19:35:38Z</time>
      </trkpt>
      <trkpt lat="43.2559" lon="5.59826">
        <ele>249</ele>
        <time>2016-07-09T19:37:38Z</time>
      </trkpt>
      <trkpt lat="43.25584" lon="5.59812">
        <ele>248</ele>
        <time>2016-07-09T19:39:38Z</time>
      </trkpt>
      <trkpt lat="43.25581" lon="5.59802">
        <ele>248</ele>
        <time>2016-07-09T19:41:38Z</time>
      </trkpt>
      <trkpt lat="43.25579" lon="5.59792">
        <ele>249</ele>
        <time>2016-07-09T19:43:38Z</time>
      </trkpt>
      <trkpt lat="43.25577" lon="5.59786">
        <ele>249</ele>
        <time>2016-07-09T19:45:38Z</time>
      </trkpt>
      <trkpt lat="43.25575" lon="5.59777">
        <ele>250</ele>
        <time>2016-07-09T19:47:38Z</time>
      </trkpt>
      <trkpt lat="43.25574" lon="5.59764">
        <ele>251</ele>
        <time>2016-07-09T19:49:38Z</time>
      </trkpt>
      <trkpt lat="43.25573" lon="5.59756">
        <ele>251</ele>
        <time>2016-07-09T19:51:38Z</time>
      </trkpt>
      <trkpt lat="43.25572" lon="5.59749">
        <ele>252</ele>
        <time>2016-07-09T19:53:38Z</time>
      </trkpt>
      <trkpt lat="43.25571" lon="5.59741">
        <ele>252</ele>
        <time>2016-07-09T19:55:38Z</time>
      </trkpt>
      <trkpt lat="43.2557" lon="5.59734">
        <ele>251</ele>
        <time>2016-07-09T19:57:38Z</time>
      </trkpt>
      <trkpt lat="43.25568" lon="5.59723">
        <ele>251</ele>
        <time>2016-07-09T19:59:38Z</time>
      </trkpt>
      <trkpt lat="43.25567" lon="5.59718">
        <ele>252</ele>
        <time>2016-07-09T20:01:38Z</time>
      </trkpt>
      <trkpt lat="43.25567" lon="5.59712">
        <ele>251</ele>
        <time>2016-07-09T20:03:38Z</time>
      </trkpt>
      <trkpt lat="43.25566" lon="5.59696">
        <ele>251</ele>
        <time>2016-07-09T20:05:38Z</time>
      </trkpt>
      <trkpt lat="43.25567" lon="5.59683">
        <ele>250</ele>
        <time>2016-07-09T20:07:38Z</time>
      </trkpt>
      <trkpt lat="43.25567" lon="5.5966">
        <ele>250</ele>
        <time>2016-07-09T20:09:38Z</time>
      </trkpt>
      <trkpt lat="43.25567" lon="5.59647">
        <ele>250</ele>
        <time>2016-07-09T20:11:38Z</time>
      </trkpt>
      <trkpt lat="43.25567" lon="5.59643">
        <ele>250</ele>
        <time>2016-07-09T20:13:38Z</time>
      </trkpt>
      <trkpt lat="43.25567" lon="5.59639">
        <ele>250</ele>
        <time>2016-07-09T20:15:38Z</time>
      </trkpt>
      <trkpt lat="43.25567" lon="5.59635">
        <ele>250</ele>
        <time>2016-07-09T20:17:38Z</time>
      </trkpt>
      <trkpt lat="43.25566" lon="5.59632">
        <ele>250</ele>
        <time>2016-07-09T20:19:38Z</time>
      </trkpt>
      <trkpt lat="43.25565" lon="5.59628">
        <ele>250</ele>
        <time>2016-07-09T20:21:38Z</time>
      </trkpt>
      <trkpt lat="43.25563" lon="5.59626">
        <ele>250</ele>
        <time>2016-07-09T20:23:38Z</time>
      </trkpt>
      <trkpt lat="43.25562" lon="5.59624">
        <ele>250</ele>
        <time>2016-07-09T20:25:38Z</time>
      </trkpt>
      <trkpt lat="43.2556" lon="5.59622">
        <ele>250</ele>
        <time>2016-07-09T20:27:38Z</time>
      </trkpt>
      <trkpt lat="43.25558" lon="5.5962">
        <ele>250</ele>
        <time>2016-07-09T20:29:38Z</time>
      </trkpt>
      <trkpt lat="43.25555" lon="5.59617">
        <ele>250</ele>
        <time>2016-07-09T20:31:38Z</time>
      </trkpt>
      <trkpt lat="43.25543" lon="5.59608">
        <ele>250</ele>
        <time>2016-07-09T20:33:38Z</time>
      </trkpt>
      <trkpt lat="43.2554" lon="5.59605">
        <ele>250</ele>
        <time>2016-07-09T20:35:38Z</time>
      </trkpt>
      <trkpt lat="43.25535" lon="5.59601">
        <ele>250</ele>
        <time>2016-07-09T20:37:38Z</time>
      </trkpt>
      <trkpt lat="43.25534" lon="5.59599">
        <ele>250</ele>
        <time>2016-07-09T20:39:38Z</time>
      </trkpt>
      <trkpt lat="43.25529" lon="5.59593">
        <ele>249</ele>
        <time>2016-07-09T20:41:38Z</time>
      </trkpt>
      <trkpt lat="43.25525" lon="5.59586">
        <ele>248</ele>
        <time>2016-07-09T20:43:38Z</time>
      </trkpt>
      <trkpt lat="43.25523" lon="5.59581">
        <ele>248</ele>
        <time>2016-07-09T20:45:38Z</time>
      </trkpt>
      <trkpt lat="43.25522" lon="5.59578">
        <ele>248</ele>
        <time>2016-07-09T20:47:38Z</time>
      </trkpt>
      <trkpt lat="43.25521" lon="5.59576">
        <ele>247</ele>
        <time>2016-07-09T20:49:38Z</time>
      </trkpt>
      <trkpt lat="43.2552" lon="5.59573">
        <ele>247</ele>
        <time>2016-07-09T20:51:38Z</time>
      </trkpt>
      <trkpt lat="43.25519" lon="5.59565">
        <ele>247</ele>
        <time>2016-07-09T20:53:38Z</time>
      </trkpt>
      <trkpt lat="43.25517" lon="5.59558">
        <ele>246</ele>
        <time>2016-07-09T20:55:38Z</time>
      </trkpt>
      <trkpt lat="43.25517" lon="5.59552">
        <ele>246</ele>
        <time>2016-07-09T20:57:38Z</time>
      </trkpt>
      <trkpt lat="43.25517" lon="5.59549">
        <ele>245</ele>
        <time>2016-07-09T20:59:38Z</time>
      </trkpt>
      <trkpt lat="43.25517" lon="5.59544">
        <ele>245</ele>
        <time>2016-07-09T21:01:38Z</time>
      </trkpt>
      <trkpt lat="43.25517" lon="5.59541">
        <ele>245</ele>
        <time>2016-07-09T21:03:38Z</time>
      </trkpt>
      <trkpt lat="43.25517" lon="5.59538">
        <ele>245</ele>
        <time>2016-07-09T21:05:38Z</time>
      </trkpt>
      <trkpt lat="43.25518" lon="5.59535">
        <ele>244</ele>
        <time>2016-07-09T21:07:38Z</time>
      </trkpt>
      <trkpt lat="43.25518" lon="5.59532">
        <ele>244</ele>
        <time>2016-07-09T21:09:38Z</time>
      </trkpt>
      <trkpt lat="43.25521" lon="5.59526">
        <ele>244</ele>
        <time>2016-07-09T21:11:38Z</time>
      </trkpt>
      <trkpt lat="43.25524" lon="5.59517">
        <ele>243</ele>
        <time>2016-07-09T21:13:38Z</time>
      </trkpt>
      <trkpt lat="43.25527" lon="5.5951">
        <ele>243</ele>
        <time>2016-07-09T21:15:38Z</time>
      </trkpt>
      <trkpt lat="43.2553" lon="5.59505">
        <ele>242</ele>
        <time>2016-07-09T21:17:38Z</time>
      </trkpt>
      <trkpt lat="43.25535" lon="5.59496">
        <ele>242</ele>
        <time>2016-07-09T21:19:38Z</time>
      </trkpt>
      <trkpt lat="43.25539" lon="5.59491">
        <ele>243</ele>
        <time>2016-07-09T21:21:38Z</time>
      </trkpt>
      <trkpt lat="43.25543" lon="5.59484">
        <ele>244</ele>
        <time>2016-07-09T21:23:38Z</time>
      </trkpt>
      <trkpt lat="43.25546" lon="5.5948">
        <ele>244</ele>
        <time>2016-07-09T21:25:38Z</time>
      </trkpt>
      <trkpt lat="43.25547" lon="5.59478">
        <ele>244</ele>
        <time>2016-07-09T21:27:38Z</time>
      </trkpt>
      <trkpt lat="43.25549" lon="5.59476">
        <ele>244</ele>
        <time>2016-07-09T21:29:38Z</time>
      </trkpt>
      <trkpt lat="43.25551" lon="5.59472">
        <ele>244</ele>
        <time>2016-07-09T21:31:38Z</time>
      </trkpt>
      <trkpt lat="43.25554" lon="5.59469">
        <ele>244</ele>
        <time>2016-07-09T21:33:38Z</time>
      </trkpt>
      <trkpt lat="43.25558" lon="5.59464">
        <ele>244</ele>
        <time>2016-07-09T21:35:38Z</time>
      </trkpt>
      <trkpt lat="43.25561" lon="5.59461">
        <ele>244</ele>
        <time>2016-07-09T21:37:38Z</time>
      </trkpt>
      <trkpt lat="43.25564" lon="5.59459">
        <ele>244</ele>
        <time>2016-07-09T21:39:38Z</time>
      </trkpt>
      <trkpt lat="43.25566" lon="5.59457">
        <ele>244</ele>
        <time>2016-07-09T21:41:38Z</time>
      </trkpt>
      <trkpt lat="43.2557" lon="5.59454">
        <ele>243</ele>
        <time>2016-07-09T21:43:38Z</time>
      </trkpt>
      <trkpt lat="43.25575" lon="5.59451">
        <ele>243</ele>
        <time>2016-07-09T21:45:38Z</time>
      </trkpt>
      <trkpt lat="43.25578" lon="5.5945">
        <ele>242</ele>
        <time>2016-07-09T21:47:38Z</time>
      </trkpt>
      <trkpt lat="43.25584" lon="5.59447">
        <ele>241</ele>
        <time>2016-07-09T21:49:38Z</time>
      </trkpt>
      <trkpt lat="43.25591" lon="5.59445">
        <ele>242</ele>
        <time>2016-07-09T21:51:38Z</time>
      </trkpt>
      <trkpt lat="43.25599" lon="5.59444">
        <ele>244</ele>
        <time>2016-07-09T21:53:38Z</time>
      </trkpt>
      <trkpt lat="43.25605" lon="5.59443">
        <ele>244</ele>
        <time>2016-07-09T21:55:38Z</time>
      </trkpt>
      <trkpt lat="43.25612" lon="5.59443">
        <ele>245</ele>
        <time>2016-07-09T21:57:38Z</time>
      </trkpt>
      <trkpt lat="43.25617" lon="5.59442">
        <ele>246</ele>
        <time>2016-07-09T21:59:38Z</time>
      </trkpt>
      <trkpt lat="43.2562" lon="5.59442">
        <ele>246</ele>
        <time>2016-07-09T22:01:38Z</time>
      </trkpt>
      <trkpt lat="43.25622" lon="5.59441">
        <ele>247</ele>
        <time>2016-07-09T22:03:38Z</time>
      </trkpt>
      <trkpt lat="43.25624" lon="5.59441">
        <ele>247</ele>
        <time>2016-07-09T22:05:38Z</time>
      </trkpt>
      <trkpt lat="43.25628" lon="5.59439">
        <ele>247</ele>
        <time>2016-07-09T22:07:38Z</time>
      </trkpt>
      <trkpt lat="43.2563" lon="5.59438">
        <ele>247</ele>
        <time>2016-07-09T22:09:38Z</time>
      </trkpt>
      <trkpt lat="43.25632" lon="5.59436">
        <ele>247</ele>
        <time>2016-07-09T22:11:38Z</time>
      </trkpt>
      <trkpt lat="43.25634" lon="5.59435">
        <ele>247</ele>
        <time>2016-07-09T22:13:38Z</time>
      </trkpt>
      <trkpt lat="43.25636" lon="5.59433">
        <ele>247</ele>
        <time>2016-07-09T22:15:38Z</time>
      </trkpt>
      <trkpt lat="43.25638" lon="5.5943">
        <ele>247</ele>
        <time>2016-07-09T22:17:38Z</time>
      </trkpt>
      <trkpt lat="43.25639" lon="5.59427">
        <ele>247</ele>
        <time>2016-07-09T22:19:38Z</time>
      </trkpt>
      <trkpt lat="43.25641" lon="5.59425">
        <ele>246</ele>
        <time>2016-07-09T22:21:38Z</time>
      </trkpt>
      <trkpt lat="43.25643" lon="5.59421">
        <ele>246</ele>
        <time>2016-07-09T22:23:38Z</time>
      </trkpt>
      <trkpt lat="43.25646" lon="5.59414">
        <ele>245</ele>
        <time>2016-07-09T22:25:38Z</time>
      </trkpt>
      <trkpt lat="43.25648" lon="5.59408">
        <ele>245</ele>
        <time>2016-07-09T22:27:38Z</time>
      </trkpt>
      <trkpt lat="43.25649" lon="5.59403">
        <ele>245</ele>
        <time>2016-07-09T22:29:38Z</time>
      </trkpt>
      <trkpt lat="43.25651" lon="5.59397">
        <ele>245</ele>
        <time>2016-07-09T22:31:38Z</time>
      </trkpt>
      <trkpt lat="43.25652" lon="5.59389">
        <ele>245</ele>
        <time>2016-07-09T22:33:38Z</time>
      </trkpt>
      <trkpt lat="43.25653" lon="5.59379">
        <ele>244</ele>
        <time>2016-07-09T22:35:38Z</time>
      </trkpt>
      <trkpt lat="43.25653" lon="5.59369">
        <ele>244</ele>
        <time>2016-07-09T22:37:38Z</time>
      </trkpt>
      <trkpt lat="43.25654" lon="5.5936">
        <ele>243</ele>
        <time>2016-07-09T22:39:38Z</time>
      </trkpt>
      <trkpt lat="43.25654" lon="5.59355">
        <ele>243</ele>
        <time>2016-07-09T22:41:38Z</time>
      </trkpt>
      <trkpt lat="43.25655" lon="5.59343">
        <ele>242</ele>
        <time>2016-07-09T22:43:38Z</time>
      </trkpt>
      <trkpt lat="43.25655" lon="5.59336">
        <ele>242</ele>
        <time>2016-07-09T22:45:38Z</time>
      </trkpt>
      <trkpt lat="43.25655" lon="5.59334">
        <ele>242</ele>
        <time>2016-07-09T22:47:38Z</time>
      </trkpt>
      <trkpt lat="43.25655" lon="5.5933">
        <ele>242</ele>
        <time>2016-07-09T22:49:38Z</time>
      </trkpt>
      <trkpt lat="43.25656" lon="5.59321">
        <ele>241</ele>
        <time>2016-07-09T22:51:38Z</time>
      </trkpt>
      <trkpt lat="43.25656" lon="5.59317">
        <ele>241</ele>
        <time>2016-07-09T22:53:38Z</time>
      </trkpt>
      <trkpt lat="43.25657" lon="5.59312">
        <ele>241</ele>
        <time>2016-07-09T22:55:38Z</time>
      </trkpt>
      <trkpt lat="43.25657" lon="5.5931">
        <ele>240</ele>
        <time>2016-07-09T22:57:38Z</time>
      </trkpt>
      <trkpt lat="43.25658" lon="5.59305">
        <ele>240</ele>
        <time>2016-07-09T22:59:38Z</time>
      </trkpt>
      <trkpt lat="43.25658" lon="5.59299">
        <ele>240</ele>
        <time>2016-07-09T23:01:38Z</time>
      </trkpt>
      <trkpt lat="43.25659" lon="5.59289">
        <ele>239</ele>
        <time>2016-07-09T23:03:38Z</time>
      </trkpt>
      <trkpt lat="43.25661" lon="5.59266">
        <ele>237</ele>
        <time>2016-07-09T23:05:38Z</time>
      </trkpt>
      <trkpt lat="43.25663" lon="5.59251">
        <ele>236</ele>
        <time>2016-07-09T23:07:38Z</time>
      </trkpt>
      <trkpt lat="43.25663" lon="5.59247">
        <ele>236</ele>
        <time>2016-07-09T23:09:38Z</time>
      </trkpt>
      <trkpt lat="43.25664" lon="5.59239">
        <ele>236</ele>
        <time>2016-07-09T23:11:38Z</time>
      </trkpt>
      <trkpt lat="43.25667" lon="5.59211">
        <ele>238</ele>
        <time>2016-07-09T23:13:38Z</time>
      </trkpt>
      <trkpt lat="43.25668" lon="5.59205">
        <ele>238</ele>
        <time>2016-07-09T23:15:38Z</time>
      </trkpt>
      <trkpt lat="43.25669" lon="5.59197">
        <ele>239</ele>
        <time>2016-07-09T23:17:38Z</time>
      </trkpt>
      <trkpt lat="43.25671" lon="5.59191">
        <ele>240</ele>
        <time>2016-07-09T23:19:38Z</time>
      </trkpt>
      <trkpt lat="43.25674" lon="5.59183">
        <ele>241</ele>
        <time>2016-07-09T23:21:38Z</time>
      </trkpt>
      <trkpt lat="43.25677" lon="5.59176">
        <ele>242</ele>
        <time>2016-07-09T23:23:38Z</time>
      </trkpt>
      <trkpt lat="43.25683" lon="5.59167">
        <ele>244</ele>
        <time>2016-07-09T23:25:38Z</time>
      </trkpt>
      <trkpt lat="43.25683" lon="5.59167">
        <ele>244</ele>
        <time>2016-07-09T23:27:38Z</time>
      </trkpt>
      <trkpt lat="43.25691" lon="5.59169">
        <ele>244</ele>
        <time>2016-07-09T23:29:38Z</time>
      </trkpt>
      <trkpt lat="43.25698" lon="5.59173">
        <ele>244</ele>
        <time>2016-07-09T23:31:38Z</time>
      </trkpt>
      <trkpt lat="43.25707" lon="5.59177">
        <ele>245</ele>
        <time>2016-07-09T23:33:38Z</time>
      </trkpt>
      <trkpt lat="43.25716" lon="5.59183">
        <ele>245</ele>
        <time>2016-07-09T23:35:38Z</time>
      </trkpt>
      <trkpt lat="43.25722" lon="5.59187">
        <ele>245</ele>
        <time>2016-07-09T23:37:38Z</time>
      </trkpt>
      <trkpt lat="43.25732" lon="5.59192">
        <ele>245</ele>
        <time>2016-07-09T23:39:38Z</time>
      </trkpt>
      <trkpt lat="43.25737" lon="5.59195">
        <ele>245</ele>
        <time>2016-07-09T23:41:38Z</time>
      </trkpt>
      <trkpt lat="43.25741" lon="5.59197">
        <ele>245</ele>
        <time>2016-07-09T23:43:38Z</time>
      </trkpt>
      <trkpt lat="43.25745" lon="5.59197">
        <ele>245</ele>
        <time>2016-07-09T23:45:38Z</time>
      </trkpt>
      <trkpt lat="43.25749" lon="5.59198">
        <ele>245</ele>
        <time>2016-07-09T23:47:38Z</time>
      </trkpt>
      <trkpt lat="43.25757" lon="5.59199">
        <ele>244</ele>
        <time>2016-07-09T23:49:38Z</time>
      </trkpt>
      <trkpt lat="43.25766" lon="5.59198">
        <ele>243</ele>
        <time>2016-07-09T23:51:38Z</time>
      </trkpt>
      <trkpt lat="43.25775" lon="5.59195">
        <ele>242</ele>
        <time>2016-07-09T23:53:38Z</time>
      </trkpt>
      <trkpt lat="43.25782" lon="5.59193">
        <ele>241</ele>
        <time>2016-07-09T23:55:38Z</time>
      </trkpt>
      <trkpt lat="43.25798" lon="5.59188">
        <ele>239</ele>
        <time>2016-07-09T23:57:38Z</time>
      </trkpt>
      <trkpt lat="43.2582" lon="5.59181">
        <ele>235</ele>
        <time>2016-07-09T23:59:38Z</time>
      </trkpt>
      <trkpt lat="43.25831" lon="5.59176">
        <ele>232</ele>
        <time>2016-07-10T00:01:38Z</time>
      </trkpt>
      <trkpt lat="43.25836" lon="5.59172">
        <ele>231</ele>
        <time>2016-07-10T00:03:38Z</time>
      </trkpt>
      <trkpt lat="43.25838" lon="5.59171">
        <ele>231</ele>
        <time>2016-07-10T00:05:38Z</time>
      </trkpt>
      <trkpt lat="43.2584" lon="5.59168">
        <ele>231</ele>
        <time>2016-07-10T00:07:38Z</time>
      </trkpt>
      <trkpt lat="43.25844" lon="5.59164">
        <ele>231</ele>
        <time>2016-07-10T00:09:38Z</time>
      </trkpt>
      <trkpt lat="43.25848" lon="5.59159">
        <ele>232</ele>
        <time>2016-07-10T00:11:38Z</time>
      </trkpt>
      <trkpt lat="43.25851" lon="5.59152">
        <ele>234</ele>
        <time>2016-07-10T00:13:38Z</time>
      </trkpt>
      <trkpt lat="43.25854" lon="5.59144">
        <ele>235</ele>
        <time>2016-07-10T00:15:38Z</time>
      </trkpt>
      <trkpt lat="43.25857" lon="5.59136">
        <ele>237</ele>
        <time>2016-07-10T00:17:38Z</time>
      </trkpt>
      <trkpt lat="43.25859" lon="5.59128">
        <ele>238</ele>
        <time>2016-07-10T00:19:38Z</time>
      </trkpt>
      <trkpt lat="43.25865" lon="5.59113">
        <ele>240</ele>
        <time>2016-07-10T00:21:38Z</time>
      </trkpt>
      <trkpt lat="43.25873" lon="5.59102">
        <ele>240</ele>
        <time>2016-07-10T00:23:38Z</time>
      </trkpt>
      <trkpt lat="43.2588" lon="5.59098">
        <ele>238</ele>
        <time>2016-07-10T00:25:38Z</time>
      </trkpt>
      <trkpt lat="43.25888" lon="5.59095">
        <ele>237</ele>
        <time>2016-07-10T00:27:38Z</time>
      </trkpt>
      <trkpt lat="43.25892" lon="5.59095">
        <ele>236</ele>
        <time>2016-07-10T00:29:38Z</time>
      </trkpt>
      <trkpt lat="43.25895" lon="5.59096">
        <ele>235</ele>
        <time>2016-07-10T00:31:38Z</time>
      </trkpt>
      <trkpt lat="43.25897" lon="5.59097">
        <ele>234</ele>
        <time>2016-07-10T00:33:38Z</time>
      </trkpt>
      <trkpt lat="43.25902" lon="5.59099">
        <ele>233</ele>
        <time>2016-07-10T00:35:38Z</time>
      </trkpt>
      <trkpt lat="43.25904" lon="5.59102">
        <ele>232</ele>
        <time>2016-07-10T00:37:38Z</time>
      </trkpt>
      <trkpt lat="43.25908" lon="5.59106">
        <ele>231</ele>
        <time>2016-07-10T00:39:38Z</time>
      </trkpt>
      <trkpt lat="43.25913" lon="5.59115">
        <ele>229</ele>
        <time>2016-07-10T00:41:38Z</time>
      </trkpt>
      <trkpt lat="43.25916" lon="5.5912">
        <ele>229</ele>
        <time>2016-07-10T00:43:38Z</time>
      </trkpt>
      <trkpt lat="43.25918" lon="5.59123">
        <ele>228</ele>
        <time>2016-07-10T00:45:38Z</time>
      </trkpt>
      <trkpt lat="43.2592" lon="5.59126">
        <ele>228</ele>
        <time>2016-07-10T00:47:38Z</time>
      </trkpt>
      <trkpt lat="43.25924" lon="5.5913">
        <ele>228</ele>
        <time>2016-07-10T00:49:38Z</time>
      </trkpt>
      <trkpt lat="43.25928" lon="5.59133">
        <ele>228</ele>
        <time>2016-07-10T00:51:38Z</time>
      </trkpt>
      <trkpt lat="43.2593" lon="5.59134">
        <ele>228</ele>
        <time>2016-07-10T00:53:38Z</time>
      </trkpt>
      <trkpt lat="43.25932" lon="5.59135">
        <ele>228</ele>
        <time>2016-07-10T00:55:38Z</time>
      </trkpt>
      <trkpt lat="43.25936" lon="5.59136">
        <ele>228</ele>
        <time>2016-07-10T00:57:38Z</time>
      </trkpt>
      <trkpt lat="43.25938" lon="5.59137">
        <ele>228</ele>
        <time>2016-07-10T00:59:38Z</time>
      </trkpt>
      <trkpt lat="43.25939" lon="5.59137">
        <ele>228</ele>
        <time>2016-07-10T01:01:38Z</time>
      </trkpt>
      <trkpt lat="43.25941" lon="5.59137">
        <ele>228</ele>
        <time>2016-07-10T01:03:38Z</time>
      </trkpt>
      <trkpt lat="43.25945" lon="5.59137">
        <ele>228</ele>
        <time>2016-07-10T01:05:38Z</time>
      </trkpt>
      <trkpt lat="43.25946" lon="5.59136">
        <ele>228</ele>
        <time>2016-07-10T01:07:38Z</time>
      </trkpt>
      <trkpt lat="43.25948" lon="5.59136">
        <ele>228</ele>
        <time>2016-07-10T01:09:38Z</time>
      </trkpt>
      <trkpt lat="43.25952" lon="5.59134">
        <ele>228</ele>
        <time>2016-07-10T01:11:38Z</time>
      </trkpt>
      <trkpt lat="43.25953" lon="5.59133">
        <ele>228</ele>
        <time>2016-07-10T01:13:38Z</time>
      </trkpt>
      <trkpt lat="43.25957" lon="5.59129">
        <ele>228</ele>
        <time>2016-07-10T01:15:38Z</time>
      </trkpt>
      <trkpt lat="43.25961" lon="5.59123">
        <ele>228</ele>
        <time>2016-07-10T01:17:38Z</time>
      </trkpt>
      <trkpt lat="43.25964" lon="5.59119">
        <ele>227</ele>
        <time>2016-07-10T01:19:38Z</time>
      </trkpt>
      <trkpt lat="43.25968" lon="5.59113">
        <ele>227</ele>
        <time>2016-07-10T01:21:38Z</time>
      </trkpt>
      <trkpt lat="43.25971" lon="5.59106">
        <ele>227</ele>
        <time>2016-07-10T01:23:38Z</time>
      </trkpt>
      <trkpt lat="43.25975" lon="5.591">
        <ele>226</ele>
        <time>2016-07-10T01:25:38Z</time>
      </trkpt>
      <trkpt lat="43.25981" lon="5.5909">
        <ele>225</ele>
        <time>2016-07-10T01:27:38Z</time>
      </trkpt>
      <trkpt lat="43.25987" lon="5.5908">
        <ele>226</ele>
        <time>2016-07-10T01:29:38Z</time>
      </trkpt>
      <trkpt lat="43.25992" lon="5.59074">
        <ele>227</ele>
        <time>2016-07-10T01:31:38Z</time>
      </trkpt>
      <trkpt lat="43.25996" lon="5.59069">
        <ele>228</ele>
        <time>2016-07-10T01:33:38Z</time>
      </trkpt>
      <trkpt lat="43.26001" lon="5.59064">
        <ele>229</ele>
        <time>2016-07-10T01:35:38Z</time>
      </trkpt>
      <trkpt lat="43.26007" lon="5.59058">
        <ele>230</ele>
        <time>2016-07-10T01:37:38Z</time>
      </trkpt>
      <trkpt lat="43.26015" lon="5.59054">
        <ele>231</ele>
        <time>2016-07-10T01:39:38Z</time>
      </trkpt>
      <trkpt lat="43.26019" lon="5.59051">
        <ele>231</ele>
        <time>2016-07-10T01:41:38Z</time>
      </trkpt>
      <trkpt lat="43.26026" lon="5.59049">
        <ele>232</ele>
        <time>2016-07-10T01:43:38Z</time>
      </trkpt>
      <trkpt lat="43.26034" lon="5.59046">
        <ele>232</ele>
        <time>2016-07-10T01:45:38Z</time>
      </trkpt>
      <trkpt lat="43.26048" lon="5.59045">
        <ele>232</ele>
        <time>2016-07-10T01:47:38Z</time>
      </trkpt>
      <trkpt lat="43.26073" lon="5.59044">
        <ele>231</ele>
        <time>2016-07-10T01:49:38Z</time>
      </trkpt>
      <trkpt lat="43.26101" lon="5.59045">
        <ele>230</ele>
        <time>2016-07-10T01:51:38Z</time>
      </trkpt>
      <trkpt lat="43.26145" lon="5.59044">
        <ele>229</ele>
        <time>2016-07-10T01:53:38Z</time>
      </trkpt>
      <trkpt lat="43.2616" lon="5.59042">
        <ele>229</ele>
        <time>2016-07-10T01:55:38Z</time>
      </trkpt>
      <trkpt lat="43.2617" lon="5.5904">
        <ele>228</ele>
        <time>2016-07-10T01:57:38Z</time>
      </trkpt>
      <trkpt lat="43.26173" lon="5.59039">
        <ele>228</ele>
        <time>2016-07-10T01:59:38Z</time>
      </trkpt>
      <trkpt lat="43.26181" lon="5.59035">
        <ele>227</ele>
        <time>2016-07-10T02:01:38Z</time>
      </trkpt>
      <trkpt lat="43.26185" lon="5.59033">
        <ele>227</ele>
        <time>2016-07-10T02:03:38Z</time>
      </trkpt>
      <trkpt lat="43.26189" lon="5.59029">
        <ele>227</ele>
        <time>2016-07-10T02:05:38Z</time>
      </trkpt>
      <trkpt lat="43.26196" lon="5.59023">
        <ele>226</ele>
        <time>2016-07-10T02:07:38Z</time>
      </trkpt>
      <trkpt lat="43.26203" lon="5.59016">
        <ele>226</ele>
        <time>2016-07-10T02:09:38Z</time>
      </trkpt>
      <trkpt lat="43.26208" lon="5.5901">
        <ele>225</ele>
        <time>2016-07-10T02:11:38Z</time>
      </trkpt>
      <trkpt lat="43.26212" lon="5.59005">
        <ele>225</ele>
        <time>2016-07-10T02:13:38Z</time>
      </trkpt>
      <trkpt lat="43.26219" lon="5.58997">
        <ele>224</ele>
        <time>2016-07-10T02:15:38Z</time>
      </trkpt>
      <trkpt lat="43.26227" lon="5.58987">
        <ele>224</ele>
        <time>2016-07-10T02:17:38Z</time>
      </trkpt>
      <trkpt lat="43.2623" lon="5.58982">
        <ele>224</ele>
        <time>2016-07-10T02:19:38Z</time>
      </trkpt>
      <trkpt lat="43.26236" lon="5.58975">
        <ele>223</ele>
        <time>2016-07-10T02:21:38Z</time>
      </trkpt>
      <trkpt lat="43.26242" lon="5.58967">
        <ele>222</ele>
        <time>2016-07-10T02:23:38Z</time>
      </trkpt>
      <trkpt lat="43.26244" lon="5.58962">
        <ele>222</ele>
        <time>2016-07-10T02:25:38Z</time>
      </trkpt>
      <trkpt lat="43.26248" lon="5.58955">
        <ele>222</ele>
        <time>2016-07-10T02:27:38Z</time>
      </trkpt>
      <trkpt lat="43.26252" lon="5.58947">
        <ele>222</ele>
        <time>2016-07-10T02:29:38Z</time>
      </trkpt>
      <trkpt lat="43.26254" lon="5.58941">
        <ele>223</ele>
        <time>2016-07-10T02:31:38Z</time>
      </trkpt>
      <trkpt lat="43.26258" lon="5.58931">
        <ele>224</ele>
        <time>2016-07-10T02:33:38Z</time>
      </trkpt>
      <trkpt lat="43.2626" lon="5.58918">
        <ele>225</ele>
        <time>2016-07-10T02:35:38Z</time>
      </trkpt>
      <trkpt lat="43.26263" lon="5.58904">
        <ele>226</ele>
        <time>2016-07-10T02:37:38Z</time>
      </trkpt>
      <trkpt lat="43.26265" lon="5.58895">
        <ele>226</ele>
        <time>2016-07-10T02:39:38Z</time>
      </trkpt>
      <trkpt lat="43.26267" lon="5.58877">
        <ele>226</ele>
        <time>2016-07-10T02:41:38Z</time>
      </trkpt>
      <trkpt lat="43.2627" lon="5.5886">
        <ele>226</ele>
        <time>2016-07-10T02:43:38Z</time>
      </trkpt>
      <trkpt lat="43.26273" lon="5.58846">
        <ele>225</ele>
        <time>2016-07-10T02:45:38Z</time>
      </trkpt>
      <trkpt lat="43.26274" lon="5.58839">
        <ele>225</ele>
        <time>2016-07-10T02:47:38Z</time>
      </trkpt>
      <trkpt lat="43.26277" lon="5.58829">
        <ele>225</ele>
        <time>2016-07-10T02:49:38Z</time>
      </trkpt>
      <trkpt lat="43.2628" lon="5.58818">
        <ele>226</ele>
        <time>2016-07-10T02:51:38Z</time>
      </trkpt>
      <trkpt lat="43.26283" lon="5.58811">
        <ele>227</ele>
        <time>2016-07-10T02:53:38Z</time>
      </trkpt>
      <trkpt lat="43.26287" lon="5.58804">
        <ele>226</ele>
        <time>2016-07-10T02:55:38Z</time>
      </trkpt>
      <trkpt lat="43.26291" lon="5.58797">
        <ele>226</ele>
        <time>2016-07-10T02:57:38Z</time>
      </trkpt>
      <trkpt lat="43.26297" lon="5.58786">
        <ele>226</ele>
        <time>2016-07-10T02:59:38Z</time>
      </trkpt>
      <trkpt lat="43.26303" lon="5.58778">
        <ele>224</ele>
        <time>2016-07-10T03:01:38Z</time>
      </trkpt>
      <trkpt lat="43.26308" lon="5.58771">
        <ele>223</ele>
        <time>2016-07-10T03:03:38Z</time>
      </trkpt>
      <trkpt lat="43.26315" lon="5.58764">
        <ele>221</ele>
        <time>2016-07-10T03:05:38Z</time>
      </trkpt>
      <trkpt lat="43.26322" lon="5.58758">
        <ele>219</ele>
        <time>2016-07-10T03:07:38Z</time>
      </trkpt>
      <trkpt lat="43.26331" lon="5.58753">
        <ele>216</ele>
        <time>2016-07-10T03:09:38Z</time>
      </trkpt>
      <trkpt lat="43.26336" lon="5.58751">
        <ele>214</ele>
        <time>2016-07-10T03:11:38Z</time>
      </trkpt>
      <trkpt lat="43.26339" lon="5.58749">
        <ele>214</ele>
        <time>2016-07-10T03:13:38Z</time>
      </trkpt>
      <trkpt lat="43.26342" lon="5.58748">
        <ele>214</ele>
        <time>2016-07-10T03:15:38Z</time>
      </trkpt>
      <trkpt lat="43.26346" lon="5.58747">
        <ele>214</ele>
        <time>2016-07-10T03:17:38Z</time>
      </trkpt>
      <trkpt lat="43.26355" lon="5.58748">
        <ele>212</ele>
        <time>2016-07-10T03:19:38Z</time>
      </trkpt>
      <trkpt lat="43.26361" lon="5.58749">
        <ele>211</ele>
        <time>2016-07-10T03:21:38Z</time>
      </trkpt>
      <trkpt lat="43.2637" lon="5.58751">
        <ele>209</ele>
        <time>2016-07-10T03:23:38Z</time>
      </trkpt>
      <trkpt lat="43.2638" lon="5.58753">
        <ele>208</ele>
        <time>2016-07-10T03:25:38Z</time>
      </trkpt>
      <trkpt lat="43.26385" lon="5.58754">
        <ele>207</ele>
        <time>2016-07-10T03:27:38Z</time>
      </trkpt>
      <trkpt lat="43.2639" lon="5.58753">
        <ele>206</ele>
        <time>2016-07-10T03:29:38Z</time>
      </trkpt>
      <trkpt lat="43.26394" lon="5.58751">
        <ele>205</ele>
        <time>2016-07-10T03:31:38Z</time>
      </trkpt>
      <trkpt lat="43.26397" lon="5.58749">
        <ele>204</ele>
        <time>2016-07-10T03:33:38Z</time>
      </trkpt>
      <trkpt lat="43.26403" lon="5.58745">
        <ele>204</ele>
        <time>2016-07-10T03:35:38Z</time>
      </trkpt>
      <trkpt lat="43.26404" lon="5.58743">
        <ele>203</ele>
        <time>2016-07-10T03:37:38Z</time>
      </trkpt>
      <trkpt lat="43.26406" lon="5.58741">
        <ele>203</ele>
        <time>2016-07-10T03:39:38Z</time>
      </trkpt>
      <trkpt lat="43.26408" lon="5.58737">
        <ele>203</ele>
        <time>2016-07-10T03:41:38Z</time>
      </trkpt>
      <trkpt lat="43.26409" lon="5.58734">
        <ele>203</ele>
        <time>2016-07-10T03:43:38Z</time>
      </trkpt>
      <trkpt lat="43.26409" lon="5.58729">
        <ele>203</ele>
        <time>2016-07-10T03:45:38Z</time>
      </trkpt>
      <trkpt lat="43.2641" lon="5.58723">
        <ele>203</ele>
        <time>2016-07-10T03:47:38Z</time>
      </trkpt>
      <trkpt lat="43.26409" lon="5.58719">
        <ele>203</ele>
        <time>2016-07-10T03:49:38Z</time>
      </trkpt>
      <trkpt lat="43.26409" lon="5.58715">
        <ele>203</ele>
        <time>2016-07-10T03:51:38Z</time>
      </trkpt>
      <trkpt lat="43.26409" lon="5.58705">
        <ele>203</ele>
        <time>2016-07-10T03:53:38Z</time>
      </trkpt>
      <trkpt lat="43.26408" lon="5.58697">
        <ele>204</ele>
        <time>2016-07-10T03:55:38Z</time>
      </trkpt>
      <trkpt lat="43.26407" lon="5.5869">
        <ele>204</ele>
        <time>2016-07-10T03:57:38Z</time>
      </trkpt>
      <trkpt lat="43.26407" lon="5.58687">
        <ele>204</ele>
        <time>2016-07-10T03:59:38Z</time>
      </trkpt>
      <trkpt lat="43.26407" lon="5.58682">
        <ele>205</ele>
        <time>2016-07-10T04:01:38Z</time>
      </trkpt>
      <trkpt lat="43.26409" lon="5.58674">
        <ele>204</ele>
        <time>2016-07-10T04:03:38Z</time>
      </trkpt>
      <trkpt lat="43.2641" lon="5.58665">
        <ele>204</ele>
        <time>2016-07-10T04:05:38Z</time>
      </trkpt>
      <trkpt lat="43.26414" lon="5.58654">
        <ele>205</ele>
        <time>2016-07-10T04:07:38Z</time>
      </trkpt>
      <trkpt lat="43.26422" lon="5.58635">
        <ele>206</ele>
        <time>2016-07-10T04:09:38Z</time>
      </trkpt>
      <trkpt lat="43.26427" lon="5.58626">
        <ele>207</ele>
        <time>2016-07-10T04:11:38Z</time>
      </trkpt>
      <trkpt lat="43.26432" lon="5.5862">
        <ele>207</ele>
        <time>2016-07-10T04:13:38Z</time>
      </trkpt>
      <trkpt lat="43.26442" lon="5.58615">
        <ele>206</ele>
        <time>2016-07-10T04:15:38Z</time>
      </trkpt>
      <trkpt lat="43.26459" lon="5.58608">
        <ele>204</ele>
        <time>2016-07-10T04:17:38Z</time>
      </trkpt>
      <trkpt lat="43.2647" lon="5.58604">
        <ele>202</ele>
        <time>2016-07-10T04:19:38Z</time>
      </trkpt>
      <trkpt lat="43.26483" lon="5.58597">
        <ele>199</ele>
        <time>2016-07-10T04:21:38Z</time>
      </trkpt>
      <trkpt lat="43.26489" lon="5.58593">
        <ele>198</ele>
        <time>2016-07-10T04:23:38Z</time>
      </trkpt>
      <trkpt lat="43.26493" lon="5.5859">
        <ele>197</ele>
        <time>2016-07-10T04:25:38Z</time>
      </trkpt>
      <trkpt lat="43.26499" lon="5.58583">
        <ele>195</ele>
        <time>2016-07-10T04:27:38Z</time>
      </trkpt>
      <trkpt lat="43.26499" lon="5.58583">
        <ele>195</ele>
        <time>2016-07-10T04:29:38Z</time>
      </trkpt>
      <trkpt lat="43.26501" lon="5.58584">
        <ele>195</ele>
        <time>2016-07-10T04:31:38Z</time>
      </trkpt>
      <trkpt lat="43.26502" lon="5.58585">
        <ele>195</ele>
        <time>2016-07-10T04:33:38Z</time>
      </trkpt>
      <trkpt lat="43.26503" lon="5.58586">
        <ele>195</ele>
        <time>2016-07-10T04:35:38Z</time>
      </trkpt>
      <trkpt lat="43.26504" lon="5.58586">
        <ele>195</ele>
        <time>2016-07-10T04:37:38Z</time>
      </trkpt>
      <trkpt lat="43.26506" lon="5.58586">
        <ele>195</ele>
        <time>2016-07-10T04:39:38Z</time>
      </trkpt>
      <trkpt lat="43.26507" lon="5.58587">
        <ele>195</ele>
        <time>2016-07-10T04:41:38Z</time>
      </trkpt>
      <trkpt lat="43.26508" lon="5.58587">
        <ele>194</ele>
        <time>2016-07-10T04:43:38Z</time>
      </trkpt>
      <trkpt lat="43.2651" lon="5.58587">
        <ele>194</ele>
        <time>2016-07-10T04:45:38Z</time>
      </trkpt>
      <trkpt lat="43.26511" lon="5.58586">
        <ele>194</ele>
        <time>2016-07-10T04:47:38Z</time>
      </trkpt>
      <trkpt lat="43.26513" lon="5.58586">
        <ele>194</ele>
        <time>2016-07-10T04:49:38Z</time>
      </trkpt>
      <trkpt lat="43.26514" lon="5.58585">
        <ele>194</ele>
        <time>2016-07-10T04:51:38Z</time>
      </trkpt>
      <trkpt lat="43.26516" lon="5.58584">
        <ele>194</ele>
        <time>2016-07-10T04:53:38Z</time>
      </trkpt>
      <trkpt lat="43.26518" lon="5.58583">
        <ele>194</ele>
        <time>2016-07-10T04:55:38Z</time>
      </trkpt>
      <trkpt lat="43.2652" lon="5.58581">
        <ele>194</ele>
        <time>2016-07-10T04:57:38Z</time>
      </trkpt>
      <trkpt lat="43.26525" lon="5.58583">
        <ele>193</ele>
        <time>2016-07-10T04:59:38Z</time>
      </trkpt>
      <trkpt lat="43.26542" lon="5.58592">
        <ele>192</ele>
        <time>2016-07-10T05:01:38Z</time>
      </trkpt>
      <trkpt lat="43.26545" lon="5.58594">
        <ele>192</ele>
        <time>2016-07-10T05:03:38Z</time>
      </trkpt>
      <trkpt lat="43.26556" lon="5.586">
        <ele>191</ele>
        <time>2016-07-10T05:05:38Z</time>
      </trkpt>
      <trkpt lat="43.26574" lon="5.5861">
        <ele>191</ele>
        <time>2016-07-10T05:07:38Z</time>
      </trkpt>
      <trkpt lat="43.26578" lon="5.58612">
        <ele>191</ele>
        <time>2016-07-10T05:09:38Z</time>
      </trkpt>
      <trkpt lat="43.26597" lon="5.58621">
        <ele>191</ele>
        <time>2016-07-10T05:11:38Z</time>
      </trkpt>
      <trkpt lat="43.26616" lon="5.5863">
        <ele>192</ele>
        <time>2016-07-10T05:13:38Z</time>
      </trkpt>
      <trkpt lat="43.26634" lon="5.5864">
        <ele>192</ele>
        <time>2016-07-10T05:15:38Z</time>
      </trkpt>
      <trkpt lat="43.26641" lon="5.58644">
        <ele>192</ele>
        <time>2016-07-10T05:17:38Z</time>
      </trkpt>
      <trkpt lat="43.26652" lon="5.5865">
        <ele>192</ele>
        <time>2016-07-10T05:19:38Z</time>
      </trkpt>
      <trkpt lat="43.26671" lon="5.58662">
        <ele>193</ele>
        <time>2016-07-10T05:21:38Z</time>
      </trkpt>
      <trkpt lat="43.26678" lon="5.58668">
        <ele>193</ele>
        <time>2016-07-10T05:23:38Z</time>
      </trkpt>
      <trkpt lat="43.26683" lon="5.58673">
        <ele>193</ele>
        <time>2016-07-10T05:25:38Z</time>
      </trkpt>
      <trkpt lat="43.26689" lon="5.58682">
        <ele>193</ele>
        <time>2016-07-10T05:27:38Z</time>
      </trkpt>
      <trkpt lat="43.26694" lon="5.5869">
        <ele>193</ele>
        <time>2016-07-10T05:29:38Z</time>
      </trkpt>
      <trkpt lat="43.26697" lon="5.58696">
        <ele>193</ele>
        <time>2016-07-10T05:31:38Z</time>
      </trkpt>
      <trkpt lat="43.26699" lon="5.587">
        <ele>193</ele>
        <time>2016-07-10T05:33:38Z</time>
      </trkpt>
      <trkpt lat="43.26701" lon="5.58703">
        <ele>193</ele>
        <time>2016-07-10T05:35:38Z</time>
      </trkpt>
      <trkpt lat="43.26704" lon="5.58709">
        <ele>192</ele>
        <time>2016-07-10T05:37:38Z</time>
      </trkpt>
      <trkpt lat="43.26707" lon="5.58721">
        <ele>192</ele>
        <time>2016-07-10T05:39:38Z</time>
      </trkpt>
      <trkpt lat="43.26709" lon="5.58726">
        <ele>192</ele>
        <time>2016-07-10T05:41:38Z</time>
      </trkpt>
      <trkpt lat="43.2671" lon="5.58736">
        <ele>192</ele>
        <time>2016-07-10T05:43:38Z</time>
      </trkpt>
      <trkpt lat="43.26711" lon="5.58742">
        <ele>192</ele>
        <time>2016-07-10T05:45:38Z</time>
      </trkpt>
      <trkpt lat="43.26711" lon="5.5875">
        <ele>192</ele>
        <time>2016-07-10T05:47:38Z</time>
      </trkpt>
      <trkpt lat="43.26711" lon="5.5876">
        <ele>192</ele>
        <time>2016-07-10T05:49:38Z</time>
      </trkpt>
      <trkpt lat="43.26709" lon="5.58778">
        <ele>193</ele>
        <time>2016-07-10T05:51:38Z</time>
      </trkpt>
      <trkpt lat="43.26707" lon="5.5879">
        <ele>194</ele>
        <time>2016-07-10T05:53:38Z</time>
      </trkpt>
      <trkpt lat="43.26706" lon="5.58796">
        <ele>194</ele>
        <time>2016-07-10T05:55:38Z</time>
      </trkpt>
      <trkpt lat="43.26703" lon="5.58806">
        <ele>195</ele>
        <time>2016-07-10T05:57:38Z</time>
      </trkpt>
      <trkpt lat="43.26698" lon="5.58822">
        <ele>197</ele>
        <time>2016-07-10T05:59:38Z</time>
      </trkpt>
      <trkpt lat="43.26694" lon="5.58835">
        <ele>199</ele>
        <time>2016-07-10T06:01:38Z</time>
      </trkpt>
      <trkpt lat="43.26691" lon="5.58846">
        <ele>201</ele>
        <time>2016-07-10T06:03:38Z</time>
      </trkpt>
      <trkpt lat="43.2669" lon="5.58853">
        <ele>202</ele>
        <time>2016-07-10T06:05:38Z</time>
      </trkpt>
      <trkpt lat="43.26689" lon="5.58859">
        <ele>203</ele>
        <time>2016-07-10T06:07:38Z</time>
      </trkpt>
      <trkpt lat="43.26688" lon="5.58862">
        <ele>204</ele>
        <time>2016-07-10T06:09:38Z</time>
      </trkpt>
      <trkpt lat="43.26689" lon="5.58875">
        <ele>205</ele>
        <time>2016-07-10T06:11:38Z</time>
      </trkpt>
      <trkpt lat="43.2669" lon="5.58885">
        <ele>205</ele>
        <time>2016-07-10T06:13:38Z</time>
      </trkpt>
      <trkpt lat="43.26692" lon="5.58895">
        <ele>205</ele>
        <time>2016-07-10T06:15:38Z</time>
      </trkpt>
      <trkpt lat="43.26695" lon="5.58905">
        <ele>205</ele>
        <time>2016-07-10T06:17:38Z</time>
      </trkpt>
      <trkpt lat="43.26697" lon="5.58912">
        <ele>204</ele>
        <time>2016-07-10T06:19:38Z</time>
      </trkpt>
      <trkpt lat="43.267" lon="5.58917">
        <ele>203</ele>
        <time>2016-07-10T06:21:38Z</time>
      </trkpt>
      <trkpt lat="43.26705" lon="5.58924">
        <ele>203</ele>
        <time>2016-07-10T06:23:38Z</time>
      </trkpt>
      <trkpt lat="43.26708" lon="5.58927">
        <ele>203</ele>
        <time>2016-07-10T06:25:38Z</time>
      </trkpt>
      <trkpt lat="43.26714" lon="5.58932">
        <ele>201</ele>
        <time>2016-07-10T06:27:38Z</time>
      </trkpt>
      <trkpt lat="43.26717" lon="5.58933">
        <ele>200</ele>
        <time>2016-07-10T06:29:38Z</time>
      </trkpt>
      <trkpt lat="43.2672" lon="5.58934">
        <ele>199</ele>
        <time>2016-07-10T06:31:38Z</time>
      </trkpt>
      <trkpt lat="43.26724" lon="5.58935">
        <ele>197</ele>
        <time>2016-07-10T06:33:38Z</time>
      </trkpt>
      <trkpt lat="43.26729" lon="5.58935">
        <ele>195</ele>
        <time>2016-07-10T06:35:38Z</time>
      </trkpt>
      <trkpt lat="43.26731" lon="5.58935">
        <ele>194</ele>
        <time>2016-07-10T06:37:38Z</time>
      </trkpt>
      <trkpt lat="43.26736" lon="5.58933">
        <ele>191</ele>
        <time>2016-07-10T06:39:38Z</time>
      </trkpt>
      <trkpt lat="43.26755" lon="5.58935">
        <ele>185</ele>
        <time>2016-07-10T06:41:38Z</time>
      </trkpt>
      <trkpt lat="43.26771" lon="5.58938">
        <ele>185</ele>
        <time>2016-07-10T06:43:38Z</time>
      </trkpt>
      <trkpt lat="43.26777" lon="5.5894">
        <ele>186</ele>
        <time>2016-07-10T06:45:38Z</time>
      </trkpt>
      <trkpt lat="43.26782" lon="5.58942">
        <ele>186</ele>
        <time>2016-07-10T06:47:38Z</time>
      </trkpt>
      <trkpt lat="43.26791" lon="5.58946">
        <ele>186</ele>
        <time>2016-07-10T06:49:38Z</time>
      </trkpt>
      <trkpt lat="43.26803" lon="5.58953">
        <ele>187</ele>
        <time>2016-07-10T06:51:38Z</time>
      </trkpt>
      <trkpt lat="43.26814" lon="5.58958">
        <ele>188</ele>
        <time>2016-07-10T06:53:38Z</time>
      </trkpt>
      <trkpt lat="43.26816" lon="5.58959">
        <ele>188</ele>
        <time>2016-07-10T06:55:38Z</time>
      </trkpt>
      <trkpt lat="43.26819" lon="5.58959">
        <ele>188</ele>
        <time>2016-07-10T06:57:38Z</time>
      </trkpt>
      <trkpt lat="43.26821" lon="5.58959">
        <ele>188</ele>
        <time>2016-07-10T06:59:38Z</time>
      </trkpt>
      <trkpt lat="43.26823" lon="5.58959">
        <ele>188</ele>
        <time>2016-07-10T07:01:38Z</time>
      </trkpt>
      <trkpt lat="43.26826" lon="5.58958">
        <ele>187</ele>
        <time>2016-07-10T07:03:38Z</time>
      </trkpt>
      <trkpt lat="43.26829" lon="5.58957">
        <ele>187</ele>
        <time>2016-07-10T07:05:38Z</time>
      </trkpt>
      <trkpt lat="43.26831" lon="5.58956">
        <ele>187</ele>
        <time>2016-07-10T07:07:38Z</time>
      </trkpt>
      <trkpt lat="43.26834" lon="5.58954">
        <ele>186</ele>
        <time>2016-07-10T07:09:38Z</time>
      </trkpt>
      <trkpt lat="43.26839" lon="5.5895">
        <ele>185</ele>
        <time>2016-07-10T07:11:38Z</time>
      </trkpt>
      <trkpt lat="43.26842" lon="5.58948">
        <ele>185</ele>
        <time>2016-07-10T07:13:38Z</time>
      </trkpt>
      <trkpt lat="43.26857" lon="5.58934">
        <ele>181</ele>
        <time>2016-07-10T07:15:38Z</time>
      </trkpt>
      <trkpt lat="43.26862" lon="5.5893">
        <ele>180</ele>
        <time>2016-07-10T07:17:38Z</time>
      </trkpt>
      <trkpt lat="43.26869" lon="5.58925">
        <ele>178</ele>
        <time>2016-07-10T07:19:38Z</time>
      </trkpt>
      <trkpt lat="43.26872" lon="5.58923">
        <ele>178</ele>
        <time>2016-07-10T07:21:38Z</time>
      </trkpt>
      <trkpt lat="43.26893" lon="5.58911">
        <ele>175</ele>
        <time>2016-07-10T07:23:38Z</time>
      </trkpt>
      <trkpt lat="43.26897" lon="5.58909">
        <ele>175</ele>
        <time>2016-07-10T07:25:38Z</time>
      </trkpt>
      <trkpt lat="43.26901" lon="5.58908">
        <ele>174</ele>
        <time>2016-07-10T07:27:38Z</time>
      </trkpt>
      <trkpt lat="43.26905" lon="5.58906">
        <ele>174</ele>
        <time>2016-07-10T07:29:38Z</time>
      </trkpt>
      <trkpt lat="43.26908" lon="5.58905">
        <ele>174</ele>
        <time>2016-07-10T07:31:38Z</time>
      </trkpt>
      <trkpt lat="43.26916" lon="5.58902">
        <ele>173</ele>
        <time>2016-07-10T07:33:38Z</time>
      </trkpt>
      <trkpt lat="43.26924" lon="5.589">
        <ele>174</ele>
        <time>2016-07-10T07:35:38Z</time>
      </trkpt>
      <trkpt lat="43.26935" lon="5.58897">
        <ele>175</ele>
        <time>2016-07-10T07:37:38Z</time>
      </trkpt>
      <trkpt lat="43.26946" lon="5.58895">
        <ele>175</ele>
        <time>2016-07-10T07:39:38Z</time>
      </trkpt>
      <trkpt lat="43.26963" lon="5.58893">
        <ele>176</ele>
        <time>2016-07-10T07:41:38Z</time>
      </trkpt>
      <trkpt lat="43.2698" lon="5.58892">
        <ele>177</ele>
        <time>2016-07-10T07:43:38Z</time>
      </trkpt>
      <trkpt lat="43.26997" lon="5.58892">
        <ele>177</ele>
        <time>2016-07-10T07:45:38Z</time>
      </trkpt>
      <trkpt lat="43.27008" lon="5.58892">
        <ele>177</ele>
        <time>2016-07-10T07:47:38Z</time>
      </trkpt>
      <trkpt lat="43.27026" lon="5.58894">
        <ele>176</ele>
        <time>2016-07-10T07:49:38Z</time>
      </trkpt>
      <trkpt lat="43.27041" lon="5.58896">
        <ele>175</ele>
        <time>2016-07-10T07:51:38Z</time>
      </trkpt>
      <trkpt lat="43.27054" lon="5.58898">
        <ele>174</ele>
        <time>2016-07-10T07:53:38Z</time>
      </trkpt>
      <trkpt lat="43.2707" lon="5.58899">
        <ele>174</ele>
        <time>2016-07-10T07:55:38Z</time>
      </trkpt>
      <trkpt lat="43.27078" lon="5.58901">
        <ele>174</ele>
        <time>2016-07-10T07:57:38Z</time>
      </trkpt>
      <trkpt lat="43.27085" lon="5.58902">
        <ele>174</ele>
        <time>2016-07-10T07:59:38Z</time>
      </trkpt>
      <trkpt lat="43.27095" lon="5.58905">
        <ele>173</ele>
        <time>2016-07-10T08:01:38Z</time>
      </trkpt>
      <trkpt lat="43.27101" lon="5.58908">
        <ele>173</ele>
        <time>2016-07-10T08:03:38Z</time>
      </trkpt>
      <trkpt lat="43.27108" lon="5.58911">
        <ele>173</ele>
        <time>2016-07-10T08:05:38Z</time>
      </trkpt>
      <trkpt lat="43.27113" lon="5.58913">
        <ele>173</ele>
        <time>2016-07-10T08:07:38Z</time>
      </trkpt>
      <trkpt lat="43.27121" lon="5.58918">
        <ele>173</ele>
        <time>2016-07-10T08:09:38Z</time>
      </trkpt>
      <trkpt lat="43.27129" lon="5.58923">
        <ele>173</ele>
        <time>2016-07-10T08:11:38Z</time>
      </trkpt>
      <trkpt lat="43.2714" lon="5.58932">
        <ele>174</ele>
        <time>2016-07-10T08:13:38Z</time>
      </trkpt>
      <trkpt lat="43.27151" lon="5.5894">
        <ele>174</ele>
        <time>2016-07-10T08:15:38Z</time>
      </trkpt>
      <trkpt lat="43.27169" lon="5.58956">
        <ele>175</ele>
        <time>2016-07-10T08:17:38Z</time>
      </trkpt>
      <trkpt lat="43.27192" lon="5.58974">
        <ele>173</ele>
        <time>2016-07-10T08:19:38Z</time>
      </trkpt>
      <trkpt lat="43.27208" lon="5.58988">
        <ele>170</ele>
        <time>2016-07-10T08:21:38Z</time>
      </trkpt>
      <trkpt lat="43.2722" lon="5.58997">
        <ele>167</ele>
        <time>2016-07-10T08:23:38Z</time>
      </trkpt>
      <trkpt lat="43.27231" lon="5.59005">
        <ele>165</ele>
        <time>2016-07-10T08:25:38Z</time>
      </trkpt>
      <trkpt lat="43.27239" lon="5.59008">
        <ele>164</ele>
        <time>2016-07-10T08:27:38Z</time>
      </trkpt>
      <trkpt lat="43.27244" lon="5.59011">
        <ele>164</ele>
        <time>2016-07-10T08:29:38Z</time>
      </trkpt>
      <trkpt lat="43.27255" lon="5.59012">
        <ele>162</ele>
        <time>2016-07-10T08:31:38Z</time>
      </trkpt>
      <trkpt lat="43.27275" lon="5.59011">
        <ele>162</ele>
        <time>2016-07-10T08:33:38Z</time>
      </trkpt>
      <trkpt lat="43.27288" lon="5.59009">
        <ele>162</ele>
        <time>2016-07-10T08:35:38Z</time>
      </trkpt>
      <trkpt lat="43.2732" lon="5.58999">
        <ele>161</ele>
        <time>2016-07-10T08:37:38Z</time>
      </trkpt>
      <trkpt lat="43.27328" lon="5.58999">
        <ele>161</ele>
        <time>2016-07-10T08:39:38Z</time>
      </trkpt>
      <trkpt lat="43.27335" lon="5.58999">
        <ele>161</ele>
        <time>2016-07-10T08:41:38Z</time>
      </trkpt>
      <trkpt lat="43.27343" lon="5.59002">
        <ele>161</ele>
        <time>2016-07-10T08:43:38Z</time>
      </trkpt>
      <trkpt lat="43.27349" lon="5.59004">
        <ele>161</ele>
        <time>2016-07-10T08:45:38Z</time>
      </trkpt>
      <trkpt lat="43.27359" lon="5.59008">
        <ele>162</ele>
        <time>2016-07-10T08:47:38Z</time>
      </trkpt>
      <trkpt lat="43.27362" lon="5.59009">
        <ele>162</ele>
        <time>2016-07-10T08:49:38Z</time>
      </trkpt>
      <trkpt lat="43.27374" lon="5.5901">
        <ele>162</ele>
        <time>2016-07-10T08:51:38Z</time>
      </trkpt>
      <trkpt lat="43.27385" lon="5.59009">
        <ele>161</ele>
        <time>2016-07-10T08:53:38Z</time>
      </trkpt>
      <trkpt lat="43.2739" lon="5.59008">
        <ele>161</ele>
        <time>2016-07-10T08:55:38Z</time>
      </trkpt>
      <trkpt lat="43.27395" lon="5.59005">
        <ele>160</ele>
        <time>2016-07-10T08:57:38Z</time>
      </trkpt>
      <trkpt lat="43.27406" lon="5.58998">
        <ele>159</ele>
        <time>2016-07-10T08:59:38Z</time>
      </trkpt>
      <trkpt lat="43.27414" lon="5.58989">
        <ele>159</ele>
        <time>2016-07-10T09:01:38Z</time>
      </trkpt>
      <trkpt lat="43.2742" lon="5.58982">
        <ele>158</ele>
        <time>2016-07-10T09:03:38Z</time>
      </trkpt>
      <trkpt lat="43.27423" lon="5.58976">
        <ele>158</ele>
        <time>2016-07-10T09:05:38Z</time>
      </trkpt>
      <trkpt lat="43.27432" lon="5.58954">
        <ele>157</ele>
        <time>2016-07-10T09:07:38Z</time>
      </trkpt>
      <trkpt lat="43.27437" lon="5.58942">
        <ele>156</ele>
        <time>2016-07-10T09:09:38Z</time>
      </trkpt>
      <trkpt lat="43.2744" lon="5.58935">
        <ele>156</ele>
        <time>2016-07-10T09:11:38Z</time>
      </trkpt>
      <trkpt lat="43.27443" lon="5.5893">
        <ele>155</ele>
        <time>2016-07-10T09:13:38Z</time>
      </trkpt>
      <trkpt lat="43.27446" lon="5.58926">
        <ele>155</ele>
        <time>2016-07-10T09:15:38Z</time>
      </trkpt>
      <trkpt lat="43.27449" lon="5.58921">
        <ele>154</ele>
        <time>2016-07-10T09:17:38Z</time>
      </trkpt>
      <trkpt lat="43.27459" lon="5.58913">
        <ele>154</ele>
        <time>2016-07-10T09:19:38Z</time>
      </trkpt>
      <trkpt lat="43.27468" lon="5.58907">
        <ele>154</ele>
        <time>2016-07-10T09:21:38Z</time>
      </trkpt>
      <trkpt lat="43.27478" lon="5.58905">
        <ele>154</ele>
        <time>2016-07-10T09:23:38Z</time>
      </trkpt>
      <trkpt lat="43.2749" lon="5.58902">
        <ele>154</ele>
        <time>2016-07-10T09:25:38Z</time>
      </trkpt>
      <trkpt lat="43.27496" lon="5.58903">
        <ele>153</ele>
        <time>2016-07-10T09:27:38Z</time>
      </trkpt>
      <trkpt lat="43.27501" lon="5.58903">
        <ele>153</ele>
        <time>2016-07-10T09:29:38Z</time>
      </trkpt>
      <trkpt lat="43.27508" lon="5.58902">
        <ele>153</ele>
        <time>2016-07-10T09:31:38Z</time>
      </trkpt>
      <trkpt lat="43.27515" lon="5.58903">
        <ele>153</ele>
        <time>2016-07-10T09:33:38Z</time>
      </trkpt>
      <trkpt lat="43.27526" lon="5.58904">
        <ele>153</ele>
        <time>2016-07-10T09:35:38Z</time>
      </trkpt>
      <trkpt lat="43.27535" lon="5.58906">
        <ele>153</ele>
        <time>2016-07-10T09:37:38Z</time>
      </trkpt>
      <trkpt lat="43.27541" lon="5.58908">
        <ele>153</ele>
        <time>2016-07-10T09:39:38Z</time>
      </trkpt>
      <trkpt lat="43.27546" lon="5.58912">
        <ele>152</ele>
        <time>2016-07-10T09:41:38Z</time>
      </trkpt>
      <trkpt lat="43.2755" lon="5.58915">
        <ele>152</ele>
        <time>2016-07-10T09:43:38Z</time>
      </trkpt>
      <trkpt lat="43.27553" lon="5.5892">
        <ele>152</ele>
        <time>2016-07-10T09:45:38Z</time>
      </trkpt>
      <trkpt lat="43.27556" lon="5.58924">
        <ele>152</ele>
        <time>2016-07-10T09:47:38Z</time>
      </trkpt>
      <trkpt lat="43.27558" lon="5.58931">
        <ele>152</ele>
        <time>2016-07-10T09:49:38Z</time>
      </trkpt>
      <trkpt lat="43.2756" lon="5.58937">
        <ele>152</ele>
        <time>2016-07-10T09:51:38Z</time>
      </trkpt>
      <trkpt lat="43.27561" lon="5.58943">
        <ele>152</ele>
        <time>2016-07-10T09:53:38Z</time>
      </trkpt>
      <trkpt lat="43.27561" lon="5.58954">
        <ele>153</ele>
        <time>2016-07-10T09:55:38Z</time>
      </trkpt>
      <trkpt lat="43.27561" lon="5.58979">
        <ele>153</ele>
        <time>2016-07-10T09:57:38Z</time>
      </trkpt>
      <trkpt lat="43.27562" lon="5.58992">
        <ele>153</ele>
        <time>2016-07-10T09:59:38Z</time>
      </trkpt>
      <trkpt lat="43.27564" lon="5.59008">
        <ele>154</ele>
        <time>2016-07-10T10:01:38Z</time>
      </trkpt>
      <trkpt lat="43.27568" lon="5.5902">
        <ele>156</ele>
        <time>2016-07-10T10:03:38Z</time>
      </trkpt>
      <trkpt lat="43.27572" lon="5.59029">
        <ele>157</ele>
        <time>2016-07-10T10:05:38Z</time>
      </trkpt>
      <trkpt lat="43.27576" lon="5.59036">
        <ele>158</ele>
        <time>2016-07-10T10:07:38Z</time>
      </trkpt>
      <trkpt lat="43.2758" lon="5.5904">
        <ele>158</ele>
        <time>2016-07-10T10:09:38Z</time>
      </trkpt>
      <trkpt lat="43.27584" lon="5.59043">
        <ele>158</ele>
        <time>2016-07-10T10:11:38Z</time>
      </trkpt>
      <trkpt lat="43.27592" lon="5.59046">
        <ele>158</ele>
        <time>2016-07-10T10:13:38Z</time>
      </trkpt>
      <trkpt lat="43.27598" lon="5.59046">
        <ele>158</ele>
        <time>2016-07-10T10:15:38Z</time>
      </trkpt>
      <trkpt lat="43.27605" lon="5.59044">
        <ele>157</ele>
        <time>2016-07-10T10:17:38Z</time>
      </trkpt>
      <trkpt lat="43.2761" lon="5.59042">
        <ele>156</ele>
        <time>2016-07-10T10:19:38Z</time>
      </trkpt>
      <trkpt lat="43.27615" lon="5.59037">
        <ele>155</ele>
        <time>2016-07-10T10:21:38Z</time>
      </trkpt>
      <trkpt lat="43.27624" lon="5.59027">
        <ele>153</ele>
        <time>2016-07-10T10:23:38Z</time>
      </trkpt>
      <trkpt lat="43.27629" lon="5.59022">
        <ele>152</ele>
        <time>2016-07-10T10:25:38Z</time>
      </trkpt>
      <trkpt lat="43.27634" lon="5.59019">
        <ele>151</ele>
        <time>2016-07-10T10:27:38Z</time>
      </trkpt>
      <trkpt lat="43.27639" lon="5.59015">
        <ele>150</ele>
        <time>2016-07-10T10:29:38Z</time>
      </trkpt>
      <trkpt lat="43.27644" lon="5.59012">
        <ele>150</ele>
        <time>2016-07-10T10:31:38Z</time>
      </trkpt>
      <trkpt lat="43.27654" lon="5.59008">
        <ele>149</ele>
        <time>2016-07-10T10:33:38Z</time>
      </trkpt>
      <trkpt lat="43.27663" lon="5.59005">
        <ele>148</ele>
        <time>2016-07-10T10:35:38Z</time>
      </trkpt>
      <trkpt lat="43.2768" lon="5.59">
        <ele>146</ele>
        <time>2016-07-10T10:37:38Z</time>
      </trkpt>
      <trkpt lat="43.27692" lon="5.58996">
        <ele>146</ele>
        <time>2016-07-10T10:39:38Z</time>
      </trkpt>
      <trkpt lat="43.27699" lon="5.58996">
        <ele>146</ele>
        <time>2016-07-10T10:41:38Z</time>
      </trkpt>
      <trkpt lat="43.27707" lon="5.58995">
        <ele>146</ele>
        <time>2016-07-10T10:43:38Z</time>
      </trkpt>
      <trkpt lat="43.27714" lon="5.58996">
        <ele>145</ele>
        <time>2016-07-10T10:45:38Z</time>
      </trkpt>
      <trkpt lat="43.27723" lon="5.58998">
        <ele>145</ele>
        <time>2016-07-10T10:47:38Z</time>
      </trkpt>
      <trkpt lat="43.2773" lon="5.59">
        <ele>144</ele>
        <time>2016-07-10T10:49:38Z</time>
      </trkpt>
      <trkpt lat="43.27744" lon="5.59006">
        <ele>144</ele>
        <time>2016-07-10T10:51:38Z</time>
      </trkpt>
      <trkpt lat="43.27753" lon="5.59008">
        <ele>144</ele>
        <time>2016-07-10T10:53:38Z</time>
      </trkpt>
      <trkpt lat="43.27767" lon="5.59012">
        <ele>145</ele>
        <time>2016-07-10T10:55:38Z</time>
      </trkpt>
      <trkpt lat="43.27772" lon="5.59013">
        <ele>145</ele>
        <time>2016-07-10T10:57:38Z</time>
      </trkpt>
      <trkpt lat="43.27778" lon="5.59013">
        <ele>146</ele>
        <time>2016-07-10T10:59:38Z</time>
      </trkpt>
      <trkpt lat="43.27789" lon="5.59014">
        <ele>146</ele>
        <time>2016-07-10T11:01:38Z</time>
      </trkpt>
      <trkpt lat="43.27796" lon="5.59013">
        <ele>146</ele>
        <time>2016-07-10T11:03:38Z</time>
      </trkpt>
      <trkpt lat="43.27809" lon="5.59011">
        <ele>146</ele>
        <time>2016-07-10T11:05:38Z</time>
      </trkpt>
      <trkpt lat="43.27815" lon="5.5901">
        <ele>145</ele>
        <time>2016-07-10T11:07:38Z</time>
      </trkpt>
      <trkpt lat="43.27822" lon="5.59008">
        <ele>145</ele>
        <time>2016-07-10T11:09:38Z</time>
      </trkpt>
      <trkpt lat="43.27833" lon="5.59003">
        <ele>144</ele>
        <time>2016-07-10T11:11:38Z</time>
      </trkpt>
      <trkpt lat="43.2784" lon="5.59">
        <ele>144</ele>
        <time>2016-07-10T11:13:38Z</time>
      </trkpt>
      <trkpt lat="43.27845" lon="5.58997">
        <ele>145</ele>
        <time>2016-07-10T11:15:38Z</time>
      </trkpt>
      <trkpt lat="43.27854" lon="5.58991">
        <ele>147</ele>
        <time>2016-07-10T11:17:38Z</time>
      </trkpt>
      <trkpt lat="43.2786" lon="5.58985">
        <ele>148</ele>
        <time>2016-07-10T11:19:38Z</time>
      </trkpt>
      <trkpt lat="43.27866" lon="5.5898">
        <ele>148</ele>
        <time>2016-07-10T11:21:38Z</time>
      </trkpt>
      <trkpt lat="43.27873" lon="5.58971">
        <ele>149</ele>
        <time>2016-07-10T11:23:38Z</time>
      </trkpt>
      <trkpt lat="43.27878" lon="5.58963">
        <ele>149</ele>
        <time>2016-07-10T11:25:38Z</time>
      </trkpt>
      <trkpt lat="43.27884" lon="5.58952">
        <ele>149</ele>
        <time>2016-07-10T11:27:38Z</time>
      </trkpt>
      <trkpt lat="43.27888" lon="5.5894">
        <ele>149</ele>
        <time>2016-07-10T11:29:38Z</time>
      </trkpt>
      <trkpt lat="43.2789" lon="5.58931">
        <ele>149</ele>
        <time>2016-07-10T11:31:38Z</time>
      </trkpt>
      <trkpt lat="43.27894" lon="5.5891">
        <ele>148</ele>
        <time>2016-07-10T11:33:38Z</time>
      </trkpt>
      <trkpt lat="43.27897" lon="5.58893">
        <ele>147</ele>
        <time>2016-07-10T11:35:38Z</time>
      </trkpt>
      <trkpt lat="43.27899" lon="5.58877">
        <ele>147</ele>
        <time>2016-07-10T11:37:38Z</time>
      </trkpt>
      <trkpt lat="43.27901" lon="5.58862">
        <ele>146</ele>
        <time>2016-07-10T11:39:38Z</time>
      </trkpt>
      <trkpt lat="43.27907" lon="5.58827">
        <ele>145</ele>
        <time>2016-07-10T11:41:38Z</time>
      </trkpt>
      <trkpt lat="43.2791" lon="5.58796">
        <ele>143</ele>
        <time>2016-07-10T11:43:38Z</time>
      </trkpt>
      <trkpt lat="43.27911" lon="5.58784">
        <ele>142</ele>
        <time>2016-07-10T11:45:38Z</time>
      </trkpt>
      <trkpt lat="43.27911" lon="5.58773">
        <ele>141</ele>
        <time>2016-07-10T11:47:38Z</time>
      </trkpt>
      <trkpt lat="43.2791" lon="5.58758">
        <ele>141</ele>
        <time>2016-07-10T11:49:38Z</time>
      </trkpt>
      <trkpt lat="43.27909" lon="5.5875">
        <ele>140</ele>
        <time>2016-07-10T11:51:38Z</time>
      </trkpt>
      <trkpt lat="43.27908" lon="5.58744">
        <ele>140</ele>
        <time>2016-07-10T11:53:38Z</time>
      </trkpt>
      <trkpt lat="43.27906" lon="5.58736">
        <ele>140</ele>
        <time>2016-07-10T11:55:38Z</time>
      </trkpt>
      <trkpt lat="43.27904" lon="5.5873">
        <ele>140</ele>
        <time>2016-07-10T11:57:38Z</time>
      </trkpt>
      <trkpt lat="43.27903" lon="5.58725">
        <ele>139</ele>
        <time>2016-07-10T11:59:38Z</time>
      </trkpt>
      <trkpt lat="43.27901" lon="5.58717">
        <ele>139</ele>
        <time>2016-07-10T12:01:38Z</time>
      </trkpt>
      <trkpt lat="43.279" lon="5.58709">
        <ele>139</ele>
        <time>2016-07-10T12:03:38Z</time>
      </trkpt>
      <trkpt lat="43.27898" lon="5.587">
        <ele>138</ele>
        <time>2016-07-10T12:05:38Z</time>
      </trkpt>
      <trkpt lat="43.27898" lon="5.58695">
        <ele>138</ele>
        <time>2016-07-10T12:07:38Z</time>
      </trkpt>
      <trkpt lat="43.27899" lon="5.58687">
        <ele>138</ele>
        <time>2016-07-10T12:09:38Z</time>
      </trkpt>
      <trkpt lat="43.27903" lon="5.5867">
        <ele>137</ele>
        <time>2016-07-10T12:11:38Z</time>
      </trkpt>
      <trkpt lat="43.27907" lon="5.5866">
        <ele>137</ele>
        <time>2016-07-10T12:13:38Z</time>
      </trkpt>
      <trkpt lat="43.27911" lon="5.58653">
        <ele>137</ele>
        <time>2016-07-10T12:15:38Z</time>
      </trkpt>
      <trkpt lat="43.27916" lon="5.58645">
        <ele>136</ele>
        <time>2016-07-10T12:17:38Z</time>
      </trkpt>
      <trkpt lat="43.27922" lon="5.58637">
        <ele>137</ele>
        <time>2016-07-10T12:19:38Z</time>
      </trkpt>
      <trkpt lat="43.27929" lon="5.58625">
        <ele>137</ele>
        <time>2016-07-10T12:21:38Z</time>
      </trkpt>
      <trkpt lat="43.27963" lon="5.58579">
        <ele>136</ele>
        <time>2016-07-10T12:23:38Z</time>
      </trkpt>
      <trkpt lat="43.2797" lon="5.58564">
        <ele>135</ele>
        <time>2016-07-10T12:25:38Z</time>
      </trkpt>
      <trkpt lat="43.27977" lon="5.5855">
        <ele>134</ele>
        <time>2016-07-10T12:27:38Z</time>
      </trkpt>
      <trkpt lat="43.27981" lon="5.5854">
        <ele>134</ele>
        <time>2016-07-10T12:29:38Z</time>
      </trkpt>
      <trkpt lat="43.27985" lon="5.5853">
        <ele>133</ele>
        <time>2016-07-10T12:31:38Z</time>
      </trkpt>
      <trkpt lat="43.27987" lon="5.58523">
        <ele>133</ele>
        <time>2016-07-10T12:33:38Z</time>
      </trkpt>
      <trkpt lat="43.27996" lon="5.58496">
        <ele>131</ele>
        <time>2016-07-10T12:35:38Z</time>
      </trkpt>
      <trkpt lat="43.27997" lon="5.58494">
        <ele>131</ele>
        <time>2016-07-10T12:37:38Z</time>
      </trkpt>
      <trkpt lat="43.27998" lon="5.58491">
        <ele>131</ele>
        <time>2016-07-10T12:39:38Z</time>
      </trkpt>
      <trkpt lat="43.27999" lon="5.58487">
        <ele>130</ele>
        <time>2016-07-10T12:41:38Z</time>
      </trkpt>
      <trkpt lat="43.28003" lon="5.58473">
        <ele>130</ele>
        <time>2016-07-10T12:43:38Z</time>
      </trkpt>
      <trkpt lat="43.2801" lon="5.58452">
        <ele>129</ele>
        <time>2016-07-10T12:45:38Z</time>
      </trkpt>
      <trkpt lat="43.28015" lon="5.5844">
        <ele>128</ele>
        <time>2016-07-10T12:47:38Z</time>
      </trkpt>
      <trkpt lat="43.28021" lon="5.58426">
        <ele>128</ele>
        <time>2016-07-10T12:49:38Z</time>
      </trkpt>
      <trkpt lat="43.28026" lon="5.58416">
        <ele>127</ele>
        <time>2016-07-10T12:51:38Z</time>
      </trkpt>
      <trkpt lat="43.28029" lon="5.58412">
        <ele>127</ele>
        <time>2016-07-10T12:53:38Z</time>
      </trkpt>
      <trkpt lat="43.2803" lon="5.58408">
        <ele>127</ele>
        <time>2016-07-10T12:55:38Z</time>
      </trkpt>
      <trkpt lat="43.28031" lon="5.58407">
        <ele>127</ele>
        <time>2016-07-10T12:57:38Z</time>
      </trkpt>
      <trkpt lat="43.28032" lon="5.58406">
        <ele>127</ele>
        <time>2016-07-10T12:59:38Z</time>
      </trkpt>
      <trkpt lat="43.28038" lon="5.58397">
        <ele>127</ele>
        <time>2016-07-10T13:01:38Z</time>
      </trkpt>
      <trkpt lat="43.28046" lon="5.58386">
        <ele>127</ele>
        <time>2016-07-10T13:03:38Z</time>
      </trkpt>
      <trkpt lat="43.28054" lon="5.58375">
        <ele>127</ele>
        <time>2016-07-10T13:05:38Z</time>
      </trkpt>
      <trkpt lat="43.28065" lon="5.58364">
        <ele>127</ele>
        <time>2016-07-10T13:07:38Z</time>
      </trkpt>
      <trkpt lat="43.28074" lon="5.58355">
        <ele>126</ele>
        <time>2016-07-10T13:09:38Z</time>
      </trkpt>
      <trkpt lat="43.28082" lon="5.58349">
        <ele>126</ele>
        <time>2016-07-10T13:11:38Z</time>
      </trkpt>
      <trkpt lat="43.28091" lon="5.58344">
        <ele>126</ele>
        <time>2016-07-10T13:13:38Z</time>
      </trkpt>
      <trkpt lat="43.28096" lon="5.58342">
        <ele>126</ele>
        <time>2016-07-10T13:15:38Z</time>
      </trkpt>
      <trkpt lat="43.28102" lon="5.58341">
        <ele>126</ele>
        <time>2016-07-10T13:17:38Z</time>
      </trkpt>
      <trkpt lat="43.28108" lon="5.5834">
        <ele>126</ele>
        <time>2016-07-10T13:19:38Z</time>
      </trkpt>
      <trkpt lat="43.28118" lon="5.58339">
        <ele>126</ele>
        <time>2016-07-10T13:21:38Z</time>
      </trkpt>
      <trkpt lat="43.28126" lon="5.5834">
        <ele>126</ele>
        <time>2016-07-10T13:23:38Z</time>
      </trkpt>
      <trkpt lat="43.28134" lon="5.58341">
        <ele>126</ele>
        <time>2016-07-10T13:25:38Z</time>
      </trkpt>
      <trkpt lat="43.28142" lon="5.58344">
        <ele>126</ele>
        <time>2016-07-10T13:27:38Z</time>
      </trkpt>
      <trkpt lat="43.28151" lon="5.58349">
        <ele>126</ele>
        <time>2016-07-10T13:29:38Z</time>
      </trkpt>
      <trkpt lat="43.28163" lon="5.58356">
        <ele>126</ele>
        <time>2016-07-10T13:31:38Z</time>
      </trkpt>
      <trkpt lat="43.28189" lon="5.58372">
        <ele>126</ele>
        <time>2016-07-10T13:33:38Z</time>
      </trkpt>
      <trkpt lat="43.28208" lon="5.58385">
        <ele>127</ele>
        <time>2016-07-10T13:35:38Z</time>
      </trkpt>
      <trkpt lat="43.28214" lon="5.58388">
        <ele>127</ele>
        <time>2016-07-10T13:37:38Z</time>
      </trkpt>
      <trkpt lat="43.28241" lon="5.58397">
        <ele>127</ele>
        <time>2016-07-10T13:39:38Z</time>
      </trkpt>
      <trkpt lat="43.2826" lon="5.58399">
        <ele>127</ele>
        <time>2016-07-10T13:41:38Z</time>
      </trkpt>
      <trkpt lat="43.28272" lon="5.58398">
        <ele>127</ele>
        <time>2016-07-10T13:43:38Z</time>
      </trkpt>
      <trkpt lat="43.28282" lon="5.58394">
        <ele>127</ele>
        <time>2016-07-10T13:45:38Z</time>
      </trkpt>
      <trkpt lat="43.28288" lon="5.58392">
        <ele>127</ele>
        <time>2016-07-10T13:47:38Z</time>
      </trkpt>
      <trkpt lat="43.28294" lon="5.58388">
        <ele>127</ele>
        <time>2016-07-10T13:49:38Z</time>
      </trkpt>
      <trkpt lat="43.28299" lon="5.58384">
        <ele>127</ele>
        <time>2016-07-10T13:51:38Z</time>
      </trkpt>
      <trkpt lat="43.28307" lon="5.58376">
        <ele>126</ele>
        <time>2016-07-10T13:53:38Z</time>
      </trkpt>
      <trkpt lat="43.28314" lon="5.5837">
        <ele>126</ele>
        <time>2016-07-10T13:55:38Z</time>
      </trkpt>
      <trkpt lat="43.28331" lon="5.58356">
        <ele>126</ele>
        <time>2016-07-10T13:57:38Z</time>
      </trkpt>
      <trkpt lat="43.28347" lon="5.58344">
        <ele>125</ele>
        <time>2016-07-10T13:59:38Z</time>
      </trkpt>
      <trkpt lat="43.28348" lon="5.58344">
        <ele>125</ele>
        <time>2016-07-10T14:01:38Z</time>
      </trkpt>
      <trkpt lat="43.28362" lon="5.58334">
        <ele>124</ele>
        <time>2016-07-10T14:03:38Z</time>
      </trkpt>
      <trkpt lat="43.28366" lon="5.58331">
        <ele>124</ele>
        <time>2016-07-10T14:05:38Z</time>
      </trkpt>
      <trkpt lat="43.28378" lon="5.5832">
        <ele>124</ele>
        <time>2016-07-10T14:07:38Z</time>
      </trkpt>
      <trkpt lat="43.28402" lon="5.58299">
        <ele>123</ele>
        <time>2016-07-10T14:09:38Z</time>
      </trkpt>
      <trkpt lat="43.28414" lon="5.58289">
        <ele>122</ele>
        <time>2016-07-10T14:11:38Z</time>
      </trkpt>
      <trkpt lat="43.2843" lon="5.58273">
        <ele>121</ele>
        <time>2016-07-10T14:13:38Z</time>
      </trkpt>
      <trkpt lat="43.28438" lon="5.58265">
        <ele>121</ele>
        <time>2016-07-10T14:15:38Z</time>
      </trkpt>
      <trkpt lat="43.28451" lon="5.58254">
        <ele>121</ele>
        <time>2016-07-10T14:17:38Z</time>
      </trkpt>
      <trkpt lat="43.28474" lon="5.58238">
        <ele>120</ele>
        <time>2016-07-10T14:19:38Z</time>
      </trkpt>
      <trkpt lat="43.28483" lon="5.58233">
        <ele>120</ele>
        <time>2016-07-10T14:21:38Z</time>
      </trkpt>
      <trkpt lat="43.28494" lon="5.58228">
        <ele>120</ele>
        <time>2016-07-10T14:23:38Z</time>
      </trkpt>
      <trkpt lat="43.28507" lon="5.58224">
        <ele>120</ele>
        <time>2016-07-10T14:25:38Z</time>
      </trkpt>
      <trkpt lat="43.28507" lon="5.58224">
        <ele>120</ele>
        <time>2016-07-10T14:27:38Z</time>
      </trkpt>
      <trkpt lat="43.28508" lon="5.58226">
        <ele>120</ele>
        <time>2016-07-10T14:29:38Z</time>
      </trkpt>
      <trkpt lat="43.28511" lon="5.5823">
        <ele>120</ele>
        <time>2016-07-10T14:31:38Z</time>
      </trkpt>
      <trkpt lat="43.28513" lon="5.58232">
        <ele>120</ele>
        <time>2016-07-10T14:33:38Z</time>
      </trkpt>
      <trkpt lat="43.28517" lon="5.58233">
        <ele>120</ele>
        <time>2016-07-10T14:35:38Z</time>
      </trkpt>
      <trkpt lat="43.28523" lon="5.58232">
        <ele>120</ele>
        <time>2016-07-10T14:37:38Z</time>
      </trkpt>
      <trkpt lat="43.28526" lon="5.5823">
        <ele>120</ele>
        <time>2016-07-10T14:39:38Z</time>
      </trkpt>
      <trkpt lat="43.28527" lon="5.58229">
        <ele>120</ele>
        <time>2016-07-10T14:41:38Z</time>
      </trkpt>
      <trkpt lat="43.2854" lon="5.58236">
        <ele>120</ele>
        <time>2016-07-10T14:43:38Z</time>
      </trkpt>
      <trkpt lat="43.28552" lon="5.58239">
        <ele>120</ele>
        <time>2016-07-10T14:45:38Z</time>
      </trkpt>
      <trkpt lat="43.28555" lon="5.58239">
        <ele>120</ele>
        <time>2016-07-10T14:47:38Z</time>
      </trkpt>
      <trkpt lat="43.28562" lon="5.5824">
        <ele>120</ele>
        <time>2016-07-10T14:49:38Z</time>
      </trkpt>
      <trkpt lat="43.28578" lon="5.58241">
        <ele>120</ele>
        <time>2016-07-10T14:51:38Z</time>
      </trkpt>
      <trkpt lat="43.28606" lon="5.58242">
        <ele>119</ele>
        <time>2016-07-10T14:53:38Z</time>
      </trkpt>
      <trkpt lat="43.28618" lon="5.58243">
        <ele>119</ele>
        <time>2016-07-10T14:55:38Z</time>
      </trkpt>
      <trkpt lat="43.28619" lon="5.58243">
        <ele>119</ele>
        <time>2016-07-10T14:57:38Z</time>
      </trkpt>
      <trkpt lat="43.28624" lon="5.58244">
        <ele>119</ele>
        <time>2016-07-10T14:59:38Z</time>
      </trkpt>
      <trkpt lat="43.28627" lon="5.58244">
        <ele>119</ele>
        <time>2016-07-10T15:01:38Z</time>
      </trkpt>
      <trkpt lat="43.28658" lon="5.58254">
        <ele>118</ele>
        <time>2016-07-10T15:03:38Z</time>
      </trkpt>
      <trkpt lat="43.28672" lon="5.58259">
        <ele>118</ele>
        <time>2016-07-10T15:05:38Z</time>
      </trkpt>
      <trkpt lat="43.28689" lon="5.58268">
        <ele>118</ele>
        <time>2016-07-10T15:07:38Z</time>
      </trkpt>
      <trkpt lat="43.28704" lon="5.58276">
        <ele>118</ele>
        <time>2016-07-10T15:09:38Z</time>
      </trkpt>
      <trkpt lat="43.28711" lon="5.58281">
        <ele>119</ele>
        <time>2016-07-10T15:11:38Z</time>
      </trkpt>
      <trkpt lat="43.28717" lon="5.58285">
        <ele>119</ele>
        <time>2016-07-10T15:13:38Z</time>
      </trkpt>
      <trkpt lat="43.28717" lon="5.58285">
        <ele>119</ele>
        <time>2016-07-10T15:15:38Z</time>
      </trkpt>
      <trkpt lat="43.28718" lon="5.58286">
        <ele>119</ele>
        <time>2016-07-10T15:17:38Z</time>
      </trkpt>
      <trkpt lat="43.28718" lon="5.58288">
        <ele>119</ele>
        <time>2016-07-10T15:19:38Z</time>
      </trkpt>
      <trkpt lat="43.28719" lon="5.58289">
        <ele>119</ele>
        <time>2016-07-10T15:21:38Z</time>
      </trkpt>
      <trkpt lat="43.28719" lon="5.5829">
        <ele>119</ele>
        <time>2016-07-10T15:23:38Z</time>
      </trkpt>
      <trkpt lat="43.2872" lon="5.58292">
        <ele>118</ele>
        <time>2016-07-10T15:25:38Z</time>
      </trkpt>
      <trkpt lat="43.28721" lon="5.58293">
        <ele>118</ele>
        <time>2016-07-10T15:27:38Z</time>
      </trkpt>
      <trkpt lat="43.28721" lon="5.58294">
        <ele>118</ele>
        <time>2016-07-10T15:29:38Z</time>
      </trkpt>
      <trkpt lat="43.28723" lon="5.58296">
        <ele>118</ele>
        <time>2016-07-10T15:31:38Z</time>
      </trkpt>
      <trkpt lat="43.28724" lon="5.58297">
        <ele>118</ele>
        <time>2016-07-10T15:33:38Z</time>
      </trkpt>
      <trkpt lat="43.28725" lon="5.58298">
        <ele>118</ele>
        <time>2016-07-10T15:35:38Z</time>
      </trkpt>
      <trkpt lat="43.28726" lon="5.58299">
        <ele>118</ele>
        <time>2016-07-10T15:37:38Z</time>
      </trkpt>
      <trkpt lat="43.28727" lon="5.58299">
        <ele>118</ele>
        <time>2016-07-10T15:39:38Z</time>
      </trkpt>
      <trkpt lat="43.28728" lon="5.583">
        <ele>118</ele>
        <time>2016-07-10T15:41:38Z</time>
      </trkpt>
      <trkpt lat="43.28729" lon="5.583">
        <ele>118</ele>
        <time>2016-07-10T15:43:38Z</time>
      </trkpt>
      <trkpt lat="43.28731" lon="5.583">
        <ele>118</ele>
        <time>2016-07-10T15:45:38Z</time>
      </trkpt>
      <trkpt lat="43.28732" lon="5.58301">
        <ele>118</ele>
        <time>2016-07-10T15:47:38Z</time>
      </trkpt>
      <trkpt lat="43.28733" lon="5.58301">
        <ele>118</ele>
        <time>2016-07-10T15:49:38Z</time>
      </trkpt>
      <trkpt lat="43.28734" lon="5.58301">
        <ele>118</ele>
        <time>2016-07-10T15:51:38Z</time>
      </trkpt>
      <trkpt lat="43.28736" lon="5.583">
        <ele>118</ele>
        <time>2016-07-10T15:53:38Z</time>
      </trkpt>
      <trkpt lat="43.28737" lon="5.583">
        <ele>118</ele>
        <time>2016-07-10T15:55:38Z</time>
      </trkpt>
      <trkpt lat="43.28738" lon="5.583">
        <ele>118</ele>
        <time>2016-07-10T15:57:38Z</time>
      </trkpt>
      <trkpt lat="43.28739" lon="5.58299">
        <ele>118</ele>
        <time>2016-07-10T15:59:38Z</time>
      </trkpt>
      <trkpt lat="43.2874" lon="5.58299">
        <ele>118</ele>
        <time>2016-07-10T16:01:38Z</time>
      </trkpt>
      <trkpt lat="43.2874" lon="5.58298">
        <ele>118</ele>
        <time>2016-07-10T16:03:38Z</time>
      </trkpt>
      <trkpt lat="43.28741" lon="5.58298">
        <ele>118</ele>
        <time>2016-07-10T16:05:38Z</time>
      </trkpt>
      <trkpt lat="43.28742" lon="5.58297">
        <ele>118</ele>
        <time>2016-07-10T16:07:38Z</time>
      </trkpt>
      <trkpt lat="43.28747" lon="5.583">
        <ele>118</ele>
        <time>2016-07-10T16:09:38Z</time>
      </trkpt>
      <trkpt lat="43.28751" lon="5.58301">
        <ele>118</ele>
        <time>2016-07-10T16:11:38Z</time>
      </trkpt>
      <trkpt lat="43.28757" lon="5.58304">
        <ele>118</ele>
        <time>2016-07-10T16:13:38Z</time>
      </trkpt>
      <trkpt lat="43.28762" lon="5.58306">
        <ele>119</ele>
        <time>2016-07-10T16:15:38Z</time>
      </trkpt>
      <trkpt lat="43.28766" lon="5.58312">
        <ele>119</ele>
        <time>2016-07-10T16:17:38Z</time>
      </trkpt>
      <trkpt lat="43.28769" lon="5.58318">
        <ele>118</ele>
        <time>2016-07-10T16:19:38Z</time>
      </trkpt>
      <trkpt lat="43.28772" lon="5.58323">
        <ele>118</ele>
        <time>2016-07-10T16:21:38Z</time>
      </trkpt>
      <trkpt lat="43.28776" lon="5.5833">
        <ele>118</ele>
        <time>2016-07-10T16:23:38Z</time>
      </trkpt>
      <trkpt lat="43.28785" lon="5.5835">
        <ele>118</ele>
        <time>2016-07-10T16:25:38Z</time>
      </trkpt>
      <trkpt lat="43.28794" lon="5.58371">
        <ele>118</ele>
        <time>2016-07-10T16:27:38Z</time>
      </trkpt>
      <trkpt lat="43.28805" lon="5.58391">
        <ele>118</ele>
        <time>2016-07-10T16:29:38Z</time>
      </trkpt>
      <trkpt lat="43.28819" lon="5.58416">
        <ele>118</ele>
        <time>2016-07-10T16:31:38Z</time>
      </trkpt>
      <trkpt lat="43.28827" lon="5.58429">
        <ele>118</ele>
        <time>2016-07-10T16:33:38Z</time>
      </trkpt>
      <trkpt lat="43.28832" lon="5.58436">
        <ele>118</ele>
        <time>2016-07-10T16:35:38Z</time>
      </trkpt>
      <trkpt lat="43.28845" lon="5.58454">
        <ele>119</ele>
        <time>2016-07-10T16:37:38Z</time>
      </trkpt>
      <trkpt lat="43.28862" lon="5.58476">
        <ele>119</ele>
        <time>2016-07-10T16:39:38Z</time>
      </trkpt>
      <trkpt lat="43.28882" lon="5.58497">
        <ele>119</ele>
        <time>2016-07-10T16:41:38Z</time>
      </trkpt>
      <trkpt lat="43.28896" lon="5.5851">
        <ele>119</ele>
        <time>2016-07-10T16:43:38Z</time>
      </trkpt>
      <trkpt lat="43.2891" lon="5.58522">
        <ele>119</ele>
        <time>2016-07-10T16:45:38Z</time>
      </trkpt>
      <trkpt lat="43.28919" lon="5.58526">
        <ele>119</ele>
        <time>2016-07-10T16:47:38Z</time>
      </trkpt>
      <trkpt lat="43.28923" lon="5.5853">
        <ele>119</ele>
        <time>2016-07-10T16:49:38Z</time>
      </trkpt>
      <trkpt lat="43.28955" lon="5.58557">
        <ele>120</ele>
        <time>2016-07-10T16:51:38Z</time>
      </trkpt>
      <trkpt lat="43.28964" lon="5.58565">
        <ele>119</ele>
        <time>2016-07-10T16:53:38Z</time>
      </trkpt>
      <trkpt lat="43.28974" lon="5.58573">
        <ele>119</ele>
        <time>2016-07-10T16:55:38Z</time>
      </trkpt>
      <trkpt lat="43.28979" lon="5.58577">
        <ele>119</ele>
        <time>2016-07-10T16:57:38Z</time>
      </trkpt>
      <trkpt lat="43.28991" lon="5.58585">
        <ele>119</ele>
        <time>2016-07-10T16:59:38Z</time>
      </trkpt>
      <trkpt lat="43.28999" lon="5.58593">
        <ele>119</ele>
        <time>2016-07-10T17:01:38Z</time>
      </trkpt>
      <trkpt lat="43.29006" lon="5.58598">
        <ele>118</ele>
        <time>2016-07-10T17:03:38Z</time>
      </trkpt>
      <trkpt lat="43.29014" lon="5.58605">
        <ele>118</ele>
        <time>2016-07-10T17:05:38Z</time>
      </trkpt>
      <trkpt lat="43.29024" lon="5.58612">
        <ele>118</ele>
        <time>2016-07-10T17:07:38Z</time>
      </trkpt>
      <trkpt lat="43.29032" lon="5.58617">
        <ele>117</ele>
        <time>2016-07-10T17:09:38Z</time>
      </trkpt>
      <trkpt lat="43.29045" lon="5.58624">
        <ele>117</ele>
        <time>2016-07-10T17:11:38Z</time>
      </trkpt>
      <trkpt lat="43.29064" lon="5.58634">
        <ele>116</ele>
        <time>2016-07-10T17:13:38Z</time>
      </trkpt>
      <trkpt lat="43.2907" lon="5.58639">
        <ele>116</ele>
        <time>2016-07-10T17:15:38Z</time>
      </trkpt>
      <trkpt lat="43.29076" lon="5.58643">
        <ele>115</ele>
        <time>2016-07-10T17:17:38Z</time>
      </trkpt>
      <trkpt lat="43.29079" lon="5.58646">
        <ele>115</ele>
        <time>2016-07-10T17:19:38Z</time>
      </trkpt>
      <trkpt lat="43.29086" lon="5.58657">
        <ele>115</ele>
        <time>2016-07-10T17:21:38Z</time>
      </trkpt>
      <trkpt lat="43.29086" lon="5.58657">
        <ele>115</ele>
        <time>2016-07-10T17:23:38Z</time>
      </trkpt>
      <trkpt lat="43.29087" lon="5.58662">
        <ele>114</ele>
        <time>2016-07-10T17:25:38Z</time>
      </trkpt>
      <trkpt lat="43.2909" lon="5.58665">
        <ele>114</ele>
        <time>2016-07-10T17:27:38Z</time>
      </trkpt>
      <trkpt lat="43.29093" lon="5.58668">
        <ele>114</ele>
        <time>2016-07-10T17:29:38Z</time>
      </trkpt>
      <trkpt lat="43.29097" lon="5.58669">
        <ele>114</ele>
        <time>2016-07-10T17:31:38Z</time>
      </trkpt>
      <trkpt lat="43.29101" lon="5.58669">
        <ele>114</ele>
        <time>2016-07-10T17:33:38Z</time>
      </trkpt>
      <trkpt lat="43.29105" lon="5.58667">
        <ele>114</ele>
        <time>2016-07-10T17:35:38Z</time>
      </trkpt>
      <trkpt lat="43.29108" lon="5.58664">
        <ele>114</ele>
        <time>2016-07-10T17:37:38Z</time>
      </trkpt>
      <trkpt lat="43.29111" lon="5.5866">
        <ele>114</ele>
        <time>2016-07-10T17:39:38Z</time>
      </trkpt>
      <trkpt lat="43.29117" lon="5.58655">
        <ele>114</ele>
        <time>2016-07-10T17:41:38Z</time>
      </trkpt>
      <trkpt lat="43.29125" lon="5.58648">
        <ele>114</ele>
        <time>2016-07-10T17:43:38Z</time>
      </trkpt>
      <trkpt lat="43.29137" lon="5.58644">
        <ele>114</ele>
        <time>2016-07-10T17:45:38Z</time>
      </trkpt>
      <trkpt lat="43.29151" lon="5.58642">
        <ele>114</ele>
        <time>2016-07-10T17:47:38Z</time>
      </trkpt>
      <trkpt lat="43.2916" lon="5.58641">
        <ele>114</ele>
        <time>2016-07-10T17:49:38Z</time>
      </trkpt>
      <trkpt lat="43.29172" lon="5.58641">
        <ele>114</ele>
        <time>2016-07-10T17:51:38Z</time>
      </trkpt>
      <trkpt lat="43.29184" lon="5.58641">
        <ele>114</ele>
        <time>2016-07-10T17:53:38Z</time>
      </trkpt>
      <trkpt lat="43.29204" lon="5.5864">
        <ele>113</ele>
        <time>2016-07-10T17:55:38Z</time>
      </trkpt>
      <trkpt lat="43.29223" lon="5.58638">
        <ele>113</ele>
        <time>2016-07-10T17:57:38Z</time>
      </trkpt>
      <trkpt lat="43.29239" lon="5.58636">
        <ele>112</ele>
        <time>2016-07-10T17:59:38Z</time>
      </trkpt>
      <trkpt lat="43.29255" lon="5.58632">
        <ele>112</ele>
        <time>2016-07-10T18:01:38Z</time>
      </trkpt>
      <trkpt lat="43.29266" lon="5.5863">
        <ele>112</ele>
        <time>2016-07-10T18:03:38Z</time>
      </trkpt>
      <trkpt lat="43.2927" lon="5.58629">
        <ele>112</ele>
        <time>2016-07-10T18:05:38Z</time>
      </trkpt>
      <trkpt lat="43.29277" lon="5.58626">
        <ele>112</ele>
        <time>2016-07-10T18:07:38Z</time>
      </trkpt>
      <trkpt lat="43.29292" lon="5.58622">
        <ele>112</ele>
        <time>2016-07-10T18:09:38Z</time>
      </trkpt>
      <trkpt lat="43.29303" lon="5.58618">
        <ele>112</ele>
        <time>2016-07-10T18:11:38Z</time>
      </trkpt>
      <trkpt lat="43.29314" lon="5.58613">
        <ele>112</ele>
        <time>2016-07-10T18:13:38Z</time>
      </trkpt>
      <trkpt lat="43.29326" lon="5.58608">
        <ele>112</ele>
        <time>2016-07-10T18:15:38Z</time>
      </trkpt>
      <trkpt lat="43.29334" lon="5.58605">
        <ele>111</ele>
        <time>2016-07-10T18:17:38Z</time>
      </trkpt>
      <trkpt lat="43.29338" lon="5.58603">
        <ele>111</ele>
        <time>2016-07-10T18:19:38Z</time>
      </trkpt>
      <trkpt lat="43.29349" lon="5.58597">
        <ele>111</ele>
        <time>2016-07-10T18:21:38Z</time>
      </trkpt>
      <trkpt lat="43.29362" lon="5.5859">
        <ele>111</ele>
        <time>2016-07-10T18:23:38Z</time>
      </trkpt>
      <trkpt lat="43.29371" lon="5.58584">
        <ele>111</ele>
        <time>2016-07-10T18:25:38Z</time>
      </trkpt>
      <trkpt lat="43.29381" lon="5.58577">
        <ele>111</ele>
        <time>2016-07-10T18:27:38Z</time>
      </trkpt>
      <trkpt lat="43.29391" lon="5.5857">
        <ele>110</ele>
        <time>2016-07-10T18:29:38Z</time>
      </trkpt>
      <trkpt lat="43.29401" lon="5.58563">
        <ele>110</ele>
        <time>2016-07-10T18:31:38Z</time>
      </trkpt>
      <trkpt lat="43.29412" lon="5.58555">
        <ele>110</ele>
        <time>2016-07-10T18:33:38Z</time>
      </trkpt>
      <trkpt lat="43.29426" lon="5.58543">
        <ele>110</ele>
        <time>2016-07-10T18:35:38Z</time>
      </trkpt>
      <trkpt lat="43.29442" lon="5.58529">
        <ele>110</ele>
        <time>2016-07-10T18:37:38Z</time>
      </trkpt>
      <trkpt lat="43.29447" lon="5.58524">
        <ele>110</ele>
        <time>2016-07-10T18:39:38Z</time>
      </trkpt>
      <trkpt lat="43.29455" lon="5.58516">
        <ele>110</ele>
        <time>2016-07-10T18:41:38Z</time>
      </trkpt>
      <trkpt lat="43.29458" lon="5.58512">
        <ele>110</ele>
        <time>2016-07-10T18:43:38Z</time>
      </trkpt>
      <trkpt lat="43.29465" lon="5.58506">
        <ele>110</ele>
        <time>2016-07-10T18:45:38Z</time>
      </trkpt>
      <trkpt lat="43.29476" lon="5.58494">
        <ele>110</ele>
        <time>2016-07-10T18:47:38Z</time>
      </trkpt>
      <trkpt lat="43.2949" lon="5.58479">
        <ele>110</ele>
        <time>2016-07-10T18:49:38Z</time>
      </trkpt>
      <trkpt lat="43.29505" lon="5.58463">
        <ele>110</ele>
        <time>2016-07-10T18:51:38Z</time>
      </trkpt>
      <trkpt lat="43.29523" lon="5.58443">
        <ele>111</ele>
        <time>2016-07-10T18:53:38Z</time>
      </trkpt>
      <trkpt lat="43.2953" lon="5.58435">
        <ele>111</ele>
        <time>2016-07-10T18:55:38Z</time>
      </trkpt>
      <trkpt lat="43.29543" lon="5.58426">
        <ele>111</ele>
        <time>2016-07-10T18:57:38Z</time>
      </trkpt>
      <trkpt lat="43.29555" lon="5.5841">
        <ele>111</ele>
        <time>2016-07-10T18:59:38Z</time>
      </trkpt>
      <trkpt lat="43.29556" lon="5.58409">
        <ele>111</ele>
        <time>2016-07-10T19:01:38Z</time>
      </trkpt>
      <trkpt lat="43.29559" lon="5.58405">
        <ele>111</ele>
        <time>2016-07-10T19:03:38Z</time>
      </trkpt>
      <trkpt lat="43.29572" lon="5.5839">
        <ele>111</ele>
        <time>2016-07-10T19:05:38Z</time>
      </trkpt>
      <trkpt lat="43.29582" lon="5.58379">
        <ele>111</ele>
        <time>2016-07-10T19:07:38Z</time>
      </trkpt>
      <trkpt lat="43.29583" lon="5.58378">
        <ele>111</ele>
        <time>2016-07-10T19:09:38Z</time>
      </trkpt>
      <trkpt lat="43.29588" lon="5.58373">
        <ele>111</ele>
        <time>2016-07-10T19:11:38Z</time>
      </trkpt>
      <trkpt lat="43.29591" lon="5.5837">
        <ele>111</ele>
        <time>2016-07-10T19:13:38Z</time>
      </trkpt>
      <trkpt lat="43.29597" lon="5.58364">
        <ele>111</ele>
        <time>2016-07-10T19:15:38Z</time>
      </trkpt>
      <trkpt lat="43.29604" lon="5.58357">
        <ele>110</ele>
        <time>2016-07-10T19:17:38Z</time>
      </trkpt>
      <trkpt lat="43.2961" lon="5.58354">
        <ele>110</ele>
        <time>2016-07-10T19:19:38Z</time>
      </trkpt>
      <trkpt lat="43.29616" lon="5.5835">
        <ele>110</ele>
        <time>2016-07-10T19:21:38Z</time>
      </trkpt>
      <trkpt lat="43.29616" lon="5.5835">
        <ele>110</ele>
        <time>2016-07-10T19:23:38Z</time>
      </trkpt>
      <trkpt lat="43.2962" lon="5.58355">
        <ele>110</ele>
        <time>2016-07-10T19:25:38Z</time>
      </trkpt>
      <trkpt lat="43.29624" lon="5.58358">
        <ele>110</ele>
        <time>2016-07-10T19:27:38Z</time>
      </trkpt>
      <trkpt lat="43.29628" lon="5.58359">
        <ele>110</ele>
        <time>2016-07-10T19:29:38Z</time>
      </trkpt>
      <trkpt lat="43.29632" lon="5.58367">
        <ele>110</ele>
        <time>2016-07-10T19:31:38Z</time>
      </trkpt>
      <trkpt lat="43.29638" lon="5.58376">
        <ele>110</ele>
        <time>2016-07-10T19:33:38Z</time>
      </trkpt>
      <trkpt lat="43.29643" lon="5.58386">
        <ele>110</ele>
        <time>2016-07-10T19:35:38Z</time>
      </trkpt>
      <trkpt lat="43.29645" lon="5.58397">
        <ele>110</ele>
        <time>2016-07-10T19:37:38Z</time>
      </trkpt>
      <trkpt lat="43.29648" lon="5.58412">
        <ele>110</ele>
        <time>2016-07-10T19:39:38Z</time>
      </trkpt>
      <trkpt lat="43.29655" lon="5.58437">
        <ele>110</ele>
        <time>2016-07-10T19:41:38Z</time>
      </trkpt>
      <trkpt lat="43.29658" lon="5.58449">
        <ele>110</ele>
        <time>2016-07-10T19:43:38Z</time>
      </trkpt>
      <trkpt lat="43.29664" lon="5.58465">
        <ele>111</ele>
        <time>2016-07-10T19:45:38Z</time>
      </trkpt>
      <trkpt lat="43.2967" lon="5.5848">
        <ele>111</ele>
        <time>2016-07-10T19:47:38Z</time>
      </trkpt>
      <trkpt lat="43.29681" lon="5.58502">
        <ele>111</ele>
        <time>2016-07-10T19:49:38Z</time>
      </trkpt>
      <trkpt lat="43.29685" lon="5.58508">
        <ele>111</ele>
        <time>2016-07-10T19:51:38Z</time>
      </trkpt>
      <trkpt lat="43.29695" lon="5.5853">
        <ele>111</ele>
        <time>2016-07-10T19:53:38Z</time>
      </trkpt>
      <trkpt lat="43.29701" lon="5.58543">
        <ele>111</ele>
        <time>2016-07-10T19:55:38Z</time>
      </trkpt>
      <trkpt lat="43.29715" lon="5.58578">
        <ele>111</ele>
        <time>2016-07-10T19:57:38Z</time>
      </trkpt>
      <trkpt lat="43.29723" lon="5.586">
        <ele>111</ele>
        <time>2016-07-10T19:59:38Z</time>
      </trkpt>
      <trkpt lat="43.29738" lon="5.58651">
        <ele>110</ele>
        <time>2016-07-10T20:01:38Z</time>
      </trkpt>
      <trkpt lat="43.29741" lon="5.58661">
        <ele>110</ele>
        <time>2016-07-10T20:03:38Z</time>
      </trkpt>
      <trkpt lat="43.29744" lon="5.58676">
        <ele>110</ele>
        <time>2016-07-10T20:05:38Z</time>
      </trkpt>
      <trkpt lat="43.29746" lon="5.58692">
        <ele>111</ele>
        <time>2016-07-10T20:07:38Z</time>
      </trkpt>
      <trkpt lat="43.29749" lon="5.58707">
        <ele>111</ele>
        <time>2016-07-10T20:09:38Z</time>
      </trkpt>
      <trkpt lat="43.29751" lon="5.58723">
        <ele>111</ele>
        <time>2016-07-10T20:11:38Z</time>
      </trkpt>
      <trkpt lat="43.29754" lon="5.58738">
        <ele>112</ele>
        <time>2016-07-10T20:13:38Z</time>
      </trkpt>
      <trkpt lat="43.29757" lon="5.58754">
        <ele>112</ele>
        <time>2016-07-10T20:15:38Z</time>
      </trkpt>
      <trkpt lat="43.2976" lon="5.58768">
        <ele>112</ele>
        <time>2016-07-10T20:17:38Z</time>
      </trkpt>
      <trkpt lat="43.29763" lon="5.58783">
        <ele>111</ele>
        <time>2016-07-10T20:19:38Z</time>
      </trkpt>
      <trkpt lat="43.29765" lon="5.58797">
        <ele>111</ele>
        <time>2016-07-10T20:21:38Z</time>
      </trkpt>
      <trkpt lat="43.29767" lon="5.5881">
        <ele>111</ele>
        <time>2016-07-10T20:23:38Z</time>
      </trkpt>
      <trkpt lat="43.29767" lon="5.58822">
        <ele>111</ele>
        <time>2016-07-10T20:25:38Z</time>
      </trkpt>
      <trkpt lat="43.29767" lon="5.58833">
        <ele>111</ele>
        <time>2016-07-10T20:27:38Z</time>
      </trkpt>
      <trkpt lat="43.29767" lon="5.58842">
        <ele>111</ele>
        <time>2016-07-10T20:29:38Z</time>
      </trkpt>
      <trkpt lat="43.29764" lon="5.58862">
        <ele>111</ele>
        <time>2016-07-10T20:31:38Z</time>
      </trkpt>
      <trkpt lat="43.29764" lon="5.58862">
        <ele>111</ele>
        <time>2016-07-10T20:33:38Z</time>
      </trkpt>
      <trkpt lat="43.29764" lon="5.58863">
        <ele>111</ele>
        <time>2016-07-10T20:35:38Z</time>
      </trkpt>
      <trkpt lat="43.29763" lon="5.58863">
        <ele>111</ele>
        <time>2016-07-10T20:37:38Z</time>
      </trkpt>
      <trkpt lat="43.29763" lon="5.58864">
        <ele>111</ele>
        <time>2016-07-10T20:39:38Z</time>
      </trkpt>
      <trkpt lat="43.29762" lon="5.58865">
        <ele>111</ele>
        <time>2016-07-10T20:41:38Z</time>
      </trkpt>
      <trkpt lat="43.29762" lon="5.58866">
        <ele>111</ele>
        <time>2016-07-10T20:43:38Z</time>
      </trkpt>
      <trkpt lat="43.29762" lon="5.58867">
        <ele>111</ele>
        <time>2016-07-10T20:45:38Z</time>
      </trkpt>
      <trkpt lat="43.29761" lon="5.58867">
        <ele>111</ele>
        <time>2016-07-10T20:47:38Z</time>
      </trkpt>
      <trkpt lat="43.29761" lon="5.58868">
        <ele>111</ele>
        <time>2016-07-10T20:49:38Z</time>
      </trkpt>
      <trkpt lat="43.29761" lon="5.5887">
        <ele>111</ele>
        <time>2016-07-10T20:51:38Z</time>
      </trkpt>
      <trkpt lat="43.2976" lon="5.58871">
        <ele>111</ele>
        <time>2016-07-10T20:53:38Z</time>
      </trkpt>
      <trkpt lat="43.2976" lon="5.58872">
        <ele>111</ele>
        <time>2016-07-10T20:55:38Z</time>
      </trkpt>
      <trkpt lat="43.2976" lon="5.58873">
        <ele>111</ele>
        <time>2016-07-10T20:57:38Z</time>
      </trkpt>
      <trkpt lat="43.2976" lon="5.58875">
        <ele>111</ele>
        <time>2016-07-10T20:59:38Z</time>
      </trkpt>
      <trkpt lat="43.2976" lon="5.58876">
        <ele>111</ele>
        <time>2016-07-10T21:01:38Z</time>
      </trkpt>
      <trkpt lat="43.2976" lon="5.58877">
        <ele>111</ele>
        <time>2016-07-10T21:03:38Z</time>
      </trkpt>
      <trkpt lat="43.2976" lon="5.58878">
        <ele>111</ele>
        <time>2016-07-10T21:05:38Z</time>
      </trkpt>
      <trkpt lat="43.2976" lon="5.5888">
        <ele>111</ele>
        <time>2016-07-10T21:07:38Z</time>
      </trkpt>
      <trkpt lat="43.2976" lon="5.58881">
        <ele>111</ele>
        <time>2016-07-10T21:09:38Z</time>
      </trkpt>
      <trkpt lat="43.2976" lon="5.58882">
        <ele>111</ele>
        <time>2016-07-10T21:11:38Z</time>
      </trkpt>
      <trkpt lat="43.29761" lon="5.58883">
        <ele>111</ele>
        <time>2016-07-10T21:13:38Z</time>
      </trkpt>
      <trkpt lat="43.29761" lon="5.58885">
        <ele>111</ele>
        <time>2016-07-10T21:15:38Z</time>
      </trkpt>
      <trkpt lat="43.29761" lon="5.58886">
        <ele>111</ele>
        <time>2016-07-10T21:17:38Z</time>
      </trkpt>
      <trkpt lat="43.29762" lon="5.58887">
        <ele>111</ele>
        <time>2016-07-10T21:19:38Z</time>
      </trkpt>
      <trkpt lat="43.29762" lon="5.58888">
        <ele>111</ele>
        <time>2016-07-10T21:21:38Z</time>
      </trkpt>
      <trkpt lat="43.29763" lon="5.58889">
        <ele>111</ele>
        <time>2016-07-10T21:23:38Z</time>
      </trkpt>
      <trkpt lat="43.29764" lon="5.5889">
        <ele>111</ele>
        <time>2016-07-10T21:25:38Z</time>
      </trkpt>
      <trkpt lat="43.29764" lon="5.58891">
        <ele>111</ele>
        <time>2016-07-10T21:27:38Z</time>
      </trkpt>
      <trkpt lat="43.29765" lon="5.58892">
        <ele>111</ele>
        <time>2016-07-10T21:29:38Z</time>
      </trkpt>
      <trkpt lat="43.29766" lon="5.58893">
        <ele>111</ele>
        <time>2016-07-10T21:31:38Z</time>
      </trkpt>
      <trkpt lat="43.29767" lon="5.58893">
        <ele>111</ele>
        <time>2016-07-10T21:33:38Z</time>
      </trkpt>
      <trkpt lat="43.29767" lon="5.58894">
        <ele>111</ele>
        <time>2016-07-10T21:35:38Z</time>
      </trkpt>
      <trkpt lat="43.29768" lon="5.58895">
        <ele>111</ele>
        <time>2016-07-10T21:37:38Z</time>
      </trkpt>
      <trkpt lat="43.29769" lon="5.58895">
        <ele>111</ele>
        <time>2016-07-10T21:39:38Z</time>
      </trkpt>
      <trkpt lat="43.2977" lon="5.58895">
        <ele>111</ele>
        <time>2016-07-10T21:41:38Z</time>
      </trkpt>
      <trkpt lat="43.29772" lon="5.58896">
        <ele>111</ele>
        <time>2016-07-10T21:43:38Z</time>
      </trkpt>
      <trkpt lat="43.29775" lon="5.58903">
        <ele>111</ele>
        <time>2016-07-10T21:45:38Z</time>
      </trkpt>
      <trkpt lat="43.29779" lon="5.58912">
        <ele>111</ele>
        <time>2016-07-10T21:47:38Z</time>
      </trkpt>
      <trkpt lat="43.29781" lon="5.58921">
        <ele>111</ele>
        <time>2016-07-10T21:49:38Z</time>
      </trkpt>
      <trkpt lat="43.29782" lon="5.58929">
        <ele>111</ele>
        <time>2016-07-10T21:51:38Z</time>
      </trkpt>
      <trkpt lat="43.29783" lon="5.58935">
        <ele>112</ele>
        <time>2016-07-10T21:53:38Z</time>
      </trkpt>
      <trkpt lat="43.29784" lon="5.58939">
        <ele>112</ele>
        <time>2016-07-10T21:55:38Z</time>
      </trkpt>
      <trkpt lat="43.29785" lon="5.58945">
        <ele>112</ele>
        <time>2016-07-10T21:57:38Z</time>
      </trkpt>
      <trkpt lat="43.29785" lon="5.58947">
        <ele>112</ele>
        <time>2016-07-10T21:59:38Z</time>
      </trkpt>
      <trkpt lat="43.29787" lon="5.58958">
        <ele>112</ele>
        <time>2016-07-10T22:01:38Z</time>
      </trkpt>
      <trkpt lat="43.29788" lon="5.58964">
        <ele>113</ele>
        <time>2016-07-10T22:03:38Z</time>
      </trkpt>
      <trkpt lat="43.29788" lon="5.58965">
        <ele>113</ele>
        <time>2016-07-10T22:05:38Z</time>
      </trkpt>
      <trkpt lat="43.29789" lon="5.58971">
        <ele>113</ele>
        <time>2016-07-10T22:07:38Z</time>
      </trkpt>
      <trkpt lat="43.2979" lon="5.58976">
        <ele>113</ele>
        <time>2016-07-10T22:09:38Z</time>
      </trkpt>
      <trkpt lat="43.29791" lon="5.58977">
        <ele>113</ele>
        <time>2016-07-10T22:11:38Z</time>
      </trkpt>
      <trkpt lat="43.29791" lon="5.58982">
        <ele>113</ele>
        <time>2016-07-10T22:13:38Z</time>
      </trkpt>
      <trkpt lat="43.29792" lon="5.58988">
        <ele>113</ele>
        <time>2016-07-10T22:15:38Z</time>
      </trkpt>
      <trkpt lat="43.29793" lon="5.5899">
        <ele>113</ele>
        <time>2016-07-10T22:17:38Z</time>
      </trkpt>
      <trkpt lat="43.29795" lon="5.59002">
        <ele>114</ele>
        <time>2016-07-10T22:19:38Z</time>
      </trkpt>
      <trkpt lat="43.29798" lon="5.59017">
        <ele>113</ele>
        <time>2016-07-10T22:21:38Z</time>
      </trkpt>
      <trkpt lat="43.298" lon="5.59024">
        <ele>113</ele>
        <time>2016-07-10T22:23:38Z</time>
      </trkpt>
      <trkpt lat="43.29801" lon="5.59036">
        <ele>113</ele>
        <time>2016-07-10T22:25:38Z</time>
      </trkpt>
      <trkpt lat="43.298" lon="5.59046">
        <ele>113</ele>
        <time>2016-07-10T22:27:38Z</time>
      </trkpt>
      <trkpt lat="43.298" lon="5.59046">
        <ele>113</ele>
        <time>2016-07-10T22:29:38Z</time>
      </trkpt>
      <trkpt lat="43.29799" lon="5.59047">
        <ele>113</ele>
        <time>2016-07-10T22:31:38Z</time>
      </trkpt>
      <trkpt lat="43.29798" lon="5.59048">
        <ele>113</ele>
        <time>2016-07-10T22:33:38Z</time>
      </trkpt>
      <trkpt lat="43.29797" lon="5.59049">
        <ele>113</ele>
        <time>2016-07-10T22:35:38Z</time>
      </trkpt>
      <trkpt lat="43.29797" lon="5.5905">
        <ele>113</ele>
        <time>2016-07-10T22:37:38Z</time>
      </trkpt>
      <trkpt lat="43.29796" lon="5.59051">
        <ele>113</ele>
        <time>2016-07-10T22:39:38Z</time>
      </trkpt>
      <trkpt lat="43.29795" lon="5.59052">
        <ele>113</ele>
        <time>2016-07-10T22:41:38Z</time>
      </trkpt>
      <trkpt lat="43.29795" lon="5.59053">
        <ele>113</ele>
        <time>2016-07-10T22:43:38Z</time>
      </trkpt>
      <trkpt lat="43.29794" lon="5.59055">
        <ele>113</ele>
        <time>2016-07-10T22:45:38Z</time>
      </trkpt>
      <trkpt lat="43.29793" lon="5.59057">
        <ele>113</ele>
        <time>2016-07-10T22:47:38Z</time>
      </trkpt>
      <trkpt lat="43.29793" lon="5.59059">
        <ele>112</ele>
        <time>2016-07-10T22:49:38Z</time>
      </trkpt>
      <trkpt lat="43.29792" lon="5.59061">
        <ele>112</ele>
        <time>2016-07-10T22:51:38Z</time>
      </trkpt>
      <trkpt lat="43.29792" lon="5.59063">
        <ele>112</ele>
        <time>2016-07-10T22:53:38Z</time>
      </trkpt>
      <trkpt lat="43.29791" lon="5.59066">
        <ele>112</ele>
        <time>2016-07-10T22:55:38Z</time>
      </trkpt>
      <trkpt lat="43.29791" lon="5.59068">
        <ele>112</ele>
        <time>2016-07-10T22:57:38Z</time>
      </trkpt>
      <trkpt lat="43.29791" lon="5.59071">
        <ele>112</ele>
        <time>2016-07-10T22:59:38Z</time>
      </trkpt>
      <trkpt lat="43.29791" lon="5.59073">
        <ele>112</ele>
        <time>2016-07-10T23:01:38Z</time>
      </trkpt>
      <trkpt lat="43.29792" lon="5.59075">
        <ele>112</ele>
        <time>2016-07-10T23:03:38Z</time>
      </trkpt>
      <trkpt lat="43.29792" lon="5.59078">
        <ele>112</ele>
        <time>2016-07-10T23:05:38Z</time>
      </trkpt>
      <trkpt lat="43.29793" lon="5.5908">
        <ele>112</ele>
        <time>2016-07-10T23:07:38Z</time>
      </trkpt>
      <trkpt lat="43.29794" lon="5.59082">
        <ele>112</ele>
        <time>2016-07-10T23:09:38Z</time>
      </trkpt>
      <trkpt lat="43.29795" lon="5.59084">
        <ele>112</ele>
        <time>2016-07-10T23:11:38Z</time>
      </trkpt>
      <trkpt lat="43.29796" lon="5.59086">
        <ele>112</ele>
        <time>2016-07-10T23:13:38Z</time>
      </trkpt>
      <trkpt lat="43.29797" lon="5.59088">
        <ele>112</ele>
        <time>2016-07-10T23:15:38Z</time>
      </trkpt>
      <trkpt lat="43.29798" lon="5.59089">
        <ele>112</ele>
        <time>2016-07-10T23:17:38Z</time>
      </trkpt>
      <trkpt lat="43.29799" lon="5.59091">
        <ele>112</ele>
        <time>2016-07-10T23:19:38Z</time>
      </trkpt>
      <trkpt lat="43.29801" lon="5.59092">
        <ele>112</ele>
        <time>2016-07-10T23:21:38Z</time>
      </trkpt>
      <trkpt lat="43.29802" lon="5.59093">
        <ele>112</ele>
        <time>2016-07-10T23:23:38Z</time>
      </trkpt>
      <trkpt lat="43.29805" lon="5.59094">
        <ele>112</ele>
        <time>2016-07-10T23:25:38Z</time>
      </trkpt>
      <trkpt lat="43.29807" lon="5.59095">
        <ele>112</ele>
        <time>2016-07-10T23:27:38Z</time>
      </trkpt>
      <trkpt lat="43.29809" lon="5.59095">
        <ele>112</ele>
        <time>2016-07-10T23:29:38Z</time>
      </trkpt>
      <trkpt lat="43.29811" lon="5.59096">
        <ele>112</ele>
        <time>2016-07-10T23:31:38Z</time>
      </trkpt>
      <trkpt lat="43.29814" lon="5.59095">
        <ele>112</ele>
        <time>2016-07-10T23:33:38Z</time>
      </trkpt>
      <trkpt lat="43.29816" lon="5.59095">
        <ele>112</ele>
        <time>2016-07-10T23:35:38Z</time>
      </trkpt>
      <trkpt lat="43.29818" lon="5.59094">
        <ele>112</ele>
        <time>2016-07-10T23:37:38Z</time>
      </trkpt>
      <trkpt lat="43.2982" lon="5.59093">
        <ele>112</ele>
        <time>2016-07-10T23:39:38Z</time>
      </trkpt>
      <trkpt lat="43.29822" lon="5.59091">
        <ele>112</ele>
        <time>2016-07-10T23:41:38Z</time>
      </trkpt>
      <trkpt lat="43.29823" lon="5.5909">
        <ele>113</ele>
        <time>2016-07-10T23:43:38Z</time>
      </trkpt>
      <trkpt lat="43.29824" lon="5.59089">
        <ele>113</ele>
        <time>2016-07-10T23:45:38Z</time>
      </trkpt>
      <trkpt lat="43.29825" lon="5.59088">
        <ele>113</ele>
        <time>2016-07-10T23:47:38Z</time>
      </trkpt>
      <trkpt lat="43.29826" lon="5.59087">
        <ele>113</ele>
        <time>2016-07-10T23:49:38Z</time>
      </trkpt>
      <trkpt lat="43.29827" lon="5.59086">
        <ele>113</ele>
        <time>2016-07-10T23:51:38Z</time>
      </trkpt>
      <trkpt lat="43.29828" lon="5.59085">
        <ele>113</ele>
        <time>2016-07-10T23:53:38Z</time>
      </trkpt>
      <trkpt lat="43.29828" lon="5.59083">
        <ele>113</ele>
        <time>2016-07-10T23:55:38Z</time>
      </trkpt>
      <trkpt lat="43.29829" lon="5.59082">
        <ele>113</ele>
        <time>2016-07-10T23:57:38Z</time>
      </trkpt>
      <trkpt lat="43.29848" lon="5.59082">
        <ele>113</ele>
        <time>2016-07-10T23:59:38Z</time>
      </trkpt>
      <trkpt lat="43.29862" lon="5.59085">
        <ele>113</ele>
        <time>2016-07-11T00:01:38Z</time>
      </trkpt>
      <trkpt lat="43.29869" lon="5.59087">
        <ele>113</ele>
        <time>2016-07-11T00:03:38Z</time>
      </trkpt>
      <trkpt lat="43.2989" lon="5.59092">
        <ele>113</ele>
        <time>2016-07-11T00:05:38Z</time>
      </trkpt>
      <trkpt lat="43.29902" lon="5.59095">
        <ele>113</ele>
        <time>2016-07-11T00:07:38Z</time>
      </trkpt>
      <trkpt lat="43.29967" lon="5.59107">
        <ele>113</ele>
        <time>2016-07-11T00:09:38Z</time>
      </trkpt>
      <trkpt lat="43.30005" lon="5.59114">
        <ele>113</ele>
        <time>2016-07-11T00:11:38Z</time>
      </trkpt>
      <trkpt lat="43.30016" lon="5.59115">
        <ele>113</ele>
        <time>2016-07-11T00:13:38Z</time>
      </trkpt>
      <trkpt lat="43.30024" lon="5.59115">
        <ele>113</ele>
        <time>2016-07-11T00:15:38Z</time>
      </trkpt>
      <trkpt lat="43.30024" lon="5.59116">
        <ele>113</ele>
        <time>2016-07-11T00:17:38Z</time>
      </trkpt>
      <trkpt lat="43.30025" lon="5.59117">
        <ele>113</ele>
        <time>2016-07-11T00:19:38Z</time>
      </trkpt>
      <trkpt lat="43.30025" lon="5.59118">
        <ele>113</ele>
        <time>2016-07-11T00:21:38Z</time>
      </trkpt>
      <trkpt lat="43.30025" lon="5.5912">
        <ele>113</ele>
        <time>2016-07-11T00:23:38Z</time>
      </trkpt>
      <trkpt lat="43.30025" lon="5.59121">
        <ele>113</ele>
        <time>2016-07-11T00:25:38Z</time>
      </trkpt>
      <trkpt lat="43.30026" lon="5.59122">
        <ele>113</ele>
        <time>2016-07-11T00:27:38Z</time>
      </trkpt>
      <trkpt lat="43.30026" lon="5.59123">
        <ele>113</ele>
        <time>2016-07-11T00:29:38Z</time>
      </trkpt>
      <trkpt lat="43.30027" lon="5.59124">
        <ele>113</ele>
        <time>2016-07-11T00:31:38Z</time>
      </trkpt>
      <trkpt lat="43.30027" lon="5.59125">
        <ele>113</ele>
        <time>2016-07-11T00:33:38Z</time>
      </trkpt>
      <trkpt lat="43.30028" lon="5.59126">
        <ele>113</ele>
        <time>2016-07-11T00:35:38Z</time>
      </trkpt>
      <trkpt lat="43.30029" lon="5.59126">
        <ele>113</ele>
        <time>2016-07-11T00:37:38Z</time>
      </trkpt>
      <trkpt lat="43.3003" lon="5.59127">
        <ele>113</ele>
        <time>2016-07-11T00:39:38Z</time>
      </trkpt>
      <trkpt lat="43.30031" lon="5.59128">
        <ele>113</ele>
        <time>2016-07-11T00:41:38Z</time>
      </trkpt>
      <trkpt lat="43.30031" lon="5.59129">
        <ele>113</ele>
        <time>2016-07-11T00:43:38Z</time>
      </trkpt>
      <trkpt lat="43.30032" lon="5.59129">
        <ele>113</ele>
        <time>2016-07-11T00:45:38Z</time>
      </trkpt>
      <trkpt lat="43.30033" lon="5.5913">
        <ele>113</ele>
        <time>2016-07-11T00:47:38Z</time>
      </trkpt>
      <trkpt lat="43.30034" lon="5.5913">
        <ele>113</ele>
        <time>2016-07-11T00:49:38Z</time>
      </trkpt>
      <trkpt lat="43.30035" lon="5.59131">
        <ele>113</ele>
        <time>2016-07-11T00:51:38Z</time>
      </trkpt>
      <trkpt lat="43.30036" lon="5.59131">
        <ele>113</ele>
        <time>2016-07-11T00:53:38Z</time>
      </trkpt>
      <trkpt lat="43.30037" lon="5.59131">
        <ele>113</ele>
        <time>2016-07-11T00:55:38Z</time>
      </trkpt>
      <trkpt lat="43.30038" lon="5.59131">
        <ele>113</ele>
        <time>2016-07-11T00:57:38Z</time>
      </trkpt>
      <trkpt lat="43.30039" lon="5.59131">
        <ele>113</ele>
        <time>2016-07-11T00:59:38Z</time>
      </trkpt>
      <trkpt lat="43.3004" lon="5.59131">
        <ele>113</ele>
        <time>2016-07-11T01:01:38Z</time>
      </trkpt>
      <trkpt lat="43.30041" lon="5.59131">
        <ele>113</ele>
        <time>2016-07-11T01:03:38Z</time>
      </trkpt>
      <trkpt lat="43.30042" lon="5.5913">
        <ele>113</ele>
        <time>2016-07-11T01:05:38Z</time>
      </trkpt>
      <trkpt lat="43.30043" lon="5.5913">
        <ele>113</ele>
        <time>2016-07-11T01:07:38Z</time>
      </trkpt>
      <trkpt lat="43.30044" lon="5.5913">
        <ele>113</ele>
        <time>2016-07-11T01:09:38Z</time>
      </trkpt>
      <trkpt lat="43.30045" lon="5.59129">
        <ele>113</ele>
        <time>2016-07-11T01:11:38Z</time>
      </trkpt>
      <trkpt lat="43.30046" lon="5.59128">
        <ele>113</ele>
        <time>2016-07-11T01:13:38Z</time>
      </trkpt>
      <trkpt lat="43.30047" lon="5.59127">
        <ele>113</ele>
        <time>2016-07-11T01:15:38Z</time>
      </trkpt>
      <trkpt lat="43.30048" lon="5.59126">
        <ele>113</ele>
        <time>2016-07-11T01:17:38Z</time>
      </trkpt>
      <trkpt lat="43.30049" lon="5.59125">
        <ele>113</ele>
        <time>2016-07-11T01:19:38Z</time>
      </trkpt>
      <trkpt lat="43.30049" lon="5.59124">
        <ele>113</ele>
        <time>2016-07-11T01:21:38Z</time>
      </trkpt>
      <trkpt lat="43.3005" lon="5.59123">
        <ele>113</ele>
        <time>2016-07-11T01:23:38Z</time>
      </trkpt>
      <trkpt lat="43.30061" lon="5.59129">
        <ele>113</ele>
        <time>2016-07-11T01:25:38Z</time>
      </trkpt>
      <trkpt lat="43.30081" lon="5.59135">
        <ele>113</ele>
        <time>2016-07-11T01:27:38Z</time>
      </trkpt>
      <trkpt lat="43.30107" lon="5.5914">
        <ele>113</ele>
        <time>2016-07-11T01:29:38Z</time>
      </trkpt>
      <trkpt lat="43.30109" lon="5.59141">
        <ele>113</ele>
        <time>2016-07-11T01:31:38Z</time>
      </trkpt>
      <trkpt lat="43.30115" lon="5.59142">
        <ele>113</ele>
        <time>2016-07-11T01:33:38Z</time>
      </trkpt>
      <trkpt lat="43.30144" lon="5.59149">
        <ele>113</ele>
        <time>2016-07-11T01:35:38Z</time>
      </trkpt>
      <trkpt lat="43.30153" lon="5.59152">
        <ele>113</ele>
        <time>2016-07-11T01:37:38Z</time>
      </trkpt>
      <trkpt lat="43.30153" lon="5.59152">
        <ele>113</ele>
        <time>2016-07-11T01:39:38Z</time>
      </trkpt>
      <trkpt lat="43.30151" lon="5.59169">
        <ele>113</ele>
        <time>2016-07-11T01:41:38Z</time>
      </trkpt>
      <trkpt lat="43.30151" lon="5.59171">
        <ele>113</ele>
        <time>2016-07-11T01:43:38Z</time>
      </trkpt>
      <trkpt lat="43.30151" lon="5.59177">
        <ele>113</ele>
        <time>2016-07-11T01:45:38Z</time>
      </trkpt>
      <trkpt lat="43.30154" lon="5.59195">
        <ele>113</ele>
        <time>2016-07-11T01:47:38Z</time>
      </trkpt>
      <trkpt lat="43.30157" lon="5.59209">
        <ele>113</ele>
        <time>2016-07-11T01:49:38Z</time>
      </trkpt>
      <trkpt lat="43.30159" lon="5.59218">
        <ele>113</ele>
        <time>2016-07-11T01:51:38Z</time>
      </trkpt>
      <trkpt lat="43.30161" lon="5.59223">
        <ele>113</ele>
        <time>2016-07-11T01:53:38Z</time>
      </trkpt>
      <trkpt lat="43.30166" lon="5.5923">
        <ele>113</ele>
        <time>2016-07-11T01:55:38Z</time>
      </trkpt>
      <trkpt lat="43.30175" lon="5.59254">
        <ele>113</ele>
        <time>2016-07-11T01:57:38Z</time>
      </trkpt>
      <trkpt lat="43.3018" lon="5.59265">
        <ele>113</ele>
        <time>2016-07-11T01:59:38Z</time>
      </trkpt>
      <trkpt lat="43.30207" lon="5.59334">
        <ele>113</ele>
        <time>2016-07-11T02:01:38Z</time>
      </trkpt>
      <trkpt lat="43.30213" lon="5.5935">
        <ele>112</ele>
        <time>2016-07-11T02:03:38Z</time>
      </trkpt>
      <trkpt lat="43.30223" lon="5.59382">
        <ele>112</ele>
        <time>2016-07-11T02:05:38Z</time>
      </trkpt>
      <trkpt lat="43.30232" lon="5.59414">
        <ele>111</ele>
        <time>2016-07-11T02:07:38Z</time>
      </trkpt>
      <trkpt lat="43.3025" lon="5.59473">
        <ele>111</ele>
        <time>2016-07-11T02:09:38Z</time>
      </trkpt>
      <trkpt lat="43.30254" lon="5.59488">
        <ele>111</ele>
        <time>2016-07-11T02:11:38Z</time>
      </trkpt>
      <trkpt lat="43.30268" lon="5.59542">
        <ele>111</ele>
        <time>2016-07-11T02:13:38Z</time>
      </trkpt>
      <trkpt lat="43.30271" lon="5.59557">
        <ele>111</ele>
        <time>2016-07-11T02:15:38Z</time>
      </trkpt>
      <trkpt lat="43.30285" lon="5.59614">
        <ele>111</ele>
        <time>2016-07-11T02:17:38Z</time>
      </trkpt>
      <trkpt lat="43.30291" lon="5.59641">
        <ele>112</ele>
        <time>2016-07-11T02:19:38Z</time>
      </trkpt>
      <trkpt lat="43.303" lon="5.59676">
        <ele>113</ele>
        <time>2016-07-11T02:21:38Z</time>
      </trkpt>
      <trkpt lat="43.30303" lon="5.59693">
        <ele>113</ele>
        <time>2016-07-11T02:23:38Z</time>
      </trkpt>
      <trkpt lat="43.30325" lon="5.59788">
        <ele>115</ele>
        <time>2016-07-11T02:25:38Z</time>
      </trkpt>
      <trkpt lat="43.30326" lon="5.59797">
        <ele>115</ele>
        <time>2016-07-11T02:27:38Z</time>
      </trkpt>
      <trkpt lat="43.30329" lon="5.59811">
        <ele>116</ele>
        <time>2016-07-11T02:29:38Z</time>
      </trkpt>
      <trkpt lat="43.3033" lon="5.59824">
        <ele>116</ele>
        <time>2016-07-11T02:31:38Z</time>
      </trkpt>
      <trkpt lat="43.30333" lon="5.59864">
        <ele>117</ele>
        <time>2016-07-11T02:33:38Z</time>
      </trkpt>
      <trkpt lat="43.30334" lon="5.59892">
        <ele>117</ele>
        <time>2016-07-11T02:35:38Z</time>
      </trkpt>
      <trkpt lat="43.30337" lon="5.59946">
        <ele>119</ele>
        <time>2016-07-11T02:37:38Z</time>
      </trkpt>
      <trkpt lat="43.30338" lon="5.59968">
        <ele>119</ele>
        <time>2016-07-11T02:39:38Z</time>
      </trkpt>
      <trkpt lat="43.30339" lon="5.59996">
        <ele>120</ele>
        <time>2016-07-11T02:41:38Z</time>
      </trkpt>
      <trkpt lat="43.30341" lon="5.6001">
        <ele>120</ele>
        <time>2016-07-11T02:43:38Z</time>
      </trkpt>
      <trkpt lat="43.30343" lon="5.60022">
        <ele>120</ele>
        <time>2016-07-11T02:45:38Z</time>
      </trkpt>
      <trkpt lat="43.30347" lon="5.60037">
        <ele>120</ele>
        <time>2016-07-11T02:47:38Z</time>
      </trkpt>
      <trkpt lat="43.3036" lon="5.60072">
        <ele>120</ele>
        <time>2016-07-11T02:49:38Z</time>
      </trkpt>
      <trkpt lat="43.30366" lon="5.60086">
        <ele>120</ele>
        <time>2016-07-11T02:51:38Z</time>
      </trkpt>
      <trkpt lat="43.30373" lon="5.60099">
        <ele>120</ele>
        <time>2016-07-11T02:53:38Z</time>
      </trkpt>
      <trkpt lat="43.30381" lon="5.60113">
        <ele>121</ele>
        <time>2016-07-11T02:55:38Z</time>
      </trkpt>
      <trkpt lat="43.30393" lon="5.60131">
        <ele>121</ele>
        <time>2016-07-11T02:57:38Z</time>
      </trkpt>
      <trkpt lat="43.30407" lon="5.60148">
        <ele>122</ele>
        <time>2016-07-11T02:59:38Z</time>
      </trkpt>
      <trkpt lat="43.30472" lon="5.60235">
        <ele>125</ele>
        <time>2016-07-11T03:01:38Z</time>
      </trkpt>
      <trkpt lat="43.30478" lon="5.60242">
        <ele>125</ele>
        <time>2016-07-11T03:03:38Z</time>
      </trkpt>
      <trkpt lat="43.30507" lon="5.60279">
        <ele>126</ele>
        <time>2016-07-11T03:05:38Z</time>
      </trkpt>
      <trkpt lat="43.30525" lon="5.60299">
        <ele>126</ele>
        <time>2016-07-11T03:07:38Z</time>
      </trkpt>
      <trkpt lat="43.3056" lon="5.60338">
        <ele>127</ele>
        <time>2016-07-11T03:09:38Z</time>
      </trkpt>
      <trkpt lat="43.30577" lon="5.60355">
        <ele>127</ele>
        <time>2016-07-11T03:11:38Z</time>
      </trkpt>
      <trkpt lat="43.306" lon="5.60381">
        <ele>128</ele>
        <time>2016-07-11T03:13:38Z</time>
      </trkpt>
      <trkpt lat="43.30607" lon="5.60391">
        <ele>129</ele>
        <time>2016-07-11T03:15:38Z</time>
      </trkpt>
      <trkpt lat="43.3061" lon="5.60397">
        <ele>129</ele>
        <time>2016-07-11T03:17:38Z</time>
      </trkpt>
      <trkpt lat="43.3064" lon="5.60467">
        <ele>131</ele>
        <time>2016-07-11T03:19:38Z</time>
      </trkpt>
      <trkpt lat="43.30646" lon="5.60482">
        <ele>132</ele>
        <time>2016-07-11T03:21:38Z</time>
      </trkpt>
      <trkpt lat="43.30661" lon="5.60511">
        <ele>133</ele>
        <time>2016-07-11T03:23:38Z</time>
      </trkpt>
      <trkpt lat="43.30666" lon="5.60518">
        <ele>134</ele>
        <time>2016-07-11T03:25:38Z</time>
      </trkpt>
      <trkpt lat="43.30693" lon="5.60556">
        <ele>136</ele>
        <time>2016-07-11T03:27:38Z</time>
      </trkpt>
      <trkpt lat="43.30725" lon="5.60601">
        <ele>139</ele>
        <time>2016-07-11T03:29:38Z</time>
      </trkpt>
      <trkpt lat="43.30726" lon="5.60604">
        <ele>139</ele>
        <time>2016-07-11T03:31:38Z</time>
      </trkpt>
      <trkpt lat="43.30758" lon="5.6065">
        <ele>140</ele>
        <time>2016-07-11T03:33:38Z</time>
      </trkpt>
      <trkpt lat="43.30787" lon="5.60693">
        <ele>141</ele>
        <time>2016-07-11T03:35:38Z</time>
      </trkpt>
      <trkpt lat="43.30801" lon="5.60711">
        <ele>142</ele>
        <time>2016-07-11T03:37:38Z</time>
      </trkpt>
      <trkpt lat="43.30812" lon="5.60726">
        <ele>143</ele>
        <time>2016-07-11T03:39:38Z</time>
      </trkpt>
      <trkpt lat="43.30821" lon="5.6074">
        <ele>143</ele>
        <time>2016-07-11T03:41:38Z</time>
      </trkpt>
      <trkpt lat="43.30841" lon="5.6077">
        <ele>145</ele>
        <time>2016-07-11T03:43:38Z</time>
      </trkpt>
      <trkpt lat="43.30849" lon="5.6078">
        <ele>145</ele>
        <time>2016-07-11T03:45:38Z</time>
      </trkpt>
      <trkpt lat="43.30855" lon="5.6079">
        <ele>145</ele>
        <time>2016-07-11T03:47:38Z</time>
      </trkpt>
      <trkpt lat="43.30868" lon="5.6081">
        <ele>146</ele>
        <time>2016-07-11T03:49:38Z</time>
      </trkpt>
      <trkpt lat="43.30876" lon="5.60799">
        <ele>146</ele>
        <time>2016-07-11T03:51:38Z</time>
      </trkpt>
      <trkpt lat="43.309" lon="5.60831">
        <ele>148</ele>
        <time>2016-07-11T03:53:38Z</time>
      </trkpt>
      <trkpt lat="43.30941" lon="5.60893">
        <ele>152</ele>
        <time>2016-07-11T03:55:38Z</time>
      </trkpt>
      <trkpt lat="43.30956" lon="5.60914">
        <ele>153</ele>
        <time>2016-07-11T03:57:38Z</time>
      </trkpt>
      <trkpt lat="43.30964" lon="5.60923">
        <ele>153</ele>
        <time>2016-07-11T03:59:38Z</time>
      </trkpt>
      <trkpt lat="43.30975" lon="5.60933">
        <ele>154</ele>
        <time>2016-07-11T04:01:38Z</time>
      </trkpt>
      <trkpt lat="43.31008" lon="5.60962">
        <ele>155</ele>
        <time>2016-07-11T04:03:38Z</time>
      </trkpt>
      <trkpt lat="43.31015" lon="5.60969">
        <ele>155</ele>
        <time>2016-07-11T04:05:38Z</time>
      </trkpt>
      <trkpt lat="43.31028" lon="5.60981">
        <ele>155</ele>
        <time>2016-07-11T04:07:38Z</time>
      </trkpt>
      <trkpt lat="43.31041" lon="5.60995">
        <ele>156</ele>
        <time>2016-07-11T04:09:38Z</time>
      </trkpt>
      <trkpt lat="43.31046" lon="5.61002">
        <ele>156</ele>
        <time>2016-07-11T04:11:38Z</time>
      </trkpt>
      <trkpt lat="43.3105" lon="5.61009">
        <ele>156</ele>
        <time>2016-07-11T04:13:38Z</time>
      </trkpt>
      <trkpt lat="43.31063" lon="5.61029">
        <ele>157</ele>
        <time>2016-07-11T04:15:38Z</time>
      </trkpt>
      <trkpt lat="43.31074" lon="5.61045">
        <ele>157</ele>
        <time>2016-07-11T04:17:38Z</time>
      </trkpt>
      <trkpt lat="43.31084" lon="5.61061">
        <ele>157</ele>
        <time>2016-07-11T04:19:38Z</time>
      </trkpt>
      <trkpt lat="43.31085" lon="5.61062">
        <ele>157</ele>
        <time>2016-07-11T04:21:38Z</time>
      </trkpt>
      <trkpt lat="43.31088" lon="5.61065">
        <ele>158</ele>
        <time>2016-07-11T04:23:38Z</time>
      </trkpt>
      <trkpt lat="43.31091" lon="5.61069">
        <ele>158</ele>
        <time>2016-07-11T04:25:38Z</time>
      </trkpt>
      <trkpt lat="43.31101" lon="5.61078">
        <ele>158</ele>
        <time>2016-07-11T04:27:38Z</time>
      </trkpt>
      <trkpt lat="43.31125" lon="5.611">
        <ele>160</ele>
        <time>2016-07-11T04:29:38Z</time>
      </trkpt>
      <trkpt lat="43.31137" lon="5.6111">
        <ele>161</ele>
        <time>2016-07-11T04:31:38Z</time>
      </trkpt>
      <trkpt lat="43.31154" lon="5.61125">
        <ele>163</ele>
        <time>2016-07-11T04:33:38Z</time>
      </trkpt>
      <trkpt lat="43.31173" lon="5.61145">
        <ele>164</ele>
        <time>2016-07-11T04:35:38Z</time>
      </trkpt>
      <trkpt lat="43.31185" lon="5.61164">
        <ele>165</ele>
        <time>2016-07-11T04:37:38Z</time>
      </trkpt>
      <trkpt lat="43.31193" lon="5.61178">
        <ele>166</ele>
        <time>2016-07-11T04:39:38Z</time>
      </trkpt>
      <trkpt lat="43.31202" lon="5.61188">
        <ele>167</ele>
        <time>2016-07-11T04:41:38Z</time>
      </trkpt>
      <trkpt lat="43.31209" lon="5.61192">
        <ele>167</ele>
        <time>2016-07-11T04:43:38Z</time>
      </trkpt>
      <trkpt lat="43.31214" lon="5.61194">
        <ele>167</ele>
        <time>2016-07-11T04:45:38Z</time>
      </trkpt>
      <trkpt lat="43.31219" lon="5.61197">
        <ele>168</ele>
        <time>2016-07-11T04:47:38Z</time>
      </trkpt>
      <trkpt lat="43.31237" lon="5.61203">
        <ele>168</ele>
        <time>2016-07-11T04:49:38Z</time>
      </trkpt>
      <trkpt lat="43.31245" lon="5.61206">
        <ele>169</ele>
        <time>2016-07-11T04:51:38Z</time>
      </trkpt>
      <trkpt lat="43.31255" lon="5.61208">
        <ele>169</ele>
        <time>2016-07-11T04:53:38Z</time>
      </trkpt>
      <trkpt lat="43.31265" lon="5.6121">
        <ele>169</ele>
        <time>2016-07-11T04:55:38Z</time>
      </trkpt>
      <trkpt lat="43.31277" lon="5.61212">
        <ele>169</ele>
        <time>2016-07-11T04:57:38Z</time>
      </trkpt>
      <trkpt lat="43.31291" lon="5.61213">
        <ele>170</ele>
        <time>2016-07-11T04:59:38Z</time>
      </trkpt>
      <trkpt lat="43.31292" lon="5.61213">
        <ele>170</ele>
        <time>2016-07-11T05:01:38Z</time>
      </trkpt>
      <trkpt lat="43.31302" lon="5.61215">
        <ele>170</ele>
        <time>2016-07-11T05:03:38Z</time>
      </trkpt>
      <trkpt lat="43.31317" lon="5.61217">
        <ele>170</ele>
        <time>2016-07-11T05:05:38Z</time>
      </trkpt>
      <trkpt lat="43.31328" lon="5.6122">
        <ele>170</ele>
        <time>2016-07-11T05:07:38Z</time>
      </trkpt>
      <trkpt lat="43.31339" lon="5.61224">
        <ele>171</ele>
        <time>2016-07-11T05:09:38Z</time>
      </trkpt>
      <trkpt lat="43.31351" lon="5.61231">
        <ele>172</ele>
        <time>2016-07-11T05:11:38Z</time>
      </trkpt>
      <trkpt lat="43.3136" lon="5.61238">
        <ele>172</ele>
        <time>2016-07-11T05:13:38Z</time>
      </trkpt>
      <trkpt lat="43.31382" lon="5.61258">
        <ele>174</ele>
        <time>2016-07-11T05:15:38Z</time>
      </trkpt>
      <trkpt lat="43.31391" lon="5.61265">
        <ele>175</ele>
        <time>2016-07-11T05:17:38Z</time>
      </trkpt>
      <trkpt lat="43.31395" lon="5.61269">
        <ele>175</ele>
        <time>2016-07-11T05:19:38Z</time>
      </trkpt>
      <trkpt lat="43.314" lon="5.61273">
        <ele>176</ele>
        <time>2016-07-11T05:21:38Z</time>
      </trkpt>
      <trkpt lat="43.31413" lon="5.61283">
        <ele>177</ele>
        <time>2016-07-11T05:23:38Z</time>
      </trkpt>
      <trkpt lat="43.31423" lon="5.61288">
        <ele>178</ele>
        <time>2016-07-11T05:25:38Z</time>
      </trkpt>
      <trkpt lat="43.31433" lon="5.61289">
        <ele>178</ele>
        <time>2016-07-11T05:27:38Z</time>
      </trkpt>
      <trkpt lat="43.31457" lon="5.61291">
        <ele>180</ele>
        <time>2016-07-11T05:29:38Z</time>
      </trkpt>
      <trkpt lat="43.31479" lon="5.61291">
        <ele>182</ele>
        <time>2016-07-11T05:31:38Z</time>
      </trkpt>
      <trkpt lat="43.31491" lon="5.61291">
        <ele>183</ele>
        <time>2016-07-11T05:33:38Z</time>
      </trkpt>
      <trkpt lat="43.31594" lon="5.61288">
        <ele>191</ele>
        <time>2016-07-11T05:35:38Z</time>
      </trkpt>
      <trkpt lat="43.31595" lon="5.61288">
        <ele>191</ele>
        <time>2016-07-11T05:37:38Z</time>
      </trkpt>
      <trkpt lat="43.31654" lon="5.61287">
        <ele>196</ele>
        <time>2016-07-11T05:39:38Z</time>
      </trkpt>
      <trkpt lat="43.31665" lon="5.61285">
        <ele>197</ele>
        <time>2016-07-11T05:41:38Z</time>
      </trkpt>
      <trkpt lat="43.31672" lon="5.61284">
        <ele>198</ele>
        <time>2016-07-11T05:43:38Z</time>
      </trkpt>
      <trkpt lat="43.31689" lon="5.6128">
        <ele>199</ele>
        <time>2016-07-11T05:45:38Z</time>
      </trkpt>
      <trkpt lat="43.31712" lon="5.61274">
        <ele>200</ele>
        <time>2016-07-11T05:47:38Z</time>
      </trkpt>
      <trkpt lat="43.31726" lon="5.6127">
        <ele>201</ele>
        <time>2016-07-11T05:49:38Z</time>
      </trkpt>
      <trkpt lat="43.31734" lon="5.61267">
        <ele>201</ele>
        <time>2016-07-11T05:51:38Z</time>
      </trkpt>
      <trkpt lat="43.31741" lon="5.61266">
        <ele>202</ele>
        <time>2016-07-11T05:53:38Z</time>
      </trkpt>
      <trkpt lat="43.31751" lon="5.61266">
        <ele>202</ele>
        <time>2016-07-11T05:55:38Z</time>
      </trkpt>
      <trkpt lat="43.31762" lon="5.61268">
        <ele>202</ele>
        <time>2016-07-11T05:57:38Z</time>
      </trkpt>
      <trkpt lat="43.31769" lon="5.61268">
        <ele>203</ele>
        <time>2016-07-11T05:59:38Z</time>
      </trkpt>
      <trkpt lat="43.31773" lon="5.61267">
        <ele>203</ele>
        <time>2016-07-11T06:01:38Z</time>
      </trkpt>
      <trkpt lat="43.3178" lon="5.61266">
        <ele>203</ele>
        <time>2016-07-11T06:03:38Z</time>
      </trkpt>
      <trkpt lat="43.31785" lon="5.61264">
        <ele>203</ele>
        <time>2016-07-11T06:05:38Z</time>
      </trkpt>
      <trkpt lat="43.31788" lon="5.61261">
        <ele>203</ele>
        <time>2016-07-11T06:07:38Z</time>
      </trkpt>
      <trkpt lat="43.31791" lon="5.6126">
        <ele>203</ele>
        <time>2016-07-11T06:09:38Z</time>
      </trkpt>
      <trkpt lat="43.31793" lon="5.61258">
        <ele>203</ele>
        <time>2016-07-11T06:11:38Z</time>
      </trkpt>
      <trkpt lat="43.31796" lon="5.61257">
        <ele>203</ele>
        <time>2016-07-11T06:13:38Z</time>
      </trkpt>
      <trkpt lat="43.31798" lon="5.61255">
        <ele>203</ele>
        <time>2016-07-11T06:15:38Z</time>
      </trkpt>
      <trkpt lat="43.31803" lon="5.61252">
        <ele>203</ele>
        <time>2016-07-11T06:17:38Z</time>
      </trkpt>
      <trkpt lat="43.31805" lon="5.61251">
        <ele>203</ele>
        <time>2016-07-11T06:19:38Z</time>
      </trkpt>
      <trkpt lat="43.31808" lon="5.6125">
        <ele>203</ele>
        <time>2016-07-11T06:21:38Z</time>
      </trkpt>
      <trkpt lat="43.31813" lon="5.61248">
        <ele>204</ele>
        <time>2016-07-11T06:23:38Z</time>
      </trkpt>
      <trkpt lat="43.31821" lon="5.61247">
        <ele>204</ele>
        <time>2016-07-11T06:25:38Z</time>
      </trkpt>
      <trkpt lat="43.31837" lon="5.61245">
        <ele>204</ele>
        <time>2016-07-11T06:27:38Z</time>
      </trkpt>
      <trkpt lat="43.31848" lon="5.61245">
        <ele>204</ele>
        <time>2016-07-11T06:29:38Z</time>
      </trkpt>
      <trkpt lat="43.31862" lon="5.61243">
        <ele>204</ele>
        <time>2016-07-11T06:31:38Z</time>
      </trkpt>
      <trkpt lat="43.31878" lon="5.61241">
        <ele>204</ele>
        <time>2016-07-11T06:33:38Z</time>
      </trkpt>
      <trkpt lat="43.31895" lon="5.61236">
        <ele>204</ele>
        <time>2016-07-11T06:35:38Z</time>
      </trkpt>
      <trkpt lat="43.31904" lon="5.61233">
        <ele>204</ele>
        <time>2016-07-11T06:37:38Z</time>
      </trkpt>
      <trkpt lat="43.31916" lon="5.6123">
        <ele>204</ele>
        <time>2016-07-11T06:39:38Z</time>
      </trkpt>
      <trkpt lat="43.3193" lon="5.61226">
        <ele>204</ele>
        <time>2016-07-11T06:41:38Z</time>
      </trkpt>
      <trkpt lat="43.31956" lon="5.61217">
        <ele>205</ele>
        <time>2016-07-11T06:43:38Z</time>
      </trkpt>
      <trkpt lat="43.31982" lon="5.61207">
        <ele>206</ele>
        <time>2016-07-11T06:45:38Z</time>
      </trkpt>
      <trkpt lat="43.31995" lon="5.61201">
        <ele>206</ele>
        <time>2016-07-11T06:47:38Z</time>
      </trkpt>
      <trkpt lat="43.32012" lon="5.61193">
        <ele>206</ele>
        <time>2016-07-11T06:49:38Z</time>
      </trkpt>
      <trkpt lat="43.32039" lon="5.61179">
        <ele>205</ele>
        <time>2016-07-11T06:51:38Z</time>
      </trkpt>
      <trkpt lat="43.32052" lon="5.61173">
        <ele>205</ele>
        <time>2016-07-11T06:53:38Z</time>
      </trkpt>
      <trkpt lat="43.3206" lon="5.61171">
        <ele>205</ele>
        <time>2016-07-11T06:55:38Z</time>
      </trkpt>
      <trkpt lat="43.32073" lon="5.61168">
        <ele>204</ele>
        <time>2016-07-11T06:57:38Z</time>
      </trkpt>
      <trkpt lat="43.32092" lon="5.61166">
        <ele>204</ele>
        <time>2016-07-11T06:59:38Z</time>
      </trkpt>
      <trkpt lat="43.32101" lon="5.61165">
        <ele>204</ele>
        <time>2016-07-11T07:01:38Z</time>
      </trkpt>
      <trkpt lat="43.32116" lon="5.61163">
        <ele>204</ele>
        <time>2016-07-11T07:03:38Z</time>
      </trkpt>
      <trkpt lat="43.32131" lon="5.61161">
        <ele>204</ele>
        <time>2016-07-11T07:05:38Z</time>
      </trkpt>
      <trkpt lat="43.32139" lon="5.61159">
        <ele>204</ele>
        <time>2016-07-11T07:07:38Z</time>
      </trkpt>
      <trkpt lat="43.32152" lon="5.61154">
        <ele>203</ele>
        <time>2016-07-11T07:09:38Z</time>
      </trkpt>
      <trkpt lat="43.32163" lon="5.61149">
        <ele>203</ele>
        <time>2016-07-11T07:11:38Z</time>
      </trkpt>
      <trkpt lat="43.32174" lon="5.61147">
        <ele>202</ele>
        <time>2016-07-11T07:13:38Z</time>
      </trkpt>
      <trkpt lat="43.32188" lon="5.61146">
        <ele>201</ele>
        <time>2016-07-11T07:15:38Z</time>
      </trkpt>
      <trkpt lat="43.32198" lon="5.61148">
        <ele>200</ele>
        <time>2016-07-11T07:17:38Z</time>
      </trkpt>
      <trkpt lat="43.32212" lon="5.6115">
        <ele>199</ele>
        <time>2016-07-11T07:19:38Z</time>
      </trkpt>
      <trkpt lat="43.32221" lon="5.61152">
        <ele>199</ele>
        <time>2016-07-11T07:21:38Z</time>
      </trkpt>
      <trkpt lat="43.3223" lon="5.61153">
        <ele>198</ele>
        <time>2016-07-11T07:23:38Z</time>
      </trkpt>
      <trkpt lat="43.32237" lon="5.61154">
        <ele>197</ele>
        <time>2016-07-11T07:25:38Z</time>
      </trkpt>
      <trkpt lat="43.32245" lon="5.61153">
        <ele>196</ele>
        <time>2016-07-11T07:27:38Z</time>
      </trkpt>
      <trkpt lat="43.32254" lon="5.6115">
        <ele>196</ele>
        <time>2016-07-11T07:29:38Z</time>
      </trkpt>
      <trkpt lat="43.32263" lon="5.61145">
        <ele>196</ele>
        <time>2016-07-11T07:31:38Z</time>
      </trkpt>
      <trkpt lat="43.32271" lon="5.61139">
        <ele>195</ele>
        <time>2016-07-11T07:33:38Z</time>
      </trkpt>
      <trkpt lat="43.3228" lon="5.61134">
        <ele>195</ele>
        <time>2016-07-11T07:35:38Z</time>
      </trkpt>
      <trkpt lat="43.32283" lon="5.61132">
        <ele>195</ele>
        <time>2016-07-11T07:37:38Z</time>
      </trkpt>
      <trkpt lat="43.32291" lon="5.61129">
        <ele>195</ele>
        <time>2016-07-11T07:39:38Z</time>
      </trkpt>
      <trkpt lat="43.323" lon="5.61126">
        <ele>194</ele>
        <time>2016-07-11T07:41:38Z</time>
      </trkpt>
      <trkpt lat="43.32306" lon="5.61126">
        <ele>194</ele>
        <time>2016-07-11T07:43:38Z</time>
      </trkpt>
      <trkpt lat="43.32316" lon="5.61125">
        <ele>194</ele>
        <time>2016-07-11T07:45:38Z</time>
      </trkpt>
      <trkpt lat="43.32338" lon="5.61127">
        <ele>193</ele>
        <time>2016-07-11T07:47:38Z</time>
      </trkpt>
      <trkpt lat="43.3235" lon="5.61127">
        <ele>193</ele>
        <time>2016-07-11T07:49:38Z</time>
      </trkpt>
      <trkpt lat="43.32362" lon="5.61124">
        <ele>192</ele>
        <time>2016-07-11T07:51:38Z</time>
      </trkpt>
      <trkpt lat="43.32366" lon="5.61123">
        <ele>192</ele>
        <time>2016-07-11T07:53:38Z</time>
      </trkpt>
      <trkpt lat="43.32376" lon="5.61121">
        <ele>191</ele>
        <time>2016-07-11T07:55:38Z</time>
      </trkpt>
      <trkpt lat="43.32385" lon="5.6112">
        <ele>191</ele>
        <time>2016-07-11T07:57:38Z</time>
      </trkpt>
      <trkpt lat="43.32392" lon="5.6112">
        <ele>191</ele>
        <time>2016-07-11T07:59:38Z</time>
      </trkpt>
      <trkpt lat="43.324" lon="5.6112">
        <ele>190</ele>
        <time>2016-07-11T08:01:38Z</time>
      </trkpt>
      <trkpt lat="43.32409" lon="5.61121">
        <ele>190</ele>
        <time>2016-07-11T08:03:38Z</time>
      </trkpt>
      <trkpt lat="43.32428" lon="5.61123">
        <ele>189</ele>
        <time>2016-07-11T08:05:38Z</time>
      </trkpt>
      <trkpt lat="43.32475" lon="5.61129">
        <ele>185</ele>
        <time>2016-07-11T08:07:38Z</time>
      </trkpt>
      <trkpt lat="43.32494" lon="5.61131">
        <ele>183</ele>
        <time>2016-07-11T08:09:38Z</time>
      </trkpt>
      <trkpt lat="43.32503" lon="5.61132">
        <ele>183</ele>
        <time>2016-07-11T08:11:38Z</time>
      </trkpt>
      <trkpt lat="43.32521" lon="5.61133">
        <ele>181</ele>
        <time>2016-07-11T08:13:38Z</time>
      </trkpt>
      <trkpt lat="43.32552" lon="5.61132">
        <ele>178</ele>
        <time>2016-07-11T08:15:38Z</time>
      </trkpt>
      <trkpt lat="43.32591" lon="5.61126">
        <ele>175</ele>
        <time>2016-07-11T08:17:38Z</time>
      </trkpt>
      <trkpt lat="43.32613" lon="5.61122">
        <ele>174</ele>
        <time>2016-07-11T08:19:38Z</time>
      </trkpt>
      <trkpt lat="43.32646" lon="5.61118">
        <ele>172</ele>
        <time>2016-07-11T08:21:38Z</time>
      </trkpt>
      <trkpt lat="43.32654" lon="5.61117">
        <ele>172</ele>
        <time>2016-07-11T08:23:38Z</time>
      </trkpt>
      <trkpt lat="43.3266" lon="5.61115">
        <ele>172</ele>
        <time>2016-07-11T08:25:38Z</time>
      </trkpt>
      <trkpt lat="43.32668" lon="5.61114">
        <ele>171</ele>
        <time>2016-07-11T08:27:38Z</time>
      </trkpt>
      <trkpt lat="43.32671" lon="5.61113">
        <ele>172</ele>
        <time>2016-07-11T08:29:38Z</time>
      </trkpt>
      <trkpt lat="43.32673" lon="5.61113">
        <ele>172</ele>
        <time>2016-07-11T08:31:38Z</time>
      </trkpt>
      <trkpt lat="43.3268" lon="5.61112">
        <ele>172</ele>
        <time>2016-07-11T08:33:38Z</time>
      </trkpt>
      <trkpt lat="43.32684" lon="5.61111">
        <ele>172</ele>
        <time>2016-07-11T08:35:38Z</time>
      </trkpt>
      <trkpt lat="43.32688" lon="5.6111">
        <ele>173</ele>
        <time>2016-07-11T08:37:38Z</time>
      </trkpt>
      <trkpt lat="43.32696" lon="5.61105">
        <ele>173</ele>
        <time>2016-07-11T08:39:38Z</time>
      </trkpt>
      <trkpt lat="43.32698" lon="5.61104">
        <ele>173</ele>
        <time>2016-07-11T08:41:38Z</time>
      </trkpt>
      <trkpt lat="43.327" lon="5.61101">
        <ele>173</ele>
        <time>2016-07-11T08:43:38Z</time>
      </trkpt>
      <trkpt lat="43.32702" lon="5.61097">
        <ele>174</ele>
        <time>2016-07-11T08:45:38Z</time>
      </trkpt>
      <trkpt lat="43.32706" lon="5.6109">
        <ele>174</ele>
        <time>2016-07-11T08:47:38Z</time>
      </trkpt>
      <trkpt lat="43.32707" lon="5.61084">
        <ele>174</ele>
        <time>2016-07-11T08:49:38Z</time>
      </trkpt>
      <trkpt lat="43.32708" lon="5.61078">
        <ele>174</ele>
        <time>2016-07-11T08:51:38Z</time>
      </trkpt>
      <trkpt lat="43.32708" lon="5.61069">
        <ele>174</ele>
        <time>2016-07-11T08:53:38Z</time>
      </trkpt>
      <trkpt lat="43.32708" lon="5.61056">
        <ele>173</ele>
        <time>2016-07-11T08:55:38Z</time>
      </trkpt>
      <trkpt lat="43.32707" lon="5.61039">
        <ele>173</ele>
        <time>2016-07-11T08:57:38Z</time>
      </trkpt>
      <trkpt lat="43.32707" lon="5.61023">
        <ele>172</ele>
        <time>2016-07-11T08:59:38Z</time>
      </trkpt>
      <trkpt lat="43.32707" lon="5.61012">
        <ele>172</ele>
        <time>2016-07-11T09:01:38Z</time>
      </trkpt>
      <trkpt lat="43.32709" lon="5.61001">
        <ele>172</ele>
        <time>2016-07-11T09:03:38Z</time>
      </trkpt>
      <trkpt lat="43.32711" lon="5.6099">
        <ele>172</ele>
        <time>2016-07-11T09:05:38Z</time>
      </trkpt>
      <trkpt lat="43.32713" lon="5.60984">
        <ele>172</ele>
        <time>2016-07-11T09:07:38Z</time>
      </trkpt>
      <trkpt lat="43.32715" lon="5.60977">
        <ele>172</ele>
        <time>2016-07-11T09:09:38Z</time>
      </trkpt>
      <trkpt lat="43.32718" lon="5.6097">
        <ele>172</ele>
        <time>2016-07-11T09:11:38Z</time>
      </trkpt>
      <trkpt lat="43.32743" lon="5.6092">
        <ele>173</ele>
        <time>2016-07-11T09:13:38Z</time>
      </trkpt>
      <trkpt lat="43.3275" lon="5.60909">
        <ele>174</ele>
        <time>2016-07-11T09:15:38Z</time>
      </trkpt>
      <trkpt lat="43.32755" lon="5.609">
        <ele>174</ele>
        <time>2016-07-11T09:17:38Z</time>
      </trkpt>
      <trkpt lat="43.32778" lon="5.60874">
        <ele>177</ele>
        <time>2016-07-11T09:19:38Z</time>
      </trkpt>
      <trkpt lat="43.32785" lon="5.60865">
        <ele>178</ele>
        <time>2016-07-11T09:21:38Z</time>
      </trkpt>
      <trkpt lat="43.32791" lon="5.60858">
        <ele>178</ele>
        <time>2016-07-11T09:23:38Z</time>
      </trkpt>
      <trkpt lat="43.32793" lon="5.60852">
        <ele>179</ele>
        <time>2016-07-11T09:25:38Z</time>
      </trkpt>
      <trkpt lat="43.32801" lon="5.60835">
        <ele>179</ele>
        <time>2016-07-11T09:27:38Z</time>
      </trkpt>
      <trkpt lat="43.32806" lon="5.60825">
        <ele>180</ele>
        <time>2016-07-11T09:29:38Z</time>
      </trkpt>
      <trkpt lat="43.3281" lon="5.6082">
        <ele>180</ele>
        <time>2016-07-11T09:31:38Z</time>
      </trkpt>
      <trkpt lat="43.32815" lon="5.60816">
        <ele>180</ele>
        <time>2016-07-11T09:33:38Z</time>
      </trkpt>
      <trkpt lat="43.32821" lon="5.60813">
        <ele>181</ele>
        <time>2016-07-11T09:35:38Z</time>
      </trkpt>
      <trkpt lat="43.32837" lon="5.60806">
        <ele>182</ele>
        <time>2016-07-11T09:37:38Z</time>
      </trkpt>
      <trkpt lat="43.32862" lon="5.60799">
        <ele>186</ele>
        <time>2016-07-11T09:39:38Z</time>
      </trkpt>
      <trkpt lat="43.3291" lon="5.60785">
        <ele>194</ele>
        <time>2016-07-11T09:41:38Z</time>
      </trkpt>
      <trkpt lat="43.3294" lon="5.60778">
        <ele>196</ele>
        <time>2016-07-11T09:43:38Z</time>
      </trkpt>
      <trkpt lat="43.32947" lon="5.60776">
        <ele>196</ele>
        <time>2016-07-11T09:45:38Z</time>
      </trkpt>
      <trkpt lat="43.32956" lon="5.60776">
        <ele>196</ele>
        <time>2016-07-11T09:47:38Z</time>
      </trkpt>
      <trkpt lat="43.32958" lon="5.60776">
        <ele>196</ele>
        <time>2016-07-11T09:49:38Z</time>
      </trkpt>
      <trkpt lat="43.3296" lon="5.60776">
        <ele>196</ele>
        <time>2016-07-11T09:51:38Z</time>
      </trkpt>
      <trkpt lat="43.32962" lon="5.60777">
        <ele>196</ele>
        <time>2016-07-11T09:53:38Z</time>
      </trkpt>
      <trkpt lat="43.3297" lon="5.60783">
        <ele>197</ele>
        <time>2016-07-11T09:55:38Z</time>
      </trkpt>
      <trkpt lat="43.32979" lon="5.6079">
        <ele>197</ele>
        <time>2016-07-11T09:57:38Z</time>
      </trkpt>
      <trkpt lat="43.32985" lon="5.60796">
        <ele>198</ele>
        <time>2016-07-11T09:59:38Z</time>
      </trkpt>
      <trkpt lat="43.32992" lon="5.60803">
        <ele>199</ele>
        <time>2016-07-11T10:01:38Z</time>
      </trkpt>
      <trkpt lat="43.32999" lon="5.60809">
        <ele>199</ele>
        <time>2016-07-11T10:03:38Z</time>
      </trkpt>
      <trkpt lat="43.33006" lon="5.60813">
        <ele>198</ele>
        <time>2016-07-11T10:05:38Z</time>
      </trkpt>
      <trkpt lat="43.33012" lon="5.60817">
        <ele>198</ele>
        <time>2016-07-11T10:07:38Z</time>
      </trkpt>
      <trkpt lat="43.33021" lon="5.60819">
        <ele>196</ele>
        <time>2016-07-11T10:09:38Z</time>
      </trkpt>
      <trkpt lat="43.33028" lon="5.6082">
        <ele>195</ele>
        <time>2016-07-11T10:11:38Z</time>
      </trkpt>
      <trkpt lat="43.33036" lon="5.60819">
        <ele>194</ele>
        <time>2016-07-11T10:13:38Z</time>
      </trkpt>
      <trkpt lat="43.33045" lon="5.60817">
        <ele>192</ele>
        <time>2016-07-11T10:15:38Z</time>
      </trkpt>
      <trkpt lat="43.33052" lon="5.60813">
        <ele>190</ele>
        <time>2016-07-11T10:17:38Z</time>
      </trkpt>
      <trkpt lat="43.33093" lon="5.60793">
        <ele>184</ele>
        <time>2016-07-11T10:19:38Z</time>
      </trkpt>
      <trkpt lat="43.33115" lon="5.60783">
        <ele>182</ele>
        <time>2016-07-11T10:21:38Z</time>
      </trkpt>
      <trkpt lat="43.33131" lon="5.60774">
        <ele>181</ele>
        <time>2016-07-11T10:23:38Z</time>
      </trkpt>
      <trkpt lat="43.33136" lon="5.60772">
        <ele>180</ele>
        <time>2016-07-11T10:25:38Z</time>
      </trkpt>
      <trkpt lat="43.33141" lon="5.6077">
        <ele>180</ele>
        <time>2016-07-11T10:27:38Z</time>
      </trkpt>
      <trkpt lat="43.33168" lon="5.6076">
        <ele>178</ele>
        <time>2016-07-11T10:29:38Z</time>
      </trkpt>
      <trkpt lat="43.3318" lon="5.60757">
        <ele>178</ele>
        <time>2016-07-11T10:31:38Z</time>
      </trkpt>
      <trkpt lat="43.33203" lon="5.60749">
        <ele>178</ele>
        <time>2016-07-11T10:33:38Z</time>
      </trkpt>
      <trkpt lat="43.33226" lon="5.60742">
        <ele>178</ele>
        <time>2016-07-11T10:35:38Z</time>
      </trkpt>
      <trkpt lat="43.33238" lon="5.60738">
        <ele>178</ele>
        <time>2016-07-11T10:37:38Z</time>
      </trkpt>
      <trkpt lat="43.33246" lon="5.6073">
        <ele>178</ele>
        <time>2016-07-11T10:39:38Z</time>
      </trkpt>
      <trkpt lat="43.33248" lon="5.60726">
        <ele>178</ele>
        <time>2016-07-11T10:41:38Z</time>
      </trkpt>
      <trkpt lat="43.33261" lon="5.60705">
        <ele>178</ele>
        <time>2016-07-11T10:43:38Z</time>
      </trkpt>
      <trkpt lat="43.33269" lon="5.60692">
        <ele>179</ele>
        <time>2016-07-11T10:45:38Z</time>
      </trkpt>
      <trkpt lat="43.33277" lon="5.60681">
        <ele>179</ele>
        <time>2016-07-11T10:47:38Z</time>
      </trkpt>
      <trkpt lat="43.33289" lon="5.60668">
        <ele>179</ele>
        <time>2016-07-11T10:49:38Z</time>
      </trkpt>
      <trkpt lat="43.33298" lon="5.60658">
        <ele>180</ele>
        <time>2016-07-11T10:51:38Z</time>
      </trkpt>
      <trkpt lat="43.33317" lon="5.60642">
        <ele>181</ele>
        <time>2016-07-11T10:53:38Z</time>
      </trkpt>
      <trkpt lat="43.3333" lon="5.6063">
        <ele>181</ele>
        <time>2016-07-11T10:55:38Z</time>
      </trkpt>
      <trkpt lat="43.33344" lon="5.60619">
        <ele>182</ele>
        <time>2016-07-11T10:57:38Z</time>
      </trkpt>
      <trkpt lat="43.33353" lon="5.60611">
        <ele>182</ele>
        <time>2016-07-11T10:59:38Z</time>
      </trkpt>
      <trkpt lat="43.3336" lon="5.60604">
        <ele>182</ele>
        <time>2016-07-11T11:01:38Z</time>
      </trkpt>
      <trkpt lat="43.33374" lon="5.60582">
        <ele>180</ele>
        <time>2016-07-11T11:03:38Z</time>
      </trkpt>
      <trkpt lat="43.33379" lon="5.60571">
        <ele>180</ele>
        <time>2016-07-11T11:05:38Z</time>
      </trkpt>
      <trkpt lat="43.33385" lon="5.60555">
        <ele>179</ele>
        <time>2016-07-11T11:07:38Z</time>
      </trkpt>
      <trkpt lat="43.33388" lon="5.60544">
        <ele>179</ele>
        <time>2016-07-11T11:09:38Z</time>
      </trkpt>
      <trkpt lat="43.33389" lon="5.60543">
        <ele>179</ele>
        <time>2016-07-11T11:11:38Z</time>
      </trkpt>
      <trkpt lat="43.33391" lon="5.60535">
        <ele>179</ele>
        <time>2016-07-11T11:13:38Z</time>
      </trkpt>
      <trkpt lat="43.33394" lon="5.60527">
        <ele>178</ele>
        <time>2016-07-11T11:15:38Z</time>
      </trkpt>
      <trkpt lat="43.33394" lon="5.60525">
        <ele>178</ele>
        <time>2016-07-11T11:17:38Z</time>
      </trkpt>
      <trkpt lat="43.33395" lon="5.60525">
        <ele>178</ele>
        <time>2016-07-11T11:19:38Z</time>
      </trkpt>
      <trkpt lat="43.33398" lon="5.60516">
        <ele>178</ele>
        <time>2016-07-11T11:21:38Z</time>
      </trkpt>
      <trkpt lat="43.33402" lon="5.60501">
        <ele>177</ele>
        <time>2016-07-11T11:23:38Z</time>
      </trkpt>
      <trkpt lat="43.33407" lon="5.60491">
        <ele>178</ele>
        <time>2016-07-11T11:25:38Z</time>
      </trkpt>
      <trkpt lat="43.33411" lon="5.60483">
        <ele>178</ele>
        <time>2016-07-11T11:27:38Z</time>
      </trkpt>
      <trkpt lat="43.33414" lon="5.6048">
        <ele>179</ele>
        <time>2016-07-11T11:29:38Z</time>
      </trkpt>
      <trkpt lat="43.33422" lon="5.6047">
        <ele>179</ele>
        <time>2016-07-11T11:31:38Z</time>
      </trkpt>
      <trkpt lat="43.33442" lon="5.60449">
        <ele>179</ele>
        <time>2016-07-11T11:33:38Z</time>
      </trkpt>
      <trkpt lat="43.33466" lon="5.60425">
        <ele>177</ele>
        <time>2016-07-11T11:35:38Z</time>
      </trkpt>
      <trkpt lat="43.33489" lon="5.60406">
        <ele>175</ele>
        <time>2016-07-11T11:37:38Z</time>
      </trkpt>
      <trkpt lat="43.33496" lon="5.604">
        <ele>174</ele>
        <time>2016-07-11T11:39:38Z</time>
      </trkpt>
      <trkpt lat="43.33502" lon="5.60396">
        <ele>174</ele>
        <time>2016-07-11T11:41:38Z</time>
      </trkpt>
      <trkpt lat="43.33506" lon="5.60395">
        <ele>173</ele>
        <time>2016-07-11T11:43:38Z</time>
      </trkpt>
      <trkpt lat="43.33512" lon="5.60394">
        <ele>173</ele>
        <time>2016-07-11T11:45:38Z</time>
      </trkpt>
      <trkpt lat="43.33513" lon="5.60394">
        <ele>173</ele>
        <time>2016-07-11T11:47:38Z</time>
      </trkpt>
      <trkpt lat="43.33528" lon="5.60394">
        <ele>171</ele>
        <time>2016-07-11T11:49:38Z</time>
      </trkpt>
      <trkpt lat="43.33535" lon="5.60393">
        <ele>171</ele>
        <time>2016-07-11T11:51:38Z</time>
      </trkpt>
      <trkpt lat="43.33541" lon="5.60392">
        <ele>170</ele>
        <time>2016-07-11T11:53:38Z</time>
      </trkpt>
      <trkpt lat="43.33547" lon="5.60389">
        <ele>170</ele>
        <time>2016-07-11T11:55:38Z</time>
      </trkpt>
      <trkpt lat="43.33557" lon="5.60386">
        <ele>169</ele>
        <time>2016-07-11T11:57:38Z</time>
      </trkpt>
      <trkpt lat="43.33577" lon="5.60382">
        <ele>167</ele>
        <time>2016-07-11T11:59:38Z</time>
      </trkpt>
      <trkpt lat="43.33607" lon="5.60377">
        <ele>165</ele>
        <time>2016-07-11T12:01:38Z</time>
      </trkpt>
      <trkpt lat="43.33618" lon="5.60375">
        <ele>165</ele>
        <time>2016-07-11T12:03:38Z</time>
      </trkpt>
      <trkpt lat="43.33626" lon="5.60373">
        <ele>164</ele>
        <time>2016-07-11T12:05:38Z</time>
      </trkpt>
      <trkpt lat="43.33628" lon="5.60372">
        <ele>164</ele>
        <time>2016-07-11T12:07:38Z</time>
      </trkpt>
      <trkpt lat="43.3363" lon="5.60369">
        <ele>164</ele>
        <time>2016-07-11T12:09:38Z</time>
      </trkpt>
      <trkpt lat="43.33633" lon="5.60365">
        <ele>164</ele>
        <time>2016-07-11T12:11:38Z</time>
      </trkpt>
      <trkpt lat="43.33638" lon="5.60355">
        <ele>164</ele>
        <time>2016-07-11T12:13:38Z</time>
      </trkpt>
      <trkpt lat="43.33643" lon="5.60341">
        <ele>163</ele>
        <time>2016-07-11T12:15:38Z</time>
      </trkpt>
      <trkpt lat="43.33648" lon="5.60333">
        <ele>163</ele>
        <time>2016-07-11T12:17:38Z</time>
      </trkpt>
      <trkpt lat="43.33652" lon="5.60327">
        <ele>163</ele>
        <time>2016-07-11T12:19:38Z</time>
      </trkpt>
      <trkpt lat="43.33656" lon="5.60322">
        <ele>163</ele>
        <time>2016-07-11T12:21:38Z</time>
      </trkpt>
      <trkpt lat="43.33661" lon="5.60318">
        <ele>163</ele>
        <time>2016-07-11T12:23:38Z</time>
      </trkpt>
      <trkpt lat="43.33668" lon="5.60313">
        <ele>163</ele>
        <time>2016-07-11T12:25:38Z</time>
      </trkpt>
      <trkpt lat="43.33682" lon="5.60305">
        <ele>163</ele>
        <time>2016-07-11T12:27:38Z</time>
      </trkpt>
      <trkpt lat="43.33689" lon="5.60302">
        <ele>163</ele>
        <time>2016-07-11T12:29:38Z</time>
      </trkpt>
      <trkpt lat="43.33691" lon="5.60301">
        <ele>163</ele>
        <time>2016-07-11T12:31:38Z</time>
      </trkpt>
      <trkpt lat="43.33694" lon="5.60301">
        <ele>163</ele>
        <time>2016-07-11T12:33:38Z</time>
      </trkpt>
      <trkpt lat="43.33697" lon="5.60301">
        <ele>163</ele>
        <time>2016-07-11T12:35:38Z</time>
      </trkpt>
      <trkpt lat="43.337" lon="5.60301">
        <ele>163</ele>
        <time>2016-07-11T12:37:38Z</time>
      </trkpt>
      <trkpt lat="43.33708" lon="5.60303">
        <ele>163</ele>
        <time>2016-07-11T12:39:38Z</time>
      </trkpt>
      <trkpt lat="43.33713" lon="5.60304">
        <ele>163</ele>
        <time>2016-07-11T12:41:38Z</time>
      </trkpt>
      <trkpt lat="43.33716" lon="5.60304">
        <ele>163</ele>
        <time>2016-07-11T12:43:38Z</time>
      </trkpt>
      <trkpt lat="43.33718" lon="5.60303">
        <ele>163</ele>
        <time>2016-07-11T12:45:38Z</time>
      </trkpt>
      <trkpt lat="43.3372" lon="5.60303">
        <ele>163</ele>
        <time>2016-07-11T12:47:38Z</time>
      </trkpt>
      <trkpt lat="43.3372" lon="5.60303">
        <ele>163</ele>
        <time>2016-07-11T12:49:38Z</time>
      </trkpt>
      <trkpt lat="43.33724" lon="5.603">
        <ele>163</ele>
        <time>2016-07-11T12:51:38Z</time>
      </trkpt>
      <trkpt lat="43.33726" lon="5.60298">
        <ele>163</ele>
        <time>2016-07-11T12:53:38Z</time>
      </trkpt>
      <trkpt lat="43.33728" lon="5.60295">
        <ele>163</ele>
        <time>2016-07-11T12:55:38Z</time>
      </trkpt>
      <trkpt lat="43.33731" lon="5.60286">
        <ele>163</ele>
        <time>2016-07-11T12:57:38Z</time>
      </trkpt>
      <trkpt lat="43.33735" lon="5.60274">
        <ele>162</ele>
        <time>2016-07-11T12:59:38Z</time>
      </trkpt>
      <trkpt lat="43.33739" lon="5.60258">
        <ele>160</ele>
        <time>2016-07-11T13:01:38Z</time>
      </trkpt>
      <trkpt lat="43.33743" lon="5.60239">
        <ele>159</ele>
        <time>2016-07-11T13:03:38Z</time>
      </trkpt>
      <trkpt lat="43.33744" lon="5.60228">
        <ele>159</ele>
        <time>2016-07-11T13:05:38Z</time>
      </trkpt>
      <trkpt lat="43.33744" lon="5.60218">
        <ele>158</ele>
        <time>2016-07-11T13:07:38Z</time>
      </trkpt>
      <trkpt lat="43.33744" lon="5.60211">
        <ele>158</ele>
        <time>2016-07-11T13:09:38Z</time>
      </trkpt>
      <trkpt lat="43.33742" lon="5.60202">
        <ele>158</ele>
        <time>2016-07-11T13:11:38Z</time>
      </trkpt>
      <trkpt lat="43.3374" lon="5.6019">
        <ele>157</ele>
        <time>2016-07-11T13:13:38Z</time>
      </trkpt>
      <trkpt lat="43.33737" lon="5.6018">
        <ele>157</ele>
        <time>2016-07-11T13:15:38Z</time>
      </trkpt>
      <trkpt lat="43.33735" lon="5.60172">
        <ele>156</ele>
        <time>2016-07-11T13:17:38Z</time>
      </trkpt>
      <trkpt lat="43.33734" lon="5.60165">
        <ele>156</ele>
        <time>2016-07-11T13:19:38Z</time>
      </trkpt>
      <trkpt lat="43.33733" lon="5.60158">
        <ele>155</ele>
        <time>2016-07-11T13:21:38Z</time>
      </trkpt>
      <trkpt lat="43.33732" lon="5.60153">
        <ele>155</ele>
        <time>2016-07-11T13:23:38Z</time>
      </trkpt>
      <trkpt lat="43.33732" lon="5.60147">
        <ele>154</ele>
        <time>2016-07-11T13:25:38Z</time>
      </trkpt>
      <trkpt lat="43.33734" lon="5.60139">
        <ele>154</ele>
        <time>2016-07-11T13:27:38Z</time>
      </trkpt>
      <trkpt lat="43.33735" lon="5.60135">
        <ele>153</ele>
        <time>2016-07-11T13:29:38Z</time>
      </trkpt>
      <trkpt lat="43.33736" lon="5.6013">
        <ele>153</ele>
        <time>2016-07-11T13:31:38Z</time>
      </trkpt>
      <trkpt lat="43.33739" lon="5.60125">
        <ele>152</ele>
        <time>2016-07-11T13:33:38Z</time>
      </trkpt>
      <trkpt lat="43.33742" lon="5.60121">
        <ele>152</ele>
        <time>2016-07-11T13:35:38Z</time>
      </trkpt>
      <trkpt lat="43.33745" lon="5.60118">
        <ele>152</ele>
        <time>2016-07-11T13:37:38Z</time>
      </trkpt>
      <trkpt lat="43.33747" lon="5.60116">
        <ele>152</ele>
        <time>2016-07-11T13:39:38Z</time>
      </trkpt>
      <trkpt lat="43.33749" lon="5.60115">
        <ele>152</ele>
        <time>2016-07-11T13:41:38Z</time>
      </trkpt>
      <trkpt lat="43.33753" lon="5.60113">
        <ele>151</ele>
        <time>2016-07-11T13:43:38Z</time>
      </trkpt>
      <trkpt lat="43.33755" lon="5.60113">
        <ele>151</ele>
        <time>2016-07-11T13:45:38Z</time>
      </trkpt>
      <trkpt lat="43.33757" lon="5.60113">
        <ele>151</ele>
        <time>2016-07-11T13:47:38Z</time>
      </trkpt>
      <trkpt lat="43.33759" lon="5.60113">
        <ele>151</ele>
        <time>2016-07-11T13:49:38Z</time>
      </trkpt>
      <trkpt lat="43.33761" lon="5.60113">
        <ele>151</ele>
        <time>2016-07-11T13:51:38Z</time>
      </trkpt>
      <trkpt lat="43.33763" lon="5.60114">
        <ele>151</ele>
        <time>2016-07-11T13:53:38Z</time>
      </trkpt>
      <trkpt lat="43.33765" lon="5.60115">
        <ele>151</ele>
        <time>2016-07-11T13:55:38Z</time>
      </trkpt>
      <trkpt lat="43.33774" lon="5.60119">
        <ele>151</ele>
        <time>2016-07-11T13:57:38Z</time>
      </trkpt>
      <trkpt lat="43.3378" lon="5.60123">
        <ele>152</ele>
        <time>2016-07-11T13:59:38Z</time>
      </trkpt>
      <trkpt lat="43.3379" lon="5.6013">
        <ele>152</ele>
        <time>2016-07-11T14:01:38Z</time>
      </trkpt>
      <trkpt lat="43.338" lon="5.60137">
        <ele>153</ele>
        <time>2016-07-11T14:03:38Z</time>
      </trkpt>
      <trkpt lat="43.33807" lon="5.60144">
        <ele>153</ele>
        <time>2016-07-11T14:05:38Z</time>
      </trkpt>
      <trkpt lat="43.33822" lon="5.60155">
        <ele>155</ele>
        <time>2016-07-11T14:07:38Z</time>
      </trkpt>
      <trkpt lat="43.33823" lon="5.60155">
        <ele>155</ele>
        <time>2016-07-11T14:09:38Z</time>
      </trkpt>
      <trkpt lat="43.33825" lon="5.60155">
        <ele>155</ele>
        <time>2016-07-11T14:11:38Z</time>
      </trkpt>
      <trkpt lat="43.33826" lon="5.60155">
        <ele>155</ele>
        <time>2016-07-11T14:13:38Z</time>
      </trkpt>
      <trkpt lat="43.33828" lon="5.60155">
        <ele>154</ele>
        <time>2016-07-11T14:15:38Z</time>
      </trkpt>
      <trkpt lat="43.3383" lon="5.60155">
        <ele>154</ele>
        <time>2016-07-11T14:17:38Z</time>
      </trkpt>
      <trkpt lat="43.33836" lon="5.60151">
        <ele>154</ele>
        <time>2016-07-11T14:19:38Z</time>
      </trkpt>
      <trkpt lat="43.33836" lon="5.60151">
        <ele>154</ele>
        <time>2016-07-11T14:21:38Z</time>
      </trkpt>
      <trkpt lat="43.33858" lon="5.60169">
        <ele>154</ele>
        <time>2016-07-11T14:23:38Z</time>
      </trkpt>
      <trkpt lat="43.33892" lon="5.60195">
        <ele>152</ele>
        <time>2016-07-11T14:25:38Z</time>
      </trkpt>
      <trkpt lat="43.33893" lon="5.60196">
        <ele>152</ele>
        <time>2016-07-11T14:27:38Z</time>
      </trkpt>
      <trkpt lat="43.339" lon="5.60197">
        <ele>152</ele>
        <time>2016-07-11T14:29:38Z</time>
      </trkpt>
      <trkpt lat="43.33908" lon="5.60204">
        <ele>151</ele>
        <time>2016-07-11T14:31:38Z</time>
      </trkpt>
      <trkpt lat="43.33917" lon="5.6021">
        <ele>150</ele>
        <time>2016-07-11T14:33:38Z</time>
      </trkpt>
      <trkpt lat="43.3393" lon="5.6022">
        <ele>150</ele>
        <time>2016-07-11T14:35:38Z</time>
      </trkpt>
      <trkpt lat="43.33951" lon="5.60228">
        <ele>150</ele>
        <time>2016-07-11T14:37:38Z</time>
      </trkpt>
      <trkpt lat="43.33969" lon="5.60234">
        <ele>150</ele>
        <time>2016-07-11T14:39:38Z</time>
      </trkpt>
      <trkpt lat="43.3398" lon="5.60238">
        <ele>150</ele>
        <time>2016-07-11T14:41:38Z</time>
      </trkpt>
      <trkpt lat="43.33984" lon="5.60239">
        <ele>150</ele>
        <time>2016-07-11T14:43:38Z</time>
      </trkpt>
      <trkpt lat="43.34051" lon="5.60264">
        <ele>151</ele>
        <time>2016-07-11T14:45:38Z</time>
      </trkpt>
      <trkpt lat="43.34107" lon="5.60285">
        <ele>152</ele>
        <time>2016-07-11T14:47:38Z</time>
      </trkpt>
      <trkpt lat="43.34129" lon="5.60293">
        <ele>152</ele>
        <time>2016-07-11T14:49:38Z</time>
      </trkpt>
      <trkpt lat="43.34144" lon="5.603">
        <ele>152</ele>
        <time>2016-07-11T14:51:38Z</time>
      </trkpt>
      <trkpt lat="43.34196" lon="5.60324">
        <ele>153</ele>
        <time>2016-07-11T14:53:38Z</time>
      </trkpt>
      <trkpt lat="43.3421" lon="5.6033">
        <ele>153</ele>
        <time>2016-07-11T14:55:38Z</time>
      </trkpt>
      <trkpt lat="43.34225" lon="5.60337">
        <ele>154</ele>
        <time>2016-07-11T14:57:38Z</time>
      </trkpt>
      <trkpt lat="43.34246" lon="5.60347">
        <ele>154</ele>
        <time>2016-07-11T14:59:38Z</time>
      </trkpt>
      <trkpt lat="43.34284" lon="5.60366">
        <ele>154</ele>
        <time>2016-07-11T15:01:38Z</time>
      </trkpt>
      <trkpt lat="43.34306" lon="5.60377">
        <ele>154</ele>
        <time>2016-07-11T15:03:38Z</time>
      </trkpt>
      <trkpt lat="43.34325" lon="5.60382">
        <ele>154</ele>
        <time>2016-07-11T15:05:38Z</time>
      </trkpt>
      <trkpt lat="43.34331" lon="5.60384">
        <ele>154</ele>
        <time>2016-07-11T15:07:38Z</time>
      </trkpt>
      <trkpt lat="43.34339" lon="5.60386">
        <ele>154</ele>
        <time>2016-07-11T15:09:38Z</time>
      </trkpt>
      <trkpt lat="43.34347" lon="5.60387">
        <ele>154</ele>
        <time>2016-07-11T15:11:38Z</time>
      </trkpt>
      <trkpt lat="43.34354" lon="5.60388">
        <ele>154</ele>
        <time>2016-07-11T15:13:38Z</time>
      </trkpt>
      <trkpt lat="43.34361" lon="5.60388">
        <ele>154</ele>
        <time>2016-07-11T15:15:38Z</time>
      </trkpt>
      <trkpt lat="43.34367" lon="5.60388">
        <ele>154</ele>
        <time>2016-07-11T15:17:38Z</time>
      </trkpt>
      <trkpt lat="43.34373" lon="5.60387">
        <ele>154</ele>
        <time>2016-07-11T15:19:38Z</time>
      </trkpt>
      <trkpt lat="43.34378" lon="5.60387">
        <ele>154</ele>
        <time>2016-07-11T15:21:38Z</time>
      </trkpt>
      <trkpt lat="43.34388" lon="5.60385">
        <ele>154</ele>
        <time>2016-07-11T15:23:38Z</time>
      </trkpt>
      <trkpt lat="43.34394" lon="5.60384">
        <ele>154</ele>
        <time>2016-07-11T15:25:38Z</time>
      </trkpt>
      <trkpt lat="43.34397" lon="5.60383">
        <ele>154</ele>
        <time>2016-07-11T15:27:38Z</time>
      </trkpt>
      <trkpt lat="43.34401" lon="5.60382">
        <ele>154</ele>
        <time>2016-07-11T15:29:38Z</time>
      </trkpt>
      <trkpt lat="43.34405" lon="5.6038">
        <ele>154</ele>
        <time>2016-07-11T15:31:38Z</time>
      </trkpt>
      <trkpt lat="43.34414" lon="5.60381">
        <ele>154</ele>
        <time>2016-07-11T15:33:38Z</time>
      </trkpt>
      <trkpt lat="43.34427" lon="5.60376">
        <ele>155</ele>
        <time>2016-07-11T15:35:38Z</time>
      </trkpt>
      <trkpt lat="43.34475" lon="5.6036">
        <ele>158</ele>
        <time>2016-07-11T15:37:38Z</time>
      </trkpt>
      <trkpt lat="43.34484" lon="5.60357">
        <ele>158</ele>
        <time>2016-07-11T15:39:38Z</time>
      </trkpt>
      <trkpt lat="43.34501" lon="5.60353">
        <ele>159</ele>
        <time>2016-07-11T15:41:38Z</time>
      </trkpt>
      <trkpt lat="43.34518" lon="5.60352">
        <ele>159</ele>
        <time>2016-07-11T15:43:38Z</time>
      </trkpt>
      <trkpt lat="43.34533" lon="5.60351">
        <ele>160</ele>
        <time>2016-07-11T15:45:38Z</time>
      </trkpt>
      <trkpt lat="43.3456" lon="5.6035">
        <ele>161</ele>
        <time>2016-07-11T15:47:38Z</time>
      </trkpt>
      <trkpt lat="43.34563" lon="5.6035">
        <ele>161</ele>
        <time>2016-07-11T15:49:38Z</time>
      </trkpt>
      <trkpt lat="43.34568" lon="5.60349">
        <ele>161</ele>
        <time>2016-07-11T15:51:38Z</time>
      </trkpt>
      <trkpt lat="43.34587" lon="5.60349">
        <ele>162</ele>
        <time>2016-07-11T15:53:38Z</time>
      </trkpt>
      <trkpt lat="43.34613" lon="5.6035">
        <ele>163</ele>
        <time>2016-07-11T15:55:38Z</time>
      </trkpt>
      <trkpt lat="43.34628" lon="5.6035">
        <ele>163</ele>
        <time>2016-07-11T15:57:38Z</time>
      </trkpt>
      <trkpt lat="43.34664" lon="5.60351">
        <ele>165</ele>
        <time>2016-07-11T15:59:38Z</time>
      </trkpt>
      <trkpt lat="43.34694" lon="5.60352">
        <ele>165</ele>
        <time>2016-07-11T16:01:38Z</time>
      </trkpt>
      <trkpt lat="43.34734" lon="5.60356">
        <ele>165</ele>
        <time>2016-07-11T16:03:38Z</time>
      </trkpt>
      <trkpt lat="43.34868" lon="5.60361">
        <ele>162</ele>
        <time>2016-07-11T16:05:38Z</time>
      </trkpt>
      <trkpt lat="43.34874" lon="5.60361">
        <ele>162</ele>
        <time>2016-07-11T16:07:38Z</time>
      </trkpt>
      <trkpt lat="43.34879" lon="5.60361">
        <ele>162</ele>
        <time>2016-07-11T16:09:38Z</time>
      </trkpt>
      <trkpt lat="43.34905" lon="5.60364">
        <ele>162</ele>
        <time>2016-07-11T16:11:38Z</time>
      </trkpt>
      <trkpt lat="43.34917" lon="5.60365">
        <ele>162</ele>
        <time>2016-07-11T16:13:38Z</time>
      </trkpt>
      <trkpt lat="43.34923" lon="5.60366">
        <ele>162</ele>
        <time>2016-07-11T16:15:38Z</time>
      </trkpt>
      <trkpt lat="43.34931" lon="5.60368">
        <ele>162</ele>
        <time>2016-07-11T16:17:38Z</time>
      </trkpt>
      <trkpt lat="43.34938" lon="5.6037">
        <ele>161</ele>
        <time>2016-07-11T16:19:38Z</time>
      </trkpt>
      <trkpt lat="43.34941" lon="5.60371">
        <ele>161</ele>
        <time>2016-07-11T16:21:38Z</time>
      </trkpt>
      <trkpt lat="43.34945" lon="5.60373">
        <ele>161</ele>
        <time>2016-07-11T16:23:38Z</time>
      </trkpt>
      <trkpt lat="43.3496" lon="5.60384">
        <ele>161</ele>
        <time>2016-07-11T16:25:38Z</time>
      </trkpt>
      <trkpt lat="43.34971" lon="5.60393">
        <ele>161</ele>
        <time>2016-07-11T16:27:38Z</time>
      </trkpt>
      <trkpt lat="43.34974" lon="5.60396">
        <ele>161</ele>
        <time>2016-07-11T16:29:38Z</time>
      </trkpt>
      <trkpt lat="43.34984" lon="5.60402">
        <ele>160</ele>
        <time>2016-07-11T16:31:38Z</time>
      </trkpt>
      <trkpt lat="43.34994" lon="5.60406">
        <ele>160</ele>
        <time>2016-07-11T16:33:38Z</time>
      </trkpt>
      <trkpt lat="43.35003" lon="5.60411">
        <ele>160</ele>
        <time>2016-07-11T16:35:38Z</time>
      </trkpt>
      <trkpt lat="43.35012" lon="5.60414">
        <ele>160</ele>
        <time>2016-07-11T16:37:38Z</time>
      </trkpt>
      <trkpt lat="43.35013" lon="5.60414">
        <ele>160</ele>
        <time>2016-07-11T16:39:38Z</time>
      </trkpt>
      <trkpt lat="43.35015" lon="5.60414">
        <ele>160</ele>
        <time>2016-07-11T16:41:38Z</time>
      </trkpt>
      <trkpt lat="43.35032" lon="5.60416">
        <ele>160</ele>
        <time>2016-07-11T16:43:38Z</time>
      </trkpt>
      <trkpt lat="43.35053" lon="5.60418">
        <ele>159</ele>
        <time>2016-07-11T16:45:38Z</time>
      </trkpt>
      <trkpt lat="43.35087" lon="5.6042">
        <ele>159</ele>
        <time>2016-07-11T16:47:38Z</time>
      </trkpt>
      <trkpt lat="43.35107" lon="5.60422">
        <ele>160</ele>
        <time>2016-07-11T16:49:38Z</time>
      </trkpt>
      <trkpt lat="43.3514" lon="5.60429">
        <ele>160</ele>
        <time>2016-07-11T16:51:38Z</time>
      </trkpt>
      <trkpt lat="43.35142" lon="5.6043">
        <ele>160</ele>
        <time>2016-07-11T16:53:38Z</time>
      </trkpt>
      <trkpt lat="43.35148" lon="5.60432">
        <ele>160</ele>
        <time>2016-07-11T16:55:38Z</time>
      </trkpt>
      <trkpt lat="43.35154" lon="5.60435">
        <ele>160</ele>
        <time>2016-07-11T16:57:38Z</time>
      </trkpt>
      <trkpt lat="43.3516" lon="5.6044">
        <ele>160</ele>
        <time>2016-07-11T16:59:38Z</time>
      </trkpt>
      <trkpt lat="43.35164" lon="5.60443">
        <ele>160</ele>
        <time>2016-07-11T17:01:38Z</time>
      </trkpt>
      <trkpt lat="43.35169" lon="5.60449">
        <ele>160</ele>
        <time>2016-07-11T17:03:38Z</time>
      </trkpt>
      <trkpt lat="43.35173" lon="5.60454">
        <ele>160</ele>
        <time>2016-07-11T17:05:38Z</time>
      </trkpt>
      <trkpt lat="43.35175" lon="5.60457">
        <ele>161</ele>
        <time>2016-07-11T17:07:38Z</time>
      </trkpt>
      <trkpt lat="43.35176" lon="5.6046">
        <ele>161</ele>
        <time>2016-07-11T17:09:38Z</time>
      </trkpt>
      <trkpt lat="43.35178" lon="5.60464">
        <ele>161</ele>
        <time>2016-07-11T17:11:38Z</time>
      </trkpt>
      <trkpt lat="43.3518" lon="5.60468">
        <ele>161</ele>
        <time>2016-07-11T17:13:38Z</time>
      </trkpt>
      <trkpt lat="43.35182" lon="5.60475">
        <ele>161</ele>
        <time>2016-07-11T17:15:38Z</time>
      </trkpt>
      <trkpt lat="43.35191" lon="5.60503">
        <ele>162</ele>
        <time>2016-07-11T17:17:38Z</time>
      </trkpt>
      <trkpt lat="43.35192" lon="5.60506">
        <ele>162</ele>
        <time>2016-07-11T17:19:38Z</time>
      </trkpt>
      <trkpt lat="43.35193" lon="5.60508">
        <ele>162</ele>
        <time>2016-07-11T17:21:38Z</time>
      </trkpt>
      <trkpt lat="43.35194" lon="5.6051">
        <ele>162</ele>
        <time>2016-07-11T17:23:38Z</time>
      </trkpt>
      <trkpt lat="43.35195" lon="5.60511">
        <ele>162</ele>
        <time>2016-07-11T17:25:38Z</time>
      </trkpt>
      <trkpt lat="43.35196" lon="5.60512">
        <ele>162</ele>
        <time>2016-07-11T17:27:38Z</time>
      </trkpt>
      <trkpt lat="43.35198" lon="5.60512">
        <ele>162</ele>
        <time>2016-07-11T17:29:38Z</time>
      </trkpt>
      <trkpt lat="43.35199" lon="5.60513">
        <ele>163</ele>
        <time>2016-07-11T17:31:38Z</time>
      </trkpt>
      <trkpt lat="43.35296" lon="5.6056">
        <ele>168</ele>
        <time>2016-07-11T17:33:38Z</time>
      </trkpt>
      <trkpt lat="43.35322" lon="5.60573">
        <ele>170</ele>
        <time>2016-07-11T17:35:38Z</time>
      </trkpt>
      <trkpt lat="43.3533" lon="5.60577">
        <ele>170</ele>
        <time>2016-07-11T17:37:38Z</time>
      </trkpt>
      <trkpt lat="43.35349" lon="5.60588">
        <ele>175</ele>
        <time>2016-07-11T17:39:38Z</time>
      </trkpt>
      <trkpt lat="43.35357" lon="5.60593">
        <ele>177</ele>
        <time>2016-07-11T17:41:38Z</time>
      </trkpt>
      <trkpt lat="43.35364" lon="5.60598">
        <ele>178</ele>
        <time>2016-07-11T17:43:38Z</time>
      </trkpt>
      <trkpt lat="43.3537" lon="5.60604">
        <ele>179</ele>
        <time>2016-07-11T17:45:38Z</time>
      </trkpt>
      <trkpt lat="43.35382" lon="5.60616">
        <ele>181</ele>
        <time>2016-07-11T17:47:38Z</time>
      </trkpt>
      <trkpt lat="43.35388" lon="5.60622">
        <ele>181</ele>
        <time>2016-07-11T17:49:38Z</time>
      </trkpt>
      <trkpt lat="43.35392" lon="5.60628">
        <ele>181</ele>
        <time>2016-07-11T17:51:38Z</time>
      </trkpt>
      <trkpt lat="43.35396" lon="5.60633">
        <ele>181</ele>
        <time>2016-07-11T17:53:38Z</time>
      </trkpt>
      <trkpt lat="43.354" lon="5.6064">
        <ele>180</ele>
        <time>2016-07-11T17:55:38Z</time>
      </trkpt>
      <trkpt lat="43.35404" lon="5.60647">
        <ele>180</ele>
        <time>2016-07-11T17:57:38Z</time>
      </trkpt>
      <trkpt lat="43.35412" lon="5.60674">
        <ele>176</ele>
        <time>2016-07-11T17:59:38Z</time>
      </trkpt>
      <trkpt lat="43.35423" lon="5.60705">
        <ele>175</ele>
        <time>2016-07-11T18:01:38Z</time>
      </trkpt>
      <trkpt lat="43.35427" lon="5.60716">
        <ele>175</ele>
        <time>2016-07-11T18:03:38Z</time>
      </trkpt>
      <trkpt lat="43.35429" lon="5.60722">
        <ele>175</ele>
        <time>2016-07-11T18:05:38Z</time>
      </trkpt>
      <trkpt lat="43.35435" lon="5.60733">
        <ele>175</ele>
        <time>2016-07-11T18:07:38Z</time>
      </trkpt>
      <trkpt lat="43.35445" lon="5.60752">
        <ele>174</ele>
        <time>2016-07-11T18:09:38Z</time>
      </trkpt>
      <trkpt lat="43.35463" lon="5.60783">
        <ele>176</ele>
        <time>2016-07-11T18:11:38Z</time>
      </trkpt>
      <trkpt lat="43.3548" lon="5.60812">
        <ele>176</ele>
        <time>2016-07-11T18:13:38Z</time>
      </trkpt>
      <trkpt lat="43.35542" lon="5.60915">
        <ele>171</ele>
        <time>2016-07-11T18:15:38Z</time>
      </trkpt>
      <trkpt lat="43.35555" lon="5.60937">
        <ele>171</ele>
        <time>2016-07-11T18:17:38Z</time>
      </trkpt>
      <trkpt lat="43.35559" lon="5.60943">
        <ele>171</ele>
        <time>2016-07-11T18:19:38Z</time>
      </trkpt>
      <trkpt lat="43.35563" lon="5.60947">
        <ele>171</ele>
        <time>2016-07-11T18:21:38Z</time>
      </trkpt>
      <trkpt lat="43.35566" lon="5.60951">
        <ele>171</ele>
        <time>2016-07-11T18:23:38Z</time>
      </trkpt>
      <trkpt lat="43.35573" lon="5.60957">
        <ele>171</ele>
        <time>2016-07-11T18:25:38Z</time>
      </trkpt>
      <trkpt lat="43.35581" lon="5.60962">
        <ele>170</ele>
        <time>2016-07-11T18:27:38Z</time>
      </trkpt>
      <trkpt lat="43.35585" lon="5.60965">
        <ele>170</ele>
        <time>2016-07-11T18:29:38Z</time>
      </trkpt>
      <trkpt lat="43.35588" lon="5.60966">
        <ele>170</ele>
        <time>2016-07-11T18:31:38Z</time>
      </trkpt>
      <trkpt lat="43.35593" lon="5.60967">
        <ele>171</ele>
        <time>2016-07-11T18:33:38Z</time>
      </trkpt>
      <trkpt lat="43.35597" lon="5.60968">
        <ele>171</ele>
        <time>2016-07-11T18:35:38Z</time>
      </trkpt>
      <trkpt lat="43.35609" lon="5.60969">
        <ele>172</ele>
        <time>2016-07-11T18:37:38Z</time>
      </trkpt>
      <trkpt lat="43.35622" lon="5.6097">
        <ele>173</ele>
        <time>2016-07-11T18:39:38Z</time>
      </trkpt>
      <trkpt lat="43.35657" lon="5.60971">
        <ele>176</ele>
        <time>2016-07-11T18:41:38Z</time>
      </trkpt>
      <trkpt lat="43.35718" lon="5.60974">
        <ele>183</ele>
        <time>2016-07-11T18:43:38Z</time>
      </trkpt>
      <trkpt lat="43.35727" lon="5.60975">
        <ele>183</ele>
        <time>2016-07-11T18:45:38Z</time>
      </trkpt>
      <trkpt lat="43.35734" lon="5.60977">
        <ele>184</ele>
        <time>2016-07-11T18:47:38Z</time>
      </trkpt>
      <trkpt lat="43.35741" lon="5.6098">
        <ele>183</ele>
        <time>2016-07-11T18:49:38Z</time>
      </trkpt>
      <trkpt lat="43.35753" lon="5.60987">
        <ele>181</ele>
        <time>2016-07-11T18:51:38Z</time>
      </trkpt>
      <trkpt lat="43.35774" lon="5.60999">
        <ele>176</ele>
        <time>2016-07-11T18:53:38Z</time>
      </trkpt>
      <trkpt lat="43.35784" lon="5.61004">
        <ele>175</ele>
        <time>2016-07-11T18:55:38Z</time>
      </trkpt>
      <trkpt lat="43.35789" lon="5.61005">
        <ele>175</ele>
        <time>2016-07-11T18:57:38Z</time>
      </trkpt>
      <trkpt lat="43.35792" lon="5.61006">
        <ele>175</ele>
        <time>2016-07-11T18:59:38Z</time>
      </trkpt>
      <trkpt lat="43.35795" lon="5.61006">
        <ele>175</ele>
        <time>2016-07-11T19:01:38Z</time>
      </trkpt>
      <trkpt lat="43.35798" lon="5.61006">
        <ele>175</ele>
        <time>2016-07-11T19:03:38Z</time>
      </trkpt>
      <trkpt lat="43.35802" lon="5.61005">
        <ele>175</ele>
        <time>2016-07-11T19:05:38Z</time>
      </trkpt>
      <trkpt lat="43.35807" lon="5.61004">
        <ele>175</ele>
        <time>2016-07-11T19:07:38Z</time>
      </trkpt>
      <trkpt lat="43.35811" lon="5.61003">
        <ele>175</ele>
        <time>2016-07-11T19:09:38Z</time>
      </trkpt>
      <trkpt lat="43.35813" lon="5.61002">
        <ele>175</ele>
        <time>2016-07-11T19:11:38Z</time>
      </trkpt>
      <trkpt lat="43.35815" lon="5.61001">
        <ele>175</ele>
        <time>2016-07-11T19:13:38Z</time>
      </trkpt>
      <trkpt lat="43.35817" lon="5.60999">
        <ele>175</ele>
        <time>2016-07-11T19:15:38Z</time>
      </trkpt>
      <trkpt lat="43.35819" lon="5.60997">
        <ele>176</ele>
        <time>2016-07-11T19:17:38Z</time>
      </trkpt>
      <trkpt lat="43.35822" lon="5.60992">
        <ele>177</ele>
        <time>2016-07-11T19:19:38Z</time>
      </trkpt>
      <trkpt lat="43.35827" lon="5.60985">
        <ele>179</ele>
        <time>2016-07-11T19:21:38Z</time>
      </trkpt>
      <trkpt lat="43.35833" lon="5.60972">
        <ele>182</ele>
        <time>2016-07-11T19:23:38Z</time>
      </trkpt>
      <trkpt lat="43.35842" lon="5.60957">
        <ele>184</ele>
        <time>2016-07-11T19:25:38Z</time>
      </trkpt>
      <trkpt lat="43.35849" lon="5.60945">
        <ele>186</ele>
        <time>2016-07-11T19:27:38Z</time>
      </trkpt>
      <trkpt lat="43.35873" lon="5.60913">
        <ele>185</ele>
        <time>2016-07-11T19:29:38Z</time>
      </trkpt>
      <trkpt lat="43.3588" lon="5.60906">
        <ele>184</ele>
        <time>2016-07-11T19:31:38Z</time>
      </trkpt>
      <trkpt lat="43.35889" lon="5.60896">
        <ele>184</ele>
        <time>2016-07-11T19:33:38Z</time>
      </trkpt>
      <trkpt lat="43.35898" lon="5.60889">
        <ele>183</ele>
        <time>2016-07-11T19:35:38Z</time>
      </trkpt>
      <trkpt lat="43.35906" lon="5.60883">
        <ele>182</ele>
        <time>2016-07-11T19:37:38Z</time>
      </trkpt>
      <trkpt lat="43.35916" lon="5.60877">
        <ele>180</ele>
        <time>2016-07-11T19:39:38Z</time>
      </trkpt>
      <trkpt lat="43.3593" lon="5.60872">
        <ele>181</ele>
        <time>2016-07-11T19:41:38Z</time>
      </trkpt>
      <trkpt lat="43.35949" lon="5.60864">
        <ele>184</ele>
        <time>2016-07-11T19:43:38Z</time>
      </trkpt>
      <trkpt lat="43.35954" lon="5.60862">
        <ele>185</ele>
        <time>2016-07-11T19:45:38Z</time>
      </trkpt>
      <trkpt lat="43.35963" lon="5.6086">
        <ele>186</ele>
        <time>2016-07-11T19:47:38Z</time>
      </trkpt>
      <trkpt lat="43.3597" lon="5.60859">
        <ele>187</ele>
        <time>2016-07-11T19:49:38Z</time>
      </trkpt>
      <trkpt lat="43.35975" lon="5.60858">
        <ele>187</ele>
        <time>2016-07-11T19:51:38Z</time>
      </trkpt>
      <trkpt lat="43.35979" lon="5.60859">
        <ele>187</ele>
        <time>2016-07-11T19:53:38Z</time>
      </trkpt>
      <trkpt lat="43.35982" lon="5.6086">
        <ele>187</ele>
        <time>2016-07-11T19:55:38Z</time>
      </trkpt>
      <trkpt lat="43.35991" lon="5.60863">
        <ele>187</ele>
        <time>2016-07-11T19:57:38Z</time>
      </trkpt>
      <trkpt lat="43.35999" lon="5.60866">
        <ele>186</ele>
        <time>2016-07-11T19:59:38Z</time>
      </trkpt>
      <trkpt lat="43.36002" lon="5.60869">
        <ele>186</ele>
        <time>2016-07-11T20:01:38Z</time>
      </trkpt>
      <trkpt lat="43.36007" lon="5.60871">
        <ele>187</ele>
        <time>2016-07-11T20:03:38Z</time>
      </trkpt>
      <trkpt lat="43.3603" lon="5.60889">
        <ele>190</ele>
        <time>2016-07-11T20:05:38Z</time>
      </trkpt>
      <trkpt lat="43.3604" lon="5.60899">
        <ele>191</ele>
        <time>2016-07-11T20:07:38Z</time>
      </trkpt>
      <trkpt lat="43.36049" lon="5.60908">
        <ele>191</ele>
        <time>2016-07-11T20:09:38Z</time>
      </trkpt>
      <trkpt lat="43.36054" lon="5.60913">
        <ele>192</ele>
        <time>2016-07-11T20:11:38Z</time>
      </trkpt>
      <trkpt lat="43.36062" lon="5.60922">
        <ele>192</ele>
        <time>2016-07-11T20:13:38Z</time>
      </trkpt>
      <trkpt lat="43.36067" lon="5.60927">
        <ele>193</ele>
        <time>2016-07-11T20:15:38Z</time>
      </trkpt>
      <trkpt lat="43.36079" lon="5.60945">
        <ele>192</ele>
        <time>2016-07-11T20:17:38Z</time>
      </trkpt>
      <trkpt lat="43.36095" lon="5.60971">
        <ele>190</ele>
        <time>2016-07-11T20:19:38Z</time>
      </trkpt>
      <trkpt lat="43.36103" lon="5.60985">
        <ele>190</ele>
        <time>2016-07-11T20:21:38Z</time>
      </trkpt>
      <trkpt lat="43.36107" lon="5.60994">
        <ele>189</ele>
        <time>2016-07-11T20:23:38Z</time>
      </trkpt>
      <trkpt lat="43.36112" lon="5.61006">
        <ele>189</ele>
        <time>2016-07-11T20:25:38Z</time>
      </trkpt>
      <trkpt lat="43.36117" lon="5.61018">
        <ele>190</ele>
        <time>2016-07-11T20:27:38Z</time>
      </trkpt>
      <trkpt lat="43.36122" lon="5.6103">
        <ele>190</ele>
        <time>2016-07-11T20:29:38Z</time>
      </trkpt>
      <trkpt lat="43.36125" lon="5.61036">
        <ele>191</ele>
        <time>2016-07-11T20:31:38Z</time>
      </trkpt>
      <trkpt lat="43.36132" lon="5.61055">
        <ele>190</ele>
        <time>2016-07-11T20:33:38Z</time>
      </trkpt>
      <trkpt lat="43.36138" lon="5.61071">
        <ele>189</ele>
        <time>2016-07-11T20:35:38Z</time>
      </trkpt>
      <trkpt lat="43.36149" lon="5.61108">
        <ele>186</ele>
        <time>2016-07-11T20:37:38Z</time>
      </trkpt>
      <trkpt lat="43.36158" lon="5.61134">
        <ele>182</ele>
        <time>2016-07-11T20:39:38Z</time>
      </trkpt>
      <trkpt lat="43.36161" lon="5.61142">
        <ele>180</ele>
        <time>2016-07-11T20:41:38Z</time>
      </trkpt>
      <trkpt lat="43.36163" lon="5.61146">
        <ele>179</ele>
        <time>2016-07-11T20:43:38Z</time>
      </trkpt>
      <trkpt lat="43.36165" lon="5.6115">
        <ele>178</ele>
        <time>2016-07-11T20:45:38Z</time>
      </trkpt>
      <trkpt lat="43.36167" lon="5.61152">
        <ele>178</ele>
        <time>2016-07-11T20:47:38Z</time>
      </trkpt>
      <trkpt lat="43.36169" lon="5.61154">
        <ele>178</ele>
        <time>2016-07-11T20:49:38Z</time>
      </trkpt>
      <trkpt lat="43.36171" lon="5.61156">
        <ele>177</ele>
        <time>2016-07-11T20:51:38Z</time>
      </trkpt>
      <trkpt lat="43.36175" lon="5.61159">
        <ele>177</ele>
        <time>2016-07-11T20:53:38Z</time>
      </trkpt>
      <trkpt lat="43.36177" lon="5.61161">
        <ele>177</ele>
        <time>2016-07-11T20:55:38Z</time>
      </trkpt>
      <trkpt lat="43.36179" lon="5.61162">
        <ele>177</ele>
        <time>2016-07-11T20:57:38Z</time>
      </trkpt>
      <trkpt lat="43.36182" lon="5.61164">
        <ele>177</ele>
        <time>2016-07-11T20:59:38Z</time>
      </trkpt>
      <trkpt lat="43.36191" lon="5.61167">
        <ele>178</ele>
        <time>2016-07-11T21:01:38Z</time>
      </trkpt>
      <trkpt lat="43.36274" lon="5.61191">
        <ele>183</ele>
        <time>2016-07-11T21:03:38Z</time>
      </trkpt>
      <trkpt lat="43.36297" lon="5.61198">
        <ele>184</ele>
        <time>2016-07-11T21:05:38Z</time>
      </trkpt>
      <trkpt lat="43.36306" lon="5.612">
        <ele>184</ele>
        <time>2016-07-11T21:07:38Z</time>
      </trkpt>
      <trkpt lat="43.36326" lon="5.61207">
        <ele>184</ele>
        <time>2016-07-11T21:09:38Z</time>
      </trkpt>
      <trkpt lat="43.36332" lon="5.6121">
        <ele>184</ele>
        <time>2016-07-11T21:11:38Z</time>
      </trkpt>
      <trkpt lat="43.36339" lon="5.61213">
        <ele>183</ele>
        <time>2016-07-11T21:13:38Z</time>
      </trkpt>
      <trkpt lat="43.36348" lon="5.61218">
        <ele>181</ele>
        <time>2016-07-11T21:15:38Z</time>
      </trkpt>
      <trkpt lat="43.36354" lon="5.61226">
        <ele>179</ele>
        <time>2016-07-11T21:17:38Z</time>
      </trkpt>
      <trkpt lat="43.36369" lon="5.61242">
        <ele>176</ele>
        <time>2016-07-11T21:19:38Z</time>
      </trkpt>
      <trkpt lat="43.36386" lon="5.6126">
        <ele>175</ele>
        <time>2016-07-11T21:21:38Z</time>
      </trkpt>
      <trkpt lat="43.36389" lon="5.61263">
        <ele>175</ele>
        <time>2016-07-11T21:23:38Z</time>
      </trkpt>
      <trkpt lat="43.3639" lon="5.61264">
        <ele>175</ele>
        <time>2016-07-11T21:25:38Z</time>
      </trkpt>
      <trkpt lat="43.36391" lon="5.61264">
        <ele>175</ele>
        <time>2016-07-11T21:27:38Z</time>
      </trkpt>
      <trkpt lat="43.36393" lon="5.61265">
        <ele>175</ele>
        <time>2016-07-11T21:29:38Z</time>
      </trkpt>
      <trkpt lat="43.36394" lon="5.61266">
        <ele>175</ele>
        <time>2016-07-11T21:31:38Z</time>
      </trkpt>
      <trkpt lat="43.36395" lon="5.61267">
        <ele>175</ele>
        <time>2016-07-11T21:33:38Z</time>
      </trkpt>
      <trkpt lat="43.36398" lon="5.61268">
        <ele>175</ele>
        <time>2016-07-11T21:35:38Z</time>
      </trkpt>
      <trkpt lat="43.36402" lon="5.61269">
        <ele>175</ele>
        <time>2016-07-11T21:37:38Z</time>
      </trkpt>
      <trkpt lat="43.36404" lon="5.6127">
        <ele>175</ele>
        <time>2016-07-11T21:39:38Z</time>
      </trkpt>
      <trkpt lat="43.36407" lon="5.61271">
        <ele>175</ele>
        <time>2016-07-11T21:41:38Z</time>
      </trkpt>
      <trkpt lat="43.36409" lon="5.61271">
        <ele>175</ele>
        <time>2016-07-11T21:43:38Z</time>
      </trkpt>
      <trkpt lat="43.36411" lon="5.61271">
        <ele>175</ele>
        <time>2016-07-11T21:45:38Z</time>
      </trkpt>
      <trkpt lat="43.36414" lon="5.61271">
        <ele>175</ele>
        <time>2016-07-11T21:47:38Z</time>
      </trkpt>
      <trkpt lat="43.36418" lon="5.6127">
        <ele>175</ele>
        <time>2016-07-11T21:49:38Z</time>
      </trkpt>
      <trkpt lat="43.36421" lon="5.61269">
        <ele>175</ele>
        <time>2016-07-11T21:51:38Z</time>
      </trkpt>
      <trkpt lat="43.36424" lon="5.61267">
        <ele>175</ele>
        <time>2016-07-11T21:53:38Z</time>
      </trkpt>
      <trkpt lat="43.36427" lon="5.61266">
        <ele>175</ele>
        <time>2016-07-11T21:55:38Z</time>
      </trkpt>
      <trkpt lat="43.36433" lon="5.61262">
        <ele>175</ele>
        <time>2016-07-11T21:57:38Z</time>
      </trkpt>
      <trkpt lat="43.36449" lon="5.61254">
        <ele>175</ele>
        <time>2016-07-11T21:59:38Z</time>
      </trkpt>
      <trkpt lat="43.36454" lon="5.61252">
        <ele>175</ele>
        <time>2016-07-11T22:01:38Z</time>
      </trkpt>
      <trkpt lat="43.36454" lon="5.61252">
        <ele>175</ele>
        <time>2016-07-11T22:03:38Z</time>
      </trkpt>
      <trkpt lat="43.36475" lon="5.61257">
        <ele>174</ele>
        <time>2016-07-11T22:05:38Z</time>
      </trkpt>
      <trkpt lat="43.36481" lon="5.61262">
        <ele>174</ele>
        <time>2016-07-11T22:07:38Z</time>
      </trkpt>
      <trkpt lat="43.36483" lon="5.61265">
        <ele>174</ele>
        <time>2016-07-11T22:09:38Z</time>
      </trkpt>
      <trkpt lat="43.36485" lon="5.61267">
        <ele>175</ele>
        <time>2016-07-11T22:11:38Z</time>
      </trkpt>
      <trkpt lat="43.36498" lon="5.61288">
        <ele>175</ele>
        <time>2016-07-11T22:13:38Z</time>
      </trkpt>
      <trkpt lat="43.36504" lon="5.61307">
        <ele>175</ele>
        <time>2016-07-11T22:15:38Z</time>
      </trkpt>
      <trkpt lat="43.36528" lon="5.61375">
        <ele>178</ele>
        <time>2016-07-11T22:17:38Z</time>
      </trkpt>
      <trkpt lat="43.36534" lon="5.61393">
        <ele>179</ele>
        <time>2016-07-11T22:19:38Z</time>
      </trkpt>
      <trkpt lat="43.36537" lon="5.61405">
        <ele>180</ele>
        <time>2016-07-11T22:21:38Z</time>
      </trkpt>
      <trkpt lat="43.36542" lon="5.61424">
        <ele>181</ele>
        <time>2016-07-11T22:23:38Z</time>
      </trkpt>
      <trkpt lat="43.36551" lon="5.61461">
        <ele>182</ele>
        <time>2016-07-11T22:25:38Z</time>
      </trkpt>
      <trkpt lat="43.36554" lon="5.6147">
        <ele>183</ele>
        <time>2016-07-11T22:27:38Z</time>
      </trkpt>
      <trkpt lat="43.36556" lon="5.61475">
        <ele>183</ele>
        <time>2016-07-11T22:29:38Z</time>
      </trkpt>
      <trkpt lat="43.36559" lon="5.61481">
        <ele>183</ele>
        <time>2016-07-11T22:31:38Z</time>
      </trkpt>
      <trkpt lat="43.3656" lon="5.61483">
        <ele>183</ele>
        <time>2016-07-11T22:33:38Z</time>
      </trkpt>
      <trkpt lat="43.36562" lon="5.61485">
        <ele>183</ele>
        <time>2016-07-11T22:35:38Z</time>
      </trkpt>
      <trkpt lat="43.36563" lon="5.61486">
        <ele>183</ele>
        <time>2016-07-11T22:37:38Z</time>
      </trkpt>
      <trkpt lat="43.36565" lon="5.61488">
        <ele>183</ele>
        <time>2016-07-11T22:39:38Z</time>
      </trkpt>
      <trkpt lat="43.36567" lon="5.6149">
        <ele>183</ele>
        <time>2016-07-11T22:41:38Z</time>
      </trkpt>
      <trkpt lat="43.36568" lon="5.61491">
        <ele>183</ele>
        <time>2016-07-11T22:43:38Z</time>
      </trkpt>
      <trkpt lat="43.3657" lon="5.61493">
        <ele>183</ele>
        <time>2016-07-11T22:45:38Z</time>
      </trkpt>
      <trkpt lat="43.36572" lon="5.61494">
        <ele>183</ele>
        <time>2016-07-11T22:47:38Z</time>
      </trkpt>
      <trkpt lat="43.36574" lon="5.61496">
        <ele>183</ele>
        <time>2016-07-11T22:49:38Z</time>
      </trkpt>
      <trkpt lat="43.36576" lon="5.61498">
        <ele>183</ele>
        <time>2016-07-11T22:51:38Z</time>
      </trkpt>
      <trkpt lat="43.36578" lon="5.61499">
        <ele>183</ele>
        <time>2016-07-11T22:53:38Z</time>
      </trkpt>
      <trkpt lat="43.36581" lon="5.615">
        <ele>183</ele>
        <time>2016-07-11T22:55:38Z</time>
      </trkpt>
      <trkpt lat="43.36588" lon="5.61503">
        <ele>183</ele>
        <time>2016-07-11T22:57:38Z</time>
      </trkpt>
      <trkpt lat="43.36593" lon="5.61502">
        <ele>183</ele>
        <time>2016-07-11T22:59:38Z</time>
      </trkpt>
      <trkpt lat="43.36595" lon="5.61502">
        <ele>183</ele>
        <time>2016-07-11T23:01:38Z</time>
      </trkpt>
      <trkpt lat="43.366" lon="5.61501">
        <ele>182</ele>
        <time>2016-07-11T23:03:38Z</time>
      </trkpt>
      <trkpt lat="43.36603" lon="5.615">
        <ele>182</ele>
        <time>2016-07-11T23:05:38Z</time>
      </trkpt>
      <trkpt lat="43.36608" lon="5.61499">
        <ele>182</ele>
        <time>2016-07-11T23:07:38Z</time>
      </trkpt>
      <trkpt lat="43.36628" lon="5.61488">
        <ele>182</ele>
        <time>2016-07-11T23:09:38Z</time>
      </trkpt>
      <trkpt lat="43.36633" lon="5.61486">
        <ele>182</ele>
        <time>2016-07-11T23:11:38Z</time>
      </trkpt>
      <trkpt lat="43.3664" lon="5.61484">
        <ele>182</ele>
        <time>2016-07-11T23:13:38Z</time>
      </trkpt>
      <trkpt lat="43.36644" lon="5.61483">
        <ele>182</ele>
        <time>2016-07-11T23:15:38Z</time>
      </trkpt>
      <trkpt lat="43.36648" lon="5.61483">
        <ele>182</ele>
        <time>2016-07-11T23:17:38Z</time>
      </trkpt>
      <trkpt lat="43.36651" lon="5.61484">
        <ele>182</ele>
        <time>2016-07-11T23:19:38Z</time>
      </trkpt>
      <trkpt lat="43.36658" lon="5.61486">
        <ele>182</ele>
        <time>2016-07-11T23:21:38Z</time>
      </trkpt>
      <trkpt lat="43.36662" lon="5.61489">
        <ele>181</ele>
        <time>2016-07-11T23:23:38Z</time>
      </trkpt>
      <trkpt lat="43.36666" lon="5.61492">
        <ele>181</ele>
        <time>2016-07-11T23:25:38Z</time>
      </trkpt>
      <trkpt lat="43.36669" lon="5.61495">
        <ele>181</ele>
        <time>2016-07-11T23:27:38Z</time>
      </trkpt>
      <trkpt lat="43.36673" lon="5.61499">
        <ele>181</ele>
        <time>2016-07-11T23:29:38Z</time>
      </trkpt>
      <trkpt lat="43.36679" lon="5.61506">
        <ele>182</ele>
        <time>2016-07-11T23:31:38Z</time>
      </trkpt>
      <trkpt lat="43.36683" lon="5.61513">
        <ele>183</ele>
        <time>2016-07-11T23:33:38Z</time>
      </trkpt>
      <trkpt lat="43.3669" lon="5.61525">
        <ele>184</ele>
        <time>2016-07-11T23:35:38Z</time>
      </trkpt>
      <trkpt lat="43.36699" lon="5.61544">
        <ele>184</ele>
        <time>2016-07-11T23:37:38Z</time>
      </trkpt>
      <trkpt lat="43.36754" lon="5.6165">
        <ele>185</ele>
        <time>2016-07-11T23:39:38Z</time>
      </trkpt>
      <trkpt lat="43.36766" lon="5.61671">
        <ele>187</ele>
        <time>2016-07-11T23:41:38Z</time>
      </trkpt>
      <trkpt lat="43.36813" lon="5.61763">
        <ele>194</ele>
        <time>2016-07-11T23:43:38Z</time>
      </trkpt>
      <trkpt lat="43.36819" lon="5.61771">
        <ele>194</ele>
        <time>2016-07-11T23:45:38Z</time>
      </trkpt>
      <trkpt lat="43.36823" lon="5.61776">
        <ele>194</ele>
        <time>2016-07-11T23:47:38Z</time>
      </trkpt>
      <trkpt lat="43.36827" lon="5.6178">
        <ele>195</ele>
        <time>2016-07-11T23:49:38Z</time>
      </trkpt>
      <trkpt lat="43.36831" lon="5.61784">
        <ele>195</ele>
        <time>2016-07-11T23:51:38Z</time>
      </trkpt>
      <trkpt lat="43.36835" lon="5.61786">
        <ele>195</ele>
        <time>2016-07-11T23:53:38Z</time>
      </trkpt>
      <trkpt lat="43.3684" lon="5.61789">
        <ele>196</ele>
        <time>2016-07-11T23:55:38Z</time>
      </trkpt>
      <trkpt lat="43.36845" lon="5.61791">
        <ele>197</ele>
        <time>2016-07-11T23:57:38Z</time>
      </trkpt>
      <trkpt lat="43.36895" lon="5.6181">
        <ele>203</ele>
        <time>2016-07-11T23:59:38Z</time>
      </trkpt>
      <trkpt lat="43.36903" lon="5.61814">
        <ele>203</ele>
        <time>2016-07-12T00:01:38Z</time>
      </trkpt>
      <trkpt lat="43.36915" lon="5.61821">
        <ele>203</ele>
        <time>2016-07-12T00:03:38Z</time>
      </trkpt>
      <trkpt lat="43.3692" lon="5.61826">
        <ele>203</ele>
        <time>2016-07-12T00:05:38Z</time>
      </trkpt>
      <trkpt lat="43.36923" lon="5.61829">
        <ele>203</ele>
        <time>2016-07-12T00:07:38Z</time>
      </trkpt>
      <trkpt lat="43.3693" lon="5.61835">
        <ele>204</ele>
        <time>2016-07-12T00:09:38Z</time>
      </trkpt>
      <trkpt lat="43.36938" lon="5.61845">
        <ele>207</ele>
        <time>2016-07-12T00:11:38Z</time>
      </trkpt>
      <trkpt lat="43.36947" lon="5.61858">
        <ele>209</ele>
        <time>2016-07-12T00:13:38Z</time>
      </trkpt>
      <trkpt lat="43.36953" lon="5.61869">
        <ele>210</ele>
        <time>2016-07-12T00:15:38Z</time>
      </trkpt>
      <trkpt lat="43.36959" lon="5.6188">
        <ele>211</ele>
        <time>2016-07-12T00:17:38Z</time>
      </trkpt>
      <trkpt lat="43.36963" lon="5.61892">
        <ele>211</ele>
        <time>2016-07-12T00:19:38Z</time>
      </trkpt>
      <trkpt lat="43.36968" lon="5.61906">
        <ele>211</ele>
        <time>2016-07-12T00:21:38Z</time>
      </trkpt>
      <trkpt lat="43.36972" lon="5.61928">
        <ele>211</ele>
        <time>2016-07-12T00:23:38Z</time>
      </trkpt>
      <trkpt lat="43.36974" lon="5.61951">
        <ele>211</ele>
        <time>2016-07-12T00:25:38Z</time>
      </trkpt>
      <trkpt lat="43.36975" lon="5.6197">
        <ele>211</ele>
        <time>2016-07-12T00:27:38Z</time>
      </trkpt>
      <trkpt lat="43.36975" lon="5.61981">
        <ele>210</ele>
        <time>2016-07-12T00:29:38Z</time>
      </trkpt>
      <trkpt lat="43.36975" lon="5.61986">
        <ele>210</ele>
        <time>2016-07-12T00:31:38Z</time>
      </trkpt>
      <trkpt lat="43.36974" lon="5.61992">
        <ele>210</ele>
        <time>2016-07-12T00:33:38Z</time>
      </trkpt>
      <trkpt lat="43.36972" lon="5.62">
        <ele>210</ele>
        <time>2016-07-12T00:35:38Z</time>
      </trkpt>
      <trkpt lat="43.3697" lon="5.62006">
        <ele>210</ele>
        <time>2016-07-12T00:37:38Z</time>
      </trkpt>
      <trkpt lat="43.36968" lon="5.62013">
        <ele>210</ele>
        <time>2016-07-12T00:39:38Z</time>
      </trkpt>
      <trkpt lat="43.36965" lon="5.6202">
        <ele>210</ele>
        <time>2016-07-12T00:41:38Z</time>
      </trkpt>
      <trkpt lat="43.36963" lon="5.62024">
        <ele>210</ele>
        <time>2016-07-12T00:43:38Z</time>
      </trkpt>
      <trkpt lat="43.36958" lon="5.62031">
        <ele>210</ele>
        <time>2016-07-12T00:45:38Z</time>
      </trkpt>
      <trkpt lat="43.36951" lon="5.62041">
        <ele>209</ele>
        <time>2016-07-12T00:47:38Z</time>
      </trkpt>
      <trkpt lat="43.3694" lon="5.62053">
        <ele>207</ele>
        <time>2016-07-12T00:49:38Z</time>
      </trkpt>
      <trkpt lat="43.36916" lon="5.62082">
        <ele>201</ele>
        <time>2016-07-12T00:51:38Z</time>
      </trkpt>
      <trkpt lat="43.36911" lon="5.62088">
        <ele>202</ele>
        <time>2016-07-12T00:53:38Z</time>
      </trkpt>
      <trkpt lat="43.36909" lon="5.62092">
        <ele>202</ele>
        <time>2016-07-12T00:55:38Z</time>
      </trkpt>
      <trkpt lat="43.36907" lon="5.62095">
        <ele>203</ele>
        <time>2016-07-12T00:57:38Z</time>
      </trkpt>
      <trkpt lat="43.36905" lon="5.62099">
        <ele>203</ele>
        <time>2016-07-12T00:59:38Z</time>
      </trkpt>
      <trkpt lat="43.36903" lon="5.62105">
        <ele>204</ele>
        <time>2016-07-12T01:01:38Z</time>
      </trkpt>
      <trkpt lat="43.36902" lon="5.62109">
        <ele>204</ele>
        <time>2016-07-12T01:03:38Z</time>
      </trkpt>
      <trkpt lat="43.36901" lon="5.62113">
        <ele>204</ele>
        <time>2016-07-12T01:05:38Z</time>
      </trkpt>
      <trkpt lat="43.369" lon="5.62118">
        <ele>204</ele>
        <time>2016-07-12T01:07:38Z</time>
      </trkpt>
      <trkpt lat="43.369" lon="5.62121">
        <ele>204</ele>
        <time>2016-07-12T01:09:38Z</time>
      </trkpt>
      <trkpt lat="43.369" lon="5.62126">
        <ele>204</ele>
        <time>2016-07-12T01:11:38Z</time>
      </trkpt>
      <trkpt lat="43.369" lon="5.62132">
        <ele>204</ele>
        <time>2016-07-12T01:13:38Z</time>
      </trkpt>
      <trkpt lat="43.369" lon="5.62135">
        <ele>204</ele>
        <time>2016-07-12T01:15:38Z</time>
      </trkpt>
      <trkpt lat="43.36904" lon="5.62165">
        <ele>204</ele>
        <time>2016-07-12T01:17:38Z</time>
      </trkpt>
      <trkpt lat="43.36907" lon="5.62192">
        <ele>203</ele>
        <time>2016-07-12T01:19:38Z</time>
      </trkpt>
      <trkpt lat="43.36908" lon="5.622">
        <ele>203</ele>
        <time>2016-07-12T01:21:38Z</time>
      </trkpt>
      <trkpt lat="43.36909" lon="5.62209">
        <ele>203</ele>
        <time>2016-07-12T01:23:38Z</time>
      </trkpt>
      <trkpt lat="43.36909" lon="5.62213">
        <ele>203</ele>
        <time>2016-07-12T01:25:38Z</time>
      </trkpt>
      <trkpt lat="43.36909" lon="5.62217">
        <ele>203</ele>
        <time>2016-07-12T01:27:38Z</time>
      </trkpt>
      <trkpt lat="43.36908" lon="5.6222">
        <ele>203</ele>
        <time>2016-07-12T01:29:38Z</time>
      </trkpt>
      <trkpt lat="43.36907" lon="5.62226">
        <ele>202</ele>
        <time>2016-07-12T01:31:38Z</time>
      </trkpt>
      <trkpt lat="43.36906" lon="5.6223">
        <ele>202</ele>
        <time>2016-07-12T01:33:38Z</time>
      </trkpt>
      <trkpt lat="43.36905" lon="5.62234">
        <ele>202</ele>
        <time>2016-07-12T01:35:38Z</time>
      </trkpt>
      <trkpt lat="43.36903" lon="5.62237">
        <ele>202</ele>
        <time>2016-07-12T01:37:38Z</time>
      </trkpt>
      <trkpt lat="43.36902" lon="5.62239">
        <ele>202</ele>
        <time>2016-07-12T01:39:38Z</time>
      </trkpt>
      <trkpt lat="43.369" lon="5.62242">
        <ele>202</ele>
        <time>2016-07-12T01:41:38Z</time>
      </trkpt>
      <trkpt lat="43.36896" lon="5.62248">
        <ele>201</ele>
        <time>2016-07-12T01:43:38Z</time>
      </trkpt>
      <trkpt lat="43.36862" lon="5.62287">
        <ele>199</ele>
        <time>2016-07-12T01:45:38Z</time>
      </trkpt>
      <trkpt lat="43.36847" lon="5.62307">
        <ele>198</ele>
        <time>2016-07-12T01:47:38Z</time>
      </trkpt>
      <trkpt lat="43.36842" lon="5.62316">
        <ele>198</ele>
        <time>2016-07-12T01:49:38Z</time>
      </trkpt>
      <trkpt lat="43.36839" lon="5.62321">
        <ele>198</ele>
        <time>2016-07-12T01:51:38Z</time>
      </trkpt>
      <trkpt lat="43.36838" lon="5.62324">
        <ele>197</ele>
        <time>2016-07-12T01:53:38Z</time>
      </trkpt>
      <trkpt lat="43.36837" lon="5.62329">
        <ele>197</ele>
        <time>2016-07-12T01:55:38Z</time>
      </trkpt>
      <trkpt lat="43.36836" lon="5.62329">
        <ele>197</ele>
        <time>2016-07-12T01:57:38Z</time>
      </trkpt>
      <trkpt lat="43.36835" lon="5.62332">
        <ele>197</ele>
        <time>2016-07-12T01:59:38Z</time>
      </trkpt>
      <trkpt lat="43.36835" lon="5.62335">
        <ele>197</ele>
        <time>2016-07-12T02:01:38Z</time>
      </trkpt>
      <trkpt lat="43.36834" lon="5.62338">
        <ele>197</ele>
        <time>2016-07-12T02:03:38Z</time>
      </trkpt>
      <trkpt lat="43.36834" lon="5.62341">
        <ele>198</ele>
        <time>2016-07-12T02:05:38Z</time>
      </trkpt>
      <trkpt lat="43.36834" lon="5.62345">
        <ele>198</ele>
        <time>2016-07-12T02:07:38Z</time>
      </trkpt>
      <trkpt lat="43.36834" lon="5.62348">
        <ele>198</ele>
        <time>2016-07-12T02:09:38Z</time>
      </trkpt>
      <trkpt lat="43.36834" lon="5.62352">
        <ele>198</ele>
        <time>2016-07-12T02:11:38Z</time>
      </trkpt>
      <trkpt lat="43.36834" lon="5.62355">
        <ele>198</ele>
        <time>2016-07-12T02:13:38Z</time>
      </trkpt>
      <trkpt lat="43.36834" lon="5.62359">
        <ele>199</ele>
        <time>2016-07-12T02:15:38Z</time>
      </trkpt>
      <trkpt lat="43.36835" lon="5.62362">
        <ele>199</ele>
        <time>2016-07-12T02:17:38Z</time>
      </trkpt>
      <trkpt lat="43.36839" lon="5.62382">
        <ele>201</ele>
        <time>2016-07-12T02:19:38Z</time>
      </trkpt>
      <trkpt lat="43.36851" lon="5.62425">
        <ele>206</ele>
        <time>2016-07-12T02:21:38Z</time>
      </trkpt>
      <trkpt lat="43.36853" lon="5.62431">
        <ele>206</ele>
        <time>2016-07-12T02:23:38Z</time>
      </trkpt>
      <trkpt lat="43.36855" lon="5.62437">
        <ele>206</ele>
        <time>2016-07-12T02:25:38Z</time>
      </trkpt>
      <trkpt lat="43.36857" lon="5.62442">
        <ele>207</ele>
        <time>2016-07-12T02:27:38Z</time>
      </trkpt>
      <trkpt lat="43.3686" lon="5.62449">
        <ele>207</ele>
        <time>2016-07-12T02:29:38Z</time>
      </trkpt>
      <trkpt lat="43.36867" lon="5.62462">
        <ele>208</ele>
        <time>2016-07-12T02:31:38Z</time>
      </trkpt>
      <trkpt lat="43.3688" lon="5.62491">
        <ele>210</ele>
        <time>2016-07-12T02:33:38Z</time>
      </trkpt>
      <trkpt lat="43.3689" lon="5.62518">
        <ele>210</ele>
        <time>2016-07-12T02:35:38Z</time>
      </trkpt>
      <trkpt lat="43.36895" lon="5.62533">
        <ele>209</ele>
        <time>2016-07-12T02:37:38Z</time>
      </trkpt>
      <trkpt lat="43.36899" lon="5.62545">
        <ele>209</ele>
        <time>2016-07-12T02:39:38Z</time>
      </trkpt>
      <trkpt lat="43.36902" lon="5.62558">
        <ele>208</ele>
        <time>2016-07-12T02:41:38Z</time>
      </trkpt>
      <trkpt lat="43.36904" lon="5.6257">
        <ele>207</ele>
        <time>2016-07-12T02:43:38Z</time>
      </trkpt>
      <trkpt lat="43.36905" lon="5.6258">
        <ele>206</ele>
        <time>2016-07-12T02:45:38Z</time>
      </trkpt>
      <trkpt lat="43.36905" lon="5.62587">
        <ele>205</ele>
        <time>2016-07-12T02:47:38Z</time>
      </trkpt>
      <trkpt lat="43.36905" lon="5.62594">
        <ele>205</ele>
        <time>2016-07-12T02:49:38Z</time>
      </trkpt>
      <trkpt lat="43.36903" lon="5.62607">
        <ele>206</ele>
        <time>2016-07-12T02:51:38Z</time>
      </trkpt>
      <trkpt lat="43.36896" lon="5.6265">
        <ele>206</ele>
        <time>2016-07-12T02:53:38Z</time>
      </trkpt>
      <trkpt lat="43.36891" lon="5.62677">
        <ele>206</ele>
        <time>2016-07-12T02:55:38Z</time>
      </trkpt>
      <trkpt lat="43.3689" lon="5.62687">
        <ele>205</ele>
        <time>2016-07-12T02:57:38Z</time>
      </trkpt>
      <trkpt lat="43.36889" lon="5.62693">
        <ele>205</ele>
        <time>2016-07-12T02:59:38Z</time>
      </trkpt>
      <trkpt lat="43.36888" lon="5.62698">
        <ele>205</ele>
        <time>2016-07-12T03:01:38Z</time>
      </trkpt>
      <trkpt lat="43.36888" lon="5.62703">
        <ele>205</ele>
        <time>2016-07-12T03:03:38Z</time>
      </trkpt>
      <trkpt lat="43.36888" lon="5.62713">
        <ele>204</ele>
        <time>2016-07-12T03:05:38Z</time>
      </trkpt>
      <trkpt lat="43.3689" lon="5.62753">
        <ele>202</ele>
        <time>2016-07-12T03:07:38Z</time>
      </trkpt>
      <trkpt lat="43.36894" lon="5.62819">
        <ele>196</ele>
        <time>2016-07-12T03:09:38Z</time>
      </trkpt>
      <trkpt lat="43.36897" lon="5.62867">
        <ele>195</ele>
        <time>2016-07-12T03:11:38Z</time>
      </trkpt>
      <trkpt lat="43.369" lon="5.62897">
        <ele>194</ele>
        <time>2016-07-12T03:13:38Z</time>
      </trkpt>
      <trkpt lat="43.36901" lon="5.62909">
        <ele>194</ele>
        <time>2016-07-12T03:15:38Z</time>
      </trkpt>
      <trkpt lat="43.36903" lon="5.62961">
        <ele>196</ele>
        <time>2016-07-12T03:17:38Z</time>
      </trkpt>
      <trkpt lat="43.36907" lon="5.63008">
        <ele>198</ele>
        <time>2016-07-12T03:19:38Z</time>
      </trkpt>
      <trkpt lat="43.36908" lon="5.63018">
        <ele>198</ele>
        <time>2016-07-12T03:21:38Z</time>
      </trkpt>
      <trkpt lat="43.36909" lon="5.63034">
        <ele>198</ele>
        <time>2016-07-12T03:23:38Z</time>
      </trkpt>
      <trkpt lat="43.36912" lon="5.63064">
        <ele>198</ele>
        <time>2016-07-12T03:25:38Z</time>
      </trkpt>
      <trkpt lat="43.36913" lon="5.63105">
        <ele>198</ele>
        <time>2016-07-12T03:27:38Z</time>
      </trkpt>
      <trkpt lat="43.36913" lon="5.6311">
        <ele>198</ele>
        <time>2016-07-12T03:29:38Z</time>
      </trkpt>
      <trkpt lat="43.36913" lon="5.63112">
        <ele>198</ele>
        <time>2016-07-12T03:31:38Z</time>
      </trkpt>
      <trkpt lat="43.3692" lon="5.63146">
        <ele>198</ele>
        <time>2016-07-12T03:33:38Z</time>
      </trkpt>
      <trkpt lat="43.36925" lon="5.6317">
        <ele>198</ele>
        <time>2016-07-12T03:35:38Z</time>
      </trkpt>
      <trkpt lat="43.36929" lon="5.63189">
        <ele>198</ele>
        <time>2016-07-12T03:37:38Z</time>
      </trkpt>
      <trkpt lat="43.36937" lon="5.63214">
        <ele>198</ele>
        <time>2016-07-12T03:39:38Z</time>
      </trkpt>
      <trkpt lat="43.3695" lon="5.63253">
        <ele>198</ele>
        <time>2016-07-12T03:41:38Z</time>
      </trkpt>
      <trkpt lat="43.36961" lon="5.63296">
        <ele>198</ele>
        <time>2016-07-12T03:43:38Z</time>
      </trkpt>
      <trkpt lat="43.36964" lon="5.6331">
        <ele>198</ele>
        <time>2016-07-12T03:45:38Z</time>
      </trkpt>
      <trkpt lat="43.36967" lon="5.63324">
        <ele>197</ele>
        <time>2016-07-12T03:47:38Z</time>
      </trkpt>
      <trkpt lat="43.36969" lon="5.63339">
        <ele>197</ele>
        <time>2016-07-12T03:49:38Z</time>
      </trkpt>
      <trkpt lat="43.3697" lon="5.63351">
        <ele>198</ele>
        <time>2016-07-12T03:51:38Z</time>
      </trkpt>
      <trkpt lat="43.36972" lon="5.63365">
        <ele>198</ele>
        <time>2016-07-12T03:53:38Z</time>
      </trkpt>
      <trkpt lat="43.36972" lon="5.63373">
        <ele>198</ele>
        <time>2016-07-12T03:55:38Z</time>
      </trkpt>
      <trkpt lat="43.36973" lon="5.6338">
        <ele>198</ele>
        <time>2016-07-12T03:57:38Z</time>
      </trkpt>
      <trkpt lat="43.36972" lon="5.63409">
        <ele>198</ele>
        <time>2016-07-12T03:59:38Z</time>
      </trkpt>
      <trkpt lat="43.36972" lon="5.6343">
        <ele>198</ele>
        <time>2016-07-12T04:01:38Z</time>
      </trkpt>
      <trkpt lat="43.3696" lon="5.63626">
        <ele>199</ele>
        <time>2016-07-12T04:03:38Z</time>
      </trkpt>
      <trkpt lat="43.3696" lon="5.63636">
        <ele>199</ele>
        <time>2016-07-12T04:05:38Z</time>
      </trkpt>
      <trkpt lat="43.36959" lon="5.63642">
        <ele>199</ele>
        <time>2016-07-12T04:07:38Z</time>
      </trkpt>
      <trkpt lat="43.36959" lon="5.63647">
        <ele>200</ele>
        <time>2016-07-12T04:09:38Z</time>
      </trkpt>
      <trkpt lat="43.36958" lon="5.63651">
        <ele>200</ele>
        <time>2016-07-12T04:11:38Z</time>
      </trkpt>
      <trkpt lat="43.36956" lon="5.63656">
        <ele>200</ele>
        <time>2016-07-12T04:13:38Z</time>
      </trkpt>
      <trkpt lat="43.36956" lon="5.63657">
        <ele>200</ele>
        <time>2016-07-12T04:15:38Z</time>
      </trkpt>
      <trkpt lat="43.36955" lon="5.63659">
        <ele>200</ele>
        <time>2016-07-12T04:17:38Z</time>
      </trkpt>
      <trkpt lat="43.36954" lon="5.63661">
        <ele>200</ele>
        <time>2016-07-12T04:19:38Z</time>
      </trkpt>
      <trkpt lat="43.36953" lon="5.63662">
        <ele>200</ele>
        <time>2016-07-12T04:21:38Z</time>
      </trkpt>
      <trkpt lat="43.36947" lon="5.63668">
        <ele>200</ele>
        <time>2016-07-12T04:23:38Z</time>
      </trkpt>
      <trkpt lat="43.36945" lon="5.6367">
        <ele>200</ele>
        <time>2016-07-12T04:25:38Z</time>
      </trkpt>
      <trkpt lat="43.36943" lon="5.63672">
        <ele>200</ele>
        <time>2016-07-12T04:27:38Z</time>
      </trkpt>
      <trkpt lat="43.3694" lon="5.63675">
        <ele>200</ele>
        <time>2016-07-12T04:29:38Z</time>
      </trkpt>
      <trkpt lat="43.36937" lon="5.63677">
        <ele>200</ele>
        <time>2016-07-12T04:31:38Z</time>
      </trkpt>
      <trkpt lat="43.36904" lon="5.63693">
        <ele>200</ele>
        <time>2016-07-12T04:33:38Z</time>
      </trkpt>
      <trkpt lat="43.36896" lon="5.63696">
        <ele>200</ele>
        <time>2016-07-12T04:35:38Z</time>
      </trkpt>
      <trkpt lat="43.3689" lon="5.63699">
        <ele>200</ele>
        <time>2016-07-12T04:37:38Z</time>
      </trkpt>
      <trkpt lat="43.36885" lon="5.63703">
        <ele>201</ele>
        <time>2016-07-12T04:39:38Z</time>
      </trkpt>
      <trkpt lat="43.36881" lon="5.63707">
        <ele>201</ele>
        <time>2016-07-12T04:41:38Z</time>
      </trkpt>
      <trkpt lat="43.36877" lon="5.63712">
        <ele>201</ele>
        <time>2016-07-12T04:43:38Z</time>
      </trkpt>
      <trkpt lat="43.36873" lon="5.63717">
        <ele>201</ele>
        <time>2016-07-12T04:45:38Z</time>
      </trkpt>
      <trkpt lat="43.3687" lon="5.63722">
        <ele>201</ele>
        <time>2016-07-12T04:47:38Z</time>
      </trkpt>
      <trkpt lat="43.36867" lon="5.63726">
        <ele>201</ele>
        <time>2016-07-12T04:49:38Z</time>
      </trkpt>
      <trkpt lat="43.36863" lon="5.63733">
        <ele>201</ele>
        <time>2016-07-12T04:51:38Z</time>
      </trkpt>
      <trkpt lat="43.3686" lon="5.63739">
        <ele>202</ele>
        <time>2016-07-12T04:53:38Z</time>
      </trkpt>
      <trkpt lat="43.36859" lon="5.63744">
        <ele>202</ele>
        <time>2016-07-12T04:55:38Z</time>
      </trkpt>
      <trkpt lat="43.36857" lon="5.63749">
        <ele>202</ele>
        <time>2016-07-12T04:57:38Z</time>
      </trkpt>
      <trkpt lat="43.36856" lon="5.63754">
        <ele>202</ele>
        <time>2016-07-12T04:59:38Z</time>
      </trkpt>
      <trkpt lat="43.36854" lon="5.63759">
        <ele>202</ele>
        <time>2016-07-12T05:01:38Z</time>
      </trkpt>
      <trkpt lat="43.36852" lon="5.63771">
        <ele>202</ele>
        <time>2016-07-12T05:03:38Z</time>
      </trkpt>
      <trkpt lat="43.36849" lon="5.63786">
        <ele>203</ele>
        <time>2016-07-12T05:05:38Z</time>
      </trkpt>
      <trkpt lat="43.36847" lon="5.63792">
        <ele>203</ele>
        <time>2016-07-12T05:07:38Z</time>
      </trkpt>
      <trkpt lat="43.36846" lon="5.63794">
        <ele>203</ele>
        <time>2016-07-12T05:09:38Z</time>
      </trkpt>
      <trkpt lat="43.36844" lon="5.63802">
        <ele>203</ele>
        <time>2016-07-12T05:11:38Z</time>
      </trkpt>
      <trkpt lat="43.36829" lon="5.63876">
        <ele>205</ele>
        <time>2016-07-12T05:13:38Z</time>
      </trkpt>
      <trkpt lat="43.36819" lon="5.63921">
        <ele>205</ele>
        <time>2016-07-12T05:15:38Z</time>
      </trkpt>
      <trkpt lat="43.36801" lon="5.64008">
        <ele>205</ele>
        <time>2016-07-12T05:17:38Z</time>
      </trkpt>
      <trkpt lat="43.36786" lon="5.64082">
        <ele>205</ele>
        <time>2016-07-12T05:19:38Z</time>
      </trkpt>
      <trkpt lat="43.36778" lon="5.64121">
        <ele>206</ele>
        <time>2016-07-12T05:21:38Z</time>
      </trkpt>
      <trkpt lat="43.36776" lon="5.64131">
        <ele>206</ele>
        <time>2016-07-12T05:23:38Z</time>
      </trkpt>
      <trkpt lat="43.36766" lon="5.64179">
        <ele>206</ele>
        <time>2016-07-12T05:25:38Z</time>
      </trkpt>
      <trkpt lat="43.3675" lon="5.64264">
        <ele>206</ele>
        <time>2016-07-12T05:27:38Z</time>
      </trkpt>
      <trkpt lat="43.36744" lon="5.64311">
        <ele>205</ele>
        <time>2016-07-12T05:29:38Z</time>
      </trkpt>
      <trkpt lat="43.36742" lon="5.64335">
        <ele>205</ele>
        <time>2016-07-12T05:31:38Z</time>
      </trkpt>
      <trkpt lat="43.36739" lon="5.64382">
        <ele>205</ele>
        <time>2016-07-12T05:33:38Z</time>
      </trkpt>
      <trkpt lat="43.36739" lon="5.64387">
        <ele>205</ele>
        <time>2016-07-12T05:35:38Z</time>
      </trkpt>
      <trkpt lat="43.3674" lon="5.64461">
        <ele>205</ele>
        <time>2016-07-12T05:37:38Z</time>
      </trkpt>
      <trkpt lat="43.36743" lon="5.64517">
        <ele>206</ele>
        <time>2016-07-12T05:39:38Z</time>
      </trkpt>
      <trkpt lat="43.36744" lon="5.64522">
        <ele>206</ele>
        <time>2016-07-12T05:41:38Z</time>
      </trkpt>
      <trkpt lat="43.36744" lon="5.64524">
        <ele>206</ele>
        <time>2016-07-12T05:43:38Z</time>
      </trkpt>
      <trkpt lat="43.36743" lon="5.64527">
        <ele>206</ele>
        <time>2016-07-12T05:45:38Z</time>
      </trkpt>
      <trkpt lat="43.36743" lon="5.6453">
        <ele>207</ele>
        <time>2016-07-12T05:47:38Z</time>
      </trkpt>
      <trkpt lat="43.36741" lon="5.64535">
        <ele>207</ele>
        <time>2016-07-12T05:49:38Z</time>
      </trkpt>
      <trkpt lat="43.36732" lon="5.64565">
        <ele>208</ele>
        <time>2016-07-12T05:51:38Z</time>
      </trkpt>
      <trkpt lat="43.36731" lon="5.64572">
        <ele>208</ele>
        <time>2016-07-12T05:53:38Z</time>
      </trkpt>
      <trkpt lat="43.36731" lon="5.64575">
        <ele>208</ele>
        <time>2016-07-12T05:55:38Z</time>
      </trkpt>
      <trkpt lat="43.36731" lon="5.64577">
        <ele>209</ele>
        <time>2016-07-12T05:57:38Z</time>
      </trkpt>
      <trkpt lat="43.36731" lon="5.64579">
        <ele>209</ele>
        <time>2016-07-12T05:59:38Z</time>
      </trkpt>
      <trkpt lat="43.36732" lon="5.64582">
        <ele>209</ele>
        <time>2016-07-12T06:01:38Z</time>
      </trkpt>
      <trkpt lat="43.36733" lon="5.64585">
        <ele>209</ele>
        <time>2016-07-12T06:03:38Z</time>
      </trkpt>
      <trkpt lat="43.36735" lon="5.64589">
        <ele>209</ele>
        <time>2016-07-12T06:05:38Z</time>
      </trkpt>
      <trkpt lat="43.36736" lon="5.64592">
        <ele>209</ele>
        <time>2016-07-12T06:07:38Z</time>
      </trkpt>
      <trkpt lat="43.36749" lon="5.64613">
        <ele>210</ele>
        <time>2016-07-12T06:09:38Z</time>
      </trkpt>
      <trkpt lat="43.36761" lon="5.64637">
        <ele>211</ele>
        <time>2016-07-12T06:11:38Z</time>
      </trkpt>
      <trkpt lat="43.36771" lon="5.64659">
        <ele>211</ele>
        <time>2016-07-12T06:13:38Z</time>
      </trkpt>
      <trkpt lat="43.36784" lon="5.64693">
        <ele>211</ele>
        <time>2016-07-12T06:15:38Z</time>
      </trkpt>
      <trkpt lat="43.36795" lon="5.64726">
        <ele>211</ele>
        <time>2016-07-12T06:17:38Z</time>
      </trkpt>
      <trkpt lat="43.36805" lon="5.64753">
        <ele>211</ele>
        <time>2016-07-12T06:19:38Z</time>
      </trkpt>
      <trkpt lat="43.36817" lon="5.64787">
        <ele>210</ele>
        <time>2016-07-12T06:21:38Z</time>
      </trkpt>
      <trkpt lat="43.36822" lon="5.64805">
        <ele>209</ele>
        <time>2016-07-12T06:23:38Z</time>
      </trkpt>
      <trkpt lat="43.36827" lon="5.64819">
        <ele>209</ele>
        <time>2016-07-12T06:25:38Z</time>
      </trkpt>
      <trkpt lat="43.36832" lon="5.64831">
        <ele>208</ele>
        <time>2016-07-12T06:27:38Z</time>
      </trkpt>
      <trkpt lat="43.36835" lon="5.64841">
        <ele>208</ele>
        <time>2016-07-12T06:29:38Z</time>
      </trkpt>
      <trkpt lat="43.36836" lon="5.64846">
        <ele>208</ele>
        <time>2016-07-12T06:31:38Z</time>
      </trkpt>
      <trkpt lat="43.36837" lon="5.64852">
        <ele>208</ele>
        <time>2016-07-12T06:33:38Z</time>
      </trkpt>
      <trkpt lat="43.36838" lon="5.64859">
        <ele>208</ele>
        <time>2016-07-12T06:35:38Z</time>
      </trkpt>
      <trkpt lat="43.36839" lon="5.64872">
        <ele>207</ele>
        <time>2016-07-12T06:37:38Z</time>
      </trkpt>
      <trkpt lat="43.36839" lon="5.64872">
        <ele>207</ele>
        <time>2016-07-12T06:39:38Z</time>
      </trkpt>
      <trkpt lat="43.36837" lon="5.64874">
        <ele>207</ele>
        <time>2016-07-12T06:41:38Z</time>
      </trkpt>
      <trkpt lat="43.36836" lon="5.64876">
        <ele>207</ele>
        <time>2016-07-12T06:43:38Z</time>
      </trkpt>
      <trkpt lat="43.36835" lon="5.64878">
        <ele>207</ele>
        <time>2016-07-12T06:45:38Z</time>
      </trkpt>
      <trkpt lat="43.36834" lon="5.6488">
        <ele>207</ele>
        <time>2016-07-12T06:47:38Z</time>
      </trkpt>
      <trkpt lat="43.36833" lon="5.64882">
        <ele>207</ele>
        <time>2016-07-12T06:49:38Z</time>
      </trkpt>
      <trkpt lat="43.36832" lon="5.64885">
        <ele>208</ele>
        <time>2016-07-12T06:51:38Z</time>
      </trkpt>
      <trkpt lat="43.36831" lon="5.64887">
        <ele>208</ele>
        <time>2016-07-12T06:53:38Z</time>
      </trkpt>
      <trkpt lat="43.36831" lon="5.6489">
        <ele>208</ele>
        <time>2016-07-12T06:55:38Z</time>
      </trkpt>
      <trkpt lat="43.36831" lon="5.64892">
        <ele>208</ele>
        <time>2016-07-12T06:57:38Z</time>
      </trkpt>
      <trkpt lat="43.36829" lon="5.64906">
        <ele>208</ele>
        <time>2016-07-12T06:59:38Z</time>
      </trkpt>
      <trkpt lat="43.36826" lon="5.64925">
        <ele>208</ele>
        <time>2016-07-12T07:01:38Z</time>
      </trkpt>
      <trkpt lat="43.36825" lon="5.64933">
        <ele>208</ele>
        <time>2016-07-12T07:03:38Z</time>
      </trkpt>
      <trkpt lat="43.36827" lon="5.64939">
        <ele>207</ele>
        <time>2016-07-12T07:05:38Z</time>
      </trkpt>
      <trkpt lat="43.36832" lon="5.64947">
        <ele>207</ele>
        <time>2016-07-12T07:07:38Z</time>
      </trkpt>
      <trkpt lat="43.36838" lon="5.64957">
        <ele>206</ele>
        <time>2016-07-12T07:09:38Z</time>
      </trkpt>
      <trkpt lat="43.36843" lon="5.64966">
        <ele>206</ele>
        <time>2016-07-12T07:11:38Z</time>
      </trkpt>
      <trkpt lat="43.36846" lon="5.64976">
        <ele>206</ele>
        <time>2016-07-12T07:13:38Z</time>
      </trkpt>
      <trkpt lat="43.36849" lon="5.64991">
        <ele>206</ele>
        <time>2016-07-12T07:15:38Z</time>
      </trkpt>
      <trkpt lat="43.3685" lon="5.6502">
        <ele>206</ele>
        <time>2016-07-12T07:17:38Z</time>
      </trkpt>
      <trkpt lat="43.36852" lon="5.65061">
        <ele>207</ele>
        <time>2016-07-12T07:19:38Z</time>
      </trkpt>
      <trkpt lat="43.36852" lon="5.65085">
        <ele>208</ele>
        <time>2016-07-12T07:21:38Z</time>
      </trkpt>
      <trkpt lat="43.36851" lon="5.65095">
        <ele>208</ele>
        <time>2016-07-12T07:23:38Z</time>
      </trkpt>
      <trkpt lat="43.3685" lon="5.65105">
        <ele>208</ele>
        <time>2016-07-12T07:25:38Z</time>
      </trkpt>
      <trkpt lat="43.36848" lon="5.65114">
        <ele>208</ele>
        <time>2016-07-12T07:27:38Z</time>
      </trkpt>
      <trkpt lat="43.36845" lon="5.65123">
        <ele>209</ele>
        <time>2016-07-12T07:29:38Z</time>
      </trkpt>
      <trkpt lat="43.36843" lon="5.65129">
        <ele>209</ele>
        <time>2016-07-12T07:31:38Z</time>
      </trkpt>
      <trkpt lat="43.36835" lon="5.65142">
        <ele>209</ele>
        <time>2016-07-12T07:33:38Z</time>
      </trkpt>
      <trkpt lat="43.36764" lon="5.65234">
        <ele>216</ele>
        <time>2016-07-12T07:35:38Z</time>
      </trkpt>
      <trkpt lat="43.36758" lon="5.65242">
        <ele>216</ele>
        <time>2016-07-12T07:37:38Z</time>
      </trkpt>
      <trkpt lat="43.36749" lon="5.65256">
        <ele>218</ele>
        <time>2016-07-12T07:39:38Z</time>
      </trkpt>
      <trkpt lat="43.36723" lon="5.65291">
        <ele>221</ele>
        <time>2016-07-12T07:41:38Z</time>
      </trkpt>
      <trkpt lat="43.36714" lon="5.65304">
        <ele>221</ele>
        <time>2016-07-12T07:43:38Z</time>
      </trkpt>
      <trkpt lat="43.36685" lon="5.65339">
        <ele>221</ele>
        <time>2016-07-12T07:45:38Z</time>
      </trkpt>
      <trkpt lat="43.36668" lon="5.65356">
        <ele>223</ele>
        <time>2016-07-12T07:47:38Z</time>
      </trkpt>
      <trkpt lat="43.36648" lon="5.65371">
        <ele>224</ele>
        <time>2016-07-12T07:49:38Z</time>
      </trkpt>
      <trkpt lat="43.36618" lon="5.65386">
        <ele>222</ele>
        <time>2016-07-12T07:51:38Z</time>
      </trkpt>
      <trkpt lat="43.36582" lon="5.65401">
        <ele>218</ele>
        <time>2016-07-12T07:53:38Z</time>
      </trkpt>
      <trkpt lat="43.36566" lon="5.65409">
        <ele>218</ele>
        <time>2016-07-12T07:55:38Z</time>
      </trkpt>
      <trkpt lat="43.36558" lon="5.65416">
        <ele>218</ele>
        <time>2016-07-12T07:57:38Z</time>
      </trkpt>
      <trkpt lat="43.36552" lon="5.65423">
        <ele>218</ele>
        <time>2016-07-12T07:59:38Z</time>
      </trkpt>
      <trkpt lat="43.36545" lon="5.65436">
        <ele>219</ele>
        <time>2016-07-12T08:01:38Z</time>
      </trkpt>
      <trkpt lat="43.36541" lon="5.65451">
        <ele>219</ele>
        <time>2016-07-12T08:03:38Z</time>
      </trkpt>
      <trkpt lat="43.36536" lon="5.6546">
        <ele>220</ele>
        <time>2016-07-12T08:05:38Z</time>
      </trkpt>
      <trkpt lat="43.36529" lon="5.65468">
        <ele>219</ele>
        <time>2016-07-12T08:07:38Z</time>
      </trkpt>
      <trkpt lat="43.36523" lon="5.65471">
        <ele>219</ele>
        <time>2016-07-12T08:09:38Z</time>
      </trkpt>
      <trkpt lat="43.36514" lon="5.65473">
        <ele>218</ele>
        <time>2016-07-12T08:11:38Z</time>
      </trkpt>
      <trkpt lat="43.36504" lon="5.65473">
        <ele>217</ele>
        <time>2016-07-12T08:13:38Z</time>
      </trkpt>
      <trkpt lat="43.36497" lon="5.65472">
        <ele>216</ele>
        <time>2016-07-12T08:15:38Z</time>
      </trkpt>
      <trkpt lat="43.36486" lon="5.65468">
        <ele>217</ele>
        <time>2016-07-12T08:17:38Z</time>
      </trkpt>
      <trkpt lat="43.3646" lon="5.65459">
        <ele>218</ele>
        <time>2016-07-12T08:19:38Z</time>
      </trkpt>
      <trkpt lat="43.3645" lon="5.65457">
        <ele>218</ele>
        <time>2016-07-12T08:21:38Z</time>
      </trkpt>
      <trkpt lat="43.3644" lon="5.65458">
        <ele>219</ele>
        <time>2016-07-12T08:23:38Z</time>
      </trkpt>
      <trkpt lat="43.3643" lon="5.65463">
        <ele>219</ele>
        <time>2016-07-12T08:25:38Z</time>
      </trkpt>
      <trkpt lat="43.36419" lon="5.65472">
        <ele>219</ele>
        <time>2016-07-12T08:27:38Z</time>
      </trkpt>
      <trkpt lat="43.36403" lon="5.65494">
        <ele>219</ele>
        <time>2016-07-12T08:29:38Z</time>
      </trkpt>
      <trkpt lat="43.36389" lon="5.65513">
        <ele>222</ele>
        <time>2016-07-12T08:31:38Z</time>
      </trkpt>
      <trkpt lat="43.36374" lon="5.65536">
        <ele>224</ele>
        <time>2016-07-12T08:33:38Z</time>
      </trkpt>
      <trkpt lat="43.36362" lon="5.65553">
        <ele>225</ele>
        <time>2016-07-12T08:35:38Z</time>
      </trkpt>
      <trkpt lat="43.36351" lon="5.65569">
        <ele>225</ele>
        <time>2016-07-12T08:37:38Z</time>
      </trkpt>
      <trkpt lat="43.36344" lon="5.65579">
        <ele>224</ele>
        <time>2016-07-12T08:39:38Z</time>
      </trkpt>
      <trkpt lat="43.3633" lon="5.65599">
        <ele>224</ele>
        <time>2016-07-12T08:41:38Z</time>
      </trkpt>
      <trkpt lat="43.36316" lon="5.65618">
        <ele>227</ele>
        <time>2016-07-12T08:43:38Z</time>
      </trkpt>
      <trkpt lat="43.36306" lon="5.65632">
        <ele>228</ele>
        <time>2016-07-12T08:45:38Z</time>
      </trkpt>
      <trkpt lat="43.36299" lon="5.65646">
        <ele>229</ele>
        <time>2016-07-12T08:47:38Z</time>
      </trkpt>
      <trkpt lat="43.36296" lon="5.6566">
        <ele>229</ele>
        <time>2016-07-12T08:49:38Z</time>
      </trkpt>
      <trkpt lat="43.36295" lon="5.65669">
        <ele>229</ele>
        <time>2016-07-12T08:51:38Z</time>
      </trkpt>
      <trkpt lat="43.36297" lon="5.65694">
        <ele>229</ele>
        <time>2016-07-12T08:53:38Z</time>
      </trkpt>
      <trkpt lat="43.36301" lon="5.65727">
        <ele>228</ele>
        <time>2016-07-12T08:55:38Z</time>
      </trkpt>
      <trkpt lat="43.36304" lon="5.6577">
        <ele>228</ele>
        <time>2016-07-12T08:57:38Z</time>
      </trkpt>
      <trkpt lat="43.36306" lon="5.65779">
        <ele>228</ele>
        <time>2016-07-12T08:59:38Z</time>
      </trkpt>
      <trkpt lat="43.36309" lon="5.65805">
        <ele>229</ele>
        <time>2016-07-12T09:01:38Z</time>
      </trkpt>
      <trkpt lat="43.36315" lon="5.65873">
        <ele>230</ele>
        <time>2016-07-12T09:03:38Z</time>
      </trkpt>
      <trkpt lat="43.36315" lon="5.65874">
        <ele>230</ele>
        <time>2016-07-12T09:05:38Z</time>
      </trkpt>
      <trkpt lat="43.36315" lon="5.65888">
        <ele>230</ele>
        <time>2016-07-12T09:07:38Z</time>
      </trkpt>
      <trkpt lat="43.36313" lon="5.659">
        <ele>230</ele>
        <time>2016-07-12T09:09:38Z</time>
      </trkpt>
      <trkpt lat="43.3631" lon="5.65915">
        <ele>230</ele>
        <time>2016-07-12T09:11:38Z</time>
      </trkpt>
      <trkpt lat="43.36305" lon="5.65929">
        <ele>229</ele>
        <time>2016-07-12T09:13:38Z</time>
      </trkpt>
      <trkpt lat="43.36298" lon="5.65942">
        <ele>228</ele>
        <time>2016-07-12T09:15:38Z</time>
      </trkpt>
      <trkpt lat="43.36286" lon="5.6596">
        <ele>226</ele>
        <time>2016-07-12T09:17:38Z</time>
      </trkpt>
      <trkpt lat="43.36274" lon="5.65976">
        <ele>224</ele>
        <time>2016-07-12T09:19:38Z</time>
      </trkpt>
      <trkpt lat="43.36262" lon="5.65994">
        <ele>222</ele>
        <time>2016-07-12T09:21:38Z</time>
      </trkpt>
      <trkpt lat="43.36262" lon="5.65994">
        <ele>222</ele>
        <time>2016-07-12T09:23:38Z</time>
      </trkpt>
      <trkpt lat="43.36254" lon="5.66006">
        <ele>221</ele>
        <time>2016-07-12T09:25:38Z</time>
      </trkpt>
      <trkpt lat="43.36247" lon="5.66018">
        <ele>221</ele>
        <time>2016-07-12T09:27:38Z</time>
      </trkpt>
      <trkpt lat="43.3624" lon="5.66029">
        <ele>222</ele>
        <time>2016-07-12T09:29:38Z</time>
      </trkpt>
      <trkpt lat="43.36233" lon="5.66041">
        <ele>222</ele>
        <time>2016-07-12T09:31:38Z</time>
      </trkpt>
      <trkpt lat="43.3622" lon="5.6606">
        <ele>223</ele>
        <time>2016-07-12T09:33:38Z</time>
      </trkpt>
      <trkpt lat="43.36212" lon="5.66074">
        <ele>223</ele>
        <time>2016-07-12T09:35:38Z</time>
      </trkpt>
      <trkpt lat="43.36199" lon="5.66096">
        <ele>224</ele>
        <time>2016-07-12T09:37:38Z</time>
      </trkpt>
      <trkpt lat="43.36191" lon="5.66107">
        <ele>224</ele>
        <time>2016-07-12T09:39:38Z</time>
      </trkpt>
      <trkpt lat="43.36185" lon="5.66114">
        <ele>224</ele>
        <time>2016-07-12T09:41:38Z</time>
      </trkpt>
      <trkpt lat="43.36178" lon="5.66119">
        <ele>224</ele>
        <time>2016-07-12T09:43:38Z</time>
      </trkpt>
      <trkpt lat="43.36172" lon="5.66123">
        <ele>224</ele>
        <time>2016-07-12T09:45:38Z</time>
      </trkpt>
      <trkpt lat="43.36163" lon="5.66126">
        <ele>224</ele>
        <time>2016-07-12T09:47:38Z</time>
      </trkpt>
      <trkpt lat="43.36144" lon="5.66131">
        <ele>224</ele>
        <time>2016-07-12T09:49:38Z</time>
      </trkpt>
      <trkpt lat="43.3613" lon="5.66133">
        <ele>224</ele>
        <time>2016-07-12T09:51:38Z</time>
      </trkpt>
      <trkpt lat="43.36119" lon="5.66134">
        <ele>225</ele>
        <time>2016-07-12T09:53:38Z</time>
      </trkpt>
      <trkpt lat="43.36115" lon="5.66135">
        <ele>225</ele>
        <time>2016-07-12T09:55:38Z</time>
      </trkpt>
      <trkpt lat="43.36073" lon="5.66141">
        <ele>225</ele>
        <time>2016-07-12T09:57:38Z</time>
      </trkpt>
      <trkpt lat="43.36061" lon="5.66142">
        <ele>225</ele>
        <time>2016-07-12T09:59:38Z</time>
      </trkpt>
      <trkpt lat="43.36049" lon="5.66143">
        <ele>225</ele>
        <time>2016-07-12T10:01:38Z</time>
      </trkpt>
      <trkpt lat="43.36013" lon="5.6615">
        <ele>225</ele>
        <time>2016-07-12T10:03:38Z</time>
      </trkpt>
      <trkpt lat="43.35997" lon="5.66151">
        <ele>225</ele>
        <time>2016-07-12T10:05:38Z</time>
      </trkpt>
      <trkpt lat="43.35993" lon="5.66151">
        <ele>225</ele>
        <time>2016-07-12T10:07:38Z</time>
      </trkpt>
      <trkpt lat="43.35987" lon="5.66147">
        <ele>225</ele>
        <time>2016-07-12T10:09:38Z</time>
      </trkpt>
      <trkpt lat="43.35982" lon="5.66146">
        <ele>226</ele>
        <time>2016-07-12T10:11:38Z</time>
      </trkpt>
      <trkpt lat="43.35978" lon="5.66145">
        <ele>226</ele>
        <time>2016-07-12T10:13:38Z</time>
      </trkpt>
      <trkpt lat="43.35969" lon="5.66145">
        <ele>227</ele>
        <time>2016-07-12T10:15:38Z</time>
      </trkpt>
      <trkpt lat="43.3596" lon="5.66143">
        <ele>227</ele>
        <time>2016-07-12T10:17:38Z</time>
      </trkpt>
      <trkpt lat="43.35955" lon="5.6614">
        <ele>227</ele>
        <time>2016-07-12T10:19:38Z</time>
      </trkpt>
      <trkpt lat="43.35952" lon="5.66132">
        <ele>228</ele>
        <time>2016-07-12T10:21:38Z</time>
      </trkpt>
      <trkpt lat="43.35949" lon="5.66128">
        <ele>228</ele>
        <time>2016-07-12T10:23:38Z</time>
      </trkpt>
      <trkpt lat="43.35947" lon="5.66125">
        <ele>228</ele>
        <time>2016-07-12T10:25:38Z</time>
      </trkpt>
      <trkpt lat="43.35944" lon="5.6612">
        <ele>229</ele>
        <time>2016-07-12T10:27:38Z</time>
      </trkpt>
      <trkpt lat="43.35941" lon="5.66113">
        <ele>229</ele>
        <time>2016-07-12T10:29:38Z</time>
      </trkpt>
      <trkpt lat="43.35936" lon="5.66105">
        <ele>229</ele>
        <time>2016-07-12T10:31:38Z</time>
      </trkpt>
      <trkpt lat="43.35933" lon="5.661">
        <ele>230</ele>
        <time>2016-07-12T10:33:38Z</time>
      </trkpt>
      <trkpt lat="43.3593" lon="5.66096">
        <ele>230</ele>
        <time>2016-07-12T10:35:38Z</time>
      </trkpt>
      <trkpt lat="43.35926" lon="5.6609">
        <ele>230</ele>
        <time>2016-07-12T10:37:38Z</time>
      </trkpt>
      <trkpt lat="43.35922" lon="5.66088">
        <ele>231</ele>
        <time>2016-07-12T10:39:38Z</time>
      </trkpt>
      <trkpt lat="43.35921" lon="5.66087">
        <ele>231</ele>
        <time>2016-07-12T10:41:38Z</time>
      </trkpt>
      <trkpt lat="43.35917" lon="5.66082">
        <ele>231</ele>
        <time>2016-07-12T10:43:38Z</time>
      </trkpt>
      <trkpt lat="43.35911" lon="5.66074">
        <ele>232</ele>
        <time>2016-07-12T10:45:38Z</time>
      </trkpt>
      <trkpt lat="43.35905" lon="5.66069">
        <ele>233</ele>
        <time>2016-07-12T10:47:38Z</time>
      </trkpt>
      <trkpt lat="43.35896" lon="5.66063">
        <ele>233</ele>
        <time>2016-07-12T10:49:38Z</time>
      </trkpt>
      <trkpt lat="43.35885" lon="5.66058">
        <ele>233</ele>
        <time>2016-07-12T10:51:38Z</time>
      </trkpt>
      <trkpt lat="43.35859" lon="5.6605">
        <ele>233</ele>
        <time>2016-07-12T10:53:38Z</time>
      </trkpt>
      <trkpt lat="43.35778" lon="5.66025">
        <ele>235</ele>
        <time>2016-07-12T10:55:38Z</time>
      </trkpt>
      <trkpt lat="43.35752" lon="5.66014">
        <ele>236</ele>
        <time>2016-07-12T10:57:38Z</time>
      </trkpt>
      <trkpt lat="43.35745" lon="5.66012">
        <ele>236</ele>
        <time>2016-07-12T10:59:38Z</time>
      </trkpt>
      <trkpt lat="43.35738" lon="5.66013">
        <ele>236</ele>
        <time>2016-07-12T11:01:38Z</time>
      </trkpt>
      <trkpt lat="43.35737" lon="5.66013">
        <ele>236</ele>
        <time>2016-07-12T11:03:38Z</time>
      </trkpt>
      <trkpt lat="43.35719" lon="5.6602">
        <ele>236</ele>
        <time>2016-07-12T11:05:38Z</time>
      </trkpt>
      <trkpt lat="43.35712" lon="5.66022">
        <ele>236</ele>
        <time>2016-07-12T11:07:38Z</time>
      </trkpt>
      <trkpt lat="43.35698" lon="5.66028">
        <ele>236</ele>
        <time>2016-07-12T11:09:38Z</time>
      </trkpt>
      <trkpt lat="43.35689" lon="5.66032">
        <ele>236</ele>
        <time>2016-07-12T11:11:38Z</time>
      </trkpt>
      <trkpt lat="43.35672" lon="5.66033">
        <ele>237</ele>
        <time>2016-07-12T11:13:38Z</time>
      </trkpt>
      <trkpt lat="43.35665" lon="5.66033">
        <ele>237</ele>
        <time>2016-07-12T11:15:38Z</time>
      </trkpt>
      <trkpt lat="43.35657" lon="5.66031">
        <ele>237</ele>
        <time>2016-07-12T11:17:38Z</time>
      </trkpt>
      <trkpt lat="43.3565" lon="5.66025">
        <ele>238</ele>
        <time>2016-07-12T11:19:38Z</time>
      </trkpt>
      <trkpt lat="43.35621" lon="5.66009">
        <ele>240</ele>
        <time>2016-07-12T11:21:38Z</time>
      </trkpt>
      <trkpt lat="43.35617" lon="5.66007">
        <ele>240</ele>
        <time>2016-07-12T11:23:38Z</time>
      </trkpt>
      <trkpt lat="43.3561" lon="5.66004">
        <ele>241</ele>
        <time>2016-07-12T11:25:38Z</time>
      </trkpt>
      <trkpt lat="43.35601" lon="5.66002">
        <ele>241</ele>
        <time>2016-07-12T11:27:38Z</time>
      </trkpt>
      <trkpt lat="43.35592" lon="5.66003">
        <ele>241</ele>
        <time>2016-07-12T11:29:38Z</time>
      </trkpt>
      <trkpt lat="43.35573" lon="5.66005">
        <ele>242</ele>
        <time>2016-07-12T11:31:38Z</time>
      </trkpt>
      <trkpt lat="43.35552" lon="5.66012">
        <ele>242</ele>
        <time>2016-07-12T11:33:38Z</time>
      </trkpt>
      <trkpt lat="43.3555" lon="5.66013">
        <ele>242</ele>
        <time>2016-07-12T11:35:38Z</time>
      </trkpt>
      <trkpt lat="43.35538" lon="5.66017">
        <ele>242</ele>
        <time>2016-07-12T11:37:38Z</time>
      </trkpt>
      <trkpt lat="43.35532" lon="5.66019">
        <ele>242</ele>
        <time>2016-07-12T11:39:38Z</time>
      </trkpt>
      <trkpt lat="43.35504" lon="5.66029">
        <ele>243</ele>
        <time>2016-07-12T11:41:38Z</time>
      </trkpt>
      <trkpt lat="43.3549" lon="5.66034">
        <ele>243</ele>
        <time>2016-07-12T11:43:38Z</time>
      </trkpt>
      <trkpt lat="43.35472" lon="5.66039">
        <ele>243</ele>
        <time>2016-07-12T11:45:38Z</time>
      </trkpt>
      <trkpt lat="43.35454" lon="5.66041">
        <ele>244</ele>
        <time>2016-07-12T11:47:38Z</time>
      </trkpt>
      <trkpt lat="43.35443" lon="5.66043">
        <ele>244</ele>
        <time>2016-07-12T11:49:38Z</time>
      </trkpt>
      <trkpt lat="43.35421" lon="5.66043">
        <ele>245</ele>
        <time>2016-07-12T11:51:38Z</time>
      </trkpt>
      <trkpt lat="43.35414" lon="5.66043">
        <ele>245</ele>
        <time>2016-07-12T11:53:38Z</time>
      </trkpt>
      <trkpt lat="43.35409" lon="5.66042">
        <ele>245</ele>
        <time>2016-07-12T11:55:38Z</time>
      </trkpt>
      <trkpt lat="43.35405" lon="5.66041">
        <ele>245</ele>
        <time>2016-07-12T11:57:38Z</time>
      </trkpt>
      <trkpt lat="43.35392" lon="5.66037">
        <ele>245</ele>
        <time>2016-07-12T11:59:38Z</time>
      </trkpt>
      <trkpt lat="43.35379" lon="5.6603">
        <ele>246</ele>
        <time>2016-07-12T12:01:38Z</time>
      </trkpt>
      <trkpt lat="43.35369" lon="5.66026">
        <ele>247</ele>
        <time>2016-07-12T12:03:38Z</time>
      </trkpt>
      <trkpt lat="43.35366" lon="5.66024">
        <ele>247</ele>
        <time>2016-07-12T12:05:38Z</time>
      </trkpt>
      <trkpt lat="43.35363" lon="5.66023">
        <ele>247</ele>
        <time>2016-07-12T12:07:38Z</time>
      </trkpt>
      <trkpt lat="43.35347" lon="5.66014">
        <ele>248</ele>
        <time>2016-07-12T12:09:38Z</time>
      </trkpt>
      <trkpt lat="43.3534" lon="5.66009">
        <ele>249</ele>
        <time>2016-07-12T12:11:38Z</time>
      </trkpt>
      <trkpt lat="43.3533" lon="5.66001">
        <ele>250</ele>
        <time>2016-07-12T12:13:38Z</time>
      </trkpt>
      <trkpt lat="43.35318" lon="5.65992">
        <ele>252</ele>
        <time>2016-07-12T12:15:38Z</time>
      </trkpt>
      <trkpt lat="43.35309" lon="5.65987">
        <ele>253</ele>
        <time>2016-07-12T12:17:38Z</time>
      </trkpt>
      <trkpt lat="43.35304" lon="5.65984">
        <ele>254</ele>
        <time>2016-07-12T12:19:38Z</time>
      </trkpt>
      <trkpt lat="43.35274" lon="5.65975">
        <ele>256</ele>
        <time>2016-07-12T12:21:38Z</time>
      </trkpt>
      <trkpt lat="43.35268" lon="5.65972">
        <ele>257</ele>
        <time>2016-07-12T12:23:38Z</time>
      </trkpt>
      <trkpt lat="43.35248" lon="5.65966">
        <ele>258</ele>
        <time>2016-07-12T12:25:38Z</time>
      </trkpt>
      <trkpt lat="43.35244" lon="5.65964">
        <ele>259</ele>
        <time>2016-07-12T12:27:38Z</time>
      </trkpt>
      <trkpt lat="43.35242" lon="5.65964">
        <ele>259</ele>
        <time>2016-07-12T12:29:38Z</time>
      </trkpt>
      <trkpt lat="43.3524" lon="5.65964">
        <ele>259</ele>
        <time>2016-07-12T12:31:38Z</time>
      </trkpt>
      <trkpt lat="43.35232" lon="5.65963">
        <ele>260</ele>
        <time>2016-07-12T12:33:38Z</time>
      </trkpt>
      <trkpt lat="43.3523" lon="5.65963">
        <ele>260</ele>
        <time>2016-07-12T12:35:38Z</time>
      </trkpt>
      <trkpt lat="43.35222" lon="5.65964">
        <ele>261</ele>
        <time>2016-07-12T12:37:38Z</time>
      </trkpt>
      <trkpt lat="43.35212" lon="5.65968">
        <ele>260</ele>
        <time>2016-07-12T12:39:38Z</time>
      </trkpt>
      <trkpt lat="43.35203" lon="5.65973">
        <ele>260</ele>
        <time>2016-07-12T12:41:38Z</time>
      </trkpt>
      <trkpt lat="43.35196" lon="5.65979">
        <ele>259</ele>
        <time>2016-07-12T12:43:38Z</time>
      </trkpt>
      <trkpt lat="43.35188" lon="5.65983">
        <ele>258</ele>
        <time>2016-07-12T12:45:38Z</time>
      </trkpt>
      <trkpt lat="43.35177" lon="5.65985">
        <ele>259</ele>
        <time>2016-07-12T12:47:38Z</time>
      </trkpt>
      <trkpt lat="43.35157" lon="5.65986">
        <ele>259</ele>
        <time>2016-07-12T12:49:38Z</time>
      </trkpt>
      <trkpt lat="43.35141" lon="5.65983">
        <ele>259</ele>
        <time>2016-07-12T12:51:38Z</time>
      </trkpt>
      <trkpt lat="43.35119" lon="5.65976">
        <ele>259</ele>
        <time>2016-07-12T12:53:38Z</time>
      </trkpt>
      <trkpt lat="43.35105" lon="5.65972">
        <ele>259</ele>
        <time>2016-07-12T12:55:38Z</time>
      </trkpt>
      <trkpt lat="43.35094" lon="5.6597">
        <ele>259</ele>
        <time>2016-07-12T12:57:38Z</time>
      </trkpt>
      <trkpt lat="43.3506" lon="5.65957">
        <ele>261</ele>
        <time>2016-07-12T12:59:38Z</time>
      </trkpt>
      <trkpt lat="43.35048" lon="5.65948">
        <ele>263</ele>
        <time>2016-07-12T13:01:38Z</time>
      </trkpt>
      <trkpt lat="43.35035" lon="5.65937">
        <ele>265</ele>
        <time>2016-07-12T13:03:38Z</time>
      </trkpt>
      <trkpt lat="43.35014" lon="5.65921">
        <ele>267</ele>
        <time>2016-07-12T13:05:38Z</time>
      </trkpt>
      <trkpt lat="43.35008" lon="5.65916">
        <ele>268</ele>
        <time>2016-07-12T13:07:38Z</time>
      </trkpt>
      <trkpt lat="43.35006" lon="5.65915">
        <ele>268</ele>
        <time>2016-07-12T13:09:38Z</time>
      </trkpt>
      <trkpt lat="43.34998" lon="5.65913">
        <ele>268</ele>
        <time>2016-07-12T13:11:38Z</time>
      </trkpt>
      <trkpt lat="43.34967" lon="5.65911">
        <ele>269</ele>
        <time>2016-07-12T13:13:38Z</time>
      </trkpt>
      <trkpt lat="43.34948" lon="5.65901">
        <ele>271</ele>
        <time>2016-07-12T13:15:38Z</time>
      </trkpt>
      <trkpt lat="43.34933" lon="5.65893">
        <ele>272</ele>
        <time>2016-07-12T13:17:38Z</time>
      </trkpt>
      <trkpt lat="43.34925" lon="5.65888">
        <ele>272</ele>
        <time>2016-07-12T13:19:38Z</time>
      </trkpt>
      <trkpt lat="43.34916" lon="5.65885">
        <ele>273</ele>
        <time>2016-07-12T13:21:38Z</time>
      </trkpt>
      <trkpt lat="43.34905" lon="5.65884">
        <ele>274</ele>
        <time>2016-07-12T13:23:38Z</time>
      </trkpt>
      <trkpt lat="43.3487" lon="5.65883">
        <ele>277</ele>
        <time>2016-07-12T13:25:38Z</time>
      </trkpt>
      <trkpt lat="43.34853" lon="5.65883">
        <ele>279</ele>
        <time>2016-07-12T13:27:38Z</time>
      </trkpt>
      <trkpt lat="43.34829" lon="5.6588">
        <ele>281</ele>
        <time>2016-07-12T13:29:38Z</time>
      </trkpt>
      <trkpt lat="43.34809" lon="5.65875">
        <ele>283</ele>
        <time>2016-07-12T13:31:38Z</time>
      </trkpt>
      <trkpt lat="43.34802" lon="5.65871">
        <ele>284</ele>
        <time>2016-07-12T13:33:38Z</time>
      </trkpt>
      <trkpt lat="43.34796" lon="5.65869">
        <ele>285</ele>
        <time>2016-07-12T13:35:38Z</time>
      </trkpt>
      <trkpt lat="43.34787" lon="5.65869">
        <ele>286</ele>
        <time>2016-07-12T13:37:38Z</time>
      </trkpt>
      <trkpt lat="43.34778" lon="5.6587">
        <ele>286</ele>
        <time>2016-07-12T13:39:38Z</time>
      </trkpt>
      <trkpt lat="43.34752" lon="5.65875">
        <ele>288</ele>
        <time>2016-07-12T13:41:38Z</time>
      </trkpt>
      <trkpt lat="43.34743" lon="5.65875">
        <ele>288</ele>
        <time>2016-07-12T13:43:38Z</time>
      </trkpt>
      <trkpt lat="43.34704" lon="5.65866">
        <ele>292</ele>
        <time>2016-07-12T13:45:38Z</time>
      </trkpt>
      <trkpt lat="43.34685" lon="5.65865">
        <ele>293</ele>
        <time>2016-07-12T13:47:38Z</time>
      </trkpt>
      <trkpt lat="43.34668" lon="5.65866">
        <ele>294</ele>
        <time>2016-07-12T13:49:38Z</time>
      </trkpt>
      <trkpt lat="43.3466" lon="5.65864">
        <ele>295</ele>
        <time>2016-07-12T13:51:38Z</time>
      </trkpt>
      <trkpt lat="43.34652" lon="5.6586">
        <ele>296</ele>
        <time>2016-07-12T13:53:38Z</time>
      </trkpt>
      <trkpt lat="43.34646" lon="5.65854">
        <ele>297</ele>
        <time>2016-07-12T13:55:38Z</time>
      </trkpt>
      <trkpt lat="43.34641" lon="5.65846">
        <ele>299</ele>
        <time>2016-07-12T13:57:38Z</time>
      </trkpt>
      <trkpt lat="43.34637" lon="5.65835">
        <ele>300</ele>
        <time>2016-07-12T13:59:38Z</time>
      </trkpt>
      <trkpt lat="43.34632" lon="5.65806">
        <ele>302</ele>
        <time>2016-07-12T14:01:38Z</time>
      </trkpt>
      <trkpt lat="43.34623" lon="5.65787">
        <ele>304</ele>
        <time>2016-07-12T14:03:38Z</time>
      </trkpt>
      <trkpt lat="43.34617" lon="5.65774">
        <ele>305</ele>
        <time>2016-07-12T14:05:38Z</time>
      </trkpt>
      <trkpt lat="43.34601" lon="5.65758">
        <ele>308</ele>
        <time>2016-07-12T14:07:38Z</time>
      </trkpt>
      <trkpt lat="43.34593" lon="5.65752">
        <ele>309</ele>
        <time>2016-07-12T14:09:38Z</time>
      </trkpt>
      <trkpt lat="43.34584" lon="5.65748">
        <ele>310</ele>
        <time>2016-07-12T14:11:38Z</time>
      </trkpt>
      <trkpt lat="43.34565" lon="5.65745">
        <ele>311</ele>
        <time>2016-07-12T14:13:38Z</time>
      </trkpt>
      <trkpt lat="43.34548" lon="5.65744">
        <ele>311</ele>
        <time>2016-07-12T14:15:38Z</time>
      </trkpt>
      <trkpt lat="43.3454" lon="5.65744">
        <ele>312</ele>
        <time>2016-07-12T14:17:38Z</time>
      </trkpt>
      <trkpt lat="43.34531" lon="5.65742">
        <ele>312</ele>
        <time>2016-07-12T14:19:38Z</time>
      </trkpt>
      <trkpt lat="43.34522" lon="5.6574">
        <ele>312</ele>
        <time>2016-07-12T14:21:38Z</time>
      </trkpt>
      <trkpt lat="43.34512" lon="5.65735">
        <ele>314</ele>
        <time>2016-07-12T14:23:38Z</time>
      </trkpt>
      <trkpt lat="43.345" lon="5.65728">
        <ele>315</ele>
        <time>2016-07-12T14:25:38Z</time>
      </trkpt>
      <trkpt lat="43.34477" lon="5.65716">
        <ele>317</ele>
        <time>2016-07-12T14:27:38Z</time>
      </trkpt>
      <trkpt lat="43.34455" lon="5.65709">
        <ele>318</ele>
        <time>2016-07-12T14:29:38Z</time>
      </trkpt>
      <trkpt lat="43.34429" lon="5.65703">
        <ele>319</ele>
        <time>2016-07-12T14:31:38Z</time>
      </trkpt>
      <trkpt lat="43.3441" lon="5.65698">
        <ele>319</ele>
        <time>2016-07-12T14:33:38Z</time>
      </trkpt>
      <trkpt lat="43.34393" lon="5.65693">
        <ele>320</ele>
        <time>2016-07-12T14:35:38Z</time>
      </trkpt>
      <trkpt lat="43.34381" lon="5.65688">
        <ele>320</ele>
        <time>2016-07-12T14:37:38Z</time>
      </trkpt>
      <trkpt lat="43.34353" lon="5.6568">
        <ele>321</ele>
        <time>2016-07-12T14:39:38Z</time>
      </trkpt>
      <trkpt lat="43.3433" lon="5.65673">
        <ele>322</ele>
        <time>2016-07-12T14:41:38Z</time>
      </trkpt>
      <trkpt lat="43.34311" lon="5.65667">
        <ele>322</ele>
        <time>2016-07-12T14:43:38Z</time>
      </trkpt>
      <trkpt lat="43.34297" lon="5.65664">
        <ele>322</ele>
        <time>2016-07-12T14:45:38Z</time>
      </trkpt>
      <trkpt lat="43.34284" lon="5.65661">
        <ele>323</ele>
        <time>2016-07-12T14:47:38Z</time>
      </trkpt>
      <trkpt lat="43.34271" lon="5.65654">
        <ele>323</ele>
        <time>2016-07-12T14:49:38Z</time>
      </trkpt>
      <trkpt lat="43.34264" lon="5.65647">
        <ele>324</ele>
        <time>2016-07-12T14:51:38Z</time>
      </trkpt>
      <trkpt lat="43.34256" lon="5.65635">
        <ele>325</ele>
        <time>2016-07-12T14:53:38Z</time>
      </trkpt>
      <trkpt lat="43.3425" lon="5.65622">
        <ele>327</ele>
        <time>2016-07-12T14:55:38Z</time>
      </trkpt>
      <trkpt lat="43.34243" lon="5.6561">
        <ele>328</ele>
        <time>2016-07-12T14:57:38Z</time>
      </trkpt>
      <trkpt lat="43.34224" lon="5.6558">
        <ele>331</ele>
        <time>2016-07-12T14:59:38Z</time>
      </trkpt>
      <trkpt lat="43.34202" lon="5.65544">
        <ele>334</ele>
        <time>2016-07-12T15:01:38Z</time>
      </trkpt>
      <trkpt lat="43.34156" lon="5.65466">
        <ele>340</ele>
        <time>2016-07-12T15:03:38Z</time>
      </trkpt>
      <trkpt lat="43.34147" lon="5.65451">
        <ele>341</ele>
        <time>2016-07-12T15:05:38Z</time>
      </trkpt>
      <trkpt lat="43.34131" lon="5.65417">
        <ele>343</ele>
        <time>2016-07-12T15:07:38Z</time>
      </trkpt>
      <trkpt lat="43.34125" lon="5.65402">
        <ele>343</ele>
        <time>2016-07-12T15:09:38Z</time>
      </trkpt>
      <trkpt lat="43.34118" lon="5.6539">
        <ele>344</ele>
        <time>2016-07-12T15:11:38Z</time>
      </trkpt>
      <trkpt lat="43.34113" lon="5.65381">
        <ele>344</ele>
        <time>2016-07-12T15:13:38Z</time>
      </trkpt>
      <trkpt lat="43.34103" lon="5.65371">
        <ele>344</ele>
        <time>2016-07-12T15:15:38Z</time>
      </trkpt>
      <trkpt lat="43.34092" lon="5.65361">
        <ele>344</ele>
        <time>2016-07-12T15:17:38Z</time>
      </trkpt>
      <trkpt lat="43.34079" lon="5.65344">
        <ele>344</ele>
        <time>2016-07-12T15:19:38Z</time>
      </trkpt>
      <trkpt lat="43.34068" lon="5.65327">
        <ele>346</ele>
        <time>2016-07-12T15:21:38Z</time>
      </trkpt>
      <trkpt lat="43.34061" lon="5.65314">
        <ele>347</ele>
        <time>2016-07-12T15:23:38Z</time>
      </trkpt>
      <trkpt lat="43.34052" lon="5.65293">
        <ele>349</ele>
        <time>2016-07-12T15:25:38Z</time>
      </trkpt>
      <trkpt lat="43.34047" lon="5.6528">
        <ele>349</ele>
        <time>2016-07-12T15:27:38Z</time>
      </trkpt>
      <trkpt lat="43.34044" lon="5.65256">
        <ele>350</ele>
        <time>2016-07-12T15:29:38Z</time>
      </trkpt>
      <trkpt lat="43.34039" lon="5.6523">
        <ele>352</ele>
        <time>2016-07-12T15:31:38Z</time>
      </trkpt>
      <trkpt lat="43.34035" lon="5.65213">
        <ele>354</ele>
        <time>2016-07-12T15:33:38Z</time>
      </trkpt>
      <trkpt lat="43.34029" lon="5.65195">
        <ele>355</ele>
        <time>2016-07-12T15:35:38Z</time>
      </trkpt>
      <trkpt lat="43.34015" lon="5.65155">
        <ele>358</ele>
        <time>2016-07-12T15:37:38Z</time>
      </trkpt>
      <trkpt lat="43.34005" lon="5.65124">
        <ele>360</ele>
        <time>2016-07-12T15:39:38Z</time>
      </trkpt>
      <trkpt lat="43.33998" lon="5.65102">
        <ele>362</ele>
        <time>2016-07-12T15:41:38Z</time>
      </trkpt>
      <trkpt lat="43.33985" lon="5.65068">
        <ele>364</ele>
        <time>2016-07-12T15:43:38Z</time>
      </trkpt>
      <trkpt lat="43.33983" lon="5.65061">
        <ele>365</ele>
        <time>2016-07-12T15:45:38Z</time>
      </trkpt>
      <trkpt lat="43.33982" lon="5.65053">
        <ele>365</ele>
        <time>2016-07-12T15:47:38Z</time>
      </trkpt>
      <trkpt lat="43.33982" lon="5.65045">
        <ele>366</ele>
        <time>2016-07-12T15:49:38Z</time>
      </trkpt>
      <trkpt lat="43.33983" lon="5.65038">
        <ele>366</ele>
        <time>2016-07-12T15:51:38Z</time>
      </trkpt>
      <trkpt lat="43.33986" lon="5.65033">
        <ele>366</ele>
        <time>2016-07-12T15:53:38Z</time>
      </trkpt>
      <trkpt lat="43.33992" lon="5.65028">
        <ele>367</ele>
        <time>2016-07-12T15:55:38Z</time>
      </trkpt>
      <trkpt lat="43.33995" lon="5.65027">
        <ele>367</ele>
        <time>2016-07-12T15:57:38Z</time>
      </trkpt>
      <trkpt lat="43.34" lon="5.65028">
        <ele>367</ele>
        <time>2016-07-12T15:59:38Z</time>
      </trkpt>
      <trkpt lat="43.34004" lon="5.6503">
        <ele>368</ele>
        <time>2016-07-12T16:01:38Z</time>
      </trkpt>
      <trkpt lat="43.34007" lon="5.65034">
        <ele>369</ele>
        <time>2016-07-12T16:03:38Z</time>
      </trkpt>
      <trkpt lat="43.3401" lon="5.65038">
        <ele>370</ele>
        <time>2016-07-12T16:05:38Z</time>
      </trkpt>
      <trkpt lat="43.34012" lon="5.65043">
        <ele>370</ele>
        <time>2016-07-12T16:07:38Z</time>
      </trkpt>
      <trkpt lat="43.34028" lon="5.65094">
        <ele>371</ele>
        <time>2016-07-12T16:09:38Z</time>
      </trkpt>
      <trkpt lat="43.34034" lon="5.65115">
        <ele>369</ele>
        <time>2016-07-12T16:11:38Z</time>
      </trkpt>
      <trkpt lat="43.34036" lon="5.6512">
        <ele>368</ele>
        <time>2016-07-12T16:13:38Z</time>
      </trkpt>
      <trkpt lat="43.34038" lon="5.65124">
        <ele>368</ele>
        <time>2016-07-12T16:15:38Z</time>
      </trkpt>
      <trkpt lat="43.34041" lon="5.65128">
        <ele>368</ele>
        <time>2016-07-12T16:17:38Z</time>
      </trkpt>
      <trkpt lat="43.34051" lon="5.65138">
        <ele>368</ele>
        <time>2016-07-12T16:19:38Z</time>
      </trkpt>
      <trkpt lat="43.34059" lon="5.65142">
        <ele>368</ele>
        <time>2016-07-12T16:21:38Z</time>
      </trkpt>
      <trkpt lat="43.34074" lon="5.6515">
        <ele>369</ele>
        <time>2016-07-12T16:23:38Z</time>
      </trkpt>
      <trkpt lat="43.34087" lon="5.65157">
        <ele>369</ele>
        <time>2016-07-12T16:25:38Z</time>
      </trkpt>
      <trkpt lat="43.34109" lon="5.65168">
        <ele>369</ele>
        <time>2016-07-12T16:27:38Z</time>
      </trkpt>
      <trkpt lat="43.3415" lon="5.6519">
        <ele>371</ele>
        <time>2016-07-12T16:29:38Z</time>
      </trkpt>
      <trkpt lat="43.34158" lon="5.65196">
        <ele>371</ele>
        <time>2016-07-12T16:31:38Z</time>
      </trkpt>
      <trkpt lat="43.34172" lon="5.65202">
        <ele>371</ele>
        <time>2016-07-12T16:33:38Z</time>
      </trkpt>
      <trkpt lat="43.34182" lon="5.65205">
        <ele>372</ele>
        <time>2016-07-12T16:35:38Z</time>
      </trkpt>
      <trkpt lat="43.34192" lon="5.65207">
        <ele>373</ele>
        <time>2016-07-12T16:37:38Z</time>
      </trkpt>
      <trkpt lat="43.34202" lon="5.65208">
        <ele>373</ele>
        <time>2016-07-12T16:39:38Z</time>
      </trkpt>
      <trkpt lat="43.34217" lon="5.65211">
        <ele>374</ele>
        <time>2016-07-12T16:41:38Z</time>
      </trkpt>
      <trkpt lat="43.34223" lon="5.65213">
        <ele>375</ele>
        <time>2016-07-12T16:43:38Z</time>
      </trkpt>
      <trkpt lat="43.34238" lon="5.65218">
        <ele>375</ele>
        <time>2016-07-12T16:45:38Z</time>
      </trkpt>
      <trkpt lat="43.34243" lon="5.6522">
        <ele>376</ele>
        <time>2016-07-12T16:47:38Z</time>
      </trkpt>
      <trkpt lat="43.34253" lon="5.65226">
        <ele>376</ele>
        <time>2016-07-12T16:49:38Z</time>
      </trkpt>
      <trkpt lat="43.3426" lon="5.65231">
        <ele>377</ele>
        <time>2016-07-12T16:51:38Z</time>
      </trkpt>
      <trkpt lat="43.34275" lon="5.65243">
        <ele>377</ele>
        <time>2016-07-12T16:53:38Z</time>
      </trkpt>
      <trkpt lat="43.34284" lon="5.6525">
        <ele>378</ele>
        <time>2016-07-12T16:55:38Z</time>
      </trkpt>
      <trkpt lat="43.34291" lon="5.65252">
        <ele>379</ele>
        <time>2016-07-12T16:57:38Z</time>
      </trkpt>
      <trkpt lat="43.34295" lon="5.65252">
        <ele>379</ele>
        <time>2016-07-12T16:59:38Z</time>
      </trkpt>
      <trkpt lat="43.34301" lon="5.6525">
        <ele>381</ele>
        <time>2016-07-12T17:01:38Z</time>
      </trkpt>
      <trkpt lat="43.34307" lon="5.65244">
        <ele>383</ele>
        <time>2016-07-12T17:03:38Z</time>
      </trkpt>
      <trkpt lat="43.3431" lon="5.65239">
        <ele>384</ele>
        <time>2016-07-12T17:05:38Z</time>
      </trkpt>
      <trkpt lat="43.34311" lon="5.65231">
        <ele>386</ele>
        <time>2016-07-12T17:07:38Z</time>
      </trkpt>
      <trkpt lat="43.3431" lon="5.65227">
        <ele>386</ele>
        <time>2016-07-12T17:09:38Z</time>
      </trkpt>
      <trkpt lat="43.34309" lon="5.65222">
        <ele>387</ele>
        <time>2016-07-12T17:11:38Z</time>
      </trkpt>
      <trkpt lat="43.34305" lon="5.65213">
        <ele>388</ele>
        <time>2016-07-12T17:13:38Z</time>
      </trkpt>
      <trkpt lat="43.34299" lon="5.65207">
        <ele>388</ele>
        <time>2016-07-12T17:15:38Z</time>
      </trkpt>
      <trkpt lat="43.34293" lon="5.65202">
        <ele>388</ele>
        <time>2016-07-12T17:17:38Z</time>
      </trkpt>
      <trkpt lat="43.34281" lon="5.65194">
        <ele>387</ele>
        <time>2016-07-12T17:19:38Z</time>
      </trkpt>
      <trkpt lat="43.34258" lon="5.65179">
        <ele>384</ele>
        <time>2016-07-12T17:21:38Z</time>
      </trkpt>
      <trkpt lat="43.34245" lon="5.6517">
        <ele>383</ele>
        <time>2016-07-12T17:23:38Z</time>
      </trkpt>
      <trkpt lat="43.34228" lon="5.65159">
        <ele>385</ele>
        <time>2016-07-12T17:25:38Z</time>
      </trkpt>
      <trkpt lat="43.34214" lon="5.6515">
        <ele>388</ele>
        <time>2016-07-12T17:27:38Z</time>
      </trkpt>
      <trkpt lat="43.34198" lon="5.65141">
        <ele>390</ele>
        <time>2016-07-12T17:29:38Z</time>
      </trkpt>
      <trkpt lat="43.34187" lon="5.65134">
        <ele>391</ele>
        <time>2016-07-12T17:31:38Z</time>
      </trkpt>
      <trkpt lat="43.34134" lon="5.651">
        <ele>396</ele>
        <time>2016-07-12T17:33:38Z</time>
      </trkpt>
      <trkpt lat="43.34117" lon="5.65089">
        <ele>396</ele>
        <time>2016-07-12T17:35:38Z</time>
      </trkpt>
      <trkpt lat="43.34108" lon="5.65082">
        <ele>396</ele>
        <time>2016-07-12T17:37:38Z</time>
      </trkpt>
      <trkpt lat="43.34102" lon="5.65076">
        <ele>396</ele>
        <time>2016-07-12T17:39:38Z</time>
      </trkpt>
      <trkpt lat="43.34098" lon="5.65071">
        <ele>396</ele>
        <time>2016-07-12T17:41:38Z</time>
      </trkpt>
      <trkpt lat="43.34094" lon="5.65065">
        <ele>396</ele>
        <time>2016-07-12T17:43:38Z</time>
      </trkpt>
      <trkpt lat="43.34089" lon="5.65055">
        <ele>396</ele>
        <time>2016-07-12T17:45:38Z</time>
      </trkpt>
      <trkpt lat="43.34085" lon="5.65046">
        <ele>397</ele>
        <time>2016-07-12T17:47:38Z</time>
      </trkpt>
      <trkpt lat="43.34082" lon="5.65032">
        <ele>398</ele>
        <time>2016-07-12T17:49:38Z</time>
      </trkpt>
      <trkpt lat="43.3408" lon="5.6501">
        <ele>401</ele>
        <time>2016-07-12T17:51:38Z</time>
      </trkpt>
      <trkpt lat="43.34076" lon="5.64988">
        <ele>404</ele>
        <time>2016-07-12T17:53:38Z</time>
      </trkpt>
      <trkpt lat="43.34074" lon="5.64981">
        <ele>406</ele>
        <time>2016-07-12T17:55:38Z</time>
      </trkpt>
      <trkpt lat="43.34073" lon="5.64974">
        <ele>407</ele>
        <time>2016-07-12T17:57:38Z</time>
      </trkpt>
      <trkpt lat="43.34071" lon="5.64953">
        <ele>412</ele>
        <time>2016-07-12T17:59:38Z</time>
      </trkpt>
      <trkpt lat="43.3407" lon="5.64944">
        <ele>415</ele>
        <time>2016-07-12T18:01:38Z</time>
      </trkpt>
      <trkpt lat="43.34068" lon="5.6494">
        <ele>415</ele>
        <time>2016-07-12T18:03:38Z</time>
      </trkpt>
      <trkpt lat="43.34066" lon="5.64936">
        <ele>415</ele>
        <time>2016-07-12T18:05:38Z</time>
      </trkpt>
      <trkpt lat="43.34064" lon="5.64935">
        <ele>415</ele>
        <time>2016-07-12T18:07:38Z</time>
      </trkpt>
      <trkpt lat="43.34061" lon="5.64934">
        <ele>414</ele>
        <time>2016-07-12T18:09:38Z</time>
      </trkpt>
      <trkpt lat="43.34051" lon="5.6493">
        <ele>411</ele>
        <time>2016-07-12T18:11:38Z</time>
      </trkpt>
      <trkpt lat="43.34044" lon="5.64927">
        <ele>409</ele>
        <time>2016-07-12T18:13:38Z</time>
      </trkpt>
      <trkpt lat="43.3404" lon="5.64925">
        <ele>408</ele>
        <time>2016-07-12T18:15:38Z</time>
      </trkpt>
      <trkpt lat="43.34036" lon="5.64921">
        <ele>408</ele>
        <time>2016-07-12T18:17:38Z</time>
      </trkpt>
      <trkpt lat="43.3403" lon="5.64911">
        <ele>409</ele>
        <time>2016-07-12T18:19:38Z</time>
      </trkpt>
      <trkpt lat="43.34022" lon="5.64891">
        <ele>412</ele>
        <time>2016-07-12T18:21:38Z</time>
      </trkpt>
      <trkpt lat="43.34013" lon="5.64864">
        <ele>417</ele>
        <time>2016-07-12T18:23:38Z</time>
      </trkpt>
      <trkpt lat="43.34008" lon="5.6485">
        <ele>419</ele>
        <time>2016-07-12T18:25:38Z</time>
      </trkpt>
      <trkpt lat="43.34004" lon="5.64838">
        <ele>422</ele>
        <time>2016-07-12T18:27:38Z</time>
      </trkpt>
      <trkpt lat="43.34002" lon="5.64833">
        <ele>423</ele>
        <time>2016-07-12T18:29:38Z</time>
      </trkpt>
      <trkpt lat="43.33998" lon="5.64829">
        <ele>423</ele>
        <time>2016-07-12T18:31:38Z</time>
      </trkpt>
      <trkpt lat="43.33994" lon="5.64826">
        <ele>423</ele>
        <time>2016-07-12T18:33:38Z</time>
      </trkpt>
      <trkpt lat="43.3399" lon="5.64825">
        <ele>423</ele>
        <time>2016-07-12T18:35:38Z</time>
      </trkpt>
      <trkpt lat="43.33985" lon="5.64826">
        <ele>422</ele>
        <time>2016-07-12T18:37:38Z</time>
      </trkpt>
      <trkpt lat="43.3398" lon="5.64827">
        <ele>420</ele>
        <time>2016-07-12T18:39:38Z</time>
      </trkpt>
      <trkpt lat="43.33977" lon="5.64829">
        <ele>419</ele>
        <time>2016-07-12T18:41:38Z</time>
      </trkpt>
      <trkpt lat="43.33973" lon="5.64832">
        <ele>418</ele>
        <time>2016-07-12T18:43:38Z</time>
      </trkpt>
      <trkpt lat="43.33966" lon="5.64838">
        <ele>414</ele>
        <time>2016-07-12T18:45:38Z</time>
      </trkpt>
      <trkpt lat="43.33957" lon="5.64842">
        <ele>411</ele>
        <time>2016-07-12T18:47:38Z</time>
      </trkpt>
      <trkpt lat="43.33952" lon="5.64843">
        <ele>410</ele>
        <time>2016-07-12T18:49:38Z</time>
      </trkpt>
      <trkpt lat="43.33942" lon="5.6484">
        <ele>409</ele>
        <time>2016-07-12T18:51:38Z</time>
      </trkpt>
      <trkpt lat="43.33937" lon="5.64838">
        <ele>409</ele>
        <time>2016-07-12T18:53:38Z</time>
      </trkpt>
      <trkpt lat="43.33919" lon="5.64824">
        <ele>411</ele>
        <time>2016-07-12T18:55:38Z</time>
      </trkpt>
      <trkpt lat="43.33892" lon="5.64801">
        <ele>418</ele>
        <time>2016-07-12T18:57:38Z</time>
      </trkpt>
      <trkpt lat="43.33886" lon="5.64796">
        <ele>420</ele>
        <time>2016-07-12T18:59:38Z</time>
      </trkpt>
      <trkpt lat="43.33877" lon="5.64786">
        <ele>422</ele>
        <time>2016-07-12T19:01:38Z</time>
      </trkpt>
      <trkpt lat="43.33872" lon="5.64782">
        <ele>423</ele>
        <time>2016-07-12T19:03:38Z</time>
      </trkpt>
      <trkpt lat="43.33866" lon="5.6478">
        <ele>423</ele>
        <time>2016-07-12T19:05:38Z</time>
      </trkpt>
      <trkpt lat="43.3386" lon="5.64779">
        <ele>423</ele>
        <time>2016-07-12T19:07:38Z</time>
      </trkpt>
      <trkpt lat="43.33847" lon="5.64776">
        <ele>422</ele>
        <time>2016-07-12T19:09:38Z</time>
      </trkpt>
      <trkpt lat="43.33833" lon="5.64772">
        <ele>422</ele>
        <time>2016-07-12T19:11:38Z</time>
      </trkpt>
      <trkpt lat="43.3382" lon="5.64767">
        <ele>424</ele>
        <time>2016-07-12T19:13:38Z</time>
      </trkpt>
      <trkpt lat="43.33813" lon="5.64765">
        <ele>426</ele>
        <time>2016-07-12T19:15:38Z</time>
      </trkpt>
      <trkpt lat="43.33806" lon="5.64762">
        <ele>427</ele>
        <time>2016-07-12T19:17:38Z</time>
      </trkpt>
      <trkpt lat="43.33793" lon="5.64759">
        <ele>429</ele>
        <time>2016-07-12T19:19:38Z</time>
      </trkpt>
      <trkpt lat="43.33784" lon="5.64756">
        <ele>430</ele>
        <time>2016-07-12T19:21:38Z</time>
      </trkpt>
      <trkpt lat="43.33773" lon="5.64754">
        <ele>431</ele>
        <time>2016-07-12T19:23:38Z</time>
      </trkpt>
      <trkpt lat="43.3376" lon="5.64753">
        <ele>433</ele>
        <time>2016-07-12T19:25:38Z</time>
      </trkpt>
      <trkpt lat="43.33739" lon="5.64755">
        <ele>434</ele>
        <time>2016-07-12T19:27:38Z</time>
      </trkpt>
      <trkpt lat="43.3372" lon="5.6476">
        <ele>435</ele>
        <time>2016-07-12T19:29:38Z</time>
      </trkpt>
      <trkpt lat="43.33714" lon="5.64762">
        <ele>435</ele>
        <time>2016-07-12T19:31:38Z</time>
      </trkpt>
      <trkpt lat="43.33701" lon="5.64767">
        <ele>435</ele>
        <time>2016-07-12T19:33:38Z</time>
      </trkpt>
      <trkpt lat="43.33694" lon="5.64769">
        <ele>436</ele>
        <time>2016-07-12T19:35:38Z</time>
      </trkpt>
      <trkpt lat="43.33688" lon="5.6477">
        <ele>436</ele>
        <time>2016-07-12T19:37:38Z</time>
      </trkpt>
      <trkpt lat="43.33679" lon="5.6477">
        <ele>437</ele>
        <time>2016-07-12T19:39:38Z</time>
      </trkpt>
      <trkpt lat="43.33657" lon="5.64771">
        <ele>439</ele>
        <time>2016-07-12T19:41:38Z</time>
      </trkpt>
      <trkpt lat="43.33634" lon="5.64771">
        <ele>441</ele>
        <time>2016-07-12T19:43:38Z</time>
      </trkpt>
      <trkpt lat="43.33599" lon="5.6477">
        <ele>443</ele>
        <time>2016-07-12T19:45:38Z</time>
      </trkpt>
      <trkpt lat="43.33585" lon="5.64771">
        <ele>444</ele>
        <time>2016-07-12T19:47:38Z</time>
      </trkpt>
      <trkpt lat="43.33581" lon="5.64771">
        <ele>445</ele>
        <time>2016-07-12T19:49:38Z</time>
      </trkpt>
      <trkpt lat="43.33576" lon="5.64773">
        <ele>445</ele>
        <time>2016-07-12T19:51:38Z</time>
      </trkpt>
      <trkpt lat="43.33575" lon="5.64774">
        <ele>445</ele>
        <time>2016-07-12T19:53:38Z</time>
      </trkpt>
      <trkpt lat="43.3357" lon="5.64786">
        <ele>445</ele>
        <time>2016-07-12T19:55:38Z</time>
      </trkpt>
      <trkpt lat="43.33561" lon="5.64828">
        <ele>441</ele>
        <time>2016-07-12T19:57:38Z</time>
      </trkpt>
      <trkpt lat="43.33551" lon="5.64899">
        <ele>444</ele>
        <time>2016-07-12T19:59:38Z</time>
      </trkpt>
      <trkpt lat="43.33554" lon="5.64937">
        <ele>443</ele>
        <time>2016-07-12T20:01:38Z</time>
      </trkpt>
      <trkpt lat="43.33556" lon="5.64964">
        <ele>442</ele>
        <time>2016-07-12T20:03:38Z</time>
      </trkpt>
      <trkpt lat="43.33556" lon="5.64971">
        <ele>441</ele>
        <time>2016-07-12T20:05:38Z</time>
      </trkpt>
      <trkpt lat="43.33554" lon="5.64979">
        <ele>441</ele>
        <time>2016-07-12T20:07:38Z</time>
      </trkpt>
      <trkpt lat="43.33552" lon="5.64984">
        <ele>441</ele>
        <time>2016-07-12T20:09:38Z</time>
      </trkpt>
      <trkpt lat="43.3355" lon="5.64987">
        <ele>442</ele>
        <time>2016-07-12T20:11:38Z</time>
      </trkpt>
      <trkpt lat="43.33545" lon="5.64992">
        <ele>442</ele>
        <time>2016-07-12T20:13:38Z</time>
      </trkpt>
      <trkpt lat="43.33539" lon="5.64995">
        <ele>443</ele>
        <time>2016-07-12T20:15:38Z</time>
      </trkpt>
      <trkpt lat="43.33533" lon="5.64996">
        <ele>443</ele>
        <time>2016-07-12T20:17:38Z</time>
      </trkpt>
      <trkpt lat="43.33526" lon="5.64996">
        <ele>444</ele>
        <time>2016-07-12T20:19:38Z</time>
      </trkpt>
      <trkpt lat="43.3352" lon="5.64995">
        <ele>445</ele>
        <time>2016-07-12T20:21:38Z</time>
      </trkpt>
      <trkpt lat="43.33509" lon="5.64991">
        <ele>447</ele>
        <time>2016-07-12T20:23:38Z</time>
      </trkpt>
      <trkpt lat="43.33482" lon="5.64981">
        <ele>451</ele>
        <time>2016-07-12T20:25:38Z</time>
      </trkpt>
      <trkpt lat="43.33457" lon="5.64969">
        <ele>455</ele>
        <time>2016-07-12T20:27:38Z</time>
      </trkpt>
      <trkpt lat="43.33441" lon="5.64961">
        <ele>458</ele>
        <time>2016-07-12T20:29:38Z</time>
      </trkpt>
      <trkpt lat="43.33436" lon="5.6496">
        <ele>458</ele>
        <time>2016-07-12T20:31:38Z</time>
      </trkpt>
      <trkpt lat="43.33431" lon="5.64959">
        <ele>459</ele>
        <time>2016-07-12T20:33:38Z</time>
      </trkpt>
      <trkpt lat="43.33427" lon="5.64959">
        <ele>460</ele>
        <time>2016-07-12T20:35:38Z</time>
      </trkpt>
      <trkpt lat="43.33419" lon="5.64961">
        <ele>460</ele>
        <time>2016-07-12T20:37:38Z</time>
      </trkpt>
      <trkpt lat="43.33409" lon="5.64966">
        <ele>461</ele>
        <time>2016-07-12T20:39:38Z</time>
      </trkpt>
      <trkpt lat="43.33374" lon="5.64986">
        <ele>465</ele>
        <time>2016-07-12T20:41:38Z</time>
      </trkpt>
      <trkpt lat="43.33365" lon="5.64991">
        <ele>466</ele>
        <time>2016-07-12T20:43:38Z</time>
      </trkpt>
      <trkpt lat="43.3336" lon="5.64994">
        <ele>467</ele>
        <time>2016-07-12T20:45:38Z</time>
      </trkpt>
      <trkpt lat="43.33357" lon="5.64999">
        <ele>467</ele>
        <time>2016-07-12T20:47:38Z</time>
      </trkpt>
      <trkpt lat="43.33354" lon="5.65005">
        <ele>468</ele>
        <time>2016-07-12T20:49:38Z</time>
      </trkpt>
      <trkpt lat="43.33353" lon="5.65013">
        <ele>469</ele>
        <time>2016-07-12T20:51:38Z</time>
      </trkpt>
      <trkpt lat="43.33354" lon="5.65018">
        <ele>469</ele>
        <time>2016-07-12T20:53:38Z</time>
      </trkpt>
      <trkpt lat="43.33356" lon="5.65026">
        <ele>469</ele>
        <time>2016-07-12T20:55:38Z</time>
      </trkpt>
      <trkpt lat="43.33359" lon="5.6503">
        <ele>469</ele>
        <time>2016-07-12T20:57:38Z</time>
      </trkpt>
      <trkpt lat="43.33364" lon="5.65034">
        <ele>469</ele>
        <time>2016-07-12T20:59:38Z</time>
      </trkpt>
      <trkpt lat="43.33387" lon="5.6504">
        <ele>465</ele>
        <time>2016-07-12T21:01:38Z</time>
      </trkpt>
      <trkpt lat="43.33396" lon="5.65045">
        <ele>464</ele>
        <time>2016-07-12T21:03:38Z</time>
      </trkpt>
      <trkpt lat="43.33405" lon="5.65059">
        <ele>464</ele>
        <time>2016-07-12T21:05:38Z</time>
      </trkpt>
      <trkpt lat="43.33412" lon="5.65074">
        <ele>464</ele>
        <time>2016-07-12T21:07:38Z</time>
      </trkpt>
      <trkpt lat="43.33417" lon="5.65086">
        <ele>465</ele>
        <time>2016-07-12T21:09:38Z</time>
      </trkpt>
      <trkpt lat="43.33425" lon="5.65102">
        <ele>467</ele>
        <time>2016-07-12T21:11:38Z</time>
      </trkpt>
      <trkpt lat="43.33439" lon="5.65119">
        <ele>468</ele>
        <time>2016-07-12T21:13:38Z</time>
      </trkpt>
      <trkpt lat="43.33463" lon="5.65137">
        <ele>467</ele>
        <time>2016-07-12T21:15:38Z</time>
      </trkpt>
      <trkpt lat="43.33484" lon="5.65155">
        <ele>466</ele>
        <time>2016-07-12T21:17:38Z</time>
      </trkpt>
      <trkpt lat="43.33491" lon="5.65162">
        <ele>465</ele>
        <time>2016-07-12T21:19:38Z</time>
      </trkpt>
      <trkpt lat="43.33499" lon="5.6517">
        <ele>465</ele>
        <time>2016-07-12T21:21:38Z</time>
      </trkpt>
      <trkpt lat="43.33501" lon="5.65174">
        <ele>465</ele>
        <time>2016-07-12T21:23:38Z</time>
      </trkpt>
      <trkpt lat="43.33503" lon="5.65179">
        <ele>465</ele>
        <time>2016-07-12T21:25:38Z</time>
      </trkpt>
      <trkpt lat="43.33502" lon="5.65187">
        <ele>466</ele>
        <time>2016-07-12T21:27:38Z</time>
      </trkpt>
      <trkpt lat="43.33501" lon="5.65193">
        <ele>467</ele>
        <time>2016-07-12T21:29:38Z</time>
      </trkpt>
      <trkpt lat="43.33498" lon="5.65197">
        <ele>468</ele>
        <time>2016-07-12T21:31:38Z</time>
      </trkpt>
      <trkpt lat="43.33493" lon="5.652">
        <ele>470</ele>
        <time>2016-07-12T21:33:38Z</time>
      </trkpt>
      <trkpt lat="43.3349" lon="5.65201">
        <ele>471</ele>
        <time>2016-07-12T21:35:38Z</time>
      </trkpt>
      <trkpt lat="43.33487" lon="5.65201">
        <ele>471</ele>
        <time>2016-07-12T21:37:38Z</time>
      </trkpt>
      <trkpt lat="43.33481" lon="5.65202">
        <ele>473</ele>
        <time>2016-07-12T21:39:38Z</time>
      </trkpt>
      <trkpt lat="43.33476" lon="5.65201">
        <ele>474</ele>
        <time>2016-07-12T21:41:38Z</time>
      </trkpt>
      <trkpt lat="43.33472" lon="5.65201">
        <ele>475</ele>
        <time>2016-07-12T21:43:38Z</time>
      </trkpt>
      <trkpt lat="43.33465" lon="5.65203">
        <ele>477</ele>
        <time>2016-07-12T21:45:38Z</time>
      </trkpt>
      <trkpt lat="43.3346" lon="5.65206">
        <ele>478</ele>
        <time>2016-07-12T21:47:38Z</time>
      </trkpt>
      <trkpt lat="43.33457" lon="5.65209">
        <ele>479</ele>
        <time>2016-07-12T21:49:38Z</time>
      </trkpt>
      <trkpt lat="43.33454" lon="5.65212">
        <ele>480</ele>
        <time>2016-07-12T21:51:38Z</time>
      </trkpt>
      <trkpt lat="43.33452" lon="5.65217">
        <ele>481</ele>
        <time>2016-07-12T21:53:38Z</time>
      </trkpt>
      <trkpt lat="43.33451" lon="5.65222">
        <ele>482</ele>
        <time>2016-07-12T21:55:38Z</time>
      </trkpt>
      <trkpt lat="43.33451" lon="5.65228">
        <ele>483</ele>
        <time>2016-07-12T21:57:38Z</time>
      </trkpt>
      <trkpt lat="43.33452" lon="5.65234">
        <ele>483</ele>
        <time>2016-07-12T21:59:38Z</time>
      </trkpt>
      <trkpt lat="43.33454" lon="5.65238">
        <ele>483</ele>
        <time>2016-07-12T22:01:38Z</time>
      </trkpt>
      <trkpt lat="43.33457" lon="5.65243">
        <ele>483</ele>
        <time>2016-07-12T22:03:38Z</time>
      </trkpt>
      <trkpt lat="43.3346" lon="5.65247">
        <ele>483</ele>
        <time>2016-07-12T22:05:38Z</time>
      </trkpt>
      <trkpt lat="43.33468" lon="5.65255">
        <ele>483</ele>
        <time>2016-07-12T22:07:38Z</time>
      </trkpt>
      <trkpt lat="43.33473" lon="5.65259">
        <ele>482</ele>
        <time>2016-07-12T22:09:38Z</time>
      </trkpt>
      <trkpt lat="43.33518" lon="5.65303">
        <ele>482</ele>
        <time>2016-07-12T22:11:38Z</time>
      </trkpt>
      <trkpt lat="43.3353" lon="5.65315">
        <ele>481</ele>
        <time>2016-07-12T22:13:38Z</time>
      </trkpt>
      <trkpt lat="43.3354" lon="5.65327">
        <ele>481</ele>
        <time>2016-07-12T22:15:38Z</time>
      </trkpt>
      <trkpt lat="43.33544" lon="5.65334">
        <ele>481</ele>
        <time>2016-07-12T22:17:38Z</time>
      </trkpt>
      <trkpt lat="43.33548" lon="5.65343">
        <ele>481</ele>
        <time>2016-07-12T22:19:38Z</time>
      </trkpt>
      <trkpt lat="43.3355" lon="5.65356">
        <ele>481</ele>
        <time>2016-07-12T22:21:38Z</time>
      </trkpt>
      <trkpt lat="43.33549" lon="5.65367">
        <ele>483</ele>
        <time>2016-07-12T22:23:38Z</time>
      </trkpt>
      <trkpt lat="43.33546" lon="5.65378">
        <ele>485</ele>
        <time>2016-07-12T22:25:38Z</time>
      </trkpt>
      <trkpt lat="43.33541" lon="5.65388">
        <ele>487</ele>
        <time>2016-07-12T22:27:38Z</time>
      </trkpt>
      <trkpt lat="43.33536" lon="5.65397">
        <ele>490</ele>
        <time>2016-07-12T22:29:38Z</time>
      </trkpt>
      <trkpt lat="43.33533" lon="5.65401">
        <ele>491</ele>
        <time>2016-07-12T22:31:38Z</time>
      </trkpt>
      <trkpt lat="43.33532" lon="5.65404">
        <ele>492</ele>
        <time>2016-07-12T22:33:38Z</time>
      </trkpt>
      <trkpt lat="43.33532" lon="5.65408">
        <ele>492</ele>
        <time>2016-07-12T22:35:38Z</time>
      </trkpt>
      <trkpt lat="43.33531" lon="5.65416">
        <ele>493</ele>
        <time>2016-07-12T22:37:38Z</time>
      </trkpt>
      <trkpt lat="43.33532" lon="5.65419">
        <ele>493</ele>
        <time>2016-07-12T22:39:38Z</time>
      </trkpt>
      <trkpt lat="43.33533" lon="5.65425">
        <ele>494</ele>
        <time>2016-07-12T22:41:38Z</time>
      </trkpt>
      <trkpt lat="43.33537" lon="5.6544">
        <ele>495</ele>
        <time>2016-07-12T22:43:38Z</time>
      </trkpt>
      <trkpt lat="43.33544" lon="5.65457">
        <ele>495</ele>
        <time>2016-07-12T22:45:38Z</time>
      </trkpt>
      <trkpt lat="43.33556" lon="5.6549">
        <ele>497</ele>
        <time>2016-07-12T22:47:38Z</time>
      </trkpt>
      <trkpt lat="43.3356" lon="5.65497">
        <ele>497</ele>
        <time>2016-07-12T22:49:38Z</time>
      </trkpt>
      <trkpt lat="43.33567" lon="5.65509">
        <ele>497</ele>
        <time>2016-07-12T22:51:38Z</time>
      </trkpt>
      <trkpt lat="43.33584" lon="5.65532">
        <ele>495</ele>
        <time>2016-07-12T22:53:38Z</time>
      </trkpt>
      <trkpt lat="43.33593" lon="5.65542">
        <ele>494</ele>
        <time>2016-07-12T22:55:38Z</time>
      </trkpt>
      <trkpt lat="43.336" lon="5.65551">
        <ele>493</ele>
        <time>2016-07-12T22:57:38Z</time>
      </trkpt>
      <trkpt lat="43.33604" lon="5.65557">
        <ele>493</ele>
        <time>2016-07-12T22:59:38Z</time>
      </trkpt>
      <trkpt lat="43.33607" lon="5.65562">
        <ele>493</ele>
        <time>2016-07-12T23:01:38Z</time>
      </trkpt>
      <trkpt lat="43.33609" lon="5.65572">
        <ele>493</ele>
        <time>2016-07-12T23:03:38Z</time>
      </trkpt>
      <trkpt lat="43.33608" lon="5.65585">
        <ele>495</ele>
        <time>2016-07-12T23:05:38Z</time>
      </trkpt>
      <trkpt lat="43.33605" lon="5.65592">
        <ele>496</ele>
        <time>2016-07-12T23:07:38Z</time>
      </trkpt>
      <trkpt lat="43.336" lon="5.65598">
        <ele>498</ele>
        <time>2016-07-12T23:09:38Z</time>
      </trkpt>
      <trkpt lat="43.33592" lon="5.65603">
        <ele>500</ele>
        <time>2016-07-12T23:11:38Z</time>
      </trkpt>
      <trkpt lat="43.33567" lon="5.65611">
        <ele>505</ele>
        <time>2016-07-12T23:13:38Z</time>
      </trkpt>
      <trkpt lat="43.33534" lon="5.65621">
        <ele>510</ele>
        <time>2016-07-12T23:15:38Z</time>
      </trkpt>
      <trkpt lat="43.33479" lon="5.65638">
        <ele>518</ele>
        <time>2016-07-12T23:17:38Z</time>
      </trkpt>
      <trkpt lat="43.33472" lon="5.65641">
        <ele>518</ele>
        <time>2016-07-12T23:19:38Z</time>
      </trkpt>
      <trkpt lat="43.33459" lon="5.65647">
        <ele>519</ele>
        <time>2016-07-12T23:21:38Z</time>
      </trkpt>
      <trkpt lat="43.33371" lon="5.65699">
        <ele>529</ele>
        <time>2016-07-12T23:23:38Z</time>
      </trkpt>
      <trkpt lat="43.33363" lon="5.65703">
        <ele>530</ele>
        <time>2016-07-12T23:25:38Z</time>
      </trkpt>
      <trkpt lat="43.33346" lon="5.6572">
        <ele>532</ele>
        <time>2016-07-12T23:27:38Z</time>
      </trkpt>
      <trkpt lat="43.33339" lon="5.6573">
        <ele>533</ele>
        <time>2016-07-12T23:29:38Z</time>
      </trkpt>
      <trkpt lat="43.33332" lon="5.6574">
        <ele>533</ele>
        <time>2016-07-12T23:31:38Z</time>
      </trkpt>
      <trkpt lat="43.33325" lon="5.65758">
        <ele>534</ele>
        <time>2016-07-12T23:33:38Z</time>
      </trkpt>
      <trkpt lat="43.33314" lon="5.65799">
        <ele>533</ele>
        <time>2016-07-12T23:35:38Z</time>
      </trkpt>
      <trkpt lat="43.33309" lon="5.65813">
        <ele>533</ele>
        <time>2016-07-12T23:37:38Z</time>
      </trkpt>
      <trkpt lat="43.33305" lon="5.65819">
        <ele>532</ele>
        <time>2016-07-12T23:39:38Z</time>
      </trkpt>
      <trkpt lat="43.33302" lon="5.65824">
        <ele>532</ele>
        <time>2016-07-12T23:41:38Z</time>
      </trkpt>
      <trkpt lat="43.333" lon="5.65828">
        <ele>532</ele>
        <time>2016-07-12T23:43:38Z</time>
      </trkpt>
      <trkpt lat="43.33296" lon="5.6583">
        <ele>531</ele>
        <time>2016-07-12T23:45:38Z</time>
      </trkpt>
      <trkpt lat="43.33291" lon="5.65833">
        <ele>531</ele>
        <time>2016-07-12T23:47:38Z</time>
      </trkpt>
      <trkpt lat="43.33285" lon="5.65835">
        <ele>531</ele>
        <time>2016-07-12T23:49:38Z</time>
      </trkpt>
      <trkpt lat="43.3328" lon="5.65837">
        <ele>530</ele>
        <time>2016-07-12T23:51:38Z</time>
      </trkpt>
      <trkpt lat="43.33276" lon="5.65838">
        <ele>530</ele>
        <time>2016-07-12T23:53:38Z</time>
      </trkpt>
      <trkpt lat="43.33272" lon="5.65837">
        <ele>530</ele>
        <time>2016-07-12T23:55:38Z</time>
      </trkpt>
      <trkpt lat="43.33268" lon="5.65837">
        <ele>530</ele>
        <time>2016-07-12T23:57:38Z</time>
      </trkpt>
      <trkpt lat="43.33264" lon="5.65836">
        <ele>529</ele>
        <time>2016-07-12T23:59:38Z</time>
      </trkpt>
      <trkpt lat="43.33261" lon="5.65834">
        <ele>529</ele>
        <time>2016-07-13T00:01:38Z</time>
      </trkpt>
      <trkpt lat="43.33258" lon="5.65832">
        <ele>530</ele>
        <time>2016-07-13T00:03:38Z</time>
      </trkpt>
      <trkpt lat="43.33254" lon="5.6583">
        <ele>530</ele>
        <time>2016-07-13T00:05:38Z</time>
      </trkpt>
      <trkpt lat="43.3325" lon="5.65827">
        <ele>530</ele>
        <time>2016-07-13T00:07:38Z</time>
      </trkpt>
      <trkpt lat="43.33247" lon="5.65825">
        <ele>530</ele>
        <time>2016-07-13T00:09:38Z</time>
      </trkpt>
      <trkpt lat="43.33232" lon="5.65804">
        <ele>532</ele>
        <time>2016-07-13T00:11:38Z</time>
      </trkpt>
      <trkpt lat="43.33204" lon="5.65766">
        <ele>537</ele>
        <time>2016-07-13T00:13:38Z</time>
      </trkpt>
      <trkpt lat="43.332" lon="5.65762">
        <ele>538</ele>
        <time>2016-07-13T00:15:38Z</time>
      </trkpt>
      <trkpt lat="43.33196" lon="5.65759">
        <ele>538</ele>
        <time>2016-07-13T00:17:38Z</time>
      </trkpt>
      <trkpt lat="43.33191" lon="5.65757">
        <ele>539</ele>
        <time>2016-07-13T00:19:38Z</time>
      </trkpt>
      <trkpt lat="43.33186" lon="5.65755">
        <ele>539</ele>
        <time>2016-07-13T00:21:38Z</time>
      </trkpt>
      <trkpt lat="43.3318" lon="5.65754">
        <ele>539</ele>
        <time>2016-07-13T00:23:38Z</time>
      </trkpt>
      <trkpt lat="43.33174" lon="5.65753">
        <ele>539</ele>
        <time>2016-07-13T00:25:38Z</time>
      </trkpt>
      <trkpt lat="43.33158" lon="5.65753">
        <ele>540</ele>
        <time>2016-07-13T00:27:38Z</time>
      </trkpt>
      <trkpt lat="43.3311" lon="5.65749">
        <ele>542</ele>
        <time>2016-07-13T00:29:38Z</time>
      </trkpt>
      <trkpt lat="43.331" lon="5.65747">
        <ele>542</ele>
        <time>2016-07-13T00:31:38Z</time>
      </trkpt>
      <trkpt lat="43.33095" lon="5.65748">
        <ele>542</ele>
        <time>2016-07-13T00:33:38Z</time>
      </trkpt>
      <trkpt lat="43.3309" lon="5.65751">
        <ele>542</ele>
        <time>2016-07-13T00:35:38Z</time>
      </trkpt>
      <trkpt lat="43.33086" lon="5.65754">
        <ele>541</ele>
        <time>2016-07-13T00:37:38Z</time>
      </trkpt>
      <trkpt lat="43.33081" lon="5.65759">
        <ele>540</ele>
        <time>2016-07-13T00:39:38Z</time>
      </trkpt>
      <trkpt lat="43.33061" lon="5.65791">
        <ele>536</ele>
        <time>2016-07-13T00:41:38Z</time>
      </trkpt>
      <trkpt lat="43.3305" lon="5.65809">
        <ele>533</ele>
        <time>2016-07-13T00:43:38Z</time>
      </trkpt>
      <trkpt lat="43.33041" lon="5.6582">
        <ele>532</ele>
        <time>2016-07-13T00:45:38Z</time>
      </trkpt>
      <trkpt lat="43.3303" lon="5.65829">
        <ele>532</ele>
        <time>2016-07-13T00:47:38Z</time>
      </trkpt>
      <trkpt lat="43.3302" lon="5.65835">
        <ele>532</ele>
        <time>2016-07-13T00:49:38Z</time>
      </trkpt>
      <trkpt lat="43.33008" lon="5.6584">
        <ele>532</ele>
        <time>2016-07-13T00:51:38Z</time>
      </trkpt>
      <trkpt lat="43.32993" lon="5.65843">
        <ele>532</ele>
        <time>2016-07-13T00:53:38Z</time>
      </trkpt>
      <trkpt lat="43.32988" lon="5.65843">
        <ele>532</ele>
        <time>2016-07-13T00:55:38Z</time>
      </trkpt>
      <trkpt lat="43.32982" lon="5.65841">
        <ele>533</ele>
        <time>2016-07-13T00:57:38Z</time>
      </trkpt>
      <trkpt lat="43.32977" lon="5.65839">
        <ele>533</ele>
        <time>2016-07-13T00:59:38Z</time>
      </trkpt>
      <trkpt lat="43.3297" lon="5.65834">
        <ele>533</ele>
        <time>2016-07-13T01:01:38Z</time>
      </trkpt>
      <trkpt lat="43.32966" lon="5.65829">
        <ele>533</ele>
        <time>2016-07-13T01:03:38Z</time>
      </trkpt>
      <trkpt lat="43.3296" lon="5.65823">
        <ele>534</ele>
        <time>2016-07-13T01:05:38Z</time>
      </trkpt>
      <trkpt lat="43.32953" lon="5.65813">
        <ele>535</ele>
        <time>2016-07-13T01:07:38Z</time>
      </trkpt>
      <trkpt lat="43.32952" lon="5.65811">
        <ele>536</ele>
        <time>2016-07-13T01:09:38Z</time>
      </trkpt>
      <trkpt lat="43.32936" lon="5.65782">
        <ele>539</ele>
        <time>2016-07-13T01:11:38Z</time>
      </trkpt>
      <trkpt lat="43.3293" lon="5.65771">
        <ele>541</ele>
        <time>2016-07-13T01:13:38Z</time>
      </trkpt>
      <trkpt lat="43.32924" lon="5.65765">
        <ele>541</ele>
        <time>2016-07-13T01:15:38Z</time>
      </trkpt>
      <trkpt lat="43.32917" lon="5.65758">
        <ele>542</ele>
        <time>2016-07-13T01:17:38Z</time>
      </trkpt>
      <trkpt lat="43.32911" lon="5.65756">
        <ele>542</ele>
        <time>2016-07-13T01:19:38Z</time>
      </trkpt>
      <trkpt lat="43.32905" lon="5.65754">
        <ele>543</ele>
        <time>2016-07-13T01:21:38Z</time>
      </trkpt>
      <trkpt lat="43.32895" lon="5.65754">
        <ele>544</ele>
        <time>2016-07-13T01:23:38Z</time>
      </trkpt>
      <trkpt lat="43.32879" lon="5.65757">
        <ele>544</ele>
        <time>2016-07-13T01:25:38Z</time>
      </trkpt>
      <trkpt lat="43.32871" lon="5.65758">
        <ele>545</ele>
        <time>2016-07-13T01:27:38Z</time>
      </trkpt>
      <trkpt lat="43.32844" lon="5.65766">
        <ele>546</ele>
        <time>2016-07-13T01:29:38Z</time>
      </trkpt>
      <trkpt lat="43.32839" lon="5.65768">
        <ele>546</ele>
        <time>2016-07-13T01:31:38Z</time>
      </trkpt>
      <trkpt lat="43.32835" lon="5.65771">
        <ele>546</ele>
        <time>2016-07-13T01:33:38Z</time>
      </trkpt>
      <trkpt lat="43.32831" lon="5.65774">
        <ele>546</ele>
        <time>2016-07-13T01:35:38Z</time>
      </trkpt>
      <trkpt lat="43.32825" lon="5.6578">
        <ele>545</ele>
        <time>2016-07-13T01:37:38Z</time>
      </trkpt>
      <trkpt lat="43.32814" lon="5.65795">
        <ele>545</ele>
        <time>2016-07-13T01:39:38Z</time>
      </trkpt>
      <trkpt lat="43.32806" lon="5.65808">
        <ele>544</ele>
        <time>2016-07-13T01:41:38Z</time>
      </trkpt>
      <trkpt lat="43.328" lon="5.65817">
        <ele>544</ele>
        <time>2016-07-13T01:43:38Z</time>
      </trkpt>
      <trkpt lat="43.32785" lon="5.65832">
        <ele>544</ele>
        <time>2016-07-13T01:45:38Z</time>
      </trkpt>
      <trkpt lat="43.32778" lon="5.65839">
        <ele>544</ele>
        <time>2016-07-13T01:47:38Z</time>
      </trkpt>
      <trkpt lat="43.32767" lon="5.65848">
        <ele>545</ele>
        <time>2016-07-13T01:49:38Z</time>
      </trkpt>
      <trkpt lat="43.32754" lon="5.65858">
        <ele>546</ele>
        <time>2016-07-13T01:51:38Z</time>
      </trkpt>
      <trkpt lat="43.32742" lon="5.65867">
        <ele>547</ele>
        <time>2016-07-13T01:53:38Z</time>
      </trkpt>
      <trkpt lat="43.32737" lon="5.65871">
        <ele>547</ele>
        <time>2016-07-13T01:55:38Z</time>
      </trkpt>
      <trkpt lat="43.32724" lon="5.6588">
        <ele>548</ele>
        <time>2016-07-13T01:57:38Z</time>
      </trkpt>
      <trkpt lat="43.32673" lon="5.65916">
        <ele>550</ele>
        <time>2016-07-13T01:59:38Z</time>
      </trkpt>
      <trkpt lat="43.32669" lon="5.65918">
        <ele>550</ele>
        <time>2016-07-13T02:01:38Z</time>
      </trkpt>
      <trkpt lat="43.32652" lon="5.65931">
        <ele>550</ele>
        <time>2016-07-13T02:03:38Z</time>
      </trkpt>
      <trkpt lat="43.32591" lon="5.65976">
        <ele>554</ele>
        <time>2016-07-13T02:05:38Z</time>
      </trkpt>
      <trkpt lat="43.32571" lon="5.65993">
        <ele>556</ele>
        <time>2016-07-13T02:07:38Z</time>
      </trkpt>
      <trkpt lat="43.32566" lon="5.66">
        <ele>556</ele>
        <time>2016-07-13T02:09:38Z</time>
      </trkpt>
      <trkpt lat="43.32562" lon="5.66008">
        <ele>557</ele>
        <time>2016-07-13T02:11:38Z</time>
      </trkpt>
      <trkpt lat="43.32559" lon="5.66016">
        <ele>558</ele>
        <time>2016-07-13T02:13:38Z</time>
      </trkpt>
      <trkpt lat="43.32556" lon="5.66029">
        <ele>560</ele>
        <time>2016-07-13T02:15:38Z</time>
      </trkpt>
      <trkpt lat="43.32555" lon="5.66044">
        <ele>561</ele>
        <time>2016-07-13T02:17:38Z</time>
      </trkpt>
      <trkpt lat="43.32558" lon="5.66057">
        <ele>562</ele>
        <time>2016-07-13T02:19:38Z</time>
      </trkpt>
      <trkpt lat="43.32561" lon="5.66065">
        <ele>562</ele>
        <time>2016-07-13T02:21:38Z</time>
      </trkpt>
      <trkpt lat="43.32567" lon="5.66073">
        <ele>563</ele>
        <time>2016-07-13T02:23:38Z</time>
      </trkpt>
      <trkpt lat="43.32579" lon="5.66086">
        <ele>563</ele>
        <time>2016-07-13T02:25:38Z</time>
      </trkpt>
      <trkpt lat="43.32584" lon="5.66096">
        <ele>563</ele>
        <time>2016-07-13T02:27:38Z</time>
      </trkpt>
      <trkpt lat="43.3259" lon="5.66112">
        <ele>564</ele>
        <time>2016-07-13T02:29:38Z</time>
      </trkpt>
      <trkpt lat="43.32593" lon="5.66121">
        <ele>565</ele>
        <time>2016-07-13T02:31:38Z</time>
      </trkpt>
      <trkpt lat="43.32596" lon="5.66135">
        <ele>566</ele>
        <time>2016-07-13T02:33:38Z</time>
      </trkpt>
      <trkpt lat="43.32599" lon="5.66145">
        <ele>567</ele>
        <time>2016-07-13T02:35:38Z</time>
      </trkpt>
      <trkpt lat="43.32606" lon="5.66162">
        <ele>567</ele>
        <time>2016-07-13T02:37:38Z</time>
      </trkpt>
      <trkpt lat="43.32625" lon="5.66197">
        <ele>568</ele>
        <time>2016-07-13T02:39:38Z</time>
      </trkpt>
      <trkpt lat="43.32647" lon="5.66229">
        <ele>567</ele>
        <time>2016-07-13T02:41:38Z</time>
      </trkpt>
      <trkpt lat="43.32668" lon="5.66261">
        <ele>568</ele>
        <time>2016-07-13T02:43:38Z</time>
      </trkpt>
      <trkpt lat="43.32677" lon="5.66277">
        <ele>569</ele>
        <time>2016-07-13T02:45:38Z</time>
      </trkpt>
      <trkpt lat="43.32696" lon="5.66323">
        <ele>571</ele>
        <time>2016-07-13T02:47:38Z</time>
      </trkpt>
      <trkpt lat="43.32709" lon="5.6636">
        <ele>571</ele>
        <time>2016-07-13T02:49:38Z</time>
      </trkpt>
      <trkpt lat="43.32716" lon="5.66379">
        <ele>572</ele>
        <time>2016-07-13T02:51:38Z</time>
      </trkpt>
      <trkpt lat="43.32725" lon="5.66405">
        <ele>573</ele>
        <time>2016-07-13T02:53:38Z</time>
      </trkpt>
      <trkpt lat="43.3273" lon="5.66424">
        <ele>574</ele>
        <time>2016-07-13T02:55:38Z</time>
      </trkpt>
      <trkpt lat="43.32736" lon="5.66452">
        <ele>576</ele>
        <time>2016-07-13T02:57:38Z</time>
      </trkpt>
      <trkpt lat="43.3274" lon="5.66468">
        <ele>577</ele>
        <time>2016-07-13T02:59:38Z</time>
      </trkpt>
      <trkpt lat="43.32751" lon="5.665">
        <ele>580</ele>
        <time>2016-07-13T03:01:38Z</time>
      </trkpt>
      <trkpt lat="43.32756" lon="5.66516">
        <ele>578</ele>
        <time>2016-07-13T03:03:38Z</time>
      </trkpt>
      <trkpt lat="43.32758" lon="5.66533">
        <ele>578</ele>
        <time>2016-07-13T03:05:38Z</time>
      </trkpt>
      <trkpt lat="43.32758" lon="5.66558">
        <ele>579</ele>
        <time>2016-07-13T03:07:38Z</time>
      </trkpt>
      <trkpt lat="43.32757" lon="5.66611">
        <ele>580</ele>
        <time>2016-07-13T03:09:38Z</time>
      </trkpt>
      <trkpt lat="43.32755" lon="5.66642">
        <ele>579</ele>
        <time>2016-07-13T03:11:38Z</time>
      </trkpt>
      <trkpt lat="43.32754" lon="5.66656">
        <ele>579</ele>
        <time>2016-07-13T03:13:38Z</time>
      </trkpt>
      <trkpt lat="43.32753" lon="5.66663">
        <ele>579</ele>
        <time>2016-07-13T03:15:38Z</time>
      </trkpt>
      <trkpt lat="43.32752" lon="5.66669">
        <ele>579</ele>
        <time>2016-07-13T03:17:38Z</time>
      </trkpt>
      <trkpt lat="43.32748" lon="5.66675">
        <ele>579</ele>
        <time>2016-07-13T03:19:38Z</time>
      </trkpt>
      <trkpt lat="43.32734" lon="5.66693">
        <ele>583</ele>
        <time>2016-07-13T03:21:38Z</time>
      </trkpt>
      <trkpt lat="43.3273" lon="5.667">
        <ele>584</ele>
        <time>2016-07-13T03:23:38Z</time>
      </trkpt>
      <trkpt lat="43.32728" lon="5.66705">
        <ele>584</ele>
        <time>2016-07-13T03:25:38Z</time>
      </trkpt>
      <trkpt lat="43.32727" lon="5.66718">
        <ele>585</ele>
        <time>2016-07-13T03:27:38Z</time>
      </trkpt>
      <trkpt lat="43.32729" lon="5.66762">
        <ele>584</ele>
        <time>2016-07-13T03:29:38Z</time>
      </trkpt>
      <trkpt lat="43.32733" lon="5.66804">
        <ele>581</ele>
        <time>2016-07-13T03:31:38Z</time>
      </trkpt>
      <trkpt lat="43.32737" lon="5.66867">
        <ele>577</ele>
        <time>2016-07-13T03:33:38Z</time>
      </trkpt>
      <trkpt lat="43.3274" lon="5.66896">
        <ele>575</ele>
        <time>2016-07-13T03:35:38Z</time>
      </trkpt>
      <trkpt lat="43.32741" lon="5.66906">
        <ele>575</ele>
        <time>2016-07-13T03:37:38Z</time>
      </trkpt>
      <trkpt lat="43.3274" lon="5.66919">
        <ele>574</ele>
        <time>2016-07-13T03:39:38Z</time>
      </trkpt>
      <trkpt lat="43.32738" lon="5.66933">
        <ele>574</ele>
        <time>2016-07-13T03:41:38Z</time>
      </trkpt>
      <trkpt lat="43.32737" lon="5.66938">
        <ele>574</ele>
        <time>2016-07-13T03:43:38Z</time>
      </trkpt>
      <trkpt lat="43.32725" lon="5.66992">
        <ele>573</ele>
        <time>2016-07-13T03:45:38Z</time>
      </trkpt>
      <trkpt lat="43.32723" lon="5.67006">
        <ele>573</ele>
        <time>2016-07-13T03:47:38Z</time>
      </trkpt>
      <trkpt lat="43.32723" lon="5.67016">
        <ele>573</ele>
        <time>2016-07-13T03:49:38Z</time>
      </trkpt>
      <trkpt lat="43.32724" lon="5.67024">
        <ele>573</ele>
        <time>2016-07-13T03:51:38Z</time>
      </trkpt>
      <trkpt lat="43.32725" lon="5.67031">
        <ele>574</ele>
        <time>2016-07-13T03:53:38Z</time>
      </trkpt>
      <trkpt lat="43.32728" lon="5.67038">
        <ele>573</ele>
        <time>2016-07-13T03:55:38Z</time>
      </trkpt>
      <trkpt lat="43.32734" lon="5.67046">
        <ele>573</ele>
        <time>2016-07-13T03:57:38Z</time>
      </trkpt>
      <trkpt lat="43.32739" lon="5.6705">
        <ele>573</ele>
        <time>2016-07-13T03:59:38Z</time>
      </trkpt>
      <trkpt lat="43.32746" lon="5.67055">
        <ele>573</ele>
        <time>2016-07-13T04:01:38Z</time>
      </trkpt>
      <trkpt lat="43.32766" lon="5.67062">
        <ele>573</ele>
        <time>2016-07-13T04:03:38Z</time>
      </trkpt>
      <trkpt lat="43.3283" lon="5.67085">
        <ele>577</ele>
        <time>2016-07-13T04:05:38Z</time>
      </trkpt>
      <trkpt lat="43.32837" lon="5.67089">
        <ele>578</ele>
        <time>2016-07-13T04:07:38Z</time>
      </trkpt>
      <trkpt lat="43.32847" lon="5.67098">
        <ele>579</ele>
        <time>2016-07-13T04:09:38Z</time>
      </trkpt>
      <trkpt lat="43.32855" lon="5.67109">
        <ele>580</ele>
        <time>2016-07-13T04:11:38Z</time>
      </trkpt>
      <trkpt lat="43.32861" lon="5.6712">
        <ele>581</ele>
        <time>2016-07-13T04:13:38Z</time>
      </trkpt>
      <trkpt lat="43.32866" lon="5.67128">
        <ele>582</ele>
        <time>2016-07-13T04:15:38Z</time>
      </trkpt>
      <trkpt lat="43.32871" lon="5.67133">
        <ele>583</ele>
        <time>2016-07-13T04:17:38Z</time>
      </trkpt>
      <trkpt lat="43.32882" lon="5.6714">
        <ele>584</ele>
        <time>2016-07-13T04:19:38Z</time>
      </trkpt>
      <trkpt lat="43.32903" lon="5.67145">
        <ele>585</ele>
        <time>2016-07-13T04:21:38Z</time>
      </trkpt>
      <trkpt lat="43.3291" lon="5.67147">
        <ele>585</ele>
        <time>2016-07-13T04:23:38Z</time>
      </trkpt>
      <trkpt lat="43.32916" lon="5.67151">
        <ele>586</ele>
        <time>2016-07-13T04:25:38Z</time>
      </trkpt>
      <trkpt lat="43.32921" lon="5.67157">
        <ele>586</ele>
        <time>2016-07-13T04:27:38Z</time>
      </trkpt>
      <trkpt lat="43.32925" lon="5.67164">
        <ele>586</ele>
        <time>2016-07-13T04:29:38Z</time>
      </trkpt>
      <trkpt lat="43.32927" lon="5.67171">
        <ele>587</ele>
        <time>2016-07-13T04:31:38Z</time>
      </trkpt>
      <trkpt lat="43.32927" lon="5.67182">
        <ele>588</ele>
        <time>2016-07-13T04:33:38Z</time>
      </trkpt>
      <trkpt lat="43.32925" lon="5.67193">
        <ele>589</ele>
        <time>2016-07-13T04:35:38Z</time>
      </trkpt>
      <trkpt lat="43.32924" lon="5.672">
        <ele>590</ele>
        <time>2016-07-13T04:37:38Z</time>
      </trkpt>
      <trkpt lat="43.32924" lon="5.67209">
        <ele>591</ele>
        <time>2016-07-13T04:39:38Z</time>
      </trkpt>
      <trkpt lat="43.32925" lon="5.67214">
        <ele>591</ele>
        <time>2016-07-13T04:41:38Z</time>
      </trkpt>
      <trkpt lat="43.32928" lon="5.67223">
        <ele>591</ele>
        <time>2016-07-13T04:43:38Z</time>
      </trkpt>
      <trkpt lat="43.32949" lon="5.67251">
        <ele>591</ele>
        <time>2016-07-13T04:45:38Z</time>
      </trkpt>
      <trkpt lat="43.3297" lon="5.67278">
        <ele>593</ele>
        <time>2016-07-13T04:47:38Z</time>
      </trkpt>
      <trkpt lat="43.32974" lon="5.67284">
        <ele>593</ele>
        <time>2016-07-13T04:49:38Z</time>
      </trkpt>
      <trkpt lat="43.32976" lon="5.67292">
        <ele>594</ele>
        <time>2016-07-13T04:51:38Z</time>
      </trkpt>
      <trkpt lat="43.32978" lon="5.673">
        <ele>595</ele>
        <time>2016-07-13T04:53:38Z</time>
      </trkpt>
      <trkpt lat="43.32981" lon="5.67316">
        <ele>597</ele>
        <time>2016-07-13T04:55:38Z</time>
      </trkpt>
      <trkpt lat="43.32982" lon="5.6733">
        <ele>598</ele>
        <time>2016-07-13T04:57:38Z</time>
      </trkpt>
      <trkpt lat="43.32984" lon="5.67338">
        <ele>599</ele>
        <time>2016-07-13T04:59:38Z</time>
      </trkpt>
      <trkpt lat="43.32986" lon="5.67345">
        <ele>600</ele>
        <time>2016-07-13T05:01:38Z</time>
      </trkpt>
      <trkpt lat="43.3299" lon="5.67353">
        <ele>600</ele>
        <time>2016-07-13T05:03:38Z</time>
      </trkpt>
      <trkpt lat="43.32996" lon="5.67363">
        <ele>600</ele>
        <time>2016-07-13T05:05:38Z</time>
      </trkpt>
      <trkpt lat="43.33015" lon="5.67386">
        <ele>601</ele>
        <time>2016-07-13T05:07:38Z</time>
      </trkpt>
      <trkpt lat="43.33022" lon="5.67397">
        <ele>601</ele>
        <time>2016-07-13T05:09:38Z</time>
      </trkpt>
      <trkpt lat="43.33027" lon="5.67409">
        <ele>602</ele>
        <time>2016-07-13T05:11:38Z</time>
      </trkpt>
      <trkpt lat="43.33028" lon="5.67417">
        <ele>603</ele>
        <time>2016-07-13T05:13:38Z</time>
      </trkpt>
      <trkpt lat="43.33029" lon="5.67426">
        <ele>603</ele>
        <time>2016-07-13T05:15:38Z</time>
      </trkpt>
      <trkpt lat="43.33029" lon="5.6744">
        <ele>604</ele>
        <time>2016-07-13T05:17:38Z</time>
      </trkpt>
      <trkpt lat="43.33027" lon="5.67456">
        <ele>605</ele>
        <time>2016-07-13T05:19:38Z</time>
      </trkpt>
      <trkpt lat="43.33024" lon="5.67466">
        <ele>606</ele>
        <time>2016-07-13T05:21:38Z</time>
      </trkpt>
      <trkpt lat="43.33022" lon="5.67474">
        <ele>606</ele>
        <time>2016-07-13T05:23:38Z</time>
      </trkpt>
      <trkpt lat="43.33019" lon="5.67481">
        <ele>607</ele>
        <time>2016-07-13T05:25:38Z</time>
      </trkpt>
      <trkpt lat="43.33016" lon="5.67489">
        <ele>608</ele>
        <time>2016-07-13T05:27:38Z</time>
      </trkpt>
      <trkpt lat="43.33013" lon="5.67497">
        <ele>608</ele>
        <time>2016-07-13T05:29:38Z</time>
      </trkpt>
      <trkpt lat="43.33011" lon="5.67512">
        <ele>609</ele>
        <time>2016-07-13T05:31:38Z</time>
      </trkpt>
      <trkpt lat="43.33011" lon="5.67524">
        <ele>610</ele>
        <time>2016-07-13T05:33:38Z</time>
      </trkpt>
      <trkpt lat="43.3301" lon="5.67547">
        <ele>611</ele>
        <time>2016-07-13T05:35:38Z</time>
      </trkpt>
      <trkpt lat="43.33009" lon="5.67633">
        <ele>617</ele>
        <time>2016-07-13T05:37:38Z</time>
      </trkpt>
      <trkpt lat="43.33009" lon="5.67648">
        <ele>618</ele>
        <time>2016-07-13T05:39:38Z</time>
      </trkpt>
      <trkpt lat="43.33009" lon="5.67662">
        <ele>619</ele>
        <time>2016-07-13T05:41:38Z</time>
      </trkpt>
      <trkpt lat="43.3301" lon="5.67676">
        <ele>619</ele>
        <time>2016-07-13T05:43:38Z</time>
      </trkpt>
      <trkpt lat="43.33012" lon="5.6769">
        <ele>620</ele>
        <time>2016-07-13T05:45:38Z</time>
      </trkpt>
      <trkpt lat="43.33018" lon="5.67705">
        <ele>620</ele>
        <time>2016-07-13T05:47:38Z</time>
      </trkpt>
      <trkpt lat="43.33025" lon="5.67717">
        <ele>620</ele>
        <time>2016-07-13T05:49:38Z</time>
      </trkpt>
      <trkpt lat="43.33034" lon="5.67734">
        <ele>620</ele>
        <time>2016-07-13T05:51:38Z</time>
      </trkpt>
      <trkpt lat="43.33036" lon="5.67739">
        <ele>620</ele>
        <time>2016-07-13T05:53:38Z</time>
      </trkpt>
      <trkpt lat="43.33041" lon="5.67757">
        <ele>620</ele>
        <time>2016-07-13T05:55:38Z</time>
      </trkpt>
      <trkpt lat="43.33047" lon="5.67779">
        <ele>618</ele>
        <time>2016-07-13T05:57:38Z</time>
      </trkpt>
      <trkpt lat="43.33049" lon="5.67787">
        <ele>618</ele>
        <time>2016-07-13T05:59:38Z</time>
      </trkpt>
      <trkpt lat="43.33051" lon="5.67796">
        <ele>617</ele>
        <time>2016-07-13T06:01:38Z</time>
      </trkpt>
      <trkpt lat="43.33052" lon="5.67806">
        <ele>616</ele>
        <time>2016-07-13T06:03:38Z</time>
      </trkpt>
      <trkpt lat="43.3305" lon="5.67815">
        <ele>616</ele>
        <time>2016-07-13T06:05:38Z</time>
      </trkpt>
      <trkpt lat="43.3305" lon="5.67818">
        <ele>616</ele>
        <time>2016-07-13T06:07:38Z</time>
      </trkpt>
      <trkpt lat="43.33047" lon="5.67825">
        <ele>616</ele>
        <time>2016-07-13T06:09:38Z</time>
      </trkpt>
      <trkpt lat="43.33041" lon="5.67833">
        <ele>616</ele>
        <time>2016-07-13T06:11:38Z</time>
      </trkpt>
      <trkpt lat="43.33024" lon="5.67844">
        <ele>615</ele>
        <time>2016-07-13T06:13:38Z</time>
      </trkpt>
      <trkpt lat="43.3301" lon="5.67849">
        <ele>616</ele>
        <time>2016-07-13T06:15:38Z</time>
      </trkpt>
      <trkpt lat="43.32976" lon="5.67863">
        <ele>616</ele>
        <time>2016-07-13T06:17:38Z</time>
      </trkpt>
      <trkpt lat="43.32956" lon="5.67867">
        <ele>617</ele>
        <time>2016-07-13T06:19:38Z</time>
      </trkpt>
      <trkpt lat="43.32943" lon="5.67872">
        <ele>617</ele>
        <time>2016-07-13T06:21:38Z</time>
      </trkpt>
      <trkpt lat="43.32939" lon="5.67877">
        <ele>617</ele>
        <time>2016-07-13T06:23:38Z</time>
      </trkpt>
      <trkpt lat="43.32936" lon="5.67883">
        <ele>616</ele>
        <time>2016-07-13T06:25:38Z</time>
      </trkpt>
      <trkpt lat="43.32932" lon="5.67897">
        <ele>615</ele>
        <time>2016-07-13T06:27:38Z</time>
      </trkpt>
      <trkpt lat="43.32925" lon="5.6794">
        <ele>614</ele>
        <time>2016-07-13T06:29:38Z</time>
      </trkpt>
      <trkpt lat="43.32924" lon="5.67958">
        <ele>615</ele>
        <time>2016-07-13T06:31:38Z</time>
      </trkpt>
      <trkpt lat="43.32925" lon="5.67975">
        <ele>616</ele>
        <time>2016-07-13T06:33:38Z</time>
      </trkpt>
      <trkpt lat="43.32928" lon="5.67988">
        <ele>617</ele>
        <time>2016-07-13T06:35:38Z</time>
      </trkpt>
      <trkpt lat="43.32932" lon="5.68002">
        <ele>618</ele>
        <time>2016-07-13T06:37:38Z</time>
      </trkpt>
      <trkpt lat="43.32945" lon="5.68041">
        <ele>621</ele>
        <time>2016-07-13T06:39:38Z</time>
      </trkpt>
      <trkpt lat="43.32948" lon="5.68052">
        <ele>622</ele>
        <time>2016-07-13T06:41:38Z</time>
      </trkpt>
      <trkpt lat="43.3295" lon="5.68057">
        <ele>622</ele>
        <time>2016-07-13T06:43:38Z</time>
      </trkpt>
      <trkpt lat="43.32959" lon="5.68082">
        <ele>624</ele>
        <time>2016-07-13T06:45:38Z</time>
      </trkpt>
      <trkpt lat="43.32959" lon="5.68082">
        <ele>624</ele>
        <time>2016-07-13T06:47:38Z</time>
      </trkpt>
      <trkpt lat="43.32951" lon="5.68083">
        <ele>624</ele>
        <time>2016-07-13T06:49:38Z</time>
      </trkpt>
      <trkpt lat="43.32939" lon="5.68079">
        <ele>624</ele>
        <time>2016-07-13T06:51:38Z</time>
      </trkpt>
      <trkpt lat="43.32927" lon="5.68069">
        <ele>624</ele>
        <time>2016-07-13T06:53:38Z</time>
      </trkpt>
      <trkpt lat="43.3292" lon="5.68064">
        <ele>623</ele>
        <time>2016-07-13T06:55:38Z</time>
      </trkpt>
      <trkpt lat="43.32912" lon="5.68055">
        <ele>623</ele>
        <time>2016-07-13T06:57:38Z</time>
      </trkpt>
      <trkpt lat="43.32885" lon="5.68015">
        <ele>623</ele>
        <time>2016-07-13T06:59:38Z</time>
      </trkpt>
      <trkpt lat="43.32874" lon="5.67998">
        <ele>622</ele>
        <time>2016-07-13T07:01:38Z</time>
      </trkpt>
      <trkpt lat="43.32865" lon="5.67986">
        <ele>622</ele>
        <time>2016-07-13T07:03:38Z</time>
      </trkpt>
      <trkpt lat="43.3286" lon="5.67981">
        <ele>622</ele>
        <time>2016-07-13T07:05:38Z</time>
      </trkpt>
      <trkpt lat="43.32853" lon="5.67974">
        <ele>622</ele>
        <time>2016-07-13T07:07:38Z</time>
      </trkpt>
      <trkpt lat="43.32844" lon="5.67969">
        <ele>622</ele>
        <time>2016-07-13T07:09:38Z</time>
      </trkpt>
      <trkpt lat="43.32838" lon="5.67965">
        <ele>623</ele>
        <time>2016-07-13T07:11:38Z</time>
      </trkpt>
      <trkpt lat="43.3282" lon="5.6796">
        <ele>623</ele>
        <time>2016-07-13T07:13:38Z</time>
      </trkpt>
      <trkpt lat="43.32814" lon="5.67959">
        <ele>624</ele>
        <time>2016-07-13T07:15:38Z</time>
      </trkpt>
      <trkpt lat="43.32801" lon="5.67959">
        <ele>624</ele>
        <time>2016-07-13T07:17:38Z</time>
      </trkpt>
      <trkpt lat="43.32788" lon="5.67959">
        <ele>625</ele>
        <time>2016-07-13T07:19:38Z</time>
      </trkpt>
      <trkpt lat="43.32775" lon="5.67957">
        <ele>626</ele>
        <time>2016-07-13T07:21:38Z</time>
      </trkpt>
      <trkpt lat="43.32769" lon="5.67956">
        <ele>626</ele>
        <time>2016-07-13T07:23:38Z</time>
      </trkpt>
      <trkpt lat="43.32764" lon="5.67953">
        <ele>626</ele>
        <time>2016-07-13T07:25:38Z</time>
      </trkpt>
      <trkpt lat="43.32754" lon="5.67945">
        <ele>626</ele>
        <time>2016-07-13T07:27:38Z</time>
      </trkpt>
      <trkpt lat="43.32747" lon="5.67936">
        <ele>626</ele>
        <time>2016-07-13T07:29:38Z</time>
      </trkpt>
      <trkpt lat="43.32743" lon="5.67931">
        <ele>626</ele>
        <time>2016-07-13T07:31:38Z</time>
      </trkpt>
      <trkpt lat="43.32739" lon="5.67921">
        <ele>626</ele>
        <time>2016-07-13T07:33:38Z</time>
      </trkpt>
      <trkpt lat="43.32737" lon="5.67909">
        <ele>627</ele>
        <time>2016-07-13T07:35:38Z</time>
      </trkpt>
      <trkpt lat="43.32738" lon="5.67898">
        <ele>628</ele>
        <time>2016-07-13T07:37:38Z</time>
      </trkpt>
      <trkpt lat="43.32742" lon="5.67888">
        <ele>629</ele>
        <time>2016-07-13T07:39:38Z</time>
      </trkpt>
      <trkpt lat="43.32749" lon="5.67882">
        <ele>628</ele>
        <time>2016-07-13T07:41:38Z</time>
      </trkpt>
      <trkpt lat="43.32754" lon="5.67879">
        <ele>628</ele>
        <time>2016-07-13T07:43:38Z</time>
      </trkpt>
      <trkpt lat="43.32785" lon="5.67868">
        <ele>626</ele>
        <time>2016-07-13T07:45:38Z</time>
      </trkpt>
      <trkpt lat="43.328" lon="5.67861">
        <ele>625</ele>
        <time>2016-07-13T07:47:38Z</time>
      </trkpt>
      <trkpt lat="43.32808" lon="5.67853">
        <ele>625</ele>
        <time>2016-07-13T07:49:38Z</time>
      </trkpt>
      <trkpt lat="43.32811" lon="5.67848">
        <ele>625</ele>
        <time>2016-07-13T07:51:38Z</time>
      </trkpt>
      <trkpt lat="43.32815" lon="5.6784">
        <ele>625</ele>
        <time>2016-07-13T07:53:38Z</time>
      </trkpt>
      <trkpt lat="43.32815" lon="5.67825">
        <ele>626</ele>
        <time>2016-07-13T07:55:38Z</time>
      </trkpt>
      <trkpt lat="43.32813" lon="5.67812">
        <ele>626</ele>
        <time>2016-07-13T07:57:38Z</time>
      </trkpt>
      <trkpt lat="43.3281" lon="5.67804">
        <ele>627</ele>
        <time>2016-07-13T07:59:38Z</time>
      </trkpt>
      <trkpt lat="43.32804" lon="5.67795">
        <ele>628</ele>
        <time>2016-07-13T08:01:38Z</time>
      </trkpt>
      <trkpt lat="43.32796" lon="5.67788">
        <ele>629</ele>
        <time>2016-07-13T08:03:38Z</time>
      </trkpt>
      <trkpt lat="43.3278" lon="5.6778">
        <ele>631</ele>
        <time>2016-07-13T08:05:38Z</time>
      </trkpt>
      <trkpt lat="43.3277" lon="5.67774">
        <ele>632</ele>
        <time>2016-07-13T08:07:38Z</time>
      </trkpt>
      <trkpt lat="43.32766" lon="5.6777">
        <ele>632</ele>
        <time>2016-07-13T08:09:38Z</time>
      </trkpt>
      <trkpt lat="43.32763" lon="5.67765">
        <ele>633</ele>
        <time>2016-07-13T08:11:38Z</time>
      </trkpt>
      <trkpt lat="43.32761" lon="5.67759">
        <ele>633</ele>
        <time>2016-07-13T08:13:38Z</time>
      </trkpt>
      <trkpt lat="43.32758" lon="5.67753">
        <ele>633</ele>
        <time>2016-07-13T08:15:38Z</time>
      </trkpt>
      <trkpt lat="43.32757" lon="5.67746">
        <ele>634</ele>
        <time>2016-07-13T08:17:38Z</time>
      </trkpt>
      <trkpt lat="43.32754" lon="5.67712">
        <ele>634</ele>
        <time>2016-07-13T08:19:38Z</time>
      </trkpt>
      <trkpt lat="43.32752" lon="5.67652">
        <ele>634</ele>
        <time>2016-07-13T08:21:38Z</time>
      </trkpt>
      <trkpt lat="43.32751" lon="5.67645">
        <ele>635</ele>
        <time>2016-07-13T08:23:38Z</time>
      </trkpt>
      <trkpt lat="43.32748" lon="5.67635">
        <ele>635</ele>
        <time>2016-07-13T08:25:38Z</time>
      </trkpt>
      <trkpt lat="43.32743" lon="5.67622">
        <ele>635</ele>
        <time>2016-07-13T08:27:38Z</time>
      </trkpt>
      <trkpt lat="43.32737" lon="5.67614">
        <ele>636</ele>
        <time>2016-07-13T08:29:38Z</time>
      </trkpt>
      <trkpt lat="43.32733" lon="5.6761">
        <ele>636</ele>
        <time>2016-07-13T08:31:38Z</time>
      </trkpt>
      <trkpt lat="43.32725" lon="5.67605">
        <ele>636</ele>
        <time>2016-07-13T08:33:38Z</time>
      </trkpt>
      <trkpt lat="43.32711" lon="5.67597">
        <ele>636</ele>
        <time>2016-07-13T08:35:38Z</time>
      </trkpt>
      <trkpt lat="43.32642" lon="5.67567">
        <ele>636</ele>
        <time>2016-07-13T08:37:38Z</time>
      </trkpt>
      <trkpt lat="43.3264" lon="5.67566">
        <ele>636</ele>
        <time>2016-07-13T08:39:38Z</time>
      </trkpt>
      <trkpt lat="43.32631" lon="5.67559">
        <ele>636</ele>
        <time>2016-07-13T08:41:38Z</time>
      </trkpt>
      <trkpt lat="43.32626" lon="5.67551">
        <ele>636</ele>
        <time>2016-07-13T08:43:38Z</time>
      </trkpt>
      <trkpt lat="43.32622" lon="5.67543">
        <ele>636</ele>
        <time>2016-07-13T08:45:38Z</time>
      </trkpt>
      <trkpt lat="43.32617" lon="5.67531">
        <ele>635</ele>
        <time>2016-07-13T08:47:38Z</time>
      </trkpt>
      <trkpt lat="43.32612" lon="5.67523">
        <ele>634</ele>
        <time>2016-07-13T08:49:38Z</time>
      </trkpt>
      <trkpt lat="43.32608" lon="5.67518">
        <ele>634</ele>
        <time>2016-07-13T08:51:38Z</time>
      </trkpt>
      <trkpt lat="43.32604" lon="5.67514">
        <ele>634</ele>
        <time>2016-07-13T08:53:38Z</time>
      </trkpt>
      <trkpt lat="43.32595" lon="5.6751">
        <ele>634</ele>
        <time>2016-07-13T08:55:38Z</time>
      </trkpt>
      <trkpt lat="43.3259" lon="5.67508">
        <ele>634</ele>
        <time>2016-07-13T08:57:38Z</time>
      </trkpt>
      <trkpt lat="43.32585" lon="5.67507">
        <ele>635</ele>
        <time>2016-07-13T08:59:38Z</time>
      </trkpt>
      <trkpt lat="43.3257" lon="5.67508">
        <ele>638</ele>
        <time>2016-07-13T09:01:38Z</time>
      </trkpt>
      <trkpt lat="43.32557" lon="5.67508">
        <ele>640</ele>
        <time>2016-07-13T09:03:38Z</time>
      </trkpt>
      <trkpt lat="43.32545" lon="5.67506">
        <ele>642</ele>
        <time>2016-07-13T09:05:38Z</time>
      </trkpt>
      <trkpt lat="43.32526" lon="5.67499">
        <ele>644</ele>
        <time>2016-07-13T09:07:38Z</time>
      </trkpt>
      <trkpt lat="43.32514" lon="5.67491">
        <ele>646</ele>
        <time>2016-07-13T09:09:38Z</time>
      </trkpt>
      <trkpt lat="43.32509" lon="5.67485">
        <ele>646</ele>
        <time>2016-07-13T09:11:38Z</time>
      </trkpt>
      <trkpt lat="43.32507" lon="5.67478">
        <ele>646</ele>
        <time>2016-07-13T09:13:38Z</time>
      </trkpt>
      <trkpt lat="43.32506" lon="5.67473">
        <ele>646</ele>
        <time>2016-07-13T09:15:38Z</time>
      </trkpt>
      <trkpt lat="43.32506" lon="5.67467">
        <ele>645</ele>
        <time>2016-07-13T09:17:38Z</time>
      </trkpt>
      <trkpt lat="43.32508" lon="5.67462">
        <ele>644</ele>
        <time>2016-07-13T09:19:38Z</time>
      </trkpt>
      <trkpt lat="43.32511" lon="5.67453">
        <ele>643</ele>
        <time>2016-07-13T09:21:38Z</time>
      </trkpt>
      <trkpt lat="43.32517" lon="5.67438">
        <ele>641</ele>
        <time>2016-07-13T09:23:38Z</time>
      </trkpt>
      <trkpt lat="43.32518" lon="5.67427">
        <ele>640</ele>
        <time>2016-07-13T09:25:38Z</time>
      </trkpt>
      <trkpt lat="43.32518" lon="5.67421">
        <ele>640</ele>
        <time>2016-07-13T09:27:38Z</time>
      </trkpt>
      <trkpt lat="43.32517" lon="5.67415">
        <ele>639</ele>
        <time>2016-07-13T09:29:38Z</time>
      </trkpt>
      <trkpt lat="43.32512" lon="5.67406">
        <ele>638</ele>
        <time>2016-07-13T09:31:38Z</time>
      </trkpt>
      <trkpt lat="43.32508" lon="5.67403">
        <ele>638</ele>
        <time>2016-07-13T09:33:38Z</time>
      </trkpt>
      <trkpt lat="43.32504" lon="5.674">
        <ele>638</ele>
        <time>2016-07-13T09:35:38Z</time>
      </trkpt>
      <trkpt lat="43.325" lon="5.67399">
        <ele>638</ele>
        <time>2016-07-13T09:37:38Z</time>
      </trkpt>
      <trkpt lat="43.32491" lon="5.67397">
        <ele>639</ele>
        <time>2016-07-13T09:39:38Z</time>
      </trkpt>
      <trkpt lat="43.32449" lon="5.67401">
        <ele>646</ele>
        <time>2016-07-13T09:41:38Z</time>
      </trkpt>
      <trkpt lat="43.32431" lon="5.67402">
        <ele>649</ele>
        <time>2016-07-13T09:43:38Z</time>
      </trkpt>
      <trkpt lat="43.32423" lon="5.674">
        <ele>649</ele>
        <time>2016-07-13T09:45:38Z</time>
      </trkpt>
      <trkpt lat="43.32416" lon="5.67396">
        <ele>650</ele>
        <time>2016-07-13T09:47:38Z</time>
      </trkpt>
      <trkpt lat="43.32412" lon="5.67392">
        <ele>650</ele>
        <time>2016-07-13T09:49:38Z</time>
      </trkpt>
      <trkpt lat="43.32409" lon="5.67388">
        <ele>650</ele>
        <time>2016-07-13T09:51:38Z</time>
      </trkpt>
      <trkpt lat="43.32405" lon="5.67378">
        <ele>649</ele>
        <time>2016-07-13T09:53:38Z</time>
      </trkpt>
      <trkpt lat="43.32401" lon="5.67368">
        <ele>648</ele>
        <time>2016-07-13T09:55:38Z</time>
      </trkpt>
      <trkpt lat="43.32397" lon="5.6736">
        <ele>648</ele>
        <time>2016-07-13T09:57:38Z</time>
      </trkpt>
      <trkpt lat="43.32394" lon="5.67357">
        <ele>648</ele>
        <time>2016-07-13T09:59:38Z</time>
      </trkpt>
      <trkpt lat="43.32389" lon="5.67353">
        <ele>649</ele>
        <time>2016-07-13T10:01:38Z</time>
      </trkpt>
      <trkpt lat="43.32382" lon="5.67349">
        <ele>650</ele>
        <time>2016-07-13T10:03:38Z</time>
      </trkpt>
      <trkpt lat="43.32374" lon="5.67347">
        <ele>652</ele>
        <time>2016-07-13T10:05:38Z</time>
      </trkpt>
      <trkpt lat="43.32369" lon="5.67343">
        <ele>653</ele>
        <time>2016-07-13T10:07:38Z</time>
      </trkpt>
      <trkpt lat="43.32365" lon="5.67338">
        <ele>653</ele>
        <time>2016-07-13T10:09:38Z</time>
      </trkpt>
      <trkpt lat="43.32348" lon="5.67307">
        <ele>657</ele>
        <time>2016-07-13T10:11:38Z</time>
      </trkpt>
      <trkpt lat="43.32343" lon="5.67297">
        <ele>659</ele>
        <time>2016-07-13T10:13:38Z</time>
      </trkpt>
      <trkpt lat="43.32339" lon="5.67289">
        <ele>661</ele>
        <time>2016-07-13T10:15:38Z</time>
      </trkpt>
      <trkpt lat="43.32337" lon="5.67283">
        <ele>662</ele>
        <time>2016-07-13T10:17:38Z</time>
      </trkpt>
      <trkpt lat="43.32334" lon="5.67269">
        <ele>663</ele>
        <time>2016-07-13T10:19:38Z</time>
      </trkpt>
      <trkpt lat="43.32334" lon="5.67252">
        <ele>664</ele>
        <time>2016-07-13T10:21:38Z</time>
      </trkpt>
      <trkpt lat="43.32335" lon="5.67247">
        <ele>664</ele>
        <time>2016-07-13T10:23:38Z</time>
      </trkpt>
      <trkpt lat="43.32338" lon="5.67238">
        <ele>664</ele>
        <time>2016-07-13T10:25:38Z</time>
      </trkpt>
      <trkpt lat="43.32344" lon="5.67228">
        <ele>664</ele>
        <time>2016-07-13T10:27:38Z</time>
      </trkpt>
      <trkpt lat="43.32351" lon="5.67217">
        <ele>663</ele>
        <time>2016-07-13T10:29:38Z</time>
      </trkpt>
      <trkpt lat="43.32367" lon="5.67192">
        <ele>661</ele>
        <time>2016-07-13T10:31:38Z</time>
      </trkpt>
      <trkpt lat="43.32372" lon="5.67183">
        <ele>660</ele>
        <time>2016-07-13T10:33:38Z</time>
      </trkpt>
      <trkpt lat="43.32373" lon="5.67178">
        <ele>660</ele>
        <time>2016-07-13T10:35:38Z</time>
      </trkpt>
      <trkpt lat="43.32374" lon="5.67173">
        <ele>661</ele>
        <time>2016-07-13T10:37:38Z</time>
      </trkpt>
      <trkpt lat="43.32374" lon="5.67168">
        <ele>661</ele>
        <time>2016-07-13T10:39:38Z</time>
      </trkpt>
      <trkpt lat="43.32373" lon="5.67162">
        <ele>662</ele>
        <time>2016-07-13T10:41:38Z</time>
      </trkpt>
      <trkpt lat="43.32372" lon="5.67158">
        <ele>663</ele>
        <time>2016-07-13T10:43:38Z</time>
      </trkpt>
      <trkpt lat="43.32367" lon="5.67149">
        <ele>665</ele>
        <time>2016-07-13T10:45:38Z</time>
      </trkpt>
      <trkpt lat="43.32361" lon="5.67141">
        <ele>668</ele>
        <time>2016-07-13T10:47:38Z</time>
      </trkpt>
      <trkpt lat="43.32358" lon="5.67136">
        <ele>670</ele>
        <time>2016-07-13T10:49:38Z</time>
      </trkpt>
      <trkpt lat="43.32357" lon="5.67131">
        <ele>671</ele>
        <time>2016-07-13T10:51:38Z</time>
      </trkpt>
      <trkpt lat="43.32356" lon="5.67125">
        <ele>672</ele>
        <time>2016-07-13T10:53:38Z</time>
      </trkpt>
      <trkpt lat="43.32357" lon="5.67118">
        <ele>672</ele>
        <time>2016-07-13T10:55:38Z</time>
      </trkpt>
      <trkpt lat="43.3236" lon="5.67111">
        <ele>671</ele>
        <time>2016-07-13T10:57:38Z</time>
      </trkpt>
      <trkpt lat="43.32364" lon="5.67105">
        <ele>670</ele>
        <time>2016-07-13T10:59:38Z</time>
      </trkpt>
      <trkpt lat="43.32387" lon="5.67094">
        <ele>661</ele>
        <time>2016-07-13T11:01:38Z</time>
      </trkpt>
      <trkpt lat="43.32391" lon="5.67091">
        <ele>660</ele>
        <time>2016-07-13T11:03:38Z</time>
      </trkpt>
      <trkpt lat="43.32396" lon="5.67082">
        <ele>659</ele>
        <time>2016-07-13T11:05:38Z</time>
      </trkpt>
      <trkpt lat="43.3241" lon="5.67054">
        <ele>656</ele>
        <time>2016-07-13T11:07:38Z</time>
      </trkpt>
      <trkpt lat="43.32415" lon="5.6704">
        <ele>655</ele>
        <time>2016-07-13T11:09:38Z</time>
      </trkpt>
      <trkpt lat="43.32415" lon="5.67025">
        <ele>657</ele>
        <time>2016-07-13T11:11:38Z</time>
      </trkpt>
      <trkpt lat="43.32415" lon="5.67018">
        <ele>658</ele>
        <time>2016-07-13T11:13:38Z</time>
      </trkpt>
      <trkpt lat="43.32413" lon="5.6701">
        <ele>660</ele>
        <time>2016-07-13T11:15:38Z</time>
      </trkpt>
      <trkpt lat="43.32409" lon="5.66994">
        <ele>663</ele>
        <time>2016-07-13T11:17:38Z</time>
      </trkpt>
      <trkpt lat="43.32402" lon="5.66973">
        <ele>666</ele>
        <time>2016-07-13T11:19:38Z</time>
      </trkpt>
      <trkpt lat="43.32394" lon="5.66937">
        <ele>669</ele>
        <time>2016-07-13T11:21:38Z</time>
      </trkpt>
      <trkpt lat="43.3239" lon="5.66926">
        <ele>671</ele>
        <time>2016-07-13T11:23:38Z</time>
      </trkpt>
      <trkpt lat="43.32388" lon="5.66921">
        <ele>672</ele>
        <time>2016-07-13T11:25:38Z</time>
      </trkpt>
      <trkpt lat="43.32385" lon="5.66918">
        <ele>674</ele>
        <time>2016-07-13T11:27:38Z</time>
      </trkpt>
      <trkpt lat="43.3238" lon="5.66911">
        <ele>677</ele>
        <time>2016-07-13T11:29:38Z</time>
      </trkpt>
      <trkpt lat="43.32377" lon="5.66908">
        <ele>679</ele>
        <time>2016-07-13T11:31:38Z</time>
      </trkpt>
      <trkpt lat="43.32371" lon="5.66903">
        <ele>683</ele>
        <time>2016-07-13T11:33:38Z</time>
      </trkpt>
      <trkpt lat="43.32369" lon="5.66899">
        <ele>684</ele>
        <time>2016-07-13T11:35:38Z</time>
      </trkpt>
      <trkpt lat="43.32368" lon="5.66895">
        <ele>685</ele>
        <time>2016-07-13T11:37:38Z</time>
      </trkpt>
      <trkpt lat="43.32368" lon="5.6689">
        <ele>685</ele>
        <time>2016-07-13T11:39:38Z</time>
      </trkpt>
      <trkpt lat="43.32368" lon="5.66887">
        <ele>685</ele>
        <time>2016-07-13T11:41:38Z</time>
      </trkpt>
      <trkpt lat="43.32369" lon="5.66883">
        <ele>684</ele>
        <time>2016-07-13T11:43:38Z</time>
      </trkpt>
      <trkpt lat="43.3237" lon="5.66878">
        <ele>684</ele>
        <time>2016-07-13T11:45:38Z</time>
      </trkpt>
      <trkpt lat="43.32373" lon="5.6687">
        <ele>682</ele>
        <time>2016-07-13T11:47:38Z</time>
      </trkpt>
      <trkpt lat="43.32374" lon="5.66866">
        <ele>682</ele>
        <time>2016-07-13T11:49:38Z</time>
      </trkpt>
      <trkpt lat="43.32375" lon="5.66857">
        <ele>681</ele>
        <time>2016-07-13T11:51:38Z</time>
      </trkpt>
      <trkpt lat="43.32375" lon="5.66848">
        <ele>682</ele>
        <time>2016-07-13T11:53:38Z</time>
      </trkpt>
      <trkpt lat="43.32375" lon="5.66833">
        <ele>682</ele>
        <time>2016-07-13T11:55:38Z</time>
      </trkpt>
      <trkpt lat="43.32376" lon="5.66825">
        <ele>683</ele>
        <time>2016-07-13T11:57:38Z</time>
      </trkpt>
      <trkpt lat="43.32377" lon="5.6682">
        <ele>683</ele>
        <time>2016-07-13T11:59:38Z</time>
      </trkpt>
      <trkpt lat="43.32379" lon="5.66816">
        <ele>683</ele>
        <time>2016-07-13T12:01:38Z</time>
      </trkpt>
      <trkpt lat="43.32384" lon="5.6681">
        <ele>682</ele>
        <time>2016-07-13T12:03:38Z</time>
      </trkpt>
      <trkpt lat="43.32392" lon="5.66805">
        <ele>679</ele>
        <time>2016-07-13T12:05:38Z</time>
      </trkpt>
      <trkpt lat="43.32404" lon="5.66799">
        <ele>676</ele>
        <time>2016-07-13T12:07:38Z</time>
      </trkpt>
      <trkpt lat="43.32412" lon="5.66796">
        <ele>673</ele>
        <time>2016-07-13T12:09:38Z</time>
      </trkpt>
      <trkpt lat="43.32417" lon="5.66794">
        <ele>672</ele>
        <time>2016-07-13T12:11:38Z</time>
      </trkpt>
      <trkpt lat="43.32421" lon="5.66792">
        <ele>671</ele>
        <time>2016-07-13T12:13:38Z</time>
      </trkpt>
      <trkpt lat="43.32424" lon="5.6679">
        <ele>670</ele>
        <time>2016-07-13T12:15:38Z</time>
      </trkpt>
      <trkpt lat="43.32432" lon="5.66781">
        <ele>669</ele>
        <time>2016-07-13T12:17:38Z</time>
      </trkpt>
      <trkpt lat="43.32435" lon="5.66775">
        <ele>669</ele>
        <time>2016-07-13T12:19:38Z</time>
      </trkpt>
      <trkpt lat="43.32441" lon="5.66758">
        <ele>671</ele>
        <time>2016-07-13T12:21:38Z</time>
      </trkpt>
      <trkpt lat="43.32447" lon="5.66739">
        <ele>669</ele>
        <time>2016-07-13T12:23:38Z</time>
      </trkpt>
      <trkpt lat="43.3245" lon="5.66728">
        <ele>667</ele>
        <time>2016-07-13T12:25:38Z</time>
      </trkpt>
      <trkpt lat="43.32452" lon="5.66716">
        <ele>666</ele>
        <time>2016-07-13T12:27:38Z</time>
      </trkpt>
      <trkpt lat="43.32452" lon="5.66707">
        <ele>665</ele>
        <time>2016-07-13T12:29:38Z</time>
      </trkpt>
      <trkpt lat="43.3245" lon="5.6669">
        <ele>666</ele>
        <time>2016-07-13T12:31:38Z</time>
      </trkpt>
      <trkpt lat="43.32447" lon="5.66681">
        <ele>667</ele>
        <time>2016-07-13T12:33:38Z</time>
      </trkpt>
      <trkpt lat="43.32443" lon="5.66672">
        <ele>668</ele>
        <time>2016-07-13T12:35:38Z</time>
      </trkpt>
      <trkpt lat="43.32437" lon="5.66665">
        <ele>670</ele>
        <time>2016-07-13T12:37:38Z</time>
      </trkpt>
      <trkpt lat="43.32433" lon="5.66661">
        <ele>671</ele>
        <time>2016-07-13T12:39:38Z</time>
      </trkpt>
      <trkpt lat="43.32424" lon="5.66654">
        <ele>672</ele>
        <time>2016-07-13T12:41:38Z</time>
      </trkpt>
      <trkpt lat="43.32409" lon="5.66646">
        <ele>674</ele>
        <time>2016-07-13T12:43:38Z</time>
      </trkpt>
      <trkpt lat="43.32398" lon="5.66641">
        <ele>674</ele>
        <time>2016-07-13T12:45:38Z</time>
      </trkpt>
      <trkpt lat="43.32386" lon="5.66638">
        <ele>675</ele>
        <time>2016-07-13T12:47:38Z</time>
      </trkpt>
      <trkpt lat="43.32381" lon="5.66637">
        <ele>676</ele>
        <time>2016-07-13T12:49:38Z</time>
      </trkpt>
      <trkpt lat="43.32368" lon="5.66637">
        <ele>677</ele>
        <time>2016-07-13T12:51:38Z</time>
      </trkpt>
      <trkpt lat="43.32357" lon="5.66637">
        <ele>679</ele>
        <time>2016-07-13T12:53:38Z</time>
      </trkpt>
      <trkpt lat="43.32345" lon="5.66635">
        <ele>680</ele>
        <time>2016-07-13T12:55:38Z</time>
      </trkpt>
      <trkpt lat="43.32335" lon="5.66632">
        <ele>681</ele>
        <time>2016-07-13T12:57:38Z</time>
      </trkpt>
      <trkpt lat="43.32326" lon="5.66627">
        <ele>680</ele>
        <time>2016-07-13T12:59:38Z</time>
      </trkpt>
      <trkpt lat="43.32318" lon="5.66622">
        <ele>678</ele>
        <time>2016-07-13T13:01:38Z</time>
      </trkpt>
      <trkpt lat="43.32314" lon="5.6662">
        <ele>678</ele>
        <time>2016-07-13T13:03:38Z</time>
      </trkpt>
      <trkpt lat="43.32311" lon="5.6662">
        <ele>678</ele>
        <time>2016-07-13T13:05:38Z</time>
      </trkpt>
      <trkpt lat="43.32308" lon="5.66619">
        <ele>677</ele>
        <time>2016-07-13T13:07:38Z</time>
      </trkpt>
      <trkpt lat="43.32305" lon="5.6662">
        <ele>678</ele>
        <time>2016-07-13T13:09:38Z</time>
      </trkpt>
      <trkpt lat="43.32302" lon="5.66622">
        <ele>678</ele>
        <time>2016-07-13T13:11:38Z</time>
      </trkpt>
      <trkpt lat="43.323" lon="5.66624">
        <ele>679</ele>
        <time>2016-07-13T13:13:38Z</time>
      </trkpt>
      <trkpt lat="43.32295" lon="5.66631">
        <ele>681</ele>
        <time>2016-07-13T13:15:38Z</time>
      </trkpt>
      <trkpt lat="43.32287" lon="5.66647">
        <ele>685</ele>
        <time>2016-07-13T13:17:38Z</time>
      </trkpt>
      <trkpt lat="43.32279" lon="5.66659">
        <ele>688</ele>
        <time>2016-07-13T13:19:38Z</time>
      </trkpt>
      <trkpt lat="43.32273" lon="5.66662">
        <ele>689</ele>
        <time>2016-07-13T13:21:38Z</time>
      </trkpt>
      <trkpt lat="43.32265" lon="5.66665">
        <ele>689</ele>
        <time>2016-07-13T13:23:38Z</time>
      </trkpt>
      <trkpt lat="43.32256" lon="5.66666">
        <ele>689</ele>
        <time>2016-07-13T13:25:38Z</time>
      </trkpt>
      <trkpt lat="43.32251" lon="5.66665">
        <ele>689</ele>
        <time>2016-07-13T13:27:38Z</time>
      </trkpt>
      <trkpt lat="43.32246" lon="5.66663">
        <ele>689</ele>
        <time>2016-07-13T13:29:38Z</time>
      </trkpt>
      <trkpt lat="43.32238" lon="5.66657">
        <ele>688</ele>
        <time>2016-07-13T13:31:38Z</time>
      </trkpt>
      <trkpt lat="43.32235" lon="5.66653">
        <ele>688</ele>
        <time>2016-07-13T13:33:38Z</time>
      </trkpt>
      <trkpt lat="43.32225" lon="5.66642">
        <ele>686</ele>
        <time>2016-07-13T13:35:38Z</time>
      </trkpt>
      <trkpt lat="43.32219" lon="5.66636">
        <ele>685</ele>
        <time>2016-07-13T13:37:38Z</time>
      </trkpt>
      <trkpt lat="43.3221" lon="5.66633">
        <ele>685</ele>
        <time>2016-07-13T13:39:38Z</time>
      </trkpt>
      <trkpt lat="43.32204" lon="5.66632">
        <ele>686</ele>
        <time>2016-07-13T13:41:38Z</time>
      </trkpt>
      <trkpt lat="43.32191" lon="5.66634">
        <ele>688</ele>
        <time>2016-07-13T13:43:38Z</time>
      </trkpt>
      <trkpt lat="43.32155" lon="5.6664">
        <ele>695</ele>
        <time>2016-07-13T13:45:38Z</time>
      </trkpt>
      <trkpt lat="43.32144" lon="5.66643">
        <ele>697</ele>
        <time>2016-07-13T13:47:38Z</time>
      </trkpt>
      <trkpt lat="43.32133" lon="5.66647">
        <ele>701</ele>
        <time>2016-07-13T13:49:38Z</time>
      </trkpt>
      <trkpt lat="43.32128" lon="5.66648">
        <ele>702</ele>
        <time>2016-07-13T13:51:38Z</time>
      </trkpt>
      <trkpt lat="43.32123" lon="5.66648">
        <ele>702</ele>
        <time>2016-07-13T13:53:38Z</time>
      </trkpt>
      <trkpt lat="43.32119" lon="5.66646">
        <ele>702</ele>
        <time>2016-07-13T13:55:38Z</time>
      </trkpt>
      <trkpt lat="43.32117" lon="5.66643">
        <ele>702</ele>
        <time>2016-07-13T13:57:38Z</time>
      </trkpt>
      <trkpt lat="43.32113" lon="5.6664">
        <ele>701</ele>
        <time>2016-07-13T13:59:38Z</time>
      </trkpt>
      <trkpt lat="43.32101" lon="5.66627">
        <ele>699</ele>
        <time>2016-07-13T14:01:38Z</time>
      </trkpt>
      <trkpt lat="43.32092" lon="5.6662">
        <ele>698</ele>
        <time>2016-07-13T14:03:38Z</time>
      </trkpt>
      <trkpt lat="43.32086" lon="5.66617">
        <ele>698</ele>
        <time>2016-07-13T14:05:38Z</time>
      </trkpt>
      <trkpt lat="43.32075" lon="5.66614">
        <ele>700</ele>
        <time>2016-07-13T14:07:38Z</time>
      </trkpt>
      <trkpt lat="43.3206" lon="5.66614">
        <ele>706</ele>
        <time>2016-07-13T14:09:38Z</time>
      </trkpt>
      <trkpt lat="43.32057" lon="5.66614">
        <ele>707</ele>
        <time>2016-07-13T14:11:38Z</time>
      </trkpt>
      <trkpt lat="43.32055" lon="5.66613">
        <ele>707</ele>
        <time>2016-07-13T14:13:38Z</time>
      </trkpt>
      <trkpt lat="43.32051" lon="5.6661">
        <ele>708</ele>
        <time>2016-07-13T14:15:38Z</time>
      </trkpt>
      <trkpt lat="43.32049" lon="5.66607">
        <ele>708</ele>
        <time>2016-07-13T14:17:38Z</time>
      </trkpt>
      <trkpt lat="43.32047" lon="5.666">
        <ele>706</ele>
        <time>2016-07-13T14:19:38Z</time>
      </trkpt>
      <trkpt lat="43.32046" lon="5.66594">
        <ele>705</ele>
        <time>2016-07-13T14:21:38Z</time>
      </trkpt>
      <trkpt lat="43.32045" lon="5.66583">
        <ele>703</ele>
        <time>2016-07-13T14:23:38Z</time>
      </trkpt>
      <trkpt lat="43.32042" lon="5.66567">
        <ele>701</ele>
        <time>2016-07-13T14:25:38Z</time>
      </trkpt>
      <trkpt lat="43.32039" lon="5.66558">
        <ele>700</ele>
        <time>2016-07-13T14:27:38Z</time>
      </trkpt>
      <trkpt lat="43.32036" lon="5.66551">
        <ele>700</ele>
        <time>2016-07-13T14:29:38Z</time>
      </trkpt>
      <trkpt lat="43.32029" lon="5.6654">
        <ele>700</ele>
        <time>2016-07-13T14:31:38Z</time>
      </trkpt>
      <trkpt lat="43.32001" lon="5.66495">
        <ele>701</ele>
        <time>2016-07-13T14:33:38Z</time>
      </trkpt>
      <trkpt lat="43.31985" lon="5.66472">
        <ele>703</ele>
        <time>2016-07-13T14:35:38Z</time>
      </trkpt>
      <trkpt lat="43.31976" lon="5.66458">
        <ele>704</ele>
        <time>2016-07-13T14:37:38Z</time>
      </trkpt>
      <trkpt lat="43.31965" lon="5.66443">
        <ele>706</ele>
        <time>2016-07-13T14:39:38Z</time>
      </trkpt>
      <trkpt lat="43.31954" lon="5.6643">
        <ele>708</ele>
        <time>2016-07-13T14:41:38Z</time>
      </trkpt>
      <trkpt lat="43.31944" lon="5.6642">
        <ele>710</ele>
        <time>2016-07-13T14:43:38Z</time>
      </trkpt>
      <trkpt lat="43.31942" lon="5.66416">
        <ele>710</ele>
        <time>2016-07-13T14:45:38Z</time>
      </trkpt>
      <trkpt lat="43.3194" lon="5.66412">
        <ele>710</ele>
        <time>2016-07-13T14:47:38Z</time>
      </trkpt>
      <trkpt lat="43.31938" lon="5.66408">
        <ele>710</ele>
        <time>2016-07-13T14:49:38Z</time>
      </trkpt>
      <trkpt lat="43.31936" lon="5.66403">
        <ele>709</ele>
        <time>2016-07-13T14:51:38Z</time>
      </trkpt>
      <trkpt lat="43.31935" lon="5.66399">
        <ele>709</ele>
        <time>2016-07-13T14:53:38Z</time>
      </trkpt>
      <trkpt lat="43.31935" lon="5.66394">
        <ele>708</ele>
        <time>2016-07-13T14:55:38Z</time>
      </trkpt>
      <trkpt lat="43.31933" lon="5.66386">
        <ele>706</ele>
        <time>2016-07-13T14:57:38Z</time>
      </trkpt>
      <trkpt lat="43.31932" lon="5.66381">
        <ele>706</ele>
        <time>2016-07-13T14:59:38Z</time>
      </trkpt>
      <trkpt lat="43.3193" lon="5.66378">
        <ele>706</ele>
        <time>2016-07-13T15:01:38Z</time>
      </trkpt>
      <trkpt lat="43.31928" lon="5.66374">
        <ele>706</ele>
        <time>2016-07-13T15:03:38Z</time>
      </trkpt>
      <trkpt lat="43.31926" lon="5.66372">
        <ele>706</ele>
        <time>2016-07-13T15:05:38Z</time>
      </trkpt>
      <trkpt lat="43.31922" lon="5.6637">
        <ele>707</ele>
        <time>2016-07-13T15:07:38Z</time>
      </trkpt>
      <trkpt lat="43.31919" lon="5.66369">
        <ele>708</ele>
        <time>2016-07-13T15:09:38Z</time>
      </trkpt>
      <trkpt lat="43.3191" lon="5.66366">
        <ele>712</ele>
        <time>2016-07-13T15:11:38Z</time>
      </trkpt>
      <trkpt lat="43.31906" lon="5.66363">
        <ele>713</ele>
        <time>2016-07-13T15:13:38Z</time>
      </trkpt>
      <trkpt lat="43.31903" lon="5.66359">
        <ele>713</ele>
        <time>2016-07-13T15:15:38Z</time>
      </trkpt>
      <trkpt lat="43.31901" lon="5.66354">
        <ele>713</ele>
        <time>2016-07-13T15:17:38Z</time>
      </trkpt>
      <trkpt lat="43.31899" lon="5.66349">
        <ele>713</ele>
        <time>2016-07-13T15:19:38Z</time>
      </trkpt>
      <trkpt lat="43.31898" lon="5.66338">
        <ele>710</ele>
        <time>2016-07-13T15:21:38Z</time>
      </trkpt>
      <trkpt lat="43.31896" lon="5.66307">
        <ele>705</ele>
        <time>2016-07-13T15:23:38Z</time>
      </trkpt>
      <trkpt lat="43.31895" lon="5.66299">
        <ele>704</ele>
        <time>2016-07-13T15:25:38Z</time>
      </trkpt>
      <trkpt lat="43.31891" lon="5.66287">
        <ele>704</ele>
        <time>2016-07-13T15:27:38Z</time>
      </trkpt>
      <trkpt lat="43.31886" lon="5.66274">
        <ele>703</ele>
        <time>2016-07-13T15:29:38Z</time>
      </trkpt>
      <trkpt lat="43.31884" lon="5.66269">
        <ele>703</ele>
        <time>2016-07-13T15:31:38Z</time>
      </trkpt>
      <trkpt lat="43.3188" lon="5.66262">
        <ele>703</ele>
        <time>2016-07-13T15:33:38Z</time>
      </trkpt>
      <trkpt lat="43.31873" lon="5.66255">
        <ele>704</ele>
        <time>2016-07-13T15:35:38Z</time>
      </trkpt>
      <trkpt lat="43.31869" lon="5.66253">
        <ele>705</ele>
        <time>2016-07-13T15:37:38Z</time>
      </trkpt>
      <trkpt lat="43.31864" lon="5.6625">
        <ele>705</ele>
        <time>2016-07-13T15:39:38Z</time>
      </trkpt>
      <trkpt lat="43.31858" lon="5.6625">
        <ele>707</ele>
        <time>2016-07-13T15:41:38Z</time>
      </trkpt>
      <trkpt lat="43.31851" lon="5.66251">
        <ele>710</ele>
        <time>2016-07-13T15:43:38Z</time>
      </trkpt>
      <trkpt lat="43.3184" lon="5.66254">
        <ele>714</ele>
        <time>2016-07-13T15:45:38Z</time>
      </trkpt>
      <trkpt lat="43.31833" lon="5.66254">
        <ele>716</ele>
        <time>2016-07-13T15:47:38Z</time>
      </trkpt>
      <trkpt lat="43.31829" lon="5.66254">
        <ele>718</ele>
        <time>2016-07-13T15:49:38Z</time>
      </trkpt>
      <trkpt lat="43.31826" lon="5.66254">
        <ele>719</ele>
        <time>2016-07-13T15:51:38Z</time>
      </trkpt>
      <trkpt lat="43.31822" lon="5.66252">
        <ele>721</ele>
        <time>2016-07-13T15:53:38Z</time>
      </trkpt>
      <trkpt lat="43.31819" lon="5.6625">
        <ele>721</ele>
        <time>2016-07-13T15:55:38Z</time>
      </trkpt>
      <trkpt lat="43.31814" lon="5.66244">
        <ele>723</ele>
        <time>2016-07-13T15:57:38Z</time>
      </trkpt>
      <trkpt lat="43.31812" lon="5.66237">
        <ele>723</ele>
        <time>2016-07-13T15:59:38Z</time>
      </trkpt>
      <trkpt lat="43.31807" lon="5.66226">
        <ele>724</ele>
        <time>2016-07-13T16:01:38Z</time>
      </trkpt>
      <trkpt lat="43.31805" lon="5.66219">
        <ele>724</ele>
        <time>2016-07-13T16:03:38Z</time>
      </trkpt>
      <trkpt lat="43.31803" lon="5.66212">
        <ele>724</ele>
        <time>2016-07-13T16:05:38Z</time>
      </trkpt>
      <trkpt lat="43.31802" lon="5.66205">
        <ele>724</ele>
        <time>2016-07-13T16:07:38Z</time>
      </trkpt>
      <trkpt lat="43.31801" lon="5.66197">
        <ele>724</ele>
        <time>2016-07-13T16:09:38Z</time>
      </trkpt>
      <trkpt lat="43.318" lon="5.66189">
        <ele>724</ele>
        <time>2016-07-13T16:11:38Z</time>
      </trkpt>
      <trkpt lat="43.318" lon="5.66167">
        <ele>721</ele>
        <time>2016-07-13T16:13:38Z</time>
      </trkpt>
      <trkpt lat="43.31802" lon="5.66152">
        <ele>722</ele>
        <time>2016-07-13T16:15:38Z</time>
      </trkpt>
      <trkpt lat="43.31819" lon="5.66078">
        <ele>720</ele>
        <time>2016-07-13T16:17:38Z</time>
      </trkpt>
      <trkpt lat="43.31825" lon="5.66051">
        <ele>720</ele>
        <time>2016-07-13T16:19:38Z</time>
      </trkpt>
      <trkpt lat="43.31826" lon="5.66042">
        <ele>721</ele>
        <time>2016-07-13T16:21:38Z</time>
      </trkpt>
      <trkpt lat="43.31826" lon="5.66035">
        <ele>722</ele>
        <time>2016-07-13T16:23:38Z</time>
      </trkpt>
      <trkpt lat="43.31825" lon="5.66027">
        <ele>723</ele>
        <time>2016-07-13T16:25:38Z</time>
      </trkpt>
      <trkpt lat="43.31823" lon="5.66018">
        <ele>725</ele>
        <time>2016-07-13T16:27:38Z</time>
      </trkpt>
      <trkpt lat="43.3182" lon="5.6601">
        <ele>727</ele>
        <time>2016-07-13T16:29:38Z</time>
      </trkpt>
      <trkpt lat="43.31818" lon="5.66003">
        <ele>728</ele>
        <time>2016-07-13T16:31:38Z</time>
      </trkpt>
      <trkpt lat="43.31818" lon="5.65999">
        <ele>729</ele>
        <time>2016-07-13T16:33:38Z</time>
      </trkpt>
      <trkpt lat="43.31818" lon="5.65992">
        <ele>729</ele>
        <time>2016-07-13T16:35:38Z</time>
      </trkpt>
      <trkpt lat="43.31823" lon="5.65976">
        <ele>728</ele>
        <time>2016-07-13T16:37:38Z</time>
      </trkpt>
      <trkpt lat="43.31829" lon="5.65957">
        <ele>727</ele>
        <time>2016-07-13T16:39:38Z</time>
      </trkpt>
      <trkpt lat="43.31837" lon="5.65938">
        <ele>727</ele>
        <time>2016-07-13T16:41:38Z</time>
      </trkpt>
      <trkpt lat="43.31846" lon="5.65921">
        <ele>727</ele>
        <time>2016-07-13T16:43:38Z</time>
      </trkpt>
      <trkpt lat="43.31854" lon="5.65908">
        <ele>725</ele>
        <time>2016-07-13T16:45:38Z</time>
      </trkpt>
      <trkpt lat="43.31857" lon="5.65901">
        <ele>724</ele>
        <time>2016-07-13T16:47:38Z</time>
      </trkpt>
      <trkpt lat="43.31858" lon="5.65895">
        <ele>724</ele>
        <time>2016-07-13T16:49:38Z</time>
      </trkpt>
      <trkpt lat="43.31858" lon="5.65889">
        <ele>723</ele>
        <time>2016-07-13T16:51:38Z</time>
      </trkpt>
      <trkpt lat="43.31856" lon="5.65883">
        <ele>723</ele>
        <time>2016-07-13T16:53:38Z</time>
      </trkpt>
      <trkpt lat="43.31853" lon="5.65878">
        <ele>722</ele>
        <time>2016-07-13T16:55:38Z</time>
      </trkpt>
      <trkpt lat="43.31848" lon="5.65874">
        <ele>722</ele>
        <time>2016-07-13T16:57:38Z</time>
      </trkpt>
      <trkpt lat="43.31845" lon="5.65873">
        <ele>722</ele>
        <time>2016-07-13T16:59:38Z</time>
      </trkpt>
      <trkpt lat="43.31813" lon="5.65869">
        <ele>722</ele>
        <time>2016-07-13T17:01:38Z</time>
      </trkpt>
      <trkpt lat="43.31778" lon="5.65864">
        <ele>724</ele>
        <time>2016-07-13T17:03:38Z</time>
      </trkpt>
      <trkpt lat="43.31769" lon="5.65862">
        <ele>724</ele>
        <time>2016-07-13T17:05:38Z</time>
      </trkpt>
      <trkpt lat="43.31742" lon="5.6586">
        <ele>724</ele>
        <time>2016-07-13T17:07:38Z</time>
      </trkpt>
      <trkpt lat="43.31699" lon="5.65863">
        <ele>723</ele>
        <time>2016-07-13T17:09:38Z</time>
      </trkpt>
      <trkpt lat="43.31682" lon="5.65868">
        <ele>724</ele>
        <time>2016-07-13T17:11:38Z</time>
      </trkpt>
      <trkpt lat="43.31666" lon="5.65874">
        <ele>725</ele>
        <time>2016-07-13T17:13:38Z</time>
      </trkpt>
      <trkpt lat="43.31659" lon="5.65877">
        <ele>724</ele>
        <time>2016-07-13T17:15:38Z</time>
      </trkpt>
      <trkpt lat="43.31648" lon="5.65886">
        <ele>723</ele>
        <time>2016-07-13T17:17:38Z</time>
      </trkpt>
      <trkpt lat="43.3164" lon="5.65897">
        <ele>723</ele>
        <time>2016-07-13T17:19:38Z</time>
      </trkpt>
      <trkpt lat="43.31636" lon="5.65905">
        <ele>724</ele>
        <time>2016-07-13T17:21:38Z</time>
      </trkpt>
      <trkpt lat="43.31634" lon="5.65909">
        <ele>724</ele>
        <time>2016-07-13T17:23:38Z</time>
      </trkpt>
      <trkpt lat="43.31633" lon="5.65914">
        <ele>725</ele>
        <time>2016-07-13T17:25:38Z</time>
      </trkpt>
      <trkpt lat="43.31629" lon="5.65928">
        <ele>725</ele>
        <time>2016-07-13T17:27:38Z</time>
      </trkpt>
      <trkpt lat="43.31628" lon="5.65942">
        <ele>726</ele>
        <time>2016-07-13T17:29:38Z</time>
      </trkpt>
      <trkpt lat="43.31628" lon="5.65958">
        <ele>728</ele>
        <time>2016-07-13T17:31:38Z</time>
      </trkpt>
      <trkpt lat="43.31627" lon="5.65974">
        <ele>729</ele>
        <time>2016-07-13T17:33:38Z</time>
      </trkpt>
      <trkpt lat="43.31625" lon="5.6599">
        <ele>730</ele>
        <time>2016-07-13T17:35:38Z</time>
      </trkpt>
      <trkpt lat="43.31619" lon="5.66021">
        <ele>731</ele>
        <time>2016-07-13T17:37:38Z</time>
      </trkpt>
      <trkpt lat="43.31605" lon="5.66083">
        <ele>732</ele>
        <time>2016-07-13T17:39:38Z</time>
      </trkpt>
      <trkpt lat="43.31602" lon="5.66103">
        <ele>731</ele>
        <time>2016-07-13T17:41:38Z</time>
      </trkpt>
      <trkpt lat="43.316" lon="5.66116">
        <ele>730</ele>
        <time>2016-07-13T17:43:38Z</time>
      </trkpt>
      <trkpt lat="43.316" lon="5.66127">
        <ele>730</ele>
        <time>2016-07-13T17:45:38Z</time>
      </trkpt>
      <trkpt lat="43.316" lon="5.66152">
        <ele>731</ele>
        <time>2016-07-13T17:47:38Z</time>
      </trkpt>
      <trkpt lat="43.316" lon="5.66166">
        <ele>731</ele>
        <time>2016-07-13T17:49:38Z</time>
      </trkpt>
      <trkpt lat="43.31602" lon="5.66181">
        <ele>730</ele>
        <time>2016-07-13T17:51:38Z</time>
      </trkpt>
      <trkpt lat="43.31603" lon="5.66185">
        <ele>729</ele>
        <time>2016-07-13T17:53:38Z</time>
      </trkpt>
      <trkpt lat="43.31606" lon="5.66193">
        <ele>729</ele>
        <time>2016-07-13T17:55:38Z</time>
      </trkpt>
      <trkpt lat="43.31609" lon="5.66199">
        <ele>730</ele>
        <time>2016-07-13T17:57:38Z</time>
      </trkpt>
      <trkpt lat="43.31614" lon="5.66205">
        <ele>730</ele>
        <time>2016-07-13T17:59:38Z</time>
      </trkpt>
      <trkpt lat="43.31619" lon="5.66213">
        <ele>731</ele>
        <time>2016-07-13T18:01:38Z</time>
      </trkpt>
      <trkpt lat="43.31623" lon="5.66219">
        <ele>732</ele>
        <time>2016-07-13T18:03:38Z</time>
      </trkpt>
      <trkpt lat="43.31628" lon="5.66233">
        <ele>732</ele>
        <time>2016-07-13T18:05:38Z</time>
      </trkpt>
      <trkpt lat="43.31635" lon="5.66257">
        <ele>733</ele>
        <time>2016-07-13T18:07:38Z</time>
      </trkpt>
      <trkpt lat="43.31638" lon="5.66278">
        <ele>732</ele>
        <time>2016-07-13T18:09:38Z</time>
      </trkpt>
      <trkpt lat="43.31639" lon="5.66288">
        <ele>731</ele>
        <time>2016-07-13T18:11:38Z</time>
      </trkpt>
      <trkpt lat="43.3164" lon="5.6631">
        <ele>730</ele>
        <time>2016-07-13T18:13:38Z</time>
      </trkpt>
      <trkpt lat="43.31641" lon="5.66329">
        <ele>729</ele>
        <time>2016-07-13T18:15:38Z</time>
      </trkpt>
      <trkpt lat="43.31644" lon="5.66352">
        <ele>729</ele>
        <time>2016-07-13T18:17:38Z</time>
      </trkpt>
      <trkpt lat="43.31649" lon="5.66379">
        <ele>731</ele>
        <time>2016-07-13T18:19:38Z</time>
      </trkpt>
      <trkpt lat="43.31652" lon="5.66393">
        <ele>732</ele>
        <time>2016-07-13T18:21:38Z</time>
      </trkpt>
      <trkpt lat="43.31656" lon="5.66405">
        <ele>734</ele>
        <time>2016-07-13T18:23:38Z</time>
      </trkpt>
      <trkpt lat="43.31663" lon="5.66423">
        <ele>737</ele>
        <time>2016-07-13T18:25:38Z</time>
      </trkpt>
      <trkpt lat="43.31665" lon="5.66431">
        <ele>739</ele>
        <time>2016-07-13T18:27:38Z</time>
      </trkpt>
      <trkpt lat="43.31665" lon="5.66436">
        <ele>740</ele>
        <time>2016-07-13T18:29:38Z</time>
      </trkpt>
      <trkpt lat="43.31666" lon="5.66441">
        <ele>741</ele>
        <time>2016-07-13T18:31:38Z</time>
      </trkpt>
      <trkpt lat="43.31665" lon="5.66446">
        <ele>741</ele>
        <time>2016-07-13T18:33:38Z</time>
      </trkpt>
      <trkpt lat="43.3166" lon="5.66461">
        <ele>742</ele>
        <time>2016-07-13T18:35:38Z</time>
      </trkpt>
      <trkpt lat="43.31655" lon="5.66477">
        <ele>742</ele>
        <time>2016-07-13T18:37:38Z</time>
      </trkpt>
      <trkpt lat="43.3165" lon="5.66488">
        <ele>742</ele>
        <time>2016-07-13T18:39:38Z</time>
      </trkpt>
      <trkpt lat="43.31644" lon="5.66501">
        <ele>741</ele>
        <time>2016-07-13T18:41:38Z</time>
      </trkpt>
      <trkpt lat="43.31639" lon="5.66512">
        <ele>742</ele>
        <time>2016-07-13T18:43:38Z</time>
      </trkpt>
      <trkpt lat="43.31634" lon="5.6652">
        <ele>742</ele>
        <time>2016-07-13T18:45:38Z</time>
      </trkpt>
      <trkpt lat="43.31629" lon="5.66526">
        <ele>741</ele>
        <time>2016-07-13T18:47:38Z</time>
      </trkpt>
      <trkpt lat="43.31624" lon="5.66529">
        <ele>739</ele>
        <time>2016-07-13T18:49:38Z</time>
      </trkpt>
      <trkpt lat="43.31618" lon="5.66533">
        <ele>738</ele>
        <time>2016-07-13T18:51:38Z</time>
      </trkpt>
      <trkpt lat="43.31607" lon="5.66537">
        <ele>734</ele>
        <time>2016-07-13T18:53:38Z</time>
      </trkpt>
      <trkpt lat="43.31599" lon="5.66541">
        <ele>731</ele>
        <time>2016-07-13T18:55:38Z</time>
      </trkpt>
      <trkpt lat="43.31594" lon="5.66545">
        <ele>730</ele>
        <time>2016-07-13T18:57:38Z</time>
      </trkpt>
      <trkpt lat="43.31589" lon="5.66551">
        <ele>729</ele>
        <time>2016-07-13T18:59:38Z</time>
      </trkpt>
      <trkpt lat="43.31585" lon="5.66556">
        <ele>728</ele>
        <time>2016-07-13T19:01:38Z</time>
      </trkpt>
      <trkpt lat="43.31583" lon="5.6656">
        <ele>728</ele>
        <time>2016-07-13T19:03:38Z</time>
      </trkpt>
      <trkpt lat="43.3158" lon="5.66568">
        <ele>728</ele>
        <time>2016-07-13T19:05:38Z</time>
      </trkpt>
      <trkpt lat="43.31576" lon="5.66585">
        <ele>729</ele>
        <time>2016-07-13T19:07:38Z</time>
      </trkpt>
      <trkpt lat="43.31574" lon="5.66599">
        <ele>728</ele>
        <time>2016-07-13T19:09:38Z</time>
      </trkpt>
      <trkpt lat="43.31574" lon="5.66613">
        <ele>728</ele>
        <time>2016-07-13T19:11:38Z</time>
      </trkpt>
      <trkpt lat="43.31574" lon="5.66633">
        <ele>728</ele>
        <time>2016-07-13T19:13:38Z</time>
      </trkpt>
      <trkpt lat="43.31576" lon="5.66656">
        <ele>729</ele>
        <time>2016-07-13T19:15:38Z</time>
      </trkpt>
      <trkpt lat="43.31581" lon="5.6667">
        <ele>730</ele>
        <time>2016-07-13T19:17:38Z</time>
      </trkpt>
      <trkpt lat="43.31583" lon="5.6668">
        <ele>730</ele>
        <time>2016-07-13T19:19:38Z</time>
      </trkpt>
      <trkpt lat="43.31585" lon="5.66689">
        <ele>729</ele>
        <time>2016-07-13T19:21:38Z</time>
      </trkpt>
      <trkpt lat="43.31591" lon="5.66718">
        <ele>728</ele>
        <time>2016-07-13T19:23:38Z</time>
      </trkpt>
      <trkpt lat="43.31593" lon="5.66729">
        <ele>728</ele>
        <time>2016-07-13T19:25:38Z</time>
      </trkpt>
      <trkpt lat="43.316" lon="5.6675">
        <ele>728</ele>
        <time>2016-07-13T19:27:38Z</time>
      </trkpt>
      <trkpt lat="43.3161" lon="5.6678">
        <ele>732</ele>
        <time>2016-07-13T19:29:38Z</time>
      </trkpt>
      <trkpt lat="43.31618" lon="5.66811">
        <ele>734</ele>
        <time>2016-07-13T19:31:38Z</time>
      </trkpt>
      <trkpt lat="43.31621" lon="5.66825">
        <ele>734</ele>
        <time>2016-07-13T19:33:38Z</time>
      </trkpt>
      <trkpt lat="43.31621" lon="5.66836">
        <ele>734</ele>
        <time>2016-07-13T19:35:38Z</time>
      </trkpt>
      <trkpt lat="43.31619" lon="5.66849">
        <ele>733</ele>
        <time>2016-07-13T19:37:38Z</time>
      </trkpt>
      <trkpt lat="43.31616" lon="5.66855">
        <ele>732</ele>
        <time>2016-07-13T19:39:38Z</time>
      </trkpt>
      <trkpt lat="43.31611" lon="5.66862">
        <ele>730</ele>
        <time>2016-07-13T19:41:38Z</time>
      </trkpt>
      <trkpt lat="43.31605" lon="5.66868">
        <ele>728</ele>
        <time>2016-07-13T19:43:38Z</time>
      </trkpt>
      <trkpt lat="43.31595" lon="5.66876">
        <ele>723</ele>
        <time>2016-07-13T19:45:38Z</time>
      </trkpt>
      <trkpt lat="43.31577" lon="5.66891">
        <ele>716</ele>
        <time>2016-07-13T19:47:38Z</time>
      </trkpt>
      <trkpt lat="43.31567" lon="5.66901">
        <ele>712</ele>
        <time>2016-07-13T19:49:38Z</time>
      </trkpt>
      <trkpt lat="43.3156" lon="5.66909">
        <ele>709</ele>
        <time>2016-07-13T19:51:38Z</time>
      </trkpt>
      <trkpt lat="43.31558" lon="5.66917">
        <ele>709</ele>
        <time>2016-07-13T19:53:38Z</time>
      </trkpt>
      <trkpt lat="43.31557" lon="5.66923">
        <ele>708</ele>
        <time>2016-07-13T19:55:38Z</time>
      </trkpt>
      <trkpt lat="43.31557" lon="5.66929">
        <ele>709</ele>
        <time>2016-07-13T19:57:38Z</time>
      </trkpt>
      <trkpt lat="43.31558" lon="5.66938">
        <ele>709</ele>
        <time>2016-07-13T19:59:38Z</time>
      </trkpt>
      <trkpt lat="43.31568" lon="5.66972">
        <ele>714</ele>
        <time>2016-07-13T20:01:38Z</time>
      </trkpt>
      <trkpt lat="43.31571" lon="5.66987">
        <ele>715</ele>
        <time>2016-07-13T20:03:38Z</time>
      </trkpt>
      <trkpt lat="43.31573" lon="5.67002">
        <ele>717</ele>
        <time>2016-07-13T20:05:38Z</time>
      </trkpt>
      <trkpt lat="43.31574" lon="5.67017">
        <ele>719</ele>
        <time>2016-07-13T20:07:38Z</time>
      </trkpt>
      <trkpt lat="43.31573" lon="5.67024">
        <ele>720</ele>
        <time>2016-07-13T20:09:38Z</time>
      </trkpt>
      <trkpt lat="43.31571" lon="5.67038">
        <ele>721</ele>
        <time>2016-07-13T20:11:38Z</time>
      </trkpt>
      <trkpt lat="43.31567" lon="5.67052">
        <ele>722</ele>
        <time>2016-07-13T20:13:38Z</time>
      </trkpt>
      <trkpt lat="43.31561" lon="5.6706">
        <ele>721</ele>
        <time>2016-07-13T20:15:38Z</time>
      </trkpt>
      <trkpt lat="43.31555" lon="5.67064">
        <ele>720</ele>
        <time>2016-07-13T20:17:38Z</time>
      </trkpt>
      <trkpt lat="43.31549" lon="5.67066">
        <ele>719</ele>
        <time>2016-07-13T20:19:38Z</time>
      </trkpt>
      <trkpt lat="43.31475" lon="5.6708">
        <ele>703</ele>
        <time>2016-07-13T20:21:38Z</time>
      </trkpt>
      <trkpt lat="43.31462" lon="5.67084">
        <ele>701</ele>
        <time>2016-07-13T20:23:38Z</time>
      </trkpt>
      <trkpt lat="43.31447" lon="5.67093">
        <ele>699</ele>
        <time>2016-07-13T20:25:38Z</time>
      </trkpt>
      <trkpt lat="43.31441" lon="5.67098">
        <ele>699</ele>
        <time>2016-07-13T20:27:38Z</time>
      </trkpt>
      <trkpt lat="43.31427" lon="5.6711">
        <ele>698</ele>
        <time>2016-07-13T20:29:38Z</time>
      </trkpt>
      <trkpt lat="43.31418" lon="5.67119">
        <ele>698</ele>
        <time>2016-07-13T20:31:38Z</time>
      </trkpt>
      <trkpt lat="43.31386" lon="5.67154">
        <ele>697</ele>
        <time>2016-07-13T20:33:38Z</time>
      </trkpt>
      <trkpt lat="43.31367" lon="5.67176">
        <ele>694</ele>
        <time>2016-07-13T20:35:38Z</time>
      </trkpt>
      <trkpt lat="43.31361" lon="5.67184">
        <ele>693</ele>
        <time>2016-07-13T20:37:38Z</time>
      </trkpt>
      <trkpt lat="43.31357" lon="5.67194">
        <ele>692</ele>
        <time>2016-07-13T20:39:38Z</time>
      </trkpt>
      <trkpt lat="43.31354" lon="5.67202">
        <ele>691</ele>
        <time>2016-07-13T20:41:38Z</time>
      </trkpt>
      <trkpt lat="43.31348" lon="5.67226">
        <ele>690</ele>
        <time>2016-07-13T20:43:38Z</time>
      </trkpt>
      <trkpt lat="43.31347" lon="5.67239">
        <ele>690</ele>
        <time>2016-07-13T20:45:38Z</time>
      </trkpt>
      <trkpt lat="43.31347" lon="5.6725">
        <ele>691</ele>
        <time>2016-07-13T20:47:38Z</time>
      </trkpt>
      <trkpt lat="43.31348" lon="5.6727">
        <ele>689</ele>
        <time>2016-07-13T20:49:38Z</time>
      </trkpt>
      <trkpt lat="43.3135" lon="5.67281">
        <ele>688</ele>
        <time>2016-07-13T20:51:38Z</time>
      </trkpt>
      <trkpt lat="43.31353" lon="5.67293">
        <ele>687</ele>
        <time>2016-07-13T20:53:38Z</time>
      </trkpt>
      <trkpt lat="43.31359" lon="5.67313">
        <ele>687</ele>
        <time>2016-07-13T20:55:38Z</time>
      </trkpt>
      <trkpt lat="43.3136" lon="5.67316">
        <ele>687</ele>
        <time>2016-07-13T20:57:38Z</time>
      </trkpt>
      <trkpt lat="43.31371" lon="5.67345">
        <ele>686</ele>
        <time>2016-07-13T20:59:38Z</time>
      </trkpt>
      <trkpt lat="43.3139" lon="5.67384">
        <ele>685</ele>
        <time>2016-07-13T21:01:38Z</time>
      </trkpt>
      <trkpt lat="43.31407" lon="5.67423">
        <ele>682</ele>
        <time>2016-07-13T21:03:38Z</time>
      </trkpt>
      <trkpt lat="43.31408" lon="5.67429">
        <ele>682</ele>
        <time>2016-07-13T21:05:38Z</time>
      </trkpt>
      <trkpt lat="43.31408" lon="5.67435">
        <ele>682</ele>
        <time>2016-07-13T21:07:38Z</time>
      </trkpt>
      <trkpt lat="43.31407" lon="5.6744">
        <ele>681</ele>
        <time>2016-07-13T21:09:38Z</time>
      </trkpt>
      <trkpt lat="43.31404" lon="5.67444">
        <ele>681</ele>
        <time>2016-07-13T21:11:38Z</time>
      </trkpt>
      <trkpt lat="43.31401" lon="5.67447">
        <ele>680</ele>
        <time>2016-07-13T21:13:38Z</time>
      </trkpt>
      <trkpt lat="43.31398" lon="5.67447">
        <ele>680</ele>
        <time>2016-07-13T21:15:38Z</time>
      </trkpt>
      <trkpt lat="43.31396" lon="5.67447">
        <ele>679</ele>
        <time>2016-07-13T21:17:38Z</time>
      </trkpt>
      <trkpt lat="43.31392" lon="5.67445">
        <ele>679</ele>
        <time>2016-07-13T21:19:38Z</time>
      </trkpt>
      <trkpt lat="43.31389" lon="5.67442">
        <ele>679</ele>
        <time>2016-07-13T21:21:38Z</time>
      </trkpt>
      <trkpt lat="43.31386" lon="5.67438">
        <ele>679</ele>
        <time>2016-07-13T21:23:38Z</time>
      </trkpt>
      <trkpt lat="43.31365" lon="5.67379">
        <ele>681</ele>
        <time>2016-07-13T21:25:38Z</time>
      </trkpt>
      <trkpt lat="43.31357" lon="5.67358">
        <ele>681</ele>
        <time>2016-07-13T21:27:38Z</time>
      </trkpt>
      <trkpt lat="43.31346" lon="5.67336">
        <ele>680</ele>
        <time>2016-07-13T21:29:38Z</time>
      </trkpt>
      <trkpt lat="43.31326" lon="5.67301">
        <ele>679</ele>
        <time>2016-07-13T21:31:38Z</time>
      </trkpt>
      <trkpt lat="43.31318" lon="5.67288">
        <ele>678</ele>
        <time>2016-07-13T21:33:38Z</time>
      </trkpt>
      <trkpt lat="43.31306" lon="5.67269">
        <ele>677</ele>
        <time>2016-07-13T21:35:38Z</time>
      </trkpt>
      <trkpt lat="43.3129" lon="5.67239">
        <ele>675</ele>
        <time>2016-07-13T21:37:38Z</time>
      </trkpt>
      <trkpt lat="43.31279" lon="5.67221">
        <ele>671</ele>
        <time>2016-07-13T21:39:38Z</time>
      </trkpt>
      <trkpt lat="43.3127" lon="5.67202">
        <ele>668</ele>
        <time>2016-07-13T21:41:38Z</time>
      </trkpt>
      <trkpt lat="43.31267" lon="5.67193">
        <ele>667</ele>
        <time>2016-07-13T21:43:38Z</time>
      </trkpt>
      <trkpt lat="43.31265" lon="5.67185">
        <ele>666</ele>
        <time>2016-07-13T21:45:38Z</time>
      </trkpt>
      <trkpt lat="43.31265" lon="5.67177">
        <ele>666</ele>
        <time>2016-07-13T21:47:38Z</time>
      </trkpt>
      <trkpt lat="43.31266" lon="5.67169">
        <ele>666</ele>
        <time>2016-07-13T21:49:38Z</time>
      </trkpt>
      <trkpt lat="43.31268" lon="5.67161">
        <ele>665</ele>
        <time>2016-07-13T21:51:38Z</time>
      </trkpt>
      <trkpt lat="43.3127" lon="5.67155">
        <ele>665</ele>
        <time>2016-07-13T21:53:38Z</time>
      </trkpt>
      <trkpt lat="43.31274" lon="5.6714">
        <ele>664</ele>
        <time>2016-07-13T21:55:38Z</time>
      </trkpt>
      <trkpt lat="43.31278" lon="5.67128">
        <ele>663</ele>
        <time>2016-07-13T21:57:38Z</time>
      </trkpt>
      <trkpt lat="43.31294" lon="5.67082">
        <ele>661</ele>
        <time>2016-07-13T21:59:38Z</time>
      </trkpt>
      <trkpt lat="43.31299" lon="5.67071">
        <ele>660</ele>
        <time>2016-07-13T22:01:38Z</time>
      </trkpt>
      <trkpt lat="43.3131" lon="5.67052">
        <ele>659</ele>
        <time>2016-07-13T22:03:38Z</time>
      </trkpt>
      <trkpt lat="43.3133" lon="5.67022">
        <ele>657</ele>
        <time>2016-07-13T22:05:38Z</time>
      </trkpt>
      <trkpt lat="43.31337" lon="5.67011">
        <ele>655</ele>
        <time>2016-07-13T22:07:38Z</time>
      </trkpt>
      <trkpt lat="43.31343" lon="5.67006">
        <ele>654</ele>
        <time>2016-07-13T22:09:38Z</time>
      </trkpt>
      <trkpt lat="43.3135" lon="5.67004">
        <ele>655</ele>
        <time>2016-07-13T22:11:38Z</time>
      </trkpt>
      <trkpt lat="43.31357" lon="5.67005">
        <ele>656</ele>
        <time>2016-07-13T22:13:38Z</time>
      </trkpt>
      <trkpt lat="43.31377" lon="5.67007">
        <ele>658</ele>
        <time>2016-07-13T22:15:38Z</time>
      </trkpt>
      <trkpt lat="43.31404" lon="5.66999">
        <ele>659</ele>
        <time>2016-07-13T22:17:38Z</time>
      </trkpt>
      <trkpt lat="43.31426" lon="5.66992">
        <ele>661</ele>
        <time>2016-07-13T22:19:38Z</time>
      </trkpt>
      <trkpt lat="43.31436" lon="5.66986">
        <ele>664</ele>
        <time>2016-07-13T22:21:38Z</time>
      </trkpt>
      <trkpt lat="43.31442" lon="5.66981">
        <ele>665</ele>
        <time>2016-07-13T22:23:38Z</time>
      </trkpt>
      <trkpt lat="43.31445" lon="5.66976">
        <ele>665</ele>
        <time>2016-07-13T22:25:38Z</time>
      </trkpt>
      <trkpt lat="43.31448" lon="5.66968">
        <ele>665</ele>
        <time>2016-07-13T22:27:38Z</time>
      </trkpt>
      <trkpt lat="43.31449" lon="5.66961">
        <ele>665</ele>
        <time>2016-07-13T22:29:38Z</time>
      </trkpt>
      <trkpt lat="43.31448" lon="5.66952">
        <ele>663</ele>
        <time>2016-07-13T22:31:38Z</time>
      </trkpt>
      <trkpt lat="43.31439" lon="5.66909">
        <ele>654</ele>
        <time>2016-07-13T22:33:38Z</time>
      </trkpt>
      <trkpt lat="43.31435" lon="5.66895">
        <ele>651</ele>
        <time>2016-07-13T22:35:38Z</time>
      </trkpt>
      <trkpt lat="43.3143" lon="5.66878">
        <ele>647</ele>
        <time>2016-07-13T22:37:38Z</time>
      </trkpt>
      <trkpt lat="43.31427" lon="5.66868">
        <ele>645</ele>
        <time>2016-07-13T22:39:38Z</time>
      </trkpt>
      <trkpt lat="43.31426" lon="5.66861">
        <ele>644</ele>
        <time>2016-07-13T22:41:38Z</time>
      </trkpt>
      <trkpt lat="43.31426" lon="5.66853">
        <ele>644</ele>
        <time>2016-07-13T22:43:38Z</time>
      </trkpt>
      <trkpt lat="43.31429" lon="5.66839">
        <ele>644</ele>
        <time>2016-07-13T22:45:38Z</time>
      </trkpt>
      <trkpt lat="43.31432" lon="5.66832">
        <ele>645</ele>
        <time>2016-07-13T22:47:38Z</time>
      </trkpt>
      <trkpt lat="43.31445" lon="5.66813">
        <ele>651</ele>
        <time>2016-07-13T22:49:38Z</time>
      </trkpt>
      <trkpt lat="43.31447" lon="5.66806">
        <ele>652</ele>
        <time>2016-07-13T22:51:38Z</time>
      </trkpt>
      <trkpt lat="43.31449" lon="5.66795">
        <ele>653</ele>
        <time>2016-07-13T22:53:38Z</time>
      </trkpt>
      <trkpt lat="43.31449" lon="5.66789">
        <ele>653</ele>
        <time>2016-07-13T22:55:38Z</time>
      </trkpt>
      <trkpt lat="43.31448" lon="5.66783">
        <ele>652</ele>
        <time>2016-07-13T22:57:38Z</time>
      </trkpt>
      <trkpt lat="43.31447" lon="5.66773">
        <ele>652</ele>
        <time>2016-07-13T22:59:38Z</time>
      </trkpt>
      <trkpt lat="43.31441" lon="5.66762">
        <ele>650</ele>
        <time>2016-07-13T23:01:38Z</time>
      </trkpt>
      <trkpt lat="43.31434" lon="5.66751">
        <ele>646</ele>
        <time>2016-07-13T23:03:38Z</time>
      </trkpt>
      <trkpt lat="43.31417" lon="5.66734">
        <ele>642</ele>
        <time>2016-07-13T23:05:38Z</time>
      </trkpt>
      <trkpt lat="43.31409" lon="5.66726">
        <ele>641</ele>
        <time>2016-07-13T23:07:38Z</time>
      </trkpt>
      <trkpt lat="43.31402" lon="5.6672">
        <ele>640</ele>
        <time>2016-07-13T23:09:38Z</time>
      </trkpt>
      <trkpt lat="43.31391" lon="5.66713">
        <ele>638</ele>
        <time>2016-07-13T23:11:38Z</time>
      </trkpt>
      <trkpt lat="43.31372" lon="5.66703">
        <ele>634</ele>
        <time>2016-07-13T23:13:38Z</time>
      </trkpt>
      <trkpt lat="43.31336" lon="5.66688">
        <ele>625</ele>
        <time>2016-07-13T23:15:38Z</time>
      </trkpt>
      <trkpt lat="43.31326" lon="5.6668">
        <ele>623</ele>
        <time>2016-07-13T23:17:38Z</time>
      </trkpt>
      <trkpt lat="43.31322" lon="5.66673">
        <ele>623</ele>
        <time>2016-07-13T23:19:38Z</time>
      </trkpt>
      <trkpt lat="43.31321" lon="5.66666">
        <ele>624</ele>
        <time>2016-07-13T23:21:38Z</time>
      </trkpt>
      <trkpt lat="43.3132" lon="5.66658">
        <ele>625</ele>
        <time>2016-07-13T23:23:38Z</time>
      </trkpt>
      <trkpt lat="43.31319" lon="5.66648">
        <ele>625</ele>
        <time>2016-07-13T23:25:38Z</time>
      </trkpt>
      <trkpt lat="43.31319" lon="5.66633">
        <ele>626</ele>
        <time>2016-07-13T23:27:38Z</time>
      </trkpt>
      <trkpt lat="43.3132" lon="5.6662">
        <ele>627</ele>
        <time>2016-07-13T23:29:38Z</time>
      </trkpt>
      <trkpt lat="43.3132" lon="5.6661">
        <ele>628</ele>
        <time>2016-07-13T23:31:38Z</time>
      </trkpt>
      <trkpt lat="43.31318" lon="5.66602">
        <ele>628</ele>
        <time>2016-07-13T23:33:38Z</time>
      </trkpt>
      <trkpt lat="43.31315" lon="5.66598">
        <ele>628</ele>
        <time>2016-07-13T23:35:38Z</time>
      </trkpt>
      <trkpt lat="43.31312" lon="5.66593">
        <ele>627</ele>
        <time>2016-07-13T23:37:38Z</time>
      </trkpt>
      <trkpt lat="43.31304" lon="5.66588">
        <ele>625</ele>
        <time>2016-07-13T23:39:38Z</time>
      </trkpt>
      <trkpt lat="43.31286" lon="5.66577">
        <ele>620</ele>
        <time>2016-07-13T23:41:38Z</time>
      </trkpt>
      <trkpt lat="43.31282" lon="5.66571">
        <ele>619</ele>
        <time>2016-07-13T23:43:38Z</time>
      </trkpt>
      <trkpt lat="43.31281" lon="5.66566">
        <ele>619</ele>
        <time>2016-07-13T23:45:38Z</time>
      </trkpt>
      <trkpt lat="43.3128" lon="5.66561">
        <ele>619</ele>
        <time>2016-07-13T23:47:38Z</time>
      </trkpt>
      <trkpt lat="43.31282" lon="5.6655">
        <ele>619</ele>
        <time>2016-07-13T23:49:38Z</time>
      </trkpt>
      <trkpt lat="43.31284" lon="5.66544">
        <ele>620</ele>
        <time>2016-07-13T23:51:38Z</time>
      </trkpt>
      <trkpt lat="43.31287" lon="5.66536">
        <ele>621</ele>
        <time>2016-07-13T23:53:38Z</time>
      </trkpt>
      <trkpt lat="43.3129" lon="5.66524">
        <ele>622</ele>
        <time>2016-07-13T23:55:38Z</time>
      </trkpt>
      <trkpt lat="43.31294" lon="5.66513">
        <ele>623</ele>
        <time>2016-07-13T23:57:38Z</time>
      </trkpt>
      <trkpt lat="43.31295" lon="5.66503">
        <ele>623</ele>
        <time>2016-07-13T23:59:38Z</time>
      </trkpt>
      <trkpt lat="43.31293" lon="5.66494">
        <ele>623</ele>
        <time>2016-07-14T00:01:38Z</time>
      </trkpt>
      <trkpt lat="43.31289" lon="5.66477">
        <ele>621</ele>
        <time>2016-07-14T00:03:38Z</time>
      </trkpt>
      <trkpt lat="43.31282" lon="5.66459">
        <ele>618</ele>
        <time>2016-07-14T00:05:38Z</time>
      </trkpt>
      <trkpt lat="43.3128" lon="5.66456">
        <ele>618</ele>
        <time>2016-07-14T00:07:38Z</time>
      </trkpt>
      <trkpt lat="43.31277" lon="5.66454">
        <ele>617</ele>
        <time>2016-07-14T00:09:38Z</time>
      </trkpt>
      <trkpt lat="43.31274" lon="5.66453">
        <ele>616</ele>
        <time>2016-07-14T00:11:38Z</time>
      </trkpt>
      <trkpt lat="43.31271" lon="5.66453">
        <ele>615</ele>
        <time>2016-07-14T00:13:38Z</time>
      </trkpt>
      <trkpt lat="43.31269" lon="5.66454">
        <ele>614</ele>
        <time>2016-07-14T00:15:38Z</time>
      </trkpt>
      <trkpt lat="43.31266" lon="5.66456">
        <ele>614</ele>
        <time>2016-07-14T00:17:38Z</time>
      </trkpt>
      <trkpt lat="43.31264" lon="5.66459">
        <ele>613</ele>
        <time>2016-07-14T00:19:38Z</time>
      </trkpt>
      <trkpt lat="43.31261" lon="5.66463">
        <ele>612</ele>
        <time>2016-07-14T00:21:38Z</time>
      </trkpt>
      <trkpt lat="43.31262" lon="5.66472">
        <ele>613</ele>
        <time>2016-07-14T00:23:38Z</time>
      </trkpt>
      <trkpt lat="43.31264" lon="5.66478">
        <ele>614</ele>
        <time>2016-07-14T00:25:38Z</time>
      </trkpt>
      <trkpt lat="43.31268" lon="5.66484">
        <ele>615</ele>
        <time>2016-07-14T00:27:38Z</time>
      </trkpt>
      <trkpt lat="43.31275" lon="5.66493">
        <ele>617</ele>
        <time>2016-07-14T00:29:38Z</time>
      </trkpt>
      <trkpt lat="43.31279" lon="5.66501">
        <ele>619</ele>
        <time>2016-07-14T00:31:38Z</time>
      </trkpt>
      <trkpt lat="43.31281" lon="5.66507">
        <ele>619</ele>
        <time>2016-07-14T00:33:38Z</time>
      </trkpt>
      <trkpt lat="43.31281" lon="5.66515">
        <ele>619</ele>
        <time>2016-07-14T00:35:38Z</time>
      </trkpt>
      <trkpt lat="43.31281" lon="5.66518">
        <ele>619</ele>
        <time>2016-07-14T00:37:38Z</time>
      </trkpt>
      <trkpt lat="43.3128" lon="5.66524">
        <ele>619</ele>
        <time>2016-07-14T00:39:38Z</time>
      </trkpt>
      <trkpt lat="43.31276" lon="5.66535">
        <ele>618</ele>
        <time>2016-07-14T00:41:38Z</time>
      </trkpt>
      <trkpt lat="43.31266" lon="5.66558">
        <ele>615</ele>
        <time>2016-07-14T00:43:38Z</time>
      </trkpt>
      <trkpt lat="43.31262" lon="5.66567">
        <ele>613</ele>
        <time>2016-07-14T00:45:38Z</time>
      </trkpt>
      <trkpt lat="43.31261" lon="5.66575">
        <ele>613</ele>
        <time>2016-07-14T00:47:38Z</time>
      </trkpt>
      <trkpt lat="43.31262" lon="5.66581">
        <ele>613</ele>
        <time>2016-07-14T00:49:38Z</time>
      </trkpt>
      <trkpt lat="43.31264" lon="5.66587">
        <ele>614</ele>
        <time>2016-07-14T00:51:38Z</time>
      </trkpt>
      <trkpt lat="43.31267" lon="5.66593">
        <ele>614</ele>
        <time>2016-07-14T00:53:38Z</time>
      </trkpt>
      <trkpt lat="43.31271" lon="5.66597">
        <ele>614</ele>
        <time>2016-07-14T00:55:38Z</time>
      </trkpt>
      <trkpt lat="43.31277" lon="5.66601">
        <ele>616</ele>
        <time>2016-07-14T00:57:38Z</time>
      </trkpt>
      <trkpt lat="43.31284" lon="5.66608">
        <ele>617</ele>
        <time>2016-07-14T00:59:38Z</time>
      </trkpt>
      <trkpt lat="43.31288" lon="5.66614">
        <ele>618</ele>
        <time>2016-07-14T01:01:38Z</time>
      </trkpt>
      <trkpt lat="43.3129" lon="5.66622">
        <ele>618</ele>
        <time>2016-07-14T01:03:38Z</time>
      </trkpt>
      <trkpt lat="43.3129" lon="5.66629">
        <ele>617</ele>
        <time>2016-07-14T01:05:38Z</time>
      </trkpt>
      <trkpt lat="43.31283" lon="5.66663">
        <ele>611</ele>
        <time>2016-07-14T01:07:38Z</time>
      </trkpt>
      <trkpt lat="43.3128" lon="5.66678">
        <ele>607</ele>
        <time>2016-07-14T01:09:38Z</time>
      </trkpt>
      <trkpt lat="43.3128" lon="5.66688">
        <ele>605</ele>
        <time>2016-07-14T01:11:38Z</time>
      </trkpt>
      <trkpt lat="43.31281" lon="5.66694">
        <ele>605</ele>
        <time>2016-07-14T01:13:38Z</time>
      </trkpt>
      <trkpt lat="43.31282" lon="5.66698">
        <ele>604</ele>
        <time>2016-07-14T01:15:38Z</time>
      </trkpt>
      <trkpt lat="43.31284" lon="5.66703">
        <ele>604</ele>
        <time>2016-07-14T01:17:38Z</time>
      </trkpt>
      <trkpt lat="43.31291" lon="5.66714">
        <ele>604</ele>
        <time>2016-07-14T01:19:38Z</time>
      </trkpt>
      <trkpt lat="43.31307" lon="5.66731">
        <ele>606</ele>
        <time>2016-07-14T01:21:38Z</time>
      </trkpt>
      <trkpt lat="43.31325" lon="5.6675">
        <ele>607</ele>
        <time>2016-07-14T01:23:38Z</time>
      </trkpt>
      <trkpt lat="43.31332" lon="5.66759">
        <ele>609</ele>
        <time>2016-07-14T01:25:38Z</time>
      </trkpt>
      <trkpt lat="43.31337" lon="5.66766">
        <ele>610</ele>
        <time>2016-07-14T01:27:38Z</time>
      </trkpt>
      <trkpt lat="43.31338" lon="5.66772">
        <ele>611</ele>
        <time>2016-07-14T01:29:38Z</time>
      </trkpt>
      <trkpt lat="43.31339" lon="5.66777">
        <ele>611</ele>
        <time>2016-07-14T01:31:38Z</time>
      </trkpt>
      <trkpt lat="43.31339" lon="5.66783">
        <ele>611</ele>
        <time>2016-07-14T01:33:38Z</time>
      </trkpt>
      <trkpt lat="43.31338" lon="5.66787">
        <ele>611</ele>
        <time>2016-07-14T01:35:38Z</time>
      </trkpt>
      <trkpt lat="43.31335" lon="5.66796">
        <ele>610</ele>
        <time>2016-07-14T01:37:38Z</time>
      </trkpt>
      <trkpt lat="43.3132" lon="5.6682">
        <ele>607</ele>
        <time>2016-07-14T01:39:38Z</time>
      </trkpt>
      <trkpt lat="43.31314" lon="5.66826">
        <ele>606</ele>
        <time>2016-07-14T01:41:38Z</time>
      </trkpt>
      <trkpt lat="43.31311" lon="5.66827">
        <ele>605</ele>
        <time>2016-07-14T01:43:38Z</time>
      </trkpt>
      <trkpt lat="43.31307" lon="5.66828">
        <ele>605</ele>
        <time>2016-07-14T01:45:38Z</time>
      </trkpt>
      <trkpt lat="43.31303" lon="5.66827">
        <ele>604</ele>
        <time>2016-07-14T01:47:38Z</time>
      </trkpt>
      <trkpt lat="43.313" lon="5.66824">
        <ele>603</ele>
        <time>2016-07-14T01:49:38Z</time>
      </trkpt>
      <trkpt lat="43.31299" lon="5.66819">
        <ele>603</ele>
        <time>2016-07-14T01:51:38Z</time>
      </trkpt>
      <trkpt lat="43.31299" lon="5.66812">
        <ele>603</ele>
        <time>2016-07-14T01:53:38Z</time>
      </trkpt>
      <trkpt lat="43.31301" lon="5.66805">
        <ele>603</ele>
        <time>2016-07-14T01:55:38Z</time>
      </trkpt>
      <trkpt lat="43.31306" lon="5.66797">
        <ele>603</ele>
        <time>2016-07-14T01:57:38Z</time>
      </trkpt>
      <trkpt lat="43.31309" lon="5.66792">
        <ele>604</ele>
        <time>2016-07-14T01:59:38Z</time>
      </trkpt>
      <trkpt lat="43.31312" lon="5.66788">
        <ele>604</ele>
        <time>2016-07-14T02:01:38Z</time>
      </trkpt>
      <trkpt lat="43.31313" lon="5.66783">
        <ele>604</ele>
        <time>2016-07-14T02:03:38Z</time>
      </trkpt>
      <trkpt lat="43.31314" lon="5.66777">
        <ele>604</ele>
        <time>2016-07-14T02:05:38Z</time>
      </trkpt>
      <trkpt lat="43.31313" lon="5.6677">
        <ele>604</ele>
        <time>2016-07-14T02:07:38Z</time>
      </trkpt>
      <trkpt lat="43.31311" lon="5.66764">
        <ele>603</ele>
        <time>2016-07-14T02:09:38Z</time>
      </trkpt>
      <trkpt lat="43.31309" lon="5.66759">
        <ele>603</ele>
        <time>2016-07-14T02:11:38Z</time>
      </trkpt>
      <trkpt lat="43.31301" lon="5.66749">
        <ele>600</ele>
        <time>2016-07-14T02:13:38Z</time>
      </trkpt>
      <trkpt lat="43.31292" lon="5.66742">
        <ele>599</ele>
        <time>2016-07-14T02:15:38Z</time>
      </trkpt>
      <trkpt lat="43.31279" lon="5.66731">
        <ele>597</ele>
        <time>2016-07-14T02:17:38Z</time>
      </trkpt>
      <trkpt lat="43.31262" lon="5.66719">
        <ele>594</ele>
        <time>2016-07-14T02:19:38Z</time>
      </trkpt>
      <trkpt lat="43.31251" lon="5.6671">
        <ele>592</ele>
        <time>2016-07-14T02:21:38Z</time>
      </trkpt>
      <trkpt lat="43.31246" lon="5.66704">
        <ele>591</ele>
        <time>2016-07-14T02:23:38Z</time>
      </trkpt>
      <trkpt lat="43.31243" lon="5.66699">
        <ele>591</ele>
        <time>2016-07-14T02:25:38Z</time>
      </trkpt>
      <trkpt lat="43.31241" lon="5.66694">
        <ele>591</ele>
        <time>2016-07-14T02:27:38Z</time>
      </trkpt>
      <trkpt lat="43.31241" lon="5.66688">
        <ele>592</ele>
        <time>2016-07-14T02:29:38Z</time>
      </trkpt>
      <trkpt lat="43.3124" lon="5.6668">
        <ele>593</ele>
        <time>2016-07-14T02:31:38Z</time>
      </trkpt>
      <trkpt lat="43.31239" lon="5.66671">
        <ele>594</ele>
        <time>2016-07-14T02:33:38Z</time>
      </trkpt>
      <trkpt lat="43.31236" lon="5.66665">
        <ele>594</ele>
        <time>2016-07-14T02:35:38Z</time>
      </trkpt>
      <trkpt lat="43.31232" lon="5.66662">
        <ele>593</ele>
        <time>2016-07-14T02:37:38Z</time>
      </trkpt>
      <trkpt lat="43.31228" lon="5.66658">
        <ele>592</ele>
        <time>2016-07-14T02:39:38Z</time>
      </trkpt>
      <trkpt lat="43.31202" lon="5.66654">
        <ele>585</ele>
        <time>2016-07-14T02:41:38Z</time>
      </trkpt>
      <trkpt lat="43.31192" lon="5.66652">
        <ele>582</ele>
        <time>2016-07-14T02:43:38Z</time>
      </trkpt>
      <trkpt lat="43.31187" lon="5.66651">
        <ele>580</ele>
        <time>2016-07-14T02:45:38Z</time>
      </trkpt>
      <trkpt lat="43.31181" lon="5.66647">
        <ele>579</ele>
        <time>2016-07-14T02:47:38Z</time>
      </trkpt>
      <trkpt lat="43.31177" lon="5.66641">
        <ele>579</ele>
        <time>2016-07-14T02:49:38Z</time>
      </trkpt>
      <trkpt lat="43.31174" lon="5.66635">
        <ele>579</ele>
        <time>2016-07-14T02:51:38Z</time>
      </trkpt>
      <trkpt lat="43.31172" lon="5.66631">
        <ele>579</ele>
        <time>2016-07-14T02:53:38Z</time>
      </trkpt>
      <trkpt lat="43.31171" lon="5.66625">
        <ele>580</ele>
        <time>2016-07-14T02:55:38Z</time>
      </trkpt>
      <trkpt lat="43.31171" lon="5.66615">
        <ele>582</ele>
        <time>2016-07-14T02:57:38Z</time>
      </trkpt>
      <trkpt lat="43.31172" lon="5.66604">
        <ele>584</ele>
        <time>2016-07-14T02:59:38Z</time>
      </trkpt>
      <trkpt lat="43.31176" lon="5.6657">
        <ele>589</ele>
        <time>2016-07-14T03:01:38Z</time>
      </trkpt>
      <trkpt lat="43.31177" lon="5.66564">
        <ele>590</ele>
        <time>2016-07-14T03:03:38Z</time>
      </trkpt>
      <trkpt lat="43.31176" lon="5.66559">
        <ele>589</ele>
        <time>2016-07-14T03:05:38Z</time>
      </trkpt>
      <trkpt lat="43.31174" lon="5.66553">
        <ele>589</ele>
        <time>2016-07-14T03:07:38Z</time>
      </trkpt>
      <trkpt lat="43.31172" lon="5.66548">
        <ele>589</ele>
        <time>2016-07-14T03:09:38Z</time>
      </trkpt>
      <trkpt lat="43.31168" lon="5.66543">
        <ele>588</ele>
        <time>2016-07-14T03:11:38Z</time>
      </trkpt>
      <trkpt lat="43.31151" lon="5.6653">
        <ele>584</ele>
        <time>2016-07-14T03:13:38Z</time>
      </trkpt>
      <trkpt lat="43.31122" lon="5.66516">
        <ele>579</ele>
        <time>2016-07-14T03:15:38Z</time>
      </trkpt>
      <trkpt lat="43.31071" lon="5.66492">
        <ele>574</ele>
        <time>2016-07-14T03:17:38Z</time>
      </trkpt>
      <trkpt lat="43.31006" lon="5.66461">
        <ele>574</ele>
        <time>2016-07-14T03:19:38Z</time>
      </trkpt>
      <trkpt lat="43.30952" lon="5.66436">
        <ele>572</ele>
        <time>2016-07-14T03:21:38Z</time>
      </trkpt>
      <trkpt lat="43.30933" lon="5.66432">
        <ele>570</ele>
        <time>2016-07-14T03:23:38Z</time>
      </trkpt>
      <trkpt lat="43.30913" lon="5.66431">
        <ele>567</ele>
        <time>2016-07-14T03:25:38Z</time>
      </trkpt>
      <trkpt lat="43.309" lon="5.66434">
        <ele>566</ele>
        <time>2016-07-14T03:27:38Z</time>
      </trkpt>
      <trkpt lat="43.30888" lon="5.66439">
        <ele>564</ele>
        <time>2016-07-14T03:29:38Z</time>
      </trkpt>
      <trkpt lat="43.30878" lon="5.66446">
        <ele>562</ele>
        <time>2016-07-14T03:31:38Z</time>
      </trkpt>
      <trkpt lat="43.30861" lon="5.66457">
        <ele>558</ele>
        <time>2016-07-14T03:33:38Z</time>
      </trkpt>
      <trkpt lat="43.30848" lon="5.66463">
        <ele>556</ele>
        <time>2016-07-14T03:35:38Z</time>
      </trkpt>
      <trkpt lat="43.30837" lon="5.66464">
        <ele>555</ele>
        <time>2016-07-14T03:37:38Z</time>
      </trkpt>
      <trkpt lat="43.30828" lon="5.66462">
        <ele>554</ele>
        <time>2016-07-14T03:39:38Z</time>
      </trkpt>
      <trkpt lat="43.30815" lon="5.66454">
        <ele>554</ele>
        <time>2016-07-14T03:41:38Z</time>
      </trkpt>
      <trkpt lat="43.30806" lon="5.66446">
        <ele>554</ele>
        <time>2016-07-14T03:43:38Z</time>
      </trkpt>
      <trkpt lat="43.30792" lon="5.66424">
        <ele>558</ele>
        <time>2016-07-14T03:45:38Z</time>
      </trkpt>
      <trkpt lat="43.30787" lon="5.66418">
        <ele>558</ele>
        <time>2016-07-14T03:47:38Z</time>
      </trkpt>
      <trkpt lat="43.3078" lon="5.66409">
        <ele>561</ele>
        <time>2016-07-14T03:49:38Z</time>
      </trkpt>
      <trkpt lat="43.30776" lon="5.66408">
        <ele>561</ele>
        <time>2016-07-14T03:51:38Z</time>
      </trkpt>
      <trkpt lat="43.30772" lon="5.66407">
        <ele>560</ele>
        <time>2016-07-14T03:53:38Z</time>
      </trkpt>
      <trkpt lat="43.30768" lon="5.66408">
        <ele>559</ele>
        <time>2016-07-14T03:55:38Z</time>
      </trkpt>
      <trkpt lat="43.30764" lon="5.66411">
        <ele>557</ele>
        <time>2016-07-14T03:57:38Z</time>
      </trkpt>
      <trkpt lat="43.30761" lon="5.66415">
        <ele>554</ele>
        <time>2016-07-14T03:59:38Z</time>
      </trkpt>
      <trkpt lat="43.30758" lon="5.6642">
        <ele>552</ele>
        <time>2016-07-14T04:01:38Z</time>
      </trkpt>
      <trkpt lat="43.30756" lon="5.66428">
        <ele>549</ele>
        <time>2016-07-14T04:03:38Z</time>
      </trkpt>
      <trkpt lat="43.30757" lon="5.66435">
        <ele>547</ele>
        <time>2016-07-14T04:05:38Z</time>
      </trkpt>
      <trkpt lat="43.3076" lon="5.66441">
        <ele>546</ele>
        <time>2016-07-14T04:07:38Z</time>
      </trkpt>
      <trkpt lat="43.30764" lon="5.66448">
        <ele>545</ele>
        <time>2016-07-14T04:09:38Z</time>
      </trkpt>
      <trkpt lat="43.30771" lon="5.66455">
        <ele>544</ele>
        <time>2016-07-14T04:11:38Z</time>
      </trkpt>
      <trkpt lat="43.30808" lon="5.66493">
        <ele>541</ele>
        <time>2016-07-14T04:13:38Z</time>
      </trkpt>
      <trkpt lat="43.3084" lon="5.66525">
        <ele>539</ele>
        <time>2016-07-14T04:15:38Z</time>
      </trkpt>
      <trkpt lat="43.30852" lon="5.66539">
        <ele>537</ele>
        <time>2016-07-14T04:17:38Z</time>
      </trkpt>
      <trkpt lat="43.30856" lon="5.66545">
        <ele>536</ele>
        <time>2016-07-14T04:19:38Z</time>
      </trkpt>
      <trkpt lat="43.30862" lon="5.66556">
        <ele>533</ele>
        <time>2016-07-14T04:21:38Z</time>
      </trkpt>
      <trkpt lat="43.30867" lon="5.66567">
        <ele>530</ele>
        <time>2016-07-14T04:23:38Z</time>
      </trkpt>
      <trkpt lat="43.3087" lon="5.66579">
        <ele>527</ele>
        <time>2016-07-14T04:25:38Z</time>
      </trkpt>
      <trkpt lat="43.30871" lon="5.66587">
        <ele>525</ele>
        <time>2016-07-14T04:27:38Z</time>
      </trkpt>
      <trkpt lat="43.30871" lon="5.66594">
        <ele>523</ele>
        <time>2016-07-14T04:29:38Z</time>
      </trkpt>
      <trkpt lat="43.3087" lon="5.666">
        <ele>522</ele>
        <time>2016-07-14T04:31:38Z</time>
      </trkpt>
      <trkpt lat="43.30868" lon="5.66607">
        <ele>520</ele>
        <time>2016-07-14T04:33:38Z</time>
      </trkpt>
      <trkpt lat="43.30862" lon="5.66615">
        <ele>518</ele>
        <time>2016-07-14T04:35:38Z</time>
      </trkpt>
      <trkpt lat="43.30854" lon="5.66618">
        <ele>517</ele>
        <time>2016-07-14T04:37:38Z</time>
      </trkpt>
      <trkpt lat="43.3085" lon="5.66618">
        <ele>517</ele>
        <time>2016-07-14T04:39:38Z</time>
      </trkpt>
      <trkpt lat="43.30846" lon="5.66616">
        <ele>517</ele>
        <time>2016-07-14T04:41:38Z</time>
      </trkpt>
      <trkpt lat="43.30843" lon="5.66613">
        <ele>518</ele>
        <time>2016-07-14T04:43:38Z</time>
      </trkpt>
      <trkpt lat="43.30839" lon="5.66608">
        <ele>519</ele>
        <time>2016-07-14T04:45:38Z</time>
      </trkpt>
      <trkpt lat="43.30834" lon="5.66597">
        <ele>522</ele>
        <time>2016-07-14T04:47:38Z</time>
      </trkpt>
      <trkpt lat="43.30828" lon="5.66574">
        <ele>526</ele>
        <time>2016-07-14T04:49:38Z</time>
      </trkpt>
      <trkpt lat="43.30825" lon="5.66562">
        <ele>528</ele>
        <time>2016-07-14T04:51:38Z</time>
      </trkpt>
      <trkpt lat="43.30822" lon="5.66556">
        <ele>529</ele>
        <time>2016-07-14T04:53:38Z</time>
      </trkpt>
      <trkpt lat="43.30818" lon="5.6655">
        <ele>530</ele>
        <time>2016-07-14T04:55:38Z</time>
      </trkpt>
      <trkpt lat="43.30811" lon="5.66543">
        <ele>530</ele>
        <time>2016-07-14T04:57:38Z</time>
      </trkpt>
      <trkpt lat="43.308" lon="5.66535">
        <ele>530</ele>
        <time>2016-07-14T04:59:38Z</time>
      </trkpt>
      <trkpt lat="43.30736" lon="5.66495">
        <ele>527</ele>
        <time>2016-07-14T05:01:38Z</time>
      </trkpt>
      <trkpt lat="43.30722" lon="5.66486">
        <ele>529</ele>
        <time>2016-07-14T05:03:38Z</time>
      </trkpt>
      <trkpt lat="43.30718" lon="5.66483">
        <ele>529</ele>
        <time>2016-07-14T05:05:38Z</time>
      </trkpt>
      <trkpt lat="43.30711" lon="5.6648">
        <ele>530</ele>
        <time>2016-07-14T05:07:38Z</time>
      </trkpt>
      <trkpt lat="43.30707" lon="5.66479">
        <ele>530</ele>
        <time>2016-07-14T05:09:38Z</time>
      </trkpt>
      <trkpt lat="43.30703" lon="5.66479">
        <ele>530</ele>
        <time>2016-07-14T05:11:38Z</time>
      </trkpt>
      <trkpt lat="43.30699" lon="5.6648">
        <ele>529</ele>
        <time>2016-07-14T05:13:38Z</time>
      </trkpt>
      <trkpt lat="43.30695" lon="5.66483">
        <ele>528</ele>
        <time>2016-07-14T05:15:38Z</time>
      </trkpt>
      <trkpt lat="43.30693" lon="5.66487">
        <ele>526</ele>
        <time>2016-07-14T05:17:38Z</time>
      </trkpt>
      <trkpt lat="43.30692" lon="5.6649">
        <ele>525</ele>
        <time>2016-07-14T05:19:38Z</time>
      </trkpt>
      <trkpt lat="43.30692" lon="5.66494">
        <ele>523</ele>
        <time>2016-07-14T05:21:38Z</time>
      </trkpt>
      <trkpt lat="43.30693" lon="5.66499">
        <ele>521</ele>
        <time>2016-07-14T05:23:38Z</time>
      </trkpt>
      <trkpt lat="43.30697" lon="5.66506">
        <ele>520</ele>
        <time>2016-07-14T05:25:38Z</time>
      </trkpt>
      <trkpt lat="43.30703" lon="5.66511">
        <ele>519</ele>
        <time>2016-07-14T05:27:38Z</time>
      </trkpt>
      <trkpt lat="43.30711" lon="5.66514">
        <ele>519</ele>
        <time>2016-07-14T05:29:38Z</time>
      </trkpt>
      <trkpt lat="43.30725" lon="5.66517">
        <ele>520</ele>
        <time>2016-07-14T05:31:38Z</time>
      </trkpt>
      <trkpt lat="43.30736" lon="5.66519">
        <ele>521</ele>
        <time>2016-07-14T05:33:38Z</time>
      </trkpt>
      <trkpt lat="43.30747" lon="5.66523">
        <ele>521</ele>
        <time>2016-07-14T05:35:38Z</time>
      </trkpt>
      <trkpt lat="43.30756" lon="5.66529">
        <ele>522</ele>
        <time>2016-07-14T05:37:38Z</time>
      </trkpt>
      <trkpt lat="43.30775" lon="5.66547">
        <ele>522</ele>
        <time>2016-07-14T05:39:38Z</time>
      </trkpt>
      <trkpt lat="43.30789" lon="5.66563">
        <ele>521</ele>
        <time>2016-07-14T05:41:38Z</time>
      </trkpt>
      <trkpt lat="43.30795" lon="5.66572">
        <ele>520</ele>
        <time>2016-07-14T05:43:38Z</time>
      </trkpt>
      <trkpt lat="43.30796" lon="5.66577">
        <ele>519</ele>
        <time>2016-07-14T05:45:38Z</time>
      </trkpt>
      <trkpt lat="43.30797" lon="5.66583">
        <ele>518</ele>
        <time>2016-07-14T05:47:38Z</time>
      </trkpt>
      <trkpt lat="43.30797" lon="5.6659">
        <ele>516</ele>
        <time>2016-07-14T05:49:38Z</time>
      </trkpt>
      <trkpt lat="43.30796" lon="5.66595">
        <ele>515</ele>
        <time>2016-07-14T05:51:38Z</time>
      </trkpt>
      <trkpt lat="43.30794" lon="5.66599">
        <ele>513</ele>
        <time>2016-07-14T05:53:38Z</time>
      </trkpt>
      <trkpt lat="43.30791" lon="5.66603">
        <ele>512</ele>
        <time>2016-07-14T05:55:38Z</time>
      </trkpt>
      <trkpt lat="43.30785" lon="5.66606">
        <ele>510</ele>
        <time>2016-07-14T05:57:38Z</time>
      </trkpt>
      <trkpt lat="43.3078" lon="5.66606">
        <ele>509</ele>
        <time>2016-07-14T05:59:38Z</time>
      </trkpt>
      <trkpt lat="43.30777" lon="5.66604">
        <ele>509</ele>
        <time>2016-07-14T06:01:38Z</time>
      </trkpt>
      <trkpt lat="43.30773" lon="5.66601">
        <ele>509</ele>
        <time>2016-07-14T06:03:38Z</time>
      </trkpt>
      <trkpt lat="43.30771" lon="5.66597">
        <ele>509</ele>
        <time>2016-07-14T06:05:38Z</time>
      </trkpt>
      <trkpt lat="43.30764" lon="5.66584">
        <ele>511</ele>
        <time>2016-07-14T06:07:38Z</time>
      </trkpt>
      <trkpt lat="43.30755" lon="5.66564">
        <ele>513</ele>
        <time>2016-07-14T06:09:38Z</time>
      </trkpt>
      <trkpt lat="43.30748" lon="5.66556">
        <ele>514</ele>
        <time>2016-07-14T06:11:38Z</time>
      </trkpt>
      <trkpt lat="43.30743" lon="5.66553">
        <ele>514</ele>
        <time>2016-07-14T06:13:38Z</time>
      </trkpt>
      <trkpt lat="43.30734" lon="5.66548">
        <ele>514</ele>
        <time>2016-07-14T06:15:38Z</time>
      </trkpt>
      <trkpt lat="43.30728" lon="5.66546">
        <ele>513</ele>
        <time>2016-07-14T06:17:38Z</time>
      </trkpt>
      <trkpt lat="43.30711" lon="5.66542">
        <ele>512</ele>
        <time>2016-07-14T06:19:38Z</time>
      </trkpt>
      <trkpt lat="43.30698" lon="5.66541">
        <ele>510</ele>
        <time>2016-07-14T06:21:38Z</time>
      </trkpt>
      <trkpt lat="43.30688" lon="5.6654">
        <ele>509</ele>
        <time>2016-07-14T06:23:38Z</time>
      </trkpt>
      <trkpt lat="43.30665" lon="5.66543">
        <ele>505</ele>
        <time>2016-07-14T06:25:38Z</time>
      </trkpt>
      <trkpt lat="43.30644" lon="5.6655">
        <ele>501</ele>
        <time>2016-07-14T06:27:38Z</time>
      </trkpt>
      <trkpt lat="43.3063" lon="5.66554">
        <ele>499</ele>
        <time>2016-07-14T06:29:38Z</time>
      </trkpt>
      <trkpt lat="43.30623" lon="5.66555">
        <ele>499</ele>
        <time>2016-07-14T06:31:38Z</time>
      </trkpt>
      <trkpt lat="43.30617" lon="5.66556">
        <ele>498</ele>
        <time>2016-07-14T06:33:38Z</time>
      </trkpt>
      <trkpt lat="43.30605" lon="5.66555">
        <ele>497</ele>
        <time>2016-07-14T06:35:38Z</time>
      </trkpt>
      <trkpt lat="43.30592" lon="5.66552">
        <ele>497</ele>
        <time>2016-07-14T06:37:38Z</time>
      </trkpt>
      <trkpt lat="43.30575" lon="5.66548">
        <ele>496</ele>
        <time>2016-07-14T06:39:38Z</time>
      </trkpt>
      <trkpt lat="43.30554" lon="5.66544">
        <ele>494</ele>
        <time>2016-07-14T06:41:38Z</time>
      </trkpt>
      <trkpt lat="43.30546" lon="5.66545">
        <ele>492</ele>
        <time>2016-07-14T06:43:38Z</time>
      </trkpt>
      <trkpt lat="43.30543" lon="5.66547">
        <ele>491</ele>
        <time>2016-07-14T06:45:38Z</time>
      </trkpt>
      <trkpt lat="43.30539" lon="5.6655">
        <ele>489</ele>
        <time>2016-07-14T06:47:38Z</time>
      </trkpt>
      <trkpt lat="43.30536" lon="5.66554">
        <ele>487</ele>
        <time>2016-07-14T06:49:38Z</time>
      </trkpt>
      <trkpt lat="43.30535" lon="5.66559">
        <ele>485</ele>
        <time>2016-07-14T06:51:38Z</time>
      </trkpt>
      <trkpt lat="43.30535" lon="5.66565">
        <ele>483</ele>
        <time>2016-07-14T06:53:38Z</time>
      </trkpt>
      <trkpt lat="43.30537" lon="5.6657">
        <ele>482</ele>
        <time>2016-07-14T06:55:38Z</time>
      </trkpt>
      <trkpt lat="43.30542" lon="5.66575">
        <ele>481</ele>
        <time>2016-07-14T06:57:38Z</time>
      </trkpt>
      <trkpt lat="43.30547" lon="5.66577">
        <ele>482</ele>
        <time>2016-07-14T06:59:38Z</time>
      </trkpt>
      <trkpt lat="43.30559" lon="5.66575">
        <ele>485</ele>
        <time>2016-07-14T07:01:38Z</time>
      </trkpt>
      <trkpt lat="43.30579" lon="5.6657">
        <ele>490</ele>
        <time>2016-07-14T07:03:38Z</time>
      </trkpt>
      <trkpt lat="43.30593" lon="5.66571">
        <ele>492</ele>
        <time>2016-07-14T07:05:38Z</time>
      </trkpt>
      <trkpt lat="43.30604" lon="5.66576">
        <ele>491</ele>
        <time>2016-07-14T07:07:38Z</time>
      </trkpt>
      <trkpt lat="43.30624" lon="5.66587">
        <ele>489</ele>
        <time>2016-07-14T07:09:38Z</time>
      </trkpt>
      <trkpt lat="43.30632" lon="5.66595">
        <ele>487</ele>
        <time>2016-07-14T07:11:38Z</time>
      </trkpt>
      <trkpt lat="43.30638" lon="5.66603">
        <ele>486</ele>
        <time>2016-07-14T07:13:38Z</time>
      </trkpt>
      <trkpt lat="43.30639" lon="5.66613">
        <ele>483</ele>
        <time>2016-07-14T07:15:38Z</time>
      </trkpt>
      <trkpt lat="43.30638" lon="5.66623">
        <ele>480</ele>
        <time>2016-07-14T07:17:38Z</time>
      </trkpt>
      <trkpt lat="43.30634" lon="5.66629">
        <ele>479</ele>
        <time>2016-07-14T07:19:38Z</time>
      </trkpt>
      <trkpt lat="43.30632" lon="5.66632">
        <ele>478</ele>
        <time>2016-07-14T07:21:38Z</time>
      </trkpt>
      <trkpt lat="43.30628" lon="5.66635">
        <ele>477</ele>
        <time>2016-07-14T07:23:38Z</time>
      </trkpt>
      <trkpt lat="43.30621" lon="5.66635">
        <ele>477</ele>
        <time>2016-07-14T07:25:38Z</time>
      </trkpt>
      <trkpt lat="43.30613" lon="5.66632">
        <ele>477</ele>
        <time>2016-07-14T07:27:38Z</time>
      </trkpt>
      <trkpt lat="43.30595" lon="5.66621">
        <ele>479</ele>
        <time>2016-07-14T07:29:38Z</time>
      </trkpt>
      <trkpt lat="43.30584" lon="5.66616">
        <ele>480</ele>
        <time>2016-07-14T07:31:38Z</time>
      </trkpt>
      <trkpt lat="43.30573" lon="5.66614">
        <ele>479</ele>
        <time>2016-07-14T07:33:38Z</time>
      </trkpt>
      <trkpt lat="43.30561" lon="5.66616">
        <ele>477</ele>
        <time>2016-07-14T07:35:38Z</time>
      </trkpt>
      <trkpt lat="43.30501" lon="5.66635">
        <ele>468</ele>
        <time>2016-07-14T07:37:38Z</time>
      </trkpt>
      <trkpt lat="43.30467" lon="5.66645">
        <ele>464</ele>
        <time>2016-07-14T07:39:38Z</time>
      </trkpt>
      <trkpt lat="43.30454" lon="5.66649">
        <ele>463</ele>
        <time>2016-07-14T07:41:38Z</time>
      </trkpt>
      <trkpt lat="43.30439" lon="5.66657">
        <ele>461</ele>
        <time>2016-07-14T07:43:38Z</time>
      </trkpt>
      <trkpt lat="43.30432" lon="5.66662">
        <ele>461</ele>
        <time>2016-07-14T07:45:38Z</time>
      </trkpt>
      <trkpt lat="43.30426" lon="5.66668">
        <ele>460</ele>
        <time>2016-07-14T07:47:38Z</time>
      </trkpt>
      <trkpt lat="43.30418" lon="5.66676">
        <ele>458</ele>
        <time>2016-07-14T07:49:38Z</time>
      </trkpt>
      <trkpt lat="43.30412" lon="5.66684">
        <ele>456</ele>
        <time>2016-07-14T07:51:38Z</time>
      </trkpt>
      <trkpt lat="43.30409" lon="5.66689">
        <ele>455</ele>
        <time>2016-07-14T07:53:38Z</time>
      </trkpt>
      <trkpt lat="43.30408" lon="5.66691">
        <ele>454</ele>
        <time>2016-07-14T07:55:38Z</time>
      </trkpt>
      <trkpt lat="43.30404" lon="5.667">
        <ele>452</ele>
        <time>2016-07-14T07:57:38Z</time>
      </trkpt>
      <trkpt lat="43.30403" lon="5.66707">
        <ele>451</ele>
        <time>2016-07-14T07:59:38Z</time>
      </trkpt>
      <trkpt lat="43.30403" lon="5.66718">
        <ele>450</ele>
        <time>2016-07-14T08:01:38Z</time>
      </trkpt>
      <trkpt lat="43.30406" lon="5.66726">
        <ele>450</ele>
        <time>2016-07-14T08:03:38Z</time>
      </trkpt>
      <trkpt lat="43.30409" lon="5.6673">
        <ele>451</ele>
        <time>2016-07-14T08:05:38Z</time>
      </trkpt>
      <trkpt lat="43.30417" lon="5.66735">
        <ele>452</ele>
        <time>2016-07-14T08:07:38Z</time>
      </trkpt>
      <trkpt lat="43.30425" lon="5.66737">
        <ele>452</ele>
        <time>2016-07-14T08:09:38Z</time>
      </trkpt>
      <trkpt lat="43.30431" lon="5.66737">
        <ele>452</ele>
        <time>2016-07-14T08:11:38Z</time>
      </trkpt>
      <trkpt lat="43.30441" lon="5.66737">
        <ele>452</ele>
        <time>2016-07-14T08:13:38Z</time>
      </trkpt>
      <trkpt lat="43.3046" lon="5.66733">
        <ele>452</ele>
        <time>2016-07-14T08:15:38Z</time>
      </trkpt>
      <trkpt lat="43.30488" lon="5.66724">
        <ele>454</ele>
        <time>2016-07-14T08:17:38Z</time>
      </trkpt>
      <trkpt lat="43.3053" lon="5.66712">
        <ele>456</ele>
        <time>2016-07-14T08:19:38Z</time>
      </trkpt>
      <trkpt lat="43.30547" lon="5.66709">
        <ele>456</ele>
        <time>2016-07-14T08:21:38Z</time>
      </trkpt>
      <trkpt lat="43.30566" lon="5.66709">
        <ele>456</ele>
        <time>2016-07-14T08:23:38Z</time>
      </trkpt>
      <trkpt lat="43.30578" lon="5.66712">
        <ele>455</ele>
        <time>2016-07-14T08:25:38Z</time>
      </trkpt>
      <trkpt lat="43.30589" lon="5.66715">
        <ele>454</ele>
        <time>2016-07-14T08:27:38Z</time>
      </trkpt>
      <trkpt lat="43.30599" lon="5.66719">
        <ele>454</ele>
        <time>2016-07-14T08:29:38Z</time>
      </trkpt>
      <trkpt lat="43.30615" lon="5.66727">
        <ele>453</ele>
        <time>2016-07-14T08:31:38Z</time>
      </trkpt>
      <trkpt lat="43.30647" lon="5.66746">
        <ele>451</ele>
        <time>2016-07-14T08:33:38Z</time>
      </trkpt>
      <trkpt lat="43.30662" lon="5.66756">
        <ele>451</ele>
        <time>2016-07-14T08:35:38Z</time>
      </trkpt>
      <trkpt lat="43.30675" lon="5.66765">
        <ele>453</ele>
        <time>2016-07-14T08:37:38Z</time>
      </trkpt>
      <trkpt lat="43.30684" lon="5.66773">
        <ele>455</ele>
        <time>2016-07-14T08:39:38Z</time>
      </trkpt>
      <trkpt lat="43.30688" lon="5.6678">
        <ele>455</ele>
        <time>2016-07-14T08:41:38Z</time>
      </trkpt>
      <trkpt lat="43.3069" lon="5.66785">
        <ele>455</ele>
        <time>2016-07-14T08:43:38Z</time>
      </trkpt>
      <trkpt lat="43.3069" lon="5.66795">
        <ele>455</ele>
        <time>2016-07-14T08:45:38Z</time>
      </trkpt>
      <trkpt lat="43.30689" lon="5.66799">
        <ele>455</ele>
        <time>2016-07-14T08:47:38Z</time>
      </trkpt>
      <trkpt lat="43.30687" lon="5.66803">
        <ele>454</ele>
        <time>2016-07-14T08:49:38Z</time>
      </trkpt>
      <trkpt lat="43.30684" lon="5.66806">
        <ele>454</ele>
        <time>2016-07-14T08:51:38Z</time>
      </trkpt>
      <trkpt lat="43.3068" lon="5.66808">
        <ele>453</ele>
        <time>2016-07-14T08:53:38Z</time>
      </trkpt>
      <trkpt lat="43.30673" lon="5.66809">
        <ele>452</ele>
        <time>2016-07-14T08:55:38Z</time>
      </trkpt>
      <trkpt lat="43.30668" lon="5.66809">
        <ele>451</ele>
        <time>2016-07-14T08:57:38Z</time>
      </trkpt>
      <trkpt lat="43.30606" lon="5.66799">
        <ele>445</ele>
        <time>2016-07-14T08:59:38Z</time>
      </trkpt>
      <trkpt lat="43.30596" lon="5.66799">
        <ele>444</ele>
        <time>2016-07-14T09:01:38Z</time>
      </trkpt>
      <trkpt lat="43.30584" lon="5.66801">
        <ele>443</ele>
        <time>2016-07-14T09:03:38Z</time>
      </trkpt>
      <trkpt lat="43.30569" lon="5.66808">
        <ele>441</ele>
        <time>2016-07-14T09:05:38Z</time>
      </trkpt>
      <trkpt lat="43.30545" lon="5.6682">
        <ele>437</ele>
        <time>2016-07-14T09:07:38Z</time>
      </trkpt>
      <trkpt lat="43.30533" lon="5.66825">
        <ele>434</ele>
        <time>2016-07-14T09:09:38Z</time>
      </trkpt>
      <trkpt lat="43.30524" lon="5.66829">
        <ele>432</ele>
        <time>2016-07-14T09:11:38Z</time>
      </trkpt>
      <trkpt lat="43.30512" lon="5.66832">
        <ele>429</ele>
        <time>2016-07-14T09:13:38Z</time>
      </trkpt>
      <trkpt lat="43.30502" lon="5.66833">
        <ele>427</ele>
        <time>2016-07-14T09:15:38Z</time>
      </trkpt>
      <trkpt lat="43.3049" lon="5.66834">
        <ele>427</ele>
        <time>2016-07-14T09:17:38Z</time>
      </trkpt>
      <trkpt lat="43.30477" lon="5.66833">
        <ele>426</ele>
        <time>2016-07-14T09:19:38Z</time>
      </trkpt>
      <trkpt lat="43.30465" lon="5.66832">
        <ele>426</ele>
        <time>2016-07-14T09:21:38Z</time>
      </trkpt>
      <trkpt lat="43.30454" lon="5.66832">
        <ele>425</ele>
        <time>2016-07-14T09:23:38Z</time>
      </trkpt>
      <trkpt lat="43.30441" lon="5.66836">
        <ele>424</ele>
        <time>2016-07-14T09:25:38Z</time>
      </trkpt>
      <trkpt lat="43.30424" lon="5.66844">
        <ele>423</ele>
        <time>2016-07-14T09:27:38Z</time>
      </trkpt>
      <trkpt lat="43.30406" lon="5.66853">
        <ele>420</ele>
        <time>2016-07-14T09:29:38Z</time>
      </trkpt>
      <trkpt lat="43.30386" lon="5.66866">
        <ele>416</ele>
        <time>2016-07-14T09:31:38Z</time>
      </trkpt>
      <trkpt lat="43.30368" lon="5.66875">
        <ele>411</ele>
        <time>2016-07-14T09:33:38Z</time>
      </trkpt>
      <trkpt lat="43.3036" lon="5.66877">
        <ele>409</ele>
        <time>2016-07-14T09:35:38Z</time>
      </trkpt>
      <trkpt lat="43.30353" lon="5.66876">
        <ele>408</ele>
        <time>2016-07-14T09:37:38Z</time>
      </trkpt>
      <trkpt lat="43.30347" lon="5.66871">
        <ele>407</ele>
        <time>2016-07-14T09:39:38Z</time>
      </trkpt>
      <trkpt lat="43.3034" lon="5.66863">
        <ele>408</ele>
        <time>2016-07-14T09:41:38Z</time>
      </trkpt>
      <trkpt lat="43.30335" lon="5.66853">
        <ele>409</ele>
        <time>2016-07-14T09:43:38Z</time>
      </trkpt>
      <trkpt lat="43.3033" lon="5.66842">
        <ele>409</ele>
        <time>2016-07-14T09:45:38Z</time>
      </trkpt>
      <trkpt lat="43.30322" lon="5.66825">
        <ele>409</ele>
        <time>2016-07-14T09:47:38Z</time>
      </trkpt>
      <trkpt lat="43.30315" lon="5.66812">
        <ele>409</ele>
        <time>2016-07-14T09:49:38Z</time>
      </trkpt>
      <trkpt lat="43.30309" lon="5.66804">
        <ele>408</ele>
        <time>2016-07-14T09:51:38Z</time>
      </trkpt>
      <trkpt lat="43.30302" lon="5.66796">
        <ele>406</ele>
        <time>2016-07-14T09:53:38Z</time>
      </trkpt>
      <trkpt lat="43.30281" lon="5.66776">
        <ele>401</ele>
        <time>2016-07-14T09:55:38Z</time>
      </trkpt>
      <trkpt lat="43.30275" lon="5.66767">
        <ele>400</ele>
        <time>2016-07-14T09:57:38Z</time>
      </trkpt>
      <trkpt lat="43.30271" lon="5.6676">
        <ele>400</ele>
        <time>2016-07-14T09:59:38Z</time>
      </trkpt>
      <trkpt lat="43.30269" lon="5.66751">
        <ele>401</ele>
        <time>2016-07-14T10:01:38Z</time>
      </trkpt>
      <trkpt lat="43.30268" lon="5.66739">
        <ele>402</ele>
        <time>2016-07-14T10:03:38Z</time>
      </trkpt>
      <trkpt lat="43.30266" lon="5.66724">
        <ele>403</ele>
        <time>2016-07-14T10:05:38Z</time>
      </trkpt>
      <trkpt lat="43.30264" lon="5.6672">
        <ele>403</ele>
        <time>2016-07-14T10:07:38Z</time>
      </trkpt>
      <trkpt lat="43.3026" lon="5.66714">
        <ele>402</ele>
        <time>2016-07-14T10:09:38Z</time>
      </trkpt>
      <trkpt lat="43.30256" lon="5.66712">
        <ele>401</ele>
        <time>2016-07-14T10:11:38Z</time>
      </trkpt>
      <trkpt lat="43.3025" lon="5.66707">
        <ele>400</ele>
        <time>2016-07-14T10:13:38Z</time>
      </trkpt>
      <trkpt lat="43.30242" lon="5.66704">
        <ele>397</ele>
        <time>2016-07-14T10:15:38Z</time>
      </trkpt>
      <trkpt lat="43.30231" lon="5.66701">
        <ele>394</ele>
        <time>2016-07-14T10:17:38Z</time>
      </trkpt>
      <trkpt lat="43.30218" lon="5.66698">
        <ele>390</ele>
        <time>2016-07-14T10:19:38Z</time>
      </trkpt>
      <trkpt lat="43.30211" lon="5.66694">
        <ele>388</ele>
        <time>2016-07-14T10:21:38Z</time>
      </trkpt>
      <trkpt lat="43.30206" lon="5.66688">
        <ele>387</ele>
        <time>2016-07-14T10:23:38Z</time>
      </trkpt>
      <trkpt lat="43.30205" lon="5.66686">
        <ele>387</ele>
        <time>2016-07-14T10:25:38Z</time>
      </trkpt>
      <trkpt lat="43.30203" lon="5.66679">
        <ele>388</ele>
        <time>2016-07-14T10:27:38Z</time>
      </trkpt>
      <trkpt lat="43.30202" lon="5.66674">
        <ele>388</ele>
        <time>2016-07-14T10:29:38Z</time>
      </trkpt>
      <trkpt lat="43.30201" lon="5.66664">
        <ele>389</ele>
        <time>2016-07-14T10:31:38Z</time>
      </trkpt>
      <trkpt lat="43.30202" lon="5.6665">
        <ele>388</ele>
        <time>2016-07-14T10:33:38Z</time>
      </trkpt>
      <trkpt lat="43.30204" lon="5.66636">
        <ele>389</ele>
        <time>2016-07-14T10:35:38Z</time>
      </trkpt>
      <trkpt lat="43.3021" lon="5.66597">
        <ele>390</ele>
        <time>2016-07-14T10:37:38Z</time>
      </trkpt>
      <trkpt lat="43.30216" lon="5.6656">
        <ele>391</ele>
        <time>2016-07-14T10:39:38Z</time>
      </trkpt>
      <trkpt lat="43.30224" lon="5.66524">
        <ele>394</ele>
        <time>2016-07-14T10:41:38Z</time>
      </trkpt>
      <trkpt lat="43.30226" lon="5.66515">
        <ele>394</ele>
        <time>2016-07-14T10:43:38Z</time>
      </trkpt>
      <trkpt lat="43.30226" lon="5.66506">
        <ele>394</ele>
        <time>2016-07-14T10:45:38Z</time>
      </trkpt>
      <trkpt lat="43.30226" lon="5.66498">
        <ele>393</ele>
        <time>2016-07-14T10:47:38Z</time>
      </trkpt>
      <trkpt lat="43.30223" lon="5.6649">
        <ele>392</ele>
        <time>2016-07-14T10:49:38Z</time>
      </trkpt>
      <trkpt lat="43.3022" lon="5.66485">
        <ele>390</ele>
        <time>2016-07-14T10:51:38Z</time>
      </trkpt>
      <trkpt lat="43.30211" lon="5.66468">
        <ele>386</ele>
        <time>2016-07-14T10:53:38Z</time>
      </trkpt>
      <trkpt lat="43.30207" lon="5.66458">
        <ele>384</ele>
        <time>2016-07-14T10:55:38Z</time>
      </trkpt>
      <trkpt lat="43.30204" lon="5.66448">
        <ele>382</ele>
        <time>2016-07-14T10:57:38Z</time>
      </trkpt>
      <trkpt lat="43.30203" lon="5.66442">
        <ele>382</ele>
        <time>2016-07-14T10:59:38Z</time>
      </trkpt>
      <trkpt lat="43.302" lon="5.6643">
        <ele>380</ele>
        <time>2016-07-14T11:01:38Z</time>
      </trkpt>
      <trkpt lat="43.30198" lon="5.66414">
        <ele>380</ele>
        <time>2016-07-14T11:03:38Z</time>
      </trkpt>
      <trkpt lat="43.30199" lon="5.66395">
        <ele>383</ele>
        <time>2016-07-14T11:05:38Z</time>
      </trkpt>
      <trkpt lat="43.302" lon="5.66377">
        <ele>385</ele>
        <time>2016-07-14T11:07:38Z</time>
      </trkpt>
      <trkpt lat="43.30198" lon="5.66367">
        <ele>385</ele>
        <time>2016-07-14T11:09:38Z</time>
      </trkpt>
      <trkpt lat="43.30196" lon="5.66361">
        <ele>385</ele>
        <time>2016-07-14T11:11:38Z</time>
      </trkpt>
      <trkpt lat="43.30193" lon="5.66356">
        <ele>384</ele>
        <time>2016-07-14T11:13:38Z</time>
      </trkpt>
      <trkpt lat="43.30189" lon="5.66348">
        <ele>384</ele>
        <time>2016-07-14T11:15:38Z</time>
      </trkpt>
      <trkpt lat="43.30168" lon="5.66321">
        <ele>380</ele>
        <time>2016-07-14T11:17:38Z</time>
      </trkpt>
      <trkpt lat="43.30165" lon="5.66317">
        <ele>380</ele>
        <time>2016-07-14T11:19:38Z</time>
      </trkpt>
      <trkpt lat="43.30161" lon="5.66313">
        <ele>380</ele>
        <time>2016-07-14T11:21:38Z</time>
      </trkpt>
      <trkpt lat="43.30158" lon="5.6631">
        <ele>380</ele>
        <time>2016-07-14T11:23:38Z</time>
      </trkpt>
      <trkpt lat="43.30149" lon="5.66306">
        <ele>379</ele>
        <time>2016-07-14T11:25:38Z</time>
      </trkpt>
      <trkpt lat="43.30142" lon="5.66307">
        <ele>377</ele>
        <time>2016-07-14T11:27:38Z</time>
      </trkpt>
      <trkpt lat="43.30138" lon="5.66309">
        <ele>375</ele>
        <time>2016-07-14T11:29:38Z</time>
      </trkpt>
      <trkpt lat="43.30124" lon="5.66312">
        <ele>371</ele>
        <time>2016-07-14T11:31:38Z</time>
      </trkpt>
      <trkpt lat="43.30116" lon="5.66314">
        <ele>368</ele>
        <time>2016-07-14T11:33:38Z</time>
      </trkpt>
      <trkpt lat="43.30108" lon="5.66313">
        <ele>366</ele>
        <time>2016-07-14T11:35:38Z</time>
      </trkpt>
      <trkpt lat="43.30097" lon="5.66309">
        <ele>365</ele>
        <time>2016-07-14T11:37:38Z</time>
      </trkpt>
      <trkpt lat="43.30086" lon="5.66301">
        <ele>365</ele>
        <time>2016-07-14T11:39:38Z</time>
      </trkpt>
      <trkpt lat="43.30068" lon="5.66283">
        <ele>369</ele>
        <time>2016-07-14T11:41:38Z</time>
      </trkpt>
      <trkpt lat="43.30059" lon="5.66275">
        <ele>371</ele>
        <time>2016-07-14T11:43:38Z</time>
      </trkpt>
      <trkpt lat="43.30054" lon="5.66271">
        <ele>372</ele>
        <time>2016-07-14T11:45:38Z</time>
      </trkpt>
      <trkpt lat="43.30042" lon="5.66266">
        <ele>372</ele>
        <time>2016-07-14T11:47:38Z</time>
      </trkpt>
      <trkpt lat="43.30026" lon="5.6626">
        <ele>371</ele>
        <time>2016-07-14T11:49:38Z</time>
      </trkpt>
      <trkpt lat="43.30016" lon="5.66257">
        <ele>371</ele>
        <time>2016-07-14T11:51:38Z</time>
      </trkpt>
      <trkpt lat="43.30005" lon="5.66252">
        <ele>371</ele>
        <time>2016-07-14T11:53:38Z</time>
      </trkpt>
      <trkpt lat="43.29996" lon="5.66247">
        <ele>370</ele>
        <time>2016-07-14T11:55:38Z</time>
      </trkpt>
      <trkpt lat="43.29989" lon="5.66242">
        <ele>369</ele>
        <time>2016-07-14T11:57:38Z</time>
      </trkpt>
      <trkpt lat="43.29977" lon="5.6623">
        <ele>368</ele>
        <time>2016-07-14T11:59:38Z</time>
      </trkpt>
      <trkpt lat="43.29961" lon="5.66214">
        <ele>367</ele>
        <time>2016-07-14T12:01:38Z</time>
      </trkpt>
      <trkpt lat="43.29947" lon="5.66196">
        <ele>368</ele>
        <time>2016-07-14T12:03:38Z</time>
      </trkpt>
      <trkpt lat="43.29936" lon="5.66182">
        <ele>369</ele>
        <time>2016-07-14T12:05:38Z</time>
      </trkpt>
      <trkpt lat="43.29931" lon="5.66176">
        <ele>369</ele>
        <time>2016-07-14T12:07:38Z</time>
      </trkpt>
      <trkpt lat="43.29925" lon="5.6617">
        <ele>370</ele>
        <time>2016-07-14T12:09:38Z</time>
      </trkpt>
      <trkpt lat="43.29911" lon="5.66157">
        <ele>367</ele>
        <time>2016-07-14T12:11:38Z</time>
      </trkpt>
      <trkpt lat="43.29896" lon="5.66144">
        <ele>364</ele>
        <time>2016-07-14T12:13:38Z</time>
      </trkpt>
      <trkpt lat="43.29887" lon="5.66136">
        <ele>363</ele>
        <time>2016-07-14T12:15:38Z</time>
      </trkpt>
      <trkpt lat="43.29879" lon="5.66128">
        <ele>362</ele>
        <time>2016-07-14T12:17:38Z</time>
      </trkpt>
      <trkpt lat="43.29875" lon="5.66124">
        <ele>362</ele>
        <time>2016-07-14T12:19:38Z</time>
      </trkpt>
      <trkpt lat="43.29873" lon="5.66117">
        <ele>362</ele>
        <time>2016-07-14T12:21:38Z</time>
      </trkpt>
      <trkpt lat="43.29872" lon="5.66109">
        <ele>363</ele>
        <time>2016-07-14T12:23:38Z</time>
      </trkpt>
      <trkpt lat="43.29872" lon="5.66105">
        <ele>363</ele>
        <time>2016-07-14T12:25:38Z</time>
      </trkpt>
      <trkpt lat="43.29874" lon="5.661">
        <ele>363</ele>
        <time>2016-07-14T12:27:38Z</time>
      </trkpt>
      <trkpt lat="43.29876" lon="5.66096">
        <ele>364</ele>
        <time>2016-07-14T12:29:38Z</time>
      </trkpt>
      <trkpt lat="43.29879" lon="5.66093">
        <ele>364</ele>
        <time>2016-07-14T12:31:38Z</time>
      </trkpt>
      <trkpt lat="43.29883" lon="5.6609">
        <ele>364</ele>
        <time>2016-07-14T12:33:38Z</time>
      </trkpt>
      <trkpt lat="43.29888" lon="5.66088">
        <ele>365</ele>
        <time>2016-07-14T12:35:38Z</time>
      </trkpt>
      <trkpt lat="43.29898" lon="5.66084">
        <ele>365</ele>
        <time>2016-07-14T12:37:38Z</time>
      </trkpt>
      <trkpt lat="43.29909" lon="5.66082">
        <ele>365</ele>
        <time>2016-07-14T12:39:38Z</time>
      </trkpt>
      <trkpt lat="43.29923" lon="5.66083">
        <ele>366</ele>
        <time>2016-07-14T12:41:38Z</time>
      </trkpt>
      <trkpt lat="43.29934" lon="5.66084">
        <ele>367</ele>
        <time>2016-07-14T12:43:38Z</time>
      </trkpt>
      <trkpt lat="43.29943" lon="5.66086">
        <ele>367</ele>
        <time>2016-07-14T12:45:38Z</time>
      </trkpt>
      <trkpt lat="43.29948" lon="5.66084">
        <ele>368</ele>
        <time>2016-07-14T12:47:38Z</time>
      </trkpt>
      <trkpt lat="43.29951" lon="5.66082">
        <ele>368</ele>
        <time>2016-07-14T12:49:38Z</time>
      </trkpt>
      <trkpt lat="43.29954" lon="5.66079">
        <ele>367</ele>
        <time>2016-07-14T12:51:38Z</time>
      </trkpt>
      <trkpt lat="43.29956" lon="5.66075">
        <ele>367</ele>
        <time>2016-07-14T12:53:38Z</time>
      </trkpt>
      <trkpt lat="43.29956" lon="5.6607">
        <ele>367</ele>
        <time>2016-07-14T12:55:38Z</time>
      </trkpt>
      <trkpt lat="43.29955" lon="5.66066">
        <ele>366</ele>
        <time>2016-07-14T12:57:38Z</time>
      </trkpt>
      <trkpt lat="43.29955" lon="5.66063">
        <ele>366</ele>
        <time>2016-07-14T12:59:38Z</time>
      </trkpt>
      <trkpt lat="43.29954" lon="5.66062">
        <ele>366</ele>
        <time>2016-07-14T13:01:38Z</time>
      </trkpt>
      <trkpt lat="43.29953" lon="5.66061">
        <ele>365</ele>
        <time>2016-07-14T13:03:38Z</time>
      </trkpt>
      <trkpt lat="43.29951" lon="5.66059">
        <ele>365</ele>
        <time>2016-07-14T13:05:38Z</time>
      </trkpt>
      <trkpt lat="43.29948" lon="5.66057">
        <ele>364</ele>
        <time>2016-07-14T13:07:38Z</time>
      </trkpt>
      <trkpt lat="43.29944" lon="5.66056">
        <ele>364</ele>
        <time>2016-07-14T13:09:38Z</time>
      </trkpt>
      <trkpt lat="43.29939" lon="5.66056">
        <ele>363</ele>
        <time>2016-07-14T13:11:38Z</time>
      </trkpt>
      <trkpt lat="43.29932" lon="5.66057">
        <ele>363</ele>
        <time>2016-07-14T13:13:38Z</time>
      </trkpt>
      <trkpt lat="43.29918" lon="5.6606">
        <ele>362</ele>
        <time>2016-07-14T13:15:38Z</time>
      </trkpt>
      <trkpt lat="43.29911" lon="5.66062">
        <ele>362</ele>
        <time>2016-07-14T13:17:38Z</time>
      </trkpt>
      <trkpt lat="43.29896" lon="5.66063">
        <ele>362</ele>
        <time>2016-07-14T13:19:38Z</time>
      </trkpt>
      <trkpt lat="43.29887" lon="5.66063">
        <ele>361</ele>
        <time>2016-07-14T13:21:38Z</time>
      </trkpt>
      <trkpt lat="43.29877" lon="5.66061">
        <ele>360</ele>
        <time>2016-07-14T13:23:38Z</time>
      </trkpt>
      <trkpt lat="43.29871" lon="5.66059">
        <ele>360</ele>
        <time>2016-07-14T13:25:38Z</time>
      </trkpt>
      <trkpt lat="43.29862" lon="5.66054">
        <ele>359</ele>
        <time>2016-07-14T13:27:38Z</time>
      </trkpt>
      <trkpt lat="43.29846" lon="5.66043">
        <ele>356</ele>
        <time>2016-07-14T13:29:38Z</time>
      </trkpt>
      <trkpt lat="43.29838" lon="5.66038">
        <ele>354</ele>
        <time>2016-07-14T13:31:38Z</time>
      </trkpt>
      <trkpt lat="43.29831" lon="5.66035">
        <ele>354</ele>
        <time>2016-07-14T13:33:38Z</time>
      </trkpt>
      <trkpt lat="43.29825" lon="5.66033">
        <ele>353</ele>
        <time>2016-07-14T13:35:38Z</time>
      </trkpt>
      <trkpt lat="43.29819" lon="5.66032">
        <ele>353</ele>
        <time>2016-07-14T13:37:38Z</time>
      </trkpt>
      <trkpt lat="43.29805" lon="5.66031">
        <ele>352</ele>
        <time>2016-07-14T13:39:38Z</time>
      </trkpt>
      <trkpt lat="43.29791" lon="5.66031">
        <ele>352</ele>
        <time>2016-07-14T13:41:38Z</time>
      </trkpt>
      <trkpt lat="43.29781" lon="5.66029">
        <ele>351</ele>
        <time>2016-07-14T13:43:38Z</time>
      </trkpt>
      <trkpt lat="43.2977" lon="5.66023">
        <ele>350</ele>
        <time>2016-07-14T13:45:38Z</time>
      </trkpt>
      <trkpt lat="43.29741" lon="5.66009">
        <ele>347</ele>
        <time>2016-07-14T13:47:38Z</time>
      </trkpt>
      <trkpt lat="43.2973" lon="5.66003">
        <ele>345</ele>
        <time>2016-07-14T13:49:38Z</time>
      </trkpt>
      <trkpt lat="43.29713" lon="5.65994">
        <ele>344</ele>
        <time>2016-07-14T13:51:38Z</time>
      </trkpt>
      <trkpt lat="43.29695" lon="5.65982">
        <ele>340</ele>
        <time>2016-07-14T13:53:38Z</time>
      </trkpt>
      <trkpt lat="43.29683" lon="5.65977">
        <ele>338</ele>
        <time>2016-07-14T13:55:38Z</time>
      </trkpt>
      <trkpt lat="43.29679" lon="5.65977">
        <ele>338</ele>
        <time>2016-07-14T13:57:38Z</time>
      </trkpt>
      <trkpt lat="43.29668" lon="5.65977">
        <ele>337</ele>
        <time>2016-07-14T13:59:38Z</time>
      </trkpt>
      <trkpt lat="43.29643" lon="5.65982">
        <ele>337</ele>
        <time>2016-07-14T14:01:38Z</time>
      </trkpt>
      <trkpt lat="43.29631" lon="5.65983">
        <ele>337</ele>
        <time>2016-07-14T14:03:38Z</time>
      </trkpt>
      <trkpt lat="43.2962" lon="5.65981">
        <ele>336</ele>
        <time>2016-07-14T14:05:38Z</time>
      </trkpt>
      <trkpt lat="43.2961" lon="5.65979">
        <ele>334</ele>
        <time>2016-07-14T14:07:38Z</time>
      </trkpt>
      <trkpt lat="43.29604" lon="5.65976">
        <ele>333</ele>
        <time>2016-07-14T14:09:38Z</time>
      </trkpt>
      <trkpt lat="43.29596" lon="5.65972">
        <ele>331</ele>
        <time>2016-07-14T14:11:38Z</time>
      </trkpt>
      <trkpt lat="43.29582" lon="5.65963">
        <ele>327</ele>
        <time>2016-07-14T14:13:38Z</time>
      </trkpt>
      <trkpt lat="43.29563" lon="5.65952">
        <ele>325</ele>
        <time>2016-07-14T14:15:38Z</time>
      </trkpt>
      <trkpt lat="43.29547" lon="5.65947">
        <ele>324</ele>
        <time>2016-07-14T14:17:38Z</time>
      </trkpt>
      <trkpt lat="43.29528" lon="5.65942">
        <ele>324</ele>
        <time>2016-07-14T14:19:38Z</time>
      </trkpt>
      <trkpt lat="43.29508" lon="5.65932">
        <ele>322</ele>
        <time>2016-07-14T14:21:38Z</time>
      </trkpt>
      <trkpt lat="43.29484" lon="5.6592">
        <ele>322</ele>
        <time>2016-07-14T14:23:38Z</time>
      </trkpt>
      <trkpt lat="43.29465" lon="5.65908">
        <ele>322</ele>
        <time>2016-07-14T14:25:38Z</time>
      </trkpt>
      <trkpt lat="43.29452" lon="5.65895">
        <ele>321</ele>
        <time>2016-07-14T14:27:38Z</time>
      </trkpt>
      <trkpt lat="43.29444" lon="5.65885">
        <ele>320</ele>
        <time>2016-07-14T14:29:38Z</time>
      </trkpt>
      <trkpt lat="43.29441" lon="5.6588">
        <ele>319</ele>
        <time>2016-07-14T14:31:38Z</time>
      </trkpt>
      <trkpt lat="43.29434" lon="5.65868">
        <ele>317</ele>
        <time>2016-07-14T14:33:38Z</time>
      </trkpt>
      <trkpt lat="43.29425" lon="5.65842">
        <ele>311</ele>
        <time>2016-07-14T14:35:38Z</time>
      </trkpt>
      <trkpt lat="43.29423" lon="5.65836">
        <ele>310</ele>
        <time>2016-07-14T14:37:38Z</time>
      </trkpt>
      <trkpt lat="43.29418" lon="5.65826">
        <ele>308</ele>
        <time>2016-07-14T14:39:38Z</time>
      </trkpt>
      <trkpt lat="43.29415" lon="5.65821">
        <ele>308</ele>
        <time>2016-07-14T14:41:38Z</time>
      </trkpt>
      <trkpt lat="43.29409" lon="5.65814">
        <ele>307</ele>
        <time>2016-07-14T14:43:38Z</time>
      </trkpt>
      <trkpt lat="43.294" lon="5.65807">
        <ele>307</ele>
        <time>2016-07-14T14:45:38Z</time>
      </trkpt>
      <trkpt lat="43.29387" lon="5.65799">
        <ele>307</ele>
        <time>2016-07-14T14:47:38Z</time>
      </trkpt>
      <trkpt lat="43.2937" lon="5.65791">
        <ele>308</ele>
        <time>2016-07-14T14:49:38Z</time>
      </trkpt>
      <trkpt lat="43.29364" lon="5.65788">
        <ele>308</ele>
        <time>2016-07-14T14:51:38Z</time>
      </trkpt>
      <trkpt lat="43.29359" lon="5.65785">
        <ele>309</ele>
        <time>2016-07-14T14:53:38Z</time>
      </trkpt>
      <trkpt lat="43.29351" lon="5.65774">
        <ele>307</ele>
        <time>2016-07-14T14:55:38Z</time>
      </trkpt>
      <trkpt lat="43.29336" lon="5.65754">
        <ele>304</ele>
        <time>2016-07-14T14:57:38Z</time>
      </trkpt>
      <trkpt lat="43.29325" lon="5.65742">
        <ele>300</ele>
        <time>2016-07-14T14:59:38Z</time>
      </trkpt>
      <trkpt lat="43.29318" lon="5.65736">
        <ele>298</ele>
        <time>2016-07-14T15:01:38Z</time>
      </trkpt>
      <trkpt lat="43.29301" lon="5.65722">
        <ele>293</ele>
        <time>2016-07-14T15:03:38Z</time>
      </trkpt>
      <trkpt lat="43.29287" lon="5.65712">
        <ele>290</ele>
        <time>2016-07-14T15:05:38Z</time>
      </trkpt>
      <trkpt lat="43.29281" lon="5.65708">
        <ele>289</ele>
        <time>2016-07-14T15:07:38Z</time>
      </trkpt>
      <trkpt lat="43.29277" lon="5.65705">
        <ele>289</ele>
        <time>2016-07-14T15:09:38Z</time>
      </trkpt>
      <trkpt lat="43.29268" lon="5.65702">
        <ele>289</ele>
        <time>2016-07-14T15:11:38Z</time>
      </trkpt>
      <trkpt lat="43.29253" lon="5.65702">
        <ele>289</ele>
        <time>2016-07-14T15:13:38Z</time>
      </trkpt>
      <trkpt lat="43.29246" lon="5.657">
        <ele>287</ele>
        <time>2016-07-14T15:15:38Z</time>
      </trkpt>
      <trkpt lat="43.29243" lon="5.65699">
        <ele>286</ele>
        <time>2016-07-14T15:17:38Z</time>
      </trkpt>
      <trkpt lat="43.2924" lon="5.65696">
        <ele>284</ele>
        <time>2016-07-14T15:19:38Z</time>
      </trkpt>
      <trkpt lat="43.29238" lon="5.65692">
        <ele>283</ele>
        <time>2016-07-14T15:21:38Z</time>
      </trkpt>
      <trkpt lat="43.29237" lon="5.65685">
        <ele>281</ele>
        <time>2016-07-14T15:23:38Z</time>
      </trkpt>
      <trkpt lat="43.29237" lon="5.6568">
        <ele>281</ele>
        <time>2016-07-14T15:25:38Z</time>
      </trkpt>
      <trkpt lat="43.29237" lon="5.65679">
        <ele>280</ele>
        <time>2016-07-14T15:27:38Z</time>
      </trkpt>
      <trkpt lat="43.29239" lon="5.65675">
        <ele>281</ele>
        <time>2016-07-14T15:29:38Z</time>
      </trkpt>
      <trkpt lat="43.2924" lon="5.65672">
        <ele>280</ele>
        <time>2016-07-14T15:31:38Z</time>
      </trkpt>
      <trkpt lat="43.29244" lon="5.65668">
        <ele>281</ele>
        <time>2016-07-14T15:33:38Z</time>
      </trkpt>
      <trkpt lat="43.29247" lon="5.65666">
        <ele>282</ele>
        <time>2016-07-14T15:35:38Z</time>
      </trkpt>
      <trkpt lat="43.29251" lon="5.65666">
        <ele>283</ele>
        <time>2016-07-14T15:37:38Z</time>
      </trkpt>
      <trkpt lat="43.29257" lon="5.65667">
        <ele>282</ele>
        <time>2016-07-14T15:39:38Z</time>
      </trkpt>
      <trkpt lat="43.29265" lon="5.6567">
        <ele>282</ele>
        <time>2016-07-14T15:41:38Z</time>
      </trkpt>
      <trkpt lat="43.29277" lon="5.65677">
        <ele>282</ele>
        <time>2016-07-14T15:43:38Z</time>
      </trkpt>
      <trkpt lat="43.29299" lon="5.65696">
        <ele>286</ele>
        <time>2016-07-14T15:45:38Z</time>
      </trkpt>
      <trkpt lat="43.29304" lon="5.65699">
        <ele>286</ele>
        <time>2016-07-14T15:47:38Z</time>
      </trkpt>
      <trkpt lat="43.2931" lon="5.65703">
        <ele>287</ele>
        <time>2016-07-14T15:49:38Z</time>
      </trkpt>
      <trkpt lat="43.29334" lon="5.6571">
        <ele>289</ele>
        <time>2016-07-14T15:51:38Z</time>
      </trkpt>
      <trkpt lat="43.29347" lon="5.65718">
        <ele>290</ele>
        <time>2016-07-14T15:53:38Z</time>
      </trkpt>
      <trkpt lat="43.2936" lon="5.65729">
        <ele>291</ele>
        <time>2016-07-14T15:55:38Z</time>
      </trkpt>
      <trkpt lat="43.29364" lon="5.65731">
        <ele>291</ele>
        <time>2016-07-14T15:57:38Z</time>
      </trkpt>
      <trkpt lat="43.29369" lon="5.65733">
        <ele>291</ele>
        <time>2016-07-14T15:59:38Z</time>
      </trkpt>
      <trkpt lat="43.29376" lon="5.65734">
        <ele>290</ele>
        <time>2016-07-14T16:01:38Z</time>
      </trkpt>
      <trkpt lat="43.2939" lon="5.65736">
        <ele>288</ele>
        <time>2016-07-14T16:03:38Z</time>
      </trkpt>
      <trkpt lat="43.29398" lon="5.65737">
        <ele>287</ele>
        <time>2016-07-14T16:05:38Z</time>
      </trkpt>
      <trkpt lat="43.29422" lon="5.65746">
        <ele>285</ele>
        <time>2016-07-14T16:07:38Z</time>
      </trkpt>
      <trkpt lat="43.29435" lon="5.65754">
        <ele>286</ele>
        <time>2016-07-14T16:09:38Z</time>
      </trkpt>
      <trkpt lat="43.29451" lon="5.65764">
        <ele>286</ele>
        <time>2016-07-14T16:11:38Z</time>
      </trkpt>
      <trkpt lat="43.29469" lon="5.6578">
        <ele>287</ele>
        <time>2016-07-14T16:13:38Z</time>
      </trkpt>
      <trkpt lat="43.29474" lon="5.65785">
        <ele>287</ele>
        <time>2016-07-14T16:15:38Z</time>
      </trkpt>
      <trkpt lat="43.29485" lon="5.65799">
        <ele>288</ele>
        <time>2016-07-14T16:17:38Z</time>
      </trkpt>
      <trkpt lat="43.2949" lon="5.65805">
        <ele>288</ele>
        <time>2016-07-14T16:19:38Z</time>
      </trkpt>
      <trkpt lat="43.29495" lon="5.6581">
        <ele>287</ele>
        <time>2016-07-14T16:21:38Z</time>
      </trkpt>
      <trkpt lat="43.295" lon="5.65817">
        <ele>287</ele>
        <time>2016-07-14T16:23:38Z</time>
      </trkpt>
      <trkpt lat="43.29511" lon="5.65827">
        <ele>289</ele>
        <time>2016-07-14T16:25:38Z</time>
      </trkpt>
      <trkpt lat="43.29517" lon="5.6583">
        <ele>290</ele>
        <time>2016-07-14T16:27:38Z</time>
      </trkpt>
      <trkpt lat="43.29525" lon="5.6583">
        <ele>291</ele>
        <time>2016-07-14T16:29:38Z</time>
      </trkpt>
      <trkpt lat="43.29529" lon="5.65827">
        <ele>291</ele>
        <time>2016-07-14T16:31:38Z</time>
      </trkpt>
      <trkpt lat="43.29533" lon="5.65823">
        <ele>291</ele>
        <time>2016-07-14T16:33:38Z</time>
      </trkpt>
      <trkpt lat="43.29534" lon="5.65818">
        <ele>291</ele>
        <time>2016-07-14T16:35:38Z</time>
      </trkpt>
      <trkpt lat="43.29533" lon="5.6581">
        <ele>290</ele>
        <time>2016-07-14T16:37:38Z</time>
      </trkpt>
      <trkpt lat="43.29529" lon="5.65802">
        <ele>289</ele>
        <time>2016-07-14T16:39:38Z</time>
      </trkpt>
      <trkpt lat="43.29525" lon="5.65795">
        <ele>288</ele>
        <time>2016-07-14T16:41:38Z</time>
      </trkpt>
      <trkpt lat="43.2952" lon="5.65785">
        <ele>286</ele>
        <time>2016-07-14T16:43:38Z</time>
      </trkpt>
      <trkpt lat="43.29511" lon="5.65771">
        <ele>283</ele>
        <time>2016-07-14T16:45:38Z</time>
      </trkpt>
      <trkpt lat="43.29505" lon="5.65758">
        <ele>281</ele>
        <time>2016-07-14T16:47:38Z</time>
      </trkpt>
      <trkpt lat="43.295" lon="5.6574">
        <ele>279</ele>
        <time>2016-07-14T16:49:38Z</time>
      </trkpt>
      <trkpt lat="43.29498" lon="5.65724">
        <ele>279</ele>
        <time>2016-07-14T16:51:38Z</time>
      </trkpt>
      <trkpt lat="43.29495" lon="5.65703">
        <ele>279</ele>
        <time>2016-07-14T16:53:38Z</time>
      </trkpt>
      <trkpt lat="43.29489" lon="5.65688">
        <ele>279</ele>
        <time>2016-07-14T16:55:38Z</time>
      </trkpt>
      <trkpt lat="43.29481" lon="5.65677">
        <ele>278</ele>
        <time>2016-07-14T16:57:38Z</time>
      </trkpt>
      <trkpt lat="43.29475" lon="5.6567">
        <ele>277</ele>
        <time>2016-07-14T16:59:38Z</time>
      </trkpt>
      <trkpt lat="43.29464" lon="5.6566">
        <ele>277</ele>
        <time>2016-07-14T17:01:38Z</time>
      </trkpt>
      <trkpt lat="43.29449" lon="5.65651">
        <ele>276</ele>
        <time>2016-07-14T17:03:38Z</time>
      </trkpt>
      <trkpt lat="43.29439" lon="5.65648">
        <ele>275</ele>
        <time>2016-07-14T17:05:38Z</time>
      </trkpt>
      <trkpt lat="43.29427" lon="5.65644">
        <ele>274</ele>
        <time>2016-07-14T17:07:38Z</time>
      </trkpt>
      <trkpt lat="43.29419" lon="5.65641">
        <ele>273</ele>
        <time>2016-07-14T17:09:38Z</time>
      </trkpt>
      <trkpt lat="43.29403" lon="5.65631">
        <ele>273</ele>
        <time>2016-07-14T17:11:38Z</time>
      </trkpt>
      <trkpt lat="43.29389" lon="5.6562">
        <ele>272</ele>
        <time>2016-07-14T17:13:38Z</time>
      </trkpt>
      <trkpt lat="43.29375" lon="5.65608">
        <ele>270</ele>
        <time>2016-07-14T17:15:38Z</time>
      </trkpt>
      <trkpt lat="43.2936" lon="5.65593">
        <ele>267</ele>
        <time>2016-07-14T17:17:38Z</time>
      </trkpt>
      <trkpt lat="43.29354" lon="5.65582">
        <ele>265</ele>
        <time>2016-07-14T17:19:38Z</time>
      </trkpt>
      <trkpt lat="43.29349" lon="5.65568">
        <ele>265</ele>
        <time>2016-07-14T17:21:38Z</time>
      </trkpt>
      <trkpt lat="43.29343" lon="5.6554">
        <ele>266</ele>
        <time>2016-07-14T17:23:38Z</time>
      </trkpt>
      <trkpt lat="43.29338" lon="5.65526">
        <ele>265</ele>
        <time>2016-07-14T17:25:38Z</time>
      </trkpt>
      <trkpt lat="43.29333" lon="5.65516">
        <ele>264</ele>
        <time>2016-07-14T17:27:38Z</time>
      </trkpt>
      <trkpt lat="43.29328" lon="5.65508">
        <ele>263</ele>
        <time>2016-07-14T17:29:38Z</time>
      </trkpt>
      <trkpt lat="43.29319" lon="5.65496">
        <ele>261</ele>
        <time>2016-07-14T17:31:38Z</time>
      </trkpt>
      <trkpt lat="43.29312" lon="5.65488">
        <ele>261</ele>
        <time>2016-07-14T17:33:38Z</time>
      </trkpt>
      <trkpt lat="43.29289" lon="5.65464">
        <ele>256</ele>
        <time>2016-07-14T17:35:38Z</time>
      </trkpt>
      <trkpt lat="43.29277" lon="5.65452">
        <ele>252</ele>
        <time>2016-07-14T17:37:38Z</time>
      </trkpt>
      <trkpt lat="43.29267" lon="5.6544">
        <ele>249</ele>
        <time>2016-07-14T17:39:38Z</time>
      </trkpt>
      <trkpt lat="43.29259" lon="5.65429">
        <ele>246</ele>
        <time>2016-07-14T17:41:38Z</time>
      </trkpt>
      <trkpt lat="43.29254" lon="5.65417">
        <ele>244</ele>
        <time>2016-07-14T17:43:38Z</time>
      </trkpt>
      <trkpt lat="43.29242" lon="5.65385">
        <ele>245</ele>
        <time>2016-07-14T17:45:38Z</time>
      </trkpt>
      <trkpt lat="43.29224" lon="5.65318">
        <ele>247</ele>
        <time>2016-07-14T17:47:38Z</time>
      </trkpt>
      <trkpt lat="43.29218" lon="5.65296">
        <ele>247</ele>
        <time>2016-07-14T17:49:38Z</time>
      </trkpt>
      <trkpt lat="43.29216" lon="5.65288">
        <ele>247</ele>
        <time>2016-07-14T17:51:38Z</time>
      </trkpt>
      <trkpt lat="43.2921" lon="5.65264">
        <ele>247</ele>
        <time>2016-07-14T17:53:38Z</time>
      </trkpt>
      <trkpt lat="43.29207" lon="5.65247">
        <ele>247</ele>
        <time>2016-07-14T17:55:38Z</time>
      </trkpt>
      <trkpt lat="43.29205" lon="5.65232">
        <ele>247</ele>
        <time>2016-07-14T17:57:38Z</time>
      </trkpt>
      <trkpt lat="43.29205" lon="5.65212">
        <ele>247</ele>
        <time>2016-07-14T17:59:38Z</time>
      </trkpt>
      <trkpt lat="43.29207" lon="5.6519">
        <ele>248</ele>
        <time>2016-07-14T18:01:38Z</time>
      </trkpt>
      <trkpt lat="43.2921" lon="5.65171">
        <ele>249</ele>
        <time>2016-07-14T18:03:38Z</time>
      </trkpt>
      <trkpt lat="43.29212" lon="5.6516">
        <ele>251</ele>
        <time>2016-07-14T18:05:38Z</time>
      </trkpt>
      <trkpt lat="43.29216" lon="5.65138">
        <ele>254</ele>
        <time>2016-07-14T18:07:38Z</time>
      </trkpt>
      <trkpt lat="43.29218" lon="5.65122">
        <ele>255</ele>
        <time>2016-07-14T18:09:38Z</time>
      </trkpt>
      <trkpt lat="43.29218" lon="5.65108">
        <ele>256</ele>
        <time>2016-07-14T18:11:38Z</time>
      </trkpt>
      <trkpt lat="43.29214" lon="5.65088">
        <ele>255</ele>
        <time>2016-07-14T18:13:38Z</time>
      </trkpt>
      <trkpt lat="43.29209" lon="5.65075">
        <ele>252</ele>
        <time>2016-07-14T18:15:38Z</time>
      </trkpt>
      <trkpt lat="43.29202" lon="5.6506">
        <ele>248</ele>
        <time>2016-07-14T18:17:38Z</time>
      </trkpt>
      <trkpt lat="43.29196" lon="5.65045">
        <ele>245</ele>
        <time>2016-07-14T18:19:38Z</time>
      </trkpt>
      <trkpt lat="43.29191" lon="5.65026">
        <ele>242</ele>
        <time>2016-07-14T18:21:38Z</time>
      </trkpt>
      <trkpt lat="43.29189" lon="5.65006">
        <ele>240</ele>
        <time>2016-07-14T18:23:38Z</time>
      </trkpt>
      <trkpt lat="43.29188" lon="5.64959">
        <ele>235</ele>
        <time>2016-07-14T18:25:38Z</time>
      </trkpt>
      <trkpt lat="43.29187" lon="5.64949">
        <ele>234</ele>
        <time>2016-07-14T18:27:38Z</time>
      </trkpt>
      <trkpt lat="43.29188" lon="5.64936">
        <ele>233</ele>
        <time>2016-07-14T18:29:38Z</time>
      </trkpt>
      <trkpt lat="43.29187" lon="5.64923">
        <ele>231</ele>
        <time>2016-07-14T18:31:38Z</time>
      </trkpt>
      <trkpt lat="43.29186" lon="5.64914">
        <ele>230</ele>
        <time>2016-07-14T18:33:38Z</time>
      </trkpt>
      <trkpt lat="43.29184" lon="5.64903">
        <ele>227</ele>
        <time>2016-07-14T18:35:38Z</time>
      </trkpt>
      <trkpt lat="43.29184" lon="5.64903">
        <ele>227</ele>
        <time>2016-07-14T18:37:38Z</time>
      </trkpt>
      <trkpt lat="43.29185" lon="5.64899">
        <ele>227</ele>
        <time>2016-07-14T18:39:38Z</time>
      </trkpt>
      <trkpt lat="43.29185" lon="5.64897">
        <ele>227</ele>
        <time>2016-07-14T18:41:38Z</time>
      </trkpt>
      <trkpt lat="43.29186" lon="5.64895">
        <ele>227</ele>
        <time>2016-07-14T18:43:38Z</time>
      </trkpt>
      <trkpt lat="43.29184" lon="5.64893">
        <ele>225</ele>
        <time>2016-07-14T18:45:38Z</time>
      </trkpt>
      <trkpt lat="43.29183" lon="5.64891">
        <ele>225</ele>
        <time>2016-07-14T18:47:38Z</time>
      </trkpt>
      <trkpt lat="43.29181" lon="5.6489">
        <ele>224</ele>
        <time>2016-07-14T18:49:38Z</time>
      </trkpt>
      <trkpt lat="43.2918" lon="5.64889">
        <ele>223</ele>
        <time>2016-07-14T18:51:38Z</time>
      </trkpt>
      <trkpt lat="43.29178" lon="5.64889">
        <ele>222</ele>
        <time>2016-07-14T18:53:38Z</time>
      </trkpt>
      <trkpt lat="43.29169" lon="5.64883">
        <ele>218</ele>
        <time>2016-07-14T18:55:38Z</time>
      </trkpt>
      <trkpt lat="43.29161" lon="5.6488">
        <ele>217</ele>
        <time>2016-07-14T18:57:38Z</time>
      </trkpt>
      <trkpt lat="43.29154" lon="5.64876">
        <ele>217</ele>
        <time>2016-07-14T18:59:38Z</time>
      </trkpt>
      <trkpt lat="43.29147" lon="5.64872">
        <ele>217</ele>
        <time>2016-07-14T19:01:38Z</time>
      </trkpt>
      <trkpt lat="43.29143" lon="5.64869">
        <ele>217</ele>
        <time>2016-07-14T19:03:38Z</time>
      </trkpt>
      <trkpt lat="43.29139" lon="5.64866">
        <ele>217</ele>
        <time>2016-07-14T19:05:38Z</time>
      </trkpt>
      <trkpt lat="43.29134" lon="5.64864">
        <ele>218</ele>
        <time>2016-07-14T19:07:38Z</time>
      </trkpt>
      <trkpt lat="43.29126" lon="5.6486">
        <ele>219</ele>
        <time>2016-07-14T19:09:38Z</time>
      </trkpt>
      <trkpt lat="43.29121" lon="5.64858">
        <ele>219</ele>
        <time>2016-07-14T19:11:38Z</time>
      </trkpt>
      <trkpt lat="43.29109" lon="5.64854">
        <ele>221</ele>
        <time>2016-07-14T19:13:38Z</time>
      </trkpt>
      <trkpt lat="43.29107" lon="5.64853">
        <ele>221</ele>
        <time>2016-07-14T19:15:38Z</time>
      </trkpt>
      <trkpt lat="43.29105" lon="5.64851">
        <ele>221</ele>
        <time>2016-07-14T19:17:38Z</time>
      </trkpt>
      <trkpt lat="43.29102" lon="5.64848">
        <ele>222</ele>
        <time>2016-07-14T19:19:38Z</time>
      </trkpt>
      <trkpt lat="43.29099" lon="5.64842">
        <ele>223</ele>
        <time>2016-07-14T19:21:38Z</time>
      </trkpt>
      <trkpt lat="43.29098" lon="5.64835">
        <ele>223</ele>
        <time>2016-07-14T19:23:38Z</time>
      </trkpt>
      <trkpt lat="43.29099" lon="5.64825">
        <ele>224</ele>
        <time>2016-07-14T19:25:38Z</time>
      </trkpt>
      <trkpt lat="43.291" lon="5.64816">
        <ele>225</ele>
        <time>2016-07-14T19:27:38Z</time>
      </trkpt>
      <trkpt lat="43.29102" lon="5.64811">
        <ele>225</ele>
        <time>2016-07-14T19:29:38Z</time>
      </trkpt>
      <trkpt lat="43.29104" lon="5.64808">
        <ele>224</ele>
        <time>2016-07-14T19:31:38Z</time>
      </trkpt>
      <trkpt lat="43.29106" lon="5.64804">
        <ele>224</ele>
        <time>2016-07-14T19:33:38Z</time>
      </trkpt>
      <trkpt lat="43.29108" lon="5.64801">
        <ele>224</ele>
        <time>2016-07-14T19:35:38Z</time>
      </trkpt>
      <trkpt lat="43.29116" lon="5.64795">
        <ele>222</ele>
        <time>2016-07-14T19:37:38Z</time>
      </trkpt>
      <trkpt lat="43.2913" lon="5.64784">
        <ele>219</ele>
        <time>2016-07-14T19:39:38Z</time>
      </trkpt>
      <trkpt lat="43.29141" lon="5.64775">
        <ele>215</ele>
        <time>2016-07-14T19:41:38Z</time>
      </trkpt>
      <trkpt lat="43.29146" lon="5.64768">
        <ele>213</ele>
        <time>2016-07-14T19:43:38Z</time>
      </trkpt>
      <trkpt lat="43.29149" lon="5.64762">
        <ele>212</ele>
        <time>2016-07-14T19:45:38Z</time>
      </trkpt>
      <trkpt lat="43.2915" lon="5.64757">
        <ele>212</ele>
        <time>2016-07-14T19:47:38Z</time>
      </trkpt>
      <trkpt lat="43.29151" lon="5.64751">
        <ele>211</ele>
        <time>2016-07-14T19:49:38Z</time>
      </trkpt>
      <trkpt lat="43.29153" lon="5.64739">
        <ele>210</ele>
        <time>2016-07-14T19:51:38Z</time>
      </trkpt>
      <trkpt lat="43.29155" lon="5.64704">
        <ele>208</ele>
        <time>2016-07-14T19:53:38Z</time>
      </trkpt>
      <trkpt lat="43.29156" lon="5.64679">
        <ele>207</ele>
        <time>2016-07-14T19:55:38Z</time>
      </trkpt>
      <trkpt lat="43.29157" lon="5.64665">
        <ele>206</ele>
        <time>2016-07-14T19:57:38Z</time>
      </trkpt>
      <trkpt lat="43.29157" lon="5.64656">
        <ele>206</ele>
        <time>2016-07-14T19:59:38Z</time>
      </trkpt>
      <trkpt lat="43.29155" lon="5.64649">
        <ele>206</ele>
        <time>2016-07-14T20:01:38Z</time>
      </trkpt>
      <trkpt lat="43.29149" lon="5.64641">
        <ele>207</ele>
        <time>2016-07-14T20:03:38Z</time>
      </trkpt>
      <trkpt lat="43.29142" lon="5.64635">
        <ele>210</ele>
        <time>2016-07-14T20:05:38Z</time>
      </trkpt>
      <trkpt lat="43.29138" lon="5.64632">
        <ele>211</ele>
        <time>2016-07-14T20:07:38Z</time>
      </trkpt>
      <trkpt lat="43.29135" lon="5.64629">
        <ele>211</ele>
        <time>2016-07-14T20:09:38Z</time>
      </trkpt>
      <trkpt lat="43.29127" lon="5.64621">
        <ele>213</ele>
        <time>2016-07-14T20:11:38Z</time>
      </trkpt>
      <trkpt lat="43.29123" lon="5.64615">
        <ele>214</ele>
        <time>2016-07-14T20:13:38Z</time>
      </trkpt>
      <trkpt lat="43.29113" lon="5.64597">
        <ele>214</ele>
        <time>2016-07-14T20:15:38Z</time>
      </trkpt>
      <trkpt lat="43.29106" lon="5.64583">
        <ele>213</ele>
        <time>2016-07-14T20:17:38Z</time>
      </trkpt>
      <trkpt lat="43.29099" lon="5.64567">
        <ele>212</ele>
        <time>2016-07-14T20:19:38Z</time>
      </trkpt>
      <trkpt lat="43.29096" lon="5.64557">
        <ele>212</ele>
        <time>2016-07-14T20:21:38Z</time>
      </trkpt>
      <trkpt lat="43.29091" lon="5.64543">
        <ele>211</ele>
        <time>2016-07-14T20:23:38Z</time>
      </trkpt>
      <trkpt lat="43.29085" lon="5.64531">
        <ele>210</ele>
        <time>2016-07-14T20:25:38Z</time>
      </trkpt>
      <trkpt lat="43.29079" lon="5.64516">
        <ele>209</ele>
        <time>2016-07-14T20:27:38Z</time>
      </trkpt>
      <trkpt lat="43.29064" lon="5.64488">
        <ele>211</ele>
        <time>2016-07-14T20:29:38Z</time>
      </trkpt>
      <trkpt lat="43.29061" lon="5.64482">
        <ele>213</ele>
        <time>2016-07-14T20:31:38Z</time>
      </trkpt>
      <trkpt lat="43.29061" lon="5.64476">
        <ele>213</ele>
        <time>2016-07-14T20:33:38Z</time>
      </trkpt>
      <trkpt lat="43.29061" lon="5.64469">
        <ele>214</ele>
        <time>2016-07-14T20:35:38Z</time>
      </trkpt>
      <trkpt lat="43.29064" lon="5.64462">
        <ele>214</ele>
        <time>2016-07-14T20:37:38Z</time>
      </trkpt>
      <trkpt lat="43.29068" lon="5.64456">
        <ele>214</ele>
        <time>2016-07-14T20:39:38Z</time>
      </trkpt>
      <trkpt lat="43.29073" lon="5.6445">
        <ele>213</ele>
        <time>2016-07-14T20:41:38Z</time>
      </trkpt>
      <trkpt lat="43.29081" lon="5.64444">
        <ele>212</ele>
        <time>2016-07-14T20:43:38Z</time>
      </trkpt>
      <trkpt lat="43.2909" lon="5.64433">
        <ele>211</ele>
        <time>2016-07-14T20:45:38Z</time>
      </trkpt>
      <trkpt lat="43.29102" lon="5.64418">
        <ele>209</ele>
        <time>2016-07-14T20:47:38Z</time>
      </trkpt>
      <trkpt lat="43.29107" lon="5.6441">
        <ele>209</ele>
        <time>2016-07-14T20:49:38Z</time>
      </trkpt>
      <trkpt lat="43.2912" lon="5.64393">
        <ele>209</ele>
        <time>2016-07-14T20:51:38Z</time>
      </trkpt>
      <trkpt lat="43.29127" lon="5.64382">
        <ele>208</ele>
        <time>2016-07-14T20:53:38Z</time>
      </trkpt>
      <trkpt lat="43.29146" lon="5.64357">
        <ele>204</ele>
        <time>2016-07-14T20:55:38Z</time>
      </trkpt>
      <trkpt lat="43.29162" lon="5.64334">
        <ele>199</ele>
        <time>2016-07-14T20:57:38Z</time>
      </trkpt>
      <trkpt lat="43.29166" lon="5.64328">
        <ele>198</ele>
        <time>2016-07-14T20:59:38Z</time>
      </trkpt>
      <trkpt lat="43.29168" lon="5.64325">
        <ele>197</ele>
        <time>2016-07-14T21:01:38Z</time>
      </trkpt>
      <trkpt lat="43.2917" lon="5.6432">
        <ele>197</ele>
        <time>2016-07-14T21:03:38Z</time>
      </trkpt>
      <trkpt lat="43.29172" lon="5.64312">
        <ele>198</ele>
        <time>2016-07-14T21:05:38Z</time>
      </trkpt>
      <trkpt lat="43.29174" lon="5.64305">
        <ele>198</ele>
        <time>2016-07-14T21:07:38Z</time>
      </trkpt>
      <trkpt lat="43.29175" lon="5.64297">
        <ele>198</ele>
        <time>2016-07-14T21:09:38Z</time>
      </trkpt>
      <trkpt lat="43.29177" lon="5.64278">
        <ele>199</ele>
        <time>2016-07-14T21:11:38Z</time>
      </trkpt>
      <trkpt lat="43.2918" lon="5.6426">
        <ele>199</ele>
        <time>2016-07-14T21:13:38Z</time>
      </trkpt>
      <trkpt lat="43.29184" lon="5.64228">
        <ele>199</ele>
        <time>2016-07-14T21:15:38Z</time>
      </trkpt>
      <trkpt lat="43.29187" lon="5.64209">
        <ele>199</ele>
        <time>2016-07-14T21:17:38Z</time>
      </trkpt>
      <trkpt lat="43.29191" lon="5.64195">
        <ele>199</ele>
        <time>2016-07-14T21:19:38Z</time>
      </trkpt>
      <trkpt lat="43.29195" lon="5.64181">
        <ele>198</ele>
        <time>2016-07-14T21:21:38Z</time>
      </trkpt>
      <trkpt lat="43.29199" lon="5.64171">
        <ele>198</ele>
        <time>2016-07-14T21:23:38Z</time>
      </trkpt>
      <trkpt lat="43.29205" lon="5.64156">
        <ele>197</ele>
        <time>2016-07-14T21:25:38Z</time>
      </trkpt>
      <trkpt lat="43.29215" lon="5.64136">
        <ele>196</ele>
        <time>2016-07-14T21:27:38Z</time>
      </trkpt>
      <trkpt lat="43.29223" lon="5.64119">
        <ele>195</ele>
        <time>2016-07-14T21:29:38Z</time>
      </trkpt>
      <trkpt lat="43.29228" lon="5.64115">
        <ele>194</ele>
        <time>2016-07-14T21:31:38Z</time>
      </trkpt>
      <trkpt lat="43.29239" lon="5.64095">
        <ele>192</ele>
        <time>2016-07-14T21:33:38Z</time>
      </trkpt>
      <trkpt lat="43.2925" lon="5.64072">
        <ele>189</ele>
        <time>2016-07-14T21:35:38Z</time>
      </trkpt>
      <trkpt lat="43.29259" lon="5.64054">
        <ele>189</ele>
        <time>2016-07-14T21:37:38Z</time>
      </trkpt>
      <trkpt lat="43.29263" lon="5.64042">
        <ele>188</ele>
        <time>2016-07-14T21:39:38Z</time>
      </trkpt>
      <trkpt lat="43.29265" lon="5.64036">
        <ele>188</ele>
        <time>2016-07-14T21:41:38Z</time>
      </trkpt>
      <trkpt lat="43.29269" lon="5.6402">
        <ele>187</ele>
        <time>2016-07-14T21:43:38Z</time>
      </trkpt>
      <trkpt lat="43.29273" lon="5.63998">
        <ele>186</ele>
        <time>2016-07-14T21:45:38Z</time>
      </trkpt>
      <trkpt lat="43.29277" lon="5.63971">
        <ele>187</ele>
        <time>2016-07-14T21:47:38Z</time>
      </trkpt>
      <trkpt lat="43.29278" lon="5.63962">
        <ele>187</ele>
        <time>2016-07-14T21:49:38Z</time>
      </trkpt>
      <trkpt lat="43.29277" lon="5.63958">
        <ele>187</ele>
        <time>2016-07-14T21:51:38Z</time>
      </trkpt>
      <trkpt lat="43.29281" lon="5.63939">
        <ele>188</ele>
        <time>2016-07-14T21:53:38Z</time>
      </trkpt>
      <trkpt lat="43.29284" lon="5.63922">
        <ele>188</ele>
        <time>2016-07-14T21:55:38Z</time>
      </trkpt>
      <trkpt lat="43.29288" lon="5.63908">
        <ele>189</ele>
        <time>2016-07-14T21:57:38Z</time>
      </trkpt>
      <trkpt lat="43.29292" lon="5.63895">
        <ele>189</ele>
        <time>2016-07-14T21:59:38Z</time>
      </trkpt>
      <trkpt lat="43.29296" lon="5.63887">
        <ele>189</ele>
        <time>2016-07-14T22:01:38Z</time>
      </trkpt>
      <trkpt lat="43.29302" lon="5.63873">
        <ele>189</ele>
        <time>2016-07-14T22:03:38Z</time>
      </trkpt>
      <trkpt lat="43.29308" lon="5.63862">
        <ele>189</ele>
        <time>2016-07-14T22:05:38Z</time>
      </trkpt>
      <trkpt lat="43.29315" lon="5.63852">
        <ele>188</ele>
        <time>2016-07-14T22:07:38Z</time>
      </trkpt>
      <trkpt lat="43.29319" lon="5.63848">
        <ele>188</ele>
        <time>2016-07-14T22:09:38Z</time>
      </trkpt>
      <trkpt lat="43.29323" lon="5.63843">
        <ele>187</ele>
        <time>2016-07-14T22:11:38Z</time>
      </trkpt>
      <trkpt lat="43.29327" lon="5.63839">
        <ele>186</ele>
        <time>2016-07-14T22:13:38Z</time>
      </trkpt>
      <trkpt lat="43.29332" lon="5.63836">
        <ele>185</ele>
        <time>2016-07-14T22:15:38Z</time>
      </trkpt>
      <trkpt lat="43.29336" lon="5.63833">
        <ele>185</ele>
        <time>2016-07-14T22:17:38Z</time>
      </trkpt>
      <trkpt lat="43.29338" lon="5.63831">
        <ele>185</ele>
        <time>2016-07-14T22:19:38Z</time>
      </trkpt>
      <trkpt lat="43.29342" lon="5.63827">
        <ele>184</ele>
        <time>2016-07-14T22:21:38Z</time>
      </trkpt>
      <trkpt lat="43.29346" lon="5.63823">
        <ele>184</ele>
        <time>2016-07-14T22:23:38Z</time>
      </trkpt>
      <trkpt lat="43.2935" lon="5.63818">
        <ele>184</ele>
        <time>2016-07-14T22:25:38Z</time>
      </trkpt>
      <trkpt lat="43.29354" lon="5.63813">
        <ele>183</ele>
        <time>2016-07-14T22:27:38Z</time>
      </trkpt>
      <trkpt lat="43.29357" lon="5.63807">
        <ele>183</ele>
        <time>2016-07-14T22:29:38Z</time>
      </trkpt>
      <trkpt lat="43.29359" lon="5.63803">
        <ele>183</ele>
        <time>2016-07-14T22:31:38Z</time>
      </trkpt>
      <trkpt lat="43.29359" lon="5.63801">
        <ele>183</ele>
        <time>2016-07-14T22:33:38Z</time>
      </trkpt>
      <trkpt lat="43.29362" lon="5.63795">
        <ele>183</ele>
        <time>2016-07-14T22:35:38Z</time>
      </trkpt>
      <trkpt lat="43.29363" lon="5.6379">
        <ele>183</ele>
        <time>2016-07-14T22:37:38Z</time>
      </trkpt>
      <trkpt lat="43.29364" lon="5.63783">
        <ele>183</ele>
        <time>2016-07-14T22:39:38Z</time>
      </trkpt>
      <trkpt lat="43.29366" lon="5.63776">
        <ele>183</ele>
        <time>2016-07-14T22:41:38Z</time>
      </trkpt>
      <trkpt lat="43.29367" lon="5.63769">
        <ele>183</ele>
        <time>2016-07-14T22:43:38Z</time>
      </trkpt>
      <trkpt lat="43.29368" lon="5.63761">
        <ele>183</ele>
        <time>2016-07-14T22:45:38Z</time>
      </trkpt>
      <trkpt lat="43.2937" lon="5.63752">
        <ele>182</ele>
        <time>2016-07-14T22:47:38Z</time>
      </trkpt>
      <trkpt lat="43.2937" lon="5.63745">
        <ele>183</ele>
        <time>2016-07-14T22:49:38Z</time>
      </trkpt>
      <trkpt lat="43.29372" lon="5.63737">
        <ele>183</ele>
        <time>2016-07-14T22:51:38Z</time>
      </trkpt>
      <trkpt lat="43.29374" lon="5.63729">
        <ele>184</ele>
        <time>2016-07-14T22:53:38Z</time>
      </trkpt>
      <trkpt lat="43.29376" lon="5.63721">
        <ele>184</ele>
        <time>2016-07-14T22:55:38Z</time>
      </trkpt>
      <trkpt lat="43.29378" lon="5.63714">
        <ele>184</ele>
        <time>2016-07-14T22:57:38Z</time>
      </trkpt>
      <trkpt lat="43.29381" lon="5.63708">
        <ele>184</ele>
        <time>2016-07-14T22:59:38Z</time>
      </trkpt>
      <trkpt lat="43.29384" lon="5.63702">
        <ele>184</ele>
        <time>2016-07-14T23:01:38Z</time>
      </trkpt>
      <trkpt lat="43.29388" lon="5.63696">
        <ele>184</ele>
        <time>2016-07-14T23:03:38Z</time>
      </trkpt>
      <trkpt lat="43.29395" lon="5.63686">
        <ele>183</ele>
        <time>2016-07-14T23:05:38Z</time>
      </trkpt>
      <trkpt lat="43.29401" lon="5.6368">
        <ele>182</ele>
        <time>2016-07-14T23:07:38Z</time>
      </trkpt>
      <trkpt lat="43.2943" lon="5.63653">
        <ele>180</ele>
        <time>2016-07-14T23:09:38Z</time>
      </trkpt>
      <trkpt lat="43.2944" lon="5.63644">
        <ele>179</ele>
        <time>2016-07-14T23:11:38Z</time>
      </trkpt>
      <trkpt lat="43.29446" lon="5.63637">
        <ele>179</ele>
        <time>2016-07-14T23:13:38Z</time>
      </trkpt>
      <trkpt lat="43.29452" lon="5.63631">
        <ele>178</ele>
        <time>2016-07-14T23:15:38Z</time>
      </trkpt>
      <trkpt lat="43.29458" lon="5.63623">
        <ele>178</ele>
        <time>2016-07-14T23:17:38Z</time>
      </trkpt>
      <trkpt lat="43.29475" lon="5.63598">
        <ele>176</ele>
        <time>2016-07-14T23:19:38Z</time>
      </trkpt>
      <trkpt lat="43.29481" lon="5.6359">
        <ele>175</ele>
        <time>2016-07-14T23:21:38Z</time>
      </trkpt>
      <trkpt lat="43.29491" lon="5.63576">
        <ele>175</ele>
        <time>2016-07-14T23:23:38Z</time>
      </trkpt>
      <trkpt lat="43.29497" lon="5.63568">
        <ele>175</ele>
        <time>2016-07-14T23:25:38Z</time>
      </trkpt>
      <trkpt lat="43.29501" lon="5.63562">
        <ele>176</ele>
        <time>2016-07-14T23:27:38Z</time>
      </trkpt>
      <trkpt lat="43.29506" lon="5.63558">
        <ele>177</ele>
        <time>2016-07-14T23:29:38Z</time>
      </trkpt>
      <trkpt lat="43.29512" lon="5.63553">
        <ele>177</ele>
        <time>2016-07-14T23:31:38Z</time>
      </trkpt>
      <trkpt lat="43.29518" lon="5.63548">
        <ele>178</ele>
        <time>2016-07-14T23:33:38Z</time>
      </trkpt>
      <trkpt lat="43.29531" lon="5.63539">
        <ele>179</ele>
        <time>2016-07-14T23:35:38Z</time>
      </trkpt>
      <trkpt lat="43.29573" lon="5.63516">
        <ele>179</ele>
        <time>2016-07-14T23:37:38Z</time>
      </trkpt>
      <trkpt lat="43.29597" lon="5.63498">
        <ele>179</ele>
        <time>2016-07-14T23:39:38Z</time>
      </trkpt>
      <trkpt lat="43.29613" lon="5.63486">
        <ele>178</ele>
        <time>2016-07-14T23:41:38Z</time>
      </trkpt>
      <trkpt lat="43.29618" lon="5.63482">
        <ele>178</ele>
        <time>2016-07-14T23:43:38Z</time>
      </trkpt>
      <trkpt lat="43.29624" lon="5.63477">
        <ele>177</ele>
        <time>2016-07-14T23:45:38Z</time>
      </trkpt>
      <trkpt lat="43.29628" lon="5.63473">
        <ele>176</ele>
        <time>2016-07-14T23:47:38Z</time>
      </trkpt>
      <trkpt lat="43.29631" lon="5.63468">
        <ele>176</ele>
        <time>2016-07-14T23:49:38Z</time>
      </trkpt>
      <trkpt lat="43.29633" lon="5.63462">
        <ele>175</ele>
        <time>2016-07-14T23:51:38Z</time>
      </trkpt>
      <trkpt lat="43.29635" lon="5.63458">
        <ele>175</ele>
        <time>2016-07-14T23:53:38Z</time>
      </trkpt>
      <trkpt lat="43.29635" lon="5.63453">
        <ele>175</ele>
        <time>2016-07-14T23:55:38Z</time>
      </trkpt>
      <trkpt lat="43.29635" lon="5.63448">
        <ele>175</ele>
        <time>2016-07-14T23:57:38Z</time>
      </trkpt>
      <trkpt lat="43.29634" lon="5.63437">
        <ele>175</ele>
        <time>2016-07-14T23:59:38Z</time>
      </trkpt>
      <trkpt lat="43.29632" lon="5.63414">
        <ele>175</ele>
        <time>2016-07-15T00:01:38Z</time>
      </trkpt>
      <trkpt lat="43.29631" lon="5.63407">
        <ele>175</ele>
        <time>2016-07-15T00:03:38Z</time>
      </trkpt>
      <trkpt lat="43.29631" lon="5.63403">
        <ele>175</ele>
        <time>2016-07-15T00:05:38Z</time>
      </trkpt>
      <trkpt lat="43.2963" lon="5.63395">
        <ele>176</ele>
        <time>2016-07-15T00:07:38Z</time>
      </trkpt>
      <trkpt lat="43.2963" lon="5.63388">
        <ele>176</ele>
        <time>2016-07-15T00:09:38Z</time>
      </trkpt>
      <trkpt lat="43.2963" lon="5.63381">
        <ele>176</ele>
        <time>2016-07-15T00:11:38Z</time>
      </trkpt>
      <trkpt lat="43.29631" lon="5.63375">
        <ele>176</ele>
        <time>2016-07-15T00:13:38Z</time>
      </trkpt>
      <trkpt lat="43.29632" lon="5.63366">
        <ele>176</ele>
        <time>2016-07-15T00:15:38Z</time>
      </trkpt>
      <trkpt lat="43.29634" lon="5.63356">
        <ele>175</ele>
        <time>2016-07-15T00:17:38Z</time>
      </trkpt>
      <trkpt lat="43.29636" lon="5.63347">
        <ele>174</ele>
        <time>2016-07-15T00:19:38Z</time>
      </trkpt>
      <trkpt lat="43.29639" lon="5.63337">
        <ele>173</ele>
        <time>2016-07-15T00:21:38Z</time>
      </trkpt>
      <trkpt lat="43.29641" lon="5.63331">
        <ele>173</ele>
        <time>2016-07-15T00:23:38Z</time>
      </trkpt>
      <trkpt lat="43.29645" lon="5.63324">
        <ele>172</ele>
        <time>2016-07-15T00:25:38Z</time>
      </trkpt>
      <trkpt lat="43.29648" lon="5.63317">
        <ele>171</ele>
        <time>2016-07-15T00:27:38Z</time>
      </trkpt>
      <trkpt lat="43.29651" lon="5.63312">
        <ele>171</ele>
        <time>2016-07-15T00:29:38Z</time>
      </trkpt>
      <trkpt lat="43.29658" lon="5.63305">
        <ele>169</ele>
        <time>2016-07-15T00:31:38Z</time>
      </trkpt>
      <trkpt lat="43.29668" lon="5.63298">
        <ele>166</ele>
        <time>2016-07-15T00:33:38Z</time>
      </trkpt>
      <trkpt lat="43.29681" lon="5.63289">
        <ele>166</ele>
        <time>2016-07-15T00:35:38Z</time>
      </trkpt>
      <trkpt lat="43.29687" lon="5.63285">
        <ele>166</ele>
        <time>2016-07-15T00:37:38Z</time>
      </trkpt>
      <trkpt lat="43.29692" lon="5.6328">
        <ele>166</ele>
        <time>2016-07-15T00:39:38Z</time>
      </trkpt>
      <trkpt lat="43.29697" lon="5.63275">
        <ele>165</ele>
        <time>2016-07-15T00:41:38Z</time>
      </trkpt>
      <trkpt lat="43.29701" lon="5.63269">
        <ele>165</ele>
        <time>2016-07-15T00:43:38Z</time>
      </trkpt>
      <trkpt lat="43.29714" lon="5.63251">
        <ele>163</ele>
        <time>2016-07-15T00:45:38Z</time>
      </trkpt>
      <trkpt lat="43.29726" lon="5.63233">
        <ele>162</ele>
        <time>2016-07-15T00:47:38Z</time>
      </trkpt>
      <trkpt lat="43.29732" lon="5.63225">
        <ele>161</ele>
        <time>2016-07-15T00:49:38Z</time>
      </trkpt>
      <trkpt lat="43.29736" lon="5.63218">
        <ele>161</ele>
        <time>2016-07-15T00:51:38Z</time>
      </trkpt>
      <trkpt lat="43.2974" lon="5.6321">
        <ele>160</ele>
        <time>2016-07-15T00:53:38Z</time>
      </trkpt>
      <trkpt lat="43.29744" lon="5.63202">
        <ele>159</ele>
        <time>2016-07-15T00:55:38Z</time>
      </trkpt>
      <trkpt lat="43.29746" lon="5.63198">
        <ele>159</ele>
        <time>2016-07-15T00:57:38Z</time>
      </trkpt>
      <trkpt lat="43.29746" lon="5.63198">
        <ele>159</ele>
        <time>2016-07-15T00:59:38Z</time>
      </trkpt>
      <trkpt lat="43.29747" lon="5.63193">
        <ele>159</ele>
        <time>2016-07-15T01:01:38Z</time>
      </trkpt>
      <trkpt lat="43.29748" lon="5.63191">
        <ele>159</ele>
        <time>2016-07-15T01:03:38Z</time>
      </trkpt>
      <trkpt lat="43.29749" lon="5.63185">
        <ele>159</ele>
        <time>2016-07-15T01:05:38Z</time>
      </trkpt>
      <trkpt lat="43.29749" lon="5.63176">
        <ele>159</ele>
        <time>2016-07-15T01:07:38Z</time>
      </trkpt>
      <trkpt lat="43.29749" lon="5.63166">
        <ele>159</ele>
        <time>2016-07-15T01:09:38Z</time>
      </trkpt>
      <trkpt lat="43.29749" lon="5.63157">
        <ele>159</ele>
        <time>2016-07-15T01:11:38Z</time>
      </trkpt>
      <trkpt lat="43.29748" lon="5.63149">
        <ele>159</ele>
        <time>2016-07-15T01:13:38Z</time>
      </trkpt>
      <trkpt lat="43.29746" lon="5.6314">
        <ele>159</ele>
        <time>2016-07-15T01:15:38Z</time>
      </trkpt>
      <trkpt lat="43.29743" lon="5.63132">
        <ele>159</ele>
        <time>2016-07-15T01:17:38Z</time>
      </trkpt>
      <trkpt lat="43.29738" lon="5.63118">
        <ele>159</ele>
        <time>2016-07-15T01:19:38Z</time>
      </trkpt>
      <trkpt lat="43.29726" lon="5.6309">
        <ele>160</ele>
        <time>2016-07-15T01:21:38Z</time>
      </trkpt>
      <trkpt lat="43.29705" lon="5.6304">
        <ele>159</ele>
        <time>2016-07-15T01:23:38Z</time>
      </trkpt>
      <trkpt lat="43.29702" lon="5.63032">
        <ele>159</ele>
        <time>2016-07-15T01:25:38Z</time>
      </trkpt>
      <trkpt lat="43.29699" lon="5.63024">
        <ele>159</ele>
        <time>2016-07-15T01:27:38Z</time>
      </trkpt>
      <trkpt lat="43.29699" lon="5.63024">
        <ele>159</ele>
        <time>2016-07-15T01:29:38Z</time>
      </trkpt>
      <trkpt lat="43.29704" lon="5.63011">
        <ele>157</ele>
        <time>2016-07-15T01:31:38Z</time>
      </trkpt>
      <trkpt lat="43.29705" lon="5.63008">
        <ele>157</ele>
        <time>2016-07-15T01:33:38Z</time>
      </trkpt>
      <trkpt lat="43.29717" lon="5.62984">
        <ele>154</ele>
        <time>2016-07-15T01:35:38Z</time>
      </trkpt>
      <trkpt lat="43.2972" lon="5.62975">
        <ele>153</ele>
        <time>2016-07-15T01:37:38Z</time>
      </trkpt>
      <trkpt lat="43.29726" lon="5.62959">
        <ele>152</ele>
        <time>2016-07-15T01:39:38Z</time>
      </trkpt>
      <trkpt lat="43.29728" lon="5.62955">
        <ele>152</ele>
        <time>2016-07-15T01:41:38Z</time>
      </trkpt>
      <trkpt lat="43.29732" lon="5.62942">
        <ele>152</ele>
        <time>2016-07-15T01:43:38Z</time>
      </trkpt>
      <trkpt lat="43.29732" lon="5.62942">
        <ele>152</ele>
        <time>2016-07-15T01:45:38Z</time>
      </trkpt>
      <trkpt lat="43.29734" lon="5.62929">
        <ele>151</ele>
        <time>2016-07-15T01:47:38Z</time>
      </trkpt>
      <trkpt lat="43.29734" lon="5.62925">
        <ele>151</ele>
        <time>2016-07-15T01:49:38Z</time>
      </trkpt>
      <trkpt lat="43.29733" lon="5.6292">
        <ele>151</ele>
        <time>2016-07-15T01:51:38Z</time>
      </trkpt>
      <trkpt lat="43.29732" lon="5.62916">
        <ele>151</ele>
        <time>2016-07-15T01:53:38Z</time>
      </trkpt>
      <trkpt lat="43.29729" lon="5.62909">
        <ele>151</ele>
        <time>2016-07-15T01:55:38Z</time>
      </trkpt>
      <trkpt lat="43.29712" lon="5.62887">
        <ele>151</ele>
        <time>2016-07-15T01:57:38Z</time>
      </trkpt>
      <trkpt lat="43.29702" lon="5.62875">
        <ele>150</ele>
        <time>2016-07-15T01:59:38Z</time>
      </trkpt>
      <trkpt lat="43.29699" lon="5.6287">
        <ele>150</ele>
        <time>2016-07-15T02:01:38Z</time>
      </trkpt>
      <trkpt lat="43.29694" lon="5.62865">
        <ele>149</ele>
        <time>2016-07-15T02:03:38Z</time>
      </trkpt>
      <trkpt lat="43.29692" lon="5.62862">
        <ele>149</ele>
        <time>2016-07-15T02:05:38Z</time>
      </trkpt>
      <trkpt lat="43.29687" lon="5.62855">
        <ele>149</ele>
        <time>2016-07-15T02:07:38Z</time>
      </trkpt>
      <trkpt lat="43.29687" lon="5.62851">
        <ele>148</ele>
        <time>2016-07-15T02:09:38Z</time>
      </trkpt>
      <trkpt lat="43.29686" lon="5.62847">
        <ele>148</ele>
        <time>2016-07-15T02:11:38Z</time>
      </trkpt>
      <trkpt lat="43.29684" lon="5.62843">
        <ele>148</ele>
        <time>2016-07-15T02:13:38Z</time>
      </trkpt>
      <trkpt lat="43.29683" lon="5.62842">
        <ele>148</ele>
        <time>2016-07-15T02:15:38Z</time>
      </trkpt>
      <trkpt lat="43.29682" lon="5.62841">
        <ele>148</ele>
        <time>2016-07-15T02:17:38Z</time>
      </trkpt>
      <trkpt lat="43.2968" lon="5.62841">
        <ele>147</ele>
        <time>2016-07-15T02:19:38Z</time>
      </trkpt>
      <trkpt lat="43.29676" lon="5.62842">
        <ele>147</ele>
        <time>2016-07-15T02:21:38Z</time>
      </trkpt>
      <trkpt lat="43.29676" lon="5.62842">
        <ele>147</ele>
        <time>2016-07-15T02:23:38Z</time>
      </trkpt>
      <trkpt lat="43.2967" lon="5.62832">
        <ele>146</ele>
        <time>2016-07-15T02:25:38Z</time>
      </trkpt>
      <trkpt lat="43.29661" lon="5.62819">
        <ele>146</ele>
        <time>2016-07-15T02:27:38Z</time>
      </trkpt>
      <trkpt lat="43.29609" lon="5.62738">
        <ele>143</ele>
        <time>2016-07-15T02:29:38Z</time>
      </trkpt>
      <trkpt lat="43.29604" lon="5.62732">
        <ele>143</ele>
        <time>2016-07-15T02:31:38Z</time>
      </trkpt>
      <trkpt lat="43.29542" lon="5.62644">
        <ele>141</ele>
        <time>2016-07-15T02:33:38Z</time>
      </trkpt>
      <trkpt lat="43.29539" lon="5.62639">
        <ele>141</ele>
        <time>2016-07-15T02:35:38Z</time>
      </trkpt>
      <trkpt lat="43.29532" lon="5.6263">
        <ele>141</ele>
        <time>2016-07-15T02:37:38Z</time>
      </trkpt>
      <trkpt lat="43.29532" lon="5.6263">
        <ele>141</ele>
        <time>2016-07-15T02:39:38Z</time>
      </trkpt>
      <trkpt lat="43.29482" lon="5.62698">
        <ele>142</ele>
        <time>2016-07-15T02:41:38Z</time>
      </trkpt>
      <trkpt lat="43.29473" lon="5.6271">
        <ele>142</ele>
        <time>2016-07-15T02:43:38Z</time>
      </trkpt>
      <trkpt lat="43.29467" lon="5.62716">
        <ele>142</ele>
        <time>2016-07-15T02:45:38Z</time>
      </trkpt>
      <trkpt lat="43.2946" lon="5.62726">
        <ele>142</ele>
        <time>2016-07-15T02:47:38Z</time>
      </trkpt>
      <trkpt lat="43.29456" lon="5.62731">
        <ele>142</ele>
        <time>2016-07-15T02:49:38Z</time>
      </trkpt>
      <trkpt lat="43.29453" lon="5.62734">
        <ele>142</ele>
        <time>2016-07-15T02:51:38Z</time>
      </trkpt>
      <trkpt lat="43.29449" lon="5.62738">
        <ele>142</ele>
        <time>2016-07-15T02:53:38Z</time>
      </trkpt>
      <trkpt lat="43.29444" lon="5.62741">
        <ele>142</ele>
        <time>2016-07-15T02:55:38Z</time>
      </trkpt>
      <trkpt lat="43.29443" lon="5.62741">
        <ele>142</ele>
        <time>2016-07-15T02:57:38Z</time>
      </trkpt>
      <trkpt lat="43.29442" lon="5.62741">
        <ele>142</ele>
        <time>2016-07-15T02:59:38Z</time>
      </trkpt>
      <trkpt lat="43.29441" lon="5.62741">
        <ele>142</ele>
        <time>2016-07-15T03:01:38Z</time>
      </trkpt>
      <trkpt lat="43.29441" lon="5.62742">
        <ele>142</ele>
        <time>2016-07-15T03:03:38Z</time>
      </trkpt>
      <trkpt lat="43.2944" lon="5.62742">
        <ele>142</ele>
        <time>2016-07-15T03:05:38Z</time>
      </trkpt>
      <trkpt lat="43.29439" lon="5.62742">
        <ele>142</ele>
        <time>2016-07-15T03:07:38Z</time>
      </trkpt>
      <trkpt lat="43.29439" lon="5.62743">
        <ele>142</ele>
        <time>2016-07-15T03:09:38Z</time>
      </trkpt>
      <trkpt lat="43.29438" lon="5.62743">
        <ele>142</ele>
        <time>2016-07-15T03:11:38Z</time>
      </trkpt>
      <trkpt lat="43.29438" lon="5.62744">
        <ele>142</ele>
        <time>2016-07-15T03:13:38Z</time>
      </trkpt>
      <trkpt lat="43.29437" lon="5.62744">
        <ele>142</ele>
        <time>2016-07-15T03:15:38Z</time>
      </trkpt>
      <trkpt lat="43.29437" lon="5.62745">
        <ele>142</ele>
        <time>2016-07-15T03:17:38Z</time>
      </trkpt>
      <trkpt lat="43.29436" lon="5.62745">
        <ele>142</ele>
        <time>2016-07-15T03:19:38Z</time>
      </trkpt>
      <trkpt lat="43.29436" lon="5.62746">
        <ele>142</ele>
        <time>2016-07-15T03:21:38Z</time>
      </trkpt>
      <trkpt lat="43.29435" lon="5.62747">
        <ele>142</ele>
        <time>2016-07-15T03:23:38Z</time>
      </trkpt>
      <trkpt lat="43.29429" lon="5.62749">
        <ele>142</ele>
        <time>2016-07-15T03:25:38Z</time>
      </trkpt>
      <trkpt lat="43.29423" lon="5.62749">
        <ele>142</ele>
        <time>2016-07-15T03:27:38Z</time>
      </trkpt>
      <trkpt lat="43.29416" lon="5.62749">
        <ele>142</ele>
        <time>2016-07-15T03:29:38Z</time>
      </trkpt>
      <trkpt lat="43.2941" lon="5.62748">
        <ele>142</ele>
        <time>2016-07-15T03:31:38Z</time>
      </trkpt>
      <trkpt lat="43.29391" lon="5.62736">
        <ele>141</ele>
        <time>2016-07-15T03:33:38Z</time>
      </trkpt>
      <trkpt lat="43.2936" lon="5.62714">
        <ele>141</ele>
        <time>2016-07-15T03:35:38Z</time>
      </trkpt>
      <trkpt lat="43.29347" lon="5.62706">
        <ele>140</ele>
        <time>2016-07-15T03:37:38Z</time>
      </trkpt>
      <trkpt lat="43.29281" lon="5.62661">
        <ele>138</ele>
        <time>2016-07-15T03:39:38Z</time>
      </trkpt>
      <trkpt lat="43.29276" lon="5.62658">
        <ele>138</ele>
        <time>2016-07-15T03:41:38Z</time>
      </trkpt>
      <trkpt lat="43.29254" lon="5.62643">
        <ele>137</ele>
        <time>2016-07-15T03:43:38Z</time>
      </trkpt>
      <trkpt lat="43.29217" lon="5.62619">
        <ele>136</ele>
        <time>2016-07-15T03:45:38Z</time>
      </trkpt>
      <trkpt lat="43.29206" lon="5.62612">
        <ele>136</ele>
        <time>2016-07-15T03:47:38Z</time>
      </trkpt>
      <trkpt lat="43.29112" lon="5.62549">
        <ele>134</ele>
        <time>2016-07-15T03:49:38Z</time>
      </trkpt>
      <trkpt lat="43.29104" lon="5.62544">
        <ele>134</ele>
        <time>2016-07-15T03:51:38Z</time>
      </trkpt>
      <trkpt lat="43.291" lon="5.62541">
        <ele>134</ele>
        <time>2016-07-15T03:53:38Z</time>
      </trkpt>
      <trkpt lat="43.29095" lon="5.62538">
        <ele>134</ele>
        <time>2016-07-15T03:55:38Z</time>
      </trkpt>
      <trkpt lat="43.29062" lon="5.62516">
        <ele>132</ele>
        <time>2016-07-15T03:57:38Z</time>
      </trkpt>
      <trkpt lat="43.29051" lon="5.62508">
        <ele>132</ele>
        <time>2016-07-15T03:59:38Z</time>
      </trkpt>
      <trkpt lat="43.29026" lon="5.62493">
        <ele>131</ele>
        <time>2016-07-15T04:01:38Z</time>
      </trkpt>
      <trkpt lat="43.29019" lon="5.62489">
        <ele>130</ele>
        <time>2016-07-15T04:03:38Z</time>
      </trkpt>
      <trkpt lat="43.29013" lon="5.62487">
        <ele>130</ele>
        <time>2016-07-15T04:05:38Z</time>
      </trkpt>
      <trkpt lat="43.29009" lon="5.62486">
        <ele>130</ele>
        <time>2016-07-15T04:07:38Z</time>
      </trkpt>
      <trkpt lat="43.29006" lon="5.62485">
        <ele>130</ele>
        <time>2016-07-15T04:09:38Z</time>
      </trkpt>
      <trkpt lat="43.29" lon="5.62485">
        <ele>129</ele>
        <time>2016-07-15T04:11:38Z</time>
      </trkpt>
      <trkpt lat="43.28997" lon="5.62484">
        <ele>129</ele>
        <time>2016-07-15T04:13:38Z</time>
      </trkpt>
      <trkpt lat="43.28987" lon="5.62484">
        <ele>129</ele>
        <time>2016-07-15T04:15:38Z</time>
      </trkpt>
      <trkpt lat="43.28977" lon="5.62484">
        <ele>129</ele>
        <time>2016-07-15T04:17:38Z</time>
      </trkpt>
      <trkpt lat="43.28973" lon="5.62482">
        <ele>129</ele>
        <time>2016-07-15T04:19:38Z</time>
      </trkpt>
      <trkpt lat="43.28952" lon="5.62479">
        <ele>128</ele>
        <time>2016-07-15T04:21:38Z</time>
      </trkpt>
      <trkpt lat="43.28951" lon="5.62477">
        <ele>128</ele>
        <time>2016-07-15T04:23:38Z</time>
      </trkpt>
      <trkpt lat="43.28951" lon="5.62476">
        <ele>128</ele>
        <time>2016-07-15T04:25:38Z</time>
      </trkpt>
      <trkpt lat="43.2895" lon="5.62476">
        <ele>128</ele>
        <time>2016-07-15T04:27:38Z</time>
      </trkpt>
      <trkpt lat="43.2895" lon="5.62475">
        <ele>128</ele>
        <time>2016-07-15T04:29:38Z</time>
      </trkpt>
      <trkpt lat="43.28949" lon="5.62474">
        <ele>128</ele>
        <time>2016-07-15T04:31:38Z</time>
      </trkpt>
      <trkpt lat="43.28949" lon="5.62473">
        <ele>128</ele>
        <time>2016-07-15T04:33:38Z</time>
      </trkpt>
      <trkpt lat="43.28948" lon="5.62472">
        <ele>128</ele>
        <time>2016-07-15T04:35:38Z</time>
      </trkpt>
      <trkpt lat="43.28947" lon="5.62471">
        <ele>127</ele>
        <time>2016-07-15T04:37:38Z</time>
      </trkpt>
      <trkpt lat="43.28946" lon="5.62471">
        <ele>127</ele>
        <time>2016-07-15T04:39:38Z</time>
      </trkpt>
      <trkpt lat="43.28946" lon="5.6247">
        <ele>127</ele>
        <time>2016-07-15T04:41:38Z</time>
      </trkpt>
      <trkpt lat="43.28945" lon="5.6247">
        <ele>127</ele>
        <time>2016-07-15T04:43:38Z</time>
      </trkpt>
      <trkpt lat="43.28944" lon="5.62469">
        <ele>127</ele>
        <time>2016-07-15T04:45:38Z</time>
      </trkpt>
      <trkpt lat="43.28943" lon="5.62469">
        <ele>127</ele>
        <time>2016-07-15T04:47:38Z</time>
      </trkpt>
      <trkpt lat="43.28942" lon="5.62468">
        <ele>127</ele>
        <time>2016-07-15T04:49:38Z</time>
      </trkpt>
      <trkpt lat="43.28941" lon="5.62468">
        <ele>127</ele>
        <time>2016-07-15T04:51:38Z</time>
      </trkpt>
      <trkpt lat="43.2894" lon="5.62468">
        <ele>127</ele>
        <time>2016-07-15T04:53:38Z</time>
      </trkpt>
      <trkpt lat="43.28939" lon="5.62468">
        <ele>127</ele>
        <time>2016-07-15T04:55:38Z</time>
      </trkpt>
      <trkpt lat="43.28938" lon="5.62468">
        <ele>127</ele>
        <time>2016-07-15T04:57:38Z</time>
      </trkpt>
      <trkpt lat="43.28937" lon="5.62468">
        <ele>127</ele>
        <time>2016-07-15T04:59:38Z</time>
      </trkpt>
      <trkpt lat="43.28937" lon="5.62469">
        <ele>127</ele>
        <time>2016-07-15T05:01:38Z</time>
      </trkpt>
      <trkpt lat="43.28936" lon="5.62469">
        <ele>127</ele>
        <time>2016-07-15T05:03:38Z</time>
      </trkpt>
      <trkpt lat="43.28935" lon="5.62469">
        <ele>127</ele>
        <time>2016-07-15T05:05:38Z</time>
      </trkpt>
      <trkpt lat="43.28934" lon="5.6247">
        <ele>127</ele>
        <time>2016-07-15T05:07:38Z</time>
      </trkpt>
      <trkpt lat="43.28933" lon="5.62471">
        <ele>127</ele>
        <time>2016-07-15T05:09:38Z</time>
      </trkpt>
      <trkpt lat="43.28932" lon="5.62471">
        <ele>127</ele>
        <time>2016-07-15T05:11:38Z</time>
      </trkpt>
      <trkpt lat="43.28932" lon="5.62472">
        <ele>127</ele>
        <time>2016-07-15T05:13:38Z</time>
      </trkpt>
      <trkpt lat="43.28931" lon="5.62472">
        <ele>127</ele>
        <time>2016-07-15T05:15:38Z</time>
      </trkpt>
      <trkpt lat="43.2893" lon="5.62473">
        <ele>127</ele>
        <time>2016-07-15T05:17:38Z</time>
      </trkpt>
      <trkpt lat="43.2893" lon="5.62474">
        <ele>127</ele>
        <time>2016-07-15T05:19:38Z</time>
      </trkpt>
      <trkpt lat="43.28929" lon="5.62475">
        <ele>127</ele>
        <time>2016-07-15T05:21:38Z</time>
      </trkpt>
      <trkpt lat="43.28929" lon="5.62476">
        <ele>127</ele>
        <time>2016-07-15T05:23:38Z</time>
      </trkpt>
      <trkpt lat="43.28928" lon="5.62477">
        <ele>127</ele>
        <time>2016-07-15T05:25:38Z</time>
      </trkpt>
      <trkpt lat="43.28928" lon="5.62478">
        <ele>127</ele>
        <time>2016-07-15T05:27:38Z</time>
      </trkpt>
      <trkpt lat="43.28928" lon="5.62479">
        <ele>127</ele>
        <time>2016-07-15T05:29:38Z</time>
      </trkpt>
      <trkpt lat="43.28927" lon="5.62479">
        <ele>127</ele>
        <time>2016-07-15T05:31:38Z</time>
      </trkpt>
      <trkpt lat="43.28927" lon="5.6248">
        <ele>127</ele>
        <time>2016-07-15T05:33:38Z</time>
      </trkpt>
      <trkpt lat="43.28927" lon="5.62481">
        <ele>127</ele>
        <time>2016-07-15T05:35:38Z</time>
      </trkpt>
      <trkpt lat="43.28913" lon="5.62485">
        <ele>127</ele>
        <time>2016-07-15T05:37:38Z</time>
      </trkpt>
      <trkpt lat="43.28907" lon="5.62486">
        <ele>126</ele>
        <time>2016-07-15T05:39:38Z</time>
      </trkpt>
      <trkpt lat="43.28898" lon="5.62486">
        <ele>126</ele>
        <time>2016-07-15T05:41:38Z</time>
      </trkpt>
      <trkpt lat="43.28891" lon="5.62487">
        <ele>126</ele>
        <time>2016-07-15T05:43:38Z</time>
      </trkpt>
      <trkpt lat="43.28848" lon="5.62481">
        <ele>124</ele>
        <time>2016-07-15T05:45:38Z</time>
      </trkpt>
      <trkpt lat="43.28839" lon="5.6248">
        <ele>123</ele>
        <time>2016-07-15T05:47:38Z</time>
      </trkpt>
      <trkpt lat="43.28769" lon="5.62471">
        <ele>123</ele>
        <time>2016-07-15T05:49:38Z</time>
      </trkpt>
      <trkpt lat="43.28762" lon="5.6247">
        <ele>123</ele>
        <time>2016-07-15T05:51:38Z</time>
      </trkpt>
      <trkpt lat="43.28738" lon="5.62468">
        <ele>123</ele>
        <time>2016-07-15T05:53:38Z</time>
      </trkpt>
      <trkpt lat="43.28693" lon="5.62466">
        <ele>123</ele>
        <time>2016-07-15T05:55:38Z</time>
      </trkpt>
      <trkpt lat="43.28673" lon="5.62466">
        <ele>123</ele>
        <time>2016-07-15T05:57:38Z</time>
      </trkpt>
      <trkpt lat="43.28669" lon="5.62466">
        <ele>123</ele>
        <time>2016-07-15T05:59:38Z</time>
      </trkpt>
      <trkpt lat="43.2866" lon="5.62466">
        <ele>122</ele>
        <time>2016-07-15T06:01:38Z</time>
      </trkpt>
      <trkpt lat="43.2865" lon="5.62468">
        <ele>122</ele>
        <time>2016-07-15T06:03:38Z</time>
      </trkpt>
      <trkpt lat="43.2864" lon="5.6247">
        <ele>122</ele>
        <time>2016-07-15T06:05:38Z</time>
      </trkpt>
      <trkpt lat="43.28622" lon="5.62474">
        <ele>121</ele>
        <time>2016-07-15T06:07:38Z</time>
      </trkpt>
      <trkpt lat="43.28609" lon="5.62479">
        <ele>120</ele>
        <time>2016-07-15T06:09:38Z</time>
      </trkpt>
      <trkpt lat="43.28588" lon="5.62487">
        <ele>120</ele>
        <time>2016-07-15T06:11:38Z</time>
      </trkpt>
      <trkpt lat="43.28575" lon="5.62492">
        <ele>119</ele>
        <time>2016-07-15T06:13:38Z</time>
      </trkpt>
      <trkpt lat="43.28564" lon="5.62496">
        <ele>119</ele>
        <time>2016-07-15T06:15:38Z</time>
      </trkpt>
      <trkpt lat="43.2856" lon="5.62497">
        <ele>119</ele>
        <time>2016-07-15T06:17:38Z</time>
      </trkpt>
      <trkpt lat="43.28532" lon="5.62508">
        <ele>118</ele>
        <time>2016-07-15T06:19:38Z</time>
      </trkpt>
      <trkpt lat="43.28513" lon="5.62516">
        <ele>116</ele>
        <time>2016-07-15T06:21:38Z</time>
      </trkpt>
      <trkpt lat="43.28504" lon="5.6252">
        <ele>116</ele>
        <time>2016-07-15T06:23:38Z</time>
      </trkpt>
      <trkpt lat="43.28491" lon="5.62526">
        <ele>115</ele>
        <time>2016-07-15T06:25:38Z</time>
      </trkpt>
      <trkpt lat="43.28464" lon="5.62539">
        <ele>114</ele>
        <time>2016-07-15T06:27:38Z</time>
      </trkpt>
      <trkpt lat="43.28453" lon="5.62544">
        <ele>114</ele>
        <time>2016-07-15T06:29:38Z</time>
      </trkpt>
      <trkpt lat="43.2844" lon="5.62551">
        <ele>114</ele>
        <time>2016-07-15T06:31:38Z</time>
      </trkpt>
      <trkpt lat="43.28436" lon="5.62553">
        <ele>114</ele>
        <time>2016-07-15T06:33:38Z</time>
      </trkpt>
      <trkpt lat="43.28425" lon="5.62559">
        <ele>113</ele>
        <time>2016-07-15T06:35:38Z</time>
      </trkpt>
      <trkpt lat="43.28404" lon="5.62571">
        <ele>113</ele>
        <time>2016-07-15T06:37:38Z</time>
      </trkpt>
      <trkpt lat="43.28379" lon="5.62586">
        <ele>112</ele>
        <time>2016-07-15T06:39:38Z</time>
      </trkpt>
      <trkpt lat="43.28361" lon="5.62597">
        <ele>112</ele>
        <time>2016-07-15T06:41:38Z</time>
      </trkpt>
      <trkpt lat="43.28355" lon="5.62599">
        <ele>112</ele>
        <time>2016-07-15T06:43:38Z</time>
      </trkpt>
      <trkpt lat="43.28347" lon="5.62602">
        <ele>112</ele>
        <time>2016-07-15T06:45:38Z</time>
      </trkpt>
      <trkpt lat="43.28328" lon="5.62614">
        <ele>112</ele>
        <time>2016-07-15T06:47:38Z</time>
      </trkpt>
      <trkpt lat="43.28321" lon="5.62618">
        <ele>112</ele>
        <time>2016-07-15T06:49:38Z</time>
      </trkpt>
      <trkpt lat="43.28318" lon="5.6262">
        <ele>112</ele>
        <time>2016-07-15T06:51:38Z</time>
      </trkpt>
      <trkpt lat="43.28296" lon="5.62631">
        <ele>112</ele>
        <time>2016-07-15T06:53:38Z</time>
      </trkpt>
      <trkpt lat="43.28282" lon="5.62639">
        <ele>113</ele>
        <time>2016-07-15T06:55:38Z</time>
      </trkpt>
      <trkpt lat="43.28243" lon="5.62657">
        <ele>113</ele>
        <time>2016-07-15T06:57:38Z</time>
      </trkpt>
      <trkpt lat="43.28236" lon="5.6266">
        <ele>113</ele>
        <time>2016-07-15T06:59:38Z</time>
      </trkpt>
      <trkpt lat="43.28224" lon="5.62666">
        <ele>113</ele>
        <time>2016-07-15T07:01:38Z</time>
      </trkpt>
      <trkpt lat="43.2822" lon="5.62667">
        <ele>113</ele>
        <time>2016-07-15T07:03:38Z</time>
      </trkpt>
      <trkpt lat="43.28214" lon="5.62669">
        <ele>113</ele>
        <time>2016-07-15T07:05:38Z</time>
      </trkpt>
      <trkpt lat="43.28204" lon="5.62674">
        <ele>113</ele>
        <time>2016-07-15T07:07:38Z</time>
      </trkpt>
      <trkpt lat="43.28203" lon="5.62674">
        <ele>113</ele>
        <time>2016-07-15T07:09:38Z</time>
      </trkpt>
      <trkpt lat="43.2816" lon="5.62693">
        <ele>114</ele>
        <time>2016-07-15T07:11:38Z</time>
      </trkpt>
      <trkpt lat="43.28149" lon="5.62698">
        <ele>114</ele>
        <time>2016-07-15T07:13:38Z</time>
      </trkpt>
      <trkpt lat="43.28138" lon="5.62704">
        <ele>114</ele>
        <time>2016-07-15T07:15:38Z</time>
      </trkpt>
      <trkpt lat="43.28131" lon="5.62707">
        <ele>114</ele>
        <time>2016-07-15T07:17:38Z</time>
      </trkpt>
      <trkpt lat="43.28127" lon="5.6271">
        <ele>114</ele>
        <time>2016-07-15T07:19:38Z</time>
      </trkpt>
      <trkpt lat="43.28118" lon="5.62715">
        <ele>114</ele>
        <time>2016-07-15T07:21:38Z</time>
      </trkpt>
      <trkpt lat="43.28113" lon="5.62718">
        <ele>114</ele>
        <time>2016-07-15T07:23:38Z</time>
      </trkpt>
      <trkpt lat="43.28108" lon="5.62722">
        <ele>115</ele>
        <time>2016-07-15T07:25:38Z</time>
      </trkpt>
      <trkpt lat="43.28105" lon="5.62725">
        <ele>115</ele>
        <time>2016-07-15T07:27:38Z</time>
      </trkpt>
      <trkpt lat="43.28098" lon="5.62731">
        <ele>115</ele>
        <time>2016-07-15T07:29:38Z</time>
      </trkpt>
      <trkpt lat="43.2809" lon="5.62739">
        <ele>115</ele>
        <time>2016-07-15T07:31:38Z</time>
      </trkpt>
      <trkpt lat="43.28085" lon="5.62745">
        <ele>115</ele>
        <time>2016-07-15T07:33:38Z</time>
      </trkpt>
      <trkpt lat="43.2808" lon="5.62752">
        <ele>115</ele>
        <time>2016-07-15T07:35:38Z</time>
      </trkpt>
      <trkpt lat="43.28076" lon="5.62757">
        <ele>116</ele>
        <time>2016-07-15T07:37:38Z</time>
      </trkpt>
      <trkpt lat="43.28073" lon="5.62762">
        <ele>116</ele>
        <time>2016-07-15T07:39:38Z</time>
      </trkpt>
      <trkpt lat="43.28069" lon="5.62768">
        <ele>116</ele>
        <time>2016-07-15T07:41:38Z</time>
      </trkpt>
      <trkpt lat="43.28065" lon="5.62776">
        <ele>117</ele>
        <time>2016-07-15T07:43:38Z</time>
      </trkpt>
      <trkpt lat="43.28062" lon="5.62782">
        <ele>117</ele>
        <time>2016-07-15T07:45:38Z</time>
      </trkpt>
      <trkpt lat="43.2806" lon="5.62789">
        <ele>118</ele>
        <time>2016-07-15T07:47:38Z</time>
      </trkpt>
      <trkpt lat="43.28058" lon="5.62795">
        <ele>118</ele>
        <time>2016-07-15T07:49:38Z</time>
      </trkpt>
      <trkpt lat="43.28056" lon="5.62799">
        <ele>118</ele>
        <time>2016-07-15T07:51:38Z</time>
      </trkpt>
      <trkpt lat="43.28051" lon="5.6282">
        <ele>119</ele>
        <time>2016-07-15T07:53:38Z</time>
      </trkpt>
      <trkpt lat="43.28051" lon="5.6283">
        <ele>120</ele>
        <time>2016-07-15T07:55:38Z</time>
      </trkpt>
      <trkpt lat="43.28047" lon="5.62851">
        <ele>121</ele>
        <time>2016-07-15T07:57:38Z</time>
      </trkpt>
      <trkpt lat="43.28045" lon="5.6286">
        <ele>122</ele>
        <time>2016-07-15T07:59:38Z</time>
      </trkpt>
      <trkpt lat="43.28043" lon="5.62869">
        <ele>122</ele>
        <time>2016-07-15T08:01:38Z</time>
      </trkpt>
      <trkpt lat="43.28041" lon="5.6288">
        <ele>122</ele>
        <time>2016-07-15T08:03:38Z</time>
      </trkpt>
      <trkpt lat="43.28037" lon="5.62895">
        <ele>122</ele>
        <time>2016-07-15T08:05:38Z</time>
      </trkpt>
      <trkpt lat="43.28035" lon="5.62903">
        <ele>123</ele>
        <time>2016-07-15T08:07:38Z</time>
      </trkpt>
      <trkpt lat="43.28033" lon="5.62908">
        <ele>122</ele>
        <time>2016-07-15T08:09:38Z</time>
      </trkpt>
      <trkpt lat="43.28031" lon="5.62917">
        <ele>122</ele>
        <time>2016-07-15T08:11:38Z</time>
      </trkpt>
      <trkpt lat="43.28016" lon="5.6296">
        <ele>124</ele>
        <time>2016-07-15T08:13:38Z</time>
      </trkpt>
      <trkpt lat="43.28013" lon="5.62967">
        <ele>124</ele>
        <time>2016-07-15T08:15:38Z</time>
      </trkpt>
      <trkpt lat="43.2801" lon="5.62977">
        <ele>124</ele>
        <time>2016-07-15T08:17:38Z</time>
      </trkpt>
      <trkpt lat="43.28005" lon="5.62987">
        <ele>123</ele>
        <time>2016-07-15T08:19:38Z</time>
      </trkpt>
      <trkpt lat="43.28001" lon="5.62996">
        <ele>123</ele>
        <time>2016-07-15T08:21:38Z</time>
      </trkpt>
      <trkpt lat="43.27996" lon="5.63005">
        <ele>123</ele>
        <time>2016-07-15T08:23:38Z</time>
      </trkpt>
      <trkpt lat="43.27988" lon="5.63019">
        <ele>122</ele>
        <time>2016-07-15T08:25:38Z</time>
      </trkpt>
      <trkpt lat="43.27979" lon="5.63032">
        <ele>122</ele>
        <time>2016-07-15T08:27:38Z</time>
      </trkpt>
      <trkpt lat="43.2796" lon="5.6306">
        <ele>120</ele>
        <time>2016-07-15T08:29:38Z</time>
      </trkpt>
      <trkpt lat="43.27943" lon="5.63083">
        <ele>117</ele>
        <time>2016-07-15T08:31:38Z</time>
      </trkpt>
      <trkpt lat="43.27934" lon="5.63095">
        <ele>116</ele>
        <time>2016-07-15T08:33:38Z</time>
      </trkpt>
      <trkpt lat="43.27913" lon="5.63122">
        <ele>114</ele>
        <time>2016-07-15T08:35:38Z</time>
      </trkpt>
      <trkpt lat="43.27891" lon="5.63149">
        <ele>115</ele>
        <time>2016-07-15T08:37:38Z</time>
      </trkpt>
      <trkpt lat="43.27885" lon="5.63156">
        <ele>115</ele>
        <time>2016-07-15T08:39:38Z</time>
      </trkpt>
      <trkpt lat="43.27875" lon="5.63169">
        <ele>115</ele>
        <time>2016-07-15T08:41:38Z</time>
      </trkpt>
      <trkpt lat="43.27836" lon="5.63217">
        <ele>115</ele>
        <time>2016-07-15T08:43:38Z</time>
      </trkpt>
      <trkpt lat="43.2783" lon="5.63224">
        <ele>115</ele>
        <time>2016-07-15T08:45:38Z</time>
      </trkpt>
      <trkpt lat="43.27784" lon="5.6328">
        <ele>117</ele>
        <time>2016-07-15T08:47:38Z</time>
      </trkpt>
      <trkpt lat="43.27719" lon="5.63362">
        <ele>119</ele>
        <time>2016-07-15T08:49:38Z</time>
      </trkpt>
      <trkpt lat="43.27672" lon="5.63419">
        <ele>117</ele>
        <time>2016-07-15T08:51:38Z</time>
      </trkpt>
      <trkpt lat="43.27633" lon="5.63466">
        <ele>119</ele>
        <time>2016-07-15T08:53:38Z</time>
      </trkpt>
      <trkpt lat="43.27601" lon="5.63506">
        <ele>120</ele>
        <time>2016-07-15T08:55:38Z</time>
      </trkpt>
      <trkpt lat="43.27601" lon="5.63507">
        <ele>120</ele>
        <time>2016-07-15T08:57:38Z</time>
      </trkpt>
      <trkpt lat="43.27581" lon="5.6353">
        <ele>121</ele>
        <time>2016-07-15T08:59:38Z</time>
      </trkpt>
      <trkpt lat="43.27554" lon="5.63564">
        <ele>122</ele>
        <time>2016-07-15T09:01:38Z</time>
      </trkpt>
      <trkpt lat="43.27544" lon="5.63577">
        <ele>122</ele>
        <time>2016-07-15T09:03:38Z</time>
      </trkpt>
      <trkpt lat="43.27526" lon="5.63598">
        <ele>123</ele>
        <time>2016-07-15T09:05:38Z</time>
      </trkpt>
      <trkpt lat="43.27494" lon="5.63637">
        <ele>124</ele>
        <time>2016-07-15T09:07:38Z</time>
      </trkpt>
      <trkpt lat="43.27456" lon="5.63683">
        <ele>124</ele>
        <time>2016-07-15T09:09:38Z</time>
      </trkpt>
      <trkpt lat="43.27455" lon="5.63685">
        <ele>124</ele>
        <time>2016-07-15T09:11:38Z</time>
      </trkpt>
      <trkpt lat="43.27451" lon="5.6369">
        <ele>124</ele>
        <time>2016-07-15T09:13:38Z</time>
      </trkpt>
      <trkpt lat="43.27431" lon="5.63714">
        <ele>124</ele>
        <time>2016-07-15T09:15:38Z</time>
      </trkpt>
      <trkpt lat="43.27423" lon="5.63718">
        <ele>125</ele>
        <time>2016-07-15T09:17:38Z</time>
      </trkpt>
      <trkpt lat="43.27419" lon="5.63719">
        <ele>125</ele>
        <time>2016-07-15T09:19:38Z</time>
      </trkpt>
      <trkpt lat="43.27416" lon="5.63719">
        <ele>125</ele>
        <time>2016-07-15T09:21:38Z</time>
      </trkpt>
      <trkpt lat="43.27414" lon="5.63719">
        <ele>125</ele>
        <time>2016-07-15T09:23:38Z</time>
      </trkpt>
      <trkpt lat="43.27413" lon="5.63718">
        <ele>125</ele>
        <time>2016-07-15T09:25:38Z</time>
      </trkpt>
      <trkpt lat="43.27411" lon="5.63717">
        <ele>125</ele>
        <time>2016-07-15T09:27:38Z</time>
      </trkpt>
      <trkpt lat="43.27401" lon="5.63711">
        <ele>125</ele>
        <time>2016-07-15T09:29:38Z</time>
      </trkpt>
      <trkpt lat="43.27401" lon="5.63711">
        <ele>125</ele>
        <time>2016-07-15T09:31:38Z</time>
      </trkpt>
      <trkpt lat="43.27394" lon="5.63708">
        <ele>125</ele>
        <time>2016-07-15T09:33:38Z</time>
      </trkpt>
      <trkpt lat="43.27391" lon="5.63723">
        <ele>125</ele>
        <time>2016-07-15T09:35:38Z</time>
      </trkpt>
      <trkpt lat="43.27385" lon="5.63756">
        <ele>126</ele>
        <time>2016-07-15T09:37:38Z</time>
      </trkpt>
      <trkpt lat="43.27382" lon="5.63768">
        <ele>126</ele>
        <time>2016-07-15T09:39:38Z</time>
      </trkpt>
      <trkpt lat="43.27378" lon="5.63786">
        <ele>127</ele>
        <time>2016-07-15T09:41:38Z</time>
      </trkpt>
      <trkpt lat="43.27369" lon="5.63811">
        <ele>128</ele>
        <time>2016-07-15T09:43:38Z</time>
      </trkpt>
      <trkpt lat="43.27367" lon="5.63818">
        <ele>128</ele>
        <time>2016-07-15T09:45:38Z</time>
      </trkpt>
      <trkpt lat="43.27353" lon="5.63852">
        <ele>130</ele>
        <time>2016-07-15T09:47:38Z</time>
      </trkpt>
      <trkpt lat="43.27351" lon="5.63859">
        <ele>131</ele>
        <time>2016-07-15T09:49:38Z</time>
      </trkpt>
      <trkpt lat="43.27342" lon="5.63878">
        <ele>132</ele>
        <time>2016-07-15T09:51:38Z</time>
      </trkpt>
      <trkpt lat="43.27336" lon="5.63889">
        <ele>133</ele>
        <time>2016-07-15T09:53:38Z</time>
      </trkpt>
      <trkpt lat="43.27319" lon="5.63921">
        <ele>139</ele>
        <time>2016-07-15T09:55:38Z</time>
      </trkpt>
      <trkpt lat="43.27316" lon="5.63926">
        <ele>140</ele>
        <time>2016-07-15T09:57:38Z</time>
      </trkpt>
      <trkpt lat="43.27313" lon="5.63931">
        <ele>141</ele>
        <time>2016-07-15T09:59:38Z</time>
      </trkpt>
      <trkpt lat="43.2731" lon="5.63939">
        <ele>141</ele>
        <time>2016-07-15T10:01:38Z</time>
      </trkpt>
      <trkpt lat="43.27308" lon="5.63943">
        <ele>142</ele>
        <time>2016-07-15T10:03:38Z</time>
      </trkpt>
      <trkpt lat="43.27306" lon="5.63949">
        <ele>142</ele>
        <time>2016-07-15T10:05:38Z</time>
      </trkpt>
      <trkpt lat="43.27301" lon="5.63966">
        <ele>143</ele>
        <time>2016-07-15T10:07:38Z</time>
      </trkpt>
      <trkpt lat="43.27266" lon="5.64095">
        <ele>141</ele>
        <time>2016-07-15T10:09:38Z</time>
      </trkpt>
      <trkpt lat="43.27259" lon="5.64122">
        <ele>141</ele>
        <time>2016-07-15T10:11:38Z</time>
      </trkpt>
      <trkpt lat="43.2725" lon="5.6416">
        <ele>140</ele>
        <time>2016-07-15T10:13:38Z</time>
      </trkpt>
      <trkpt lat="43.27227" lon="5.64257">
        <ele>140</ele>
        <time>2016-07-15T10:15:38Z</time>
      </trkpt>
      <trkpt lat="43.27218" lon="5.64295">
        <ele>138</ele>
        <time>2016-07-15T10:17:38Z</time>
      </trkpt>
      <trkpt lat="43.2721" lon="5.6432">
        <ele>137</ele>
        <time>2016-07-15T10:19:38Z</time>
      </trkpt>
      <trkpt lat="43.27205" lon="5.64335">
        <ele>136</ele>
        <time>2016-07-15T10:21:38Z</time>
      </trkpt>
      <trkpt lat="43.27203" lon="5.6434">
        <ele>136</ele>
        <time>2016-07-15T10:23:38Z</time>
      </trkpt>
      <trkpt lat="43.27189" lon="5.64379">
        <ele>136</ele>
        <time>2016-07-15T10:25:38Z</time>
      </trkpt>
      <trkpt lat="43.27178" lon="5.64408">
        <ele>136</ele>
        <time>2016-07-15T10:27:38Z</time>
      </trkpt>
      <trkpt lat="43.27174" lon="5.64416">
        <ele>136</ele>
        <time>2016-07-15T10:29:38Z</time>
      </trkpt>
      <trkpt lat="43.27167" lon="5.64431">
        <ele>136</ele>
        <time>2016-07-15T10:31:38Z</time>
      </trkpt>
      <trkpt lat="43.27163" lon="5.64439">
        <ele>136</ele>
        <time>2016-07-15T10:33:38Z</time>
      </trkpt>
      <trkpt lat="43.27161" lon="5.64443">
        <ele>137</ele>
        <time>2016-07-15T10:35:38Z</time>
      </trkpt>
      <trkpt lat="43.27151" lon="5.64458">
        <ele>137</ele>
        <time>2016-07-15T10:37:38Z</time>
      </trkpt>
      <trkpt lat="43.27144" lon="5.64467">
        <ele>137</ele>
        <time>2016-07-15T10:39:38Z</time>
      </trkpt>
      <trkpt lat="43.27136" lon="5.6448">
        <ele>137</ele>
        <time>2016-07-15T10:41:38Z</time>
      </trkpt>
      <trkpt lat="43.27131" lon="5.64487">
        <ele>137</ele>
        <time>2016-07-15T10:43:38Z</time>
      </trkpt>
      <trkpt lat="43.27127" lon="5.64491">
        <ele>138</ele>
        <time>2016-07-15T10:45:38Z</time>
      </trkpt>
      <trkpt lat="43.27119" lon="5.64501">
        <ele>138</ele>
        <time>2016-07-15T10:47:38Z</time>
      </trkpt>
      <trkpt lat="43.2711" lon="5.64511">
        <ele>138</ele>
        <time>2016-07-15T10:49:38Z</time>
      </trkpt>
      <trkpt lat="43.27104" lon="5.64517">
        <ele>138</ele>
        <time>2016-07-15T10:51:38Z</time>
      </trkpt>
      <trkpt lat="43.27068" lon="5.64551">
        <ele>140</ele>
        <time>2016-07-15T10:53:38Z</time>
      </trkpt>
      <trkpt lat="43.27045" lon="5.64574">
        <ele>141</ele>
        <time>2016-07-15T10:55:38Z</time>
      </trkpt>
      <trkpt lat="43.27038" lon="5.64581">
        <ele>141</ele>
        <time>2016-07-15T10:57:38Z</time>
      </trkpt>
      <trkpt lat="43.2701" lon="5.64609">
        <ele>142</ele>
        <time>2016-07-15T10:59:38Z</time>
      </trkpt>
      <trkpt lat="43.27001" lon="5.64619">
        <ele>142</ele>
        <time>2016-07-15T11:01:38Z</time>
      </trkpt>
      <trkpt lat="43.26995" lon="5.64626">
        <ele>144</ele>
        <time>2016-07-15T11:03:38Z</time>
      </trkpt>
      <trkpt lat="43.2699" lon="5.64633">
        <ele>145</ele>
        <time>2016-07-15T11:05:38Z</time>
      </trkpt>
      <trkpt lat="43.26983" lon="5.64645">
        <ele>146</ele>
        <time>2016-07-15T11:07:38Z</time>
      </trkpt>
      <trkpt lat="43.26966" lon="5.64672">
        <ele>148</ele>
        <time>2016-07-15T11:09:38Z</time>
      </trkpt>
      <trkpt lat="43.26949" lon="5.64698">
        <ele>150</ele>
        <time>2016-07-15T11:11:38Z</time>
      </trkpt>
      <trkpt lat="43.26941" lon="5.64709">
        <ele>150</ele>
        <time>2016-07-15T11:13:38Z</time>
      </trkpt>
      <trkpt lat="43.26935" lon="5.64715">
        <ele>150</ele>
        <time>2016-07-15T11:15:38Z</time>
      </trkpt>
      <trkpt lat="43.26934" lon="5.64717">
        <ele>150</ele>
        <time>2016-07-15T11:17:38Z</time>
      </trkpt>
      <trkpt lat="43.26923" lon="5.64728">
        <ele>150</ele>
        <time>2016-07-15T11:19:38Z</time>
      </trkpt>
      <trkpt lat="43.26908" lon="5.64743">
        <ele>150</ele>
        <time>2016-07-15T11:21:38Z</time>
      </trkpt>
      <trkpt lat="43.26896" lon="5.64755">
        <ele>151</ele>
        <time>2016-07-15T11:23:38Z</time>
      </trkpt>
      <trkpt lat="43.26809" lon="5.64838">
        <ele>151</ele>
        <time>2016-07-15T11:25:38Z</time>
      </trkpt>
      <trkpt lat="43.2677" lon="5.64875">
        <ele>156</ele>
        <time>2016-07-15T11:27:38Z</time>
      </trkpt>
      <trkpt lat="43.26764" lon="5.64883">
        <ele>157</ele>
        <time>2016-07-15T11:29:38Z</time>
      </trkpt>
      <trkpt lat="43.26761" lon="5.64888">
        <ele>157</ele>
        <time>2016-07-15T11:31:38Z</time>
      </trkpt>
      <trkpt lat="43.2676" lon="5.64892">
        <ele>157</ele>
        <time>2016-07-15T11:33:38Z</time>
      </trkpt>
      <trkpt lat="43.26758" lon="5.64898">
        <ele>157</ele>
        <time>2016-07-15T11:35:38Z</time>
      </trkpt>
      <trkpt lat="43.26757" lon="5.64903">
        <ele>157</ele>
        <time>2016-07-15T11:37:38Z</time>
      </trkpt>
      <trkpt lat="43.26755" lon="5.64915">
        <ele>157</ele>
        <time>2016-07-15T11:39:38Z</time>
      </trkpt>
      <trkpt lat="43.26753" lon="5.64927">
        <ele>158</ele>
        <time>2016-07-15T11:41:38Z</time>
      </trkpt>
      <trkpt lat="43.26749" lon="5.64978">
        <ele>161</ele>
        <time>2016-07-15T11:43:38Z</time>
      </trkpt>
      <trkpt lat="43.26746" lon="5.65002">
        <ele>163</ele>
        <time>2016-07-15T11:45:38Z</time>
      </trkpt>
      <trkpt lat="43.26745" lon="5.6501">
        <ele>163</ele>
        <time>2016-07-15T11:47:38Z</time>
      </trkpt>
      <trkpt lat="43.26744" lon="5.6502">
        <ele>164</ele>
        <time>2016-07-15T11:49:38Z</time>
      </trkpt>
      <trkpt lat="43.26742" lon="5.65031">
        <ele>165</ele>
        <time>2016-07-15T11:51:38Z</time>
      </trkpt>
      <trkpt lat="43.26742" lon="5.65033">
        <ele>166</ele>
        <time>2016-07-15T11:53:38Z</time>
      </trkpt>
      <trkpt lat="43.26741" lon="5.6504">
        <ele>166</ele>
        <time>2016-07-15T11:55:38Z</time>
      </trkpt>
      <trkpt lat="43.26738" lon="5.65049">
        <ele>167</ele>
        <time>2016-07-15T11:57:38Z</time>
      </trkpt>
      <trkpt lat="43.26735" lon="5.65059">
        <ele>168</ele>
        <time>2016-07-15T11:59:38Z</time>
      </trkpt>
      <trkpt lat="43.26683" lon="5.65203">
        <ele>175</ele>
        <time>2016-07-15T12:01:38Z</time>
      </trkpt>
      <trkpt lat="43.26655" lon="5.65282">
        <ele>179</ele>
        <time>2016-07-15T12:03:38Z</time>
      </trkpt>
      <trkpt lat="43.26644" lon="5.65316">
        <ele>184</ele>
        <time>2016-07-15T12:05:38Z</time>
      </trkpt>
      <trkpt lat="43.26641" lon="5.65326">
        <ele>185</ele>
        <time>2016-07-15T12:07:38Z</time>
      </trkpt>
      <trkpt lat="43.26639" lon="5.65334">
        <ele>186</ele>
        <time>2016-07-15T12:09:38Z</time>
      </trkpt>
      <trkpt lat="43.26638" lon="5.65341">
        <ele>186</ele>
        <time>2016-07-15T12:11:38Z</time>
      </trkpt>
      <trkpt lat="43.26638" lon="5.65345">
        <ele>186</ele>
        <time>2016-07-15T12:13:38Z</time>
      </trkpt>
      <trkpt lat="43.26639" lon="5.65353">
        <ele>186</ele>
        <time>2016-07-15T12:15:38Z</time>
      </trkpt>
      <trkpt lat="43.2664" lon="5.65358">
        <ele>186</ele>
        <time>2016-07-15T12:17:38Z</time>
      </trkpt>
      <trkpt lat="43.26641" lon="5.65363">
        <ele>186</ele>
        <time>2016-07-15T12:19:38Z</time>
      </trkpt>
      <trkpt lat="43.26645" lon="5.6537">
        <ele>185</ele>
        <time>2016-07-15T12:21:38Z</time>
      </trkpt>
      <trkpt lat="43.26649" lon="5.65376">
        <ele>183</ele>
        <time>2016-07-15T12:23:38Z</time>
      </trkpt>
      <trkpt lat="43.26654" lon="5.65382">
        <ele>182</ele>
        <time>2016-07-15T12:25:38Z</time>
      </trkpt>
      <trkpt lat="43.26727" lon="5.65474">
        <ele>187</ele>
        <time>2016-07-15T12:27:38Z</time>
      </trkpt>
      <trkpt lat="43.26733" lon="5.65484">
        <ele>187</ele>
        <time>2016-07-15T12:29:38Z</time>
      </trkpt>
      <trkpt lat="43.26737" lon="5.65493">
        <ele>187</ele>
        <time>2016-07-15T12:31:38Z</time>
      </trkpt>
      <trkpt lat="43.2674" lon="5.65504">
        <ele>187</ele>
        <time>2016-07-15T12:33:38Z</time>
      </trkpt>
      <trkpt lat="43.2674" lon="5.65512">
        <ele>188</ele>
        <time>2016-07-15T12:35:38Z</time>
      </trkpt>
      <trkpt lat="43.2674" lon="5.65522">
        <ele>189</ele>
        <time>2016-07-15T12:37:38Z</time>
      </trkpt>
      <trkpt lat="43.26738" lon="5.65543">
        <ele>190</ele>
        <time>2016-07-15T12:39:38Z</time>
      </trkpt>
      <trkpt lat="43.26732" lon="5.65581">
        <ele>194</ele>
        <time>2016-07-15T12:41:38Z</time>
      </trkpt>
      <trkpt lat="43.2673" lon="5.65594">
        <ele>194</ele>
        <time>2016-07-15T12:43:38Z</time>
      </trkpt>
      <trkpt lat="43.26718" lon="5.65652">
        <ele>194</ele>
        <time>2016-07-15T12:45:38Z</time>
      </trkpt>
      <trkpt lat="43.26708" lon="5.65697">
        <ele>195</ele>
        <time>2016-07-15T12:47:38Z</time>
      </trkpt>
      <trkpt lat="43.26701" lon="5.65726">
        <ele>196</ele>
        <time>2016-07-15T12:49:38Z</time>
      </trkpt>
      <trkpt lat="43.26699" lon="5.65735">
        <ele>196</ele>
        <time>2016-07-15T12:51:38Z</time>
      </trkpt>
      <trkpt lat="43.26698" lon="5.65742">
        <ele>196</ele>
        <time>2016-07-15T12:53:38Z</time>
      </trkpt>
      <trkpt lat="43.26697" lon="5.65754">
        <ele>196</ele>
        <time>2016-07-15T12:55:38Z</time>
      </trkpt>
      <trkpt lat="43.26697" lon="5.65768">
        <ele>197</ele>
        <time>2016-07-15T12:57:38Z</time>
      </trkpt>
      <trkpt lat="43.26698" lon="5.65808">
        <ele>199</ele>
        <time>2016-07-15T12:59:38Z</time>
      </trkpt>
      <trkpt lat="43.26697" lon="5.65834">
        <ele>201</ele>
        <time>2016-07-15T13:01:38Z</time>
      </trkpt>
      <trkpt lat="43.26698" lon="5.6585">
        <ele>201</ele>
        <time>2016-07-15T13:03:38Z</time>
      </trkpt>
      <trkpt lat="43.26699" lon="5.65858">
        <ele>201</ele>
        <time>2016-07-15T13:05:38Z</time>
      </trkpt>
      <trkpt lat="43.26701" lon="5.65865">
        <ele>201</ele>
        <time>2016-07-15T13:07:38Z</time>
      </trkpt>
      <trkpt lat="43.26704" lon="5.65873">
        <ele>202</ele>
        <time>2016-07-15T13:09:38Z</time>
      </trkpt>
      <trkpt lat="43.26711" lon="5.65892">
        <ele>202</ele>
        <time>2016-07-15T13:11:38Z</time>
      </trkpt>
      <trkpt lat="43.26734" lon="5.65953">
        <ele>202</ele>
        <time>2016-07-15T13:13:38Z</time>
      </trkpt>
      <trkpt lat="43.2675" lon="5.65999">
        <ele>199</ele>
        <time>2016-07-15T13:15:38Z</time>
      </trkpt>
      <trkpt lat="43.26756" lon="5.66014">
        <ele>202</ele>
        <time>2016-07-15T13:17:38Z</time>
      </trkpt>
      <trkpt lat="43.2676" lon="5.66026">
        <ele>204</ele>
        <time>2016-07-15T13:19:38Z</time>
      </trkpt>
      <trkpt lat="43.26761" lon="5.66033">
        <ele>204</ele>
        <time>2016-07-15T13:21:38Z</time>
      </trkpt>
      <trkpt lat="43.26762" lon="5.66043">
        <ele>204</ele>
        <time>2016-07-15T13:23:38Z</time>
      </trkpt>
      <trkpt lat="43.26764" lon="5.66061">
        <ele>204</ele>
        <time>2016-07-15T13:25:38Z</time>
      </trkpt>
      <trkpt lat="43.26763" lon="5.66077">
        <ele>203</ele>
        <time>2016-07-15T13:27:38Z</time>
      </trkpt>
      <trkpt lat="43.26762" lon="5.66086">
        <ele>202</ele>
        <time>2016-07-15T13:29:38Z</time>
      </trkpt>
      <trkpt lat="43.26761" lon="5.66095">
        <ele>202</ele>
        <time>2016-07-15T13:31:38Z</time>
      </trkpt>
      <trkpt lat="43.2676" lon="5.66101">
        <ele>202</ele>
        <time>2016-07-15T13:33:38Z</time>
      </trkpt>
      <trkpt lat="43.26757" lon="5.66109">
        <ele>201</ele>
        <time>2016-07-15T13:35:38Z</time>
      </trkpt>
      <trkpt lat="43.26754" lon="5.66118">
        <ele>200</ele>
        <time>2016-07-15T13:37:38Z</time>
      </trkpt>
      <trkpt lat="43.2675" lon="5.66125">
        <ele>198</ele>
        <time>2016-07-15T13:39:38Z</time>
      </trkpt>
      <trkpt lat="43.26743" lon="5.66137">
        <ele>198</ele>
        <time>2016-07-15T13:41:38Z</time>
      </trkpt>
      <trkpt lat="43.26736" lon="5.66146">
        <ele>198</ele>
        <time>2016-07-15T13:43:38Z</time>
      </trkpt>
      <trkpt lat="43.26727" lon="5.66157">
        <ele>198</ele>
        <time>2016-07-15T13:45:38Z</time>
      </trkpt>
      <trkpt lat="43.26717" lon="5.66167">
        <ele>197</ele>
        <time>2016-07-15T13:47:38Z</time>
      </trkpt>
      <trkpt lat="43.26708" lon="5.66174">
        <ele>198</ele>
        <time>2016-07-15T13:49:38Z</time>
      </trkpt>
      <trkpt lat="43.267" lon="5.66179">
        <ele>198</ele>
        <time>2016-07-15T13:51:38Z</time>
      </trkpt>
      <trkpt lat="43.26695" lon="5.66182">
        <ele>198</ele>
        <time>2016-07-15T13:53:38Z</time>
      </trkpt>
      <trkpt lat="43.2669" lon="5.66184">
        <ele>198</ele>
        <time>2016-07-15T13:55:38Z</time>
      </trkpt>
      <trkpt lat="43.26683" lon="5.66186">
        <ele>198</ele>
        <time>2016-07-15T13:57:38Z</time>
      </trkpt>
      <trkpt lat="43.26676" lon="5.66186">
        <ele>197</ele>
        <time>2016-07-15T13:59:38Z</time>
      </trkpt>
      <trkpt lat="43.2667" lon="5.66186">
        <ele>196</ele>
        <time>2016-07-15T14:01:38Z</time>
      </trkpt>
      <trkpt lat="43.26628" lon="5.6618">
        <ele>196</ele>
        <time>2016-07-15T14:03:38Z</time>
      </trkpt>
      <trkpt lat="43.26612" lon="5.66179">
        <ele>196</ele>
        <time>2016-07-15T14:05:38Z</time>
      </trkpt>
      <trkpt lat="43.26602" lon="5.66179">
        <ele>196</ele>
        <time>2016-07-15T14:07:38Z</time>
      </trkpt>
      <trkpt lat="43.26597" lon="5.66179">
        <ele>196</ele>
        <time>2016-07-15T14:09:38Z</time>
      </trkpt>
      <trkpt lat="43.26592" lon="5.66181">
        <ele>196</ele>
        <time>2016-07-15T14:11:38Z</time>
      </trkpt>
      <trkpt lat="43.26587" lon="5.66184">
        <ele>196</ele>
        <time>2016-07-15T14:13:38Z</time>
      </trkpt>
      <trkpt lat="43.26581" lon="5.66187">
        <ele>197</ele>
        <time>2016-07-15T14:15:38Z</time>
      </trkpt>
      <trkpt lat="43.26577" lon="5.66191">
        <ele>198</ele>
        <time>2016-07-15T14:17:38Z</time>
      </trkpt>
      <trkpt lat="43.26573" lon="5.66196">
        <ele>198</ele>
        <time>2016-07-15T14:19:38Z</time>
      </trkpt>
      <trkpt lat="43.26571" lon="5.662">
        <ele>199</ele>
        <time>2016-07-15T14:21:38Z</time>
      </trkpt>
      <trkpt lat="43.26568" lon="5.66206">
        <ele>199</ele>
        <time>2016-07-15T14:23:38Z</time>
      </trkpt>
      <trkpt lat="43.26567" lon="5.6621">
        <ele>199</ele>
        <time>2016-07-15T14:25:38Z</time>
      </trkpt>
      <trkpt lat="43.26566" lon="5.66214">
        <ele>199</ele>
        <time>2016-07-15T14:27:38Z</time>
      </trkpt>
      <trkpt lat="43.26565" lon="5.66222">
        <ele>199</ele>
        <time>2016-07-15T14:29:38Z</time>
      </trkpt>
      <trkpt lat="43.26564" lon="5.66227">
        <ele>199</ele>
        <time>2016-07-15T14:31:38Z</time>
      </trkpt>
      <trkpt lat="43.26564" lon="5.66233">
        <ele>199</ele>
        <time>2016-07-15T14:33:38Z</time>
      </trkpt>
      <trkpt lat="43.26564" lon="5.66252">
        <ele>199</ele>
        <time>2016-07-15T14:35:38Z</time>
      </trkpt>
      <trkpt lat="43.26564" lon="5.66275">
        <ele>200</ele>
        <time>2016-07-15T14:37:38Z</time>
      </trkpt>
      <trkpt lat="43.26565" lon="5.66306">
        <ele>200</ele>
        <time>2016-07-15T14:39:38Z</time>
      </trkpt>
      <trkpt lat="43.26565" lon="5.66318">
        <ele>201</ele>
        <time>2016-07-15T14:41:38Z</time>
      </trkpt>
      <trkpt lat="43.26564" lon="5.66327">
        <ele>201</ele>
        <time>2016-07-15T14:43:38Z</time>
      </trkpt>
      <trkpt lat="43.26562" lon="5.66337">
        <ele>202</ele>
        <time>2016-07-15T14:45:38Z</time>
      </trkpt>
      <trkpt lat="43.26559" lon="5.66346">
        <ele>202</ele>
        <time>2016-07-15T14:47:38Z</time>
      </trkpt>
      <trkpt lat="43.26555" lon="5.66356">
        <ele>202</ele>
        <time>2016-07-15T14:49:38Z</time>
      </trkpt>
      <trkpt lat="43.2655" lon="5.66365">
        <ele>202</ele>
        <time>2016-07-15T14:51:38Z</time>
      </trkpt>
      <trkpt lat="43.26541" lon="5.66377">
        <ele>202</ele>
        <time>2016-07-15T14:53:38Z</time>
      </trkpt>
      <trkpt lat="43.26533" lon="5.66388">
        <ele>202</ele>
        <time>2016-07-15T14:55:38Z</time>
      </trkpt>
      <trkpt lat="43.26512" lon="5.66415">
        <ele>200</ele>
        <time>2016-07-15T14:57:38Z</time>
      </trkpt>
      <trkpt lat="43.26456" lon="5.66491">
        <ele>204</ele>
        <time>2016-07-15T14:59:38Z</time>
      </trkpt>
      <trkpt lat="43.26445" lon="5.66507">
        <ele>205</ele>
        <time>2016-07-15T15:01:38Z</time>
      </trkpt>
      <trkpt lat="43.26441" lon="5.66513">
        <ele>205</ele>
        <time>2016-07-15T15:03:38Z</time>
      </trkpt>
      <trkpt lat="43.26438" lon="5.6652">
        <ele>205</ele>
        <time>2016-07-15T15:05:38Z</time>
      </trkpt>
      <trkpt lat="43.26437" lon="5.66524">
        <ele>205</ele>
        <time>2016-07-15T15:07:38Z</time>
      </trkpt>
      <trkpt lat="43.26436" lon="5.6653">
        <ele>205</ele>
        <time>2016-07-15T15:09:38Z</time>
      </trkpt>
      <trkpt lat="43.26435" lon="5.66536">
        <ele>205</ele>
        <time>2016-07-15T15:11:38Z</time>
      </trkpt>
      <trkpt lat="43.26435" lon="5.66545">
        <ele>205</ele>
        <time>2016-07-15T15:13:38Z</time>
      </trkpt>
      <trkpt lat="43.26436" lon="5.66552">
        <ele>204</ele>
        <time>2016-07-15T15:15:38Z</time>
      </trkpt>
      <trkpt lat="43.26437" lon="5.66558">
        <ele>204</ele>
        <time>2016-07-15T15:17:38Z</time>
      </trkpt>
      <trkpt lat="43.26439" lon="5.66566">
        <ele>204</ele>
        <time>2016-07-15T15:19:38Z</time>
      </trkpt>
      <trkpt lat="43.26442" lon="5.66571">
        <ele>204</ele>
        <time>2016-07-15T15:21:38Z</time>
      </trkpt>
      <trkpt lat="43.26446" lon="5.66579">
        <ele>203</ele>
        <time>2016-07-15T15:23:38Z</time>
      </trkpt>
      <trkpt lat="43.26449" lon="5.66582">
        <ele>203</ele>
        <time>2016-07-15T15:25:38Z</time>
      </trkpt>
      <trkpt lat="43.26453" lon="5.66586">
        <ele>204</ele>
        <time>2016-07-15T15:27:38Z</time>
      </trkpt>
      <trkpt lat="43.26458" lon="5.6659">
        <ele>204</ele>
        <time>2016-07-15T15:29:38Z</time>
      </trkpt>
      <trkpt lat="43.26464" lon="5.66593">
        <ele>204</ele>
        <time>2016-07-15T15:31:38Z</time>
      </trkpt>
      <trkpt lat="43.26468" lon="5.66594">
        <ele>204</ele>
        <time>2016-07-15T15:33:38Z</time>
      </trkpt>
      <trkpt lat="43.26472" lon="5.66594">
        <ele>204</ele>
        <time>2016-07-15T15:35:38Z</time>
      </trkpt>
      <trkpt lat="43.26475" lon="5.66594">
        <ele>204</ele>
        <time>2016-07-15T15:37:38Z</time>
      </trkpt>
      <trkpt lat="43.26479" lon="5.66594">
        <ele>204</ele>
        <time>2016-07-15T15:39:38Z</time>
      </trkpt>
      <trkpt lat="43.26482" lon="5.66594">
        <ele>204</ele>
        <time>2016-07-15T15:41:38Z</time>
      </trkpt>
      <trkpt lat="43.26486" lon="5.66592">
        <ele>204</ele>
        <time>2016-07-15T15:43:38Z</time>
      </trkpt>
      <trkpt lat="43.26491" lon="5.66589">
        <ele>204</ele>
        <time>2016-07-15T15:45:38Z</time>
      </trkpt>
      <trkpt lat="43.26494" lon="5.66586">
        <ele>204</ele>
        <time>2016-07-15T15:47:38Z</time>
      </trkpt>
      <trkpt lat="43.26497" lon="5.66584">
        <ele>204</ele>
        <time>2016-07-15T15:49:38Z</time>
      </trkpt>
      <trkpt lat="43.26501" lon="5.66579">
        <ele>204</ele>
        <time>2016-07-15T15:51:38Z</time>
      </trkpt>
      <trkpt lat="43.26505" lon="5.66572">
        <ele>204</ele>
        <time>2016-07-15T15:53:38Z</time>
      </trkpt>
      <trkpt lat="43.26508" lon="5.66564">
        <ele>204</ele>
        <time>2016-07-15T15:55:38Z</time>
      </trkpt>
      <trkpt lat="43.26514" lon="5.6655">
        <ele>203</ele>
        <time>2016-07-15T15:57:38Z</time>
      </trkpt>
      <trkpt lat="43.26524" lon="5.66521">
        <ele>203</ele>
        <time>2016-07-15T15:59:38Z</time>
      </trkpt>
      <trkpt lat="43.26527" lon="5.66512">
        <ele>202</ele>
        <time>2016-07-15T16:01:38Z</time>
      </trkpt>
      <trkpt lat="43.26528" lon="5.66511">
        <ele>202</ele>
        <time>2016-07-15T16:03:38Z</time>
      </trkpt>
      <trkpt lat="43.26532" lon="5.66504">
        <ele>202</ele>
        <time>2016-07-15T16:05:38Z</time>
      </trkpt>
      <trkpt lat="43.26536" lon="5.66499">
        <ele>202</ele>
        <time>2016-07-15T16:07:38Z</time>
      </trkpt>
      <trkpt lat="43.26542" lon="5.66492">
        <ele>203</ele>
        <time>2016-07-15T16:09:38Z</time>
      </trkpt>
      <trkpt lat="43.26547" lon="5.66489">
        <ele>203</ele>
        <time>2016-07-15T16:11:38Z</time>
      </trkpt>
      <trkpt lat="43.26551" lon="5.66487">
        <ele>204</ele>
        <time>2016-07-15T16:13:38Z</time>
      </trkpt>
      <trkpt lat="43.26555" lon="5.66486">
        <ele>204</ele>
        <time>2016-07-15T16:15:38Z</time>
      </trkpt>
      <trkpt lat="43.26562" lon="5.66486">
        <ele>205</ele>
        <time>2016-07-15T16:17:38Z</time>
      </trkpt>
      <trkpt lat="43.26569" lon="5.66487">
        <ele>206</ele>
        <time>2016-07-15T16:19:38Z</time>
      </trkpt>
      <trkpt lat="43.26574" lon="5.66488">
        <ele>206</ele>
        <time>2016-07-15T16:21:38Z</time>
      </trkpt>
      <trkpt lat="43.26578" lon="5.6649">
        <ele>207</ele>
        <time>2016-07-15T16:23:38Z</time>
      </trkpt>
      <trkpt lat="43.26582" lon="5.66493">
        <ele>207</ele>
        <time>2016-07-15T16:25:38Z</time>
      </trkpt>
      <trkpt lat="43.26585" lon="5.66496">
        <ele>208</ele>
        <time>2016-07-15T16:27:38Z</time>
      </trkpt>
      <trkpt lat="43.26592" lon="5.66506">
        <ele>212</ele>
        <time>2016-07-15T16:29:38Z</time>
      </trkpt>
      <trkpt lat="43.26596" lon="5.66515">
        <ele>214</ele>
        <time>2016-07-15T16:31:38Z</time>
      </trkpt>
      <trkpt lat="43.26599" lon="5.66527">
        <ele>216</ele>
        <time>2016-07-15T16:33:38Z</time>
      </trkpt>
      <trkpt lat="43.266" lon="5.66538">
        <ele>217</ele>
        <time>2016-07-15T16:35:38Z</time>
      </trkpt>
      <trkpt lat="43.26601" lon="5.66562">
        <ele>219</ele>
        <time>2016-07-15T16:37:38Z</time>
      </trkpt>
      <trkpt lat="43.26602" lon="5.66619">
        <ele>221</ele>
        <time>2016-07-15T16:39:38Z</time>
      </trkpt>
      <trkpt lat="43.26603" lon="5.66666">
        <ele>222</ele>
        <time>2016-07-15T16:41:38Z</time>
      </trkpt>
      <trkpt lat="43.26603" lon="5.66747">
        <ele>225</ele>
        <time>2016-07-15T16:43:38Z</time>
      </trkpt>
      <trkpt lat="43.26603" lon="5.66777">
        <ele>226</ele>
        <time>2016-07-15T16:45:38Z</time>
      </trkpt>
      <trkpt lat="43.26602" lon="5.66797">
        <ele>227</ele>
        <time>2016-07-15T16:47:38Z</time>
      </trkpt>
      <trkpt lat="43.26599" lon="5.66831">
        <ele>228</ele>
        <time>2016-07-15T16:49:38Z</time>
      </trkpt>
      <trkpt lat="43.26586" lon="5.66936">
        <ele>223</ele>
        <time>2016-07-15T16:51:38Z</time>
      </trkpt>
      <trkpt lat="43.2658" lon="5.66991">
        <ele>223</ele>
        <time>2016-07-15T16:53:38Z</time>
      </trkpt>
      <trkpt lat="43.2658" lon="5.66991">
        <ele>223</ele>
        <time>2016-07-15T16:55:38Z</time>
      </trkpt>
      <trkpt lat="43.26578" lon="5.6699">
        <ele>223</ele>
        <time>2016-07-15T16:57:38Z</time>
      </trkpt>
      <trkpt lat="43.26576" lon="5.6699">
        <ele>223</ele>
        <time>2016-07-15T16:59:38Z</time>
      </trkpt>
      <trkpt lat="43.26575" lon="5.6699">
        <ele>223</ele>
        <time>2016-07-15T17:01:38Z</time>
      </trkpt>
      <trkpt lat="43.26571" lon="5.6699">
        <ele>224</ele>
        <time>2016-07-15T17:03:38Z</time>
      </trkpt>
      <trkpt lat="43.26569" lon="5.66991">
        <ele>224</ele>
        <time>2016-07-15T17:05:38Z</time>
      </trkpt>
      <trkpt lat="43.26567" lon="5.66993">
        <ele>224</ele>
        <time>2016-07-15T17:07:38Z</time>
      </trkpt>
      <trkpt lat="43.26563" lon="5.66998">
        <ele>224</ele>
        <time>2016-07-15T17:09:38Z</time>
      </trkpt>
      <trkpt lat="43.26559" lon="5.67002">
        <ele>225</ele>
        <time>2016-07-15T17:11:38Z</time>
      </trkpt>
      <trkpt lat="43.26558" lon="5.67003">
        <ele>225</ele>
        <time>2016-07-15T17:13:38Z</time>
      </trkpt>
      <trkpt lat="43.26548" lon="5.67018">
        <ele>226</ele>
        <time>2016-07-15T17:15:38Z</time>
      </trkpt>
      <trkpt lat="43.26537" lon="5.67036">
        <ele>227</ele>
        <time>2016-07-15T17:17:38Z</time>
      </trkpt>
      <trkpt lat="43.26519" lon="5.67063">
        <ele>228</ele>
        <time>2016-07-15T17:19:38Z</time>
      </trkpt>
      <trkpt lat="43.26505" lon="5.67088">
        <ele>229</ele>
        <time>2016-07-15T17:21:38Z</time>
      </trkpt>
      <trkpt lat="43.26497" lon="5.67098">
        <ele>228</ele>
        <time>2016-07-15T17:23:38Z</time>
      </trkpt>
      <trkpt lat="43.26495" lon="5.67102">
        <ele>228</ele>
        <time>2016-07-15T17:25:38Z</time>
      </trkpt>
      <trkpt lat="43.2649" lon="5.67108">
        <ele>228</ele>
        <time>2016-07-15T17:27:38Z</time>
      </trkpt>
      <trkpt lat="43.26482" lon="5.67116">
        <ele>228</ele>
        <time>2016-07-15T17:29:38Z</time>
      </trkpt>
      <trkpt lat="43.2648" lon="5.67118">
        <ele>228</ele>
        <time>2016-07-15T17:31:38Z</time>
      </trkpt>
      <trkpt lat="43.26476" lon="5.67121">
        <ele>228</ele>
        <time>2016-07-15T17:33:38Z</time>
      </trkpt>
      <trkpt lat="43.26473" lon="5.67123">
        <ele>228</ele>
        <time>2016-07-15T17:35:38Z</time>
      </trkpt>
      <trkpt lat="43.26471" lon="5.67124">
        <ele>228</ele>
        <time>2016-07-15T17:37:38Z</time>
      </trkpt>
      <trkpt lat="43.26468" lon="5.67125">
        <ele>228</ele>
        <time>2016-07-15T17:39:38Z</time>
      </trkpt>
      <trkpt lat="43.26466" lon="5.67126">
        <ele>228</ele>
        <time>2016-07-15T17:41:38Z</time>
      </trkpt>
      <trkpt lat="43.26464" lon="5.67127">
        <ele>228</ele>
        <time>2016-07-15T17:43:38Z</time>
      </trkpt>
      <trkpt lat="43.26461" lon="5.67127">
        <ele>228</ele>
        <time>2016-07-15T17:45:38Z</time>
      </trkpt>
      <trkpt lat="43.26458" lon="5.67127">
        <ele>228</ele>
        <time>2016-07-15T17:47:38Z</time>
      </trkpt>
      <trkpt lat="43.26455" lon="5.67128">
        <ele>228</ele>
        <time>2016-07-15T17:49:38Z</time>
      </trkpt>
      <trkpt lat="43.26451" lon="5.67127">
        <ele>228</ele>
        <time>2016-07-15T17:51:38Z</time>
      </trkpt>
      <trkpt lat="43.26447" lon="5.67127">
        <ele>229</ele>
        <time>2016-07-15T17:53:38Z</time>
      </trkpt>
      <trkpt lat="43.2644" lon="5.67123">
        <ele>229</ele>
        <time>2016-07-15T17:55:38Z</time>
      </trkpt>
      <trkpt lat="43.26421" lon="5.67114">
        <ele>229</ele>
        <time>2016-07-15T17:57:38Z</time>
      </trkpt>
      <trkpt lat="43.26418" lon="5.67113">
        <ele>229</ele>
        <time>2016-07-15T17:59:38Z</time>
      </trkpt>
      <trkpt lat="43.2641" lon="5.67109">
        <ele>229</ele>
        <time>2016-07-15T18:01:38Z</time>
      </trkpt>
      <trkpt lat="43.26404" lon="5.67107">
        <ele>229</ele>
        <time>2016-07-15T18:03:38Z</time>
      </trkpt>
      <trkpt lat="43.26391" lon="5.67101">
        <ele>229</ele>
        <time>2016-07-15T18:05:38Z</time>
      </trkpt>
      <trkpt lat="43.2638" lon="5.67096">
        <ele>229</ele>
        <time>2016-07-15T18:07:38Z</time>
      </trkpt>
      <trkpt lat="43.26366" lon="5.67089">
        <ele>229</ele>
        <time>2016-07-15T18:09:38Z</time>
      </trkpt>
      <trkpt lat="43.26349" lon="5.67081">
        <ele>229</ele>
        <time>2016-07-15T18:11:38Z</time>
      </trkpt>
      <trkpt lat="43.26341" lon="5.67077">
        <ele>228</ele>
        <time>2016-07-15T18:13:38Z</time>
      </trkpt>
      <trkpt lat="43.26319" lon="5.67067">
        <ele>229</ele>
        <time>2016-07-15T18:15:38Z</time>
      </trkpt>
      <trkpt lat="43.2631" lon="5.67063">
        <ele>230</ele>
        <time>2016-07-15T18:17:38Z</time>
      </trkpt>
      <trkpt lat="43.26297" lon="5.67057">
        <ele>231</ele>
        <time>2016-07-15T18:19:38Z</time>
      </trkpt>
      <trkpt lat="43.26282" lon="5.6705">
        <ele>232</ele>
        <time>2016-07-15T18:21:38Z</time>
      </trkpt>
      <trkpt lat="43.26277" lon="5.67048">
        <ele>232</ele>
        <time>2016-07-15T18:23:38Z</time>
      </trkpt>
      <trkpt lat="43.2627" lon="5.67044">
        <ele>233</ele>
        <time>2016-07-15T18:25:38Z</time>
      </trkpt>
      <trkpt lat="43.26268" lon="5.67041">
        <ele>233</ele>
        <time>2016-07-15T18:27:38Z</time>
      </trkpt>
      <trkpt lat="43.26263" lon="5.67038">
        <ele>234</ele>
        <time>2016-07-15T18:29:38Z</time>
      </trkpt>
      <trkpt lat="43.26257" lon="5.6703">
        <ele>234</ele>
        <time>2016-07-15T18:31:38Z</time>
      </trkpt>
      <trkpt lat="43.26253" lon="5.67025">
        <ele>234</ele>
        <time>2016-07-15T18:33:38Z</time>
      </trkpt>
      <trkpt lat="43.2625" lon="5.6702">
        <ele>235</ele>
        <time>2016-07-15T18:35:38Z</time>
      </trkpt>
      <trkpt lat="43.26244" lon="5.67008">
        <ele>235</ele>
        <time>2016-07-15T18:37:38Z</time>
      </trkpt>
      <trkpt lat="43.26242" lon="5.67003">
        <ele>235</ele>
        <time>2016-07-15T18:39:38Z</time>
      </trkpt>
      <trkpt lat="43.26241" lon="5.67001">
        <ele>235</ele>
        <time>2016-07-15T18:41:38Z</time>
      </trkpt>
      <trkpt lat="43.26239" lon="5.66991">
        <ele>235</ele>
        <time>2016-07-15T18:43:38Z</time>
      </trkpt>
      <trkpt lat="43.26236" lon="5.6698">
        <ele>235</ele>
        <time>2016-07-15T18:45:38Z</time>
      </trkpt>
      <trkpt lat="43.26232" lon="5.66956">
        <ele>234</ele>
        <time>2016-07-15T18:47:38Z</time>
      </trkpt>
      <trkpt lat="43.26231" lon="5.66949">
        <ele>234</ele>
        <time>2016-07-15T18:49:38Z</time>
      </trkpt>
      <trkpt lat="43.2623" lon="5.66943">
        <ele>234</ele>
        <time>2016-07-15T18:51:38Z</time>
      </trkpt>
      <trkpt lat="43.26226" lon="5.66929">
        <ele>233</ele>
        <time>2016-07-15T18:53:38Z</time>
      </trkpt>
      <trkpt lat="43.26225" lon="5.66924">
        <ele>233</ele>
        <time>2016-07-15T18:55:38Z</time>
      </trkpt>
      <trkpt lat="43.26223" lon="5.66921">
        <ele>233</ele>
        <time>2016-07-15T18:57:38Z</time>
      </trkpt>
      <trkpt lat="43.26222" lon="5.66918">
        <ele>233</ele>
        <time>2016-07-15T18:59:38Z</time>
      </trkpt>
      <trkpt lat="43.26221" lon="5.66915">
        <ele>233</ele>
        <time>2016-07-15T19:01:38Z</time>
      </trkpt>
      <trkpt lat="43.26219" lon="5.66912">
        <ele>233</ele>
        <time>2016-07-15T19:03:38Z</time>
      </trkpt>
      <trkpt lat="43.26218" lon="5.6691">
        <ele>233</ele>
        <time>2016-07-15T19:05:38Z</time>
      </trkpt>
      <trkpt lat="43.26216" lon="5.66908">
        <ele>233</ele>
        <time>2016-07-15T19:07:38Z</time>
      </trkpt>
      <trkpt lat="43.26214" lon="5.66905">
        <ele>233</ele>
        <time>2016-07-15T19:09:38Z</time>
      </trkpt>
      <trkpt lat="43.26211" lon="5.66903">
        <ele>234</ele>
        <time>2016-07-15T19:11:38Z</time>
      </trkpt>
      <trkpt lat="43.26207" lon="5.66899">
        <ele>234</ele>
        <time>2016-07-15T19:13:38Z</time>
      </trkpt>
      <trkpt lat="43.26205" lon="5.66897">
        <ele>234</ele>
        <time>2016-07-15T19:15:38Z</time>
      </trkpt>
      <trkpt lat="43.26202" lon="5.66896">
        <ele>234</ele>
        <time>2016-07-15T19:17:38Z</time>
      </trkpt>
      <trkpt lat="43.26199" lon="5.66894">
        <ele>235</ele>
        <time>2016-07-15T19:19:38Z</time>
      </trkpt>
      <trkpt lat="43.26192" lon="5.66893">
        <ele>236</ele>
        <time>2016-07-15T19:21:38Z</time>
      </trkpt>
      <trkpt lat="43.26187" lon="5.66894">
        <ele>236</ele>
        <time>2016-07-15T19:23:38Z</time>
      </trkpt>
      <trkpt lat="43.26177" lon="5.66898">
        <ele>238</ele>
        <time>2016-07-15T19:25:38Z</time>
      </trkpt>
      <trkpt lat="43.26129" lon="5.66921">
        <ele>239</ele>
        <time>2016-07-15T19:27:38Z</time>
      </trkpt>
      <trkpt lat="43.26115" lon="5.66927">
        <ele>238</ele>
        <time>2016-07-15T19:29:38Z</time>
      </trkpt>
      <trkpt lat="43.26071" lon="5.66945">
        <ele>238</ele>
        <time>2016-07-15T19:31:38Z</time>
      </trkpt>
      <trkpt lat="43.26063" lon="5.66948">
        <ele>239</ele>
        <time>2016-07-15T19:33:38Z</time>
      </trkpt>
      <trkpt lat="43.26056" lon="5.66947">
        <ele>240</ele>
        <time>2016-07-15T19:35:38Z</time>
      </trkpt>
      <trkpt lat="43.26052" lon="5.66945">
        <ele>240</ele>
        <time>2016-07-15T19:37:38Z</time>
      </trkpt>
      <trkpt lat="43.26048" lon="5.66943">
        <ele>241</ele>
        <time>2016-07-15T19:39:38Z</time>
      </trkpt>
      <trkpt lat="43.26047" lon="5.66942">
        <ele>241</ele>
        <time>2016-07-15T19:41:38Z</time>
      </trkpt>
      <trkpt lat="43.26044" lon="5.6694">
        <ele>241</ele>
        <time>2016-07-15T19:43:38Z</time>
      </trkpt>
      <trkpt lat="43.26042" lon="5.66937">
        <ele>241</ele>
        <time>2016-07-15T19:45:38Z</time>
      </trkpt>
      <trkpt lat="43.26041" lon="5.66936">
        <ele>242</ele>
        <time>2016-07-15T19:47:38Z</time>
      </trkpt>
      <trkpt lat="43.2604" lon="5.66934">
        <ele>242</ele>
        <time>2016-07-15T19:49:38Z</time>
      </trkpt>
      <trkpt lat="43.26037" lon="5.66929">
        <ele>242</ele>
        <time>2016-07-15T19:51:38Z</time>
      </trkpt>
      <trkpt lat="43.26036" lon="5.66925">
        <ele>242</ele>
        <time>2016-07-15T19:53:38Z</time>
      </trkpt>
      <trkpt lat="43.26034" lon="5.6692">
        <ele>243</ele>
        <time>2016-07-15T19:55:38Z</time>
      </trkpt>
      <trkpt lat="43.26033" lon="5.66915">
        <ele>243</ele>
        <time>2016-07-15T19:57:38Z</time>
      </trkpt>
      <trkpt lat="43.26031" lon="5.66907">
        <ele>243</ele>
        <time>2016-07-15T19:59:38Z</time>
      </trkpt>
      <trkpt lat="43.26014" lon="5.66815">
        <ele>244</ele>
        <time>2016-07-15T20:01:38Z</time>
      </trkpt>
      <trkpt lat="43.26012" lon="5.66806">
        <ele>244</ele>
        <time>2016-07-15T20:03:38Z</time>
      </trkpt>
      <trkpt lat="43.2601" lon="5.66797">
        <ele>243</ele>
        <time>2016-07-15T20:05:38Z</time>
      </trkpt>
      <trkpt lat="43.26009" lon="5.66791">
        <ele>243</ele>
        <time>2016-07-15T20:07:38Z</time>
      </trkpt>
      <trkpt lat="43.26005" lon="5.6678">
        <ele>243</ele>
        <time>2016-07-15T20:09:38Z</time>
      </trkpt>
      <trkpt lat="43.26001" lon="5.6677">
        <ele>242</ele>
        <time>2016-07-15T20:11:38Z</time>
      </trkpt>
      <trkpt lat="43.25998" lon="5.66764">
        <ele>242</ele>
        <time>2016-07-15T20:13:38Z</time>
      </trkpt>
      <trkpt lat="43.25993" lon="5.66757">
        <ele>242</ele>
        <time>2016-07-15T20:15:38Z</time>
      </trkpt>
      <trkpt lat="43.25988" lon="5.66753">
        <ele>243</ele>
        <time>2016-07-15T20:17:38Z</time>
      </trkpt>
      <trkpt lat="43.25982" lon="5.66748">
        <ele>243</ele>
        <time>2016-07-15T20:19:38Z</time>
      </trkpt>
      <trkpt lat="43.25976" lon="5.66744">
        <ele>244</ele>
        <time>2016-07-15T20:21:38Z</time>
      </trkpt>
      <trkpt lat="43.25969" lon="5.66741">
        <ele>245</ele>
        <time>2016-07-15T20:23:38Z</time>
      </trkpt>
      <trkpt lat="43.25963" lon="5.66739">
        <ele>246</ele>
        <time>2016-07-15T20:25:38Z</time>
      </trkpt>
      <trkpt lat="43.25957" lon="5.66738">
        <ele>246</ele>
        <time>2016-07-15T20:27:38Z</time>
      </trkpt>
      <trkpt lat="43.2595" lon="5.66738">
        <ele>247</ele>
        <time>2016-07-15T20:29:38Z</time>
      </trkpt>
      <trkpt lat="43.25943" lon="5.66739">
        <ele>248</ele>
        <time>2016-07-15T20:31:38Z</time>
      </trkpt>
      <trkpt lat="43.25937" lon="5.66741">
        <ele>249</ele>
        <time>2016-07-15T20:33:38Z</time>
      </trkpt>
      <trkpt lat="43.25912" lon="5.66748">
        <ele>253</ele>
        <time>2016-07-15T20:35:38Z</time>
      </trkpt>
      <trkpt lat="43.259" lon="5.66752">
        <ele>254</ele>
        <time>2016-07-15T20:37:38Z</time>
      </trkpt>
      <trkpt lat="43.25895" lon="5.66753">
        <ele>255</ele>
        <time>2016-07-15T20:39:38Z</time>
      </trkpt>
      <trkpt lat="43.25891" lon="5.66755">
        <ele>256</ele>
        <time>2016-07-15T20:41:38Z</time>
      </trkpt>
      <trkpt lat="43.25886" lon="5.66758">
        <ele>257</ele>
        <time>2016-07-15T20:43:38Z</time>
      </trkpt>
      <trkpt lat="43.25881" lon="5.66762">
        <ele>257</ele>
        <time>2016-07-15T20:45:38Z</time>
      </trkpt>
      <trkpt lat="43.25875" lon="5.66767">
        <ele>258</ele>
        <time>2016-07-15T20:47:38Z</time>
      </trkpt>
      <trkpt lat="43.2587" lon="5.66776">
        <ele>259</ele>
        <time>2016-07-15T20:49:38Z</time>
      </trkpt>
      <trkpt lat="43.25867" lon="5.66782">
        <ele>259</ele>
        <time>2016-07-15T20:51:38Z</time>
      </trkpt>
      <trkpt lat="43.25861" lon="5.66793">
        <ele>259</ele>
        <time>2016-07-15T20:53:38Z</time>
      </trkpt>
      <trkpt lat="43.25857" lon="5.668">
        <ele>260</ele>
        <time>2016-07-15T20:55:38Z</time>
      </trkpt>
      <trkpt lat="43.25853" lon="5.66804">
        <ele>260</ele>
        <time>2016-07-15T20:57:38Z</time>
      </trkpt>
      <trkpt lat="43.25849" lon="5.66807">
        <ele>260</ele>
        <time>2016-07-15T20:59:38Z</time>
      </trkpt>
      <trkpt lat="43.25846" lon="5.66809">
        <ele>260</ele>
        <time>2016-07-15T21:01:38Z</time>
      </trkpt>
      <trkpt lat="43.25843" lon="5.66809">
        <ele>261</ele>
        <time>2016-07-15T21:03:38Z</time>
      </trkpt>
      <trkpt lat="43.2584" lon="5.66809">
        <ele>261</ele>
        <time>2016-07-15T21:05:38Z</time>
      </trkpt>
      <trkpt lat="43.25838" lon="5.66809">
        <ele>261</ele>
        <time>2016-07-15T21:07:38Z</time>
      </trkpt>
      <trkpt lat="43.25835" lon="5.66808">
        <ele>261</ele>
        <time>2016-07-15T21:09:38Z</time>
      </trkpt>
      <trkpt lat="43.25833" lon="5.66807">
        <ele>261</ele>
        <time>2016-07-15T21:11:38Z</time>
      </trkpt>
      <trkpt lat="43.25829" lon="5.66803">
        <ele>262</ele>
        <time>2016-07-15T21:13:38Z</time>
      </trkpt>
      <trkpt lat="43.25829" lon="5.66803">
        <ele>262</ele>
        <time>2016-07-15T21:15:38Z</time>
      </trkpt>
      <trkpt lat="43.25823" lon="5.66809">
        <ele>262</ele>
        <time>2016-07-15T21:17:38Z</time>
      </trkpt>
      <trkpt lat="43.25819" lon="5.66813">
        <ele>262</ele>
        <time>2016-07-15T21:19:38Z</time>
      </trkpt>
      <trkpt lat="43.25817" lon="5.66815">
        <ele>262</ele>
        <time>2016-07-15T21:21:38Z</time>
      </trkpt>
      <trkpt lat="43.25813" lon="5.66819">
        <ele>262</ele>
        <time>2016-07-15T21:23:38Z</time>
      </trkpt>
      <trkpt lat="43.25804" lon="5.66826">
        <ele>263</ele>
        <time>2016-07-15T21:25:38Z</time>
      </trkpt>
      <trkpt lat="43.25787" lon="5.6684">
        <ele>264</ele>
        <time>2016-07-15T21:27:38Z</time>
      </trkpt>
      <trkpt lat="43.25766" lon="5.66858">
        <ele>265</ele>
        <time>2016-07-15T21:29:38Z</time>
      </trkpt>
      <trkpt lat="43.25755" lon="5.66868">
        <ele>265</ele>
        <time>2016-07-15T21:31:38Z</time>
      </trkpt>
      <trkpt lat="43.25746" lon="5.66875">
        <ele>265</ele>
        <time>2016-07-15T21:33:38Z</time>
      </trkpt>
      <trkpt lat="43.25738" lon="5.6688">
        <ele>265</ele>
        <time>2016-07-15T21:35:38Z</time>
      </trkpt>
      <trkpt lat="43.25731" lon="5.66884">
        <ele>265</ele>
        <time>2016-07-15T21:37:38Z</time>
      </trkpt>
      <trkpt lat="43.25724" lon="5.66888">
        <ele>265</ele>
        <time>2016-07-15T21:39:38Z</time>
      </trkpt>
      <trkpt lat="43.25717" lon="5.6689">
        <ele>264</ele>
        <time>2016-07-15T21:41:38Z</time>
      </trkpt>
      <trkpt lat="43.25709" lon="5.66893">
        <ele>264</ele>
        <time>2016-07-15T21:43:38Z</time>
      </trkpt>
      <trkpt lat="43.257" lon="5.66895">
        <ele>264</ele>
        <time>2016-07-15T21:45:38Z</time>
      </trkpt>
      <trkpt lat="43.25681" lon="5.66898">
        <ele>264</ele>
        <time>2016-07-15T21:47:38Z</time>
      </trkpt>
      <trkpt lat="43.25674" lon="5.669">
        <ele>264</ele>
        <time>2016-07-15T21:49:38Z</time>
      </trkpt>
      <trkpt lat="43.25665" lon="5.66902">
        <ele>264</ele>
        <time>2016-07-15T21:51:38Z</time>
      </trkpt>
      <trkpt lat="43.2565" lon="5.66906">
        <ele>266</ele>
        <time>2016-07-15T21:53:38Z</time>
      </trkpt>
      <trkpt lat="43.25643" lon="5.66909">
        <ele>266</ele>
        <time>2016-07-15T21:55:38Z</time>
      </trkpt>
      <trkpt lat="43.25639" lon="5.66912">
        <ele>267</ele>
        <time>2016-07-15T21:57:38Z</time>
      </trkpt>
      <trkpt lat="43.25638" lon="5.66912">
        <ele>267</ele>
        <time>2016-07-15T21:59:38Z</time>
      </trkpt>
      <trkpt lat="43.25632" lon="5.66917">
        <ele>268</ele>
        <time>2016-07-15T22:01:38Z</time>
      </trkpt>
      <trkpt lat="43.25624" lon="5.66924">
        <ele>269</ele>
        <time>2016-07-15T22:03:38Z</time>
      </trkpt>
      <trkpt lat="43.25616" lon="5.66932">
        <ele>269</ele>
        <time>2016-07-15T22:05:38Z</time>
      </trkpt>
      <trkpt lat="43.25608" lon="5.6694">
        <ele>270</ele>
        <time>2016-07-15T22:07:38Z</time>
      </trkpt>
      <trkpt lat="43.25597" lon="5.66952">
        <ele>270</ele>
        <time>2016-07-15T22:09:38Z</time>
      </trkpt>
      <trkpt lat="43.25587" lon="5.66962">
        <ele>271</ele>
        <time>2016-07-15T22:11:38Z</time>
      </trkpt>
      <trkpt lat="43.25579" lon="5.6697">
        <ele>270</ele>
        <time>2016-07-15T22:13:38Z</time>
      </trkpt>
      <trkpt lat="43.25573" lon="5.66974">
        <ele>270</ele>
        <time>2016-07-15T22:15:38Z</time>
      </trkpt>
      <trkpt lat="43.25568" lon="5.66978">
        <ele>270</ele>
        <time>2016-07-15T22:17:38Z</time>
      </trkpt>
      <trkpt lat="43.25562" lon="5.66981">
        <ele>270</ele>
        <time>2016-07-15T22:19:38Z</time>
      </trkpt>
      <trkpt lat="43.25556" lon="5.66983">
        <ele>271</ele>
        <time>2016-07-15T22:21:38Z</time>
      </trkpt>
      <trkpt lat="43.25549" lon="5.66986">
        <ele>271</ele>
        <time>2016-07-15T22:23:38Z</time>
      </trkpt>
      <trkpt lat="43.25541" lon="5.66987">
        <ele>271</ele>
        <time>2016-07-15T22:25:38Z</time>
      </trkpt>
      <trkpt lat="43.25531" lon="5.66988">
        <ele>271</ele>
        <time>2016-07-15T22:27:38Z</time>
      </trkpt>
      <trkpt lat="43.2552" lon="5.66989">
        <ele>272</ele>
        <time>2016-07-15T22:29:38Z</time>
      </trkpt>
      <trkpt lat="43.2551" lon="5.66991">
        <ele>272</ele>
        <time>2016-07-15T22:31:38Z</time>
      </trkpt>
      <trkpt lat="43.25504" lon="5.66992">
        <ele>272</ele>
        <time>2016-07-15T22:33:38Z</time>
      </trkpt>
      <trkpt lat="43.2549" lon="5.66994">
        <ele>273</ele>
        <time>2016-07-15T22:35:38Z</time>
      </trkpt>
      <trkpt lat="43.25484" lon="5.66994">
        <ele>273</ele>
        <time>2016-07-15T22:37:38Z</time>
      </trkpt>
      <trkpt lat="43.25482" lon="5.66994">
        <ele>273</ele>
        <time>2016-07-15T22:39:38Z</time>
      </trkpt>
      <trkpt lat="43.25477" lon="5.66993">
        <ele>274</ele>
        <time>2016-07-15T22:41:38Z</time>
      </trkpt>
      <trkpt lat="43.2547" lon="5.66993">
        <ele>274</ele>
        <time>2016-07-15T22:43:38Z</time>
      </trkpt>
      <trkpt lat="43.25455" lon="5.6699">
        <ele>275</ele>
        <time>2016-07-15T22:45:38Z</time>
      </trkpt>
      <trkpt lat="43.25434" lon="5.66984">
        <ele>276</ele>
        <time>2016-07-15T22:47:38Z</time>
      </trkpt>
      <trkpt lat="43.25311" lon="5.66937">
        <ele>286</ele>
        <time>2016-07-15T22:49:38Z</time>
      </trkpt>
      <trkpt lat="43.25289" lon="5.66931">
        <ele>287</ele>
        <time>2016-07-15T22:51:38Z</time>
      </trkpt>
      <trkpt lat="43.25281" lon="5.66927">
        <ele>287</ele>
        <time>2016-07-15T22:53:38Z</time>
      </trkpt>
      <trkpt lat="43.25275" lon="5.66923">
        <ele>288</ele>
        <time>2016-07-15T22:55:38Z</time>
      </trkpt>
      <trkpt lat="43.25267" lon="5.66917">
        <ele>288</ele>
        <time>2016-07-15T22:57:38Z</time>
      </trkpt>
      <trkpt lat="43.2526" lon="5.6691">
        <ele>289</ele>
        <time>2016-07-15T22:59:38Z</time>
      </trkpt>
      <trkpt lat="43.25256" lon="5.66903">
        <ele>290</ele>
        <time>2016-07-15T23:01:38Z</time>
      </trkpt>
      <trkpt lat="43.2525" lon="5.66895">
        <ele>291</ele>
        <time>2016-07-15T23:03:38Z</time>
      </trkpt>
      <trkpt lat="43.25244" lon="5.66882">
        <ele>291</ele>
        <time>2016-07-15T23:05:38Z</time>
      </trkpt>
      <trkpt lat="43.25239" lon="5.66869">
        <ele>292</ele>
        <time>2016-07-15T23:07:38Z</time>
      </trkpt>
      <trkpt lat="43.25232" lon="5.66845">
        <ele>293</ele>
        <time>2016-07-15T23:09:38Z</time>
      </trkpt>
      <trkpt lat="43.25229" lon="5.66837">
        <ele>294</ele>
        <time>2016-07-15T23:11:38Z</time>
      </trkpt>
      <trkpt lat="43.25228" lon="5.66831">
        <ele>294</ele>
        <time>2016-07-15T23:13:38Z</time>
      </trkpt>
      <trkpt lat="43.25227" lon="5.66825">
        <ele>295</ele>
        <time>2016-07-15T23:15:38Z</time>
      </trkpt>
      <trkpt lat="43.25226" lon="5.6682">
        <ele>295</ele>
        <time>2016-07-15T23:17:38Z</time>
      </trkpt>
      <trkpt lat="43.25226" lon="5.66804">
        <ele>296</ele>
        <time>2016-07-15T23:19:38Z</time>
      </trkpt>
      <trkpt lat="43.25227" lon="5.66765">
        <ele>299</ele>
        <time>2016-07-15T23:21:38Z</time>
      </trkpt>
      <trkpt lat="43.25228" lon="5.66733">
        <ele>302</ele>
        <time>2016-07-15T23:23:38Z</time>
      </trkpt>
      <trkpt lat="43.25229" lon="5.66724">
        <ele>303</ele>
        <time>2016-07-15T23:25:38Z</time>
      </trkpt>
      <trkpt lat="43.25229" lon="5.66714">
        <ele>304</ele>
        <time>2016-07-15T23:27:38Z</time>
      </trkpt>
      <trkpt lat="43.25227" lon="5.66704">
        <ele>305</ele>
        <time>2016-07-15T23:29:38Z</time>
      </trkpt>
      <trkpt lat="43.25227" lon="5.66701">
        <ele>306</ele>
        <time>2016-07-15T23:31:38Z</time>
      </trkpt>
      <trkpt lat="43.25226" lon="5.66699">
        <ele>306</ele>
        <time>2016-07-15T23:33:38Z</time>
      </trkpt>
      <trkpt lat="43.25226" lon="5.66697">
        <ele>306</ele>
        <time>2016-07-15T23:35:38Z</time>
      </trkpt>
      <trkpt lat="43.25225" lon="5.66695">
        <ele>306</ele>
        <time>2016-07-15T23:37:38Z</time>
      </trkpt>
      <trkpt lat="43.25223" lon="5.66693">
        <ele>307</ele>
        <time>2016-07-15T23:39:38Z</time>
      </trkpt>
      <trkpt lat="43.2522" lon="5.6669">
        <ele>307</ele>
        <time>2016-07-15T23:41:38Z</time>
      </trkpt>
      <trkpt lat="43.25213" lon="5.66687">
        <ele>307</ele>
        <time>2016-07-15T23:43:38Z</time>
      </trkpt>
      <trkpt lat="43.25195" lon="5.66678">
        <ele>307</ele>
        <time>2016-07-15T23:45:38Z</time>
      </trkpt>
      <trkpt lat="43.25188" lon="5.66675">
        <ele>308</ele>
        <time>2016-07-15T23:47:38Z</time>
      </trkpt>
      <trkpt lat="43.25174" lon="5.66662">
        <ele>309</ele>
        <time>2016-07-15T23:49:38Z</time>
      </trkpt>
      <trkpt lat="43.2516" lon="5.66642">
        <ele>311</ele>
        <time>2016-07-15T23:51:38Z</time>
      </trkpt>
      <trkpt lat="43.25158" lon="5.66639">
        <ele>311</ele>
        <time>2016-07-15T23:53:38Z</time>
      </trkpt>
      <trkpt lat="43.25147" lon="5.66623">
        <ele>312</ele>
        <time>2016-07-15T23:55:38Z</time>
      </trkpt>
      <trkpt lat="43.25143" lon="5.66617">
        <ele>313</ele>
        <time>2016-07-15T23:57:38Z</time>
      </trkpt>
      <trkpt lat="43.25131" lon="5.66601">
        <ele>314</ele>
        <time>2016-07-15T23:59:38Z</time>
      </trkpt>
      <trkpt lat="43.25118" lon="5.66585">
        <ele>316</ele>
        <time>2016-07-16T00:01:38Z</time>
      </trkpt>
      <trkpt lat="43.25107" lon="5.66571">
        <ele>319</ele>
        <time>2016-07-16T00:03:38Z</time>
      </trkpt>
      <trkpt lat="43.25103" lon="5.66567">
        <ele>320</ele>
        <time>2016-07-16T00:05:38Z</time>
      </trkpt>
      <trkpt lat="43.251" lon="5.66564">
        <ele>320</ele>
        <time>2016-07-16T00:07:38Z</time>
      </trkpt>
      <trkpt lat="43.25093" lon="5.66558">
        <ele>322</ele>
        <time>2016-07-16T00:09:38Z</time>
      </trkpt>
      <trkpt lat="43.25087" lon="5.66553">
        <ele>323</ele>
        <time>2016-07-16T00:11:38Z</time>
      </trkpt>
      <trkpt lat="43.25081" lon="5.6655">
        <ele>323</ele>
        <time>2016-07-16T00:13:38Z</time>
      </trkpt>
      <trkpt lat="43.25073" lon="5.66547">
        <ele>324</ele>
        <time>2016-07-16T00:15:38Z</time>
      </trkpt>
      <trkpt lat="43.25066" lon="5.66545">
        <ele>325</ele>
        <time>2016-07-16T00:17:38Z</time>
      </trkpt>
      <trkpt lat="43.25057" lon="5.66542">
        <ele>326</ele>
        <time>2016-07-16T00:19:38Z</time>
      </trkpt>
      <trkpt lat="43.25049" lon="5.66541">
        <ele>326</ele>
        <time>2016-07-16T00:21:38Z</time>
      </trkpt>
      <trkpt lat="43.25015" lon="5.66533">
        <ele>329</ele>
        <time>2016-07-16T00:23:38Z</time>
      </trkpt>
      <trkpt lat="43.24994" lon="5.66528">
        <ele>331</ele>
        <time>2016-07-16T00:25:38Z</time>
      </trkpt>
      <trkpt lat="43.24994" lon="5.66528">
        <ele>331</ele>
        <time>2016-07-16T00:27:38Z</time>
      </trkpt>
      <trkpt lat="43.24962" lon="5.6652">
        <ele>332</ele>
        <time>2016-07-16T00:29:38Z</time>
      </trkpt>
      <trkpt lat="43.24928" lon="5.66511">
        <ele>333</ele>
        <time>2016-07-16T00:31:38Z</time>
      </trkpt>
      <trkpt lat="43.24915" lon="5.66507">
        <ele>334</ele>
        <time>2016-07-16T00:33:38Z</time>
      </trkpt>
      <trkpt lat="43.24906" lon="5.66505">
        <ele>333</ele>
        <time>2016-07-16T00:35:38Z</time>
      </trkpt>
      <trkpt lat="43.24889" lon="5.66504">
        <ele>331</ele>
        <time>2016-07-16T00:37:38Z</time>
      </trkpt>
      <trkpt lat="43.24877" lon="5.66503">
        <ele>330</ele>
        <time>2016-07-16T00:39:38Z</time>
      </trkpt>
      <trkpt lat="43.24872" lon="5.66502">
        <ele>329</ele>
        <time>2016-07-16T00:41:38Z</time>
      </trkpt>
      <trkpt lat="43.24867" lon="5.665">
        <ele>329</ele>
        <time>2016-07-16T00:43:38Z</time>
      </trkpt>
      <trkpt lat="43.24864" lon="5.66498">
        <ele>329</ele>
        <time>2016-07-16T00:45:38Z</time>
      </trkpt>
      <trkpt lat="43.24861" lon="5.66495">
        <ele>329</ele>
        <time>2016-07-16T00:47:38Z</time>
      </trkpt>
      <trkpt lat="43.24859" lon="5.6649">
        <ele>330</ele>
        <time>2016-07-16T00:49:38Z</time>
      </trkpt>
      <trkpt lat="43.24857" lon="5.66485">
        <ele>330</ele>
        <time>2016-07-16T00:51:38Z</time>
      </trkpt>
      <trkpt lat="43.24856" lon="5.66479">
        <ele>331</ele>
        <time>2016-07-16T00:53:38Z</time>
      </trkpt>
      <trkpt lat="43.24855" lon="5.66471">
        <ele>333</ele>
        <time>2016-07-16T00:55:38Z</time>
      </trkpt>
      <trkpt lat="43.24855" lon="5.66461">
        <ele>334</ele>
        <time>2016-07-16T00:57:38Z</time>
      </trkpt>
      <trkpt lat="43.24855" lon="5.66449">
        <ele>337</ele>
        <time>2016-07-16T00:59:38Z</time>
      </trkpt>
      <trkpt lat="43.24857" lon="5.66439">
        <ele>339</ele>
        <time>2016-07-16T01:01:38Z</time>
      </trkpt>
      <trkpt lat="43.2486" lon="5.6643">
        <ele>341</ele>
        <time>2016-07-16T01:03:38Z</time>
      </trkpt>
      <trkpt lat="43.24864" lon="5.66422">
        <ele>343</ele>
        <time>2016-07-16T01:05:38Z</time>
      </trkpt>
      <trkpt lat="43.2487" lon="5.66412">
        <ele>346</ele>
        <time>2016-07-16T01:07:38Z</time>
      </trkpt>
      <trkpt lat="43.24872" lon="5.66406">
        <ele>347</ele>
        <time>2016-07-16T01:09:38Z</time>
      </trkpt>
      <trkpt lat="43.24873" lon="5.664">
        <ele>348</ele>
        <time>2016-07-16T01:11:38Z</time>
      </trkpt>
      <trkpt lat="43.24872" lon="5.66394">
        <ele>348</ele>
        <time>2016-07-16T01:13:38Z</time>
      </trkpt>
      <trkpt lat="43.24872" lon="5.66387">
        <ele>349</ele>
        <time>2016-07-16T01:15:38Z</time>
      </trkpt>
      <trkpt lat="43.24868" lon="5.66376">
        <ele>350</ele>
        <time>2016-07-16T01:17:38Z</time>
      </trkpt>
      <trkpt lat="43.24867" lon="5.66375">
        <ele>350</ele>
        <time>2016-07-16T01:19:38Z</time>
      </trkpt>
      <trkpt lat="43.24863" lon="5.66371">
        <ele>351</ele>
        <time>2016-07-16T01:21:38Z</time>
      </trkpt>
      <trkpt lat="43.2486" lon="5.6637">
        <ele>350</ele>
        <time>2016-07-16T01:23:38Z</time>
      </trkpt>
      <trkpt lat="43.24855" lon="5.66368">
        <ele>350</ele>
        <time>2016-07-16T01:25:38Z</time>
      </trkpt>
      <trkpt lat="43.2485" lon="5.66369">
        <ele>350</ele>
        <time>2016-07-16T01:27:38Z</time>
      </trkpt>
      <trkpt lat="43.24843" lon="5.66371">
        <ele>349</ele>
        <time>2016-07-16T01:29:38Z</time>
      </trkpt>
      <trkpt lat="43.24836" lon="5.66375">
        <ele>348</ele>
        <time>2016-07-16T01:31:38Z</time>
      </trkpt>
      <trkpt lat="43.24826" lon="5.6638">
        <ele>346</ele>
        <time>2016-07-16T01:33:38Z</time>
      </trkpt>
      <trkpt lat="43.24818" lon="5.66384">
        <ele>345</ele>
        <time>2016-07-16T01:35:38Z</time>
      </trkpt>
      <trkpt lat="43.24807" lon="5.66388">
        <ele>344</ele>
        <time>2016-07-16T01:37:38Z</time>
      </trkpt>
      <trkpt lat="43.248" lon="5.66389">
        <ele>343</ele>
        <time>2016-07-16T01:39:38Z</time>
      </trkpt>
      <trkpt lat="43.24792" lon="5.66389">
        <ele>343</ele>
        <time>2016-07-16T01:41:38Z</time>
      </trkpt>
      <trkpt lat="43.24784" lon="5.66388">
        <ele>343</ele>
        <time>2016-07-16T01:43:38Z</time>
      </trkpt>
      <trkpt lat="43.24775" lon="5.66384">
        <ele>343</ele>
        <time>2016-07-16T01:45:38Z</time>
      </trkpt>
      <trkpt lat="43.24764" lon="5.66378">
        <ele>344</ele>
        <time>2016-07-16T01:47:38Z</time>
      </trkpt>
      <trkpt lat="43.24753" lon="5.66374">
        <ele>345</ele>
        <time>2016-07-16T01:49:38Z</time>
      </trkpt>
      <trkpt lat="43.24743" lon="5.6637">
        <ele>345</ele>
        <time>2016-07-16T01:51:38Z</time>
      </trkpt>
      <trkpt lat="43.24734" lon="5.66366">
        <ele>346</ele>
        <time>2016-07-16T01:53:38Z</time>
      </trkpt>
      <trkpt lat="43.24726" lon="5.66362">
        <ele>346</ele>
        <time>2016-07-16T01:55:38Z</time>
      </trkpt>
      <trkpt lat="43.24722" lon="5.66358">
        <ele>347</ele>
        <time>2016-07-16T01:57:38Z</time>
      </trkpt>
      <trkpt lat="43.24717" lon="5.66352">
        <ele>347</ele>
        <time>2016-07-16T01:59:38Z</time>
      </trkpt>
      <trkpt lat="43.24712" lon="5.66346">
        <ele>347</ele>
        <time>2016-07-16T02:01:38Z</time>
      </trkpt>
      <trkpt lat="43.24708" lon="5.66338">
        <ele>348</ele>
        <time>2016-07-16T02:03:38Z</time>
      </trkpt>
      <trkpt lat="43.24703" lon="5.66327">
        <ele>349</ele>
        <time>2016-07-16T02:05:38Z</time>
      </trkpt>
      <trkpt lat="43.24699" lon="5.66318">
        <ele>349</ele>
        <time>2016-07-16T02:07:38Z</time>
      </trkpt>
      <trkpt lat="43.24695" lon="5.6631">
        <ele>350</ele>
        <time>2016-07-16T02:09:38Z</time>
      </trkpt>
      <trkpt lat="43.24687" lon="5.66293">
        <ele>351</ele>
        <time>2016-07-16T02:11:38Z</time>
      </trkpt>
      <trkpt lat="43.24681" lon="5.66279">
        <ele>352</ele>
        <time>2016-07-16T02:13:38Z</time>
      </trkpt>
      <trkpt lat="43.24673" lon="5.66268">
        <ele>352</ele>
        <time>2016-07-16T02:15:38Z</time>
      </trkpt>
      <trkpt lat="43.24666" lon="5.66261">
        <ele>352</ele>
        <time>2016-07-16T02:17:38Z</time>
      </trkpt>
      <trkpt lat="43.24648" lon="5.66249">
        <ele>352</ele>
        <time>2016-07-16T02:19:38Z</time>
      </trkpt>
      <trkpt lat="43.24641" lon="5.66243">
        <ele>353</ele>
        <time>2016-07-16T02:21:38Z</time>
      </trkpt>
      <trkpt lat="43.24632" lon="5.66237">
        <ele>354</ele>
        <time>2016-07-16T02:23:38Z</time>
      </trkpt>
      <trkpt lat="43.24622" lon="5.66233">
        <ele>354</ele>
        <time>2016-07-16T02:25:38Z</time>
      </trkpt>
      <trkpt lat="43.24602" lon="5.66226">
        <ele>354</ele>
        <time>2016-07-16T02:27:38Z</time>
      </trkpt>
      <trkpt lat="43.24598" lon="5.66225">
        <ele>354</ele>
        <time>2016-07-16T02:29:38Z</time>
      </trkpt>
      <trkpt lat="43.24579" lon="5.66226">
        <ele>352</ele>
        <time>2016-07-16T02:31:38Z</time>
      </trkpt>
      <trkpt lat="43.24562" lon="5.6623">
        <ele>350</ele>
        <time>2016-07-16T02:33:38Z</time>
      </trkpt>
      <trkpt lat="43.24548" lon="5.66232">
        <ele>349</ele>
        <time>2016-07-16T02:35:38Z</time>
      </trkpt>
      <trkpt lat="43.24534" lon="5.6623">
        <ele>348</ele>
        <time>2016-07-16T02:37:38Z</time>
      </trkpt>
      <trkpt lat="43.24524" lon="5.66224">
        <ele>348</ele>
        <time>2016-07-16T02:39:38Z</time>
      </trkpt>
      <trkpt lat="43.24511" lon="5.66201">
        <ele>349</ele>
        <time>2016-07-16T02:41:38Z</time>
      </trkpt>
      <trkpt lat="43.24492" lon="5.66172">
        <ele>349</ele>
        <time>2016-07-16T02:43:38Z</time>
      </trkpt>
      <trkpt lat="43.24471" lon="5.6614">
        <ele>351</ele>
        <time>2016-07-16T02:45:38Z</time>
      </trkpt>
      <trkpt lat="43.24464" lon="5.66132">
        <ele>351</ele>
        <time>2016-07-16T02:47:38Z</time>
      </trkpt>
      <trkpt lat="43.24456" lon="5.66127">
        <ele>351</ele>
        <time>2016-07-16T02:49:38Z</time>
      </trkpt>
      <trkpt lat="43.24452" lon="5.66124">
        <ele>351</ele>
        <time>2016-07-16T02:51:38Z</time>
      </trkpt>
      <trkpt lat="43.24449" lon="5.66123">
        <ele>351</ele>
        <time>2016-07-16T02:53:38Z</time>
      </trkpt>
      <trkpt lat="43.24446" lon="5.66122">
        <ele>351</ele>
        <time>2016-07-16T02:55:38Z</time>
      </trkpt>
      <trkpt lat="43.24444" lon="5.66121">
        <ele>351</ele>
        <time>2016-07-16T02:57:38Z</time>
      </trkpt>
      <trkpt lat="43.24441" lon="5.6612">
        <ele>351</ele>
        <time>2016-07-16T02:59:38Z</time>
      </trkpt>
      <trkpt lat="43.2444" lon="5.6612">
        <ele>351</ele>
        <time>2016-07-16T03:01:38Z</time>
      </trkpt>
      <trkpt lat="43.24438" lon="5.6612">
        <ele>351</ele>
        <time>2016-07-16T03:03:38Z</time>
      </trkpt>
      <trkpt lat="43.24435" lon="5.6612">
        <ele>351</ele>
        <time>2016-07-16T03:05:38Z</time>
      </trkpt>
      <trkpt lat="43.2443" lon="5.66121">
        <ele>350</ele>
        <time>2016-07-16T03:07:38Z</time>
      </trkpt>
      <trkpt lat="43.24416" lon="5.66127">
        <ele>349</ele>
        <time>2016-07-16T03:09:38Z</time>
      </trkpt>
      <trkpt lat="43.24376" lon="5.66149">
        <ele>350</ele>
        <time>2016-07-16T03:11:38Z</time>
      </trkpt>
      <trkpt lat="43.24365" lon="5.66151">
        <ele>351</ele>
        <time>2016-07-16T03:13:38Z</time>
      </trkpt>
      <trkpt lat="43.24356" lon="5.66147">
        <ele>352</ele>
        <time>2016-07-16T03:15:38Z</time>
      </trkpt>
      <trkpt lat="43.24344" lon="5.66134">
        <ele>353</ele>
        <time>2016-07-16T03:17:38Z</time>
      </trkpt>
      <trkpt lat="43.2433" lon="5.66114">
        <ele>355</ele>
        <time>2016-07-16T03:19:38Z</time>
      </trkpt>
      <trkpt lat="43.24322" lon="5.66103">
        <ele>355</ele>
        <time>2016-07-16T03:21:38Z</time>
      </trkpt>
      <trkpt lat="43.24309" lon="5.66087">
        <ele>356</ele>
        <time>2016-07-16T03:23:38Z</time>
      </trkpt>
      <trkpt lat="43.24302" lon="5.66079">
        <ele>356</ele>
        <time>2016-07-16T03:25:38Z</time>
      </trkpt>
      <trkpt lat="43.24273" lon="5.66049">
        <ele>359</ele>
        <time>2016-07-16T03:27:38Z</time>
      </trkpt>
      <trkpt lat="43.24233" lon="5.66016">
        <ele>361</ele>
        <time>2016-07-16T03:29:38Z</time>
      </trkpt>
      <trkpt lat="43.24225" lon="5.66012">
        <ele>362</ele>
        <time>2016-07-16T03:31:38Z</time>
      </trkpt>
      <trkpt lat="43.24218" lon="5.66009">
        <ele>362</ele>
        <time>2016-07-16T03:33:38Z</time>
      </trkpt>
      <trkpt lat="43.24192" lon="5.66001">
        <ele>363</ele>
        <time>2016-07-16T03:35:38Z</time>
      </trkpt>
      <trkpt lat="43.24181" lon="5.66">
        <ele>363</ele>
        <time>2016-07-16T03:37:38Z</time>
      </trkpt>
      <trkpt lat="43.2417" lon="5.66001">
        <ele>364</ele>
        <time>2016-07-16T03:39:38Z</time>
      </trkpt>
      <trkpt lat="43.24144" lon="5.66007">
        <ele>365</ele>
        <time>2016-07-16T03:41:38Z</time>
      </trkpt>
      <trkpt lat="43.241" lon="5.66018">
        <ele>367</ele>
        <time>2016-07-16T03:43:38Z</time>
      </trkpt>
      <trkpt lat="43.24087" lon="5.6602">
        <ele>368</ele>
        <time>2016-07-16T03:45:38Z</time>
      </trkpt>
      <trkpt lat="43.24078" lon="5.66023">
        <ele>369</ele>
        <time>2016-07-16T03:47:38Z</time>
      </trkpt>
      <trkpt lat="43.2406" lon="5.66032">
        <ele>371</ele>
        <time>2016-07-16T03:49:38Z</time>
      </trkpt>
      <trkpt lat="43.24032" lon="5.66049">
        <ele>373</ele>
        <time>2016-07-16T03:51:38Z</time>
      </trkpt>
      <trkpt lat="43.24004" lon="5.66069">
        <ele>372</ele>
        <time>2016-07-16T03:53:38Z</time>
      </trkpt>
      <trkpt lat="43.23994" lon="5.66074">
        <ele>372</ele>
        <time>2016-07-16T03:55:38Z</time>
      </trkpt>
      <trkpt lat="43.23981" lon="5.66078">
        <ele>373</ele>
        <time>2016-07-16T03:57:38Z</time>
      </trkpt>
      <trkpt lat="43.23949" lon="5.66091">
        <ele>376</ele>
        <time>2016-07-16T03:59:38Z</time>
      </trkpt>
      <trkpt lat="43.2394" lon="5.66095">
        <ele>377</ele>
        <time>2016-07-16T04:01:38Z</time>
      </trkpt>
      <trkpt lat="43.23931" lon="5.661">
        <ele>378</ele>
        <time>2016-07-16T04:03:38Z</time>
      </trkpt>
      <trkpt lat="43.23909" lon="5.66119">
        <ele>379</ele>
        <time>2016-07-16T04:05:38Z</time>
      </trkpt>
      <trkpt lat="43.23902" lon="5.66129">
        <ele>378</ele>
        <time>2016-07-16T04:07:38Z</time>
      </trkpt>
      <trkpt lat="43.23892" lon="5.66149">
        <ele>378</ele>
        <time>2016-07-16T04:09:38Z</time>
      </trkpt>
      <trkpt lat="43.23883" lon="5.66173">
        <ele>377</ele>
        <time>2016-07-16T04:11:38Z</time>
      </trkpt>
      <trkpt lat="43.23876" lon="5.6619">
        <ele>379</ele>
        <time>2016-07-16T04:13:38Z</time>
      </trkpt>
      <trkpt lat="43.23871" lon="5.66198">
        <ele>379</ele>
        <time>2016-07-16T04:15:38Z</time>
      </trkpt>
      <trkpt lat="43.23865" lon="5.66206">
        <ele>379</ele>
        <time>2016-07-16T04:17:38Z</time>
      </trkpt>
      <trkpt lat="43.23858" lon="5.66212">
        <ele>379</ele>
        <time>2016-07-16T04:19:38Z</time>
      </trkpt>
      <trkpt lat="43.2385" lon="5.66214">
        <ele>379</ele>
        <time>2016-07-16T04:21:38Z</time>
      </trkpt>
      <trkpt lat="43.23842" lon="5.66216">
        <ele>379</ele>
        <time>2016-07-16T04:23:38Z</time>
      </trkpt>
      <trkpt lat="43.238" lon="5.66215">
        <ele>380</ele>
        <time>2016-07-16T04:25:38Z</time>
      </trkpt>
      <trkpt lat="43.23792" lon="5.66218">
        <ele>380</ele>
        <time>2016-07-16T04:27:38Z</time>
      </trkpt>
      <trkpt lat="43.23784" lon="5.66222">
        <ele>380</ele>
        <time>2016-07-16T04:29:38Z</time>
      </trkpt>
      <trkpt lat="43.23777" lon="5.66228">
        <ele>380</ele>
        <time>2016-07-16T04:31:38Z</time>
      </trkpt>
      <trkpt lat="43.2377" lon="5.66237">
        <ele>380</ele>
        <time>2016-07-16T04:33:38Z</time>
      </trkpt>
      <trkpt lat="43.23762" lon="5.66249">
        <ele>381</ele>
        <time>2016-07-16T04:35:38Z</time>
      </trkpt>
      <trkpt lat="43.23758" lon="5.6626">
        <ele>381</ele>
        <time>2016-07-16T04:37:38Z</time>
      </trkpt>
      <trkpt lat="43.2375" lon="5.66289">
        <ele>381</ele>
        <time>2016-07-16T04:39:38Z</time>
      </trkpt>
      <trkpt lat="43.23746" lon="5.66301">
        <ele>382</ele>
        <time>2016-07-16T04:41:38Z</time>
      </trkpt>
      <trkpt lat="43.23744" lon="5.66315">
        <ele>382</ele>
        <time>2016-07-16T04:43:38Z</time>
      </trkpt>
      <trkpt lat="43.23744" lon="5.66327">
        <ele>382</ele>
        <time>2016-07-16T04:45:38Z</time>
      </trkpt>
      <trkpt lat="43.23748" lon="5.66339">
        <ele>382</ele>
        <time>2016-07-16T04:47:38Z</time>
      </trkpt>
      <trkpt lat="43.23751" lon="5.66347">
        <ele>382</ele>
        <time>2016-07-16T04:49:38Z</time>
      </trkpt>
      <trkpt lat="43.23759" lon="5.6636">
        <ele>383</ele>
        <time>2016-07-16T04:51:38Z</time>
      </trkpt>
      <trkpt lat="43.23766" lon="5.66368">
        <ele>384</ele>
        <time>2016-07-16T04:53:38Z</time>
      </trkpt>
      <trkpt lat="43.23776" lon="5.66376">
        <ele>386</ele>
        <time>2016-07-16T04:55:38Z</time>
      </trkpt>
      <trkpt lat="43.23782" lon="5.66383">
        <ele>386</ele>
        <time>2016-07-16T04:57:38Z</time>
      </trkpt>
      <trkpt lat="43.2379" lon="5.66398">
        <ele>388</ele>
        <time>2016-07-16T04:59:38Z</time>
      </trkpt>
      <trkpt lat="43.23795" lon="5.66419">
        <ele>389</ele>
        <time>2016-07-16T05:01:38Z</time>
      </trkpt>
      <trkpt lat="43.23799" lon="5.66446">
        <ele>390</ele>
        <time>2016-07-16T05:03:38Z</time>
      </trkpt>
      <trkpt lat="43.23814" lon="5.66521">
        <ele>391</ele>
        <time>2016-07-16T05:05:38Z</time>
      </trkpt>
      <trkpt lat="43.23817" lon="5.66545">
        <ele>392</ele>
        <time>2016-07-16T05:07:38Z</time>
      </trkpt>
      <trkpt lat="43.23816" lon="5.66555">
        <ele>392</ele>
        <time>2016-07-16T05:09:38Z</time>
      </trkpt>
      <trkpt lat="43.23811" lon="5.66572">
        <ele>392</ele>
        <time>2016-07-16T05:11:38Z</time>
      </trkpt>
      <trkpt lat="43.23787" lon="5.66614">
        <ele>392</ele>
        <time>2016-07-16T05:13:38Z</time>
      </trkpt>
      <trkpt lat="43.2378" lon="5.66633">
        <ele>393</ele>
        <time>2016-07-16T05:15:38Z</time>
      </trkpt>
      <trkpt lat="43.23778" lon="5.66641">
        <ele>393</ele>
        <time>2016-07-16T05:17:38Z</time>
      </trkpt>
      <trkpt lat="43.23776" lon="5.66661">
        <ele>393</ele>
        <time>2016-07-16T05:19:38Z</time>
      </trkpt>
      <trkpt lat="43.23775" lon="5.66681">
        <ele>393</ele>
        <time>2016-07-16T05:21:38Z</time>
      </trkpt>
      <trkpt lat="43.23772" lon="5.66709">
        <ele>394</ele>
        <time>2016-07-16T05:23:38Z</time>
      </trkpt>
      <trkpt lat="43.23768" lon="5.66736">
        <ele>394</ele>
        <time>2016-07-16T05:25:38Z</time>
      </trkpt>
      <trkpt lat="43.23766" lon="5.66745">
        <ele>394</ele>
        <time>2016-07-16T05:27:38Z</time>
      </trkpt>
      <trkpt lat="43.23763" lon="5.66753">
        <ele>394</ele>
        <time>2016-07-16T05:29:38Z</time>
      </trkpt>
      <trkpt lat="43.23759" lon="5.66761">
        <ele>394</ele>
        <time>2016-07-16T05:31:38Z</time>
      </trkpt>
      <trkpt lat="43.23752" lon="5.6677">
        <ele>393</ele>
        <time>2016-07-16T05:33:38Z</time>
      </trkpt>
      <trkpt lat="43.23734" lon="5.66781">
        <ele>394</ele>
        <time>2016-07-16T05:35:38Z</time>
      </trkpt>
      <trkpt lat="43.23725" lon="5.66786">
        <ele>394</ele>
        <time>2016-07-16T05:37:38Z</time>
      </trkpt>
      <trkpt lat="43.23705" lon="5.66799">
        <ele>394</ele>
        <time>2016-07-16T05:39:38Z</time>
      </trkpt>
      <trkpt lat="43.23693" lon="5.6681">
        <ele>394</ele>
        <time>2016-07-16T05:41:38Z</time>
      </trkpt>
      <trkpt lat="43.23683" lon="5.66822">
        <ele>394</ele>
        <time>2016-07-16T05:43:38Z</time>
      </trkpt>
      <trkpt lat="43.23671" lon="5.66842">
        <ele>394</ele>
        <time>2016-07-16T05:45:38Z</time>
      </trkpt>
      <trkpt lat="43.23661" lon="5.66858">
        <ele>395</ele>
        <time>2016-07-16T05:47:38Z</time>
      </trkpt>
      <trkpt lat="43.23645" lon="5.66888">
        <ele>396</ele>
        <time>2016-07-16T05:49:38Z</time>
      </trkpt>
      <trkpt lat="43.23627" lon="5.66916">
        <ele>398</ele>
        <time>2016-07-16T05:51:38Z</time>
      </trkpt>
      <trkpt lat="43.23592" lon="5.66973">
        <ele>401</ele>
        <time>2016-07-16T05:53:38Z</time>
      </trkpt>
      <trkpt lat="43.23571" lon="5.67004">
        <ele>401</ele>
        <time>2016-07-16T05:55:38Z</time>
      </trkpt>
      <trkpt lat="43.23562" lon="5.67015">
        <ele>402</ele>
        <time>2016-07-16T05:57:38Z</time>
      </trkpt>
      <trkpt lat="43.23554" lon="5.67023">
        <ele>402</ele>
        <time>2016-07-16T05:59:38Z</time>
      </trkpt>
      <trkpt lat="43.23549" lon="5.67027">
        <ele>402</ele>
        <time>2016-07-16T06:01:38Z</time>
      </trkpt>
      <trkpt lat="43.23532" lon="5.67037">
        <ele>402</ele>
        <time>2016-07-16T06:03:38Z</time>
      </trkpt>
      <trkpt lat="43.23504" lon="5.67054">
        <ele>403</ele>
        <time>2016-07-16T06:05:38Z</time>
      </trkpt>
      <trkpt lat="43.23491" lon="5.67065">
        <ele>402</ele>
        <time>2016-07-16T06:07:38Z</time>
      </trkpt>
      <trkpt lat="43.23484" lon="5.67075">
        <ele>401</ele>
        <time>2016-07-16T06:09:38Z</time>
      </trkpt>
      <trkpt lat="43.23479" lon="5.67089">
        <ele>401</ele>
        <time>2016-07-16T06:11:38Z</time>
      </trkpt>
      <trkpt lat="43.23476" lon="5.67102">
        <ele>401</ele>
        <time>2016-07-16T06:13:38Z</time>
      </trkpt>
      <trkpt lat="43.23473" lon="5.67111">
        <ele>400</ele>
        <time>2016-07-16T06:15:38Z</time>
      </trkpt>
      <trkpt lat="43.23471" lon="5.67125">
        <ele>400</ele>
        <time>2016-07-16T06:17:38Z</time>
      </trkpt>
      <trkpt lat="43.23469" lon="5.67133">
        <ele>400</ele>
        <time>2016-07-16T06:19:38Z</time>
      </trkpt>
      <trkpt lat="43.23467" lon="5.67143">
        <ele>400</ele>
        <time>2016-07-16T06:21:38Z</time>
      </trkpt>
      <trkpt lat="43.23467" lon="5.67152">
        <ele>400</ele>
        <time>2016-07-16T06:23:38Z</time>
      </trkpt>
      <trkpt lat="43.2346" lon="5.67162">
        <ele>399</ele>
        <time>2016-07-16T06:25:38Z</time>
      </trkpt>
      <trkpt lat="43.23455" lon="5.67167">
        <ele>399</ele>
        <time>2016-07-16T06:27:38Z</time>
      </trkpt>
      <trkpt lat="43.23444" lon="5.6717">
        <ele>398</ele>
        <time>2016-07-16T06:29:38Z</time>
      </trkpt>
      <trkpt lat="43.23444" lon="5.6717">
        <ele>398</ele>
        <time>2016-07-16T06:31:38Z</time>
      </trkpt>
      <trkpt lat="43.23442" lon="5.67161">
        <ele>398</ele>
        <time>2016-07-16T06:33:38Z</time>
      </trkpt>
      <trkpt lat="43.23437" lon="5.67141">
        <ele>398</ele>
        <time>2016-07-16T06:35:38Z</time>
      </trkpt>
      <trkpt lat="43.23409" lon="5.66989">
        <ele>399</ele>
        <time>2016-07-16T06:37:38Z</time>
      </trkpt>
      <trkpt lat="43.23407" lon="5.66976">
        <ele>399</ele>
        <time>2016-07-16T06:39:38Z</time>
      </trkpt>
      <trkpt lat="43.23407" lon="5.66964">
        <ele>399</ele>
        <time>2016-07-16T06:41:38Z</time>
      </trkpt>
      <trkpt lat="43.23407" lon="5.66939">
        <ele>400</ele>
        <time>2016-07-16T06:43:38Z</time>
      </trkpt>
      <trkpt lat="43.23411" lon="5.66917">
        <ele>400</ele>
        <time>2016-07-16T06:45:38Z</time>
      </trkpt>
      <trkpt lat="43.23414" lon="5.66898">
        <ele>399</ele>
        <time>2016-07-16T06:47:38Z</time>
      </trkpt>
      <trkpt lat="43.23416" lon="5.66884">
        <ele>398</ele>
        <time>2016-07-16T06:49:38Z</time>
      </trkpt>
      <trkpt lat="43.23419" lon="5.66857">
        <ele>397</ele>
        <time>2016-07-16T06:51:38Z</time>
      </trkpt>
      <trkpt lat="43.23419" lon="5.66849">
        <ele>397</ele>
        <time>2016-07-16T06:53:38Z</time>
      </trkpt>
      <trkpt lat="43.23419" lon="5.66831">
        <ele>396</ele>
        <time>2016-07-16T06:55:38Z</time>
      </trkpt>
      <trkpt lat="43.23418" lon="5.66817">
        <ele>395</ele>
        <time>2016-07-16T06:57:38Z</time>
      </trkpt>
      <trkpt lat="43.23418" lon="5.66804">
        <ele>394</ele>
        <time>2016-07-16T06:59:38Z</time>
      </trkpt>
      <trkpt lat="43.23417" lon="5.66794">
        <ele>393</ele>
        <time>2016-07-16T07:01:38Z</time>
      </trkpt>
      <trkpt lat="43.23415" lon="5.66789">
        <ele>393</ele>
        <time>2016-07-16T07:03:38Z</time>
      </trkpt>
      <trkpt lat="43.23413" lon="5.66778">
        <ele>392</ele>
        <time>2016-07-16T07:05:38Z</time>
      </trkpt>
      <trkpt lat="43.23409" lon="5.66766">
        <ele>392</ele>
        <time>2016-07-16T07:07:38Z</time>
      </trkpt>
      <trkpt lat="43.23406" lon="5.66758">
        <ele>392</ele>
        <time>2016-07-16T07:09:38Z</time>
      </trkpt>
      <trkpt lat="43.23402" lon="5.66748">
        <ele>392</ele>
        <time>2016-07-16T07:11:38Z</time>
      </trkpt>
      <trkpt lat="43.23397" lon="5.66732">
        <ele>391</ele>
        <time>2016-07-16T07:13:38Z</time>
      </trkpt>
      <trkpt lat="43.23396" lon="5.66729">
        <ele>391</ele>
        <time>2016-07-16T07:15:38Z</time>
      </trkpt>
      <trkpt lat="43.23396" lon="5.66726">
        <ele>391</ele>
        <time>2016-07-16T07:17:38Z</time>
      </trkpt>
      <trkpt lat="43.23396" lon="5.66722">
        <ele>390</ele>
        <time>2016-07-16T07:19:38Z</time>
      </trkpt>
      <trkpt lat="43.23396" lon="5.66718">
        <ele>390</ele>
        <time>2016-07-16T07:21:38Z</time>
      </trkpt>
      <trkpt lat="43.23396" lon="5.66713">
        <ele>390</ele>
        <time>2016-07-16T07:23:38Z</time>
      </trkpt>
      <trkpt lat="43.23396" lon="5.66708">
        <ele>389</ele>
        <time>2016-07-16T07:25:38Z</time>
      </trkpt>
      <trkpt lat="43.23397" lon="5.66702">
        <ele>388</ele>
        <time>2016-07-16T07:27:38Z</time>
      </trkpt>
      <trkpt lat="43.23397" lon="5.66696">
        <ele>388</ele>
        <time>2016-07-16T07:29:38Z</time>
      </trkpt>
      <trkpt lat="43.23399" lon="5.66687">
        <ele>387</ele>
        <time>2016-07-16T07:31:38Z</time>
      </trkpt>
      <trkpt lat="43.234" lon="5.6668">
        <ele>386</ele>
        <time>2016-07-16T07:33:38Z</time>
      </trkpt>
      <trkpt lat="43.234" lon="5.66674">
        <ele>386</ele>
        <time>2016-07-16T07:35:38Z</time>
      </trkpt>
      <trkpt lat="43.234" lon="5.66669">
        <ele>385</ele>
        <time>2016-07-16T07:37:38Z</time>
      </trkpt>
      <trkpt lat="43.234" lon="5.66663">
        <ele>385</ele>
        <time>2016-07-16T07:39:38Z</time>
      </trkpt>
      <trkpt lat="43.23399" lon="5.66656">
        <ele>385</ele>
        <time>2016-07-16T07:41:38Z</time>
      </trkpt>
      <trkpt lat="43.23398" lon="5.66653">
        <ele>385</ele>
        <time>2016-07-16T07:43:38Z</time>
      </trkpt>
      <trkpt lat="43.23397" lon="5.66647">
        <ele>385</ele>
        <time>2016-07-16T07:45:38Z</time>
      </trkpt>
      <trkpt lat="43.23394" lon="5.66642">
        <ele>385</ele>
        <time>2016-07-16T07:47:38Z</time>
      </trkpt>
      <trkpt lat="43.23392" lon="5.66636">
        <ele>385</ele>
        <time>2016-07-16T07:49:38Z</time>
      </trkpt>
      <trkpt lat="43.2339" lon="5.66631">
        <ele>385</ele>
        <time>2016-07-16T07:51:38Z</time>
      </trkpt>
      <trkpt lat="43.23387" lon="5.66625">
        <ele>385</ele>
        <time>2016-07-16T07:53:38Z</time>
      </trkpt>
      <trkpt lat="43.23384" lon="5.66618">
        <ele>385</ele>
        <time>2016-07-16T07:55:38Z</time>
      </trkpt>
      <trkpt lat="43.23381" lon="5.66614">
        <ele>385</ele>
        <time>2016-07-16T07:57:38Z</time>
      </trkpt>
      <trkpt lat="43.23378" lon="5.66611">
        <ele>386</ele>
        <time>2016-07-16T07:59:38Z</time>
      </trkpt>
      <trkpt lat="43.23373" lon="5.66604">
        <ele>386</ele>
        <time>2016-07-16T08:01:38Z</time>
      </trkpt>
      <trkpt lat="43.23366" lon="5.66595">
        <ele>386</ele>
        <time>2016-07-16T08:03:38Z</time>
      </trkpt>
      <trkpt lat="43.23359" lon="5.66586">
        <ele>385</ele>
        <time>2016-07-16T08:05:38Z</time>
      </trkpt>
      <trkpt lat="43.23356" lon="5.6658">
        <ele>385</ele>
        <time>2016-07-16T08:07:38Z</time>
      </trkpt>
      <trkpt lat="43.23353" lon="5.66573">
        <ele>385</ele>
        <time>2016-07-16T08:09:38Z</time>
      </trkpt>
      <trkpt lat="43.23351" lon="5.66564">
        <ele>385</ele>
        <time>2016-07-16T08:11:38Z</time>
      </trkpt>
      <trkpt lat="43.23349" lon="5.66557">
        <ele>385</ele>
        <time>2016-07-16T08:13:38Z</time>
      </trkpt>
      <trkpt lat="43.23349" lon="5.66551">
        <ele>385</ele>
        <time>2016-07-16T08:15:38Z</time>
      </trkpt>
      <trkpt lat="43.23348" lon="5.66545">
        <ele>385</ele>
        <time>2016-07-16T08:17:38Z</time>
      </trkpt>
      <trkpt lat="43.23348" lon="5.66536">
        <ele>385</ele>
        <time>2016-07-16T08:19:38Z</time>
      </trkpt>
      <trkpt lat="43.23348" lon="5.66527">
        <ele>385</ele>
        <time>2016-07-16T08:21:38Z</time>
      </trkpt>
      <trkpt lat="43.23348" lon="5.6652">
        <ele>385</ele>
        <time>2016-07-16T08:23:38Z</time>
      </trkpt>
      <trkpt lat="43.23349" lon="5.66503">
        <ele>384</ele>
        <time>2016-07-16T08:25:38Z</time>
      </trkpt>
      <trkpt lat="43.23349" lon="5.66487">
        <ele>383</ele>
        <time>2016-07-16T08:27:38Z</time>
      </trkpt>
      <trkpt lat="43.2335" lon="5.66473">
        <ele>383</ele>
        <time>2016-07-16T08:29:38Z</time>
      </trkpt>
      <trkpt lat="43.23351" lon="5.6646">
        <ele>382</ele>
        <time>2016-07-16T08:31:38Z</time>
      </trkpt>
      <trkpt lat="43.23354" lon="5.66441">
        <ele>380</ele>
        <time>2016-07-16T08:33:38Z</time>
      </trkpt>
      <trkpt lat="43.23358" lon="5.66423">
        <ele>379</ele>
        <time>2016-07-16T08:35:38Z</time>
      </trkpt>
      <trkpt lat="43.23361" lon="5.66405">
        <ele>378</ele>
        <time>2016-07-16T08:37:38Z</time>
      </trkpt>
      <trkpt lat="43.23362" lon="5.66399">
        <ele>377</ele>
        <time>2016-07-16T08:39:38Z</time>
      </trkpt>
      <trkpt lat="43.23363" lon="5.66395">
        <ele>377</ele>
        <time>2016-07-16T08:41:38Z</time>
      </trkpt>
      <trkpt lat="43.23364" lon="5.66391">
        <ele>377</ele>
        <time>2016-07-16T08:43:38Z</time>
      </trkpt>
      <trkpt lat="43.23364" lon="5.66384">
        <ele>377</ele>
        <time>2016-07-16T08:45:38Z</time>
      </trkpt>
      <trkpt lat="43.23364" lon="5.66379">
        <ele>376</ele>
        <time>2016-07-16T08:47:38Z</time>
      </trkpt>
      <trkpt lat="43.23364" lon="5.66372">
        <ele>376</ele>
        <time>2016-07-16T08:49:38Z</time>
      </trkpt>
      <trkpt lat="43.23364" lon="5.66366">
        <ele>376</ele>
        <time>2016-07-16T08:51:38Z</time>
      </trkpt>
      <trkpt lat="43.23362" lon="5.66356">
        <ele>375</ele>
        <time>2016-07-16T08:53:38Z</time>
      </trkpt>
      <trkpt lat="43.2336" lon="5.66349">
        <ele>375</ele>
        <time>2016-07-16T08:55:38Z</time>
      </trkpt>
      <trkpt lat="43.23354" lon="5.66329">
        <ele>373</ele>
        <time>2016-07-16T08:57:38Z</time>
      </trkpt>
      <trkpt lat="43.23349" lon="5.66316">
        <ele>372</ele>
        <time>2016-07-16T08:59:38Z</time>
      </trkpt>
      <trkpt lat="43.23344" lon="5.66301">
        <ele>370</ele>
        <time>2016-07-16T09:01:38Z</time>
      </trkpt>
      <trkpt lat="43.23334" lon="5.66274">
        <ele>367</ele>
        <time>2016-07-16T09:03:38Z</time>
      </trkpt>
      <trkpt lat="43.23332" lon="5.66269">
        <ele>366</ele>
        <time>2016-07-16T09:05:38Z</time>
      </trkpt>
      <trkpt lat="43.23329" lon="5.66265">
        <ele>366</ele>
        <time>2016-07-16T09:07:38Z</time>
      </trkpt>
      <trkpt lat="43.23327" lon="5.66263">
        <ele>366</ele>
        <time>2016-07-16T09:09:38Z</time>
      </trkpt>
      <trkpt lat="43.23325" lon="5.6626">
        <ele>365</ele>
        <time>2016-07-16T09:11:38Z</time>
      </trkpt>
      <trkpt lat="43.23321" lon="5.66257">
        <ele>365</ele>
        <time>2016-07-16T09:13:38Z</time>
      </trkpt>
      <trkpt lat="43.23316" lon="5.66255">
        <ele>365</ele>
        <time>2016-07-16T09:15:38Z</time>
      </trkpt>
      <trkpt lat="43.23311" lon="5.66254">
        <ele>365</ele>
        <time>2016-07-16T09:17:38Z</time>
      </trkpt>
      <trkpt lat="43.23307" lon="5.66254">
        <ele>365</ele>
        <time>2016-07-16T09:19:38Z</time>
      </trkpt>
      <trkpt lat="43.23304" lon="5.66254">
        <ele>365</ele>
        <time>2016-07-16T09:21:38Z</time>
      </trkpt>
      <trkpt lat="43.23301" lon="5.66255">
        <ele>365</ele>
        <time>2016-07-16T09:23:38Z</time>
      </trkpt>
      <trkpt lat="43.23296" lon="5.66256">
        <ele>365</ele>
        <time>2016-07-16T09:25:38Z</time>
      </trkpt>
      <trkpt lat="43.23291" lon="5.66257">
        <ele>366</ele>
        <time>2016-07-16T09:27:38Z</time>
      </trkpt>
      <trkpt lat="43.23283" lon="5.66258">
        <ele>366</ele>
        <time>2016-07-16T09:29:38Z</time>
      </trkpt>
      <trkpt lat="43.2328" lon="5.66256">
        <ele>366</ele>
        <time>2016-07-16T09:31:38Z</time>
      </trkpt>
      <trkpt lat="43.23278" lon="5.66255">
        <ele>366</ele>
        <time>2016-07-16T09:33:38Z</time>
      </trkpt>
      <trkpt lat="43.23276" lon="5.66253">
        <ele>366</ele>
        <time>2016-07-16T09:35:38Z</time>
      </trkpt>
      <trkpt lat="43.23274" lon="5.66251">
        <ele>366</ele>
        <time>2016-07-16T09:37:38Z</time>
      </trkpt>
      <trkpt lat="43.23272" lon="5.66249">
        <ele>365</ele>
        <time>2016-07-16T09:39:38Z</time>
      </trkpt>
      <trkpt lat="43.23271" lon="5.66247">
        <ele>365</ele>
        <time>2016-07-16T09:41:38Z</time>
      </trkpt>
      <trkpt lat="43.2327" lon="5.66245">
        <ele>365</ele>
        <time>2016-07-16T09:43:38Z</time>
      </trkpt>
      <trkpt lat="43.23269" lon="5.66243">
        <ele>365</ele>
        <time>2016-07-16T09:45:38Z</time>
      </trkpt>
      <trkpt lat="43.23268" lon="5.6624">
        <ele>365</ele>
        <time>2016-07-16T09:47:38Z</time>
      </trkpt>
      <trkpt lat="43.23266" lon="5.66228">
        <ele>364</ele>
        <time>2016-07-16T09:49:38Z</time>
      </trkpt>
      <trkpt lat="43.23266" lon="5.66222">
        <ele>364</ele>
        <time>2016-07-16T09:51:38Z</time>
      </trkpt>
      <trkpt lat="43.23266" lon="5.66215">
        <ele>364</ele>
        <time>2016-07-16T09:53:38Z</time>
      </trkpt>
      <trkpt lat="43.23266" lon="5.66209">
        <ele>364</ele>
        <time>2016-07-16T09:55:38Z</time>
      </trkpt>
      <trkpt lat="43.23266" lon="5.66201">
        <ele>363</ele>
        <time>2016-07-16T09:57:38Z</time>
      </trkpt>
      <trkpt lat="43.23266" lon="5.66196">
        <ele>363</ele>
        <time>2016-07-16T09:59:38Z</time>
      </trkpt>
      <trkpt lat="43.23265" lon="5.66191">
        <ele>363</ele>
        <time>2016-07-16T10:01:38Z</time>
      </trkpt>
      <trkpt lat="43.23265" lon="5.66187">
        <ele>362</ele>
        <time>2016-07-16T10:03:38Z</time>
      </trkpt>
      <trkpt lat="43.23265" lon="5.66182">
        <ele>362</ele>
        <time>2016-07-16T10:05:38Z</time>
      </trkpt>
      <trkpt lat="43.23261" lon="5.6617">
        <ele>361</ele>
        <time>2016-07-16T10:07:38Z</time>
      </trkpt>
      <trkpt lat="43.23252" lon="5.66142">
        <ele>360</ele>
        <time>2016-07-16T10:09:38Z</time>
      </trkpt>
      <trkpt lat="43.23247" lon="5.66132">
        <ele>359</ele>
        <time>2016-07-16T10:11:38Z</time>
      </trkpt>
      <trkpt lat="43.23229" lon="5.66088">
        <ele>357</ele>
        <time>2016-07-16T10:13:38Z</time>
      </trkpt>
      <trkpt lat="43.23221" lon="5.66067">
        <ele>355</ele>
        <time>2016-07-16T10:15:38Z</time>
      </trkpt>
      <trkpt lat="43.23219" lon="5.66062">
        <ele>355</ele>
        <time>2016-07-16T10:17:38Z</time>
      </trkpt>
      <trkpt lat="43.23215" lon="5.66054">
        <ele>354</ele>
        <time>2016-07-16T10:19:38Z</time>
      </trkpt>
      <trkpt lat="43.23212" lon="5.66048">
        <ele>354</ele>
        <time>2016-07-16T10:21:38Z</time>
      </trkpt>
      <trkpt lat="43.23208" lon="5.66044">
        <ele>354</ele>
        <time>2016-07-16T10:23:38Z</time>
      </trkpt>
      <trkpt lat="43.23206" lon="5.66041">
        <ele>353</ele>
        <time>2016-07-16T10:25:38Z</time>
      </trkpt>
      <trkpt lat="43.23204" lon="5.66039">
        <ele>353</ele>
        <time>2016-07-16T10:27:38Z</time>
      </trkpt>
      <trkpt lat="43.23202" lon="5.66037">
        <ele>353</ele>
        <time>2016-07-16T10:29:38Z</time>
      </trkpt>
      <trkpt lat="43.23199" lon="5.66034">
        <ele>353</ele>
        <time>2016-07-16T10:31:38Z</time>
      </trkpt>
      <trkpt lat="43.23193" lon="5.66029">
        <ele>352</ele>
        <time>2016-07-16T10:33:38Z</time>
      </trkpt>
      <trkpt lat="43.23192" lon="5.66029">
        <ele>352</ele>
        <time>2016-07-16T10:35:38Z</time>
      </trkpt>
      <trkpt lat="43.23188" lon="5.66026">
        <ele>352</ele>
        <time>2016-07-16T10:37:38Z</time>
      </trkpt>
      <trkpt lat="43.23186" lon="5.66024">
        <ele>352</ele>
        <time>2016-07-16T10:39:38Z</time>
      </trkpt>
      <trkpt lat="43.23183" lon="5.66023">
        <ele>352</ele>
        <time>2016-07-16T10:41:38Z</time>
      </trkpt>
      <trkpt lat="43.23177" lon="5.66018">
        <ele>351</ele>
        <time>2016-07-16T10:43:38Z</time>
      </trkpt>
      <trkpt lat="43.23174" lon="5.66015">
        <ele>351</ele>
        <time>2016-07-16T10:45:38Z</time>
      </trkpt>
      <trkpt lat="43.23173" lon="5.66013">
        <ele>351</ele>
        <time>2016-07-16T10:47:38Z</time>
      </trkpt>
      <trkpt lat="43.2317" lon="5.6601">
        <ele>351</ele>
        <time>2016-07-16T10:49:38Z</time>
      </trkpt>
      <trkpt lat="43.23168" lon="5.66006">
        <ele>350</ele>
        <time>2016-07-16T10:51:38Z</time>
      </trkpt>
      <trkpt lat="43.23167" lon="5.66003">
        <ele>350</ele>
        <time>2016-07-16T10:53:38Z</time>
      </trkpt>
      <trkpt lat="43.23166" lon="5.66">
        <ele>350</ele>
        <time>2016-07-16T10:55:38Z</time>
      </trkpt>
      <trkpt lat="43.23165" lon="5.65996">
        <ele>350</ele>
        <time>2016-07-16T10:57:38Z</time>
      </trkpt>
      <trkpt lat="43.23165" lon="5.65992">
        <ele>350</ele>
        <time>2016-07-16T10:59:38Z</time>
      </trkpt>
      <trkpt lat="43.23165" lon="5.65986">
        <ele>350</ele>
        <time>2016-07-16T11:01:38Z</time>
      </trkpt>
      <trkpt lat="43.23165" lon="5.65981">
        <ele>349</ele>
        <time>2016-07-16T11:03:38Z</time>
      </trkpt>
      <trkpt lat="43.23166" lon="5.65977">
        <ele>349</ele>
        <time>2016-07-16T11:05:38Z</time>
      </trkpt>
      <trkpt lat="43.23167" lon="5.65971">
        <ele>349</ele>
        <time>2016-07-16T11:07:38Z</time>
      </trkpt>
      <trkpt lat="43.2317" lon="5.65963">
        <ele>349</ele>
        <time>2016-07-16T11:09:38Z</time>
      </trkpt>
      <trkpt lat="43.23179" lon="5.65944">
        <ele>349</ele>
        <time>2016-07-16T11:11:38Z</time>
      </trkpt>
      <trkpt lat="43.23185" lon="5.65932">
        <ele>349</ele>
        <time>2016-07-16T11:13:38Z</time>
      </trkpt>
      <trkpt lat="43.23188" lon="5.65927">
        <ele>349</ele>
        <time>2016-07-16T11:15:38Z</time>
      </trkpt>
      <trkpt lat="43.23191" lon="5.65921">
        <ele>348</ele>
        <time>2016-07-16T11:17:38Z</time>
      </trkpt>
      <trkpt lat="43.23195" lon="5.65915">
        <ele>348</ele>
        <time>2016-07-16T11:19:38Z</time>
      </trkpt>
      <trkpt lat="43.23197" lon="5.65911">
        <ele>348</ele>
        <time>2016-07-16T11:21:38Z</time>
      </trkpt>
      <trkpt lat="43.23198" lon="5.65909">
        <ele>348</ele>
        <time>2016-07-16T11:23:38Z</time>
      </trkpt>
      <trkpt lat="43.232" lon="5.65905">
        <ele>348</ele>
        <time>2016-07-16T11:25:38Z</time>
      </trkpt>
      <trkpt lat="43.23202" lon="5.65901">
        <ele>348</ele>
        <time>2016-07-16T11:27:38Z</time>
      </trkpt>
      <trkpt lat="43.23203" lon="5.65898">
        <ele>348</ele>
        <time>2016-07-16T11:29:38Z</time>
      </trkpt>
      <trkpt lat="43.23204" lon="5.65895">
        <ele>347</ele>
        <time>2016-07-16T11:31:38Z</time>
      </trkpt>
      <trkpt lat="43.23206" lon="5.65891">
        <ele>347</ele>
        <time>2016-07-16T11:33:38Z</time>
      </trkpt>
      <trkpt lat="43.23207" lon="5.65886">
        <ele>347</ele>
        <time>2016-07-16T11:35:38Z</time>
      </trkpt>
      <trkpt lat="43.23208" lon="5.65881">
        <ele>347</ele>
        <time>2016-07-16T11:37:38Z</time>
      </trkpt>
      <trkpt lat="43.23209" lon="5.65878">
        <ele>347</ele>
        <time>2016-07-16T11:39:38Z</time>
      </trkpt>
      <trkpt lat="43.23209" lon="5.65874">
        <ele>346</ele>
        <time>2016-07-16T11:41:38Z</time>
      </trkpt>
      <trkpt lat="43.23209" lon="5.65867">
        <ele>346</ele>
        <time>2016-07-16T11:43:38Z</time>
      </trkpt>
      <trkpt lat="43.23209" lon="5.65864">
        <ele>346</ele>
        <time>2016-07-16T11:45:38Z</time>
      </trkpt>
      <trkpt lat="43.23209" lon="5.6586">
        <ele>346</ele>
        <time>2016-07-16T11:47:38Z</time>
      </trkpt>
      <trkpt lat="43.23208" lon="5.65856">
        <ele>346</ele>
        <time>2016-07-16T11:49:38Z</time>
      </trkpt>
      <trkpt lat="43.23208" lon="5.65853">
        <ele>345</ele>
        <time>2016-07-16T11:51:38Z</time>
      </trkpt>
      <trkpt lat="43.23206" lon="5.65847">
        <ele>345</ele>
        <time>2016-07-16T11:53:38Z</time>
      </trkpt>
      <trkpt lat="43.23205" lon="5.65841">
        <ele>345</ele>
        <time>2016-07-16T11:55:38Z</time>
      </trkpt>
      <trkpt lat="43.23204" lon="5.65836">
        <ele>345</ele>
        <time>2016-07-16T11:57:38Z</time>
      </trkpt>
      <trkpt lat="43.232" lon="5.65823">
        <ele>344</ele>
        <time>2016-07-16T11:59:38Z</time>
      </trkpt>
      <trkpt lat="43.23196" lon="5.65811">
        <ele>343</ele>
        <time>2016-07-16T12:01:38Z</time>
      </trkpt>
      <trkpt lat="43.23192" lon="5.65801">
        <ele>342</ele>
        <time>2016-07-16T12:03:38Z</time>
      </trkpt>
      <trkpt lat="43.23187" lon="5.65786">
        <ele>340</ele>
        <time>2016-07-16T12:05:38Z</time>
      </trkpt>
      <trkpt lat="43.23182" lon="5.65771">
        <ele>338</ele>
        <time>2016-07-16T12:07:38Z</time>
      </trkpt>
      <trkpt lat="43.23178" lon="5.65759">
        <ele>337</ele>
        <time>2016-07-16T12:09:38Z</time>
      </trkpt>
      <trkpt lat="43.23174" lon="5.65745">
        <ele>336</ele>
        <time>2016-07-16T12:11:38Z</time>
      </trkpt>
      <trkpt lat="43.23171" lon="5.65733">
        <ele>334</ele>
        <time>2016-07-16T12:13:38Z</time>
      </trkpt>
      <trkpt lat="43.23169" lon="5.65729">
        <ele>334</ele>
        <time>2016-07-16T12:15:38Z</time>
      </trkpt>
      <trkpt lat="43.23168" lon="5.65725">
        <ele>333</ele>
        <time>2016-07-16T12:17:38Z</time>
      </trkpt>
      <trkpt lat="43.23165" lon="5.6572">
        <ele>333</ele>
        <time>2016-07-16T12:19:38Z</time>
      </trkpt>
      <trkpt lat="43.23163" lon="5.65717">
        <ele>332</ele>
        <time>2016-07-16T12:21:38Z</time>
      </trkpt>
      <trkpt lat="43.23162" lon="5.65715">
        <ele>332</ele>
        <time>2016-07-16T12:23:38Z</time>
      </trkpt>
      <trkpt lat="43.2316" lon="5.65712">
        <ele>331</ele>
        <time>2016-07-16T12:25:38Z</time>
      </trkpt>
      <trkpt lat="43.23158" lon="5.65709">
        <ele>331</ele>
        <time>2016-07-16T12:27:38Z</time>
      </trkpt>
      <trkpt lat="43.23155" lon="5.65705">
        <ele>330</ele>
        <time>2016-07-16T12:29:38Z</time>
      </trkpt>
      <trkpt lat="43.23151" lon="5.65701">
        <ele>330</ele>
        <time>2016-07-16T12:31:38Z</time>
      </trkpt>
      <trkpt lat="43.23149" lon="5.657">
        <ele>330</ele>
        <time>2016-07-16T12:33:38Z</time>
      </trkpt>
      <trkpt lat="43.23147" lon="5.65699">
        <ele>329</ele>
        <time>2016-07-16T12:35:38Z</time>
      </trkpt>
      <trkpt lat="43.23144" lon="5.65698">
        <ele>329</ele>
        <time>2016-07-16T12:37:38Z</time>
      </trkpt>
      <trkpt lat="43.23141" lon="5.65696">
        <ele>329</ele>
        <time>2016-07-16T12:39:38Z</time>
      </trkpt>
      <trkpt lat="43.23138" lon="5.65696">
        <ele>329</ele>
        <time>2016-07-16T12:41:38Z</time>
      </trkpt>
      <trkpt lat="43.23135" lon="5.65696">
        <ele>328</ele>
        <time>2016-07-16T12:43:38Z</time>
      </trkpt>
      <trkpt lat="43.23132" lon="5.65696">
        <ele>328</ele>
        <time>2016-07-16T12:45:38Z</time>
      </trkpt>
      <trkpt lat="43.23128" lon="5.65696">
        <ele>328</ele>
        <time>2016-07-16T12:47:38Z</time>
      </trkpt>
      <trkpt lat="43.23123" lon="5.65697">
        <ele>328</ele>
        <time>2016-07-16T12:49:38Z</time>
      </trkpt>
      <trkpt lat="43.23122" lon="5.65697">
        <ele>328</ele>
        <time>2016-07-16T12:51:38Z</time>
      </trkpt>
      <trkpt lat="43.2312" lon="5.65698">
        <ele>328</ele>
        <time>2016-07-16T12:53:38Z</time>
      </trkpt>
      <trkpt lat="43.23116" lon="5.657">
        <ele>328</ele>
        <time>2016-07-16T12:55:38Z</time>
      </trkpt>
      <trkpt lat="43.23114" lon="5.65702">
        <ele>328</ele>
        <time>2016-07-16T12:57:38Z</time>
      </trkpt>
      <trkpt lat="43.23112" lon="5.65704">
        <ele>328</ele>
        <time>2016-07-16T12:59:38Z</time>
      </trkpt>
      <trkpt lat="43.23109" lon="5.65707">
        <ele>328</ele>
        <time>2016-07-16T13:01:38Z</time>
      </trkpt>
      <trkpt lat="43.23108" lon="5.65708">
        <ele>328</ele>
        <time>2016-07-16T13:03:38Z</time>
      </trkpt>
      <trkpt lat="43.23105" lon="5.65711">
        <ele>328</ele>
        <time>2016-07-16T13:05:38Z</time>
      </trkpt>
      <trkpt lat="43.23104" lon="5.65713">
        <ele>328</ele>
        <time>2016-07-16T13:07:38Z</time>
      </trkpt>
      <trkpt lat="43.23102" lon="5.65716">
        <ele>328</ele>
        <time>2016-07-16T13:09:38Z</time>
      </trkpt>
      <trkpt lat="43.231" lon="5.65721">
        <ele>329</ele>
        <time>2016-07-16T13:11:38Z</time>
      </trkpt>
      <trkpt lat="43.23099" lon="5.65724">
        <ele>329</ele>
        <time>2016-07-16T13:13:38Z</time>
      </trkpt>
      <trkpt lat="43.23097" lon="5.6573">
        <ele>329</ele>
        <time>2016-07-16T13:15:38Z</time>
      </trkpt>
      <trkpt lat="43.23096" lon="5.65734">
        <ele>330</ele>
        <time>2016-07-16T13:17:38Z</time>
      </trkpt>
      <trkpt lat="43.23096" lon="5.65738">
        <ele>330</ele>
        <time>2016-07-16T13:19:38Z</time>
      </trkpt>
      <trkpt lat="43.23096" lon="5.65742">
        <ele>330</ele>
        <time>2016-07-16T13:21:38Z</time>
      </trkpt>
      <trkpt lat="43.23095" lon="5.65749">
        <ele>331</ele>
        <time>2016-07-16T13:23:38Z</time>
      </trkpt>
      <trkpt lat="43.23096" lon="5.65752">
        <ele>331</ele>
        <time>2016-07-16T13:25:38Z</time>
      </trkpt>
      <trkpt lat="43.23096" lon="5.6576">
        <ele>331</ele>
        <time>2016-07-16T13:27:38Z</time>
      </trkpt>
      <trkpt lat="43.23097" lon="5.65767">
        <ele>332</ele>
        <time>2016-07-16T13:29:38Z</time>
      </trkpt>
      <trkpt lat="43.23097" lon="5.65776">
        <ele>332</ele>
        <time>2016-07-16T13:31:38Z</time>
      </trkpt>
      <trkpt lat="43.23098" lon="5.65784">
        <ele>333</ele>
        <time>2016-07-16T13:33:38Z</time>
      </trkpt>
      <trkpt lat="43.23099" lon="5.6579">
        <ele>333</ele>
        <time>2016-07-16T13:35:38Z</time>
      </trkpt>
      <trkpt lat="43.23099" lon="5.65795">
        <ele>333</ele>
        <time>2016-07-16T13:37:38Z</time>
      </trkpt>
      <trkpt lat="43.23099" lon="5.65799">
        <ele>334</ele>
        <time>2016-07-16T13:39:38Z</time>
      </trkpt>
      <trkpt lat="43.231" lon="5.65805">
        <ele>334</ele>
        <time>2016-07-16T13:41:38Z</time>
      </trkpt>
      <trkpt lat="43.231" lon="5.65809">
        <ele>334</ele>
        <time>2016-07-16T13:43:38Z</time>
      </trkpt>
      <trkpt lat="43.231" lon="5.65814">
        <ele>334</ele>
        <time>2016-07-16T13:45:38Z</time>
      </trkpt>
      <trkpt lat="43.23101" lon="5.6582">
        <ele>335</ele>
        <time>2016-07-16T13:47:38Z</time>
      </trkpt>
      <trkpt lat="43.23101" lon="5.65827">
        <ele>335</ele>
        <time>2016-07-16T13:49:38Z</time>
      </trkpt>
      <trkpt lat="43.23101" lon="5.65833">
        <ele>336</ele>
        <time>2016-07-16T13:51:38Z</time>
      </trkpt>
      <trkpt lat="43.231" lon="5.65835">
        <ele>335</ele>
        <time>2016-07-16T13:53:38Z</time>
      </trkpt>
      <trkpt lat="43.231" lon="5.65839">
        <ele>336</ele>
        <time>2016-07-16T13:55:38Z</time>
      </trkpt>
      <trkpt lat="43.23099" lon="5.65842">
        <ele>336</ele>
        <time>2016-07-16T13:57:38Z</time>
      </trkpt>
      <trkpt lat="43.23099" lon="5.65845">
        <ele>336</ele>
        <time>2016-07-16T13:59:38Z</time>
      </trkpt>
      <trkpt lat="43.23098" lon="5.65847">
        <ele>336</ele>
        <time>2016-07-16T14:01:38Z</time>
      </trkpt>
      <trkpt lat="43.23098" lon="5.65848">
        <ele>336</ele>
        <time>2016-07-16T14:03:38Z</time>
      </trkpt>
      <trkpt lat="43.23096" lon="5.65851">
        <ele>335</ele>
        <time>2016-07-16T14:05:38Z</time>
      </trkpt>
      <trkpt lat="43.23095" lon="5.65853">
        <ele>335</ele>
        <time>2016-07-16T14:07:38Z</time>
      </trkpt>
      <trkpt lat="43.23094" lon="5.65854">
        <ele>335</ele>
        <time>2016-07-16T14:09:38Z</time>
      </trkpt>
      <trkpt lat="43.23093" lon="5.65855">
        <ele>335</ele>
        <time>2016-07-16T14:11:38Z</time>
      </trkpt>
      <trkpt lat="43.2309" lon="5.65856">
        <ele>335</ele>
        <time>2016-07-16T14:13:38Z</time>
      </trkpt>
      <trkpt lat="43.23089" lon="5.65857">
        <ele>335</ele>
        <time>2016-07-16T14:15:38Z</time>
      </trkpt>
      <trkpt lat="43.23086" lon="5.65857">
        <ele>334</ele>
        <time>2016-07-16T14:17:38Z</time>
      </trkpt>
      <trkpt lat="43.23085" lon="5.65857">
        <ele>334</ele>
        <time>2016-07-16T14:19:38Z</time>
      </trkpt>
      <trkpt lat="43.23083" lon="5.65857">
        <ele>334</ele>
        <time>2016-07-16T14:21:38Z</time>
      </trkpt>
      <trkpt lat="43.23081" lon="5.65857">
        <ele>334</ele>
        <time>2016-07-16T14:23:38Z</time>
      </trkpt>
      <trkpt lat="43.2308" lon="5.65856">
        <ele>333</ele>
        <time>2016-07-16T14:25:38Z</time>
      </trkpt>
      <trkpt lat="43.23078" lon="5.65855">
        <ele>333</ele>
        <time>2016-07-16T14:27:38Z</time>
      </trkpt>
      <trkpt lat="43.23076" lon="5.65854">
        <ele>333</ele>
        <time>2016-07-16T14:29:38Z</time>
      </trkpt>
      <trkpt lat="43.23075" lon="5.65853">
        <ele>333</ele>
        <time>2016-07-16T14:31:38Z</time>
      </trkpt>
      <trkpt lat="43.23074" lon="5.65852">
        <ele>332</ele>
        <time>2016-07-16T14:33:38Z</time>
      </trkpt>
      <trkpt lat="43.23072" lon="5.65849">
        <ele>332</ele>
        <time>2016-07-16T14:35:38Z</time>
      </trkpt>
      <trkpt lat="43.2307" lon="5.65846">
        <ele>332</ele>
        <time>2016-07-16T14:37:38Z</time>
      </trkpt>
      <trkpt lat="43.23068" lon="5.65842">
        <ele>331</ele>
        <time>2016-07-16T14:39:38Z</time>
      </trkpt>
      <trkpt lat="43.23065" lon="5.65835">
        <ele>330</ele>
        <time>2016-07-16T14:41:38Z</time>
      </trkpt>
      <trkpt lat="43.23061" lon="5.65828">
        <ele>330</ele>
        <time>2016-07-16T14:43:38Z</time>
      </trkpt>
      <trkpt lat="43.2306" lon="5.65826">
        <ele>329</ele>
        <time>2016-07-16T14:45:38Z</time>
      </trkpt>
      <trkpt lat="43.23059" lon="5.65824">
        <ele>329</ele>
        <time>2016-07-16T14:47:38Z</time>
      </trkpt>
      <trkpt lat="43.23056" lon="5.65822">
        <ele>329</ele>
        <time>2016-07-16T14:49:38Z</time>
      </trkpt>
      <trkpt lat="43.23055" lon="5.65821">
        <ele>328</ele>
        <time>2016-07-16T14:51:38Z</time>
      </trkpt>
      <trkpt lat="43.23053" lon="5.6582">
        <ele>328</ele>
        <time>2016-07-16T14:53:38Z</time>
      </trkpt>
      <trkpt lat="43.23051" lon="5.65819">
        <ele>328</ele>
        <time>2016-07-16T14:55:38Z</time>
      </trkpt>
      <trkpt lat="43.23047" lon="5.65819">
        <ele>327</ele>
        <time>2016-07-16T14:57:38Z</time>
      </trkpt>
      <trkpt lat="43.23045" lon="5.65819">
        <ele>327</ele>
        <time>2016-07-16T14:59:38Z</time>
      </trkpt>
      <trkpt lat="43.23044" lon="5.65819">
        <ele>327</ele>
        <time>2016-07-16T15:01:38Z</time>
      </trkpt>
      <trkpt lat="43.23042" lon="5.6582">
        <ele>326</ele>
        <time>2016-07-16T15:03:38Z</time>
      </trkpt>
      <trkpt lat="43.2304" lon="5.65821">
        <ele>326</ele>
        <time>2016-07-16T15:05:38Z</time>
      </trkpt>
      <trkpt lat="43.23038" lon="5.65822">
        <ele>326</ele>
        <time>2016-07-16T15:07:38Z</time>
      </trkpt>
      <trkpt lat="43.23037" lon="5.65823">
        <ele>326</ele>
        <time>2016-07-16T15:09:38Z</time>
      </trkpt>
      <trkpt lat="43.23034" lon="5.65826">
        <ele>326</ele>
        <time>2016-07-16T15:11:38Z</time>
      </trkpt>
      <trkpt lat="43.23032" lon="5.65829">
        <ele>325</ele>
        <time>2016-07-16T15:13:38Z</time>
      </trkpt>
      <trkpt lat="43.23026" lon="5.6584">
        <ele>325</ele>
        <time>2016-07-16T15:15:38Z</time>
      </trkpt>
      <trkpt lat="43.23024" lon="5.65842">
        <ele>325</ele>
        <time>2016-07-16T15:17:38Z</time>
      </trkpt>
      <trkpt lat="43.23021" lon="5.65846">
        <ele>325</ele>
        <time>2016-07-16T15:19:38Z</time>
      </trkpt>
      <trkpt lat="43.23018" lon="5.65848">
        <ele>325</ele>
        <time>2016-07-16T15:21:38Z</time>
      </trkpt>
      <trkpt lat="43.23016" lon="5.65848">
        <ele>324</ele>
        <time>2016-07-16T15:23:38Z</time>
      </trkpt>
      <trkpt lat="43.23014" lon="5.65848">
        <ele>324</ele>
        <time>2016-07-16T15:25:38Z</time>
      </trkpt>
      <trkpt lat="43.23012" lon="5.65848">
        <ele>324</ele>
        <time>2016-07-16T15:27:38Z</time>
      </trkpt>
      <trkpt lat="43.2301" lon="5.65847">
        <ele>324</ele>
        <time>2016-07-16T15:29:38Z</time>
      </trkpt>
      <trkpt lat="43.23008" lon="5.65846">
        <ele>323</ele>
        <time>2016-07-16T15:31:38Z</time>
      </trkpt>
      <trkpt lat="43.23007" lon="5.65845">
        <ele>323</ele>
        <time>2016-07-16T15:33:38Z</time>
      </trkpt>
      <trkpt lat="43.23006" lon="5.65843">
        <ele>323</ele>
        <time>2016-07-16T15:35:38Z</time>
      </trkpt>
      <trkpt lat="43.23005" lon="5.65842">
        <ele>322</ele>
        <time>2016-07-16T15:37:38Z</time>
      </trkpt>
      <trkpt lat="43.23003" lon="5.6584">
        <ele>322</ele>
        <time>2016-07-16T15:39:38Z</time>
      </trkpt>
      <trkpt lat="43.23003" lon="5.65838">
        <ele>322</ele>
        <time>2016-07-16T15:41:38Z</time>
      </trkpt>
      <trkpt lat="43.23002" lon="5.65835">
        <ele>321</ele>
        <time>2016-07-16T15:43:38Z</time>
      </trkpt>
      <trkpt lat="43.23001" lon="5.65831">
        <ele>321</ele>
        <time>2016-07-16T15:45:38Z</time>
      </trkpt>
      <trkpt lat="43.23001" lon="5.65823">
        <ele>321</ele>
        <time>2016-07-16T15:47:38Z</time>
      </trkpt>
      <trkpt lat="43.23003" lon="5.65817">
        <ele>320</ele>
        <time>2016-07-16T15:49:38Z</time>
      </trkpt>
      <trkpt lat="43.23007" lon="5.65808">
        <ele>321</ele>
        <time>2016-07-16T15:51:38Z</time>
      </trkpt>
      <trkpt lat="43.23012" lon="5.65801">
        <ele>321</ele>
        <time>2016-07-16T15:53:38Z</time>
      </trkpt>
      <trkpt lat="43.23017" lon="5.65792">
        <ele>321</ele>
        <time>2016-07-16T15:55:38Z</time>
      </trkpt>
      <trkpt lat="43.2302" lon="5.65785">
        <ele>321</ele>
        <time>2016-07-16T15:57:38Z</time>
      </trkpt>
      <trkpt lat="43.23024" lon="5.65773">
        <ele>321</ele>
        <time>2016-07-16T15:59:38Z</time>
      </trkpt>
      <trkpt lat="43.23026" lon="5.65767">
        <ele>321</ele>
        <time>2016-07-16T16:01:38Z</time>
      </trkpt>
      <trkpt lat="43.2303" lon="5.65753">
        <ele>321</ele>
        <time>2016-07-16T16:03:38Z</time>
      </trkpt>
      <trkpt lat="43.23034" lon="5.65737">
        <ele>321</ele>
        <time>2016-07-16T16:05:38Z</time>
      </trkpt>
      <trkpt lat="43.23039" lon="5.65718">
        <ele>321</ele>
        <time>2016-07-16T16:07:38Z</time>
      </trkpt>
      <trkpt lat="43.23043" lon="5.65702">
        <ele>320</ele>
        <time>2016-07-16T16:09:38Z</time>
      </trkpt>
      <trkpt lat="43.23046" lon="5.65691">
        <ele>320</ele>
        <time>2016-07-16T16:11:38Z</time>
      </trkpt>
      <trkpt lat="43.23048" lon="5.65684">
        <ele>320</ele>
        <time>2016-07-16T16:13:38Z</time>
      </trkpt>
      <trkpt lat="43.23049" lon="5.6568">
        <ele>320</ele>
        <time>2016-07-16T16:15:38Z</time>
      </trkpt>
      <trkpt lat="43.23052" lon="5.65669">
        <ele>319</ele>
        <time>2016-07-16T16:17:38Z</time>
      </trkpt>
      <trkpt lat="43.23053" lon="5.65658">
        <ele>319</ele>
        <time>2016-07-16T16:19:38Z</time>
      </trkpt>
      <trkpt lat="43.23054" lon="5.65646">
        <ele>318</ele>
        <time>2016-07-16T16:21:38Z</time>
      </trkpt>
      <trkpt lat="43.23054" lon="5.65635">
        <ele>318</ele>
        <time>2016-07-16T16:23:38Z</time>
      </trkpt>
      <trkpt lat="43.23054" lon="5.6563">
        <ele>318</ele>
        <time>2016-07-16T16:25:38Z</time>
      </trkpt>
      <trkpt lat="43.23053" lon="5.65624">
        <ele>317</ele>
        <time>2016-07-16T16:27:38Z</time>
      </trkpt>
      <trkpt lat="43.23051" lon="5.65608">
        <ele>316</ele>
        <time>2016-07-16T16:29:38Z</time>
      </trkpt>
      <trkpt lat="43.23045" lon="5.6557">
        <ele>313</ele>
        <time>2016-07-16T16:31:38Z</time>
      </trkpt>
      <trkpt lat="43.2304" lon="5.65538">
        <ele>310</ele>
        <time>2016-07-16T16:33:38Z</time>
      </trkpt>
      <trkpt lat="43.23039" lon="5.65527">
        <ele>309</ele>
        <time>2016-07-16T16:35:38Z</time>
      </trkpt>
      <trkpt lat="43.23036" lon="5.65511">
        <ele>307</ele>
        <time>2016-07-16T16:37:38Z</time>
      </trkpt>
      <trkpt lat="43.23034" lon="5.65498">
        <ele>306</ele>
        <time>2016-07-16T16:39:38Z</time>
      </trkpt>
      <trkpt lat="43.23033" lon="5.65486">
        <ele>305</ele>
        <time>2016-07-16T16:41:38Z</time>
      </trkpt>
      <trkpt lat="43.23032" lon="5.65472">
        <ele>304</ele>
        <time>2016-07-16T16:43:38Z</time>
      </trkpt>
      <trkpt lat="43.23032" lon="5.65465">
        <ele>304</ele>
        <time>2016-07-16T16:45:38Z</time>
      </trkpt>
      <trkpt lat="43.23032" lon="5.65454">
        <ele>303</ele>
        <time>2016-07-16T16:47:38Z</time>
      </trkpt>
      <trkpt lat="43.23033" lon="5.65444">
        <ele>303</ele>
        <time>2016-07-16T16:49:38Z</time>
      </trkpt>
      <trkpt lat="43.23038" lon="5.65404">
        <ele>301</ele>
        <time>2016-07-16T16:51:38Z</time>
      </trkpt>
      <trkpt lat="43.23044" lon="5.65367">
        <ele>300</ele>
        <time>2016-07-16T16:53:38Z</time>
      </trkpt>
      <trkpt lat="43.23049" lon="5.6534">
        <ele>299</ele>
        <time>2016-07-16T16:55:38Z</time>
      </trkpt>
      <trkpt lat="43.2305" lon="5.65332">
        <ele>299</ele>
        <time>2016-07-16T16:57:38Z</time>
      </trkpt>
      <trkpt lat="43.23051" lon="5.6532">
        <ele>299</ele>
        <time>2016-07-16T16:59:38Z</time>
      </trkpt>
      <trkpt lat="43.23052" lon="5.6531">
        <ele>298</ele>
        <time>2016-07-16T17:01:38Z</time>
      </trkpt>
      <trkpt lat="43.23052" lon="5.65302">
        <ele>298</ele>
        <time>2016-07-16T17:03:38Z</time>
      </trkpt>
      <trkpt lat="43.23052" lon="5.65298">
        <ele>298</ele>
        <time>2016-07-16T17:05:38Z</time>
      </trkpt>
      <trkpt lat="43.23051" lon="5.65295">
        <ele>298</ele>
        <time>2016-07-16T17:07:38Z</time>
      </trkpt>
      <trkpt lat="43.23049" lon="5.65291">
        <ele>297</ele>
        <time>2016-07-16T17:09:38Z</time>
      </trkpt>
      <trkpt lat="43.23047" lon="5.65287">
        <ele>297</ele>
        <time>2016-07-16T17:11:38Z</time>
      </trkpt>
      <trkpt lat="43.23046" lon="5.65284">
        <ele>297</ele>
        <time>2016-07-16T17:13:38Z</time>
      </trkpt>
      <trkpt lat="43.23044" lon="5.65282">
        <ele>297</ele>
        <time>2016-07-16T17:15:38Z</time>
      </trkpt>
      <trkpt lat="43.23043" lon="5.6528">
        <ele>297</ele>
        <time>2016-07-16T17:17:38Z</time>
      </trkpt>
      <trkpt lat="43.23041" lon="5.65279">
        <ele>296</ele>
        <time>2016-07-16T17:19:38Z</time>
      </trkpt>
      <trkpt lat="43.2304" lon="5.65278">
        <ele>296</ele>
        <time>2016-07-16T17:21:38Z</time>
      </trkpt>
      <trkpt lat="43.23038" lon="5.65278">
        <ele>296</ele>
        <time>2016-07-16T17:23:38Z</time>
      </trkpt>
      <trkpt lat="43.23036" lon="5.65276">
        <ele>296</ele>
        <time>2016-07-16T17:25:38Z</time>
      </trkpt>
      <trkpt lat="43.23034" lon="5.65276">
        <ele>295</ele>
        <time>2016-07-16T17:27:38Z</time>
      </trkpt>
      <trkpt lat="43.23032" lon="5.65275">
        <ele>295</ele>
        <time>2016-07-16T17:29:38Z</time>
      </trkpt>
      <trkpt lat="43.2303" lon="5.65275">
        <ele>295</ele>
        <time>2016-07-16T17:31:38Z</time>
      </trkpt>
      <trkpt lat="43.23028" lon="5.65275">
        <ele>295</ele>
        <time>2016-07-16T17:33:38Z</time>
      </trkpt>
      <trkpt lat="43.23026" lon="5.65275">
        <ele>295</ele>
        <time>2016-07-16T17:35:38Z</time>
      </trkpt>
      <trkpt lat="43.23024" lon="5.65275">
        <ele>294</ele>
        <time>2016-07-16T17:37:38Z</time>
      </trkpt>
      <trkpt lat="43.23022" lon="5.65277">
        <ele>294</ele>
        <time>2016-07-16T17:39:38Z</time>
      </trkpt>
      <trkpt lat="43.2302" lon="5.65278">
        <ele>294</ele>
        <time>2016-07-16T17:41:38Z</time>
      </trkpt>
      <trkpt lat="43.23017" lon="5.6528">
        <ele>294</ele>
        <time>2016-07-16T17:43:38Z</time>
      </trkpt>
      <trkpt lat="43.23016" lon="5.65282">
        <ele>294</ele>
        <time>2016-07-16T17:45:38Z</time>
      </trkpt>
      <trkpt lat="43.23014" lon="5.65284">
        <ele>294</ele>
        <time>2016-07-16T17:47:38Z</time>
      </trkpt>
      <trkpt lat="43.23013" lon="5.65286">
        <ele>294</ele>
        <time>2016-07-16T17:49:38Z</time>
      </trkpt>
      <trkpt lat="43.23012" lon="5.65288">
        <ele>294</ele>
        <time>2016-07-16T17:51:38Z</time>
      </trkpt>
      <trkpt lat="43.23011" lon="5.65291">
        <ele>294</ele>
        <time>2016-07-16T17:53:38Z</time>
      </trkpt>
      <trkpt lat="43.2301" lon="5.65295">
        <ele>294</ele>
        <time>2016-07-16T17:55:38Z</time>
      </trkpt>
      <trkpt lat="43.2301" lon="5.653">
        <ele>294</ele>
        <time>2016-07-16T17:57:38Z</time>
      </trkpt>
      <trkpt lat="43.23009" lon="5.65306">
        <ele>294</ele>
        <time>2016-07-16T17:59:38Z</time>
      </trkpt>
      <trkpt lat="43.2301" lon="5.65311">
        <ele>294</ele>
        <time>2016-07-16T18:01:38Z</time>
      </trkpt>
      <trkpt lat="43.23011" lon="5.65318">
        <ele>295</ele>
        <time>2016-07-16T18:03:38Z</time>
      </trkpt>
      <trkpt lat="43.23011" lon="5.65323">
        <ele>295</ele>
        <time>2016-07-16T18:05:38Z</time>
      </trkpt>
      <trkpt lat="43.23012" lon="5.65329">
        <ele>295</ele>
        <time>2016-07-16T18:07:38Z</time>
      </trkpt>
      <trkpt lat="43.23014" lon="5.65337">
        <ele>296</ele>
        <time>2016-07-16T18:09:38Z</time>
      </trkpt>
      <trkpt lat="43.23015" lon="5.65341">
        <ele>296</ele>
        <time>2016-07-16T18:11:38Z</time>
      </trkpt>
      <trkpt lat="43.23015" lon="5.65345">
        <ele>296</ele>
        <time>2016-07-16T18:13:38Z</time>
      </trkpt>
      <trkpt lat="43.23014" lon="5.65348">
        <ele>296</ele>
        <time>2016-07-16T18:15:38Z</time>
      </trkpt>
      <trkpt lat="43.23014" lon="5.65351">
        <ele>296</ele>
        <time>2016-07-16T18:17:38Z</time>
      </trkpt>
      <trkpt lat="43.23013" lon="5.65353">
        <ele>296</ele>
        <time>2016-07-16T18:19:38Z</time>
      </trkpt>
      <trkpt lat="43.23013" lon="5.65356">
        <ele>296</ele>
        <time>2016-07-16T18:21:38Z</time>
      </trkpt>
      <trkpt lat="43.23012" lon="5.65357">
        <ele>296</ele>
        <time>2016-07-16T18:23:38Z</time>
      </trkpt>
      <trkpt lat="43.2301" lon="5.65359">
        <ele>296</ele>
        <time>2016-07-16T18:25:38Z</time>
      </trkpt>
      <trkpt lat="43.23007" lon="5.65362">
        <ele>296</ele>
        <time>2016-07-16T18:27:38Z</time>
      </trkpt>
      <trkpt lat="43.23002" lon="5.65365">
        <ele>296</ele>
        <time>2016-07-16T18:29:38Z</time>
      </trkpt>
      <trkpt lat="43.22995" lon="5.65365">
        <ele>295</ele>
        <time>2016-07-16T18:31:38Z</time>
      </trkpt>
      <trkpt lat="43.22992" lon="5.65363">
        <ele>295</ele>
        <time>2016-07-16T18:33:38Z</time>
      </trkpt>
      <trkpt lat="43.22989" lon="5.65361">
        <ele>295</ele>
        <time>2016-07-16T18:35:38Z</time>
      </trkpt>
      <trkpt lat="43.22986" lon="5.65356">
        <ele>295</ele>
        <time>2016-07-16T18:37:38Z</time>
      </trkpt>
      <trkpt lat="43.22984" lon="5.65353">
        <ele>294</ele>
        <time>2016-07-16T18:39:38Z</time>
      </trkpt>
      <trkpt lat="43.22982" lon="5.65348">
        <ele>294</ele>
        <time>2016-07-16T18:41:38Z</time>
      </trkpt>
      <trkpt lat="43.22982" lon="5.65344">
        <ele>294</ele>
        <time>2016-07-16T18:43:38Z</time>
      </trkpt>
      <trkpt lat="43.22981" lon="5.6534">
        <ele>294</ele>
        <time>2016-07-16T18:45:38Z</time>
      </trkpt>
      <trkpt lat="43.22983" lon="5.65328">
        <ele>293</ele>
        <time>2016-07-16T18:47:38Z</time>
      </trkpt>
      <trkpt lat="43.22984" lon="5.6531">
        <ele>293</ele>
        <time>2016-07-16T18:49:38Z</time>
      </trkpt>
      <trkpt lat="43.22985" lon="5.65301">
        <ele>292</ele>
        <time>2016-07-16T18:51:38Z</time>
      </trkpt>
      <trkpt lat="43.22985" lon="5.65295">
        <ele>292</ele>
        <time>2016-07-16T18:53:38Z</time>
      </trkpt>
      <trkpt lat="43.22982" lon="5.65283">
        <ele>291</ele>
        <time>2016-07-16T18:55:38Z</time>
      </trkpt>
      <trkpt lat="43.22979" lon="5.65271">
        <ele>291</ele>
        <time>2016-07-16T18:57:38Z</time>
      </trkpt>
      <trkpt lat="43.22974" lon="5.65257">
        <ele>290</ele>
        <time>2016-07-16T18:59:38Z</time>
      </trkpt>
      <trkpt lat="43.22965" lon="5.65219">
        <ele>287</ele>
        <time>2016-07-16T19:01:38Z</time>
      </trkpt>
      <trkpt lat="43.22957" lon="5.65194">
        <ele>284</ele>
        <time>2016-07-16T19:03:38Z</time>
      </trkpt>
      <trkpt lat="43.22938" lon="5.65132">
        <ele>277</ele>
        <time>2016-07-16T19:05:38Z</time>
      </trkpt>
      <trkpt lat="43.22932" lon="5.65116">
        <ele>274</ele>
        <time>2016-07-16T19:07:38Z</time>
      </trkpt>
      <trkpt lat="43.22929" lon="5.65108">
        <ele>273</ele>
        <time>2016-07-16T19:09:38Z</time>
      </trkpt>
      <trkpt lat="43.22922" lon="5.65095">
        <ele>272</ele>
        <time>2016-07-16T19:11:38Z</time>
      </trkpt>
      <trkpt lat="43.22915" lon="5.65086">
        <ele>270</ele>
        <time>2016-07-16T19:13:38Z</time>
      </trkpt>
      <trkpt lat="43.22908" lon="5.65077">
        <ele>269</ele>
        <time>2016-07-16T19:15:38Z</time>
      </trkpt>
      <trkpt lat="43.22902" lon="5.65069">
        <ele>268</ele>
        <time>2016-07-16T19:17:38Z</time>
      </trkpt>
      <trkpt lat="43.22896" lon="5.65062">
        <ele>267</ele>
        <time>2016-07-16T19:19:38Z</time>
      </trkpt>
      <trkpt lat="43.22889" lon="5.65053">
        <ele>266</ele>
        <time>2016-07-16T19:21:38Z</time>
      </trkpt>
      <trkpt lat="43.22883" lon="5.65044">
        <ele>264</ele>
        <time>2016-07-16T19:23:38Z</time>
      </trkpt>
      <trkpt lat="43.22878" lon="5.65035">
        <ele>264</ele>
        <time>2016-07-16T19:25:38Z</time>
      </trkpt>
      <trkpt lat="43.22867" lon="5.65016">
        <ele>261</ele>
        <time>2016-07-16T19:27:38Z</time>
      </trkpt>
      <trkpt lat="43.22856" lon="5.64993">
        <ele>259</ele>
        <time>2016-07-16T19:29:38Z</time>
      </trkpt>
      <trkpt lat="43.22844" lon="5.64967">
        <ele>257</ele>
        <time>2016-07-16T19:31:38Z</time>
      </trkpt>
      <trkpt lat="43.22837" lon="5.6495">
        <ele>256</ele>
        <time>2016-07-16T19:33:38Z</time>
      </trkpt>
      <trkpt lat="43.22827" lon="5.64919">
        <ele>253</ele>
        <time>2016-07-16T19:35:38Z</time>
      </trkpt>
      <trkpt lat="43.22807" lon="5.64854">
        <ele>248</ele>
        <time>2016-07-16T19:37:38Z</time>
      </trkpt>
      <trkpt lat="43.228" lon="5.64832">
        <ele>245</ele>
        <time>2016-07-16T19:39:38Z</time>
      </trkpt>
      <trkpt lat="43.22796" lon="5.64818">
        <ele>244</ele>
        <time>2016-07-16T19:41:38Z</time>
      </trkpt>
      <trkpt lat="43.22789" lon="5.64791">
        <ele>242</ele>
        <time>2016-07-16T19:43:38Z</time>
      </trkpt>
      <trkpt lat="43.22784" lon="5.64774">
        <ele>241</ele>
        <time>2016-07-16T19:45:38Z</time>
      </trkpt>
      <trkpt lat="43.22782" lon="5.64765">
        <ele>240</ele>
        <time>2016-07-16T19:47:38Z</time>
      </trkpt>
      <trkpt lat="43.22779" lon="5.64754">
        <ele>240</ele>
        <time>2016-07-16T19:49:38Z</time>
      </trkpt>
      <trkpt lat="43.22775" lon="5.6474">
        <ele>240</ele>
        <time>2016-07-16T19:51:38Z</time>
      </trkpt>
      <trkpt lat="43.22773" lon="5.64736">
        <ele>239</ele>
        <time>2016-07-16T19:53:38Z</time>
      </trkpt>
      <trkpt lat="43.22771" lon="5.64731">
        <ele>239</ele>
        <time>2016-07-16T19:55:38Z</time>
      </trkpt>
      <trkpt lat="43.22769" lon="5.64727">
        <ele>239</ele>
        <time>2016-07-16T19:57:38Z</time>
      </trkpt>
      <trkpt lat="43.22766" lon="5.64723">
        <ele>239</ele>
        <time>2016-07-16T19:59:38Z</time>
      </trkpt>
      <trkpt lat="43.22762" lon="5.64719">
        <ele>239</ele>
        <time>2016-07-16T20:01:38Z</time>
      </trkpt>
      <trkpt lat="43.2276" lon="5.64717">
        <ele>239</ele>
        <time>2016-07-16T20:03:38Z</time>
      </trkpt>
      <trkpt lat="43.22758" lon="5.64717">
        <ele>239</ele>
        <time>2016-07-16T20:05:38Z</time>
      </trkpt>
      <trkpt lat="43.22755" lon="5.64717">
        <ele>239</ele>
        <time>2016-07-16T20:07:38Z</time>
      </trkpt>
      <trkpt lat="43.22753" lon="5.64717">
        <ele>238</ele>
        <time>2016-07-16T20:09:38Z</time>
      </trkpt>
      <trkpt lat="43.2275" lon="5.64719">
        <ele>238</ele>
        <time>2016-07-16T20:11:38Z</time>
      </trkpt>
      <trkpt lat="43.22749" lon="5.6472">
        <ele>238</ele>
        <time>2016-07-16T20:13:38Z</time>
      </trkpt>
      <trkpt lat="43.22747" lon="5.64723">
        <ele>237</ele>
        <time>2016-07-16T20:15:38Z</time>
      </trkpt>
      <trkpt lat="43.22746" lon="5.64725">
        <ele>237</ele>
        <time>2016-07-16T20:17:38Z</time>
      </trkpt>
      <trkpt lat="43.22745" lon="5.64729">
        <ele>237</ele>
        <time>2016-07-16T20:19:38Z</time>
      </trkpt>
      <trkpt lat="43.22745" lon="5.64735">
        <ele>236</ele>
        <time>2016-07-16T20:21:38Z</time>
      </trkpt>
      <trkpt lat="43.22746" lon="5.64741">
        <ele>236</ele>
        <time>2016-07-16T20:23:38Z</time>
      </trkpt>
      <trkpt lat="43.22747" lon="5.64747">
        <ele>236</ele>
        <time>2016-07-16T20:25:38Z</time>
      </trkpt>
      <trkpt lat="43.22749" lon="5.64754">
        <ele>237</ele>
        <time>2016-07-16T20:27:38Z</time>
      </trkpt>
      <trkpt lat="43.22753" lon="5.64764">
        <ele>237</ele>
        <time>2016-07-16T20:29:38Z</time>
      </trkpt>
      <trkpt lat="43.22756" lon="5.64771">
        <ele>238</ele>
        <time>2016-07-16T20:31:38Z</time>
      </trkpt>
      <trkpt lat="43.22772" lon="5.64807">
        <ele>240</ele>
        <time>2016-07-16T20:33:38Z</time>
      </trkpt>
      <trkpt lat="43.22779" lon="5.64826">
        <ele>242</ele>
        <time>2016-07-16T20:35:38Z</time>
      </trkpt>
      <trkpt lat="43.22783" lon="5.64837">
        <ele>243</ele>
        <time>2016-07-16T20:37:38Z</time>
      </trkpt>
      <trkpt lat="43.22785" lon="5.64848">
        <ele>244</ele>
        <time>2016-07-16T20:39:38Z</time>
      </trkpt>
      <trkpt lat="43.22787" lon="5.64863">
        <ele>245</ele>
        <time>2016-07-16T20:41:38Z</time>
      </trkpt>
      <trkpt lat="43.22788" lon="5.64875">
        <ele>246</ele>
        <time>2016-07-16T20:43:38Z</time>
      </trkpt>
      <trkpt lat="43.22788" lon="5.64883">
        <ele>246</ele>
        <time>2016-07-16T20:45:38Z</time>
      </trkpt>
      <trkpt lat="43.22787" lon="5.64887">
        <ele>247</ele>
        <time>2016-07-16T20:47:38Z</time>
      </trkpt>
      <trkpt lat="43.22785" lon="5.64893">
        <ele>247</ele>
        <time>2016-07-16T20:49:38Z</time>
      </trkpt>
      <trkpt lat="43.22783" lon="5.64896">
        <ele>247</ele>
        <time>2016-07-16T20:51:38Z</time>
      </trkpt>
      <trkpt lat="43.22779" lon="5.64899">
        <ele>246</ele>
        <time>2016-07-16T20:53:38Z</time>
      </trkpt>
      <trkpt lat="43.22776" lon="5.64901">
        <ele>246</ele>
        <time>2016-07-16T20:55:38Z</time>
      </trkpt>
      <trkpt lat="43.2277" lon="5.64902">
        <ele>245</ele>
        <time>2016-07-16T20:57:38Z</time>
      </trkpt>
      <trkpt lat="43.22764" lon="5.649">
        <ele>244</ele>
        <time>2016-07-16T20:59:38Z</time>
      </trkpt>
      <trkpt lat="43.2276" lon="5.64898">
        <ele>244</ele>
        <time>2016-07-16T21:01:38Z</time>
      </trkpt>
      <trkpt lat="43.22755" lon="5.64893">
        <ele>243</ele>
        <time>2016-07-16T21:03:38Z</time>
      </trkpt>
      <trkpt lat="43.22751" lon="5.64885">
        <ele>241</ele>
        <time>2016-07-16T21:05:38Z</time>
      </trkpt>
      <trkpt lat="43.22744" lon="5.64871">
        <ele>240</ele>
        <time>2016-07-16T21:07:38Z</time>
      </trkpt>
      <trkpt lat="43.22734" lon="5.64849">
        <ele>237</ele>
        <time>2016-07-16T21:09:38Z</time>
      </trkpt>
      <trkpt lat="43.22727" lon="5.64837">
        <ele>235</ele>
        <time>2016-07-16T21:11:38Z</time>
      </trkpt>
      <trkpt lat="43.22717" lon="5.64827">
        <ele>234</ele>
        <time>2016-07-16T21:13:38Z</time>
      </trkpt>
      <trkpt lat="43.22709" lon="5.64817">
        <ele>232</ele>
        <time>2016-07-16T21:15:38Z</time>
      </trkpt>
      <trkpt lat="43.22683" lon="5.64793">
        <ele>227</ele>
        <time>2016-07-16T21:17:38Z</time>
      </trkpt>
      <trkpt lat="43.22672" lon="5.64783">
        <ele>224</ele>
        <time>2016-07-16T21:19:38Z</time>
      </trkpt>
      <trkpt lat="43.22666" lon="5.64778">
        <ele>222</ele>
        <time>2016-07-16T21:21:38Z</time>
      </trkpt>
      <trkpt lat="43.22661" lon="5.64774">
        <ele>221</ele>
        <time>2016-07-16T21:23:38Z</time>
      </trkpt>
      <trkpt lat="43.22655" lon="5.64771">
        <ele>221</ele>
        <time>2016-07-16T21:25:38Z</time>
      </trkpt>
      <trkpt lat="43.22652" lon="5.64771">
        <ele>220</ele>
        <time>2016-07-16T21:27:38Z</time>
      </trkpt>
      <trkpt lat="43.22648" lon="5.64772">
        <ele>220</ele>
        <time>2016-07-16T21:29:38Z</time>
      </trkpt>
      <trkpt lat="43.22644" lon="5.64774">
        <ele>220</ele>
        <time>2016-07-16T21:31:38Z</time>
      </trkpt>
      <trkpt lat="43.22639" lon="5.6478">
        <ele>220</ele>
        <time>2016-07-16T21:33:38Z</time>
      </trkpt>
      <trkpt lat="43.22635" lon="5.64789">
        <ele>221</ele>
        <time>2016-07-16T21:35:38Z</time>
      </trkpt>
      <trkpt lat="43.22632" lon="5.64798">
        <ele>222</ele>
        <time>2016-07-16T21:37:38Z</time>
      </trkpt>
      <trkpt lat="43.22629" lon="5.64808">
        <ele>222</ele>
        <time>2016-07-16T21:39:38Z</time>
      </trkpt>
      <trkpt lat="43.22623" lon="5.64827">
        <ele>224</ele>
        <time>2016-07-16T21:41:38Z</time>
      </trkpt>
      <trkpt lat="43.2262" lon="5.64836">
        <ele>225</ele>
        <time>2016-07-16T21:43:38Z</time>
      </trkpt>
      <trkpt lat="43.22616" lon="5.64845">
        <ele>225</ele>
        <time>2016-07-16T21:45:38Z</time>
      </trkpt>
      <trkpt lat="43.22613" lon="5.64849">
        <ele>225</ele>
        <time>2016-07-16T21:47:38Z</time>
      </trkpt>
      <trkpt lat="43.2261" lon="5.64852">
        <ele>225</ele>
        <time>2016-07-16T21:49:38Z</time>
      </trkpt>
      <trkpt lat="43.22602" lon="5.64854">
        <ele>225</ele>
        <time>2016-07-16T21:51:38Z</time>
      </trkpt>
      <trkpt lat="43.226" lon="5.64855">
        <ele>225</ele>
        <time>2016-07-16T21:53:38Z</time>
      </trkpt>
      <trkpt lat="43.2259" lon="5.64854">
        <ele>224</ele>
        <time>2016-07-16T21:55:38Z</time>
      </trkpt>
      <trkpt lat="43.22582" lon="5.64848">
        <ele>222</ele>
        <time>2016-07-16T21:57:38Z</time>
      </trkpt>
      <trkpt lat="43.22562" lon="5.64824">
        <ele>219</ele>
        <time>2016-07-16T21:59:38Z</time>
      </trkpt>
      <trkpt lat="43.22552" lon="5.64814">
        <ele>217</ele>
        <time>2016-07-16T22:01:38Z</time>
      </trkpt>
      <trkpt lat="43.22546" lon="5.64808">
        <ele>217</ele>
        <time>2016-07-16T22:03:38Z</time>
      </trkpt>
      <trkpt lat="43.22539" lon="5.64806">
        <ele>216</ele>
        <time>2016-07-16T22:05:38Z</time>
      </trkpt>
      <trkpt lat="43.22532" lon="5.64808">
        <ele>216</ele>
        <time>2016-07-16T22:07:38Z</time>
      </trkpt>
      <trkpt lat="43.22526" lon="5.64813">
        <ele>216</ele>
        <time>2016-07-16T22:09:38Z</time>
      </trkpt>
      <trkpt lat="43.22523" lon="5.64821">
        <ele>217</ele>
        <time>2016-07-16T22:11:38Z</time>
      </trkpt>
      <trkpt lat="43.22521" lon="5.64836">
        <ele>217</ele>
        <time>2016-07-16T22:13:38Z</time>
      </trkpt>
      <trkpt lat="43.22519" lon="5.64864">
        <ele>219</ele>
        <time>2016-07-16T22:15:38Z</time>
      </trkpt>
      <trkpt lat="43.22518" lon="5.64915">
        <ele>223</ele>
        <time>2016-07-16T22:17:38Z</time>
      </trkpt>
      <trkpt lat="43.22516" lon="5.64938">
        <ele>224</ele>
        <time>2016-07-16T22:19:38Z</time>
      </trkpt>
      <trkpt lat="43.22513" lon="5.64957">
        <ele>224</ele>
        <time>2016-07-16T22:21:38Z</time>
      </trkpt>
      <trkpt lat="43.22511" lon="5.64966">
        <ele>224</ele>
        <time>2016-07-16T22:23:38Z</time>
      </trkpt>
      <trkpt lat="43.22509" lon="5.64969">
        <ele>224</ele>
        <time>2016-07-16T22:25:38Z</time>
      </trkpt>
      <trkpt lat="43.22505" lon="5.64975">
        <ele>224</ele>
        <time>2016-07-16T22:27:38Z</time>
      </trkpt>
      <trkpt lat="43.22501" lon="5.64979">
        <ele>224</ele>
        <time>2016-07-16T22:29:38Z</time>
      </trkpt>
      <trkpt lat="43.22497" lon="5.64981">
        <ele>224</ele>
        <time>2016-07-16T22:31:38Z</time>
      </trkpt>
      <trkpt lat="43.22494" lon="5.64982">
        <ele>224</ele>
        <time>2016-07-16T22:33:38Z</time>
      </trkpt>
      <trkpt lat="43.22489" lon="5.64982">
        <ele>224</ele>
        <time>2016-07-16T22:35:38Z</time>
      </trkpt>
      <trkpt lat="43.22482" lon="5.6498">
        <ele>224</ele>
        <time>2016-07-16T22:37:38Z</time>
      </trkpt>
      <trkpt lat="43.2246" lon="5.64971">
        <ele>222</ele>
        <time>2016-07-16T22:39:38Z</time>
      </trkpt>
      <trkpt lat="43.22452" lon="5.64967">
        <ele>222</ele>
        <time>2016-07-16T22:41:38Z</time>
      </trkpt>
      <trkpt lat="43.22418" lon="5.6495">
        <ele>219</ele>
        <time>2016-07-16T22:43:38Z</time>
      </trkpt>
      <trkpt lat="43.22388" lon="5.64936">
        <ele>218</ele>
        <time>2016-07-16T22:45:38Z</time>
      </trkpt>
      <trkpt lat="43.22354" lon="5.6492">
        <ele>217</ele>
        <time>2016-07-16T22:47:38Z</time>
      </trkpt>
      <trkpt lat="43.22338" lon="5.64913">
        <ele>216</ele>
        <time>2016-07-16T22:49:38Z</time>
      </trkpt>
      <trkpt lat="43.2233" lon="5.64909">
        <ele>216</ele>
        <time>2016-07-16T22:51:38Z</time>
      </trkpt>
      <trkpt lat="43.22327" lon="5.64908">
        <ele>216</ele>
        <time>2016-07-16T22:53:38Z</time>
      </trkpt>
      <trkpt lat="43.22311" lon="5.64901">
        <ele>216</ele>
        <time>2016-07-16T22:55:38Z</time>
      </trkpt>
      <trkpt lat="43.22299" lon="5.64894">
        <ele>216</ele>
        <time>2016-07-16T22:57:38Z</time>
      </trkpt>
      <trkpt lat="43.22292" lon="5.64889">
        <ele>216</ele>
        <time>2016-07-16T22:59:38Z</time>
      </trkpt>
      <trkpt lat="43.22279" lon="5.64878">
        <ele>216</ele>
        <time>2016-07-16T23:01:38Z</time>
      </trkpt>
      <trkpt lat="43.22271" lon="5.64867">
        <ele>215</ele>
        <time>2016-07-16T23:03:38Z</time>
      </trkpt>
      <trkpt lat="43.22262" lon="5.64854">
        <ele>214</ele>
        <time>2016-07-16T23:05:38Z</time>
      </trkpt>
      <trkpt lat="43.22253" lon="5.64839">
        <ele>213</ele>
        <time>2016-07-16T23:07:38Z</time>
      </trkpt>
      <trkpt lat="43.22237" lon="5.6481">
        <ele>211</ele>
        <time>2016-07-16T23:09:38Z</time>
      </trkpt>
      <trkpt lat="43.22227" lon="5.64787">
        <ele>210</ele>
        <time>2016-07-16T23:11:38Z</time>
      </trkpt>
      <trkpt lat="43.2222" lon="5.64772">
        <ele>209</ele>
        <time>2016-07-16T23:13:38Z</time>
      </trkpt>
      <trkpt lat="43.22214" lon="5.64754">
        <ele>207</ele>
        <time>2016-07-16T23:15:38Z</time>
      </trkpt>
      <trkpt lat="43.2221" lon="5.64737">
        <ele>205</ele>
        <time>2016-07-16T23:17:38Z</time>
      </trkpt>
      <trkpt lat="43.22205" lon="5.64714">
        <ele>203</ele>
        <time>2016-07-16T23:19:38Z</time>
      </trkpt>
      <trkpt lat="43.222" lon="5.64686">
        <ele>200</ele>
        <time>2016-07-16T23:21:38Z</time>
      </trkpt>
      <trkpt lat="43.22198" lon="5.64674">
        <ele>199</ele>
        <time>2016-07-16T23:23:38Z</time>
      </trkpt>
      <trkpt lat="43.22195" lon="5.64661">
        <ele>198</ele>
        <time>2016-07-16T23:25:38Z</time>
      </trkpt>
      <trkpt lat="43.22194" lon="5.64652">
        <ele>197</ele>
        <time>2016-07-16T23:27:38Z</time>
      </trkpt>
      <trkpt lat="43.22193" lon="5.64648">
        <ele>197</ele>
        <time>2016-07-16T23:29:38Z</time>
      </trkpt>
      <trkpt lat="43.22187" lon="5.64625">
        <ele>195</ele>
        <time>2016-07-16T23:31:38Z</time>
      </trkpt>
      <trkpt lat="43.22187" lon="5.64622">
        <ele>195</ele>
        <time>2016-07-16T23:33:38Z</time>
      </trkpt>
      <trkpt lat="43.22172" lon="5.64583">
        <ele>193</ele>
        <time>2016-07-16T23:35:38Z</time>
      </trkpt>
      <trkpt lat="43.22157" lon="5.64547">
        <ele>191</ele>
        <time>2016-07-16T23:37:38Z</time>
      </trkpt>
      <trkpt lat="43.22152" lon="5.64537">
        <ele>190</ele>
        <time>2016-07-16T23:39:38Z</time>
      </trkpt>
      <trkpt lat="43.22145" lon="5.64522">
        <ele>189</ele>
        <time>2016-07-16T23:41:38Z</time>
      </trkpt>
      <trkpt lat="43.22139" lon="5.64509">
        <ele>188</ele>
        <time>2016-07-16T23:43:38Z</time>
      </trkpt>
      <trkpt lat="43.22134" lon="5.645">
        <ele>187</ele>
        <time>2016-07-16T23:45:38Z</time>
      </trkpt>
      <trkpt lat="43.22131" lon="5.64495">
        <ele>187</ele>
        <time>2016-07-16T23:47:38Z</time>
      </trkpt>
      <trkpt lat="43.22123" lon="5.6448">
        <ele>186</ele>
        <time>2016-07-16T23:49:38Z</time>
      </trkpt>
      <trkpt lat="43.22108" lon="5.64456">
        <ele>185</ele>
        <time>2016-07-16T23:51:38Z</time>
      </trkpt>
      <trkpt lat="43.22102" lon="5.64447">
        <ele>184</ele>
        <time>2016-07-16T23:53:38Z</time>
      </trkpt>
      <trkpt lat="43.22098" lon="5.64442">
        <ele>184</ele>
        <time>2016-07-16T23:55:38Z</time>
      </trkpt>
      <trkpt lat="43.22094" lon="5.64435">
        <ele>184</ele>
        <time>2016-07-16T23:57:38Z</time>
      </trkpt>
      <trkpt lat="43.22089" lon="5.64427">
        <ele>183</ele>
        <time>2016-07-16T23:59:38Z</time>
      </trkpt>
      <trkpt lat="43.22084" lon="5.64419">
        <ele>182</ele>
        <time>2016-07-17T00:01:38Z</time>
      </trkpt>
      <trkpt lat="43.22082" lon="5.64414">
        <ele>182</ele>
        <time>2016-07-17T00:03:38Z</time>
      </trkpt>
      <trkpt lat="43.2208" lon="5.64411">
        <ele>182</ele>
        <time>2016-07-17T00:05:38Z</time>
      </trkpt>
      <trkpt lat="43.22078" lon="5.64405">
        <ele>182</ele>
        <time>2016-07-17T00:07:38Z</time>
      </trkpt>
      <trkpt lat="43.22075" lon="5.64398">
        <ele>181</ele>
        <time>2016-07-17T00:09:38Z</time>
      </trkpt>
      <trkpt lat="43.22073" lon="5.64392">
        <ele>181</ele>
        <time>2016-07-17T00:11:38Z</time>
      </trkpt>
      <trkpt lat="43.22071" lon="5.64383">
        <ele>180</ele>
        <time>2016-07-17T00:13:38Z</time>
      </trkpt>
      <trkpt lat="43.22069" lon="5.64373">
        <ele>180</ele>
        <time>2016-07-17T00:15:38Z</time>
      </trkpt>
      <trkpt lat="43.22066" lon="5.64346">
        <ele>177</ele>
        <time>2016-07-17T00:17:38Z</time>
      </trkpt>
      <trkpt lat="43.22064" lon="5.64324">
        <ele>176</ele>
        <time>2016-07-17T00:19:38Z</time>
      </trkpt>
      <trkpt lat="43.22063" lon="5.64312">
        <ele>175</ele>
        <time>2016-07-17T00:21:38Z</time>
      </trkpt>
      <trkpt lat="43.2206" lon="5.64286">
        <ele>173</ele>
        <time>2016-07-17T00:23:38Z</time>
      </trkpt>
      <trkpt lat="43.22061" lon="5.6427">
        <ele>172</ele>
        <time>2016-07-17T00:25:38Z</time>
      </trkpt>
      <trkpt lat="43.2206" lon="5.64264">
        <ele>171</ele>
        <time>2016-07-17T00:27:38Z</time>
      </trkpt>
      <trkpt lat="43.22058" lon="5.64254">
        <ele>171</ele>
        <time>2016-07-17T00:29:38Z</time>
      </trkpt>
      <trkpt lat="43.22056" lon="5.64245">
        <ele>170</ele>
        <time>2016-07-17T00:31:38Z</time>
      </trkpt>
      <trkpt lat="43.22053" lon="5.64236">
        <ele>170</ele>
        <time>2016-07-17T00:33:38Z</time>
      </trkpt>
      <trkpt lat="43.22052" lon="5.64233">
        <ele>169</ele>
        <time>2016-07-17T00:35:38Z</time>
      </trkpt>
      <trkpt lat="43.22051" lon="5.64231">
        <ele>169</ele>
        <time>2016-07-17T00:37:38Z</time>
      </trkpt>
      <trkpt lat="43.2205" lon="5.64228">
        <ele>169</ele>
        <time>2016-07-17T00:39:38Z</time>
      </trkpt>
      <trkpt lat="43.22049" lon="5.64226">
        <ele>169</ele>
        <time>2016-07-17T00:41:38Z</time>
      </trkpt>
      <trkpt lat="43.22047" lon="5.64223">
        <ele>169</ele>
        <time>2016-07-17T00:43:38Z</time>
      </trkpt>
      <trkpt lat="43.22044" lon="5.64219">
        <ele>169</ele>
        <time>2016-07-17T00:45:38Z</time>
      </trkpt>
      <trkpt lat="43.22039" lon="5.64213">
        <ele>168</ele>
        <time>2016-07-17T00:47:38Z</time>
      </trkpt>
      <trkpt lat="43.22032" lon="5.64203">
        <ele>168</ele>
        <time>2016-07-17T00:49:38Z</time>
      </trkpt>
      <trkpt lat="43.22028" lon="5.64198">
        <ele>168</ele>
        <time>2016-07-17T00:51:38Z</time>
      </trkpt>
      <trkpt lat="43.22026" lon="5.64195">
        <ele>167</ele>
        <time>2016-07-17T00:53:38Z</time>
      </trkpt>
      <trkpt lat="43.22021" lon="5.64189">
        <ele>167</ele>
        <time>2016-07-17T00:55:38Z</time>
      </trkpt>
      <trkpt lat="43.22011" lon="5.64185">
        <ele>167</ele>
        <time>2016-07-17T00:57:38Z</time>
      </trkpt>
      <trkpt lat="43.22002" lon="5.64173">
        <ele>166</ele>
        <time>2016-07-17T00:59:38Z</time>
      </trkpt>
      <trkpt lat="43.21995" lon="5.64163">
        <ele>165</ele>
        <time>2016-07-17T01:01:38Z</time>
      </trkpt>
      <trkpt lat="43.21993" lon="5.64159">
        <ele>165</ele>
        <time>2016-07-17T01:03:38Z</time>
      </trkpt>
      <trkpt lat="43.2199" lon="5.64154">
        <ele>164</ele>
        <time>2016-07-17T01:05:38Z</time>
      </trkpt>
      <trkpt lat="43.21987" lon="5.64148">
        <ele>164</ele>
        <time>2016-07-17T01:07:38Z</time>
      </trkpt>
      <trkpt lat="43.21983" lon="5.64141">
        <ele>163</ele>
        <time>2016-07-17T01:09:38Z</time>
      </trkpt>
      <trkpt lat="43.21979" lon="5.64132">
        <ele>163</ele>
        <time>2016-07-17T01:11:38Z</time>
      </trkpt>
      <trkpt lat="43.21967" lon="5.64105">
        <ele>161</ele>
        <time>2016-07-17T01:13:38Z</time>
      </trkpt>
      <trkpt lat="43.21956" lon="5.64081">
        <ele>159</ele>
        <time>2016-07-17T01:15:38Z</time>
      </trkpt>
      <trkpt lat="43.21954" lon="5.64074">
        <ele>159</ele>
        <time>2016-07-17T01:17:38Z</time>
      </trkpt>
      <trkpt lat="43.21952" lon="5.64066">
        <ele>158</ele>
        <time>2016-07-17T01:19:38Z</time>
      </trkpt>
      <trkpt lat="43.21949" lon="5.64054">
        <ele>157</ele>
        <time>2016-07-17T01:21:38Z</time>
      </trkpt>
      <trkpt lat="43.21946" lon="5.64041">
        <ele>156</ele>
        <time>2016-07-17T01:23:38Z</time>
      </trkpt>
      <trkpt lat="43.21944" lon="5.64033">
        <ele>155</ele>
        <time>2016-07-17T01:25:38Z</time>
      </trkpt>
      <trkpt lat="43.21942" lon="5.64028">
        <ele>155</ele>
        <time>2016-07-17T01:27:38Z</time>
      </trkpt>
      <trkpt lat="43.21939" lon="5.64022">
        <ele>154</ele>
        <time>2016-07-17T01:29:38Z</time>
      </trkpt>
      <trkpt lat="43.21935" lon="5.64017">
        <ele>153</ele>
        <time>2016-07-17T01:31:38Z</time>
      </trkpt>
      <trkpt lat="43.21932" lon="5.64014">
        <ele>153</ele>
        <time>2016-07-17T01:33:38Z</time>
      </trkpt>
      <trkpt lat="43.21926" lon="5.6401">
        <ele>152</ele>
        <time>2016-07-17T01:35:38Z</time>
      </trkpt>
      <trkpt lat="43.21917" lon="5.64005">
        <ele>152</ele>
        <time>2016-07-17T01:37:38Z</time>
      </trkpt>
      <trkpt lat="43.2191" lon="5.64002">
        <ele>151</ele>
        <time>2016-07-17T01:39:38Z</time>
      </trkpt>
      <trkpt lat="43.21889" lon="5.63992">
        <ele>151</ele>
        <time>2016-07-17T01:41:38Z</time>
      </trkpt>
      <trkpt lat="43.21877" lon="5.63983">
        <ele>151</ele>
        <time>2016-07-17T01:43:38Z</time>
      </trkpt>
      <trkpt lat="43.21873" lon="5.63978">
        <ele>150</ele>
        <time>2016-07-17T01:45:38Z</time>
      </trkpt>
      <trkpt lat="43.21868" lon="5.63972">
        <ele>149</ele>
        <time>2016-07-17T01:47:38Z</time>
      </trkpt>
      <trkpt lat="43.21865" lon="5.63967">
        <ele>149</ele>
        <time>2016-07-17T01:49:38Z</time>
      </trkpt>
      <trkpt lat="43.21862" lon="5.63962">
        <ele>148</ele>
        <time>2016-07-17T01:51:38Z</time>
      </trkpt>
      <trkpt lat="43.21862" lon="5.6396">
        <ele>148</ele>
        <time>2016-07-17T01:53:38Z</time>
      </trkpt>
      <trkpt lat="43.21856" lon="5.63948">
        <ele>147</ele>
        <time>2016-07-17T01:55:38Z</time>
      </trkpt>
      <trkpt lat="43.2185" lon="5.63934">
        <ele>145</ele>
        <time>2016-07-17T01:57:38Z</time>
      </trkpt>
      <trkpt lat="43.21844" lon="5.63917">
        <ele>142</ele>
        <time>2016-07-17T01:59:38Z</time>
      </trkpt>
      <trkpt lat="43.21837" lon="5.639">
        <ele>141</ele>
        <time>2016-07-17T02:01:38Z</time>
      </trkpt>
      <trkpt lat="43.21833" lon="5.63892">
        <ele>141</ele>
        <time>2016-07-17T02:03:38Z</time>
      </trkpt>
      <trkpt lat="43.2183" lon="5.63886">
        <ele>140</ele>
        <time>2016-07-17T02:05:38Z</time>
      </trkpt>
      <trkpt lat="43.21825" lon="5.63878">
        <ele>140</ele>
        <time>2016-07-17T02:07:38Z</time>
      </trkpt>
      <trkpt lat="43.21819" lon="5.63869">
        <ele>140</ele>
        <time>2016-07-17T02:09:38Z</time>
      </trkpt>
      <trkpt lat="43.21808" lon="5.63853">
        <ele>139</ele>
        <time>2016-07-17T02:11:38Z</time>
      </trkpt>
      <trkpt lat="43.21804" lon="5.63846">
        <ele>139</ele>
        <time>2016-07-17T02:13:38Z</time>
      </trkpt>
      <trkpt lat="43.21802" lon="5.63841">
        <ele>139</ele>
        <time>2016-07-17T02:15:38Z</time>
      </trkpt>
      <trkpt lat="43.21799" lon="5.63835">
        <ele>138</ele>
        <time>2016-07-17T02:17:38Z</time>
      </trkpt>
      <trkpt lat="43.21798" lon="5.63828">
        <ele>138</ele>
        <time>2016-07-17T02:19:38Z</time>
      </trkpt>
      <trkpt lat="43.21798" lon="5.6382">
        <ele>137</ele>
        <time>2016-07-17T02:21:38Z</time>
      </trkpt>
      <trkpt lat="43.21798" lon="5.63814">
        <ele>137</ele>
        <time>2016-07-17T02:23:38Z</time>
      </trkpt>
      <trkpt lat="43.21799" lon="5.63806">
        <ele>136</ele>
        <time>2016-07-17T02:25:38Z</time>
      </trkpt>
      <trkpt lat="43.21802" lon="5.63795">
        <ele>135</ele>
        <time>2016-07-17T02:27:38Z</time>
      </trkpt>
      <trkpt lat="43.21807" lon="5.63779">
        <ele>134</ele>
        <time>2016-07-17T02:29:38Z</time>
      </trkpt>
      <trkpt lat="43.21817" lon="5.63746">
        <ele>132</ele>
        <time>2016-07-17T02:31:38Z</time>
      </trkpt>
      <trkpt lat="43.21821" lon="5.63734">
        <ele>131</ele>
        <time>2016-07-17T02:33:38Z</time>
      </trkpt>
      <trkpt lat="43.21823" lon="5.63727">
        <ele>131</ele>
        <time>2016-07-17T02:35:38Z</time>
      </trkpt>
      <trkpt lat="43.21824" lon="5.63719">
        <ele>130</ele>
        <time>2016-07-17T02:37:38Z</time>
      </trkpt>
      <trkpt lat="43.21826" lon="5.63712">
        <ele>130</ele>
        <time>2016-07-17T02:39:38Z</time>
      </trkpt>
      <trkpt lat="43.21827" lon="5.63704">
        <ele>129</ele>
        <time>2016-07-17T02:41:38Z</time>
      </trkpt>
      <trkpt lat="43.21827" lon="5.63692">
        <ele>128</ele>
        <time>2016-07-17T02:43:38Z</time>
      </trkpt>
      <trkpt lat="43.21826" lon="5.63642">
        <ele>125</ele>
        <time>2016-07-17T02:45:38Z</time>
      </trkpt>
      <trkpt lat="43.21823" lon="5.63593">
        <ele>121</ele>
        <time>2016-07-17T02:47:38Z</time>
      </trkpt>
      <trkpt lat="43.21821" lon="5.63575">
        <ele>119</ele>
        <time>2016-07-17T02:49:38Z</time>
      </trkpt>
      <trkpt lat="43.21819" lon="5.63565">
        <ele>117</ele>
        <time>2016-07-17T02:51:38Z</time>
      </trkpt>
      <trkpt lat="43.21818" lon="5.63561">
        <ele>117</ele>
        <time>2016-07-17T02:53:38Z</time>
      </trkpt>
      <trkpt lat="43.21817" lon="5.63557">
        <ele>116</ele>
        <time>2016-07-17T02:55:38Z</time>
      </trkpt>
      <trkpt lat="43.21814" lon="5.6355">
        <ele>115</ele>
        <time>2016-07-17T02:57:38Z</time>
      </trkpt>
      <trkpt lat="43.2181" lon="5.63545">
        <ele>115</ele>
        <time>2016-07-17T02:59:38Z</time>
      </trkpt>
      <trkpt lat="43.21806" lon="5.63539">
        <ele>114</ele>
        <time>2016-07-17T03:01:38Z</time>
      </trkpt>
      <trkpt lat="43.218" lon="5.63531">
        <ele>113</ele>
        <time>2016-07-17T03:03:38Z</time>
      </trkpt>
      <trkpt lat="43.21788" lon="5.63516">
        <ele>112</ele>
        <time>2016-07-17T03:05:38Z</time>
      </trkpt>
      <trkpt lat="43.21782" lon="5.6351">
        <ele>111</ele>
        <time>2016-07-17T03:07:38Z</time>
      </trkpt>
      <trkpt lat="43.21776" lon="5.63505">
        <ele>111</ele>
        <time>2016-07-17T03:09:38Z</time>
      </trkpt>
      <trkpt lat="43.21771" lon="5.63501">
        <ele>110</ele>
        <time>2016-07-17T03:11:38Z</time>
      </trkpt>
      <trkpt lat="43.21763" lon="5.63496">
        <ele>110</ele>
        <time>2016-07-17T03:13:38Z</time>
      </trkpt>
      <trkpt lat="43.21754" lon="5.63495">
        <ele>110</ele>
        <time>2016-07-17T03:15:38Z</time>
      </trkpt>
      <trkpt lat="43.21747" lon="5.63495">
        <ele>110</ele>
        <time>2016-07-17T03:17:38Z</time>
      </trkpt>
      <trkpt lat="43.21732" lon="5.63497">
        <ele>110</ele>
        <time>2016-07-17T03:19:38Z</time>
      </trkpt>
      <trkpt lat="43.21716" lon="5.635">
        <ele>110</ele>
        <time>2016-07-17T03:21:38Z</time>
      </trkpt>
      <trkpt lat="43.21709" lon="5.63501">
        <ele>110</ele>
        <time>2016-07-17T03:23:38Z</time>
      </trkpt>
      <trkpt lat="43.21702" lon="5.635">
        <ele>110</ele>
        <time>2016-07-17T03:25:38Z</time>
      </trkpt>
      <trkpt lat="43.21698" lon="5.63498">
        <ele>110</ele>
        <time>2016-07-17T03:27:38Z</time>
      </trkpt>
      <trkpt lat="43.21694" lon="5.63496">
        <ele>109</ele>
        <time>2016-07-17T03:29:38Z</time>
      </trkpt>
      <trkpt lat="43.21688" lon="5.63489">
        <ele>109</ele>
        <time>2016-07-17T03:31:38Z</time>
      </trkpt>
      <trkpt lat="43.21685" lon="5.63486">
        <ele>108</ele>
        <time>2016-07-17T03:33:38Z</time>
      </trkpt>
      <trkpt lat="43.21682" lon="5.63482">
        <ele>108</ele>
        <time>2016-07-17T03:35:38Z</time>
      </trkpt>
      <trkpt lat="43.21679" lon="5.63476">
        <ele>107</ele>
        <time>2016-07-17T03:37:38Z</time>
      </trkpt>
      <trkpt lat="43.21672" lon="5.63461">
        <ele>106</ele>
        <time>2016-07-17T03:39:38Z</time>
      </trkpt>
      <trkpt lat="43.21671" lon="5.63458">
        <ele>106</ele>
        <time>2016-07-17T03:41:38Z</time>
      </trkpt>
      <trkpt lat="43.2166" lon="5.63436">
        <ele>104</ele>
        <time>2016-07-17T03:43:38Z</time>
      </trkpt>
      <trkpt lat="43.21647" lon="5.63411">
        <ele>102</ele>
        <time>2016-07-17T03:45:38Z</time>
      </trkpt>
      <trkpt lat="43.21638" lon="5.63395">
        <ele>101</ele>
        <time>2016-07-17T03:47:38Z</time>
      </trkpt>
      <trkpt lat="43.21616" lon="5.6336">
        <ele>99</ele>
        <time>2016-07-17T03:49:38Z</time>
      </trkpt>
      <trkpt lat="43.21602" lon="5.63335">
        <ele>97</ele>
        <time>2016-07-17T03:51:38Z</time>
      </trkpt>
      <trkpt lat="43.21596" lon="5.63326">
        <ele>96</ele>
        <time>2016-07-17T03:53:38Z</time>
      </trkpt>
      <trkpt lat="43.21591" lon="5.63316">
        <ele>95</ele>
        <time>2016-07-17T03:55:38Z</time>
      </trkpt>
      <trkpt lat="43.21585" lon="5.63307">
        <ele>94</ele>
        <time>2016-07-17T03:57:38Z</time>
      </trkpt>
      <trkpt lat="43.21582" lon="5.63302">
        <ele>94</ele>
        <time>2016-07-17T03:59:38Z</time>
      </trkpt>
      <trkpt lat="43.21578" lon="5.63297">
        <ele>93</ele>
        <time>2016-07-17T04:01:38Z</time>
      </trkpt>
      <trkpt lat="43.2157" lon="5.63289">
        <ele>92</ele>
        <time>2016-07-17T04:03:38Z</time>
      </trkpt>
      <trkpt lat="43.21561" lon="5.63281">
        <ele>91</ele>
        <time>2016-07-17T04:05:38Z</time>
      </trkpt>
      <trkpt lat="43.2154" lon="5.63267">
        <ele>90</ele>
        <time>2016-07-17T04:07:38Z</time>
      </trkpt>
      <trkpt lat="43.21495" lon="5.63239">
        <ele>86</ele>
        <time>2016-07-17T04:09:38Z</time>
      </trkpt>
      <trkpt lat="43.21482" lon="5.6323">
        <ele>85</ele>
        <time>2016-07-17T04:11:38Z</time>
      </trkpt>
      <trkpt lat="43.21477" lon="5.63222">
        <ele>84</ele>
        <time>2016-07-17T04:13:38Z</time>
      </trkpt>
      <trkpt lat="43.21473" lon="5.63218">
        <ele>84</ele>
        <time>2016-07-17T04:15:38Z</time>
      </trkpt>
      <trkpt lat="43.21465" lon="5.63207">
        <ele>83</ele>
        <time>2016-07-17T04:17:38Z</time>
      </trkpt>
      <trkpt lat="43.21452" lon="5.63188">
        <ele>81</ele>
        <time>2016-07-17T04:19:38Z</time>
      </trkpt>
      <trkpt lat="43.21447" lon="5.6318">
        <ele>81</ele>
        <time>2016-07-17T04:21:38Z</time>
      </trkpt>
      <trkpt lat="43.21438" lon="5.63168">
        <ele>80</ele>
        <time>2016-07-17T04:23:38Z</time>
      </trkpt>
      <trkpt lat="43.21425" lon="5.63147">
        <ele>79</ele>
        <time>2016-07-17T04:25:38Z</time>
      </trkpt>
      <trkpt lat="43.21417" lon="5.63137">
        <ele>78</ele>
        <time>2016-07-17T04:27:38Z</time>
      </trkpt>
      <trkpt lat="43.21409" lon="5.63123">
        <ele>77</ele>
        <time>2016-07-17T04:29:38Z</time>
      </trkpt>
      <trkpt lat="43.21396" lon="5.63103">
        <ele>76</ele>
        <time>2016-07-17T04:31:38Z</time>
      </trkpt>
      <trkpt lat="43.21377" lon="5.63075">
        <ele>75</ele>
        <time>2016-07-17T04:33:38Z</time>
      </trkpt>
      <trkpt lat="43.21372" lon="5.63068">
        <ele>75</ele>
        <time>2016-07-17T04:35:38Z</time>
      </trkpt>
      <trkpt lat="43.21366" lon="5.63058">
        <ele>75</ele>
        <time>2016-07-17T04:37:38Z</time>
      </trkpt>
      <trkpt lat="43.21355" lon="5.63042">
        <ele>75</ele>
        <time>2016-07-17T04:39:38Z</time>
      </trkpt>
      <trkpt lat="43.21347" lon="5.63029">
        <ele>74</ele>
        <time>2016-07-17T04:41:38Z</time>
      </trkpt>
      <trkpt lat="43.21343" lon="5.63024">
        <ele>74</ele>
        <time>2016-07-17T04:43:38Z</time>
      </trkpt>
      <trkpt lat="43.21338" lon="5.63017">
        <ele>74</ele>
        <time>2016-07-17T04:45:38Z</time>
      </trkpt>
      <trkpt lat="43.21334" lon="5.63009">
        <ele>73</ele>
        <time>2016-07-17T04:47:38Z</time>
      </trkpt>
      <trkpt lat="43.21331" lon="5.63004">
        <ele>73</ele>
        <time>2016-07-17T04:49:38Z</time>
      </trkpt>
      <trkpt lat="43.21327" lon="5.62997">
        <ele>73</ele>
        <time>2016-07-17T04:51:38Z</time>
      </trkpt>
      <trkpt lat="43.21324" lon="5.62993">
        <ele>73</ele>
        <time>2016-07-17T04:53:38Z</time>
      </trkpt>
      <trkpt lat="43.21321" lon="5.62987">
        <ele>74</ele>
        <time>2016-07-17T04:55:38Z</time>
      </trkpt>
      <trkpt lat="43.21316" lon="5.62979">
        <ele>74</ele>
        <time>2016-07-17T04:57:38Z</time>
      </trkpt>
      <trkpt lat="43.21312" lon="5.62974">
        <ele>74</ele>
        <time>2016-07-17T04:59:38Z</time>
      </trkpt>
      <trkpt lat="43.21304" lon="5.62966">
        <ele>75</ele>
        <time>2016-07-17T05:01:38Z</time>
      </trkpt>
      <trkpt lat="43.21297" lon="5.62964">
        <ele>75</ele>
        <time>2016-07-17T05:03:38Z</time>
      </trkpt>
      <trkpt lat="43.21291" lon="5.62962">
        <ele>75</ele>
        <time>2016-07-17T05:05:38Z</time>
      </trkpt>
      <trkpt lat="43.21282" lon="5.62959">
        <ele>75</ele>
        <time>2016-07-17T05:07:38Z</time>
      </trkpt>
      <trkpt lat="43.21274" lon="5.62956">
        <ele>75</ele>
        <time>2016-07-17T05:09:38Z</time>
      </trkpt>
      <trkpt lat="43.21265" lon="5.62953">
        <ele>74</ele>
        <time>2016-07-17T05:11:38Z</time>
      </trkpt>
      <trkpt lat="43.21262" lon="5.62951">
        <ele>75</ele>
        <time>2016-07-17T05:13:38Z</time>
      </trkpt>
      <trkpt lat="43.21254" lon="5.62947">
        <ele>75</ele>
        <time>2016-07-17T05:15:38Z</time>
      </trkpt>
      <trkpt lat="43.21235" lon="5.62938">
        <ele>74</ele>
        <time>2016-07-17T05:17:38Z</time>
      </trkpt>
      <trkpt lat="43.21201" lon="5.62922">
        <ele>74</ele>
        <time>2016-07-17T05:19:38Z</time>
      </trkpt>
      <trkpt lat="43.21197" lon="5.6292">
        <ele>74</ele>
        <time>2016-07-17T05:21:38Z</time>
      </trkpt>
      <trkpt lat="43.21174" lon="5.62907">
        <ele>73</ele>
        <time>2016-07-17T05:23:38Z</time>
      </trkpt>
      <trkpt lat="43.21161" lon="5.62901">
        <ele>72</ele>
        <time>2016-07-17T05:25:38Z</time>
      </trkpt>
      <trkpt lat="43.21145" lon="5.62895">
        <ele>71</ele>
        <time>2016-07-17T05:27:38Z</time>
      </trkpt>
      <trkpt lat="43.21135" lon="5.62892">
        <ele>71</ele>
        <time>2016-07-17T05:29:38Z</time>
      </trkpt>
      <trkpt lat="43.21114" lon="5.62887">
        <ele>70</ele>
        <time>2016-07-17T05:31:38Z</time>
      </trkpt>
      <trkpt lat="43.21111" lon="5.62887">
        <ele>69</ele>
        <time>2016-07-17T05:33:38Z</time>
      </trkpt>
      <trkpt lat="43.21088" lon="5.62873">
        <ele>69</ele>
        <time>2016-07-17T05:35:38Z</time>
      </trkpt>
      <trkpt lat="43.2105" lon="5.62875">
        <ele>68</ele>
        <time>2016-07-17T05:37:38Z</time>
      </trkpt>
      <trkpt lat="43.21029" lon="5.62876">
        <ele>68</ele>
        <time>2016-07-17T05:39:38Z</time>
      </trkpt>
      <trkpt lat="43.21016" lon="5.62875">
        <ele>68</ele>
        <time>2016-07-17T05:41:38Z</time>
      </trkpt>
      <trkpt lat="43.21005" lon="5.62873">
        <ele>69</ele>
        <time>2016-07-17T05:43:38Z</time>
      </trkpt>
      <trkpt lat="43.2099" lon="5.62871">
        <ele>68</ele>
        <time>2016-07-17T05:45:38Z</time>
      </trkpt>
      <trkpt lat="43.2098" lon="5.62868">
        <ele>68</ele>
        <time>2016-07-17T05:47:38Z</time>
      </trkpt>
      <trkpt lat="43.20976" lon="5.62866">
        <ele>68</ele>
        <time>2016-07-17T05:49:38Z</time>
      </trkpt>
      <trkpt lat="43.20958" lon="5.62851">
        <ele>68</ele>
        <time>2016-07-17T05:51:38Z</time>
      </trkpt>
      <trkpt lat="43.20958" lon="5.62851">
        <ele>68</ele>
        <time>2016-07-17T05:53:38Z</time>
      </trkpt>
      <trkpt lat="43.20958" lon="5.62846">
        <ele>68</ele>
        <time>2016-07-17T05:55:38Z</time>
      </trkpt>
      <trkpt lat="43.20957" lon="5.62843">
        <ele>68</ele>
        <time>2016-07-17T05:57:38Z</time>
      </trkpt>
      <trkpt lat="43.20956" lon="5.62841">
        <ele>68</ele>
        <time>2016-07-17T05:59:38Z</time>
      </trkpt>
      <trkpt lat="43.20954" lon="5.62839">
        <ele>68</ele>
        <time>2016-07-17T06:01:38Z</time>
      </trkpt>
      <trkpt lat="43.20953" lon="5.62838">
        <ele>68</ele>
        <time>2016-07-17T06:03:38Z</time>
      </trkpt>
      <trkpt lat="43.20951" lon="5.62837">
        <ele>68</ele>
        <time>2016-07-17T06:05:38Z</time>
      </trkpt>
      <trkpt lat="43.20949" lon="5.62837">
        <ele>68</ele>
        <time>2016-07-17T06:07:38Z</time>
      </trkpt>
      <trkpt lat="43.20945" lon="5.62837">
        <ele>68</ele>
        <time>2016-07-17T06:09:38Z</time>
      </trkpt>
      <trkpt lat="43.20944" lon="5.62838">
        <ele>68</ele>
        <time>2016-07-17T06:11:38Z</time>
      </trkpt>
      <trkpt lat="43.20942" lon="5.6284">
        <ele>67</ele>
        <time>2016-07-17T06:13:38Z</time>
      </trkpt>
      <trkpt lat="43.20939" lon="5.62844">
        <ele>67</ele>
        <time>2016-07-17T06:15:38Z</time>
      </trkpt>
      <trkpt lat="43.20939" lon="5.62847">
        <ele>67</ele>
        <time>2016-07-17T06:17:38Z</time>
      </trkpt>
      <trkpt lat="43.20938" lon="5.62852">
        <ele>67</ele>
        <time>2016-07-17T06:19:38Z</time>
      </trkpt>
      <trkpt lat="43.20938" lon="5.62856">
        <ele>67</ele>
        <time>2016-07-17T06:21:38Z</time>
      </trkpt>
      <trkpt lat="43.20932" lon="5.62873">
        <ele>66</ele>
        <time>2016-07-17T06:23:38Z</time>
      </trkpt>
      <trkpt lat="43.2092" lon="5.62893">
        <ele>66</ele>
        <time>2016-07-17T06:25:38Z</time>
      </trkpt>
      <trkpt lat="43.20904" lon="5.62919">
        <ele>65</ele>
        <time>2016-07-17T06:27:38Z</time>
      </trkpt>
      <trkpt lat="43.20891" lon="5.62939">
        <ele>65</ele>
        <time>2016-07-17T06:29:38Z</time>
      </trkpt>
      <trkpt lat="43.20886" lon="5.62947">
        <ele>65</ele>
        <time>2016-07-17T06:31:38Z</time>
      </trkpt>
      <trkpt lat="43.20871" lon="5.62967">
        <ele>65</ele>
        <time>2016-07-17T06:33:38Z</time>
      </trkpt>
      <trkpt lat="43.20857" lon="5.62988">
        <ele>66</ele>
        <time>2016-07-17T06:35:38Z</time>
      </trkpt>
      <trkpt lat="43.20834" lon="5.63015">
        <ele>67</ele>
        <time>2016-07-17T06:37:38Z</time>
      </trkpt>
      <trkpt lat="43.20814" lon="5.63037">
        <ele>67</ele>
        <time>2016-07-17T06:39:38Z</time>
      </trkpt>
      <trkpt lat="43.20793" lon="5.63064">
        <ele>67</ele>
        <time>2016-07-17T06:41:38Z</time>
      </trkpt>
      <trkpt lat="43.20782" lon="5.63076">
        <ele>67</ele>
        <time>2016-07-17T06:43:38Z</time>
      </trkpt>
      <trkpt lat="43.2077" lon="5.63089">
        <ele>67</ele>
        <time>2016-07-17T06:45:38Z</time>
      </trkpt>
      <trkpt lat="43.20749" lon="5.63108">
        <ele>67</ele>
        <time>2016-07-17T06:47:38Z</time>
      </trkpt>
      <trkpt lat="43.20728" lon="5.63125">
        <ele>65</ele>
        <time>2016-07-17T06:49:38Z</time>
      </trkpt>
      <trkpt lat="43.20694" lon="5.6315">
        <ele>65</ele>
        <time>2016-07-17T06:51:38Z</time>
      </trkpt>
      <trkpt lat="43.20671" lon="5.63165">
        <ele>66</ele>
        <time>2016-07-17T06:53:38Z</time>
      </trkpt>
      <trkpt lat="43.20667" lon="5.63167">
        <ele>66</ele>
        <time>2016-07-17T06:55:38Z</time>
      </trkpt>
      <trkpt lat="43.20628" lon="5.63186">
        <ele>68</ele>
        <time>2016-07-17T06:57:38Z</time>
      </trkpt>
      <trkpt lat="43.20597" lon="5.63203">
        <ele>71</ele>
        <time>2016-07-17T06:59:38Z</time>
      </trkpt>
      <trkpt lat="43.20591" lon="5.63206">
        <ele>71</ele>
        <time>2016-07-17T07:01:38Z</time>
      </trkpt>
      <trkpt lat="43.2059" lon="5.63207">
        <ele>72</ele>
        <time>2016-07-17T07:03:38Z</time>
      </trkpt>
      <trkpt lat="43.20569" lon="5.63217">
        <ele>74</ele>
        <time>2016-07-17T07:05:38Z</time>
      </trkpt>
      <trkpt lat="43.20538" lon="5.6323">
        <ele>77</ele>
        <time>2016-07-17T07:07:38Z</time>
      </trkpt>
      <trkpt lat="43.20496" lon="5.63246">
        <ele>81</ele>
        <time>2016-07-17T07:09:38Z</time>
      </trkpt>
      <trkpt lat="43.20458" lon="5.6326">
        <ele>84</ele>
        <time>2016-07-17T07:11:38Z</time>
      </trkpt>
      <trkpt lat="43.20439" lon="5.63266">
        <ele>85</ele>
        <time>2016-07-17T07:13:38Z</time>
      </trkpt>
      <trkpt lat="43.20426" lon="5.63271">
        <ele>86</ele>
        <time>2016-07-17T07:15:38Z</time>
      </trkpt>
      <trkpt lat="43.20413" lon="5.63274">
        <ele>86</ele>
        <time>2016-07-17T07:17:38Z</time>
      </trkpt>
      <trkpt lat="43.20383" lon="5.63279">
        <ele>86</ele>
        <time>2016-07-17T07:19:38Z</time>
      </trkpt>
      <trkpt lat="43.20375" lon="5.6328">
        <ele>85</ele>
        <time>2016-07-17T07:21:38Z</time>
      </trkpt>
      <trkpt lat="43.20366" lon="5.63283">
        <ele>85</ele>
        <time>2016-07-17T07:23:38Z</time>
      </trkpt>
      <trkpt lat="43.20357" lon="5.63286">
        <ele>86</ele>
        <time>2016-07-17T07:25:38Z</time>
      </trkpt>
      <trkpt lat="43.20345" lon="5.63292">
        <ele>86</ele>
        <time>2016-07-17T07:27:38Z</time>
      </trkpt>
      <trkpt lat="43.20328" lon="5.63301">
        <ele>86</ele>
        <time>2016-07-17T07:29:38Z</time>
      </trkpt>
      <trkpt lat="43.20317" lon="5.63306">
        <ele>86</ele>
        <time>2016-07-17T07:31:38Z</time>
      </trkpt>
      <trkpt lat="43.20306" lon="5.63312">
        <ele>87</ele>
        <time>2016-07-17T07:33:38Z</time>
      </trkpt>
      <trkpt lat="43.20306" lon="5.63312">
        <ele>87</ele>
        <time>2016-07-17T07:35:38Z</time>
      </trkpt>
      <trkpt lat="43.20299" lon="5.63307">
        <ele>86</ele>
        <time>2016-07-17T07:37:38Z</time>
      </trkpt>
      <trkpt lat="43.20283" lon="5.63285">
        <ele>82</ele>
        <time>2016-07-17T07:39:38Z</time>
      </trkpt>
      <trkpt lat="43.20282" lon="5.63283">
        <ele>82</ele>
        <time>2016-07-17T07:41:38Z</time>
      </trkpt>
      <trkpt lat="43.20278" lon="5.63277">
        <ele>81</ele>
        <time>2016-07-17T07:43:38Z</time>
      </trkpt>
      <trkpt lat="43.20274" lon="5.63272">
        <ele>80</ele>
        <time>2016-07-17T07:45:38Z</time>
      </trkpt>
      <trkpt lat="43.20272" lon="5.6327">
        <ele>80</ele>
        <time>2016-07-17T07:47:38Z</time>
      </trkpt>
      <trkpt lat="43.20265" lon="5.63259">
        <ele>79</ele>
        <time>2016-07-17T07:49:38Z</time>
      </trkpt>
      <trkpt lat="43.20261" lon="5.63254">
        <ele>78</ele>
        <time>2016-07-17T07:51:38Z</time>
      </trkpt>
      <trkpt lat="43.20258" lon="5.63251">
        <ele>78</ele>
        <time>2016-07-17T07:53:38Z</time>
      </trkpt>
      <trkpt lat="43.20253" lon="5.63249">
        <ele>78</ele>
        <time>2016-07-17T07:55:38Z</time>
      </trkpt>
      <trkpt lat="43.20248" lon="5.63248">
        <ele>78</ele>
        <time>2016-07-17T07:57:38Z</time>
      </trkpt>
      <trkpt lat="43.20244" lon="5.63249">
        <ele>78</ele>
        <time>2016-07-17T07:59:38Z</time>
      </trkpt>
      <trkpt lat="43.20239" lon="5.63251">
        <ele>77</ele>
        <time>2016-07-17T08:01:38Z</time>
      </trkpt>
      <trkpt lat="43.2023" lon="5.63257">
        <ele>77</ele>
        <time>2016-07-17T08:03:38Z</time>
      </trkpt>
      <trkpt lat="43.2022" lon="5.63264">
        <ele>77</ele>
        <time>2016-07-17T08:05:38Z</time>
      </trkpt>
      <trkpt lat="43.20211" lon="5.63272">
        <ele>77</ele>
        <time>2016-07-17T08:07:38Z</time>
      </trkpt>
      <trkpt lat="43.20196" lon="5.63285">
        <ele>77</ele>
        <time>2016-07-17T08:09:38Z</time>
      </trkpt>
      <trkpt lat="43.20181" lon="5.63294">
        <ele>77</ele>
        <time>2016-07-17T08:11:38Z</time>
      </trkpt>
      <trkpt lat="43.20168" lon="5.63304">
        <ele>77</ele>
        <time>2016-07-17T08:13:38Z</time>
      </trkpt>
      <trkpt lat="43.20148" lon="5.63316">
        <ele>75</ele>
        <time>2016-07-17T08:15:38Z</time>
      </trkpt>
      <trkpt lat="43.20138" lon="5.63322">
        <ele>75</ele>
        <time>2016-07-17T08:17:38Z</time>
      </trkpt>
      <trkpt lat="43.20118" lon="5.63333">
        <ele>73</ele>
        <time>2016-07-17T08:19:38Z</time>
      </trkpt>
      <trkpt lat="43.20111" lon="5.63337">
        <ele>73</ele>
        <time>2016-07-17T08:21:38Z</time>
      </trkpt>
      <trkpt lat="43.20105" lon="5.63339">
        <ele>72</ele>
        <time>2016-07-17T08:23:38Z</time>
      </trkpt>
      <trkpt lat="43.201" lon="5.63339">
        <ele>71</ele>
        <time>2016-07-17T08:25:38Z</time>
      </trkpt>
      <trkpt lat="43.20096" lon="5.63338">
        <ele>71</ele>
        <time>2016-07-17T08:27:38Z</time>
      </trkpt>
      <trkpt lat="43.20088" lon="5.63334">
        <ele>70</ele>
        <time>2016-07-17T08:29:38Z</time>
      </trkpt>
      <trkpt lat="43.20072" lon="5.63326">
        <ele>68</ele>
        <time>2016-07-17T08:31:38Z</time>
      </trkpt>
      <trkpt lat="43.20051" lon="5.63318">
        <ele>66</ele>
        <time>2016-07-17T08:33:38Z</time>
      </trkpt>
      <trkpt lat="43.20019" lon="5.63311">
        <ele>64</ele>
        <time>2016-07-17T08:35:38Z</time>
      </trkpt>
      <trkpt lat="43.20014" lon="5.6331">
        <ele>64</ele>
        <time>2016-07-17T08:37:38Z</time>
      </trkpt>
      <trkpt lat="43.20005" lon="5.63308">
        <ele>64</ele>
        <time>2016-07-17T08:39:38Z</time>
      </trkpt>
      <trkpt lat="43.19994" lon="5.63306">
        <ele>63</ele>
        <time>2016-07-17T08:41:38Z</time>
      </trkpt>
      <trkpt lat="43.19986" lon="5.63304">
        <ele>63</ele>
        <time>2016-07-17T08:43:38Z</time>
      </trkpt>
      <trkpt lat="43.19977" lon="5.63303">
        <ele>63</ele>
        <time>2016-07-17T08:45:38Z</time>
      </trkpt>
      <trkpt lat="43.19965" lon="5.63304">
        <ele>63</ele>
        <time>2016-07-17T08:47:38Z</time>
      </trkpt>
      <trkpt lat="43.19953" lon="5.63306">
        <ele>63</ele>
        <time>2016-07-17T08:49:38Z</time>
      </trkpt>
      <trkpt lat="43.19937" lon="5.63309">
        <ele>63</ele>
        <time>2016-07-17T08:51:38Z</time>
      </trkpt>
      <trkpt lat="43.19929" lon="5.63312">
        <ele>63</ele>
        <time>2016-07-17T08:53:38Z</time>
      </trkpt>
      <trkpt lat="43.19913" lon="5.63318">
        <ele>63</ele>
        <time>2016-07-17T08:55:38Z</time>
      </trkpt>
      <trkpt lat="43.19908" lon="5.63321">
        <ele>63</ele>
        <time>2016-07-17T08:57:38Z</time>
      </trkpt>
      <trkpt lat="43.19902" lon="5.63323">
        <ele>63</ele>
        <time>2016-07-17T08:59:38Z</time>
      </trkpt>
      <trkpt lat="43.19896" lon="5.63327">
        <ele>63</ele>
        <time>2016-07-17T09:01:38Z</time>
      </trkpt>
      <trkpt lat="43.1989" lon="5.6333">
        <ele>63</ele>
        <time>2016-07-17T09:03:38Z</time>
      </trkpt>
      <trkpt lat="43.1988" lon="5.63336">
        <ele>63</ele>
        <time>2016-07-17T09:05:38Z</time>
      </trkpt>
      <trkpt lat="43.19874" lon="5.63338">
        <ele>63</ele>
        <time>2016-07-17T09:07:38Z</time>
      </trkpt>
      <trkpt lat="43.19869" lon="5.6334">
        <ele>63</ele>
        <time>2016-07-17T09:09:38Z</time>
      </trkpt>
      <trkpt lat="43.19863" lon="5.6334">
        <ele>63</ele>
        <time>2016-07-17T09:11:38Z</time>
      </trkpt>
      <trkpt lat="43.19859" lon="5.63339">
        <ele>62</ele>
        <time>2016-07-17T09:13:38Z</time>
      </trkpt>
      <trkpt lat="43.19852" lon="5.63335">
        <ele>61</ele>
        <time>2016-07-17T09:15:38Z</time>
      </trkpt>
      <trkpt lat="43.19846" lon="5.63328">
        <ele>60</ele>
        <time>2016-07-17T09:17:38Z</time>
      </trkpt>
      <trkpt lat="43.1984" lon="5.63321">
        <ele>60</ele>
        <time>2016-07-17T09:19:38Z</time>
      </trkpt>
      <trkpt lat="43.19836" lon="5.63315">
        <ele>59</ele>
        <time>2016-07-17T09:21:38Z</time>
      </trkpt>
      <trkpt lat="43.19832" lon="5.63311">
        <ele>59</ele>
        <time>2016-07-17T09:23:38Z</time>
      </trkpt>
      <trkpt lat="43.19828" lon="5.63304">
        <ele>58</ele>
        <time>2016-07-17T09:25:38Z</time>
      </trkpt>
      <trkpt lat="43.19825" lon="5.63298">
        <ele>57</ele>
        <time>2016-07-17T09:27:38Z</time>
      </trkpt>
      <trkpt lat="43.19823" lon="5.63292">
        <ele>56</ele>
        <time>2016-07-17T09:29:38Z</time>
      </trkpt>
      <trkpt lat="43.19823" lon="5.63291">
        <ele>56</ele>
        <time>2016-07-17T09:31:38Z</time>
      </trkpt>
      <trkpt lat="43.19821" lon="5.63279">
        <ele>55</ele>
        <time>2016-07-17T09:33:38Z</time>
      </trkpt>
      <trkpt lat="43.19821" lon="5.63279">
        <ele>55</ele>
        <time>2016-07-17T09:35:38Z</time>
      </trkpt>
      <trkpt lat="43.19762" lon="5.63325">
        <ele>51</ele>
        <time>2016-07-17T09:37:38Z</time>
      </trkpt>
      <trkpt lat="43.19753" lon="5.63331">
        <ele>50</ele>
        <time>2016-07-17T09:39:38Z</time>
      </trkpt>
      <trkpt lat="43.19741" lon="5.63336">
        <ele>50</ele>
        <time>2016-07-17T09:41:38Z</time>
      </trkpt>
      <trkpt lat="43.1973" lon="5.63339">
        <ele>50</ele>
        <time>2016-07-17T09:43:38Z</time>
      </trkpt>
      <trkpt lat="43.19716" lon="5.6334">
        <ele>50</ele>
        <time>2016-07-17T09:45:38Z</time>
      </trkpt>
      <trkpt lat="43.19697" lon="5.63339">
        <ele>48</ele>
        <time>2016-07-17T09:47:38Z</time>
      </trkpt>
      <trkpt lat="43.19668" lon="5.63337">
        <ele>47</ele>
        <time>2016-07-17T09:49:38Z</time>
      </trkpt>
      <trkpt lat="43.19639" lon="5.63338">
        <ele>45</ele>
        <time>2016-07-17T09:51:38Z</time>
      </trkpt>
      <trkpt lat="43.19631" lon="5.6334">
        <ele>45</ele>
        <time>2016-07-17T09:53:38Z</time>
      </trkpt>
      <trkpt lat="43.19619" lon="5.63346">
        <ele>46</ele>
        <time>2016-07-17T09:55:38Z</time>
      </trkpt>
      <trkpt lat="43.19575" lon="5.63374">
        <ele>47</ele>
        <time>2016-07-17T09:57:38Z</time>
      </trkpt>
      <trkpt lat="43.19521" lon="5.63404">
        <ele>45</ele>
        <time>2016-07-17T09:59:38Z</time>
      </trkpt>
      <trkpt lat="43.19509" lon="5.63413">
        <ele>45</ele>
        <time>2016-07-17T10:01:38Z</time>
      </trkpt>
      <trkpt lat="43.19495" lon="5.63425">
        <ele>45</ele>
        <time>2016-07-17T10:03:38Z</time>
      </trkpt>
      <trkpt lat="43.19481" lon="5.63441">
        <ele>46</ele>
        <time>2016-07-17T10:05:38Z</time>
      </trkpt>
      <trkpt lat="43.19477" lon="5.63446">
        <ele>46</ele>
        <time>2016-07-17T10:07:38Z</time>
      </trkpt>
      <trkpt lat="43.19471" lon="5.63453">
        <ele>46</ele>
        <time>2016-07-17T10:09:38Z</time>
      </trkpt>
      <trkpt lat="43.19465" lon="5.63457">
        <ele>46</ele>
        <time>2016-07-17T10:11:38Z</time>
      </trkpt>
      <trkpt lat="43.19458" lon="5.6346">
        <ele>46</ele>
        <time>2016-07-17T10:13:38Z</time>
      </trkpt>
      <trkpt lat="43.1945" lon="5.63462">
        <ele>46</ele>
        <time>2016-07-17T10:15:38Z</time>
      </trkpt>
      <trkpt lat="43.19434" lon="5.63462">
        <ele>45</ele>
        <time>2016-07-17T10:17:38Z</time>
      </trkpt>
      <trkpt lat="43.19423" lon="5.6346">
        <ele>44</ele>
        <time>2016-07-17T10:19:38Z</time>
      </trkpt>
      <trkpt lat="43.1939" lon="5.63456">
        <ele>42</ele>
        <time>2016-07-17T10:21:38Z</time>
      </trkpt>
      <trkpt lat="43.19379" lon="5.63454">
        <ele>41</ele>
        <time>2016-07-17T10:23:38Z</time>
      </trkpt>
      <trkpt lat="43.19354" lon="5.63449">
        <ele>40</ele>
        <time>2016-07-17T10:25:38Z</time>
      </trkpt>
      <trkpt lat="43.19331" lon="5.63443">
        <ele>39</ele>
        <time>2016-07-17T10:27:38Z</time>
      </trkpt>
      <trkpt lat="43.19326" lon="5.63443">
        <ele>39</ele>
        <time>2016-07-17T10:29:38Z</time>
      </trkpt>
      <trkpt lat="43.19316" lon="5.63447">
        <ele>39</ele>
        <time>2016-07-17T10:31:38Z</time>
      </trkpt>
      <trkpt lat="43.19313" lon="5.63449">
        <ele>39</ele>
        <time>2016-07-17T10:33:38Z</time>
      </trkpt>
      <trkpt lat="43.19297" lon="5.63468">
        <ele>39</ele>
        <time>2016-07-17T10:35:38Z</time>
      </trkpt>
      <trkpt lat="43.19281" lon="5.63492">
        <ele>39</ele>
        <time>2016-07-17T10:37:38Z</time>
      </trkpt>
      <trkpt lat="43.19271" lon="5.63505">
        <ele>38</ele>
        <time>2016-07-17T10:39:38Z</time>
      </trkpt>
      <trkpt lat="43.19271" lon="5.63505">
        <ele>38</ele>
        <time>2016-07-17T10:41:38Z</time>
      </trkpt>
      <trkpt lat="43.19258" lon="5.63489">
        <ele>38</ele>
        <time>2016-07-17T10:43:38Z</time>
      </trkpt>
      <trkpt lat="43.19252" lon="5.63478">
        <ele>37</ele>
        <time>2016-07-17T10:45:38Z</time>
      </trkpt>
      <trkpt lat="43.19246" lon="5.63462">
        <ele>37</ele>
        <time>2016-07-17T10:47:38Z</time>
      </trkpt>
      <trkpt lat="43.19241" lon="5.63446">
        <ele>37</ele>
        <time>2016-07-17T10:49:38Z</time>
      </trkpt>
      <trkpt lat="43.19228" lon="5.63401">
        <ele>36</ele>
        <time>2016-07-17T10:51:38Z</time>
      </trkpt>
      <trkpt lat="43.19222" lon="5.63377">
        <ele>34</ele>
        <time>2016-07-17T10:53:38Z</time>
      </trkpt>
      <trkpt lat="43.1922" lon="5.63364">
        <ele>33</ele>
        <time>2016-07-17T10:55:38Z</time>
      </trkpt>
      <trkpt lat="43.19218" lon="5.63352">
        <ele>32</ele>
        <time>2016-07-17T10:57:38Z</time>
      </trkpt>
      <trkpt lat="43.19213" lon="5.63343">
        <ele>31</ele>
        <time>2016-07-17T10:59:38Z</time>
      </trkpt>
      <trkpt lat="43.19174" lon="5.63298">
        <ele>31</ele>
        <time>2016-07-17T11:01:38Z</time>
      </trkpt>
    </trkseg>
  </trk>
</gpx>